<?xml version="1.0" encoding="UTF-8"?>
<gpx xmlns="http://www.topografix.com/GPX/1/1"
     creator="GpsDumpMac 0.29"
     version="1.1"
     xmlns:xsi="http://www.w3.org/2001/XMLSchema-instance"
     xsi:schemaLocation="http://www.topografix.com/GPX/1/1 http://www.topografix.com/GPX/1/1/gpx.xsd">
  <metadata>
    <link href="http://www.gethome.no/stein.sorensen/">
      <text>GPS dump for www.flightlog.org</text>
    </link>
    <time>2015-08-17T15:43:12Z</time>
    <bounds minlat="40.422000" minlon="-5.306550" maxlat="40.624567" maxlon="-4.794533"/>
  </metadata>
  <trk>
    <name>Track 001</name>
    <trkseg>
      <trkpt lat="40.422000" lon="-5.301183">
        <ele>1914.0</ele>
        <time>2015-08-16T12:15:37Z</time>
      </trkpt>
      <trkpt lat="40.422067" lon="-5.301217">
        <ele>1914.0</ele>
        <time>2015-08-16T12:15:38Z</time>
      </trkpt>
      <trkpt lat="40.422117" lon="-5.301250">
        <ele>1914.0</ele>
        <time>2015-08-16T12:15:39Z</time>
      </trkpt>
      <trkpt lat="40.422183" lon="-5.301283">
        <ele>1914.0</ele>
        <time>2015-08-16T12:15:40Z</time>
      </trkpt>
      <trkpt lat="40.422233" lon="-5.301300">
        <ele>1915.0</ele>
        <time>2015-08-16T12:15:41Z</time>
      </trkpt>
      <trkpt lat="40.422283" lon="-5.301333">
        <ele>1915.0</ele>
        <time>2015-08-16T12:15:42Z</time>
      </trkpt>
      <trkpt lat="40.422333" lon="-5.301367">
        <ele>1915.0</ele>
        <time>2015-08-16T12:15:43Z</time>
      </trkpt>
      <trkpt lat="40.422383" lon="-5.301417">
        <ele>1914.0</ele>
        <time>2015-08-16T12:15:44Z</time>
      </trkpt>
      <trkpt lat="40.422450" lon="-5.301433">
        <ele>1914.0</ele>
        <time>2015-08-16T12:15:45Z</time>
      </trkpt>
      <trkpt lat="40.422500" lon="-5.301450">
        <ele>1913.0</ele>
        <time>2015-08-16T12:15:46Z</time>
      </trkpt>
      <trkpt lat="40.422567" lon="-5.301450">
        <ele>1912.0</ele>
        <time>2015-08-16T12:15:47Z</time>
      </trkpt>
      <trkpt lat="40.422633" lon="-5.301450">
        <ele>1911.0</ele>
        <time>2015-08-16T12:15:48Z</time>
      </trkpt>
      <trkpt lat="40.422700" lon="-5.301433">
        <ele>1910.0</ele>
        <time>2015-08-16T12:15:49Z</time>
      </trkpt>
      <trkpt lat="40.422783" lon="-5.301417">
        <ele>1909.0</ele>
        <time>2015-08-16T12:15:50Z</time>
      </trkpt>
      <trkpt lat="40.422867" lon="-5.301433">
        <ele>1908.0</ele>
        <time>2015-08-16T12:15:51Z</time>
      </trkpt>
      <trkpt lat="40.422933" lon="-5.301433">
        <ele>1907.0</ele>
        <time>2015-08-16T12:15:52Z</time>
      </trkpt>
      <trkpt lat="40.423000" lon="-5.301417">
        <ele>1907.0</ele>
        <time>2015-08-16T12:15:53Z</time>
      </trkpt>
      <trkpt lat="40.423067" lon="-5.301417">
        <ele>1906.0</ele>
        <time>2015-08-16T12:15:54Z</time>
      </trkpt>
      <trkpt lat="40.423133" lon="-5.301417">
        <ele>1905.0</ele>
        <time>2015-08-16T12:15:55Z</time>
      </trkpt>
      <trkpt lat="40.423183" lon="-5.301417">
        <ele>1904.0</ele>
        <time>2015-08-16T12:15:56Z</time>
      </trkpt>
      <trkpt lat="40.423267" lon="-5.301417">
        <ele>1902.0</ele>
        <time>2015-08-16T12:15:57Z</time>
      </trkpt>
      <trkpt lat="40.423333" lon="-5.301417">
        <ele>1902.0</ele>
        <time>2015-08-16T12:15:58Z</time>
      </trkpt>
      <trkpt lat="40.423417" lon="-5.301383">
        <ele>1902.0</ele>
        <time>2015-08-16T12:15:59Z</time>
      </trkpt>
      <trkpt lat="40.423483" lon="-5.301367">
        <ele>1902.0</ele>
        <time>2015-08-16T12:16:00Z</time>
      </trkpt>
      <trkpt lat="40.423550" lon="-5.301333">
        <ele>1902.0</ele>
        <time>2015-08-16T12:16:01Z</time>
      </trkpt>
      <trkpt lat="40.423617" lon="-5.301317">
        <ele>1902.0</ele>
        <time>2015-08-16T12:16:02Z</time>
      </trkpt>
      <trkpt lat="40.423667" lon="-5.301300">
        <ele>1902.0</ele>
        <time>2015-08-16T12:16:03Z</time>
      </trkpt>
      <trkpt lat="40.423733" lon="-5.301283">
        <ele>1901.0</ele>
        <time>2015-08-16T12:16:04Z</time>
      </trkpt>
      <trkpt lat="40.423800" lon="-5.301267">
        <ele>1900.0</ele>
        <time>2015-08-16T12:16:05Z</time>
      </trkpt>
      <trkpt lat="40.423867" lon="-5.301250">
        <ele>1899.0</ele>
        <time>2015-08-16T12:16:06Z</time>
      </trkpt>
      <trkpt lat="40.423950" lon="-5.301217">
        <ele>1899.0</ele>
        <time>2015-08-16T12:16:07Z</time>
      </trkpt>
      <trkpt lat="40.424017" lon="-5.301183">
        <ele>1899.0</ele>
        <time>2015-08-16T12:16:08Z</time>
      </trkpt>
      <trkpt lat="40.424083" lon="-5.301167">
        <ele>1899.0</ele>
        <time>2015-08-16T12:16:09Z</time>
      </trkpt>
      <trkpt lat="40.424150" lon="-5.301150">
        <ele>1898.0</ele>
        <time>2015-08-16T12:16:10Z</time>
      </trkpt>
      <trkpt lat="40.424217" lon="-5.301150">
        <ele>1897.0</ele>
        <time>2015-08-16T12:16:11Z</time>
      </trkpt>
      <trkpt lat="40.424300" lon="-5.301133">
        <ele>1896.0</ele>
        <time>2015-08-16T12:16:12Z</time>
      </trkpt>
      <trkpt lat="40.424383" lon="-5.301100">
        <ele>1896.0</ele>
        <time>2015-08-16T12:16:13Z</time>
      </trkpt>
      <trkpt lat="40.424467" lon="-5.301067">
        <ele>1897.0</ele>
        <time>2015-08-16T12:16:14Z</time>
      </trkpt>
      <trkpt lat="40.424550" lon="-5.301017">
        <ele>1898.0</ele>
        <time>2015-08-16T12:16:15Z</time>
      </trkpt>
      <trkpt lat="40.424617" lon="-5.300967">
        <ele>1900.0</ele>
        <time>2015-08-16T12:16:16Z</time>
      </trkpt>
      <trkpt lat="40.424667" lon="-5.300917">
        <ele>1902.0</ele>
        <time>2015-08-16T12:16:17Z</time>
      </trkpt>
      <trkpt lat="40.424733" lon="-5.300883">
        <ele>1902.0</ele>
        <time>2015-08-16T12:16:18Z</time>
      </trkpt>
      <trkpt lat="40.424800" lon="-5.300867">
        <ele>1902.0</ele>
        <time>2015-08-16T12:16:19Z</time>
      </trkpt>
      <trkpt lat="40.424867" lon="-5.300867">
        <ele>1903.0</ele>
        <time>2015-08-16T12:16:20Z</time>
      </trkpt>
      <trkpt lat="40.424917" lon="-5.300883">
        <ele>1905.0</ele>
        <time>2015-08-16T12:16:21Z</time>
      </trkpt>
      <trkpt lat="40.424967" lon="-5.300933">
        <ele>1907.0</ele>
        <time>2015-08-16T12:16:22Z</time>
      </trkpt>
      <trkpt lat="40.425000" lon="-5.300983">
        <ele>1909.0</ele>
        <time>2015-08-16T12:16:23Z</time>
      </trkpt>
      <trkpt lat="40.425017" lon="-5.301067">
        <ele>1910.0</ele>
        <time>2015-08-16T12:16:24Z</time>
      </trkpt>
      <trkpt lat="40.424983" lon="-5.301150">
        <ele>1910.0</ele>
        <time>2015-08-16T12:16:25Z</time>
      </trkpt>
      <trkpt lat="40.424917" lon="-5.301250">
        <ele>1910.0</ele>
        <time>2015-08-16T12:16:26Z</time>
      </trkpt>
      <trkpt lat="40.424817" lon="-5.301317">
        <ele>1912.0</ele>
        <time>2015-08-16T12:16:27Z</time>
      </trkpt>
      <trkpt lat="40.424683" lon="-5.301333">
        <ele>1914.0</ele>
        <time>2015-08-16T12:16:28Z</time>
      </trkpt>
      <trkpt lat="40.424567" lon="-5.301283">
        <ele>1917.0</ele>
        <time>2015-08-16T12:16:29Z</time>
      </trkpt>
      <trkpt lat="40.424450" lon="-5.301200">
        <ele>1919.0</ele>
        <time>2015-08-16T12:16:30Z</time>
      </trkpt>
      <trkpt lat="40.424350" lon="-5.301100">
        <ele>1922.0</ele>
        <time>2015-08-16T12:16:31Z</time>
      </trkpt>
      <trkpt lat="40.424267" lon="-5.301033">
        <ele>1924.0</ele>
        <time>2015-08-16T12:16:32Z</time>
      </trkpt>
      <trkpt lat="40.424167" lon="-5.301000">
        <ele>1925.0</ele>
        <time>2015-08-16T12:16:33Z</time>
      </trkpt>
      <trkpt lat="40.424067" lon="-5.301000">
        <ele>1924.0</ele>
        <time>2015-08-16T12:16:34Z</time>
      </trkpt>
      <trkpt lat="40.423967" lon="-5.301033">
        <ele>1923.0</ele>
        <time>2015-08-16T12:16:35Z</time>
      </trkpt>
      <trkpt lat="40.423900" lon="-5.301100">
        <ele>1923.0</ele>
        <time>2015-08-16T12:16:36Z</time>
      </trkpt>
      <trkpt lat="40.423850" lon="-5.301183">
        <ele>1923.0</ele>
        <time>2015-08-16T12:16:37Z</time>
      </trkpt>
      <trkpt lat="40.423850" lon="-5.301250">
        <ele>1923.0</ele>
        <time>2015-08-16T12:16:38Z</time>
      </trkpt>
      <trkpt lat="40.423883" lon="-5.301300">
        <ele>1921.0</ele>
        <time>2015-08-16T12:16:39Z</time>
      </trkpt>
      <trkpt lat="40.423950" lon="-5.301333">
        <ele>1919.0</ele>
        <time>2015-08-16T12:16:40Z</time>
      </trkpt>
      <trkpt lat="40.424017" lon="-5.301333">
        <ele>1917.0</ele>
        <time>2015-08-16T12:16:41Z</time>
      </trkpt>
      <trkpt lat="40.424100" lon="-5.301300">
        <ele>1915.0</ele>
        <time>2015-08-16T12:16:42Z</time>
      </trkpt>
      <trkpt lat="40.424183" lon="-5.301233">
        <ele>1914.0</ele>
        <time>2015-08-16T12:16:43Z</time>
      </trkpt>
      <trkpt lat="40.424267" lon="-5.301133">
        <ele>1913.0</ele>
        <time>2015-08-16T12:16:44Z</time>
      </trkpt>
      <trkpt lat="40.424333" lon="-5.301033">
        <ele>1913.0</ele>
        <time>2015-08-16T12:16:45Z</time>
      </trkpt>
      <trkpt lat="40.424417" lon="-5.300950">
        <ele>1913.0</ele>
        <time>2015-08-16T12:16:46Z</time>
      </trkpt>
      <trkpt lat="40.424500" lon="-5.300867">
        <ele>1912.0</ele>
        <time>2015-08-16T12:16:47Z</time>
      </trkpt>
      <trkpt lat="40.424583" lon="-5.300783">
        <ele>1912.0</ele>
        <time>2015-08-16T12:16:48Z</time>
      </trkpt>
      <trkpt lat="40.424650" lon="-5.300700">
        <ele>1913.0</ele>
        <time>2015-08-16T12:16:49Z</time>
      </trkpt>
      <trkpt lat="40.424733" lon="-5.300600">
        <ele>1915.0</ele>
        <time>2015-08-16T12:16:50Z</time>
      </trkpt>
      <trkpt lat="40.424800" lon="-5.300517">
        <ele>1917.0</ele>
        <time>2015-08-16T12:16:51Z</time>
      </trkpt>
      <trkpt lat="40.424867" lon="-5.300450">
        <ele>1921.0</ele>
        <time>2015-08-16T12:16:52Z</time>
      </trkpt>
      <trkpt lat="40.424917" lon="-5.300400">
        <ele>1924.0</ele>
        <time>2015-08-16T12:16:53Z</time>
      </trkpt>
      <trkpt lat="40.424950" lon="-5.300350">
        <ele>1925.0</ele>
        <time>2015-08-16T12:16:54Z</time>
      </trkpt>
      <trkpt lat="40.424983" lon="-5.300300">
        <ele>1925.0</ele>
        <time>2015-08-16T12:16:55Z</time>
      </trkpt>
      <trkpt lat="40.425033" lon="-5.300250">
        <ele>1923.0</ele>
        <time>2015-08-16T12:16:56Z</time>
      </trkpt>
      <trkpt lat="40.425083" lon="-5.300200">
        <ele>1921.0</ele>
        <time>2015-08-16T12:16:57Z</time>
      </trkpt>
      <trkpt lat="40.425150" lon="-5.300133">
        <ele>1920.0</ele>
        <time>2015-08-16T12:16:58Z</time>
      </trkpt>
      <trkpt lat="40.425217" lon="-5.300083">
        <ele>1919.0</ele>
        <time>2015-08-16T12:16:59Z</time>
      </trkpt>
      <trkpt lat="40.425283" lon="-5.300033">
        <ele>1918.0</ele>
        <time>2015-08-16T12:17:00Z</time>
      </trkpt>
      <trkpt lat="40.425367" lon="-5.300000">
        <ele>1916.0</ele>
        <time>2015-08-16T12:17:01Z</time>
      </trkpt>
      <trkpt lat="40.425433" lon="-5.299950">
        <ele>1914.0</ele>
        <time>2015-08-16T12:17:02Z</time>
      </trkpt>
      <trkpt lat="40.425533" lon="-5.299900">
        <ele>1912.0</ele>
        <time>2015-08-16T12:17:03Z</time>
      </trkpt>
      <trkpt lat="40.425617" lon="-5.299883">
        <ele>1911.0</ele>
        <time>2015-08-16T12:17:04Z</time>
      </trkpt>
      <trkpt lat="40.425700" lon="-5.299900">
        <ele>1910.0</ele>
        <time>2015-08-16T12:17:05Z</time>
      </trkpt>
      <trkpt lat="40.425767" lon="-5.299900">
        <ele>1910.0</ele>
        <time>2015-08-16T12:17:06Z</time>
      </trkpt>
      <trkpt lat="40.425833" lon="-5.299933">
        <ele>1910.0</ele>
        <time>2015-08-16T12:17:07Z</time>
      </trkpt>
      <trkpt lat="40.425900" lon="-5.299950">
        <ele>1910.0</ele>
        <time>2015-08-16T12:17:08Z</time>
      </trkpt>
      <trkpt lat="40.425983" lon="-5.299967">
        <ele>1910.0</ele>
        <time>2015-08-16T12:17:09Z</time>
      </trkpt>
      <trkpt lat="40.426067" lon="-5.299983">
        <ele>1909.0</ele>
        <time>2015-08-16T12:17:10Z</time>
      </trkpt>
      <trkpt lat="40.426167" lon="-5.299983">
        <ele>1911.0</ele>
        <time>2015-08-16T12:17:11Z</time>
      </trkpt>
      <trkpt lat="40.426250" lon="-5.299983">
        <ele>1913.0</ele>
        <time>2015-08-16T12:17:12Z</time>
      </trkpt>
      <trkpt lat="40.426333" lon="-5.299967">
        <ele>1915.0</ele>
        <time>2015-08-16T12:17:13Z</time>
      </trkpt>
      <trkpt lat="40.426383" lon="-5.299967">
        <ele>1917.0</ele>
        <time>2015-08-16T12:17:14Z</time>
      </trkpt>
      <trkpt lat="40.426433" lon="-5.300000">
        <ele>1918.0</ele>
        <time>2015-08-16T12:17:15Z</time>
      </trkpt>
      <trkpt lat="40.426483" lon="-5.300033">
        <ele>1917.0</ele>
        <time>2015-08-16T12:17:16Z</time>
      </trkpt>
      <trkpt lat="40.426517" lon="-5.300100">
        <ele>1917.0</ele>
        <time>2015-08-16T12:17:17Z</time>
      </trkpt>
      <trkpt lat="40.426550" lon="-5.300167">
        <ele>1916.0</ele>
        <time>2015-08-16T12:17:18Z</time>
      </trkpt>
      <trkpt lat="40.426583" lon="-5.300233">
        <ele>1916.0</ele>
        <time>2015-08-16T12:17:19Z</time>
      </trkpt>
      <trkpt lat="40.426633" lon="-5.300300">
        <ele>1916.0</ele>
        <time>2015-08-16T12:17:20Z</time>
      </trkpt>
      <trkpt lat="40.426700" lon="-5.300367">
        <ele>1915.0</ele>
        <time>2015-08-16T12:17:21Z</time>
      </trkpt>
      <trkpt lat="40.426750" lon="-5.300417">
        <ele>1915.0</ele>
        <time>2015-08-16T12:17:22Z</time>
      </trkpt>
      <trkpt lat="40.426800" lon="-5.300483">
        <ele>1915.0</ele>
        <time>2015-08-16T12:17:23Z</time>
      </trkpt>
      <trkpt lat="40.426867" lon="-5.300517">
        <ele>1915.0</ele>
        <time>2015-08-16T12:17:24Z</time>
      </trkpt>
      <trkpt lat="40.426933" lon="-5.300567">
        <ele>1913.0</ele>
        <time>2015-08-16T12:17:25Z</time>
      </trkpt>
      <trkpt lat="40.427000" lon="-5.300583">
        <ele>1913.0</ele>
        <time>2015-08-16T12:17:26Z</time>
      </trkpt>
      <trkpt lat="40.427067" lon="-5.300617">
        <ele>1912.0</ele>
        <time>2015-08-16T12:17:27Z</time>
      </trkpt>
      <trkpt lat="40.427133" lon="-5.300617">
        <ele>1911.0</ele>
        <time>2015-08-16T12:17:28Z</time>
      </trkpt>
      <trkpt lat="40.427217" lon="-5.300583">
        <ele>1909.0</ele>
        <time>2015-08-16T12:17:29Z</time>
      </trkpt>
      <trkpt lat="40.427300" lon="-5.300533">
        <ele>1906.0</ele>
        <time>2015-08-16T12:17:30Z</time>
      </trkpt>
      <trkpt lat="40.427367" lon="-5.300433">
        <ele>1904.0</ele>
        <time>2015-08-16T12:17:31Z</time>
      </trkpt>
      <trkpt lat="40.427417" lon="-5.300317">
        <ele>1902.0</ele>
        <time>2015-08-16T12:17:32Z</time>
      </trkpt>
      <trkpt lat="40.427450" lon="-5.300183">
        <ele>1900.0</ele>
        <time>2015-08-16T12:17:33Z</time>
      </trkpt>
      <trkpt lat="40.427450" lon="-5.300033">
        <ele>1899.0</ele>
        <time>2015-08-16T12:17:34Z</time>
      </trkpt>
      <trkpt lat="40.427450" lon="-5.299883">
        <ele>1896.0</ele>
        <time>2015-08-16T12:17:35Z</time>
      </trkpt>
      <trkpt lat="40.427450" lon="-5.299750">
        <ele>1895.0</ele>
        <time>2015-08-16T12:17:36Z</time>
      </trkpt>
      <trkpt lat="40.427467" lon="-5.299600">
        <ele>1893.0</ele>
        <time>2015-08-16T12:17:37Z</time>
      </trkpt>
      <trkpt lat="40.427483" lon="-5.299450">
        <ele>1891.0</ele>
        <time>2015-08-16T12:17:38Z</time>
      </trkpt>
      <trkpt lat="40.427500" lon="-5.299300">
        <ele>1890.0</ele>
        <time>2015-08-16T12:17:39Z</time>
      </trkpt>
      <trkpt lat="40.427517" lon="-5.299133">
        <ele>1889.0</ele>
        <time>2015-08-16T12:17:40Z</time>
      </trkpt>
      <trkpt lat="40.427517" lon="-5.298983">
        <ele>1889.0</ele>
        <time>2015-08-16T12:17:41Z</time>
      </trkpt>
      <trkpt lat="40.427533" lon="-5.298817">
        <ele>1889.0</ele>
        <time>2015-08-16T12:17:42Z</time>
      </trkpt>
      <trkpt lat="40.427550" lon="-5.298683">
        <ele>1889.0</ele>
        <time>2015-08-16T12:17:43Z</time>
      </trkpt>
      <trkpt lat="40.427583" lon="-5.298533">
        <ele>1888.0</ele>
        <time>2015-08-16T12:17:44Z</time>
      </trkpt>
      <trkpt lat="40.427600" lon="-5.298383">
        <ele>1887.0</ele>
        <time>2015-08-16T12:17:45Z</time>
      </trkpt>
      <trkpt lat="40.427617" lon="-5.298217">
        <ele>1885.0</ele>
        <time>2015-08-16T12:17:46Z</time>
      </trkpt>
      <trkpt lat="40.427650" lon="-5.298067">
        <ele>1885.0</ele>
        <time>2015-08-16T12:17:47Z</time>
      </trkpt>
      <trkpt lat="40.427683" lon="-5.297917">
        <ele>1884.0</ele>
        <time>2015-08-16T12:17:48Z</time>
      </trkpt>
      <trkpt lat="40.427733" lon="-5.297783">
        <ele>1884.0</ele>
        <time>2015-08-16T12:17:49Z</time>
      </trkpt>
      <trkpt lat="40.427783" lon="-5.297650">
        <ele>1883.0</ele>
        <time>2015-08-16T12:17:50Z</time>
      </trkpt>
      <trkpt lat="40.427833" lon="-5.297550">
        <ele>1883.0</ele>
        <time>2015-08-16T12:17:51Z</time>
      </trkpt>
      <trkpt lat="40.427900" lon="-5.297450">
        <ele>1881.0</ele>
        <time>2015-08-16T12:17:52Z</time>
      </trkpt>
      <trkpt lat="40.427950" lon="-5.297350">
        <ele>1880.0</ele>
        <time>2015-08-16T12:17:53Z</time>
      </trkpt>
      <trkpt lat="40.428033" lon="-5.297233">
        <ele>1878.0</ele>
        <time>2015-08-16T12:17:54Z</time>
      </trkpt>
      <trkpt lat="40.428100" lon="-5.297150">
        <ele>1878.0</ele>
        <time>2015-08-16T12:17:55Z</time>
      </trkpt>
      <trkpt lat="40.428150" lon="-5.297067">
        <ele>1878.0</ele>
        <time>2015-08-16T12:17:56Z</time>
      </trkpt>
      <trkpt lat="40.428217" lon="-5.296983">
        <ele>1878.0</ele>
        <time>2015-08-16T12:17:57Z</time>
      </trkpt>
      <trkpt lat="40.428283" lon="-5.296900">
        <ele>1876.0</ele>
        <time>2015-08-16T12:17:58Z</time>
      </trkpt>
      <trkpt lat="40.428333" lon="-5.296833">
        <ele>1874.0</ele>
        <time>2015-08-16T12:17:59Z</time>
      </trkpt>
      <trkpt lat="40.428400" lon="-5.296767">
        <ele>1871.0</ele>
        <time>2015-08-16T12:18:00Z</time>
      </trkpt>
      <trkpt lat="40.428483" lon="-5.296733">
        <ele>1868.0</ele>
        <time>2015-08-16T12:18:01Z</time>
      </trkpt>
      <trkpt lat="40.428583" lon="-5.296700">
        <ele>1866.0</ele>
        <time>2015-08-16T12:18:02Z</time>
      </trkpt>
      <trkpt lat="40.428683" lon="-5.296667">
        <ele>1866.0</ele>
        <time>2015-08-16T12:18:03Z</time>
      </trkpt>
      <trkpt lat="40.428783" lon="-5.296650">
        <ele>1866.0</ele>
        <time>2015-08-16T12:18:04Z</time>
      </trkpt>
      <trkpt lat="40.428900" lon="-5.296617">
        <ele>1868.0</ele>
        <time>2015-08-16T12:18:05Z</time>
      </trkpt>
      <trkpt lat="40.428983" lon="-5.296583">
        <ele>1872.0</ele>
        <time>2015-08-16T12:18:06Z</time>
      </trkpt>
      <trkpt lat="40.429050" lon="-5.296533">
        <ele>1875.0</ele>
        <time>2015-08-16T12:18:07Z</time>
      </trkpt>
      <trkpt lat="40.429117" lon="-5.296500">
        <ele>1877.0</ele>
        <time>2015-08-16T12:18:08Z</time>
      </trkpt>
      <trkpt lat="40.429167" lon="-5.296467">
        <ele>1877.0</ele>
        <time>2015-08-16T12:18:09Z</time>
      </trkpt>
      <trkpt lat="40.429217" lon="-5.296450">
        <ele>1877.0</ele>
        <time>2015-08-16T12:18:10Z</time>
      </trkpt>
      <trkpt lat="40.429283" lon="-5.296450">
        <ele>1877.0</ele>
        <time>2015-08-16T12:18:11Z</time>
      </trkpt>
      <trkpt lat="40.429333" lon="-5.296467">
        <ele>1877.0</ele>
        <time>2015-08-16T12:18:12Z</time>
      </trkpt>
      <trkpt lat="40.429367" lon="-5.296533">
        <ele>1877.0</ele>
        <time>2015-08-16T12:18:13Z</time>
      </trkpt>
      <trkpt lat="40.429367" lon="-5.296617">
        <ele>1876.0</ele>
        <time>2015-08-16T12:18:14Z</time>
      </trkpt>
      <trkpt lat="40.429317" lon="-5.296700">
        <ele>1874.0</ele>
        <time>2015-08-16T12:18:15Z</time>
      </trkpt>
      <trkpt lat="40.429250" lon="-5.296783">
        <ele>1874.0</ele>
        <time>2015-08-16T12:18:16Z</time>
      </trkpt>
      <trkpt lat="40.429133" lon="-5.296817">
        <ele>1876.0</ele>
        <time>2015-08-16T12:18:17Z</time>
      </trkpt>
      <trkpt lat="40.429017" lon="-5.296783">
        <ele>1876.0</ele>
        <time>2015-08-16T12:18:18Z</time>
      </trkpt>
      <trkpt lat="40.428883" lon="-5.296733">
        <ele>1878.0</ele>
        <time>2015-08-16T12:18:19Z</time>
      </trkpt>
      <trkpt lat="40.428783" lon="-5.296683">
        <ele>1880.0</ele>
        <time>2015-08-16T12:18:20Z</time>
      </trkpt>
      <trkpt lat="40.428700" lon="-5.296667">
        <ele>1881.0</ele>
        <time>2015-08-16T12:18:21Z</time>
      </trkpt>
      <trkpt lat="40.428617" lon="-5.296683">
        <ele>1882.0</ele>
        <time>2015-08-16T12:18:22Z</time>
      </trkpt>
      <trkpt lat="40.428533" lon="-5.296733">
        <ele>1883.0</ele>
        <time>2015-08-16T12:18:23Z</time>
      </trkpt>
      <trkpt lat="40.428483" lon="-5.296800">
        <ele>1884.0</ele>
        <time>2015-08-16T12:18:24Z</time>
      </trkpt>
      <trkpt lat="40.428467" lon="-5.296867">
        <ele>1885.0</ele>
        <time>2015-08-16T12:18:25Z</time>
      </trkpt>
      <trkpt lat="40.428467" lon="-5.296950">
        <ele>1885.0</ele>
        <time>2015-08-16T12:18:26Z</time>
      </trkpt>
      <trkpt lat="40.428517" lon="-5.297000">
        <ele>1884.0</ele>
        <time>2015-08-16T12:18:27Z</time>
      </trkpt>
      <trkpt lat="40.428583" lon="-5.297050">
        <ele>1883.0</ele>
        <time>2015-08-16T12:18:28Z</time>
      </trkpt>
      <trkpt lat="40.428683" lon="-5.297050">
        <ele>1883.0</ele>
        <time>2015-08-16T12:18:29Z</time>
      </trkpt>
      <trkpt lat="40.428783" lon="-5.297017">
        <ele>1882.0</ele>
        <time>2015-08-16T12:18:30Z</time>
      </trkpt>
      <trkpt lat="40.428883" lon="-5.296917">
        <ele>1882.0</ele>
        <time>2015-08-16T12:18:31Z</time>
      </trkpt>
      <trkpt lat="40.428950" lon="-5.296767">
        <ele>1883.0</ele>
        <time>2015-08-16T12:18:32Z</time>
      </trkpt>
      <trkpt lat="40.429000" lon="-5.296617">
        <ele>1885.0</ele>
        <time>2015-08-16T12:18:33Z</time>
      </trkpt>
      <trkpt lat="40.429050" lon="-5.296483">
        <ele>1888.0</ele>
        <time>2015-08-16T12:18:34Z</time>
      </trkpt>
      <trkpt lat="40.429083" lon="-5.296367">
        <ele>1889.0</ele>
        <time>2015-08-16T12:18:35Z</time>
      </trkpt>
      <trkpt lat="40.429133" lon="-5.296250">
        <ele>1890.0</ele>
        <time>2015-08-16T12:18:36Z</time>
      </trkpt>
      <trkpt lat="40.429167" lon="-5.296167">
        <ele>1890.0</ele>
        <time>2015-08-16T12:18:37Z</time>
      </trkpt>
      <trkpt lat="40.429233" lon="-5.296100">
        <ele>1889.0</ele>
        <time>2015-08-16T12:18:38Z</time>
      </trkpt>
      <trkpt lat="40.429317" lon="-5.296067">
        <ele>1888.0</ele>
        <time>2015-08-16T12:18:39Z</time>
      </trkpt>
      <trkpt lat="40.429400" lon="-5.296083">
        <ele>1887.0</ele>
        <time>2015-08-16T12:18:40Z</time>
      </trkpt>
      <trkpt lat="40.429467" lon="-5.296150">
        <ele>1887.0</ele>
        <time>2015-08-16T12:18:41Z</time>
      </trkpt>
      <trkpt lat="40.429500" lon="-5.296233">
        <ele>1889.0</ele>
        <time>2015-08-16T12:18:42Z</time>
      </trkpt>
      <trkpt lat="40.429483" lon="-5.296350">
        <ele>1889.0</ele>
        <time>2015-08-16T12:18:43Z</time>
      </trkpt>
      <trkpt lat="40.429433" lon="-5.296433">
        <ele>1891.0</ele>
        <time>2015-08-16T12:18:44Z</time>
      </trkpt>
      <trkpt lat="40.429350" lon="-5.296467">
        <ele>1892.0</ele>
        <time>2015-08-16T12:18:45Z</time>
      </trkpt>
      <trkpt lat="40.429267" lon="-5.296500">
        <ele>1892.0</ele>
        <time>2015-08-16T12:18:46Z</time>
      </trkpt>
      <trkpt lat="40.429167" lon="-5.296500">
        <ele>1892.0</ele>
        <time>2015-08-16T12:18:47Z</time>
      </trkpt>
      <trkpt lat="40.429050" lon="-5.296483">
        <ele>1893.0</ele>
        <time>2015-08-16T12:18:48Z</time>
      </trkpt>
      <trkpt lat="40.428933" lon="-5.296433">
        <ele>1895.0</ele>
        <time>2015-08-16T12:18:49Z</time>
      </trkpt>
      <trkpt lat="40.428833" lon="-5.296400">
        <ele>1897.0</ele>
        <time>2015-08-16T12:18:50Z</time>
      </trkpt>
      <trkpt lat="40.428750" lon="-5.296367">
        <ele>1900.0</ele>
        <time>2015-08-16T12:18:51Z</time>
      </trkpt>
      <trkpt lat="40.428683" lon="-5.296333">
        <ele>1902.0</ele>
        <time>2015-08-16T12:18:52Z</time>
      </trkpt>
      <trkpt lat="40.428617" lon="-5.296333">
        <ele>1904.0</ele>
        <time>2015-08-16T12:18:53Z</time>
      </trkpt>
      <trkpt lat="40.428533" lon="-5.296317">
        <ele>1905.0</ele>
        <time>2015-08-16T12:18:54Z</time>
      </trkpt>
      <trkpt lat="40.428450" lon="-5.296300">
        <ele>1905.0</ele>
        <time>2015-08-16T12:18:55Z</time>
      </trkpt>
      <trkpt lat="40.428367" lon="-5.296317">
        <ele>1906.0</ele>
        <time>2015-08-16T12:18:56Z</time>
      </trkpt>
      <trkpt lat="40.428317" lon="-5.296350">
        <ele>1906.0</ele>
        <time>2015-08-16T12:18:57Z</time>
      </trkpt>
      <trkpt lat="40.428300" lon="-5.296433">
        <ele>1904.0</ele>
        <time>2015-08-16T12:18:58Z</time>
      </trkpt>
      <trkpt lat="40.428317" lon="-5.296517">
        <ele>1903.0</ele>
        <time>2015-08-16T12:18:59Z</time>
      </trkpt>
      <trkpt lat="40.428367" lon="-5.296600">
        <ele>1902.0</ele>
        <time>2015-08-16T12:19:00Z</time>
      </trkpt>
      <trkpt lat="40.428450" lon="-5.296667">
        <ele>1902.0</ele>
        <time>2015-08-16T12:19:01Z</time>
      </trkpt>
      <trkpt lat="40.428550" lon="-5.296667">
        <ele>1901.0</ele>
        <time>2015-08-16T12:19:02Z</time>
      </trkpt>
      <trkpt lat="40.428650" lon="-5.296650">
        <ele>1900.0</ele>
        <time>2015-08-16T12:19:03Z</time>
      </trkpt>
      <trkpt lat="40.428750" lon="-5.296600">
        <ele>1900.0</ele>
        <time>2015-08-16T12:19:04Z</time>
      </trkpt>
      <trkpt lat="40.428833" lon="-5.296517">
        <ele>1900.0</ele>
        <time>2015-08-16T12:19:05Z</time>
      </trkpt>
      <trkpt lat="40.428900" lon="-5.296417">
        <ele>1901.0</ele>
        <time>2015-08-16T12:19:06Z</time>
      </trkpt>
      <trkpt lat="40.428967" lon="-5.296283">
        <ele>1903.0</ele>
        <time>2015-08-16T12:19:07Z</time>
      </trkpt>
      <trkpt lat="40.429000" lon="-5.296133">
        <ele>1904.0</ele>
        <time>2015-08-16T12:19:08Z</time>
      </trkpt>
      <trkpt lat="40.429050" lon="-5.295983">
        <ele>1905.0</ele>
        <time>2015-08-16T12:19:09Z</time>
      </trkpt>
      <trkpt lat="40.429083" lon="-5.295867">
        <ele>1906.0</ele>
        <time>2015-08-16T12:19:10Z</time>
      </trkpt>
      <trkpt lat="40.429133" lon="-5.295750">
        <ele>1906.0</ele>
        <time>2015-08-16T12:19:11Z</time>
      </trkpt>
      <trkpt lat="40.429200" lon="-5.295633">
        <ele>1905.0</ele>
        <time>2015-08-16T12:19:12Z</time>
      </trkpt>
      <trkpt lat="40.429267" lon="-5.295533">
        <ele>1905.0</ele>
        <time>2015-08-16T12:19:13Z</time>
      </trkpt>
      <trkpt lat="40.429350" lon="-5.295450">
        <ele>1906.0</ele>
        <time>2015-08-16T12:19:14Z</time>
      </trkpt>
      <trkpt lat="40.429433" lon="-5.295383">
        <ele>1908.0</ele>
        <time>2015-08-16T12:19:15Z</time>
      </trkpt>
      <trkpt lat="40.429500" lon="-5.295367">
        <ele>1909.0</ele>
        <time>2015-08-16T12:19:16Z</time>
      </trkpt>
      <trkpt lat="40.429583" lon="-5.295350">
        <ele>1910.0</ele>
        <time>2015-08-16T12:19:17Z</time>
      </trkpt>
      <trkpt lat="40.429633" lon="-5.295383">
        <ele>1909.0</ele>
        <time>2015-08-16T12:19:18Z</time>
      </trkpt>
      <trkpt lat="40.429683" lon="-5.295450">
        <ele>1907.0</ele>
        <time>2015-08-16T12:19:19Z</time>
      </trkpt>
      <trkpt lat="40.429733" lon="-5.295550">
        <ele>1905.0</ele>
        <time>2015-08-16T12:19:20Z</time>
      </trkpt>
      <trkpt lat="40.429733" lon="-5.295667">
        <ele>1903.0</ele>
        <time>2015-08-16T12:19:21Z</time>
      </trkpt>
      <trkpt lat="40.429700" lon="-5.295800">
        <ele>1903.0</ele>
        <time>2015-08-16T12:19:22Z</time>
      </trkpt>
      <trkpt lat="40.429650" lon="-5.295900">
        <ele>1904.0</ele>
        <time>2015-08-16T12:19:23Z</time>
      </trkpt>
      <trkpt lat="40.429550" lon="-5.295950">
        <ele>1905.0</ele>
        <time>2015-08-16T12:19:24Z</time>
      </trkpt>
      <trkpt lat="40.429467" lon="-5.295967">
        <ele>1905.0</ele>
        <time>2015-08-16T12:19:25Z</time>
      </trkpt>
      <trkpt lat="40.429367" lon="-5.295967">
        <ele>1905.0</ele>
        <time>2015-08-16T12:19:26Z</time>
      </trkpt>
      <trkpt lat="40.429267" lon="-5.295950">
        <ele>1903.0</ele>
        <time>2015-08-16T12:19:27Z</time>
      </trkpt>
      <trkpt lat="40.429167" lon="-5.295933">
        <ele>1903.0</ele>
        <time>2015-08-16T12:19:28Z</time>
      </trkpt>
      <trkpt lat="40.429067" lon="-5.295917">
        <ele>1902.0</ele>
        <time>2015-08-16T12:19:29Z</time>
      </trkpt>
      <trkpt lat="40.428950" lon="-5.295917">
        <ele>1901.0</ele>
        <time>2015-08-16T12:19:30Z</time>
      </trkpt>
      <trkpt lat="40.428867" lon="-5.295950">
        <ele>1901.0</ele>
        <time>2015-08-16T12:19:31Z</time>
      </trkpt>
      <trkpt lat="40.428767" lon="-5.295983">
        <ele>1902.0</ele>
        <time>2015-08-16T12:19:32Z</time>
      </trkpt>
      <trkpt lat="40.428683" lon="-5.296050">
        <ele>1902.0</ele>
        <time>2015-08-16T12:19:33Z</time>
      </trkpt>
      <trkpt lat="40.428600" lon="-5.296100">
        <ele>1903.0</ele>
        <time>2015-08-16T12:19:34Z</time>
      </trkpt>
      <trkpt lat="40.428517" lon="-5.296133">
        <ele>1904.0</ele>
        <time>2015-08-16T12:19:35Z</time>
      </trkpt>
      <trkpt lat="40.428433" lon="-5.296183">
        <ele>1906.0</ele>
        <time>2015-08-16T12:19:36Z</time>
      </trkpt>
      <trkpt lat="40.428350" lon="-5.296217">
        <ele>1907.0</ele>
        <time>2015-08-16T12:19:37Z</time>
      </trkpt>
      <trkpt lat="40.428267" lon="-5.296267">
        <ele>1908.0</ele>
        <time>2015-08-16T12:19:38Z</time>
      </trkpt>
      <trkpt lat="40.428200" lon="-5.296333">
        <ele>1909.0</ele>
        <time>2015-08-16T12:19:39Z</time>
      </trkpt>
      <trkpt lat="40.428150" lon="-5.296383">
        <ele>1910.0</ele>
        <time>2015-08-16T12:19:40Z</time>
      </trkpt>
      <trkpt lat="40.428133" lon="-5.296450">
        <ele>1910.0</ele>
        <time>2015-08-16T12:19:41Z</time>
      </trkpt>
      <trkpt lat="40.428100" lon="-5.296500">
        <ele>1910.0</ele>
        <time>2015-08-16T12:19:42Z</time>
      </trkpt>
      <trkpt lat="40.428083" lon="-5.296567">
        <ele>1909.0</ele>
        <time>2015-08-16T12:19:43Z</time>
      </trkpt>
      <trkpt lat="40.428100" lon="-5.296633">
        <ele>1907.0</ele>
        <time>2015-08-16T12:19:44Z</time>
      </trkpt>
      <trkpt lat="40.428133" lon="-5.296683">
        <ele>1903.0</ele>
        <time>2015-08-16T12:19:45Z</time>
      </trkpt>
      <trkpt lat="40.428200" lon="-5.296733">
        <ele>1900.0</ele>
        <time>2015-08-16T12:19:46Z</time>
      </trkpt>
      <trkpt lat="40.428300" lon="-5.296767">
        <ele>1898.0</ele>
        <time>2015-08-16T12:19:47Z</time>
      </trkpt>
      <trkpt lat="40.428400" lon="-5.296783">
        <ele>1899.0</ele>
        <time>2015-08-16T12:19:48Z</time>
      </trkpt>
      <trkpt lat="40.428467" lon="-5.296783">
        <ele>1902.0</ele>
        <time>2015-08-16T12:19:49Z</time>
      </trkpt>
      <trkpt lat="40.428517" lon="-5.296783">
        <ele>1904.0</ele>
        <time>2015-08-16T12:19:50Z</time>
      </trkpt>
      <trkpt lat="40.428583" lon="-5.296800">
        <ele>1906.0</ele>
        <time>2015-08-16T12:19:51Z</time>
      </trkpt>
      <trkpt lat="40.428650" lon="-5.296783">
        <ele>1906.0</ele>
        <time>2015-08-16T12:19:52Z</time>
      </trkpt>
      <trkpt lat="40.428717" lon="-5.296767">
        <ele>1907.0</ele>
        <time>2015-08-16T12:19:53Z</time>
      </trkpt>
      <trkpt lat="40.428783" lon="-5.296750">
        <ele>1907.0</ele>
        <time>2015-08-16T12:19:54Z</time>
      </trkpt>
      <trkpt lat="40.428850" lon="-5.296717">
        <ele>1908.0</ele>
        <time>2015-08-16T12:19:55Z</time>
      </trkpt>
      <trkpt lat="40.428917" lon="-5.296683">
        <ele>1909.0</ele>
        <time>2015-08-16T12:19:56Z</time>
      </trkpt>
      <trkpt lat="40.428967" lon="-5.296667">
        <ele>1909.0</ele>
        <time>2015-08-16T12:19:57Z</time>
      </trkpt>
      <trkpt lat="40.429033" lon="-5.296667">
        <ele>1908.0</ele>
        <time>2015-08-16T12:19:58Z</time>
      </trkpt>
      <trkpt lat="40.429100" lon="-5.296667">
        <ele>1907.0</ele>
        <time>2015-08-16T12:19:59Z</time>
      </trkpt>
      <trkpt lat="40.429183" lon="-5.296667">
        <ele>1907.0</ele>
        <time>2015-08-16T12:20:00Z</time>
      </trkpt>
      <trkpt lat="40.429250" lon="-5.296683">
        <ele>1907.0</ele>
        <time>2015-08-16T12:20:01Z</time>
      </trkpt>
      <trkpt lat="40.429300" lon="-5.296700">
        <ele>1907.0</ele>
        <time>2015-08-16T12:20:02Z</time>
      </trkpt>
      <trkpt lat="40.429350" lon="-5.296717">
        <ele>1907.0</ele>
        <time>2015-08-16T12:20:03Z</time>
      </trkpt>
      <trkpt lat="40.429400" lon="-5.296750">
        <ele>1905.0</ele>
        <time>2015-08-16T12:20:04Z</time>
      </trkpt>
      <trkpt lat="40.429450" lon="-5.296800">
        <ele>1903.0</ele>
        <time>2015-08-16T12:20:05Z</time>
      </trkpt>
      <trkpt lat="40.429500" lon="-5.296867">
        <ele>1901.0</ele>
        <time>2015-08-16T12:20:06Z</time>
      </trkpt>
      <trkpt lat="40.429550" lon="-5.296950">
        <ele>1899.0</ele>
        <time>2015-08-16T12:20:07Z</time>
      </trkpt>
      <trkpt lat="40.429567" lon="-5.297033">
        <ele>1898.0</ele>
        <time>2015-08-16T12:20:08Z</time>
      </trkpt>
      <trkpt lat="40.429600" lon="-5.297117">
        <ele>1896.0</ele>
        <time>2015-08-16T12:20:09Z</time>
      </trkpt>
      <trkpt lat="40.429617" lon="-5.297200">
        <ele>1896.0</ele>
        <time>2015-08-16T12:20:10Z</time>
      </trkpt>
      <trkpt lat="40.429617" lon="-5.297283">
        <ele>1895.0</ele>
        <time>2015-08-16T12:20:11Z</time>
      </trkpt>
      <trkpt lat="40.429633" lon="-5.297383">
        <ele>1894.0</ele>
        <time>2015-08-16T12:20:12Z</time>
      </trkpt>
      <trkpt lat="40.429633" lon="-5.297500">
        <ele>1894.0</ele>
        <time>2015-08-16T12:20:13Z</time>
      </trkpt>
      <trkpt lat="40.429633" lon="-5.297617">
        <ele>1895.0</ele>
        <time>2015-08-16T12:20:14Z</time>
      </trkpt>
      <trkpt lat="40.429633" lon="-5.297717">
        <ele>1896.0</ele>
        <time>2015-08-16T12:20:15Z</time>
      </trkpt>
      <trkpt lat="40.429617" lon="-5.297817">
        <ele>1896.0</ele>
        <time>2015-08-16T12:20:16Z</time>
      </trkpt>
      <trkpt lat="40.429617" lon="-5.297900">
        <ele>1896.0</ele>
        <time>2015-08-16T12:20:17Z</time>
      </trkpt>
      <trkpt lat="40.429617" lon="-5.298000">
        <ele>1895.0</ele>
        <time>2015-08-16T12:20:18Z</time>
      </trkpt>
      <trkpt lat="40.429633" lon="-5.298100">
        <ele>1895.0</ele>
        <time>2015-08-16T12:20:19Z</time>
      </trkpt>
      <trkpt lat="40.429667" lon="-5.298217">
        <ele>1895.0</ele>
        <time>2015-08-16T12:20:20Z</time>
      </trkpt>
      <trkpt lat="40.429700" lon="-5.298300">
        <ele>1896.0</ele>
        <time>2015-08-16T12:20:21Z</time>
      </trkpt>
      <trkpt lat="40.429733" lon="-5.298383">
        <ele>1897.0</ele>
        <time>2015-08-16T12:20:22Z</time>
      </trkpt>
      <trkpt lat="40.429750" lon="-5.298467">
        <ele>1897.0</ele>
        <time>2015-08-16T12:20:23Z</time>
      </trkpt>
      <trkpt lat="40.429733" lon="-5.298550">
        <ele>1897.0</ele>
        <time>2015-08-16T12:20:24Z</time>
      </trkpt>
      <trkpt lat="40.429717" lon="-5.298650">
        <ele>1897.0</ele>
        <time>2015-08-16T12:20:25Z</time>
      </trkpt>
      <trkpt lat="40.429700" lon="-5.298733">
        <ele>1896.0</ele>
        <time>2015-08-16T12:20:26Z</time>
      </trkpt>
      <trkpt lat="40.429700" lon="-5.298817">
        <ele>1895.0</ele>
        <time>2015-08-16T12:20:27Z</time>
      </trkpt>
      <trkpt lat="40.429717" lon="-5.298900">
        <ele>1892.0</ele>
        <time>2015-08-16T12:20:28Z</time>
      </trkpt>
      <trkpt lat="40.429750" lon="-5.298967">
        <ele>1889.0</ele>
        <time>2015-08-16T12:20:29Z</time>
      </trkpt>
      <trkpt lat="40.429800" lon="-5.299017">
        <ele>1887.0</ele>
        <time>2015-08-16T12:20:30Z</time>
      </trkpt>
      <trkpt lat="40.429850" lon="-5.299050">
        <ele>1885.0</ele>
        <time>2015-08-16T12:20:31Z</time>
      </trkpt>
      <trkpt lat="40.429933" lon="-5.299017">
        <ele>1882.0</ele>
        <time>2015-08-16T12:20:32Z</time>
      </trkpt>
      <trkpt lat="40.430000" lon="-5.298967">
        <ele>1881.0</ele>
        <time>2015-08-16T12:20:33Z</time>
      </trkpt>
      <trkpt lat="40.430050" lon="-5.298883">
        <ele>1880.0</ele>
        <time>2015-08-16T12:20:34Z</time>
      </trkpt>
      <trkpt lat="40.430083" lon="-5.298767">
        <ele>1880.0</ele>
        <time>2015-08-16T12:20:35Z</time>
      </trkpt>
      <trkpt lat="40.430083" lon="-5.298650">
        <ele>1880.0</ele>
        <time>2015-08-16T12:20:36Z</time>
      </trkpt>
      <trkpt lat="40.430067" lon="-5.298533">
        <ele>1880.0</ele>
        <time>2015-08-16T12:20:37Z</time>
      </trkpt>
      <trkpt lat="40.430050" lon="-5.298417">
        <ele>1879.0</ele>
        <time>2015-08-16T12:20:38Z</time>
      </trkpt>
      <trkpt lat="40.430017" lon="-5.298283">
        <ele>1878.0</ele>
        <time>2015-08-16T12:20:39Z</time>
      </trkpt>
      <trkpt lat="40.429983" lon="-5.298167">
        <ele>1876.0</ele>
        <time>2015-08-16T12:20:40Z</time>
      </trkpt>
      <trkpt lat="40.429950" lon="-5.298033">
        <ele>1874.0</ele>
        <time>2015-08-16T12:20:41Z</time>
      </trkpt>
      <trkpt lat="40.429917" lon="-5.297917">
        <ele>1871.0</ele>
        <time>2015-08-16T12:20:42Z</time>
      </trkpt>
      <trkpt lat="40.429900" lon="-5.297767">
        <ele>1867.0</ele>
        <time>2015-08-16T12:20:43Z</time>
      </trkpt>
      <trkpt lat="40.429917" lon="-5.297617">
        <ele>1864.0</ele>
        <time>2015-08-16T12:20:44Z</time>
      </trkpt>
      <trkpt lat="40.429950" lon="-5.297450">
        <ele>1862.0</ele>
        <time>2015-08-16T12:20:45Z</time>
      </trkpt>
      <trkpt lat="40.430017" lon="-5.297300">
        <ele>1862.0</ele>
        <time>2015-08-16T12:20:46Z</time>
      </trkpt>
      <trkpt lat="40.430067" lon="-5.297167">
        <ele>1864.0</ele>
        <time>2015-08-16T12:20:47Z</time>
      </trkpt>
      <trkpt lat="40.430133" lon="-5.297033">
        <ele>1866.0</ele>
        <time>2015-08-16T12:20:48Z</time>
      </trkpt>
      <trkpt lat="40.430167" lon="-5.296933">
        <ele>1868.0</ele>
        <time>2015-08-16T12:20:49Z</time>
      </trkpt>
      <trkpt lat="40.430217" lon="-5.296800">
        <ele>1868.0</ele>
        <time>2015-08-16T12:20:50Z</time>
      </trkpt>
      <trkpt lat="40.430267" lon="-5.296667">
        <ele>1869.0</ele>
        <time>2015-08-16T12:20:51Z</time>
      </trkpt>
      <trkpt lat="40.430333" lon="-5.296533">
        <ele>1870.0</ele>
        <time>2015-08-16T12:20:52Z</time>
      </trkpt>
      <trkpt lat="40.430400" lon="-5.296450">
        <ele>1870.0</ele>
        <time>2015-08-16T12:20:53Z</time>
      </trkpt>
      <trkpt lat="40.430483" lon="-5.296400">
        <ele>1869.0</ele>
        <time>2015-08-16T12:20:54Z</time>
      </trkpt>
      <trkpt lat="40.430567" lon="-5.296400">
        <ele>1869.0</ele>
        <time>2015-08-16T12:20:55Z</time>
      </trkpt>
      <trkpt lat="40.430633" lon="-5.296433">
        <ele>1869.0</ele>
        <time>2015-08-16T12:20:56Z</time>
      </trkpt>
      <trkpt lat="40.430667" lon="-5.296500">
        <ele>1868.0</ele>
        <time>2015-08-16T12:20:57Z</time>
      </trkpt>
      <trkpt lat="40.430683" lon="-5.296567">
        <ele>1866.0</ele>
        <time>2015-08-16T12:20:58Z</time>
      </trkpt>
      <trkpt lat="40.430683" lon="-5.296650">
        <ele>1864.0</ele>
        <time>2015-08-16T12:20:59Z</time>
      </trkpt>
      <trkpt lat="40.430667" lon="-5.296733">
        <ele>1860.0</ele>
        <time>2015-08-16T12:21:00Z</time>
      </trkpt>
      <trkpt lat="40.430633" lon="-5.296833">
        <ele>1857.0</ele>
        <time>2015-08-16T12:21:01Z</time>
      </trkpt>
      <trkpt lat="40.430567" lon="-5.296933">
        <ele>1855.0</ele>
        <time>2015-08-16T12:21:02Z</time>
      </trkpt>
      <trkpt lat="40.430483" lon="-5.297000">
        <ele>1854.0</ele>
        <time>2015-08-16T12:21:03Z</time>
      </trkpt>
      <trkpt lat="40.430383" lon="-5.297050">
        <ele>1854.0</ele>
        <time>2015-08-16T12:21:04Z</time>
      </trkpt>
      <trkpt lat="40.430300" lon="-5.297100">
        <ele>1855.0</ele>
        <time>2015-08-16T12:21:05Z</time>
      </trkpt>
      <trkpt lat="40.430217" lon="-5.297133">
        <ele>1855.0</ele>
        <time>2015-08-16T12:21:06Z</time>
      </trkpt>
      <trkpt lat="40.430150" lon="-5.297167">
        <ele>1854.0</ele>
        <time>2015-08-16T12:21:07Z</time>
      </trkpt>
      <trkpt lat="40.430083" lon="-5.297200">
        <ele>1852.0</ele>
        <time>2015-08-16T12:21:08Z</time>
      </trkpt>
      <trkpt lat="40.430017" lon="-5.297233">
        <ele>1850.0</ele>
        <time>2015-08-16T12:21:09Z</time>
      </trkpt>
      <trkpt lat="40.429950" lon="-5.297267">
        <ele>1848.0</ele>
        <time>2015-08-16T12:21:10Z</time>
      </trkpt>
      <trkpt lat="40.429900" lon="-5.297333">
        <ele>1846.0</ele>
        <time>2015-08-16T12:21:11Z</time>
      </trkpt>
      <trkpt lat="40.429883" lon="-5.297433">
        <ele>1843.0</ele>
        <time>2015-08-16T12:21:12Z</time>
      </trkpt>
      <trkpt lat="40.429900" lon="-5.297550">
        <ele>1841.0</ele>
        <time>2015-08-16T12:21:13Z</time>
      </trkpt>
      <trkpt lat="40.429917" lon="-5.297667">
        <ele>1842.0</ele>
        <time>2015-08-16T12:21:14Z</time>
      </trkpt>
      <trkpt lat="40.429933" lon="-5.297750">
        <ele>1842.0</ele>
        <time>2015-08-16T12:21:15Z</time>
      </trkpt>
      <trkpt lat="40.429933" lon="-5.297850">
        <ele>1842.0</ele>
        <time>2015-08-16T12:21:16Z</time>
      </trkpt>
      <trkpt lat="40.429933" lon="-5.297933">
        <ele>1841.0</ele>
        <time>2015-08-16T12:21:17Z</time>
      </trkpt>
      <trkpt lat="40.429917" lon="-5.298017">
        <ele>1840.0</ele>
        <time>2015-08-16T12:21:18Z</time>
      </trkpt>
      <trkpt lat="40.429900" lon="-5.298117">
        <ele>1838.0</ele>
        <time>2015-08-16T12:21:19Z</time>
      </trkpt>
      <trkpt lat="40.429900" lon="-5.298200">
        <ele>1836.0</ele>
        <time>2015-08-16T12:21:20Z</time>
      </trkpt>
      <trkpt lat="40.429917" lon="-5.298300">
        <ele>1835.0</ele>
        <time>2015-08-16T12:21:21Z</time>
      </trkpt>
      <trkpt lat="40.429950" lon="-5.298400">
        <ele>1834.0</ele>
        <time>2015-08-16T12:21:22Z</time>
      </trkpt>
      <trkpt lat="40.429983" lon="-5.298500">
        <ele>1833.0</ele>
        <time>2015-08-16T12:21:23Z</time>
      </trkpt>
      <trkpt lat="40.430017" lon="-5.298583">
        <ele>1831.0</ele>
        <time>2015-08-16T12:21:24Z</time>
      </trkpt>
      <trkpt lat="40.430050" lon="-5.298683">
        <ele>1830.0</ele>
        <time>2015-08-16T12:21:25Z</time>
      </trkpt>
      <trkpt lat="40.430083" lon="-5.298767">
        <ele>1829.0</ele>
        <time>2015-08-16T12:21:26Z</time>
      </trkpt>
      <trkpt lat="40.430117" lon="-5.298867">
        <ele>1828.0</ele>
        <time>2015-08-16T12:21:27Z</time>
      </trkpt>
      <trkpt lat="40.430150" lon="-5.298950">
        <ele>1827.0</ele>
        <time>2015-08-16T12:21:28Z</time>
      </trkpt>
      <trkpt lat="40.430167" lon="-5.299050">
        <ele>1824.0</ele>
        <time>2015-08-16T12:21:29Z</time>
      </trkpt>
      <trkpt lat="40.430183" lon="-5.299150">
        <ele>1823.0</ele>
        <time>2015-08-16T12:21:30Z</time>
      </trkpt>
      <trkpt lat="40.430200" lon="-5.299250">
        <ele>1821.0</ele>
        <time>2015-08-16T12:21:31Z</time>
      </trkpt>
      <trkpt lat="40.430233" lon="-5.299350">
        <ele>1819.0</ele>
        <time>2015-08-16T12:21:32Z</time>
      </trkpt>
      <trkpt lat="40.430250" lon="-5.299450">
        <ele>1816.0</ele>
        <time>2015-08-16T12:21:33Z</time>
      </trkpt>
      <trkpt lat="40.430283" lon="-5.299533">
        <ele>1814.0</ele>
        <time>2015-08-16T12:21:34Z</time>
      </trkpt>
      <trkpt lat="40.430317" lon="-5.299617">
        <ele>1811.0</ele>
        <time>2015-08-16T12:21:35Z</time>
      </trkpt>
      <trkpt lat="40.430350" lon="-5.299700">
        <ele>1808.0</ele>
        <time>2015-08-16T12:21:36Z</time>
      </trkpt>
      <trkpt lat="40.430383" lon="-5.299783">
        <ele>1804.0</ele>
        <time>2015-08-16T12:21:37Z</time>
      </trkpt>
      <trkpt lat="40.430433" lon="-5.299867">
        <ele>1801.0</ele>
        <time>2015-08-16T12:21:38Z</time>
      </trkpt>
      <trkpt lat="40.430483" lon="-5.299950">
        <ele>1799.0</ele>
        <time>2015-08-16T12:21:39Z</time>
      </trkpt>
      <trkpt lat="40.430533" lon="-5.300033">
        <ele>1797.0</ele>
        <time>2015-08-16T12:21:40Z</time>
      </trkpt>
      <trkpt lat="40.430600" lon="-5.300117">
        <ele>1795.0</ele>
        <time>2015-08-16T12:21:41Z</time>
      </trkpt>
      <trkpt lat="40.430683" lon="-5.300167">
        <ele>1794.0</ele>
        <time>2015-08-16T12:21:42Z</time>
      </trkpt>
      <trkpt lat="40.430750" lon="-5.300200">
        <ele>1795.0</ele>
        <time>2015-08-16T12:21:43Z</time>
      </trkpt>
      <trkpt lat="40.430833" lon="-5.300217">
        <ele>1796.0</ele>
        <time>2015-08-16T12:21:44Z</time>
      </trkpt>
      <trkpt lat="40.430917" lon="-5.300233">
        <ele>1797.0</ele>
        <time>2015-08-16T12:21:45Z</time>
      </trkpt>
      <trkpt lat="40.430983" lon="-5.300250">
        <ele>1797.0</ele>
        <time>2015-08-16T12:21:46Z</time>
      </trkpt>
      <trkpt lat="40.431050" lon="-5.300283">
        <ele>1797.0</ele>
        <time>2015-08-16T12:21:47Z</time>
      </trkpt>
      <trkpt lat="40.431117" lon="-5.300350">
        <ele>1795.0</ele>
        <time>2015-08-16T12:21:48Z</time>
      </trkpt>
      <trkpt lat="40.431183" lon="-5.300433">
        <ele>1793.0</ele>
        <time>2015-08-16T12:21:49Z</time>
      </trkpt>
      <trkpt lat="40.431233" lon="-5.300533">
        <ele>1792.0</ele>
        <time>2015-08-16T12:21:50Z</time>
      </trkpt>
      <trkpt lat="40.431250" lon="-5.300650">
        <ele>1791.0</ele>
        <time>2015-08-16T12:21:51Z</time>
      </trkpt>
      <trkpt lat="40.431267" lon="-5.300767">
        <ele>1795.0</ele>
        <time>2015-08-16T12:21:52Z</time>
      </trkpt>
      <trkpt lat="40.431300" lon="-5.300850">
        <ele>1798.0</ele>
        <time>2015-08-16T12:21:53Z</time>
      </trkpt>
      <trkpt lat="40.431350" lon="-5.300917">
        <ele>1800.0</ele>
        <time>2015-08-16T12:21:54Z</time>
      </trkpt>
      <trkpt lat="40.431400" lon="-5.300950">
        <ele>1802.0</ele>
        <time>2015-08-16T12:21:55Z</time>
      </trkpt>
      <trkpt lat="40.431450" lon="-5.301000">
        <ele>1802.0</ele>
        <time>2015-08-16T12:21:56Z</time>
      </trkpt>
      <trkpt lat="40.431500" lon="-5.301050">
        <ele>1801.0</ele>
        <time>2015-08-16T12:21:57Z</time>
      </trkpt>
      <trkpt lat="40.431567" lon="-5.301117">
        <ele>1800.0</ele>
        <time>2015-08-16T12:21:58Z</time>
      </trkpt>
      <trkpt lat="40.431650" lon="-5.301183">
        <ele>1800.0</ele>
        <time>2015-08-16T12:21:59Z</time>
      </trkpt>
      <trkpt lat="40.431733" lon="-5.301217">
        <ele>1800.0</ele>
        <time>2015-08-16T12:22:00Z</time>
      </trkpt>
      <trkpt lat="40.431833" lon="-5.301217">
        <ele>1800.0</ele>
        <time>2015-08-16T12:22:01Z</time>
      </trkpt>
      <trkpt lat="40.431917" lon="-5.301150">
        <ele>1799.0</ele>
        <time>2015-08-16T12:22:02Z</time>
      </trkpt>
      <trkpt lat="40.431983" lon="-5.301033">
        <ele>1797.0</ele>
        <time>2015-08-16T12:22:03Z</time>
      </trkpt>
      <trkpt lat="40.432017" lon="-5.300900">
        <ele>1796.0</ele>
        <time>2015-08-16T12:22:04Z</time>
      </trkpt>
      <trkpt lat="40.432017" lon="-5.300783">
        <ele>1795.0</ele>
        <time>2015-08-16T12:22:05Z</time>
      </trkpt>
      <trkpt lat="40.431983" lon="-5.300683">
        <ele>1793.0</ele>
        <time>2015-08-16T12:22:06Z</time>
      </trkpt>
      <trkpt lat="40.431933" lon="-5.300583">
        <ele>1791.0</ele>
        <time>2015-08-16T12:22:07Z</time>
      </trkpt>
      <trkpt lat="40.431850" lon="-5.300517">
        <ele>1790.0</ele>
        <time>2015-08-16T12:22:08Z</time>
      </trkpt>
      <trkpt lat="40.431767" lon="-5.300450">
        <ele>1789.0</ele>
        <time>2015-08-16T12:22:09Z</time>
      </trkpt>
      <trkpt lat="40.431667" lon="-5.300450">
        <ele>1789.0</ele>
        <time>2015-08-16T12:22:10Z</time>
      </trkpt>
      <trkpt lat="40.431583" lon="-5.300467">
        <ele>1790.0</ele>
        <time>2015-08-16T12:22:11Z</time>
      </trkpt>
      <trkpt lat="40.431517" lon="-5.300533">
        <ele>1791.0</ele>
        <time>2015-08-16T12:22:12Z</time>
      </trkpt>
      <trkpt lat="40.431467" lon="-5.300600">
        <ele>1793.0</ele>
        <time>2015-08-16T12:22:13Z</time>
      </trkpt>
      <trkpt lat="40.431417" lon="-5.300683">
        <ele>1796.0</ele>
        <time>2015-08-16T12:22:14Z</time>
      </trkpt>
      <trkpt lat="40.431383" lon="-5.300733">
        <ele>1799.0</ele>
        <time>2015-08-16T12:22:15Z</time>
      </trkpt>
      <trkpt lat="40.431317" lon="-5.300767">
        <ele>1800.0</ele>
        <time>2015-08-16T12:22:16Z</time>
      </trkpt>
      <trkpt lat="40.431233" lon="-5.300767">
        <ele>1801.0</ele>
        <time>2015-08-16T12:22:17Z</time>
      </trkpt>
      <trkpt lat="40.431133" lon="-5.300717">
        <ele>1800.0</ele>
        <time>2015-08-16T12:22:18Z</time>
      </trkpt>
      <trkpt lat="40.431033" lon="-5.300650">
        <ele>1800.0</ele>
        <time>2015-08-16T12:22:19Z</time>
      </trkpt>
      <trkpt lat="40.430933" lon="-5.300567">
        <ele>1801.0</ele>
        <time>2015-08-16T12:22:20Z</time>
      </trkpt>
      <trkpt lat="40.430867" lon="-5.300433">
        <ele>1803.0</ele>
        <time>2015-08-16T12:22:21Z</time>
      </trkpt>
      <trkpt lat="40.430817" lon="-5.300300">
        <ele>1804.0</ele>
        <time>2015-08-16T12:22:22Z</time>
      </trkpt>
      <trkpt lat="40.430800" lon="-5.300150">
        <ele>1805.0</ele>
        <time>2015-08-16T12:22:23Z</time>
      </trkpt>
      <trkpt lat="40.430833" lon="-5.300000">
        <ele>1805.0</ele>
        <time>2015-08-16T12:22:24Z</time>
      </trkpt>
      <trkpt lat="40.430883" lon="-5.299867">
        <ele>1804.0</ele>
        <time>2015-08-16T12:22:25Z</time>
      </trkpt>
      <trkpt lat="40.430950" lon="-5.299733">
        <ele>1803.0</ele>
        <time>2015-08-16T12:22:26Z</time>
      </trkpt>
      <trkpt lat="40.431017" lon="-5.299633">
        <ele>1804.0</ele>
        <time>2015-08-16T12:22:27Z</time>
      </trkpt>
      <trkpt lat="40.431117" lon="-5.299550">
        <ele>1805.0</ele>
        <time>2015-08-16T12:22:28Z</time>
      </trkpt>
      <trkpt lat="40.431200" lon="-5.299483">
        <ele>1807.0</ele>
        <time>2015-08-16T12:22:29Z</time>
      </trkpt>
      <trkpt lat="40.431300" lon="-5.299417">
        <ele>1809.0</ele>
        <time>2015-08-16T12:22:30Z</time>
      </trkpt>
      <trkpt lat="40.431383" lon="-5.299350">
        <ele>1810.0</ele>
        <time>2015-08-16T12:22:31Z</time>
      </trkpt>
      <trkpt lat="40.431467" lon="-5.299300">
        <ele>1812.0</ele>
        <time>2015-08-16T12:22:32Z</time>
      </trkpt>
      <trkpt lat="40.431550" lon="-5.299283">
        <ele>1812.0</ele>
        <time>2015-08-16T12:22:33Z</time>
      </trkpt>
      <trkpt lat="40.431633" lon="-5.299300">
        <ele>1811.0</ele>
        <time>2015-08-16T12:22:34Z</time>
      </trkpt>
      <trkpt lat="40.431733" lon="-5.299350">
        <ele>1810.0</ele>
        <time>2015-08-16T12:22:35Z</time>
      </trkpt>
      <trkpt lat="40.431817" lon="-5.299417">
        <ele>1810.0</ele>
        <time>2015-08-16T12:22:36Z</time>
      </trkpt>
      <trkpt lat="40.431867" lon="-5.299483">
        <ele>1810.0</ele>
        <time>2015-08-16T12:22:37Z</time>
      </trkpt>
      <trkpt lat="40.431900" lon="-5.299583">
        <ele>1809.0</ele>
        <time>2015-08-16T12:22:38Z</time>
      </trkpt>
      <trkpt lat="40.431883" lon="-5.299683">
        <ele>1807.0</ele>
        <time>2015-08-16T12:22:39Z</time>
      </trkpt>
      <trkpt lat="40.431850" lon="-5.299783">
        <ele>1805.0</ele>
        <time>2015-08-16T12:22:40Z</time>
      </trkpt>
      <trkpt lat="40.431800" lon="-5.299867">
        <ele>1804.0</ele>
        <time>2015-08-16T12:22:41Z</time>
      </trkpt>
      <trkpt lat="40.431717" lon="-5.299933">
        <ele>1805.0</ele>
        <time>2015-08-16T12:22:42Z</time>
      </trkpt>
      <trkpt lat="40.431633" lon="-5.299967">
        <ele>1806.0</ele>
        <time>2015-08-16T12:22:43Z</time>
      </trkpt>
      <trkpt lat="40.431533" lon="-5.299967">
        <ele>1807.0</ele>
        <time>2015-08-16T12:22:44Z</time>
      </trkpt>
      <trkpt lat="40.431433" lon="-5.299917">
        <ele>1809.0</ele>
        <time>2015-08-16T12:22:45Z</time>
      </trkpt>
      <trkpt lat="40.431350" lon="-5.299833">
        <ele>1811.0</ele>
        <time>2015-08-16T12:22:46Z</time>
      </trkpt>
      <trkpt lat="40.431283" lon="-5.299733">
        <ele>1812.0</ele>
        <time>2015-08-16T12:22:47Z</time>
      </trkpt>
      <trkpt lat="40.431250" lon="-5.299617">
        <ele>1813.0</ele>
        <time>2015-08-16T12:22:48Z</time>
      </trkpt>
      <trkpt lat="40.431233" lon="-5.299483">
        <ele>1814.0</ele>
        <time>2015-08-16T12:22:49Z</time>
      </trkpt>
      <trkpt lat="40.431233" lon="-5.299350">
        <ele>1814.0</ele>
        <time>2015-08-16T12:22:50Z</time>
      </trkpt>
      <trkpt lat="40.431233" lon="-5.299200">
        <ele>1813.0</ele>
        <time>2015-08-16T12:22:51Z</time>
      </trkpt>
      <trkpt lat="40.431267" lon="-5.299050">
        <ele>1813.0</ele>
        <time>2015-08-16T12:22:52Z</time>
      </trkpt>
      <trkpt lat="40.431300" lon="-5.298900">
        <ele>1813.0</ele>
        <time>2015-08-16T12:22:53Z</time>
      </trkpt>
      <trkpt lat="40.431350" lon="-5.298767">
        <ele>1814.0</ele>
        <time>2015-08-16T12:22:54Z</time>
      </trkpt>
      <trkpt lat="40.431417" lon="-5.298650">
        <ele>1816.0</ele>
        <time>2015-08-16T12:22:55Z</time>
      </trkpt>
      <trkpt lat="40.431483" lon="-5.298550">
        <ele>1817.0</ele>
        <time>2015-08-16T12:22:56Z</time>
      </trkpt>
      <trkpt lat="40.431550" lon="-5.298467">
        <ele>1818.0</ele>
        <time>2015-08-16T12:22:57Z</time>
      </trkpt>
      <trkpt lat="40.431633" lon="-5.298400">
        <ele>1817.0</ele>
        <time>2015-08-16T12:22:58Z</time>
      </trkpt>
      <trkpt lat="40.431733" lon="-5.298350">
        <ele>1817.0</ele>
        <time>2015-08-16T12:22:59Z</time>
      </trkpt>
      <trkpt lat="40.431833" lon="-5.298317">
        <ele>1817.0</ele>
        <time>2015-08-16T12:23:00Z</time>
      </trkpt>
      <trkpt lat="40.431933" lon="-5.298317">
        <ele>1816.0</ele>
        <time>2015-08-16T12:23:01Z</time>
      </trkpt>
      <trkpt lat="40.432033" lon="-5.298350">
        <ele>1816.0</ele>
        <time>2015-08-16T12:23:02Z</time>
      </trkpt>
      <trkpt lat="40.432117" lon="-5.298417">
        <ele>1816.0</ele>
        <time>2015-08-16T12:23:03Z</time>
      </trkpt>
      <trkpt lat="40.432167" lon="-5.298500">
        <ele>1817.0</ele>
        <time>2015-08-16T12:23:04Z</time>
      </trkpt>
      <trkpt lat="40.432167" lon="-5.298600">
        <ele>1817.0</ele>
        <time>2015-08-16T12:23:05Z</time>
      </trkpt>
      <trkpt lat="40.432167" lon="-5.298667">
        <ele>1815.0</ele>
        <time>2015-08-16T12:23:06Z</time>
      </trkpt>
      <trkpt lat="40.432150" lon="-5.298750">
        <ele>1814.0</ele>
        <time>2015-08-16T12:23:07Z</time>
      </trkpt>
      <trkpt lat="40.432150" lon="-5.298817">
        <ele>1813.0</ele>
        <time>2015-08-16T12:23:08Z</time>
      </trkpt>
      <trkpt lat="40.432100" lon="-5.298883">
        <ele>1812.0</ele>
        <time>2015-08-16T12:23:09Z</time>
      </trkpt>
      <trkpt lat="40.432033" lon="-5.298967">
        <ele>1812.0</ele>
        <time>2015-08-16T12:23:10Z</time>
      </trkpt>
      <trkpt lat="40.431950" lon="-5.299033">
        <ele>1813.0</ele>
        <time>2015-08-16T12:23:11Z</time>
      </trkpt>
      <trkpt lat="40.431867" lon="-5.299067">
        <ele>1817.0</ele>
        <time>2015-08-16T12:23:12Z</time>
      </trkpt>
      <trkpt lat="40.431783" lon="-5.299100">
        <ele>1820.0</ele>
        <time>2015-08-16T12:23:13Z</time>
      </trkpt>
      <trkpt lat="40.431700" lon="-5.299100">
        <ele>1823.0</ele>
        <time>2015-08-16T12:23:14Z</time>
      </trkpt>
      <trkpt lat="40.431617" lon="-5.299100">
        <ele>1824.0</ele>
        <time>2015-08-16T12:23:15Z</time>
      </trkpt>
      <trkpt lat="40.431550" lon="-5.299100">
        <ele>1824.0</ele>
        <time>2015-08-16T12:23:16Z</time>
      </trkpt>
      <trkpt lat="40.431483" lon="-5.299117">
        <ele>1824.0</ele>
        <time>2015-08-16T12:23:17Z</time>
      </trkpt>
      <trkpt lat="40.431417" lon="-5.299133">
        <ele>1824.0</ele>
        <time>2015-08-16T12:23:18Z</time>
      </trkpt>
      <trkpt lat="40.431350" lon="-5.299167">
        <ele>1823.0</ele>
        <time>2015-08-16T12:23:19Z</time>
      </trkpt>
      <trkpt lat="40.431300" lon="-5.299217">
        <ele>1823.0</ele>
        <time>2015-08-16T12:23:20Z</time>
      </trkpt>
      <trkpt lat="40.431267" lon="-5.299283">
        <ele>1823.0</ele>
        <time>2015-08-16T12:23:21Z</time>
      </trkpt>
      <trkpt lat="40.431233" lon="-5.299350">
        <ele>1824.0</ele>
        <time>2015-08-16T12:23:22Z</time>
      </trkpt>
      <trkpt lat="40.431233" lon="-5.299417">
        <ele>1825.0</ele>
        <time>2015-08-16T12:23:23Z</time>
      </trkpt>
      <trkpt lat="40.431267" lon="-5.299483">
        <ele>1826.0</ele>
        <time>2015-08-16T12:23:24Z</time>
      </trkpt>
      <trkpt lat="40.431283" lon="-5.299550">
        <ele>1826.0</ele>
        <time>2015-08-16T12:23:25Z</time>
      </trkpt>
      <trkpt lat="40.431300" lon="-5.299617">
        <ele>1827.0</ele>
        <time>2015-08-16T12:23:26Z</time>
      </trkpt>
      <trkpt lat="40.431317" lon="-5.299683">
        <ele>1826.0</ele>
        <time>2015-08-16T12:23:27Z</time>
      </trkpt>
      <trkpt lat="40.431333" lon="-5.299750">
        <ele>1825.0</ele>
        <time>2015-08-16T12:23:28Z</time>
      </trkpt>
      <trkpt lat="40.431367" lon="-5.299817">
        <ele>1823.0</ele>
        <time>2015-08-16T12:23:29Z</time>
      </trkpt>
      <trkpt lat="40.431417" lon="-5.299900">
        <ele>1821.0</ele>
        <time>2015-08-16T12:23:30Z</time>
      </trkpt>
      <trkpt lat="40.431450" lon="-5.299967">
        <ele>1820.0</ele>
        <time>2015-08-16T12:23:31Z</time>
      </trkpt>
      <trkpt lat="40.431483" lon="-5.300033">
        <ele>1819.0</ele>
        <time>2015-08-16T12:23:32Z</time>
      </trkpt>
      <trkpt lat="40.431517" lon="-5.300117">
        <ele>1817.0</ele>
        <time>2015-08-16T12:23:33Z</time>
      </trkpt>
      <trkpt lat="40.431550" lon="-5.300183">
        <ele>1814.0</ele>
        <time>2015-08-16T12:23:34Z</time>
      </trkpt>
      <trkpt lat="40.431583" lon="-5.300267">
        <ele>1811.0</ele>
        <time>2015-08-16T12:23:35Z</time>
      </trkpt>
      <trkpt lat="40.431633" lon="-5.300367">
        <ele>1809.0</ele>
        <time>2015-08-16T12:23:36Z</time>
      </trkpt>
      <trkpt lat="40.431683" lon="-5.300433">
        <ele>1807.0</ele>
        <time>2015-08-16T12:23:37Z</time>
      </trkpt>
      <trkpt lat="40.431733" lon="-5.300517">
        <ele>1807.0</ele>
        <time>2015-08-16T12:23:38Z</time>
      </trkpt>
      <trkpt lat="40.431800" lon="-5.300583">
        <ele>1806.0</ele>
        <time>2015-08-16T12:23:39Z</time>
      </trkpt>
      <trkpt lat="40.431833" lon="-5.300667">
        <ele>1805.0</ele>
        <time>2015-08-16T12:23:40Z</time>
      </trkpt>
      <trkpt lat="40.431883" lon="-5.300750">
        <ele>1804.0</ele>
        <time>2015-08-16T12:23:41Z</time>
      </trkpt>
      <trkpt lat="40.431900" lon="-5.300850">
        <ele>1802.0</ele>
        <time>2015-08-16T12:23:42Z</time>
      </trkpt>
      <trkpt lat="40.431917" lon="-5.300950">
        <ele>1801.0</ele>
        <time>2015-08-16T12:23:43Z</time>
      </trkpt>
      <trkpt lat="40.431917" lon="-5.301067">
        <ele>1800.0</ele>
        <time>2015-08-16T12:23:44Z</time>
      </trkpt>
      <trkpt lat="40.431917" lon="-5.301167">
        <ele>1800.0</ele>
        <time>2015-08-16T12:23:45Z</time>
      </trkpt>
      <trkpt lat="40.431900" lon="-5.301250">
        <ele>1799.0</ele>
        <time>2015-08-16T12:23:46Z</time>
      </trkpt>
      <trkpt lat="40.431900" lon="-5.301333">
        <ele>1796.0</ele>
        <time>2015-08-16T12:23:47Z</time>
      </trkpt>
      <trkpt lat="40.431917" lon="-5.301433">
        <ele>1793.0</ele>
        <time>2015-08-16T12:23:48Z</time>
      </trkpt>
      <trkpt lat="40.431933" lon="-5.301517">
        <ele>1789.0</ele>
        <time>2015-08-16T12:23:49Z</time>
      </trkpt>
      <trkpt lat="40.431967" lon="-5.301633">
        <ele>1785.0</ele>
        <time>2015-08-16T12:23:50Z</time>
      </trkpt>
      <trkpt lat="40.432017" lon="-5.301733">
        <ele>1783.0</ele>
        <time>2015-08-16T12:23:51Z</time>
      </trkpt>
      <trkpt lat="40.432067" lon="-5.301850">
        <ele>1783.0</ele>
        <time>2015-08-16T12:23:52Z</time>
      </trkpt>
      <trkpt lat="40.432100" lon="-5.301933">
        <ele>1783.0</ele>
        <time>2015-08-16T12:23:53Z</time>
      </trkpt>
      <trkpt lat="40.432133" lon="-5.302033">
        <ele>1783.0</ele>
        <time>2015-08-16T12:23:54Z</time>
      </trkpt>
      <trkpt lat="40.432167" lon="-5.302117">
        <ele>1782.0</ele>
        <time>2015-08-16T12:23:55Z</time>
      </trkpt>
      <trkpt lat="40.432200" lon="-5.302200">
        <ele>1780.0</ele>
        <time>2015-08-16T12:23:56Z</time>
      </trkpt>
      <trkpt lat="40.432250" lon="-5.302283">
        <ele>1778.0</ele>
        <time>2015-08-16T12:23:57Z</time>
      </trkpt>
      <trkpt lat="40.432300" lon="-5.302350">
        <ele>1777.0</ele>
        <time>2015-08-16T12:23:58Z</time>
      </trkpt>
      <trkpt lat="40.432333" lon="-5.302433">
        <ele>1776.0</ele>
        <time>2015-08-16T12:23:59Z</time>
      </trkpt>
      <trkpt lat="40.432367" lon="-5.302500">
        <ele>1775.0</ele>
        <time>2015-08-16T12:24:00Z</time>
      </trkpt>
      <trkpt lat="40.432400" lon="-5.302567">
        <ele>1773.0</ele>
        <time>2015-08-16T12:24:01Z</time>
      </trkpt>
      <trkpt lat="40.432417" lon="-5.302617">
        <ele>1770.0</ele>
        <time>2015-08-16T12:24:02Z</time>
      </trkpt>
      <trkpt lat="40.432433" lon="-5.302683">
        <ele>1766.0</ele>
        <time>2015-08-16T12:24:03Z</time>
      </trkpt>
      <trkpt lat="40.432483" lon="-5.302750">
        <ele>1763.0</ele>
        <time>2015-08-16T12:24:04Z</time>
      </trkpt>
      <trkpt lat="40.432533" lon="-5.302817">
        <ele>1760.0</ele>
        <time>2015-08-16T12:24:05Z</time>
      </trkpt>
      <trkpt lat="40.432600" lon="-5.302867">
        <ele>1757.0</ele>
        <time>2015-08-16T12:24:06Z</time>
      </trkpt>
      <trkpt lat="40.432683" lon="-5.302917">
        <ele>1755.0</ele>
        <time>2015-08-16T12:24:07Z</time>
      </trkpt>
      <trkpt lat="40.432767" lon="-5.302950">
        <ele>1753.0</ele>
        <time>2015-08-16T12:24:08Z</time>
      </trkpt>
      <trkpt lat="40.432850" lon="-5.302967">
        <ele>1751.0</ele>
        <time>2015-08-16T12:24:09Z</time>
      </trkpt>
      <trkpt lat="40.432933" lon="-5.302967">
        <ele>1749.0</ele>
        <time>2015-08-16T12:24:10Z</time>
      </trkpt>
      <trkpt lat="40.433017" lon="-5.302983">
        <ele>1747.0</ele>
        <time>2015-08-16T12:24:11Z</time>
      </trkpt>
      <trkpt lat="40.433117" lon="-5.302983">
        <ele>1745.0</ele>
        <time>2015-08-16T12:24:12Z</time>
      </trkpt>
      <trkpt lat="40.433217" lon="-5.302967">
        <ele>1744.0</ele>
        <time>2015-08-16T12:24:13Z</time>
      </trkpt>
      <trkpt lat="40.433317" lon="-5.302950">
        <ele>1743.0</ele>
        <time>2015-08-16T12:24:14Z</time>
      </trkpt>
      <trkpt lat="40.433417" lon="-5.302933">
        <ele>1743.0</ele>
        <time>2015-08-16T12:24:15Z</time>
      </trkpt>
      <trkpt lat="40.433517" lon="-5.302933">
        <ele>1743.0</ele>
        <time>2015-08-16T12:24:16Z</time>
      </trkpt>
      <trkpt lat="40.433617" lon="-5.302917">
        <ele>1741.0</ele>
        <time>2015-08-16T12:24:17Z</time>
      </trkpt>
      <trkpt lat="40.433700" lon="-5.302933">
        <ele>1740.0</ele>
        <time>2015-08-16T12:24:18Z</time>
      </trkpt>
      <trkpt lat="40.433800" lon="-5.302950">
        <ele>1739.0</ele>
        <time>2015-08-16T12:24:19Z</time>
      </trkpt>
      <trkpt lat="40.433900" lon="-5.302950">
        <ele>1737.0</ele>
        <time>2015-08-16T12:24:20Z</time>
      </trkpt>
      <trkpt lat="40.434000" lon="-5.302950">
        <ele>1736.0</ele>
        <time>2015-08-16T12:24:21Z</time>
      </trkpt>
      <trkpt lat="40.434117" lon="-5.302967">
        <ele>1735.0</ele>
        <time>2015-08-16T12:24:22Z</time>
      </trkpt>
      <trkpt lat="40.434217" lon="-5.302983">
        <ele>1734.0</ele>
        <time>2015-08-16T12:24:23Z</time>
      </trkpt>
      <trkpt lat="40.434317" lon="-5.303000">
        <ele>1733.0</ele>
        <time>2015-08-16T12:24:24Z</time>
      </trkpt>
      <trkpt lat="40.434400" lon="-5.303050">
        <ele>1732.0</ele>
        <time>2015-08-16T12:24:25Z</time>
      </trkpt>
      <trkpt lat="40.434483" lon="-5.303100">
        <ele>1731.0</ele>
        <time>2015-08-16T12:24:26Z</time>
      </trkpt>
      <trkpt lat="40.434550" lon="-5.303150">
        <ele>1729.0</ele>
        <time>2015-08-16T12:24:27Z</time>
      </trkpt>
      <trkpt lat="40.434617" lon="-5.303217">
        <ele>1728.0</ele>
        <time>2015-08-16T12:24:28Z</time>
      </trkpt>
      <trkpt lat="40.434667" lon="-5.303267">
        <ele>1727.0</ele>
        <time>2015-08-16T12:24:29Z</time>
      </trkpt>
      <trkpt lat="40.434717" lon="-5.303333">
        <ele>1725.0</ele>
        <time>2015-08-16T12:24:30Z</time>
      </trkpt>
      <trkpt lat="40.434783" lon="-5.303383">
        <ele>1723.0</ele>
        <time>2015-08-16T12:24:31Z</time>
      </trkpt>
      <trkpt lat="40.434850" lon="-5.303450">
        <ele>1721.0</ele>
        <time>2015-08-16T12:24:32Z</time>
      </trkpt>
      <trkpt lat="40.434917" lon="-5.303500">
        <ele>1721.0</ele>
        <time>2015-08-16T12:24:33Z</time>
      </trkpt>
      <trkpt lat="40.434983" lon="-5.303533">
        <ele>1721.0</ele>
        <time>2015-08-16T12:24:34Z</time>
      </trkpt>
      <trkpt lat="40.435050" lon="-5.303550">
        <ele>1720.0</ele>
        <time>2015-08-16T12:24:35Z</time>
      </trkpt>
      <trkpt lat="40.435117" lon="-5.303583">
        <ele>1719.0</ele>
        <time>2015-08-16T12:24:36Z</time>
      </trkpt>
      <trkpt lat="40.435167" lon="-5.303617">
        <ele>1717.0</ele>
        <time>2015-08-16T12:24:37Z</time>
      </trkpt>
      <trkpt lat="40.435233" lon="-5.303650">
        <ele>1715.0</ele>
        <time>2015-08-16T12:24:38Z</time>
      </trkpt>
      <trkpt lat="40.435300" lon="-5.303717">
        <ele>1712.0</ele>
        <time>2015-08-16T12:24:39Z</time>
      </trkpt>
      <trkpt lat="40.435350" lon="-5.303783">
        <ele>1709.0</ele>
        <time>2015-08-16T12:24:40Z</time>
      </trkpt>
      <trkpt lat="40.435417" lon="-5.303867">
        <ele>1707.0</ele>
        <time>2015-08-16T12:24:41Z</time>
      </trkpt>
      <trkpt lat="40.435450" lon="-5.303967">
        <ele>1705.0</ele>
        <time>2015-08-16T12:24:42Z</time>
      </trkpt>
      <trkpt lat="40.435450" lon="-5.304067">
        <ele>1704.0</ele>
        <time>2015-08-16T12:24:43Z</time>
      </trkpt>
      <trkpt lat="40.435467" lon="-5.304150">
        <ele>1704.0</ele>
        <time>2015-08-16T12:24:44Z</time>
      </trkpt>
      <trkpt lat="40.435483" lon="-5.304233">
        <ele>1703.0</ele>
        <time>2015-08-16T12:24:45Z</time>
      </trkpt>
      <trkpt lat="40.435517" lon="-5.304267">
        <ele>1702.0</ele>
        <time>2015-08-16T12:24:46Z</time>
      </trkpt>
      <trkpt lat="40.435567" lon="-5.304283">
        <ele>1700.0</ele>
        <time>2015-08-16T12:24:47Z</time>
      </trkpt>
      <trkpt lat="40.435600" lon="-5.304300">
        <ele>1697.0</ele>
        <time>2015-08-16T12:24:48Z</time>
      </trkpt>
      <trkpt lat="40.435667" lon="-5.304317">
        <ele>1694.0</ele>
        <time>2015-08-16T12:24:49Z</time>
      </trkpt>
      <trkpt lat="40.435700" lon="-5.304367">
        <ele>1691.0</ele>
        <time>2015-08-16T12:24:50Z</time>
      </trkpt>
      <trkpt lat="40.435750" lon="-5.304450">
        <ele>1687.0</ele>
        <time>2015-08-16T12:24:51Z</time>
      </trkpt>
      <trkpt lat="40.435800" lon="-5.304533">
        <ele>1685.0</ele>
        <time>2015-08-16T12:24:52Z</time>
      </trkpt>
      <trkpt lat="40.435850" lon="-5.304617">
        <ele>1682.0</ele>
        <time>2015-08-16T12:24:53Z</time>
      </trkpt>
      <trkpt lat="40.435900" lon="-5.304683">
        <ele>1680.0</ele>
        <time>2015-08-16T12:24:54Z</time>
      </trkpt>
      <trkpt lat="40.435967" lon="-5.304767">
        <ele>1678.0</ele>
        <time>2015-08-16T12:24:55Z</time>
      </trkpt>
      <trkpt lat="40.436033" lon="-5.304833">
        <ele>1675.0</ele>
        <time>2015-08-16T12:24:56Z</time>
      </trkpt>
      <trkpt lat="40.436100" lon="-5.304917">
        <ele>1673.0</ele>
        <time>2015-08-16T12:24:57Z</time>
      </trkpt>
      <trkpt lat="40.436183" lon="-5.304983">
        <ele>1670.0</ele>
        <time>2015-08-16T12:24:58Z</time>
      </trkpt>
      <trkpt lat="40.436250" lon="-5.305050">
        <ele>1668.0</ele>
        <time>2015-08-16T12:24:59Z</time>
      </trkpt>
      <trkpt lat="40.436333" lon="-5.305117">
        <ele>1665.0</ele>
        <time>2015-08-16T12:25:00Z</time>
      </trkpt>
      <trkpt lat="40.436400" lon="-5.305183">
        <ele>1662.0</ele>
        <time>2015-08-16T12:25:01Z</time>
      </trkpt>
      <trkpt lat="40.436483" lon="-5.305283">
        <ele>1660.0</ele>
        <time>2015-08-16T12:25:02Z</time>
      </trkpt>
      <trkpt lat="40.436567" lon="-5.305367">
        <ele>1658.0</ele>
        <time>2015-08-16T12:25:03Z</time>
      </trkpt>
      <trkpt lat="40.436650" lon="-5.305417">
        <ele>1657.0</ele>
        <time>2015-08-16T12:25:04Z</time>
      </trkpt>
      <trkpt lat="40.436750" lon="-5.305467">
        <ele>1656.0</ele>
        <time>2015-08-16T12:25:05Z</time>
      </trkpt>
      <trkpt lat="40.436817" lon="-5.305533">
        <ele>1657.0</ele>
        <time>2015-08-16T12:25:06Z</time>
      </trkpt>
      <trkpt lat="40.436900" lon="-5.305600">
        <ele>1656.0</ele>
        <time>2015-08-16T12:25:07Z</time>
      </trkpt>
      <trkpt lat="40.436983" lon="-5.305683">
        <ele>1656.0</ele>
        <time>2015-08-16T12:25:08Z</time>
      </trkpt>
      <trkpt lat="40.437050" lon="-5.305767">
        <ele>1657.0</ele>
        <time>2015-08-16T12:25:09Z</time>
      </trkpt>
      <trkpt lat="40.437117" lon="-5.305867">
        <ele>1659.0</ele>
        <time>2015-08-16T12:25:10Z</time>
      </trkpt>
      <trkpt lat="40.437167" lon="-5.305967">
        <ele>1662.0</ele>
        <time>2015-08-16T12:25:11Z</time>
      </trkpt>
      <trkpt lat="40.437183" lon="-5.306067">
        <ele>1664.0</ele>
        <time>2015-08-16T12:25:12Z</time>
      </trkpt>
      <trkpt lat="40.437200" lon="-5.306167">
        <ele>1665.0</ele>
        <time>2015-08-16T12:25:13Z</time>
      </trkpt>
      <trkpt lat="40.437167" lon="-5.306267">
        <ele>1666.0</ele>
        <time>2015-08-16T12:25:14Z</time>
      </trkpt>
      <trkpt lat="40.437133" lon="-5.306383">
        <ele>1665.0</ele>
        <time>2015-08-16T12:25:15Z</time>
      </trkpt>
      <trkpt lat="40.437050" lon="-5.306467">
        <ele>1665.0</ele>
        <time>2015-08-16T12:25:16Z</time>
      </trkpt>
      <trkpt lat="40.436950" lon="-5.306533">
        <ele>1665.0</ele>
        <time>2015-08-16T12:25:17Z</time>
      </trkpt>
      <trkpt lat="40.436833" lon="-5.306550">
        <ele>1665.0</ele>
        <time>2015-08-16T12:25:18Z</time>
      </trkpt>
      <trkpt lat="40.436733" lon="-5.306517">
        <ele>1665.0</ele>
        <time>2015-08-16T12:25:19Z</time>
      </trkpt>
      <trkpt lat="40.436633" lon="-5.306417">
        <ele>1665.0</ele>
        <time>2015-08-16T12:25:20Z</time>
      </trkpt>
      <trkpt lat="40.436550" lon="-5.306300">
        <ele>1666.0</ele>
        <time>2015-08-16T12:25:21Z</time>
      </trkpt>
      <trkpt lat="40.436500" lon="-5.306183">
        <ele>1667.0</ele>
        <time>2015-08-16T12:25:22Z</time>
      </trkpt>
      <trkpt lat="40.436483" lon="-5.306050">
        <ele>1668.0</ele>
        <time>2015-08-16T12:25:23Z</time>
      </trkpt>
      <trkpt lat="40.436483" lon="-5.305933">
        <ele>1668.0</ele>
        <time>2015-08-16T12:25:24Z</time>
      </trkpt>
      <trkpt lat="40.436500" lon="-5.305800">
        <ele>1668.0</ele>
        <time>2015-08-16T12:25:25Z</time>
      </trkpt>
      <trkpt lat="40.436517" lon="-5.305683">
        <ele>1667.0</ele>
        <time>2015-08-16T12:25:26Z</time>
      </trkpt>
      <trkpt lat="40.436567" lon="-5.305567">
        <ele>1667.0</ele>
        <time>2015-08-16T12:25:27Z</time>
      </trkpt>
      <trkpt lat="40.436633" lon="-5.305467">
        <ele>1667.0</ele>
        <time>2015-08-16T12:25:28Z</time>
      </trkpt>
      <trkpt lat="40.436700" lon="-5.305383">
        <ele>1667.0</ele>
        <time>2015-08-16T12:25:29Z</time>
      </trkpt>
      <trkpt lat="40.436767" lon="-5.305317">
        <ele>1668.0</ele>
        <time>2015-08-16T12:25:30Z</time>
      </trkpt>
      <trkpt lat="40.436833" lon="-5.305267">
        <ele>1670.0</ele>
        <time>2015-08-16T12:25:31Z</time>
      </trkpt>
      <trkpt lat="40.436900" lon="-5.305217">
        <ele>1671.0</ele>
        <time>2015-08-16T12:25:32Z</time>
      </trkpt>
      <trkpt lat="40.436983" lon="-5.305167">
        <ele>1672.0</ele>
        <time>2015-08-16T12:25:33Z</time>
      </trkpt>
      <trkpt lat="40.437033" lon="-5.305133">
        <ele>1674.0</ele>
        <time>2015-08-16T12:25:34Z</time>
      </trkpt>
      <trkpt lat="40.437100" lon="-5.305067">
        <ele>1675.0</ele>
        <time>2015-08-16T12:25:35Z</time>
      </trkpt>
      <trkpt lat="40.437133" lon="-5.304950">
        <ele>1674.0</ele>
        <time>2015-08-16T12:25:36Z</time>
      </trkpt>
      <trkpt lat="40.437133" lon="-5.304817">
        <ele>1673.0</ele>
        <time>2015-08-16T12:25:37Z</time>
      </trkpt>
      <trkpt lat="40.437100" lon="-5.304667">
        <ele>1673.0</ele>
        <time>2015-08-16T12:25:38Z</time>
      </trkpt>
      <trkpt lat="40.437033" lon="-5.304533">
        <ele>1673.0</ele>
        <time>2015-08-16T12:25:39Z</time>
      </trkpt>
      <trkpt lat="40.436950" lon="-5.304417">
        <ele>1675.0</ele>
        <time>2015-08-16T12:25:40Z</time>
      </trkpt>
      <trkpt lat="40.436850" lon="-5.304350">
        <ele>1676.0</ele>
        <time>2015-08-16T12:25:41Z</time>
      </trkpt>
      <trkpt lat="40.436750" lon="-5.304317">
        <ele>1678.0</ele>
        <time>2015-08-16T12:25:42Z</time>
      </trkpt>
      <trkpt lat="40.436633" lon="-5.304333">
        <ele>1679.0</ele>
        <time>2015-08-16T12:25:43Z</time>
      </trkpt>
      <trkpt lat="40.436550" lon="-5.304383">
        <ele>1680.0</ele>
        <time>2015-08-16T12:25:44Z</time>
      </trkpt>
      <trkpt lat="40.436467" lon="-5.304483">
        <ele>1681.0</ele>
        <time>2015-08-16T12:25:45Z</time>
      </trkpt>
      <trkpt lat="40.436417" lon="-5.304600">
        <ele>1683.0</ele>
        <time>2015-08-16T12:25:46Z</time>
      </trkpt>
      <trkpt lat="40.436417" lon="-5.304733">
        <ele>1684.0</ele>
        <time>2015-08-16T12:25:47Z</time>
      </trkpt>
      <trkpt lat="40.436450" lon="-5.304833">
        <ele>1685.0</ele>
        <time>2015-08-16T12:25:48Z</time>
      </trkpt>
      <trkpt lat="40.436500" lon="-5.304933">
        <ele>1686.0</ele>
        <time>2015-08-16T12:25:49Z</time>
      </trkpt>
      <trkpt lat="40.436567" lon="-5.304983">
        <ele>1686.0</ele>
        <time>2015-08-16T12:25:50Z</time>
      </trkpt>
      <trkpt lat="40.436650" lon="-5.305017">
        <ele>1687.0</ele>
        <time>2015-08-16T12:25:51Z</time>
      </trkpt>
      <trkpt lat="40.436750" lon="-5.304983">
        <ele>1687.0</ele>
        <time>2015-08-16T12:25:52Z</time>
      </trkpt>
      <trkpt lat="40.436817" lon="-5.304917">
        <ele>1688.0</ele>
        <time>2015-08-16T12:25:53Z</time>
      </trkpt>
      <trkpt lat="40.436867" lon="-5.304783">
        <ele>1689.0</ele>
        <time>2015-08-16T12:25:54Z</time>
      </trkpt>
      <trkpt lat="40.436867" lon="-5.304650">
        <ele>1690.0</ele>
        <time>2015-08-16T12:25:55Z</time>
      </trkpt>
      <trkpt lat="40.436833" lon="-5.304500">
        <ele>1690.0</ele>
        <time>2015-08-16T12:25:56Z</time>
      </trkpt>
      <trkpt lat="40.436767" lon="-5.304367">
        <ele>1691.0</ele>
        <time>2015-08-16T12:25:57Z</time>
      </trkpt>
      <trkpt lat="40.436667" lon="-5.304283">
        <ele>1692.0</ele>
        <time>2015-08-16T12:25:58Z</time>
      </trkpt>
      <trkpt lat="40.436550" lon="-5.304250">
        <ele>1693.0</ele>
        <time>2015-08-16T12:25:59Z</time>
      </trkpt>
      <trkpt lat="40.436450" lon="-5.304283">
        <ele>1693.0</ele>
        <time>2015-08-16T12:26:00Z</time>
      </trkpt>
      <trkpt lat="40.436350" lon="-5.304367">
        <ele>1694.0</ele>
        <time>2015-08-16T12:26:01Z</time>
      </trkpt>
      <trkpt lat="40.436283" lon="-5.304483">
        <ele>1695.0</ele>
        <time>2015-08-16T12:26:02Z</time>
      </trkpt>
      <trkpt lat="40.436250" lon="-5.304617">
        <ele>1698.0</ele>
        <time>2015-08-16T12:26:03Z</time>
      </trkpt>
      <trkpt lat="40.436267" lon="-5.304733">
        <ele>1700.0</ele>
        <time>2015-08-16T12:26:04Z</time>
      </trkpt>
      <trkpt lat="40.436317" lon="-5.304817">
        <ele>1701.0</ele>
        <time>2015-08-16T12:26:05Z</time>
      </trkpt>
      <trkpt lat="40.436383" lon="-5.304867">
        <ele>1701.0</ele>
        <time>2015-08-16T12:26:06Z</time>
      </trkpt>
      <trkpt lat="40.436467" lon="-5.304883">
        <ele>1702.0</ele>
        <time>2015-08-16T12:26:07Z</time>
      </trkpt>
      <trkpt lat="40.436567" lon="-5.304850">
        <ele>1701.0</ele>
        <time>2015-08-16T12:26:08Z</time>
      </trkpt>
      <trkpt lat="40.436650" lon="-5.304767">
        <ele>1701.0</ele>
        <time>2015-08-16T12:26:09Z</time>
      </trkpt>
      <trkpt lat="40.436700" lon="-5.304633">
        <ele>1701.0</ele>
        <time>2015-08-16T12:26:10Z</time>
      </trkpt>
      <trkpt lat="40.436700" lon="-5.304467">
        <ele>1702.0</ele>
        <time>2015-08-16T12:26:11Z</time>
      </trkpt>
      <trkpt lat="40.436650" lon="-5.304333">
        <ele>1702.0</ele>
        <time>2015-08-16T12:26:12Z</time>
      </trkpt>
      <trkpt lat="40.436550" lon="-5.304217">
        <ele>1704.0</ele>
        <time>2015-08-16T12:26:13Z</time>
      </trkpt>
      <trkpt lat="40.436450" lon="-5.304167">
        <ele>1706.0</ele>
        <time>2015-08-16T12:26:14Z</time>
      </trkpt>
      <trkpt lat="40.436350" lon="-5.304150">
        <ele>1707.0</ele>
        <time>2015-08-16T12:26:15Z</time>
      </trkpt>
      <trkpt lat="40.436250" lon="-5.304183">
        <ele>1709.0</ele>
        <time>2015-08-16T12:26:16Z</time>
      </trkpt>
      <trkpt lat="40.436150" lon="-5.304217">
        <ele>1711.0</ele>
        <time>2015-08-16T12:26:17Z</time>
      </trkpt>
      <trkpt lat="40.436067" lon="-5.304300">
        <ele>1712.0</ele>
        <time>2015-08-16T12:26:18Z</time>
      </trkpt>
      <trkpt lat="40.436017" lon="-5.304417">
        <ele>1712.0</ele>
        <time>2015-08-16T12:26:19Z</time>
      </trkpt>
      <trkpt lat="40.436017" lon="-5.304567">
        <ele>1712.0</ele>
        <time>2015-08-16T12:26:20Z</time>
      </trkpt>
      <trkpt lat="40.436050" lon="-5.304683">
        <ele>1712.0</ele>
        <time>2015-08-16T12:26:21Z</time>
      </trkpt>
      <trkpt lat="40.436117" lon="-5.304750">
        <ele>1713.0</ele>
        <time>2015-08-16T12:26:22Z</time>
      </trkpt>
      <trkpt lat="40.436200" lon="-5.304783">
        <ele>1714.0</ele>
        <time>2015-08-16T12:26:23Z</time>
      </trkpt>
      <trkpt lat="40.436283" lon="-5.304767">
        <ele>1714.0</ele>
        <time>2015-08-16T12:26:24Z</time>
      </trkpt>
      <trkpt lat="40.436350" lon="-5.304700">
        <ele>1713.0</ele>
        <time>2015-08-16T12:26:25Z</time>
      </trkpt>
      <trkpt lat="40.436417" lon="-5.304600">
        <ele>1712.0</ele>
        <time>2015-08-16T12:26:26Z</time>
      </trkpt>
      <trkpt lat="40.436467" lon="-5.304450">
        <ele>1712.0</ele>
        <time>2015-08-16T12:26:27Z</time>
      </trkpt>
      <trkpt lat="40.436467" lon="-5.304300">
        <ele>1712.0</ele>
        <time>2015-08-16T12:26:28Z</time>
      </trkpt>
      <trkpt lat="40.436433" lon="-5.304150">
        <ele>1713.0</ele>
        <time>2015-08-16T12:26:29Z</time>
      </trkpt>
      <trkpt lat="40.436383" lon="-5.304017">
        <ele>1715.0</ele>
        <time>2015-08-16T12:26:30Z</time>
      </trkpt>
      <trkpt lat="40.436317" lon="-5.303900">
        <ele>1717.0</ele>
        <time>2015-08-16T12:26:31Z</time>
      </trkpt>
      <trkpt lat="40.436250" lon="-5.303800">
        <ele>1718.0</ele>
        <time>2015-08-16T12:26:32Z</time>
      </trkpt>
      <trkpt lat="40.436167" lon="-5.303717">
        <ele>1720.0</ele>
        <time>2015-08-16T12:26:33Z</time>
      </trkpt>
      <trkpt lat="40.436100" lon="-5.303633">
        <ele>1721.0</ele>
        <time>2015-08-16T12:26:34Z</time>
      </trkpt>
      <trkpt lat="40.436033" lon="-5.303567">
        <ele>1721.0</ele>
        <time>2015-08-16T12:26:35Z</time>
      </trkpt>
      <trkpt lat="40.435950" lon="-5.303517">
        <ele>1721.0</ele>
        <time>2015-08-16T12:26:36Z</time>
      </trkpt>
      <trkpt lat="40.435850" lon="-5.303483">
        <ele>1721.0</ele>
        <time>2015-08-16T12:26:37Z</time>
      </trkpt>
      <trkpt lat="40.435733" lon="-5.303483">
        <ele>1722.0</ele>
        <time>2015-08-16T12:26:38Z</time>
      </trkpt>
      <trkpt lat="40.435633" lon="-5.303533">
        <ele>1723.0</ele>
        <time>2015-08-16T12:26:39Z</time>
      </trkpt>
      <trkpt lat="40.435533" lon="-5.303617">
        <ele>1723.0</ele>
        <time>2015-08-16T12:26:40Z</time>
      </trkpt>
      <trkpt lat="40.435483" lon="-5.303750">
        <ele>1722.0</ele>
        <time>2015-08-16T12:26:41Z</time>
      </trkpt>
      <trkpt lat="40.435483" lon="-5.303900">
        <ele>1721.0</ele>
        <time>2015-08-16T12:26:42Z</time>
      </trkpt>
      <trkpt lat="40.435500" lon="-5.304017">
        <ele>1722.0</ele>
        <time>2015-08-16T12:26:43Z</time>
      </trkpt>
      <trkpt lat="40.435567" lon="-5.304100">
        <ele>1723.0</ele>
        <time>2015-08-16T12:26:44Z</time>
      </trkpt>
      <trkpt lat="40.435633" lon="-5.304167">
        <ele>1723.0</ele>
        <time>2015-08-16T12:26:45Z</time>
      </trkpt>
      <trkpt lat="40.435700" lon="-5.304217">
        <ele>1724.0</ele>
        <time>2015-08-16T12:26:46Z</time>
      </trkpt>
      <trkpt lat="40.435750" lon="-5.304283">
        <ele>1725.0</ele>
        <time>2015-08-16T12:26:47Z</time>
      </trkpt>
      <trkpt lat="40.435800" lon="-5.304333">
        <ele>1726.0</ele>
        <time>2015-08-16T12:26:48Z</time>
      </trkpt>
      <trkpt lat="40.435850" lon="-5.304417">
        <ele>1727.0</ele>
        <time>2015-08-16T12:26:49Z</time>
      </trkpt>
      <trkpt lat="40.435900" lon="-5.304500">
        <ele>1727.0</ele>
        <time>2015-08-16T12:26:50Z</time>
      </trkpt>
      <trkpt lat="40.435917" lon="-5.304583">
        <ele>1729.0</ele>
        <time>2015-08-16T12:26:51Z</time>
      </trkpt>
      <trkpt lat="40.435967" lon="-5.304650">
        <ele>1729.0</ele>
        <time>2015-08-16T12:26:52Z</time>
      </trkpt>
      <trkpt lat="40.436017" lon="-5.304683">
        <ele>1729.0</ele>
        <time>2015-08-16T12:26:53Z</time>
      </trkpt>
      <trkpt lat="40.436100" lon="-5.304667">
        <ele>1728.0</ele>
        <time>2015-08-16T12:26:54Z</time>
      </trkpt>
      <trkpt lat="40.436200" lon="-5.304600">
        <ele>1726.0</ele>
        <time>2015-08-16T12:26:55Z</time>
      </trkpt>
      <trkpt lat="40.436250" lon="-5.304483">
        <ele>1726.0</ele>
        <time>2015-08-16T12:26:56Z</time>
      </trkpt>
      <trkpt lat="40.436283" lon="-5.304350">
        <ele>1727.0</ele>
        <time>2015-08-16T12:26:57Z</time>
      </trkpt>
      <trkpt lat="40.436267" lon="-5.304217">
        <ele>1728.0</ele>
        <time>2015-08-16T12:26:58Z</time>
      </trkpt>
      <trkpt lat="40.436217" lon="-5.304083">
        <ele>1729.0</ele>
        <time>2015-08-16T12:26:59Z</time>
      </trkpt>
      <trkpt lat="40.436133" lon="-5.303983">
        <ele>1730.0</ele>
        <time>2015-08-16T12:27:00Z</time>
      </trkpt>
      <trkpt lat="40.436033" lon="-5.303917">
        <ele>1731.0</ele>
        <time>2015-08-16T12:27:01Z</time>
      </trkpt>
      <trkpt lat="40.435933" lon="-5.303900">
        <ele>1732.0</ele>
        <time>2015-08-16T12:27:02Z</time>
      </trkpt>
      <trkpt lat="40.435817" lon="-5.303917">
        <ele>1733.0</ele>
        <time>2015-08-16T12:27:03Z</time>
      </trkpt>
      <trkpt lat="40.435717" lon="-5.303983">
        <ele>1735.0</ele>
        <time>2015-08-16T12:27:04Z</time>
      </trkpt>
      <trkpt lat="40.435633" lon="-5.304067">
        <ele>1737.0</ele>
        <time>2015-08-16T12:27:05Z</time>
      </trkpt>
      <trkpt lat="40.435567" lon="-5.304183">
        <ele>1737.0</ele>
        <time>2015-08-16T12:27:06Z</time>
      </trkpt>
      <trkpt lat="40.435550" lon="-5.304317">
        <ele>1738.0</ele>
        <time>2015-08-16T12:27:07Z</time>
      </trkpt>
      <trkpt lat="40.435550" lon="-5.304417">
        <ele>1738.0</ele>
        <time>2015-08-16T12:27:08Z</time>
      </trkpt>
      <trkpt lat="40.435600" lon="-5.304517">
        <ele>1738.0</ele>
        <time>2015-08-16T12:27:09Z</time>
      </trkpt>
      <trkpt lat="40.435667" lon="-5.304550">
        <ele>1738.0</ele>
        <time>2015-08-16T12:27:10Z</time>
      </trkpt>
      <trkpt lat="40.435750" lon="-5.304550">
        <ele>1737.0</ele>
        <time>2015-08-16T12:27:11Z</time>
      </trkpt>
      <trkpt lat="40.435850" lon="-5.304483">
        <ele>1736.0</ele>
        <time>2015-08-16T12:27:12Z</time>
      </trkpt>
      <trkpt lat="40.435933" lon="-5.304400">
        <ele>1736.0</ele>
        <time>2015-08-16T12:27:13Z</time>
      </trkpt>
      <trkpt lat="40.435983" lon="-5.304283">
        <ele>1737.0</ele>
        <time>2015-08-16T12:27:14Z</time>
      </trkpt>
      <trkpt lat="40.436017" lon="-5.304150">
        <ele>1739.0</ele>
        <time>2015-08-16T12:27:15Z</time>
      </trkpt>
      <trkpt lat="40.436017" lon="-5.304017">
        <ele>1740.0</ele>
        <time>2015-08-16T12:27:16Z</time>
      </trkpt>
      <trkpt lat="40.435983" lon="-5.303883">
        <ele>1742.0</ele>
        <time>2015-08-16T12:27:17Z</time>
      </trkpt>
      <trkpt lat="40.435933" lon="-5.303750">
        <ele>1744.0</ele>
        <time>2015-08-16T12:27:18Z</time>
      </trkpt>
      <trkpt lat="40.435867" lon="-5.303683">
        <ele>1746.0</ele>
        <time>2015-08-16T12:27:19Z</time>
      </trkpt>
      <trkpt lat="40.435767" lon="-5.303633">
        <ele>1747.0</ele>
        <time>2015-08-16T12:27:20Z</time>
      </trkpt>
      <trkpt lat="40.435667" lon="-5.303633">
        <ele>1747.0</ele>
        <time>2015-08-16T12:27:21Z</time>
      </trkpt>
      <trkpt lat="40.435550" lon="-5.303650">
        <ele>1748.0</ele>
        <time>2015-08-16T12:27:22Z</time>
      </trkpt>
      <trkpt lat="40.435450" lon="-5.303700">
        <ele>1750.0</ele>
        <time>2015-08-16T12:27:23Z</time>
      </trkpt>
      <trkpt lat="40.435367" lon="-5.303783">
        <ele>1751.0</ele>
        <time>2015-08-16T12:27:24Z</time>
      </trkpt>
      <trkpt lat="40.435317" lon="-5.303883">
        <ele>1752.0</ele>
        <time>2015-08-16T12:27:25Z</time>
      </trkpt>
      <trkpt lat="40.435317" lon="-5.303983">
        <ele>1751.0</ele>
        <time>2015-08-16T12:27:26Z</time>
      </trkpt>
      <trkpt lat="40.435367" lon="-5.304067">
        <ele>1749.0</ele>
        <time>2015-08-16T12:27:27Z</time>
      </trkpt>
      <trkpt lat="40.435433" lon="-5.304117">
        <ele>1747.0</ele>
        <time>2015-08-16T12:27:28Z</time>
      </trkpt>
      <trkpt lat="40.435533" lon="-5.304117">
        <ele>1747.0</ele>
        <time>2015-08-16T12:27:29Z</time>
      </trkpt>
      <trkpt lat="40.435633" lon="-5.304083">
        <ele>1747.0</ele>
        <time>2015-08-16T12:27:30Z</time>
      </trkpt>
      <trkpt lat="40.435717" lon="-5.304067">
        <ele>1750.0</ele>
        <time>2015-08-16T12:27:31Z</time>
      </trkpt>
      <trkpt lat="40.435800" lon="-5.304050">
        <ele>1752.0</ele>
        <time>2015-08-16T12:27:32Z</time>
      </trkpt>
      <trkpt lat="40.435867" lon="-5.304050">
        <ele>1754.0</ele>
        <time>2015-08-16T12:27:33Z</time>
      </trkpt>
      <trkpt lat="40.435933" lon="-5.304067">
        <ele>1754.0</ele>
        <time>2015-08-16T12:27:34Z</time>
      </trkpt>
      <trkpt lat="40.436017" lon="-5.304050">
        <ele>1754.0</ele>
        <time>2015-08-16T12:27:35Z</time>
      </trkpt>
      <trkpt lat="40.436100" lon="-5.304000">
        <ele>1754.0</ele>
        <time>2015-08-16T12:27:36Z</time>
      </trkpt>
      <trkpt lat="40.436167" lon="-5.303900">
        <ele>1754.0</ele>
        <time>2015-08-16T12:27:37Z</time>
      </trkpt>
      <trkpt lat="40.436183" lon="-5.303750">
        <ele>1754.0</ele>
        <time>2015-08-16T12:27:38Z</time>
      </trkpt>
      <trkpt lat="40.436167" lon="-5.303600">
        <ele>1754.0</ele>
        <time>2015-08-16T12:27:39Z</time>
      </trkpt>
      <trkpt lat="40.436100" lon="-5.303467">
        <ele>1756.0</ele>
        <time>2015-08-16T12:27:40Z</time>
      </trkpt>
      <trkpt lat="40.436033" lon="-5.303367">
        <ele>1757.0</ele>
        <time>2015-08-16T12:27:41Z</time>
      </trkpt>
      <trkpt lat="40.435983" lon="-5.303300">
        <ele>1758.0</ele>
        <time>2015-08-16T12:27:42Z</time>
      </trkpt>
      <trkpt lat="40.435917" lon="-5.303250">
        <ele>1758.0</ele>
        <time>2015-08-16T12:27:43Z</time>
      </trkpt>
      <trkpt lat="40.435833" lon="-5.303200">
        <ele>1757.0</ele>
        <time>2015-08-16T12:27:44Z</time>
      </trkpt>
      <trkpt lat="40.435750" lon="-5.303150">
        <ele>1757.0</ele>
        <time>2015-08-16T12:27:45Z</time>
      </trkpt>
      <trkpt lat="40.435633" lon="-5.303133">
        <ele>1757.0</ele>
        <time>2015-08-16T12:27:46Z</time>
      </trkpt>
      <trkpt lat="40.435533" lon="-5.303167">
        <ele>1758.0</ele>
        <time>2015-08-16T12:27:47Z</time>
      </trkpt>
      <trkpt lat="40.435433" lon="-5.303233">
        <ele>1760.0</ele>
        <time>2015-08-16T12:27:48Z</time>
      </trkpt>
      <trkpt lat="40.435383" lon="-5.303317">
        <ele>1762.0</ele>
        <time>2015-08-16T12:27:49Z</time>
      </trkpt>
      <trkpt lat="40.435350" lon="-5.303400">
        <ele>1763.0</ele>
        <time>2015-08-16T12:27:50Z</time>
      </trkpt>
      <trkpt lat="40.435350" lon="-5.303500">
        <ele>1764.0</ele>
        <time>2015-08-16T12:27:51Z</time>
      </trkpt>
      <trkpt lat="40.435383" lon="-5.303583">
        <ele>1764.0</ele>
        <time>2015-08-16T12:27:52Z</time>
      </trkpt>
      <trkpt lat="40.435433" lon="-5.303650">
        <ele>1763.0</ele>
        <time>2015-08-16T12:27:53Z</time>
      </trkpt>
      <trkpt lat="40.435517" lon="-5.303683">
        <ele>1763.0</ele>
        <time>2015-08-16T12:27:54Z</time>
      </trkpt>
      <trkpt lat="40.435617" lon="-5.303667">
        <ele>1763.0</ele>
        <time>2015-08-16T12:27:55Z</time>
      </trkpt>
      <trkpt lat="40.435700" lon="-5.303600">
        <ele>1763.0</ele>
        <time>2015-08-16T12:27:56Z</time>
      </trkpt>
      <trkpt lat="40.435767" lon="-5.303483">
        <ele>1765.0</ele>
        <time>2015-08-16T12:27:57Z</time>
      </trkpt>
      <trkpt lat="40.435800" lon="-5.303350">
        <ele>1767.0</ele>
        <time>2015-08-16T12:27:58Z</time>
      </trkpt>
      <trkpt lat="40.435800" lon="-5.303217">
        <ele>1769.0</ele>
        <time>2015-08-16T12:27:59Z</time>
      </trkpt>
      <trkpt lat="40.435783" lon="-5.303117">
        <ele>1770.0</ele>
        <time>2015-08-16T12:28:00Z</time>
      </trkpt>
      <trkpt lat="40.435750" lon="-5.303000">
        <ele>1770.0</ele>
        <time>2015-08-16T12:28:01Z</time>
      </trkpt>
      <trkpt lat="40.435700" lon="-5.302900">
        <ele>1770.0</ele>
        <time>2015-08-16T12:28:02Z</time>
      </trkpt>
      <trkpt lat="40.435650" lon="-5.302800">
        <ele>1769.0</ele>
        <time>2015-08-16T12:28:03Z</time>
      </trkpt>
      <trkpt lat="40.435567" lon="-5.302733">
        <ele>1767.0</ele>
        <time>2015-08-16T12:28:04Z</time>
      </trkpt>
      <trkpt lat="40.435467" lon="-5.302683">
        <ele>1766.0</ele>
        <time>2015-08-16T12:28:05Z</time>
      </trkpt>
      <trkpt lat="40.435367" lon="-5.302683">
        <ele>1764.0</ele>
        <time>2015-08-16T12:28:06Z</time>
      </trkpt>
      <trkpt lat="40.435250" lon="-5.302717">
        <ele>1762.0</ele>
        <time>2015-08-16T12:28:07Z</time>
      </trkpt>
      <trkpt lat="40.435150" lon="-5.302800">
        <ele>1761.0</ele>
        <time>2015-08-16T12:28:08Z</time>
      </trkpt>
      <trkpt lat="40.435067" lon="-5.302900">
        <ele>1761.0</ele>
        <time>2015-08-16T12:28:09Z</time>
      </trkpt>
      <trkpt lat="40.435017" lon="-5.303017">
        <ele>1761.0</ele>
        <time>2015-08-16T12:28:10Z</time>
      </trkpt>
      <trkpt lat="40.434983" lon="-5.303133">
        <ele>1762.0</ele>
        <time>2015-08-16T12:28:11Z</time>
      </trkpt>
      <trkpt lat="40.434967" lon="-5.303233">
        <ele>1763.0</ele>
        <time>2015-08-16T12:28:12Z</time>
      </trkpt>
      <trkpt lat="40.434950" lon="-5.303350">
        <ele>1764.0</ele>
        <time>2015-08-16T12:28:13Z</time>
      </trkpt>
      <trkpt lat="40.434950" lon="-5.303450">
        <ele>1765.0</ele>
        <time>2015-08-16T12:28:14Z</time>
      </trkpt>
      <trkpt lat="40.434967" lon="-5.303550">
        <ele>1765.0</ele>
        <time>2015-08-16T12:28:15Z</time>
      </trkpt>
      <trkpt lat="40.435000" lon="-5.303617">
        <ele>1766.0</ele>
        <time>2015-08-16T12:28:16Z</time>
      </trkpt>
      <trkpt lat="40.435067" lon="-5.303650">
        <ele>1766.0</ele>
        <time>2015-08-16T12:28:17Z</time>
      </trkpt>
      <trkpt lat="40.435167" lon="-5.303650">
        <ele>1765.0</ele>
        <time>2015-08-16T12:28:18Z</time>
      </trkpt>
      <trkpt lat="40.435250" lon="-5.303617">
        <ele>1765.0</ele>
        <time>2015-08-16T12:28:19Z</time>
      </trkpt>
      <trkpt lat="40.435317" lon="-5.303533">
        <ele>1766.0</ele>
        <time>2015-08-16T12:28:20Z</time>
      </trkpt>
      <trkpt lat="40.435367" lon="-5.303417">
        <ele>1768.0</ele>
        <time>2015-08-16T12:28:21Z</time>
      </trkpt>
      <trkpt lat="40.435367" lon="-5.303283">
        <ele>1768.0</ele>
        <time>2015-08-16T12:28:22Z</time>
      </trkpt>
      <trkpt lat="40.435333" lon="-5.303133">
        <ele>1768.0</ele>
        <time>2015-08-16T12:28:23Z</time>
      </trkpt>
      <trkpt lat="40.435283" lon="-5.302983">
        <ele>1768.0</ele>
        <time>2015-08-16T12:28:24Z</time>
      </trkpt>
      <trkpt lat="40.435183" lon="-5.302867">
        <ele>1770.0</ele>
        <time>2015-08-16T12:28:25Z</time>
      </trkpt>
      <trkpt lat="40.435100" lon="-5.302783">
        <ele>1772.0</ele>
        <time>2015-08-16T12:28:26Z</time>
      </trkpt>
      <trkpt lat="40.435000" lon="-5.302717">
        <ele>1775.0</ele>
        <time>2015-08-16T12:28:27Z</time>
      </trkpt>
      <trkpt lat="40.434900" lon="-5.302683">
        <ele>1776.0</ele>
        <time>2015-08-16T12:28:28Z</time>
      </trkpt>
      <trkpt lat="40.434800" lon="-5.302683">
        <ele>1776.0</ele>
        <time>2015-08-16T12:28:29Z</time>
      </trkpt>
      <trkpt lat="40.434717" lon="-5.302717">
        <ele>1775.0</ele>
        <time>2015-08-16T12:28:30Z</time>
      </trkpt>
      <trkpt lat="40.434633" lon="-5.302783">
        <ele>1774.0</ele>
        <time>2015-08-16T12:28:31Z</time>
      </trkpt>
      <trkpt lat="40.434567" lon="-5.302900">
        <ele>1773.0</ele>
        <time>2015-08-16T12:28:32Z</time>
      </trkpt>
      <trkpt lat="40.434550" lon="-5.303017">
        <ele>1773.0</ele>
        <time>2015-08-16T12:28:33Z</time>
      </trkpt>
      <trkpt lat="40.434550" lon="-5.303117">
        <ele>1773.0</ele>
        <time>2015-08-16T12:28:34Z</time>
      </trkpt>
      <trkpt lat="40.434583" lon="-5.303217">
        <ele>1773.0</ele>
        <time>2015-08-16T12:28:35Z</time>
      </trkpt>
      <trkpt lat="40.434633" lon="-5.303283">
        <ele>1773.0</ele>
        <time>2015-08-16T12:28:36Z</time>
      </trkpt>
      <trkpt lat="40.434700" lon="-5.303333">
        <ele>1773.0</ele>
        <time>2015-08-16T12:28:37Z</time>
      </trkpt>
      <trkpt lat="40.434783" lon="-5.303350">
        <ele>1773.0</ele>
        <time>2015-08-16T12:28:38Z</time>
      </trkpt>
      <trkpt lat="40.434867" lon="-5.303350">
        <ele>1774.0</ele>
        <time>2015-08-16T12:28:39Z</time>
      </trkpt>
      <trkpt lat="40.434950" lon="-5.303333">
        <ele>1774.0</ele>
        <time>2015-08-16T12:28:40Z</time>
      </trkpt>
      <trkpt lat="40.435033" lon="-5.303283">
        <ele>1774.0</ele>
        <time>2015-08-16T12:28:41Z</time>
      </trkpt>
      <trkpt lat="40.435100" lon="-5.303217">
        <ele>1775.0</ele>
        <time>2015-08-16T12:28:42Z</time>
      </trkpt>
      <trkpt lat="40.435183" lon="-5.303117">
        <ele>1776.0</ele>
        <time>2015-08-16T12:28:43Z</time>
      </trkpt>
      <trkpt lat="40.435267" lon="-5.303033">
        <ele>1778.0</ele>
        <time>2015-08-16T12:28:44Z</time>
      </trkpt>
      <trkpt lat="40.435333" lon="-5.302933">
        <ele>1780.0</ele>
        <time>2015-08-16T12:28:45Z</time>
      </trkpt>
      <trkpt lat="40.435383" lon="-5.302850">
        <ele>1782.0</ele>
        <time>2015-08-16T12:28:46Z</time>
      </trkpt>
      <trkpt lat="40.435450" lon="-5.302750">
        <ele>1783.0</ele>
        <time>2015-08-16T12:28:47Z</time>
      </trkpt>
      <trkpt lat="40.435483" lon="-5.302633">
        <ele>1785.0</ele>
        <time>2015-08-16T12:28:48Z</time>
      </trkpt>
      <trkpt lat="40.435500" lon="-5.302517">
        <ele>1786.0</ele>
        <time>2015-08-16T12:28:49Z</time>
      </trkpt>
      <trkpt lat="40.435483" lon="-5.302383">
        <ele>1786.0</ele>
        <time>2015-08-16T12:28:50Z</time>
      </trkpt>
      <trkpt lat="40.435417" lon="-5.302267">
        <ele>1786.0</ele>
        <time>2015-08-16T12:28:51Z</time>
      </trkpt>
      <trkpt lat="40.435333" lon="-5.302183">
        <ele>1786.0</ele>
        <time>2015-08-16T12:28:52Z</time>
      </trkpt>
      <trkpt lat="40.435233" lon="-5.302133">
        <ele>1786.0</ele>
        <time>2015-08-16T12:28:53Z</time>
      </trkpt>
      <trkpt lat="40.435117" lon="-5.302117">
        <ele>1787.0</ele>
        <time>2015-08-16T12:28:54Z</time>
      </trkpt>
      <trkpt lat="40.435017" lon="-5.302150">
        <ele>1787.0</ele>
        <time>2015-08-16T12:28:55Z</time>
      </trkpt>
      <trkpt lat="40.434917" lon="-5.302200">
        <ele>1788.0</ele>
        <time>2015-08-16T12:28:56Z</time>
      </trkpt>
      <trkpt lat="40.434850" lon="-5.302300">
        <ele>1788.0</ele>
        <time>2015-08-16T12:28:57Z</time>
      </trkpt>
      <trkpt lat="40.434800" lon="-5.302417">
        <ele>1789.0</ele>
        <time>2015-08-16T12:28:58Z</time>
      </trkpt>
      <trkpt lat="40.434800" lon="-5.302533">
        <ele>1790.0</ele>
        <time>2015-08-16T12:28:59Z</time>
      </trkpt>
      <trkpt lat="40.434800" lon="-5.302650">
        <ele>1792.0</ele>
        <time>2015-08-16T12:29:00Z</time>
      </trkpt>
      <trkpt lat="40.434850" lon="-5.302750">
        <ele>1794.0</ele>
        <time>2015-08-16T12:29:01Z</time>
      </trkpt>
      <trkpt lat="40.434917" lon="-5.302817">
        <ele>1796.0</ele>
        <time>2015-08-16T12:29:02Z</time>
      </trkpt>
      <trkpt lat="40.435000" lon="-5.302850">
        <ele>1797.0</ele>
        <time>2015-08-16T12:29:03Z</time>
      </trkpt>
      <trkpt lat="40.435083" lon="-5.302833">
        <ele>1798.0</ele>
        <time>2015-08-16T12:29:04Z</time>
      </trkpt>
      <trkpt lat="40.435183" lon="-5.302767">
        <ele>1798.0</ele>
        <time>2015-08-16T12:29:05Z</time>
      </trkpt>
      <trkpt lat="40.435267" lon="-5.302650">
        <ele>1798.0</ele>
        <time>2015-08-16T12:29:06Z</time>
      </trkpt>
      <trkpt lat="40.435317" lon="-5.302500">
        <ele>1800.0</ele>
        <time>2015-08-16T12:29:07Z</time>
      </trkpt>
      <trkpt lat="40.435317" lon="-5.302350">
        <ele>1802.0</ele>
        <time>2015-08-16T12:29:08Z</time>
      </trkpt>
      <trkpt lat="40.435267" lon="-5.302200">
        <ele>1804.0</ele>
        <time>2015-08-16T12:29:09Z</time>
      </trkpt>
      <trkpt lat="40.435183" lon="-5.302083">
        <ele>1805.0</ele>
        <time>2015-08-16T12:29:10Z</time>
      </trkpt>
      <trkpt lat="40.435100" lon="-5.302000">
        <ele>1806.0</ele>
        <time>2015-08-16T12:29:11Z</time>
      </trkpt>
      <trkpt lat="40.434983" lon="-5.301950">
        <ele>1808.0</ele>
        <time>2015-08-16T12:29:12Z</time>
      </trkpt>
      <trkpt lat="40.434883" lon="-5.301967">
        <ele>1809.0</ele>
        <time>2015-08-16T12:29:13Z</time>
      </trkpt>
      <trkpt lat="40.434783" lon="-5.302017">
        <ele>1809.0</ele>
        <time>2015-08-16T12:29:14Z</time>
      </trkpt>
      <trkpt lat="40.434700" lon="-5.302117">
        <ele>1808.0</ele>
        <time>2015-08-16T12:29:15Z</time>
      </trkpt>
      <trkpt lat="40.434650" lon="-5.302250">
        <ele>1809.0</ele>
        <time>2015-08-16T12:29:16Z</time>
      </trkpt>
      <trkpt lat="40.434633" lon="-5.302383">
        <ele>1811.0</ele>
        <time>2015-08-16T12:29:17Z</time>
      </trkpt>
      <trkpt lat="40.434633" lon="-5.302517">
        <ele>1815.0</ele>
        <time>2015-08-16T12:29:18Z</time>
      </trkpt>
      <trkpt lat="40.434650" lon="-5.302617">
        <ele>1819.0</ele>
        <time>2015-08-16T12:29:19Z</time>
      </trkpt>
      <trkpt lat="40.434650" lon="-5.302683">
        <ele>1821.0</ele>
        <time>2015-08-16T12:29:20Z</time>
      </trkpt>
      <trkpt lat="40.434667" lon="-5.302750">
        <ele>1823.0</ele>
        <time>2015-08-16T12:29:21Z</time>
      </trkpt>
      <trkpt lat="40.434683" lon="-5.302800">
        <ele>1822.0</ele>
        <time>2015-08-16T12:29:22Z</time>
      </trkpt>
      <trkpt lat="40.434733" lon="-5.302833">
        <ele>1821.0</ele>
        <time>2015-08-16T12:29:23Z</time>
      </trkpt>
      <trkpt lat="40.434817" lon="-5.302833">
        <ele>1819.0</ele>
        <time>2015-08-16T12:29:24Z</time>
      </trkpt>
      <trkpt lat="40.434917" lon="-5.302783">
        <ele>1818.0</ele>
        <time>2015-08-16T12:29:25Z</time>
      </trkpt>
      <trkpt lat="40.434983" lon="-5.302667">
        <ele>1818.0</ele>
        <time>2015-08-16T12:29:26Z</time>
      </trkpt>
      <trkpt lat="40.435017" lon="-5.302500">
        <ele>1818.0</ele>
        <time>2015-08-16T12:29:27Z</time>
      </trkpt>
      <trkpt lat="40.435017" lon="-5.302333">
        <ele>1819.0</ele>
        <time>2015-08-16T12:29:28Z</time>
      </trkpt>
      <trkpt lat="40.434983" lon="-5.302183">
        <ele>1819.0</ele>
        <time>2015-08-16T12:29:29Z</time>
      </trkpt>
      <trkpt lat="40.434900" lon="-5.302050">
        <ele>1820.0</ele>
        <time>2015-08-16T12:29:30Z</time>
      </trkpt>
      <trkpt lat="40.434817" lon="-5.301933">
        <ele>1822.0</ele>
        <time>2015-08-16T12:29:31Z</time>
      </trkpt>
      <trkpt lat="40.434733" lon="-5.301833">
        <ele>1825.0</ele>
        <time>2015-08-16T12:29:32Z</time>
      </trkpt>
      <trkpt lat="40.434650" lon="-5.301750">
        <ele>1827.0</ele>
        <time>2015-08-16T12:29:33Z</time>
      </trkpt>
      <trkpt lat="40.434567" lon="-5.301700">
        <ele>1829.0</ele>
        <time>2015-08-16T12:29:34Z</time>
      </trkpt>
      <trkpt lat="40.434467" lon="-5.301700">
        <ele>1829.0</ele>
        <time>2015-08-16T12:29:35Z</time>
      </trkpt>
      <trkpt lat="40.434350" lon="-5.301733">
        <ele>1828.0</ele>
        <time>2015-08-16T12:29:36Z</time>
      </trkpt>
      <trkpt lat="40.434267" lon="-5.301817">
        <ele>1827.0</ele>
        <time>2015-08-16T12:29:37Z</time>
      </trkpt>
      <trkpt lat="40.434183" lon="-5.301933">
        <ele>1829.0</ele>
        <time>2015-08-16T12:29:38Z</time>
      </trkpt>
      <trkpt lat="40.434133" lon="-5.302050">
        <ele>1832.0</ele>
        <time>2015-08-16T12:29:39Z</time>
      </trkpt>
      <trkpt lat="40.434083" lon="-5.302167">
        <ele>1835.0</ele>
        <time>2015-08-16T12:29:40Z</time>
      </trkpt>
      <trkpt lat="40.434067" lon="-5.302250">
        <ele>1837.0</ele>
        <time>2015-08-16T12:29:41Z</time>
      </trkpt>
      <trkpt lat="40.434083" lon="-5.302300">
        <ele>1837.0</ele>
        <time>2015-08-16T12:29:42Z</time>
      </trkpt>
      <trkpt lat="40.434117" lon="-5.302350">
        <ele>1835.0</ele>
        <time>2015-08-16T12:29:43Z</time>
      </trkpt>
      <trkpt lat="40.434200" lon="-5.302367">
        <ele>1833.0</ele>
        <time>2015-08-16T12:29:44Z</time>
      </trkpt>
      <trkpt lat="40.434300" lon="-5.302350">
        <ele>1832.0</ele>
        <time>2015-08-16T12:29:45Z</time>
      </trkpt>
      <trkpt lat="40.434383" lon="-5.302267">
        <ele>1831.0</ele>
        <time>2015-08-16T12:29:46Z</time>
      </trkpt>
      <trkpt lat="40.434433" lon="-5.302150">
        <ele>1830.0</ele>
        <time>2015-08-16T12:29:47Z</time>
      </trkpt>
      <trkpt lat="40.434450" lon="-5.302000">
        <ele>1829.0</ele>
        <time>2015-08-16T12:29:48Z</time>
      </trkpt>
      <trkpt lat="40.434450" lon="-5.301850">
        <ele>1829.0</ele>
        <time>2015-08-16T12:29:49Z</time>
      </trkpt>
      <trkpt lat="40.434400" lon="-5.301683">
        <ele>1829.0</ele>
        <time>2015-08-16T12:29:50Z</time>
      </trkpt>
      <trkpt lat="40.434350" lon="-5.301533">
        <ele>1832.0</ele>
        <time>2015-08-16T12:29:51Z</time>
      </trkpt>
      <trkpt lat="40.434283" lon="-5.301417">
        <ele>1835.0</ele>
        <time>2015-08-16T12:29:52Z</time>
      </trkpt>
      <trkpt lat="40.434217" lon="-5.301300">
        <ele>1837.0</ele>
        <time>2015-08-16T12:29:53Z</time>
      </trkpt>
      <trkpt lat="40.434150" lon="-5.301200">
        <ele>1839.0</ele>
        <time>2015-08-16T12:29:54Z</time>
      </trkpt>
      <trkpt lat="40.434083" lon="-5.301117">
        <ele>1841.0</ele>
        <time>2015-08-16T12:29:55Z</time>
      </trkpt>
      <trkpt lat="40.434000" lon="-5.301033">
        <ele>1841.0</ele>
        <time>2015-08-16T12:29:56Z</time>
      </trkpt>
      <trkpt lat="40.433883" lon="-5.300967">
        <ele>1841.0</ele>
        <time>2015-08-16T12:29:57Z</time>
      </trkpt>
      <trkpt lat="40.433767" lon="-5.300933">
        <ele>1841.0</ele>
        <time>2015-08-16T12:29:58Z</time>
      </trkpt>
      <trkpt lat="40.433650" lon="-5.300950">
        <ele>1842.0</ele>
        <time>2015-08-16T12:29:59Z</time>
      </trkpt>
      <trkpt lat="40.433550" lon="-5.301017">
        <ele>1842.0</ele>
        <time>2015-08-16T12:30:00Z</time>
      </trkpt>
      <trkpt lat="40.433483" lon="-5.301117">
        <ele>1842.0</ele>
        <time>2015-08-16T12:30:01Z</time>
      </trkpt>
      <trkpt lat="40.433483" lon="-5.301233">
        <ele>1841.0</ele>
        <time>2015-08-16T12:30:02Z</time>
      </trkpt>
      <trkpt lat="40.433500" lon="-5.301333">
        <ele>1841.0</ele>
        <time>2015-08-16T12:30:03Z</time>
      </trkpt>
      <trkpt lat="40.433567" lon="-5.301433">
        <ele>1842.0</ele>
        <time>2015-08-16T12:30:04Z</time>
      </trkpt>
      <trkpt lat="40.433633" lon="-5.301483">
        <ele>1845.0</ele>
        <time>2015-08-16T12:30:05Z</time>
      </trkpt>
      <trkpt lat="40.433700" lon="-5.301500">
        <ele>1847.0</ele>
        <time>2015-08-16T12:30:06Z</time>
      </trkpt>
      <trkpt lat="40.433750" lon="-5.301517">
        <ele>1848.0</ele>
        <time>2015-08-16T12:30:07Z</time>
      </trkpt>
      <trkpt lat="40.433800" lon="-5.301517">
        <ele>1848.0</ele>
        <time>2015-08-16T12:30:08Z</time>
      </trkpt>
      <trkpt lat="40.433867" lon="-5.301500">
        <ele>1847.0</ele>
        <time>2015-08-16T12:30:09Z</time>
      </trkpt>
      <trkpt lat="40.433933" lon="-5.301433">
        <ele>1845.0</ele>
        <time>2015-08-16T12:30:10Z</time>
      </trkpt>
      <trkpt lat="40.434000" lon="-5.301333">
        <ele>1843.0</ele>
        <time>2015-08-16T12:30:11Z</time>
      </trkpt>
      <trkpt lat="40.434067" lon="-5.301200">
        <ele>1844.0</ele>
        <time>2015-08-16T12:30:12Z</time>
      </trkpt>
      <trkpt lat="40.434100" lon="-5.301050">
        <ele>1846.0</ele>
        <time>2015-08-16T12:30:13Z</time>
      </trkpt>
      <trkpt lat="40.434150" lon="-5.300933">
        <ele>1850.0</ele>
        <time>2015-08-16T12:30:14Z</time>
      </trkpt>
      <trkpt lat="40.434200" lon="-5.300867">
        <ele>1854.0</ele>
        <time>2015-08-16T12:30:15Z</time>
      </trkpt>
      <trkpt lat="40.434250" lon="-5.300800">
        <ele>1855.0</ele>
        <time>2015-08-16T12:30:16Z</time>
      </trkpt>
      <trkpt lat="40.434300" lon="-5.300750">
        <ele>1855.0</ele>
        <time>2015-08-16T12:30:17Z</time>
      </trkpt>
      <trkpt lat="40.434367" lon="-5.300667">
        <ele>1855.0</ele>
        <time>2015-08-16T12:30:18Z</time>
      </trkpt>
      <trkpt lat="40.434417" lon="-5.300550">
        <ele>1854.0</ele>
        <time>2015-08-16T12:30:19Z</time>
      </trkpt>
      <trkpt lat="40.434433" lon="-5.300400">
        <ele>1854.0</ele>
        <time>2015-08-16T12:30:20Z</time>
      </trkpt>
      <trkpt lat="40.434383" lon="-5.300250">
        <ele>1854.0</ele>
        <time>2015-08-16T12:30:21Z</time>
      </trkpt>
      <trkpt lat="40.434283" lon="-5.300133">
        <ele>1853.0</ele>
        <time>2015-08-16T12:30:22Z</time>
      </trkpt>
      <trkpt lat="40.434133" lon="-5.300067">
        <ele>1854.0</ele>
        <time>2015-08-16T12:30:23Z</time>
      </trkpt>
      <trkpt lat="40.433983" lon="-5.300083">
        <ele>1857.0</ele>
        <time>2015-08-16T12:30:24Z</time>
      </trkpt>
      <trkpt lat="40.433867" lon="-5.300133">
        <ele>1862.0</ele>
        <time>2015-08-16T12:30:25Z</time>
      </trkpt>
      <trkpt lat="40.433783" lon="-5.300167">
        <ele>1868.0</ele>
        <time>2015-08-16T12:30:26Z</time>
      </trkpt>
      <trkpt lat="40.433700" lon="-5.300200">
        <ele>1871.0</ele>
        <time>2015-08-16T12:30:27Z</time>
      </trkpt>
      <trkpt lat="40.433633" lon="-5.300217">
        <ele>1872.0</ele>
        <time>2015-08-16T12:30:28Z</time>
      </trkpt>
      <trkpt lat="40.433550" lon="-5.300283">
        <ele>1871.0</ele>
        <time>2015-08-16T12:30:29Z</time>
      </trkpt>
      <trkpt lat="40.433483" lon="-5.300367">
        <ele>1869.0</ele>
        <time>2015-08-16T12:30:30Z</time>
      </trkpt>
      <trkpt lat="40.433467" lon="-5.300500">
        <ele>1867.0</ele>
        <time>2015-08-16T12:30:31Z</time>
      </trkpt>
      <trkpt lat="40.433483" lon="-5.300633">
        <ele>1866.0</ele>
        <time>2015-08-16T12:30:32Z</time>
      </trkpt>
      <trkpt lat="40.433550" lon="-5.300733">
        <ele>1866.0</ele>
        <time>2015-08-16T12:30:33Z</time>
      </trkpt>
      <trkpt lat="40.433633" lon="-5.300767">
        <ele>1867.0</ele>
        <time>2015-08-16T12:30:34Z</time>
      </trkpt>
      <trkpt lat="40.433717" lon="-5.300733">
        <ele>1869.0</ele>
        <time>2015-08-16T12:30:35Z</time>
      </trkpt>
      <trkpt lat="40.433783" lon="-5.300667">
        <ele>1870.0</ele>
        <time>2015-08-16T12:30:36Z</time>
      </trkpt>
      <trkpt lat="40.433850" lon="-5.300567">
        <ele>1872.0</ele>
        <time>2015-08-16T12:30:37Z</time>
      </trkpt>
      <trkpt lat="40.433900" lon="-5.300433">
        <ele>1874.0</ele>
        <time>2015-08-16T12:30:38Z</time>
      </trkpt>
      <trkpt lat="40.433917" lon="-5.300300">
        <ele>1876.0</ele>
        <time>2015-08-16T12:30:39Z</time>
      </trkpt>
      <trkpt lat="40.433950" lon="-5.300167">
        <ele>1878.0</ele>
        <time>2015-08-16T12:30:40Z</time>
      </trkpt>
      <trkpt lat="40.433967" lon="-5.300050">
        <ele>1880.0</ele>
        <time>2015-08-16T12:30:41Z</time>
      </trkpt>
      <trkpt lat="40.433983" lon="-5.299917">
        <ele>1882.0</ele>
        <time>2015-08-16T12:30:42Z</time>
      </trkpt>
      <trkpt lat="40.433983" lon="-5.299783">
        <ele>1882.0</ele>
        <time>2015-08-16T12:30:43Z</time>
      </trkpt>
      <trkpt lat="40.433967" lon="-5.299633">
        <ele>1882.0</ele>
        <time>2015-08-16T12:30:44Z</time>
      </trkpt>
      <trkpt lat="40.433900" lon="-5.299483">
        <ele>1882.0</ele>
        <time>2015-08-16T12:30:45Z</time>
      </trkpt>
      <trkpt lat="40.433800" lon="-5.299367">
        <ele>1885.0</ele>
        <time>2015-08-16T12:30:46Z</time>
      </trkpt>
      <trkpt lat="40.433700" lon="-5.299283">
        <ele>1888.0</ele>
        <time>2015-08-16T12:30:47Z</time>
      </trkpt>
      <trkpt lat="40.433583" lon="-5.299250">
        <ele>1891.0</ele>
        <time>2015-08-16T12:30:48Z</time>
      </trkpt>
      <trkpt lat="40.433483" lon="-5.299283">
        <ele>1894.0</ele>
        <time>2015-08-16T12:30:49Z</time>
      </trkpt>
      <trkpt lat="40.433417" lon="-5.299350">
        <ele>1894.0</ele>
        <time>2015-08-16T12:30:50Z</time>
      </trkpt>
      <trkpt lat="40.433350" lon="-5.299450">
        <ele>1894.0</ele>
        <time>2015-08-16T12:30:51Z</time>
      </trkpt>
      <trkpt lat="40.433333" lon="-5.299583">
        <ele>1894.0</ele>
        <time>2015-08-16T12:30:52Z</time>
      </trkpt>
      <trkpt lat="40.433333" lon="-5.299700">
        <ele>1895.0</ele>
        <time>2015-08-16T12:30:53Z</time>
      </trkpt>
      <trkpt lat="40.433400" lon="-5.299800">
        <ele>1895.0</ele>
        <time>2015-08-16T12:30:54Z</time>
      </trkpt>
      <trkpt lat="40.433483" lon="-5.299850">
        <ele>1895.0</ele>
        <time>2015-08-16T12:30:55Z</time>
      </trkpt>
      <trkpt lat="40.433583" lon="-5.299850">
        <ele>1898.0</ele>
        <time>2015-08-16T12:30:56Z</time>
      </trkpt>
      <trkpt lat="40.433667" lon="-5.299800">
        <ele>1903.0</ele>
        <time>2015-08-16T12:30:57Z</time>
      </trkpt>
      <trkpt lat="40.433717" lon="-5.299733">
        <ele>1906.0</ele>
        <time>2015-08-16T12:30:58Z</time>
      </trkpt>
      <trkpt lat="40.433750" lon="-5.299617">
        <ele>1907.0</ele>
        <time>2015-08-16T12:30:59Z</time>
      </trkpt>
      <trkpt lat="40.433750" lon="-5.299483">
        <ele>1907.0</ele>
        <time>2015-08-16T12:31:00Z</time>
      </trkpt>
      <trkpt lat="40.433750" lon="-5.299317">
        <ele>1906.0</ele>
        <time>2015-08-16T12:31:01Z</time>
      </trkpt>
      <trkpt lat="40.433700" lon="-5.299167">
        <ele>1906.0</ele>
        <time>2015-08-16T12:31:02Z</time>
      </trkpt>
      <trkpt lat="40.433617" lon="-5.299017">
        <ele>1907.0</ele>
        <time>2015-08-16T12:31:03Z</time>
      </trkpt>
      <trkpt lat="40.433500" lon="-5.298917">
        <ele>1909.0</ele>
        <time>2015-08-16T12:31:04Z</time>
      </trkpt>
      <trkpt lat="40.433367" lon="-5.298850">
        <ele>1913.0</ele>
        <time>2015-08-16T12:31:05Z</time>
      </trkpt>
      <trkpt lat="40.433267" lon="-5.298817">
        <ele>1917.0</ele>
        <time>2015-08-16T12:31:06Z</time>
      </trkpt>
      <trkpt lat="40.433167" lon="-5.298833">
        <ele>1922.0</ele>
        <time>2015-08-16T12:31:07Z</time>
      </trkpt>
      <trkpt lat="40.433083" lon="-5.298867">
        <ele>1925.0</ele>
        <time>2015-08-16T12:31:08Z</time>
      </trkpt>
      <trkpt lat="40.433000" lon="-5.298933">
        <ele>1926.0</ele>
        <time>2015-08-16T12:31:09Z</time>
      </trkpt>
      <trkpt lat="40.432933" lon="-5.299050">
        <ele>1927.0</ele>
        <time>2015-08-16T12:31:10Z</time>
      </trkpt>
      <trkpt lat="40.432900" lon="-5.299167">
        <ele>1927.0</ele>
        <time>2015-08-16T12:31:11Z</time>
      </trkpt>
      <trkpt lat="40.432917" lon="-5.299283">
        <ele>1927.0</ele>
        <time>2015-08-16T12:31:12Z</time>
      </trkpt>
      <trkpt lat="40.432967" lon="-5.299383">
        <ele>1927.0</ele>
        <time>2015-08-16T12:31:13Z</time>
      </trkpt>
      <trkpt lat="40.433050" lon="-5.299433">
        <ele>1928.0</ele>
        <time>2015-08-16T12:31:14Z</time>
      </trkpt>
      <trkpt lat="40.433133" lon="-5.299433">
        <ele>1930.0</ele>
        <time>2015-08-16T12:31:15Z</time>
      </trkpt>
      <trkpt lat="40.433217" lon="-5.299417">
        <ele>1933.0</ele>
        <time>2015-08-16T12:31:16Z</time>
      </trkpt>
      <trkpt lat="40.433283" lon="-5.299350">
        <ele>1936.0</ele>
        <time>2015-08-16T12:31:17Z</time>
      </trkpt>
      <trkpt lat="40.433333" lon="-5.299250">
        <ele>1937.0</ele>
        <time>2015-08-16T12:31:18Z</time>
      </trkpt>
      <trkpt lat="40.433350" lon="-5.299117">
        <ele>1938.0</ele>
        <time>2015-08-16T12:31:19Z</time>
      </trkpt>
      <trkpt lat="40.433350" lon="-5.298967">
        <ele>1938.0</ele>
        <time>2015-08-16T12:31:20Z</time>
      </trkpt>
      <trkpt lat="40.433317" lon="-5.298817">
        <ele>1938.0</ele>
        <time>2015-08-16T12:31:21Z</time>
      </trkpt>
      <trkpt lat="40.433267" lon="-5.298650">
        <ele>1939.0</ele>
        <time>2015-08-16T12:31:22Z</time>
      </trkpt>
      <trkpt lat="40.433167" lon="-5.298517">
        <ele>1939.0</ele>
        <time>2015-08-16T12:31:23Z</time>
      </trkpt>
      <trkpt lat="40.433050" lon="-5.298417">
        <ele>1941.0</ele>
        <time>2015-08-16T12:31:24Z</time>
      </trkpt>
      <trkpt lat="40.432933" lon="-5.298383">
        <ele>1943.0</ele>
        <time>2015-08-16T12:31:25Z</time>
      </trkpt>
      <trkpt lat="40.432817" lon="-5.298367">
        <ele>1947.0</ele>
        <time>2015-08-16T12:31:26Z</time>
      </trkpt>
      <trkpt lat="40.432717" lon="-5.298400">
        <ele>1951.0</ele>
        <time>2015-08-16T12:31:27Z</time>
      </trkpt>
      <trkpt lat="40.432617" lon="-5.298467">
        <ele>1954.0</ele>
        <time>2015-08-16T12:31:28Z</time>
      </trkpt>
      <trkpt lat="40.432550" lon="-5.298550">
        <ele>1957.0</ele>
        <time>2015-08-16T12:31:29Z</time>
      </trkpt>
      <trkpt lat="40.432517" lon="-5.298633">
        <ele>1959.0</ele>
        <time>2015-08-16T12:31:30Z</time>
      </trkpt>
      <trkpt lat="40.432483" lon="-5.298733">
        <ele>1959.0</ele>
        <time>2015-08-16T12:31:31Z</time>
      </trkpt>
      <trkpt lat="40.432483" lon="-5.298833">
        <ele>1959.0</ele>
        <time>2015-08-16T12:31:32Z</time>
      </trkpt>
      <trkpt lat="40.432517" lon="-5.298917">
        <ele>1958.0</ele>
        <time>2015-08-16T12:31:33Z</time>
      </trkpt>
      <trkpt lat="40.432583" lon="-5.298967">
        <ele>1959.0</ele>
        <time>2015-08-16T12:31:34Z</time>
      </trkpt>
      <trkpt lat="40.432667" lon="-5.298983">
        <ele>1960.0</ele>
        <time>2015-08-16T12:31:35Z</time>
      </trkpt>
      <trkpt lat="40.432750" lon="-5.298950">
        <ele>1962.0</ele>
        <time>2015-08-16T12:31:36Z</time>
      </trkpt>
      <trkpt lat="40.432817" lon="-5.298883">
        <ele>1964.0</ele>
        <time>2015-08-16T12:31:37Z</time>
      </trkpt>
      <trkpt lat="40.432867" lon="-5.298800">
        <ele>1966.0</ele>
        <time>2015-08-16T12:31:38Z</time>
      </trkpt>
      <trkpt lat="40.432883" lon="-5.298683">
        <ele>1967.0</ele>
        <time>2015-08-16T12:31:39Z</time>
      </trkpt>
      <trkpt lat="40.432900" lon="-5.298567">
        <ele>1967.0</ele>
        <time>2015-08-16T12:31:40Z</time>
      </trkpt>
      <trkpt lat="40.432900" lon="-5.298417">
        <ele>1967.0</ele>
        <time>2015-08-16T12:31:41Z</time>
      </trkpt>
      <trkpt lat="40.432867" lon="-5.298250">
        <ele>1967.0</ele>
        <time>2015-08-16T12:31:42Z</time>
      </trkpt>
      <trkpt lat="40.432800" lon="-5.298100">
        <ele>1967.0</ele>
        <time>2015-08-16T12:31:43Z</time>
      </trkpt>
      <trkpt lat="40.432700" lon="-5.297983">
        <ele>1967.0</ele>
        <time>2015-08-16T12:31:44Z</time>
      </trkpt>
      <trkpt lat="40.432567" lon="-5.297917">
        <ele>1967.0</ele>
        <time>2015-08-16T12:31:45Z</time>
      </trkpt>
      <trkpt lat="40.432433" lon="-5.297883">
        <ele>1968.0</ele>
        <time>2015-08-16T12:31:46Z</time>
      </trkpt>
      <trkpt lat="40.432317" lon="-5.297917">
        <ele>1971.0</ele>
        <time>2015-08-16T12:31:47Z</time>
      </trkpt>
      <trkpt lat="40.432200" lon="-5.297983">
        <ele>1975.0</ele>
        <time>2015-08-16T12:31:48Z</time>
      </trkpt>
      <trkpt lat="40.432133" lon="-5.298083">
        <ele>1978.0</ele>
        <time>2015-08-16T12:31:49Z</time>
      </trkpt>
      <trkpt lat="40.432083" lon="-5.298167">
        <ele>1980.0</ele>
        <time>2015-08-16T12:31:50Z</time>
      </trkpt>
      <trkpt lat="40.432067" lon="-5.298250">
        <ele>1981.0</ele>
        <time>2015-08-16T12:31:51Z</time>
      </trkpt>
      <trkpt lat="40.432067" lon="-5.298333">
        <ele>1981.0</ele>
        <time>2015-08-16T12:31:52Z</time>
      </trkpt>
      <trkpt lat="40.432067" lon="-5.298400">
        <ele>1980.0</ele>
        <time>2015-08-16T12:31:53Z</time>
      </trkpt>
      <trkpt lat="40.432100" lon="-5.298500">
        <ele>1978.0</ele>
        <time>2015-08-16T12:31:54Z</time>
      </trkpt>
      <trkpt lat="40.432150" lon="-5.298600">
        <ele>1977.0</ele>
        <time>2015-08-16T12:31:55Z</time>
      </trkpt>
      <trkpt lat="40.432200" lon="-5.298700">
        <ele>1978.0</ele>
        <time>2015-08-16T12:31:56Z</time>
      </trkpt>
      <trkpt lat="40.432283" lon="-5.298783">
        <ele>1980.0</ele>
        <time>2015-08-16T12:31:57Z</time>
      </trkpt>
      <trkpt lat="40.432350" lon="-5.298817">
        <ele>1983.0</ele>
        <time>2015-08-16T12:31:58Z</time>
      </trkpt>
      <trkpt lat="40.432417" lon="-5.298800">
        <ele>1986.0</ele>
        <time>2015-08-16T12:31:59Z</time>
      </trkpt>
      <trkpt lat="40.432467" lon="-5.298767">
        <ele>1988.0</ele>
        <time>2015-08-16T12:32:00Z</time>
      </trkpt>
      <trkpt lat="40.432517" lon="-5.298700">
        <ele>1988.0</ele>
        <time>2015-08-16T12:32:01Z</time>
      </trkpt>
      <trkpt lat="40.432567" lon="-5.298633">
        <ele>1989.0</ele>
        <time>2015-08-16T12:32:02Z</time>
      </trkpt>
      <trkpt lat="40.432633" lon="-5.298550">
        <ele>1989.0</ele>
        <time>2015-08-16T12:32:03Z</time>
      </trkpt>
      <trkpt lat="40.432683" lon="-5.298450">
        <ele>1989.0</ele>
        <time>2015-08-16T12:32:04Z</time>
      </trkpt>
      <trkpt lat="40.432750" lon="-5.298367">
        <ele>1991.0</ele>
        <time>2015-08-16T12:32:05Z</time>
      </trkpt>
      <trkpt lat="40.432817" lon="-5.298267">
        <ele>1993.0</ele>
        <time>2015-08-16T12:32:06Z</time>
      </trkpt>
      <trkpt lat="40.432883" lon="-5.298183">
        <ele>1996.0</ele>
        <time>2015-08-16T12:32:07Z</time>
      </trkpt>
      <trkpt lat="40.432967" lon="-5.298117">
        <ele>2000.0</ele>
        <time>2015-08-16T12:32:08Z</time>
      </trkpt>
      <trkpt lat="40.433033" lon="-5.298050">
        <ele>2003.0</ele>
        <time>2015-08-16T12:32:09Z</time>
      </trkpt>
      <trkpt lat="40.433083" lon="-5.298000">
        <ele>2005.0</ele>
        <time>2015-08-16T12:32:10Z</time>
      </trkpt>
      <trkpt lat="40.433150" lon="-5.297950">
        <ele>2007.0</ele>
        <time>2015-08-16T12:32:11Z</time>
      </trkpt>
      <trkpt lat="40.433200" lon="-5.297850">
        <ele>2007.0</ele>
        <time>2015-08-16T12:32:12Z</time>
      </trkpt>
      <trkpt lat="40.433217" lon="-5.297717">
        <ele>2006.0</ele>
        <time>2015-08-16T12:32:13Z</time>
      </trkpt>
      <trkpt lat="40.433217" lon="-5.297550">
        <ele>2007.0</ele>
        <time>2015-08-16T12:32:14Z</time>
      </trkpt>
      <trkpt lat="40.433167" lon="-5.297400">
        <ele>2009.0</ele>
        <time>2015-08-16T12:32:15Z</time>
      </trkpt>
      <trkpt lat="40.433083" lon="-5.297267">
        <ele>2012.0</ele>
        <time>2015-08-16T12:32:16Z</time>
      </trkpt>
      <trkpt lat="40.433000" lon="-5.297183">
        <ele>2014.0</ele>
        <time>2015-08-16T12:32:17Z</time>
      </trkpt>
      <trkpt lat="40.432900" lon="-5.297133">
        <ele>2017.0</ele>
        <time>2015-08-16T12:32:18Z</time>
      </trkpt>
      <trkpt lat="40.432783" lon="-5.297117">
        <ele>2018.0</ele>
        <time>2015-08-16T12:32:19Z</time>
      </trkpt>
      <trkpt lat="40.432683" lon="-5.297133">
        <ele>2020.0</ele>
        <time>2015-08-16T12:32:20Z</time>
      </trkpt>
      <trkpt lat="40.432567" lon="-5.297167">
        <ele>2021.0</ele>
        <time>2015-08-16T12:32:21Z</time>
      </trkpt>
      <trkpt lat="40.432483" lon="-5.297250">
        <ele>2023.0</ele>
        <time>2015-08-16T12:32:22Z</time>
      </trkpt>
      <trkpt lat="40.432433" lon="-5.297367">
        <ele>2025.0</ele>
        <time>2015-08-16T12:32:23Z</time>
      </trkpt>
      <trkpt lat="40.432400" lon="-5.297483">
        <ele>2028.0</ele>
        <time>2015-08-16T12:32:24Z</time>
      </trkpt>
      <trkpt lat="40.432417" lon="-5.297583">
        <ele>2030.0</ele>
        <time>2015-08-16T12:32:25Z</time>
      </trkpt>
      <trkpt lat="40.432467" lon="-5.297667">
        <ele>2032.0</ele>
        <time>2015-08-16T12:32:26Z</time>
      </trkpt>
      <trkpt lat="40.432550" lon="-5.297717">
        <ele>2033.0</ele>
        <time>2015-08-16T12:32:27Z</time>
      </trkpt>
      <trkpt lat="40.432633" lon="-5.297700">
        <ele>2035.0</ele>
        <time>2015-08-16T12:32:28Z</time>
      </trkpt>
      <trkpt lat="40.432717" lon="-5.297617">
        <ele>2037.0</ele>
        <time>2015-08-16T12:32:29Z</time>
      </trkpt>
      <trkpt lat="40.432767" lon="-5.297500">
        <ele>2039.0</ele>
        <time>2015-08-16T12:32:30Z</time>
      </trkpt>
      <trkpt lat="40.432767" lon="-5.297333">
        <ele>2041.0</ele>
        <time>2015-08-16T12:32:31Z</time>
      </trkpt>
      <trkpt lat="40.432733" lon="-5.297167">
        <ele>2042.0</ele>
        <time>2015-08-16T12:32:32Z</time>
      </trkpt>
      <trkpt lat="40.432650" lon="-5.297033">
        <ele>2044.0</ele>
        <time>2015-08-16T12:32:33Z</time>
      </trkpt>
      <trkpt lat="40.432550" lon="-5.296917">
        <ele>2045.0</ele>
        <time>2015-08-16T12:32:34Z</time>
      </trkpt>
      <trkpt lat="40.432433" lon="-5.296867">
        <ele>2047.0</ele>
        <time>2015-08-16T12:32:35Z</time>
      </trkpt>
      <trkpt lat="40.432300" lon="-5.296850">
        <ele>2048.0</ele>
        <time>2015-08-16T12:32:36Z</time>
      </trkpt>
      <trkpt lat="40.432167" lon="-5.296883">
        <ele>2050.0</ele>
        <time>2015-08-16T12:32:37Z</time>
      </trkpt>
      <trkpt lat="40.432083" lon="-5.296967">
        <ele>2052.0</ele>
        <time>2015-08-16T12:32:38Z</time>
      </trkpt>
      <trkpt lat="40.432017" lon="-5.297083">
        <ele>2054.0</ele>
        <time>2015-08-16T12:32:39Z</time>
      </trkpt>
      <trkpt lat="40.432017" lon="-5.297217">
        <ele>2055.0</ele>
        <time>2015-08-16T12:32:40Z</time>
      </trkpt>
      <trkpt lat="40.432050" lon="-5.297317">
        <ele>2057.0</ele>
        <time>2015-08-16T12:32:41Z</time>
      </trkpt>
      <trkpt lat="40.432117" lon="-5.297400">
        <ele>2060.0</ele>
        <time>2015-08-16T12:32:42Z</time>
      </trkpt>
      <trkpt lat="40.432200" lon="-5.297433">
        <ele>2062.0</ele>
        <time>2015-08-16T12:32:43Z</time>
      </trkpt>
      <trkpt lat="40.432300" lon="-5.297417">
        <ele>2063.0</ele>
        <time>2015-08-16T12:32:44Z</time>
      </trkpt>
      <trkpt lat="40.432400" lon="-5.297367">
        <ele>2064.0</ele>
        <time>2015-08-16T12:32:45Z</time>
      </trkpt>
      <trkpt lat="40.432483" lon="-5.297283">
        <ele>2066.0</ele>
        <time>2015-08-16T12:32:46Z</time>
      </trkpt>
      <trkpt lat="40.432550" lon="-5.297133">
        <ele>2068.0</ele>
        <time>2015-08-16T12:32:47Z</time>
      </trkpt>
      <trkpt lat="40.432583" lon="-5.296950">
        <ele>2070.0</ele>
        <time>2015-08-16T12:32:48Z</time>
      </trkpt>
      <trkpt lat="40.432600" lon="-5.296783">
        <ele>2074.0</ele>
        <time>2015-08-16T12:32:49Z</time>
      </trkpt>
      <trkpt lat="40.432617" lon="-5.296633">
        <ele>2079.0</ele>
        <time>2015-08-16T12:32:50Z</time>
      </trkpt>
      <trkpt lat="40.432633" lon="-5.296517">
        <ele>2082.0</ele>
        <time>2015-08-16T12:32:51Z</time>
      </trkpt>
      <trkpt lat="40.432667" lon="-5.296400">
        <ele>2085.0</ele>
        <time>2015-08-16T12:32:52Z</time>
      </trkpt>
      <trkpt lat="40.432667" lon="-5.296283">
        <ele>2086.0</ele>
        <time>2015-08-16T12:32:53Z</time>
      </trkpt>
      <trkpt lat="40.432650" lon="-5.296150">
        <ele>2086.0</ele>
        <time>2015-08-16T12:32:54Z</time>
      </trkpt>
      <trkpt lat="40.432583" lon="-5.296000">
        <ele>2083.0</ele>
        <time>2015-08-16T12:32:55Z</time>
      </trkpt>
      <trkpt lat="40.432467" lon="-5.295883">
        <ele>2081.0</ele>
        <time>2015-08-16T12:32:56Z</time>
      </trkpt>
      <trkpt lat="40.432333" lon="-5.295850">
        <ele>2081.0</ele>
        <time>2015-08-16T12:32:57Z</time>
      </trkpt>
      <trkpt lat="40.432217" lon="-5.295883">
        <ele>2081.0</ele>
        <time>2015-08-16T12:32:58Z</time>
      </trkpt>
      <trkpt lat="40.432117" lon="-5.295983">
        <ele>2082.0</ele>
        <time>2015-08-16T12:32:59Z</time>
      </trkpt>
      <trkpt lat="40.432050" lon="-5.296117">
        <ele>2083.0</ele>
        <time>2015-08-16T12:33:00Z</time>
      </trkpt>
      <trkpt lat="40.432033" lon="-5.296250">
        <ele>2086.0</ele>
        <time>2015-08-16T12:33:01Z</time>
      </trkpt>
      <trkpt lat="40.432017" lon="-5.296367">
        <ele>2091.0</ele>
        <time>2015-08-16T12:33:02Z</time>
      </trkpt>
      <trkpt lat="40.432017" lon="-5.296467">
        <ele>2095.0</ele>
        <time>2015-08-16T12:33:03Z</time>
      </trkpt>
      <trkpt lat="40.432017" lon="-5.296550">
        <ele>2098.0</ele>
        <time>2015-08-16T12:33:04Z</time>
      </trkpt>
      <trkpt lat="40.432017" lon="-5.296617">
        <ele>2101.0</ele>
        <time>2015-08-16T12:33:05Z</time>
      </trkpt>
      <trkpt lat="40.432067" lon="-5.296667">
        <ele>2102.0</ele>
        <time>2015-08-16T12:33:06Z</time>
      </trkpt>
      <trkpt lat="40.432150" lon="-5.296683">
        <ele>2102.0</ele>
        <time>2015-08-16T12:33:07Z</time>
      </trkpt>
      <trkpt lat="40.432233" lon="-5.296667">
        <ele>2103.0</ele>
        <time>2015-08-16T12:33:08Z</time>
      </trkpt>
      <trkpt lat="40.432333" lon="-5.296617">
        <ele>2105.0</ele>
        <time>2015-08-16T12:33:09Z</time>
      </trkpt>
      <trkpt lat="40.432417" lon="-5.296533">
        <ele>2108.0</ele>
        <time>2015-08-16T12:33:10Z</time>
      </trkpt>
      <trkpt lat="40.432483" lon="-5.296433">
        <ele>2111.0</ele>
        <time>2015-08-16T12:33:11Z</time>
      </trkpt>
      <trkpt lat="40.432533" lon="-5.296283">
        <ele>2113.0</ele>
        <time>2015-08-16T12:33:12Z</time>
      </trkpt>
      <trkpt lat="40.432550" lon="-5.296133">
        <ele>2115.0</ele>
        <time>2015-08-16T12:33:13Z</time>
      </trkpt>
      <trkpt lat="40.432533" lon="-5.295983">
        <ele>2117.0</ele>
        <time>2015-08-16T12:33:14Z</time>
      </trkpt>
      <trkpt lat="40.432483" lon="-5.295833">
        <ele>2119.0</ele>
        <time>2015-08-16T12:33:15Z</time>
      </trkpt>
      <trkpt lat="40.432417" lon="-5.295700">
        <ele>2120.0</ele>
        <time>2015-08-16T12:33:16Z</time>
      </trkpt>
      <trkpt lat="40.432317" lon="-5.295583">
        <ele>2121.0</ele>
        <time>2015-08-16T12:33:17Z</time>
      </trkpt>
      <trkpt lat="40.432183" lon="-5.295533">
        <ele>2121.0</ele>
        <time>2015-08-16T12:33:18Z</time>
      </trkpt>
      <trkpt lat="40.432050" lon="-5.295550">
        <ele>2120.0</ele>
        <time>2015-08-16T12:33:19Z</time>
      </trkpt>
      <trkpt lat="40.431950" lon="-5.295650">
        <ele>2119.0</ele>
        <time>2015-08-16T12:33:20Z</time>
      </trkpt>
      <trkpt lat="40.431900" lon="-5.295783">
        <ele>2119.0</ele>
        <time>2015-08-16T12:33:21Z</time>
      </trkpt>
      <trkpt lat="40.431867" lon="-5.295917">
        <ele>2122.0</ele>
        <time>2015-08-16T12:33:22Z</time>
      </trkpt>
      <trkpt lat="40.431850" lon="-5.296033">
        <ele>2127.0</ele>
        <time>2015-08-16T12:33:23Z</time>
      </trkpt>
      <trkpt lat="40.431833" lon="-5.296117">
        <ele>2131.0</ele>
        <time>2015-08-16T12:33:24Z</time>
      </trkpt>
      <trkpt lat="40.431817" lon="-5.296200">
        <ele>2134.0</ele>
        <time>2015-08-16T12:33:25Z</time>
      </trkpt>
      <trkpt lat="40.431833" lon="-5.296283">
        <ele>2136.0</ele>
        <time>2015-08-16T12:33:26Z</time>
      </trkpt>
      <trkpt lat="40.431883" lon="-5.296333">
        <ele>2136.0</ele>
        <time>2015-08-16T12:33:27Z</time>
      </trkpt>
      <trkpt lat="40.431950" lon="-5.296383">
        <ele>2136.0</ele>
        <time>2015-08-16T12:33:28Z</time>
      </trkpt>
      <trkpt lat="40.432067" lon="-5.296383">
        <ele>2137.0</ele>
        <time>2015-08-16T12:33:29Z</time>
      </trkpt>
      <trkpt lat="40.432167" lon="-5.296333">
        <ele>2138.0</ele>
        <time>2015-08-16T12:33:30Z</time>
      </trkpt>
      <trkpt lat="40.432250" lon="-5.296217">
        <ele>2140.0</ele>
        <time>2015-08-16T12:33:31Z</time>
      </trkpt>
      <trkpt lat="40.432283" lon="-5.296067">
        <ele>2142.0</ele>
        <time>2015-08-16T12:33:32Z</time>
      </trkpt>
      <trkpt lat="40.432300" lon="-5.295917">
        <ele>2144.0</ele>
        <time>2015-08-16T12:33:33Z</time>
      </trkpt>
      <trkpt lat="40.432267" lon="-5.295750">
        <ele>2145.0</ele>
        <time>2015-08-16T12:33:34Z</time>
      </trkpt>
      <trkpt lat="40.432217" lon="-5.295583">
        <ele>2146.0</ele>
        <time>2015-08-16T12:33:35Z</time>
      </trkpt>
      <trkpt lat="40.432133" lon="-5.295450">
        <ele>2148.0</ele>
        <time>2015-08-16T12:33:36Z</time>
      </trkpt>
      <trkpt lat="40.432033" lon="-5.295367">
        <ele>2150.0</ele>
        <time>2015-08-16T12:33:37Z</time>
      </trkpt>
      <trkpt lat="40.431933" lon="-5.295317">
        <ele>2151.0</ele>
        <time>2015-08-16T12:33:38Z</time>
      </trkpt>
      <trkpt lat="40.431817" lon="-5.295300">
        <ele>2151.0</ele>
        <time>2015-08-16T12:33:39Z</time>
      </trkpt>
      <trkpt lat="40.431700" lon="-5.295333">
        <ele>2152.0</ele>
        <time>2015-08-16T12:33:40Z</time>
      </trkpt>
      <trkpt lat="40.431600" lon="-5.295417">
        <ele>2153.0</ele>
        <time>2015-08-16T12:33:41Z</time>
      </trkpt>
      <trkpt lat="40.431533" lon="-5.295500">
        <ele>2154.0</ele>
        <time>2015-08-16T12:33:42Z</time>
      </trkpt>
      <trkpt lat="40.431483" lon="-5.295617">
        <ele>2156.0</ele>
        <time>2015-08-16T12:33:43Z</time>
      </trkpt>
      <trkpt lat="40.431467" lon="-5.295750">
        <ele>2157.0</ele>
        <time>2015-08-16T12:33:44Z</time>
      </trkpt>
      <trkpt lat="40.431467" lon="-5.295867">
        <ele>2157.0</ele>
        <time>2015-08-16T12:33:45Z</time>
      </trkpt>
      <trkpt lat="40.431517" lon="-5.296000">
        <ele>2159.0</ele>
        <time>2015-08-16T12:33:46Z</time>
      </trkpt>
      <trkpt lat="40.431600" lon="-5.296083">
        <ele>2160.0</ele>
        <time>2015-08-16T12:33:47Z</time>
      </trkpt>
      <trkpt lat="40.431683" lon="-5.296133">
        <ele>2162.0</ele>
        <time>2015-08-16T12:33:48Z</time>
      </trkpt>
      <trkpt lat="40.431783" lon="-5.296150">
        <ele>2165.0</ele>
        <time>2015-08-16T12:33:49Z</time>
      </trkpt>
      <trkpt lat="40.431883" lon="-5.296133">
        <ele>2168.0</ele>
        <time>2015-08-16T12:33:50Z</time>
      </trkpt>
      <trkpt lat="40.431983" lon="-5.296100">
        <ele>2171.0</ele>
        <time>2015-08-16T12:33:51Z</time>
      </trkpt>
      <trkpt lat="40.432067" lon="-5.296033">
        <ele>2174.0</ele>
        <time>2015-08-16T12:33:52Z</time>
      </trkpt>
      <trkpt lat="40.432150" lon="-5.295950">
        <ele>2176.0</ele>
        <time>2015-08-16T12:33:53Z</time>
      </trkpt>
      <trkpt lat="40.432217" lon="-5.295817">
        <ele>2178.0</ele>
        <time>2015-08-16T12:33:54Z</time>
      </trkpt>
      <trkpt lat="40.432233" lon="-5.295633">
        <ele>2179.0</ele>
        <time>2015-08-16T12:33:55Z</time>
      </trkpt>
      <trkpt lat="40.432217" lon="-5.295467">
        <ele>2181.0</ele>
        <time>2015-08-16T12:33:56Z</time>
      </trkpt>
      <trkpt lat="40.432167" lon="-5.295333">
        <ele>2183.0</ele>
        <time>2015-08-16T12:33:57Z</time>
      </trkpt>
      <trkpt lat="40.432083" lon="-5.295233">
        <ele>2185.0</ele>
        <time>2015-08-16T12:33:58Z</time>
      </trkpt>
      <trkpt lat="40.431983" lon="-5.295150">
        <ele>2186.0</ele>
        <time>2015-08-16T12:33:59Z</time>
      </trkpt>
      <trkpt lat="40.431883" lon="-5.295117">
        <ele>2187.0</ele>
        <time>2015-08-16T12:34:00Z</time>
      </trkpt>
      <trkpt lat="40.431767" lon="-5.295100">
        <ele>2187.0</ele>
        <time>2015-08-16T12:34:01Z</time>
      </trkpt>
      <trkpt lat="40.431667" lon="-5.295133">
        <ele>2187.0</ele>
        <time>2015-08-16T12:34:02Z</time>
      </trkpt>
      <trkpt lat="40.431567" lon="-5.295217">
        <ele>2188.0</ele>
        <time>2015-08-16T12:34:03Z</time>
      </trkpt>
      <trkpt lat="40.431500" lon="-5.295317">
        <ele>2190.0</ele>
        <time>2015-08-16T12:34:04Z</time>
      </trkpt>
      <trkpt lat="40.431450" lon="-5.295433">
        <ele>2193.0</ele>
        <time>2015-08-16T12:34:05Z</time>
      </trkpt>
      <trkpt lat="40.431450" lon="-5.295550">
        <ele>2196.0</ele>
        <time>2015-08-16T12:34:06Z</time>
      </trkpt>
      <trkpt lat="40.431450" lon="-5.295667">
        <ele>2199.0</ele>
        <time>2015-08-16T12:34:07Z</time>
      </trkpt>
      <trkpt lat="40.431500" lon="-5.295767">
        <ele>2201.0</ele>
        <time>2015-08-16T12:34:08Z</time>
      </trkpt>
      <trkpt lat="40.431567" lon="-5.295867">
        <ele>2203.0</ele>
        <time>2015-08-16T12:34:09Z</time>
      </trkpt>
      <trkpt lat="40.431667" lon="-5.295917">
        <ele>2205.0</ele>
        <time>2015-08-16T12:34:10Z</time>
      </trkpt>
      <trkpt lat="40.431783" lon="-5.295917">
        <ele>2207.0</ele>
        <time>2015-08-16T12:34:11Z</time>
      </trkpt>
      <trkpt lat="40.431900" lon="-5.295867">
        <ele>2209.0</ele>
        <time>2015-08-16T12:34:12Z</time>
      </trkpt>
      <trkpt lat="40.432000" lon="-5.295750">
        <ele>2211.0</ele>
        <time>2015-08-16T12:34:13Z</time>
      </trkpt>
      <trkpt lat="40.432067" lon="-5.295567">
        <ele>2212.0</ele>
        <time>2015-08-16T12:34:14Z</time>
      </trkpt>
      <trkpt lat="40.432050" lon="-5.295367">
        <ele>2213.0</ele>
        <time>2015-08-16T12:34:15Z</time>
      </trkpt>
      <trkpt lat="40.431967" lon="-5.295200">
        <ele>2215.0</ele>
        <time>2015-08-16T12:34:16Z</time>
      </trkpt>
      <trkpt lat="40.431817" lon="-5.295117">
        <ele>2218.0</ele>
        <time>2015-08-16T12:34:17Z</time>
      </trkpt>
      <trkpt lat="40.431700" lon="-5.295100">
        <ele>2221.0</ele>
        <time>2015-08-16T12:34:18Z</time>
      </trkpt>
      <trkpt lat="40.431583" lon="-5.295133">
        <ele>2226.0</ele>
        <time>2015-08-16T12:34:19Z</time>
      </trkpt>
      <trkpt lat="40.431500" lon="-5.295183">
        <ele>2231.0</ele>
        <time>2015-08-16T12:34:20Z</time>
      </trkpt>
      <trkpt lat="40.431433" lon="-5.295217">
        <ele>2234.0</ele>
        <time>2015-08-16T12:34:21Z</time>
      </trkpt>
      <trkpt lat="40.431383" lon="-5.295300">
        <ele>2235.0</ele>
        <time>2015-08-16T12:34:22Z</time>
      </trkpt>
      <trkpt lat="40.431350" lon="-5.295400">
        <ele>2236.0</ele>
        <time>2015-08-16T12:34:23Z</time>
      </trkpt>
      <trkpt lat="40.431350" lon="-5.295533">
        <ele>2236.0</ele>
        <time>2015-08-16T12:34:24Z</time>
      </trkpt>
      <trkpt lat="40.431400" lon="-5.295667">
        <ele>2238.0</ele>
        <time>2015-08-16T12:34:25Z</time>
      </trkpt>
      <trkpt lat="40.431467" lon="-5.295783">
        <ele>2241.0</ele>
        <time>2015-08-16T12:34:26Z</time>
      </trkpt>
      <trkpt lat="40.431567" lon="-5.295850">
        <ele>2245.0</ele>
        <time>2015-08-16T12:34:27Z</time>
      </trkpt>
      <trkpt lat="40.431667" lon="-5.295850">
        <ele>2249.0</ele>
        <time>2015-08-16T12:34:28Z</time>
      </trkpt>
      <trkpt lat="40.431767" lon="-5.295833">
        <ele>2252.0</ele>
        <time>2015-08-16T12:34:29Z</time>
      </trkpt>
      <trkpt lat="40.431850" lon="-5.295750">
        <ele>2254.0</ele>
        <time>2015-08-16T12:34:30Z</time>
      </trkpt>
      <trkpt lat="40.431933" lon="-5.295650">
        <ele>2255.0</ele>
        <time>2015-08-16T12:34:31Z</time>
      </trkpt>
      <trkpt lat="40.432000" lon="-5.295517">
        <ele>2255.0</ele>
        <time>2015-08-16T12:34:32Z</time>
      </trkpt>
      <trkpt lat="40.432067" lon="-5.295367">
        <ele>2255.0</ele>
        <time>2015-08-16T12:34:33Z</time>
      </trkpt>
      <trkpt lat="40.432067" lon="-5.295183">
        <ele>2257.0</ele>
        <time>2015-08-16T12:34:34Z</time>
      </trkpt>
      <trkpt lat="40.432017" lon="-5.295017">
        <ele>2258.0</ele>
        <time>2015-08-16T12:34:35Z</time>
      </trkpt>
      <trkpt lat="40.431917" lon="-5.294883">
        <ele>2258.0</ele>
        <time>2015-08-16T12:34:36Z</time>
      </trkpt>
      <trkpt lat="40.431783" lon="-5.294817">
        <ele>2258.0</ele>
        <time>2015-08-16T12:34:37Z</time>
      </trkpt>
      <trkpt lat="40.431650" lon="-5.294833">
        <ele>2259.0</ele>
        <time>2015-08-16T12:34:38Z</time>
      </trkpt>
      <trkpt lat="40.431550" lon="-5.294917">
        <ele>2262.0</ele>
        <time>2015-08-16T12:34:39Z</time>
      </trkpt>
      <trkpt lat="40.431483" lon="-5.295017">
        <ele>2266.0</ele>
        <time>2015-08-16T12:34:40Z</time>
      </trkpt>
      <trkpt lat="40.431433" lon="-5.295117">
        <ele>2271.0</ele>
        <time>2015-08-16T12:34:41Z</time>
      </trkpt>
      <trkpt lat="40.431383" lon="-5.295217">
        <ele>2276.0</ele>
        <time>2015-08-16T12:34:42Z</time>
      </trkpt>
      <trkpt lat="40.431333" lon="-5.295300">
        <ele>2279.0</ele>
        <time>2015-08-16T12:34:43Z</time>
      </trkpt>
      <trkpt lat="40.431317" lon="-5.295383">
        <ele>2282.0</ele>
        <time>2015-08-16T12:34:44Z</time>
      </trkpt>
      <trkpt lat="40.431317" lon="-5.295483">
        <ele>2284.0</ele>
        <time>2015-08-16T12:34:45Z</time>
      </trkpt>
      <trkpt lat="40.431367" lon="-5.295567">
        <ele>2283.0</ele>
        <time>2015-08-16T12:34:46Z</time>
      </trkpt>
      <trkpt lat="40.431450" lon="-5.295650">
        <ele>2282.0</ele>
        <time>2015-08-16T12:34:47Z</time>
      </trkpt>
      <trkpt lat="40.431567" lon="-5.295683">
        <ele>2282.0</ele>
        <time>2015-08-16T12:34:48Z</time>
      </trkpt>
      <trkpt lat="40.431700" lon="-5.295667">
        <ele>2283.0</ele>
        <time>2015-08-16T12:34:49Z</time>
      </trkpt>
      <trkpt lat="40.431833" lon="-5.295617">
        <ele>2286.0</ele>
        <time>2015-08-16T12:34:50Z</time>
      </trkpt>
      <trkpt lat="40.431950" lon="-5.295550">
        <ele>2291.0</ele>
        <time>2015-08-16T12:34:51Z</time>
      </trkpt>
      <trkpt lat="40.432033" lon="-5.295483">
        <ele>2295.0</ele>
        <time>2015-08-16T12:34:52Z</time>
      </trkpt>
      <trkpt lat="40.432117" lon="-5.295400">
        <ele>2298.0</ele>
        <time>2015-08-16T12:34:53Z</time>
      </trkpt>
      <trkpt lat="40.432167" lon="-5.295283">
        <ele>2299.0</ele>
        <time>2015-08-16T12:34:54Z</time>
      </trkpt>
      <trkpt lat="40.432183" lon="-5.295150">
        <ele>2299.0</ele>
        <time>2015-08-16T12:34:55Z</time>
      </trkpt>
      <trkpt lat="40.432200" lon="-5.295000">
        <ele>2298.0</ele>
        <time>2015-08-16T12:34:56Z</time>
      </trkpt>
      <trkpt lat="40.432150" lon="-5.294833">
        <ele>2297.0</ele>
        <time>2015-08-16T12:34:57Z</time>
      </trkpt>
      <trkpt lat="40.432067" lon="-5.294700">
        <ele>2297.0</ele>
        <time>2015-08-16T12:34:58Z</time>
      </trkpt>
      <trkpt lat="40.431950" lon="-5.294617">
        <ele>2298.0</ele>
        <time>2015-08-16T12:34:59Z</time>
      </trkpt>
      <trkpt lat="40.431833" lon="-5.294583">
        <ele>2299.0</ele>
        <time>2015-08-16T12:35:00Z</time>
      </trkpt>
      <trkpt lat="40.431717" lon="-5.294617">
        <ele>2302.0</ele>
        <time>2015-08-16T12:35:01Z</time>
      </trkpt>
      <trkpt lat="40.431617" lon="-5.294667">
        <ele>2304.0</ele>
        <time>2015-08-16T12:35:02Z</time>
      </trkpt>
      <trkpt lat="40.431550" lon="-5.294767">
        <ele>2306.0</ele>
        <time>2015-08-16T12:35:03Z</time>
      </trkpt>
      <trkpt lat="40.431517" lon="-5.294883">
        <ele>2309.0</ele>
        <time>2015-08-16T12:35:04Z</time>
      </trkpt>
      <trkpt lat="40.431517" lon="-5.295000">
        <ele>2312.0</ele>
        <time>2015-08-16T12:35:05Z</time>
      </trkpt>
      <trkpt lat="40.431567" lon="-5.295100">
        <ele>2315.0</ele>
        <time>2015-08-16T12:35:06Z</time>
      </trkpt>
      <trkpt lat="40.431650" lon="-5.295183">
        <ele>2317.0</ele>
        <time>2015-08-16T12:35:07Z</time>
      </trkpt>
      <trkpt lat="40.431750" lon="-5.295233">
        <ele>2319.0</ele>
        <time>2015-08-16T12:35:08Z</time>
      </trkpt>
      <trkpt lat="40.431867" lon="-5.295250">
        <ele>2322.0</ele>
        <time>2015-08-16T12:35:09Z</time>
      </trkpt>
      <trkpt lat="40.431967" lon="-5.295267">
        <ele>2325.0</ele>
        <time>2015-08-16T12:35:10Z</time>
      </trkpt>
      <trkpt lat="40.432083" lon="-5.295233">
        <ele>2328.0</ele>
        <time>2015-08-16T12:35:11Z</time>
      </trkpt>
      <trkpt lat="40.432183" lon="-5.295200">
        <ele>2329.0</ele>
        <time>2015-08-16T12:35:12Z</time>
      </trkpt>
      <trkpt lat="40.432283" lon="-5.295133">
        <ele>2330.0</ele>
        <time>2015-08-16T12:35:13Z</time>
      </trkpt>
      <trkpt lat="40.432367" lon="-5.295033">
        <ele>2331.0</ele>
        <time>2015-08-16T12:35:14Z</time>
      </trkpt>
      <trkpt lat="40.432433" lon="-5.294917">
        <ele>2332.0</ele>
        <time>2015-08-16T12:35:15Z</time>
      </trkpt>
      <trkpt lat="40.432467" lon="-5.294783">
        <ele>2333.0</ele>
        <time>2015-08-16T12:35:16Z</time>
      </trkpt>
      <trkpt lat="40.432467" lon="-5.294650">
        <ele>2332.0</ele>
        <time>2015-08-16T12:35:17Z</time>
      </trkpt>
      <trkpt lat="40.432433" lon="-5.294517">
        <ele>2331.0</ele>
        <time>2015-08-16T12:35:18Z</time>
      </trkpt>
      <trkpt lat="40.432383" lon="-5.294367">
        <ele>2330.0</ele>
        <time>2015-08-16T12:35:19Z</time>
      </trkpt>
      <trkpt lat="40.432317" lon="-5.294233">
        <ele>2329.0</ele>
        <time>2015-08-16T12:35:20Z</time>
      </trkpt>
      <trkpt lat="40.432217" lon="-5.294133">
        <ele>2329.0</ele>
        <time>2015-08-16T12:35:21Z</time>
      </trkpt>
      <trkpt lat="40.432100" lon="-5.294050">
        <ele>2330.0</ele>
        <time>2015-08-16T12:35:22Z</time>
      </trkpt>
      <trkpt lat="40.432000" lon="-5.294017">
        <ele>2332.0</ele>
        <time>2015-08-16T12:35:23Z</time>
      </trkpt>
      <trkpt lat="40.431900" lon="-5.293983">
        <ele>2333.0</ele>
        <time>2015-08-16T12:35:24Z</time>
      </trkpt>
      <trkpt lat="40.431817" lon="-5.293983">
        <ele>2332.0</ele>
        <time>2015-08-16T12:35:25Z</time>
      </trkpt>
      <trkpt lat="40.431717" lon="-5.294017">
        <ele>2330.0</ele>
        <time>2015-08-16T12:35:26Z</time>
      </trkpt>
      <trkpt lat="40.431650" lon="-5.294117">
        <ele>2328.0</ele>
        <time>2015-08-16T12:35:27Z</time>
      </trkpt>
      <trkpt lat="40.431600" lon="-5.294233">
        <ele>2327.0</ele>
        <time>2015-08-16T12:35:28Z</time>
      </trkpt>
      <trkpt lat="40.431583" lon="-5.294383">
        <ele>2326.0</ele>
        <time>2015-08-16T12:35:29Z</time>
      </trkpt>
      <trkpt lat="40.431600" lon="-5.294517">
        <ele>2328.0</ele>
        <time>2015-08-16T12:35:30Z</time>
      </trkpt>
      <trkpt lat="40.431633" lon="-5.294633">
        <ele>2331.0</ele>
        <time>2015-08-16T12:35:31Z</time>
      </trkpt>
      <trkpt lat="40.431683" lon="-5.294750">
        <ele>2333.0</ele>
        <time>2015-08-16T12:35:32Z</time>
      </trkpt>
      <trkpt lat="40.431733" lon="-5.294850">
        <ele>2334.0</ele>
        <time>2015-08-16T12:35:33Z</time>
      </trkpt>
      <trkpt lat="40.431767" lon="-5.294950">
        <ele>2335.0</ele>
        <time>2015-08-16T12:35:34Z</time>
      </trkpt>
      <trkpt lat="40.431833" lon="-5.295033">
        <ele>2336.0</ele>
        <time>2015-08-16T12:35:35Z</time>
      </trkpt>
      <trkpt lat="40.431900" lon="-5.295100">
        <ele>2336.0</ele>
        <time>2015-08-16T12:35:36Z</time>
      </trkpt>
      <trkpt lat="40.431983" lon="-5.295167">
        <ele>2336.0</ele>
        <time>2015-08-16T12:35:37Z</time>
      </trkpt>
      <trkpt lat="40.432083" lon="-5.295217">
        <ele>2337.0</ele>
        <time>2015-08-16T12:35:38Z</time>
      </trkpt>
      <trkpt lat="40.432183" lon="-5.295217">
        <ele>2338.0</ele>
        <time>2015-08-16T12:35:39Z</time>
      </trkpt>
      <trkpt lat="40.432283" lon="-5.295183">
        <ele>2338.0</ele>
        <time>2015-08-16T12:35:40Z</time>
      </trkpt>
      <trkpt lat="40.432367" lon="-5.295133">
        <ele>2339.0</ele>
        <time>2015-08-16T12:35:41Z</time>
      </trkpt>
      <trkpt lat="40.432433" lon="-5.295050">
        <ele>2339.0</ele>
        <time>2015-08-16T12:35:42Z</time>
      </trkpt>
      <trkpt lat="40.432483" lon="-5.294933">
        <ele>2338.0</ele>
        <time>2015-08-16T12:35:43Z</time>
      </trkpt>
      <trkpt lat="40.432517" lon="-5.294817">
        <ele>2338.0</ele>
        <time>2015-08-16T12:35:44Z</time>
      </trkpt>
      <trkpt lat="40.432517" lon="-5.294700">
        <ele>2337.0</ele>
        <time>2015-08-16T12:35:45Z</time>
      </trkpt>
      <trkpt lat="40.432500" lon="-5.294567">
        <ele>2335.0</ele>
        <time>2015-08-16T12:35:46Z</time>
      </trkpt>
      <trkpt lat="40.432450" lon="-5.294417">
        <ele>2333.0</ele>
        <time>2015-08-16T12:35:47Z</time>
      </trkpt>
      <trkpt lat="40.432367" lon="-5.294300">
        <ele>2331.0</ele>
        <time>2015-08-16T12:35:48Z</time>
      </trkpt>
      <trkpt lat="40.432267" lon="-5.294233">
        <ele>2330.0</ele>
        <time>2015-08-16T12:35:49Z</time>
      </trkpt>
      <trkpt lat="40.432167" lon="-5.294183">
        <ele>2331.0</ele>
        <time>2015-08-16T12:35:50Z</time>
      </trkpt>
      <trkpt lat="40.432067" lon="-5.294167">
        <ele>2332.0</ele>
        <time>2015-08-16T12:35:51Z</time>
      </trkpt>
      <trkpt lat="40.431983" lon="-5.294183">
        <ele>2333.0</ele>
        <time>2015-08-16T12:35:52Z</time>
      </trkpt>
      <trkpt lat="40.431917" lon="-5.294217">
        <ele>2335.0</ele>
        <time>2015-08-16T12:35:53Z</time>
      </trkpt>
      <trkpt lat="40.431850" lon="-5.294267">
        <ele>2337.0</ele>
        <time>2015-08-16T12:35:54Z</time>
      </trkpt>
      <trkpt lat="40.431800" lon="-5.294333">
        <ele>2337.0</ele>
        <time>2015-08-16T12:35:55Z</time>
      </trkpt>
      <trkpt lat="40.431767" lon="-5.294417">
        <ele>2337.0</ele>
        <time>2015-08-16T12:35:56Z</time>
      </trkpt>
      <trkpt lat="40.431733" lon="-5.294500">
        <ele>2337.0</ele>
        <time>2015-08-16T12:35:57Z</time>
      </trkpt>
      <trkpt lat="40.431700" lon="-5.294583">
        <ele>2336.0</ele>
        <time>2015-08-16T12:35:58Z</time>
      </trkpt>
      <trkpt lat="40.431683" lon="-5.294683">
        <ele>2335.0</ele>
        <time>2015-08-16T12:35:59Z</time>
      </trkpt>
      <trkpt lat="40.431683" lon="-5.294817">
        <ele>2334.0</ele>
        <time>2015-08-16T12:36:00Z</time>
      </trkpt>
      <trkpt lat="40.431700" lon="-5.294950">
        <ele>2333.0</ele>
        <time>2015-08-16T12:36:01Z</time>
      </trkpt>
      <trkpt lat="40.431750" lon="-5.295083">
        <ele>2333.0</ele>
        <time>2015-08-16T12:36:02Z</time>
      </trkpt>
      <trkpt lat="40.431800" lon="-5.295200">
        <ele>2334.0</ele>
        <time>2015-08-16T12:36:03Z</time>
      </trkpt>
      <trkpt lat="40.431883" lon="-5.295283">
        <ele>2335.0</ele>
        <time>2015-08-16T12:36:04Z</time>
      </trkpt>
      <trkpt lat="40.431983" lon="-5.295333">
        <ele>2334.0</ele>
        <time>2015-08-16T12:36:05Z</time>
      </trkpt>
      <trkpt lat="40.432083" lon="-5.295350">
        <ele>2334.0</ele>
        <time>2015-08-16T12:36:06Z</time>
      </trkpt>
      <trkpt lat="40.432167" lon="-5.295333">
        <ele>2333.0</ele>
        <time>2015-08-16T12:36:07Z</time>
      </trkpt>
      <trkpt lat="40.432267" lon="-5.295300">
        <ele>2333.0</ele>
        <time>2015-08-16T12:36:08Z</time>
      </trkpt>
      <trkpt lat="40.432350" lon="-5.295250">
        <ele>2333.0</ele>
        <time>2015-08-16T12:36:09Z</time>
      </trkpt>
      <trkpt lat="40.432450" lon="-5.295200">
        <ele>2334.0</ele>
        <time>2015-08-16T12:36:10Z</time>
      </trkpt>
      <trkpt lat="40.432517" lon="-5.295133">
        <ele>2336.0</ele>
        <time>2015-08-16T12:36:11Z</time>
      </trkpt>
      <trkpt lat="40.432583" lon="-5.295083">
        <ele>2337.0</ele>
        <time>2015-08-16T12:36:12Z</time>
      </trkpt>
      <trkpt lat="40.432667" lon="-5.295017">
        <ele>2338.0</ele>
        <time>2015-08-16T12:36:13Z</time>
      </trkpt>
      <trkpt lat="40.432733" lon="-5.294933">
        <ele>2338.0</ele>
        <time>2015-08-16T12:36:14Z</time>
      </trkpt>
      <trkpt lat="40.432800" lon="-5.294867">
        <ele>2338.0</ele>
        <time>2015-08-16T12:36:15Z</time>
      </trkpt>
      <trkpt lat="40.432867" lon="-5.294783">
        <ele>2338.0</ele>
        <time>2015-08-16T12:36:16Z</time>
      </trkpt>
      <trkpt lat="40.432950" lon="-5.294683">
        <ele>2338.0</ele>
        <time>2015-08-16T12:36:17Z</time>
      </trkpt>
      <trkpt lat="40.433017" lon="-5.294600">
        <ele>2338.0</ele>
        <time>2015-08-16T12:36:18Z</time>
      </trkpt>
      <trkpt lat="40.433067" lon="-5.294500">
        <ele>2338.0</ele>
        <time>2015-08-16T12:36:19Z</time>
      </trkpt>
      <trkpt lat="40.433133" lon="-5.294383">
        <ele>2338.0</ele>
        <time>2015-08-16T12:36:20Z</time>
      </trkpt>
      <trkpt lat="40.433167" lon="-5.294250">
        <ele>2338.0</ele>
        <time>2015-08-16T12:36:21Z</time>
      </trkpt>
      <trkpt lat="40.433200" lon="-5.294133">
        <ele>2338.0</ele>
        <time>2015-08-16T12:36:22Z</time>
      </trkpt>
      <trkpt lat="40.433217" lon="-5.294000">
        <ele>2337.0</ele>
        <time>2015-08-16T12:36:23Z</time>
      </trkpt>
      <trkpt lat="40.433233" lon="-5.293883">
        <ele>2336.0</ele>
        <time>2015-08-16T12:36:24Z</time>
      </trkpt>
      <trkpt lat="40.433267" lon="-5.293767">
        <ele>2334.0</ele>
        <time>2015-08-16T12:36:25Z</time>
      </trkpt>
      <trkpt lat="40.433300" lon="-5.293633">
        <ele>2332.0</ele>
        <time>2015-08-16T12:36:26Z</time>
      </trkpt>
      <trkpt lat="40.433350" lon="-5.293517">
        <ele>2330.0</ele>
        <time>2015-08-16T12:36:27Z</time>
      </trkpt>
      <trkpt lat="40.433400" lon="-5.293400">
        <ele>2329.0</ele>
        <time>2015-08-16T12:36:28Z</time>
      </trkpt>
      <trkpt lat="40.433450" lon="-5.293300">
        <ele>2329.0</ele>
        <time>2015-08-16T12:36:29Z</time>
      </trkpt>
      <trkpt lat="40.433517" lon="-5.293217">
        <ele>2330.0</ele>
        <time>2015-08-16T12:36:30Z</time>
      </trkpt>
      <trkpt lat="40.433567" lon="-5.293150">
        <ele>2329.0</ele>
        <time>2015-08-16T12:36:31Z</time>
      </trkpt>
      <trkpt lat="40.433617" lon="-5.293100">
        <ele>2329.0</ele>
        <time>2015-08-16T12:36:32Z</time>
      </trkpt>
      <trkpt lat="40.433667" lon="-5.293050">
        <ele>2327.0</ele>
        <time>2015-08-16T12:36:33Z</time>
      </trkpt>
      <trkpt lat="40.433717" lon="-5.292983">
        <ele>2326.0</ele>
        <time>2015-08-16T12:36:34Z</time>
      </trkpt>
      <trkpt lat="40.433767" lon="-5.292917">
        <ele>2325.0</ele>
        <time>2015-08-16T12:36:35Z</time>
      </trkpt>
      <trkpt lat="40.433833" lon="-5.292850">
        <ele>2325.0</ele>
        <time>2015-08-16T12:36:36Z</time>
      </trkpt>
      <trkpt lat="40.433883" lon="-5.292800">
        <ele>2327.0</ele>
        <time>2015-08-16T12:36:37Z</time>
      </trkpt>
      <trkpt lat="40.433933" lon="-5.292750">
        <ele>2328.0</ele>
        <time>2015-08-16T12:36:38Z</time>
      </trkpt>
      <trkpt lat="40.433967" lon="-5.292700">
        <ele>2330.0</ele>
        <time>2015-08-16T12:36:39Z</time>
      </trkpt>
      <trkpt lat="40.434017" lon="-5.292667">
        <ele>2330.0</ele>
        <time>2015-08-16T12:36:40Z</time>
      </trkpt>
      <trkpt lat="40.434083" lon="-5.292633">
        <ele>2331.0</ele>
        <time>2015-08-16T12:36:41Z</time>
      </trkpt>
      <trkpt lat="40.434133" lon="-5.292583">
        <ele>2331.0</ele>
        <time>2015-08-16T12:36:42Z</time>
      </trkpt>
      <trkpt lat="40.434167" lon="-5.292500">
        <ele>2332.0</ele>
        <time>2015-08-16T12:36:43Z</time>
      </trkpt>
      <trkpt lat="40.434200" lon="-5.292383">
        <ele>2333.0</ele>
        <time>2015-08-16T12:36:44Z</time>
      </trkpt>
      <trkpt lat="40.434183" lon="-5.292267">
        <ele>2333.0</ele>
        <time>2015-08-16T12:36:45Z</time>
      </trkpt>
      <trkpt lat="40.434150" lon="-5.292150">
        <ele>2334.0</ele>
        <time>2015-08-16T12:36:46Z</time>
      </trkpt>
      <trkpt lat="40.434067" lon="-5.292050">
        <ele>2333.0</ele>
        <time>2015-08-16T12:36:47Z</time>
      </trkpt>
      <trkpt lat="40.433983" lon="-5.292000">
        <ele>2333.0</ele>
        <time>2015-08-16T12:36:48Z</time>
      </trkpt>
      <trkpt lat="40.433867" lon="-5.291967">
        <ele>2331.0</ele>
        <time>2015-08-16T12:36:49Z</time>
      </trkpt>
      <trkpt lat="40.433750" lon="-5.291967">
        <ele>2330.0</ele>
        <time>2015-08-16T12:36:50Z</time>
      </trkpt>
      <trkpt lat="40.433633" lon="-5.291983">
        <ele>2330.0</ele>
        <time>2015-08-16T12:36:51Z</time>
      </trkpt>
      <trkpt lat="40.433517" lon="-5.292050">
        <ele>2330.0</ele>
        <time>2015-08-16T12:36:52Z</time>
      </trkpt>
      <trkpt lat="40.433433" lon="-5.292133">
        <ele>2329.0</ele>
        <time>2015-08-16T12:36:53Z</time>
      </trkpt>
      <trkpt lat="40.433350" lon="-5.292250">
        <ele>2329.0</ele>
        <time>2015-08-16T12:36:54Z</time>
      </trkpt>
      <trkpt lat="40.433283" lon="-5.292367">
        <ele>2328.0</ele>
        <time>2015-08-16T12:36:55Z</time>
      </trkpt>
      <trkpt lat="40.433233" lon="-5.292483">
        <ele>2327.0</ele>
        <time>2015-08-16T12:36:56Z</time>
      </trkpt>
      <trkpt lat="40.433217" lon="-5.292617">
        <ele>2325.0</ele>
        <time>2015-08-16T12:36:57Z</time>
      </trkpt>
      <trkpt lat="40.433200" lon="-5.292750">
        <ele>2324.0</ele>
        <time>2015-08-16T12:36:58Z</time>
      </trkpt>
      <trkpt lat="40.433217" lon="-5.292900">
        <ele>2324.0</ele>
        <time>2015-08-16T12:36:59Z</time>
      </trkpt>
      <trkpt lat="40.433217" lon="-5.293033">
        <ele>2324.0</ele>
        <time>2015-08-16T12:37:00Z</time>
      </trkpt>
      <trkpt lat="40.433250" lon="-5.293150">
        <ele>2325.0</ele>
        <time>2015-08-16T12:37:01Z</time>
      </trkpt>
      <trkpt lat="40.433283" lon="-5.293233">
        <ele>2326.0</ele>
        <time>2015-08-16T12:37:02Z</time>
      </trkpt>
      <trkpt lat="40.433333" lon="-5.293283">
        <ele>2325.0</ele>
        <time>2015-08-16T12:37:03Z</time>
      </trkpt>
      <trkpt lat="40.433383" lon="-5.293317">
        <ele>2324.0</ele>
        <time>2015-08-16T12:37:04Z</time>
      </trkpt>
      <trkpt lat="40.433450" lon="-5.293317">
        <ele>2321.0</ele>
        <time>2015-08-16T12:37:05Z</time>
      </trkpt>
      <trkpt lat="40.433533" lon="-5.293300">
        <ele>2320.0</ele>
        <time>2015-08-16T12:37:06Z</time>
      </trkpt>
      <trkpt lat="40.433617" lon="-5.293267">
        <ele>2320.0</ele>
        <time>2015-08-16T12:37:07Z</time>
      </trkpt>
      <trkpt lat="40.433700" lon="-5.293217">
        <ele>2322.0</ele>
        <time>2015-08-16T12:37:08Z</time>
      </trkpt>
      <trkpt lat="40.433767" lon="-5.293167">
        <ele>2324.0</ele>
        <time>2015-08-16T12:37:09Z</time>
      </trkpt>
      <trkpt lat="40.433833" lon="-5.293117">
        <ele>2327.0</ele>
        <time>2015-08-16T12:37:10Z</time>
      </trkpt>
      <trkpt lat="40.433883" lon="-5.293067">
        <ele>2328.0</ele>
        <time>2015-08-16T12:37:11Z</time>
      </trkpt>
      <trkpt lat="40.433933" lon="-5.293017">
        <ele>2328.0</ele>
        <time>2015-08-16T12:37:12Z</time>
      </trkpt>
      <trkpt lat="40.434000" lon="-5.292967">
        <ele>2327.0</ele>
        <time>2015-08-16T12:37:13Z</time>
      </trkpt>
      <trkpt lat="40.434083" lon="-5.292917">
        <ele>2327.0</ele>
        <time>2015-08-16T12:37:14Z</time>
      </trkpt>
      <trkpt lat="40.434167" lon="-5.292867">
        <ele>2328.0</ele>
        <time>2015-08-16T12:37:15Z</time>
      </trkpt>
      <trkpt lat="40.434250" lon="-5.292817">
        <ele>2330.0</ele>
        <time>2015-08-16T12:37:16Z</time>
      </trkpt>
      <trkpt lat="40.434300" lon="-5.292767">
        <ele>2331.0</ele>
        <time>2015-08-16T12:37:17Z</time>
      </trkpt>
      <trkpt lat="40.434350" lon="-5.292733">
        <ele>2332.0</ele>
        <time>2015-08-16T12:37:18Z</time>
      </trkpt>
      <trkpt lat="40.434400" lon="-5.292717">
        <ele>2331.0</ele>
        <time>2015-08-16T12:37:19Z</time>
      </trkpt>
      <trkpt lat="40.434450" lon="-5.292667">
        <ele>2329.0</ele>
        <time>2015-08-16T12:37:20Z</time>
      </trkpt>
      <trkpt lat="40.434517" lon="-5.292633">
        <ele>2328.0</ele>
        <time>2015-08-16T12:37:21Z</time>
      </trkpt>
      <trkpt lat="40.434583" lon="-5.292600">
        <ele>2328.0</ele>
        <time>2015-08-16T12:37:22Z</time>
      </trkpt>
      <trkpt lat="40.434650" lon="-5.292583">
        <ele>2329.0</ele>
        <time>2015-08-16T12:37:23Z</time>
      </trkpt>
      <trkpt lat="40.434700" lon="-5.292567">
        <ele>2330.0</ele>
        <time>2015-08-16T12:37:24Z</time>
      </trkpt>
      <trkpt lat="40.434767" lon="-5.292567">
        <ele>2331.0</ele>
        <time>2015-08-16T12:37:25Z</time>
      </trkpt>
      <trkpt lat="40.434833" lon="-5.292533">
        <ele>2330.0</ele>
        <time>2015-08-16T12:37:26Z</time>
      </trkpt>
      <trkpt lat="40.434900" lon="-5.292483">
        <ele>2330.0</ele>
        <time>2015-08-16T12:37:27Z</time>
      </trkpt>
      <trkpt lat="40.434967" lon="-5.292433">
        <ele>2330.0</ele>
        <time>2015-08-16T12:37:28Z</time>
      </trkpt>
      <trkpt lat="40.435033" lon="-5.292400">
        <ele>2329.0</ele>
        <time>2015-08-16T12:37:29Z</time>
      </trkpt>
      <trkpt lat="40.435100" lon="-5.292367">
        <ele>2329.0</ele>
        <time>2015-08-16T12:37:30Z</time>
      </trkpt>
      <trkpt lat="40.435167" lon="-5.292333">
        <ele>2329.0</ele>
        <time>2015-08-16T12:37:31Z</time>
      </trkpt>
      <trkpt lat="40.435233" lon="-5.292267">
        <ele>2329.0</ele>
        <time>2015-08-16T12:37:32Z</time>
      </trkpt>
      <trkpt lat="40.435300" lon="-5.292200">
        <ele>2328.0</ele>
        <time>2015-08-16T12:37:33Z</time>
      </trkpt>
      <trkpt lat="40.435367" lon="-5.292117">
        <ele>2327.0</ele>
        <time>2015-08-16T12:37:34Z</time>
      </trkpt>
      <trkpt lat="40.435433" lon="-5.292033">
        <ele>2326.0</ele>
        <time>2015-08-16T12:37:35Z</time>
      </trkpt>
      <trkpt lat="40.435500" lon="-5.291950">
        <ele>2325.0</ele>
        <time>2015-08-16T12:37:36Z</time>
      </trkpt>
      <trkpt lat="40.435567" lon="-5.291867">
        <ele>2324.0</ele>
        <time>2015-08-16T12:37:37Z</time>
      </trkpt>
      <trkpt lat="40.435633" lon="-5.291783">
        <ele>2324.0</ele>
        <time>2015-08-16T12:37:38Z</time>
      </trkpt>
      <trkpt lat="40.435700" lon="-5.291700">
        <ele>2323.0</ele>
        <time>2015-08-16T12:37:39Z</time>
      </trkpt>
      <trkpt lat="40.435733" lon="-5.291617">
        <ele>2323.0</ele>
        <time>2015-08-16T12:37:40Z</time>
      </trkpt>
      <trkpt lat="40.435767" lon="-5.291517">
        <ele>2322.0</ele>
        <time>2015-08-16T12:37:41Z</time>
      </trkpt>
      <trkpt lat="40.435817" lon="-5.291417">
        <ele>2321.0</ele>
        <time>2015-08-16T12:37:42Z</time>
      </trkpt>
      <trkpt lat="40.435867" lon="-5.291333">
        <ele>2320.0</ele>
        <time>2015-08-16T12:37:43Z</time>
      </trkpt>
      <trkpt lat="40.435917" lon="-5.291233">
        <ele>2319.0</ele>
        <time>2015-08-16T12:37:44Z</time>
      </trkpt>
      <trkpt lat="40.435967" lon="-5.291150">
        <ele>2319.0</ele>
        <time>2015-08-16T12:37:45Z</time>
      </trkpt>
      <trkpt lat="40.436017" lon="-5.291050">
        <ele>2319.0</ele>
        <time>2015-08-16T12:37:46Z</time>
      </trkpt>
      <trkpt lat="40.436050" lon="-5.290950">
        <ele>2319.0</ele>
        <time>2015-08-16T12:37:47Z</time>
      </trkpt>
      <trkpt lat="40.436083" lon="-5.290850">
        <ele>2318.0</ele>
        <time>2015-08-16T12:37:48Z</time>
      </trkpt>
      <trkpt lat="40.436117" lon="-5.290783">
        <ele>2315.0</ele>
        <time>2015-08-16T12:37:49Z</time>
      </trkpt>
      <trkpt lat="40.436167" lon="-5.290700">
        <ele>2311.0</ele>
        <time>2015-08-16T12:37:50Z</time>
      </trkpt>
      <trkpt lat="40.436250" lon="-5.290600">
        <ele>2306.0</ele>
        <time>2015-08-16T12:37:51Z</time>
      </trkpt>
      <trkpt lat="40.436317" lon="-5.290517">
        <ele>2302.0</ele>
        <time>2015-08-16T12:37:52Z</time>
      </trkpt>
      <trkpt lat="40.436417" lon="-5.290417">
        <ele>2298.0</ele>
        <time>2015-08-16T12:37:53Z</time>
      </trkpt>
      <trkpt lat="40.436500" lon="-5.290317">
        <ele>2294.0</ele>
        <time>2015-08-16T12:37:54Z</time>
      </trkpt>
      <trkpt lat="40.436583" lon="-5.290217">
        <ele>2292.0</ele>
        <time>2015-08-16T12:37:55Z</time>
      </trkpt>
      <trkpt lat="40.436667" lon="-5.290133">
        <ele>2289.0</ele>
        <time>2015-08-16T12:37:56Z</time>
      </trkpt>
      <trkpt lat="40.436750" lon="-5.290050">
        <ele>2286.0</ele>
        <time>2015-08-16T12:37:57Z</time>
      </trkpt>
      <trkpt lat="40.436833" lon="-5.289967">
        <ele>2283.0</ele>
        <time>2015-08-16T12:37:58Z</time>
      </trkpt>
      <trkpt lat="40.436917" lon="-5.289883">
        <ele>2280.0</ele>
        <time>2015-08-16T12:37:59Z</time>
      </trkpt>
      <trkpt lat="40.437017" lon="-5.289783">
        <ele>2276.0</ele>
        <time>2015-08-16T12:38:00Z</time>
      </trkpt>
      <trkpt lat="40.437117" lon="-5.289700">
        <ele>2272.0</ele>
        <time>2015-08-16T12:38:01Z</time>
      </trkpt>
      <trkpt lat="40.437233" lon="-5.289633">
        <ele>2269.0</ele>
        <time>2015-08-16T12:38:02Z</time>
      </trkpt>
      <trkpt lat="40.437350" lon="-5.289567">
        <ele>2267.0</ele>
        <time>2015-08-16T12:38:03Z</time>
      </trkpt>
      <trkpt lat="40.437467" lon="-5.289533">
        <ele>2266.0</ele>
        <time>2015-08-16T12:38:04Z</time>
      </trkpt>
      <trkpt lat="40.437567" lon="-5.289500">
        <ele>2266.0</ele>
        <time>2015-08-16T12:38:05Z</time>
      </trkpt>
      <trkpt lat="40.437650" lon="-5.289467">
        <ele>2265.0</ele>
        <time>2015-08-16T12:38:06Z</time>
      </trkpt>
      <trkpt lat="40.437717" lon="-5.289433">
        <ele>2262.0</ele>
        <time>2015-08-16T12:38:07Z</time>
      </trkpt>
      <trkpt lat="40.437800" lon="-5.289383">
        <ele>2259.0</ele>
        <time>2015-08-16T12:38:08Z</time>
      </trkpt>
      <trkpt lat="40.437883" lon="-5.289317">
        <ele>2255.0</ele>
        <time>2015-08-16T12:38:09Z</time>
      </trkpt>
      <trkpt lat="40.437967" lon="-5.289233">
        <ele>2252.0</ele>
        <time>2015-08-16T12:38:10Z</time>
      </trkpt>
      <trkpt lat="40.438050" lon="-5.289133">
        <ele>2250.0</ele>
        <time>2015-08-16T12:38:11Z</time>
      </trkpt>
      <trkpt lat="40.438117" lon="-5.289033">
        <ele>2248.0</ele>
        <time>2015-08-16T12:38:12Z</time>
      </trkpt>
      <trkpt lat="40.438183" lon="-5.288950">
        <ele>2247.0</ele>
        <time>2015-08-16T12:38:13Z</time>
      </trkpt>
      <trkpt lat="40.438250" lon="-5.288867">
        <ele>2245.0</ele>
        <time>2015-08-16T12:38:14Z</time>
      </trkpt>
      <trkpt lat="40.438317" lon="-5.288767">
        <ele>2242.0</ele>
        <time>2015-08-16T12:38:15Z</time>
      </trkpt>
      <trkpt lat="40.438383" lon="-5.288667">
        <ele>2239.0</ele>
        <time>2015-08-16T12:38:16Z</time>
      </trkpt>
      <trkpt lat="40.438450" lon="-5.288550">
        <ele>2236.0</ele>
        <time>2015-08-16T12:38:17Z</time>
      </trkpt>
      <trkpt lat="40.438517" lon="-5.288433">
        <ele>2234.0</ele>
        <time>2015-08-16T12:38:18Z</time>
      </trkpt>
      <trkpt lat="40.438583" lon="-5.288300">
        <ele>2232.0</ele>
        <time>2015-08-16T12:38:19Z</time>
      </trkpt>
      <trkpt lat="40.438650" lon="-5.288200">
        <ele>2231.0</ele>
        <time>2015-08-16T12:38:20Z</time>
      </trkpt>
      <trkpt lat="40.438717" lon="-5.288100">
        <ele>2230.0</ele>
        <time>2015-08-16T12:38:21Z</time>
      </trkpt>
      <trkpt lat="40.438783" lon="-5.288017">
        <ele>2228.0</ele>
        <time>2015-08-16T12:38:22Z</time>
      </trkpt>
      <trkpt lat="40.438833" lon="-5.287933">
        <ele>2226.0</ele>
        <time>2015-08-16T12:38:23Z</time>
      </trkpt>
      <trkpt lat="40.438900" lon="-5.287817">
        <ele>2223.0</ele>
        <time>2015-08-16T12:38:24Z</time>
      </trkpt>
      <trkpt lat="40.438967" lon="-5.287700">
        <ele>2219.0</ele>
        <time>2015-08-16T12:38:25Z</time>
      </trkpt>
      <trkpt lat="40.439033" lon="-5.287583">
        <ele>2216.0</ele>
        <time>2015-08-16T12:38:26Z</time>
      </trkpt>
      <trkpt lat="40.439100" lon="-5.287467">
        <ele>2215.0</ele>
        <time>2015-08-16T12:38:27Z</time>
      </trkpt>
      <trkpt lat="40.439183" lon="-5.287350">
        <ele>2214.0</ele>
        <time>2015-08-16T12:38:28Z</time>
      </trkpt>
      <trkpt lat="40.439250" lon="-5.287233">
        <ele>2213.0</ele>
        <time>2015-08-16T12:38:29Z</time>
      </trkpt>
      <trkpt lat="40.439300" lon="-5.287117">
        <ele>2212.0</ele>
        <time>2015-08-16T12:38:30Z</time>
      </trkpt>
      <trkpt lat="40.439367" lon="-5.287000">
        <ele>2211.0</ele>
        <time>2015-08-16T12:38:31Z</time>
      </trkpt>
      <trkpt lat="40.439450" lon="-5.286850">
        <ele>2209.0</ele>
        <time>2015-08-16T12:38:32Z</time>
      </trkpt>
      <trkpt lat="40.439517" lon="-5.286717">
        <ele>2210.0</ele>
        <time>2015-08-16T12:38:33Z</time>
      </trkpt>
      <trkpt lat="40.439583" lon="-5.286583">
        <ele>2211.0</ele>
        <time>2015-08-16T12:38:34Z</time>
      </trkpt>
      <trkpt lat="40.439617" lon="-5.286483">
        <ele>2211.0</ele>
        <time>2015-08-16T12:38:35Z</time>
      </trkpt>
      <trkpt lat="40.439667" lon="-5.286367">
        <ele>2211.0</ele>
        <time>2015-08-16T12:38:36Z</time>
      </trkpt>
      <trkpt lat="40.439733" lon="-5.286250">
        <ele>2211.0</ele>
        <time>2015-08-16T12:38:37Z</time>
      </trkpt>
      <trkpt lat="40.439800" lon="-5.286133">
        <ele>2211.0</ele>
        <time>2015-08-16T12:38:38Z</time>
      </trkpt>
      <trkpt lat="40.439883" lon="-5.286050">
        <ele>2211.0</ele>
        <time>2015-08-16T12:38:39Z</time>
      </trkpt>
      <trkpt lat="40.439967" lon="-5.286017">
        <ele>2214.0</ele>
        <time>2015-08-16T12:38:40Z</time>
      </trkpt>
      <trkpt lat="40.440050" lon="-5.286017">
        <ele>2216.0</ele>
        <time>2015-08-16T12:38:41Z</time>
      </trkpt>
      <trkpt lat="40.440133" lon="-5.286000">
        <ele>2218.0</ele>
        <time>2015-08-16T12:38:42Z</time>
      </trkpt>
      <trkpt lat="40.440217" lon="-5.285950">
        <ele>2218.0</ele>
        <time>2015-08-16T12:38:43Z</time>
      </trkpt>
      <trkpt lat="40.440283" lon="-5.285883">
        <ele>2218.0</ele>
        <time>2015-08-16T12:38:44Z</time>
      </trkpt>
      <trkpt lat="40.440350" lon="-5.285817">
        <ele>2218.0</ele>
        <time>2015-08-16T12:38:45Z</time>
      </trkpt>
      <trkpt lat="40.440417" lon="-5.285733">
        <ele>2217.0</ele>
        <time>2015-08-16T12:38:46Z</time>
      </trkpt>
      <trkpt lat="40.440467" lon="-5.285633">
        <ele>2216.0</ele>
        <time>2015-08-16T12:38:47Z</time>
      </trkpt>
      <trkpt lat="40.440500" lon="-5.285517">
        <ele>2215.0</ele>
        <time>2015-08-16T12:38:48Z</time>
      </trkpt>
      <trkpt lat="40.440517" lon="-5.285400">
        <ele>2215.0</ele>
        <time>2015-08-16T12:38:49Z</time>
      </trkpt>
      <trkpt lat="40.440550" lon="-5.285267">
        <ele>2214.0</ele>
        <time>2015-08-16T12:38:50Z</time>
      </trkpt>
      <trkpt lat="40.440567" lon="-5.285133">
        <ele>2213.0</ele>
        <time>2015-08-16T12:38:51Z</time>
      </trkpt>
      <trkpt lat="40.440600" lon="-5.285000">
        <ele>2213.0</ele>
        <time>2015-08-16T12:38:52Z</time>
      </trkpt>
      <trkpt lat="40.440617" lon="-5.284883">
        <ele>2212.0</ele>
        <time>2015-08-16T12:38:53Z</time>
      </trkpt>
      <trkpt lat="40.440667" lon="-5.284767">
        <ele>2212.0</ele>
        <time>2015-08-16T12:38:54Z</time>
      </trkpt>
      <trkpt lat="40.440717" lon="-5.284650">
        <ele>2212.0</ele>
        <time>2015-08-16T12:38:55Z</time>
      </trkpt>
      <trkpt lat="40.440800" lon="-5.284550">
        <ele>2212.0</ele>
        <time>2015-08-16T12:38:56Z</time>
      </trkpt>
      <trkpt lat="40.440867" lon="-5.284467">
        <ele>2213.0</ele>
        <time>2015-08-16T12:38:57Z</time>
      </trkpt>
      <trkpt lat="40.440933" lon="-5.284367">
        <ele>2214.0</ele>
        <time>2015-08-16T12:38:58Z</time>
      </trkpt>
      <trkpt lat="40.441000" lon="-5.284283">
        <ele>2214.0</ele>
        <time>2015-08-16T12:38:59Z</time>
      </trkpt>
      <trkpt lat="40.441067" lon="-5.284183">
        <ele>2214.0</ele>
        <time>2015-08-16T12:39:00Z</time>
      </trkpt>
      <trkpt lat="40.441150" lon="-5.284100">
        <ele>2213.0</ele>
        <time>2015-08-16T12:39:01Z</time>
      </trkpt>
      <trkpt lat="40.441217" lon="-5.283983">
        <ele>2213.0</ele>
        <time>2015-08-16T12:39:02Z</time>
      </trkpt>
      <trkpt lat="40.441283" lon="-5.283867">
        <ele>2213.0</ele>
        <time>2015-08-16T12:39:03Z</time>
      </trkpt>
      <trkpt lat="40.441350" lon="-5.283750">
        <ele>2214.0</ele>
        <time>2015-08-16T12:39:04Z</time>
      </trkpt>
      <trkpt lat="40.441417" lon="-5.283633">
        <ele>2214.0</ele>
        <time>2015-08-16T12:39:05Z</time>
      </trkpt>
      <trkpt lat="40.441500" lon="-5.283550">
        <ele>2214.0</ele>
        <time>2015-08-16T12:39:06Z</time>
      </trkpt>
      <trkpt lat="40.441583" lon="-5.283450">
        <ele>2213.0</ele>
        <time>2015-08-16T12:39:07Z</time>
      </trkpt>
      <trkpt lat="40.441683" lon="-5.283367">
        <ele>2211.0</ele>
        <time>2015-08-16T12:39:08Z</time>
      </trkpt>
      <trkpt lat="40.441767" lon="-5.283300">
        <ele>2210.0</ele>
        <time>2015-08-16T12:39:09Z</time>
      </trkpt>
      <trkpt lat="40.441850" lon="-5.283217">
        <ele>2208.0</ele>
        <time>2015-08-16T12:39:10Z</time>
      </trkpt>
      <trkpt lat="40.441933" lon="-5.283133">
        <ele>2206.0</ele>
        <time>2015-08-16T12:39:11Z</time>
      </trkpt>
      <trkpt lat="40.442033" lon="-5.283050">
        <ele>2204.0</ele>
        <time>2015-08-16T12:39:12Z</time>
      </trkpt>
      <trkpt lat="40.442133" lon="-5.282967">
        <ele>2201.0</ele>
        <time>2015-08-16T12:39:13Z</time>
      </trkpt>
      <trkpt lat="40.442233" lon="-5.282867">
        <ele>2199.0</ele>
        <time>2015-08-16T12:39:14Z</time>
      </trkpt>
      <trkpt lat="40.442350" lon="-5.282783">
        <ele>2200.0</ele>
        <time>2015-08-16T12:39:15Z</time>
      </trkpt>
      <trkpt lat="40.442450" lon="-5.282717">
        <ele>2201.0</ele>
        <time>2015-08-16T12:39:16Z</time>
      </trkpt>
      <trkpt lat="40.442533" lon="-5.282650">
        <ele>2202.0</ele>
        <time>2015-08-16T12:39:17Z</time>
      </trkpt>
      <trkpt lat="40.442600" lon="-5.282583">
        <ele>2202.0</ele>
        <time>2015-08-16T12:39:18Z</time>
      </trkpt>
      <trkpt lat="40.442700" lon="-5.282500">
        <ele>2202.0</ele>
        <time>2015-08-16T12:39:19Z</time>
      </trkpt>
      <trkpt lat="40.442800" lon="-5.282417">
        <ele>2200.0</ele>
        <time>2015-08-16T12:39:20Z</time>
      </trkpt>
      <trkpt lat="40.442900" lon="-5.282317">
        <ele>2199.0</ele>
        <time>2015-08-16T12:39:21Z</time>
      </trkpt>
      <trkpt lat="40.443000" lon="-5.282217">
        <ele>2199.0</ele>
        <time>2015-08-16T12:39:22Z</time>
      </trkpt>
      <trkpt lat="40.443100" lon="-5.282100">
        <ele>2198.0</ele>
        <time>2015-08-16T12:39:23Z</time>
      </trkpt>
      <trkpt lat="40.443183" lon="-5.281983">
        <ele>2198.0</ele>
        <time>2015-08-16T12:39:24Z</time>
      </trkpt>
      <trkpt lat="40.443250" lon="-5.281867">
        <ele>2198.0</ele>
        <time>2015-08-16T12:39:25Z</time>
      </trkpt>
      <trkpt lat="40.443333" lon="-5.281767">
        <ele>2198.0</ele>
        <time>2015-08-16T12:39:26Z</time>
      </trkpt>
      <trkpt lat="40.443400" lon="-5.281667">
        <ele>2197.0</ele>
        <time>2015-08-16T12:39:27Z</time>
      </trkpt>
      <trkpt lat="40.443483" lon="-5.281550">
        <ele>2196.0</ele>
        <time>2015-08-16T12:39:28Z</time>
      </trkpt>
      <trkpt lat="40.443550" lon="-5.281433">
        <ele>2195.0</ele>
        <time>2015-08-16T12:39:29Z</time>
      </trkpt>
      <trkpt lat="40.443617" lon="-5.281317">
        <ele>2196.0</ele>
        <time>2015-08-16T12:39:30Z</time>
      </trkpt>
      <trkpt lat="40.443667" lon="-5.281183">
        <ele>2197.0</ele>
        <time>2015-08-16T12:39:31Z</time>
      </trkpt>
      <trkpt lat="40.443717" lon="-5.281067">
        <ele>2198.0</ele>
        <time>2015-08-16T12:39:32Z</time>
      </trkpt>
      <trkpt lat="40.443767" lon="-5.280950">
        <ele>2198.0</ele>
        <time>2015-08-16T12:39:33Z</time>
      </trkpt>
      <trkpt lat="40.443800" lon="-5.280833">
        <ele>2197.0</ele>
        <time>2015-08-16T12:39:34Z</time>
      </trkpt>
      <trkpt lat="40.443833" lon="-5.280717">
        <ele>2197.0</ele>
        <time>2015-08-16T12:39:35Z</time>
      </trkpt>
      <trkpt lat="40.443867" lon="-5.280583">
        <ele>2196.0</ele>
        <time>2015-08-16T12:39:36Z</time>
      </trkpt>
      <trkpt lat="40.443883" lon="-5.280450">
        <ele>2195.0</ele>
        <time>2015-08-16T12:39:37Z</time>
      </trkpt>
      <trkpt lat="40.443900" lon="-5.280300">
        <ele>2194.0</ele>
        <time>2015-08-16T12:39:38Z</time>
      </trkpt>
      <trkpt lat="40.443900" lon="-5.280150">
        <ele>2194.0</ele>
        <time>2015-08-16T12:39:39Z</time>
      </trkpt>
      <trkpt lat="40.443917" lon="-5.279983">
        <ele>2193.0</ele>
        <time>2015-08-16T12:39:40Z</time>
      </trkpt>
      <trkpt lat="40.443917" lon="-5.279833">
        <ele>2193.0</ele>
        <time>2015-08-16T12:39:41Z</time>
      </trkpt>
      <trkpt lat="40.443933" lon="-5.279683">
        <ele>2194.0</ele>
        <time>2015-08-16T12:39:42Z</time>
      </trkpt>
      <trkpt lat="40.443950" lon="-5.279533">
        <ele>2195.0</ele>
        <time>2015-08-16T12:39:43Z</time>
      </trkpt>
      <trkpt lat="40.443983" lon="-5.279383">
        <ele>2195.0</ele>
        <time>2015-08-16T12:39:44Z</time>
      </trkpt>
      <trkpt lat="40.444000" lon="-5.279233">
        <ele>2195.0</ele>
        <time>2015-08-16T12:39:45Z</time>
      </trkpt>
      <trkpt lat="40.444000" lon="-5.279083">
        <ele>2194.0</ele>
        <time>2015-08-16T12:39:46Z</time>
      </trkpt>
      <trkpt lat="40.444017" lon="-5.278933">
        <ele>2194.0</ele>
        <time>2015-08-16T12:39:47Z</time>
      </trkpt>
      <trkpt lat="40.444050" lon="-5.278767">
        <ele>2195.0</ele>
        <time>2015-08-16T12:39:48Z</time>
      </trkpt>
      <trkpt lat="40.444083" lon="-5.278633">
        <ele>2196.0</ele>
        <time>2015-08-16T12:39:49Z</time>
      </trkpt>
      <trkpt lat="40.444117" lon="-5.278500">
        <ele>2197.0</ele>
        <time>2015-08-16T12:39:50Z</time>
      </trkpt>
      <trkpt lat="40.444133" lon="-5.278367">
        <ele>2198.0</ele>
        <time>2015-08-16T12:39:51Z</time>
      </trkpt>
      <trkpt lat="40.444167" lon="-5.278250">
        <ele>2197.0</ele>
        <time>2015-08-16T12:39:52Z</time>
      </trkpt>
      <trkpt lat="40.444200" lon="-5.278117">
        <ele>2197.0</ele>
        <time>2015-08-16T12:39:53Z</time>
      </trkpt>
      <trkpt lat="40.444250" lon="-5.277983">
        <ele>2196.0</ele>
        <time>2015-08-16T12:39:54Z</time>
      </trkpt>
      <trkpt lat="40.444283" lon="-5.277850">
        <ele>2196.0</ele>
        <time>2015-08-16T12:39:55Z</time>
      </trkpt>
      <trkpt lat="40.444317" lon="-5.277733">
        <ele>2196.0</ele>
        <time>2015-08-16T12:39:56Z</time>
      </trkpt>
      <trkpt lat="40.444367" lon="-5.277600">
        <ele>2195.0</ele>
        <time>2015-08-16T12:39:57Z</time>
      </trkpt>
      <trkpt lat="40.444417" lon="-5.277483">
        <ele>2194.0</ele>
        <time>2015-08-16T12:39:58Z</time>
      </trkpt>
      <trkpt lat="40.444467" lon="-5.277383">
        <ele>2191.0</ele>
        <time>2015-08-16T12:39:59Z</time>
      </trkpt>
      <trkpt lat="40.444533" lon="-5.277283">
        <ele>2188.0</ele>
        <time>2015-08-16T12:40:00Z</time>
      </trkpt>
      <trkpt lat="40.444600" lon="-5.277150">
        <ele>2184.0</ele>
        <time>2015-08-16T12:40:01Z</time>
      </trkpt>
      <trkpt lat="40.444650" lon="-5.277000">
        <ele>2181.0</ele>
        <time>2015-08-16T12:40:02Z</time>
      </trkpt>
      <trkpt lat="40.444717" lon="-5.276867">
        <ele>2180.0</ele>
        <time>2015-08-16T12:40:03Z</time>
      </trkpt>
      <trkpt lat="40.444767" lon="-5.276750">
        <ele>2180.0</ele>
        <time>2015-08-16T12:40:04Z</time>
      </trkpt>
      <trkpt lat="40.444800" lon="-5.276650">
        <ele>2179.0</ele>
        <time>2015-08-16T12:40:05Z</time>
      </trkpt>
      <trkpt lat="40.444850" lon="-5.276533">
        <ele>2178.0</ele>
        <time>2015-08-16T12:40:06Z</time>
      </trkpt>
      <trkpt lat="40.444867" lon="-5.276417">
        <ele>2175.0</ele>
        <time>2015-08-16T12:40:07Z</time>
      </trkpt>
      <trkpt lat="40.444883" lon="-5.276250">
        <ele>2171.0</ele>
        <time>2015-08-16T12:40:08Z</time>
      </trkpt>
      <trkpt lat="40.444883" lon="-5.276083">
        <ele>2168.0</ele>
        <time>2015-08-16T12:40:09Z</time>
      </trkpt>
      <trkpt lat="40.444900" lon="-5.275917">
        <ele>2167.0</ele>
        <time>2015-08-16T12:40:10Z</time>
      </trkpt>
      <trkpt lat="40.444917" lon="-5.275767">
        <ele>2165.0</ele>
        <time>2015-08-16T12:40:11Z</time>
      </trkpt>
      <trkpt lat="40.444950" lon="-5.275617">
        <ele>2165.0</ele>
        <time>2015-08-16T12:40:12Z</time>
      </trkpt>
      <trkpt lat="40.444950" lon="-5.275467">
        <ele>2164.0</ele>
        <time>2015-08-16T12:40:13Z</time>
      </trkpt>
      <trkpt lat="40.444967" lon="-5.275333">
        <ele>2163.0</ele>
        <time>2015-08-16T12:40:14Z</time>
      </trkpt>
      <trkpt lat="40.444967" lon="-5.275183">
        <ele>2161.0</ele>
        <time>2015-08-16T12:40:15Z</time>
      </trkpt>
      <trkpt lat="40.444983" lon="-5.275033">
        <ele>2159.0</ele>
        <time>2015-08-16T12:40:16Z</time>
      </trkpt>
      <trkpt lat="40.445000" lon="-5.274883">
        <ele>2157.0</ele>
        <time>2015-08-16T12:40:17Z</time>
      </trkpt>
      <trkpt lat="40.445033" lon="-5.274733">
        <ele>2154.0</ele>
        <time>2015-08-16T12:40:18Z</time>
      </trkpt>
      <trkpt lat="40.445083" lon="-5.274567">
        <ele>2153.0</ele>
        <time>2015-08-16T12:40:19Z</time>
      </trkpt>
      <trkpt lat="40.445117" lon="-5.274400">
        <ele>2151.0</ele>
        <time>2015-08-16T12:40:20Z</time>
      </trkpt>
      <trkpt lat="40.445150" lon="-5.274250">
        <ele>2149.0</ele>
        <time>2015-08-16T12:40:21Z</time>
      </trkpt>
      <trkpt lat="40.445200" lon="-5.274083">
        <ele>2148.0</ele>
        <time>2015-08-16T12:40:22Z</time>
      </trkpt>
      <trkpt lat="40.445233" lon="-5.273917">
        <ele>2147.0</ele>
        <time>2015-08-16T12:40:23Z</time>
      </trkpt>
      <trkpt lat="40.445267" lon="-5.273767">
        <ele>2146.0</ele>
        <time>2015-08-16T12:40:24Z</time>
      </trkpt>
      <trkpt lat="40.445300" lon="-5.273617">
        <ele>2145.0</ele>
        <time>2015-08-16T12:40:25Z</time>
      </trkpt>
      <trkpt lat="40.445333" lon="-5.273483">
        <ele>2144.0</ele>
        <time>2015-08-16T12:40:26Z</time>
      </trkpt>
      <trkpt lat="40.445383" lon="-5.273333">
        <ele>2142.0</ele>
        <time>2015-08-16T12:40:27Z</time>
      </trkpt>
      <trkpt lat="40.445433" lon="-5.273200">
        <ele>2141.0</ele>
        <time>2015-08-16T12:40:28Z</time>
      </trkpt>
      <trkpt lat="40.445467" lon="-5.273050">
        <ele>2140.0</ele>
        <time>2015-08-16T12:40:29Z</time>
      </trkpt>
      <trkpt lat="40.445483" lon="-5.272867">
        <ele>2138.0</ele>
        <time>2015-08-16T12:40:30Z</time>
      </trkpt>
      <trkpt lat="40.445517" lon="-5.272700">
        <ele>2137.0</ele>
        <time>2015-08-16T12:40:31Z</time>
      </trkpt>
      <trkpt lat="40.445550" lon="-5.272517">
        <ele>2137.0</ele>
        <time>2015-08-16T12:40:32Z</time>
      </trkpt>
      <trkpt lat="40.445617" lon="-5.272383">
        <ele>2138.0</ele>
        <time>2015-08-16T12:40:33Z</time>
      </trkpt>
      <trkpt lat="40.445683" lon="-5.272283">
        <ele>2139.0</ele>
        <time>2015-08-16T12:40:34Z</time>
      </trkpt>
      <trkpt lat="40.445733" lon="-5.272200">
        <ele>2143.0</ele>
        <time>2015-08-16T12:40:35Z</time>
      </trkpt>
      <trkpt lat="40.445783" lon="-5.272100">
        <ele>2146.0</ele>
        <time>2015-08-16T12:40:36Z</time>
      </trkpt>
      <trkpt lat="40.445800" lon="-5.272017">
        <ele>2148.0</ele>
        <time>2015-08-16T12:40:37Z</time>
      </trkpt>
      <trkpt lat="40.445833" lon="-5.271933">
        <ele>2148.0</ele>
        <time>2015-08-16T12:40:38Z</time>
      </trkpt>
      <trkpt lat="40.445883" lon="-5.271867">
        <ele>2147.0</ele>
        <time>2015-08-16T12:40:39Z</time>
      </trkpt>
      <trkpt lat="40.445933" lon="-5.271800">
        <ele>2146.0</ele>
        <time>2015-08-16T12:40:40Z</time>
      </trkpt>
      <trkpt lat="40.445967" lon="-5.271717">
        <ele>2146.0</ele>
        <time>2015-08-16T12:40:41Z</time>
      </trkpt>
      <trkpt lat="40.446000" lon="-5.271600">
        <ele>2144.0</ele>
        <time>2015-08-16T12:40:42Z</time>
      </trkpt>
      <trkpt lat="40.446000" lon="-5.271467">
        <ele>2143.0</ele>
        <time>2015-08-16T12:40:43Z</time>
      </trkpt>
      <trkpt lat="40.445983" lon="-5.271350">
        <ele>2143.0</ele>
        <time>2015-08-16T12:40:44Z</time>
      </trkpt>
      <trkpt lat="40.445983" lon="-5.271217">
        <ele>2143.0</ele>
        <time>2015-08-16T12:40:45Z</time>
      </trkpt>
      <trkpt lat="40.445967" lon="-5.271117">
        <ele>2143.0</ele>
        <time>2015-08-16T12:40:46Z</time>
      </trkpt>
      <trkpt lat="40.445950" lon="-5.271000">
        <ele>2144.0</ele>
        <time>2015-08-16T12:40:47Z</time>
      </trkpt>
      <trkpt lat="40.445917" lon="-5.270900">
        <ele>2144.0</ele>
        <time>2015-08-16T12:40:48Z</time>
      </trkpt>
      <trkpt lat="40.445867" lon="-5.270800">
        <ele>2144.0</ele>
        <time>2015-08-16T12:40:49Z</time>
      </trkpt>
      <trkpt lat="40.445817" lon="-5.270717">
        <ele>2143.0</ele>
        <time>2015-08-16T12:40:50Z</time>
      </trkpt>
      <trkpt lat="40.445767" lon="-5.270650">
        <ele>2143.0</ele>
        <time>2015-08-16T12:40:51Z</time>
      </trkpt>
      <trkpt lat="40.445717" lon="-5.270567">
        <ele>2142.0</ele>
        <time>2015-08-16T12:40:52Z</time>
      </trkpt>
      <trkpt lat="40.445667" lon="-5.270467">
        <ele>2140.0</ele>
        <time>2015-08-16T12:40:53Z</time>
      </trkpt>
      <trkpt lat="40.445617" lon="-5.270367">
        <ele>2138.0</ele>
        <time>2015-08-16T12:40:54Z</time>
      </trkpt>
      <trkpt lat="40.445583" lon="-5.270233">
        <ele>2136.0</ele>
        <time>2015-08-16T12:40:55Z</time>
      </trkpt>
      <trkpt lat="40.445550" lon="-5.270083">
        <ele>2136.0</ele>
        <time>2015-08-16T12:40:56Z</time>
      </trkpt>
      <trkpt lat="40.445550" lon="-5.269950">
        <ele>2137.0</ele>
        <time>2015-08-16T12:40:57Z</time>
      </trkpt>
      <trkpt lat="40.445533" lon="-5.269817">
        <ele>2139.0</ele>
        <time>2015-08-16T12:40:58Z</time>
      </trkpt>
      <trkpt lat="40.445550" lon="-5.269717">
        <ele>2140.0</ele>
        <time>2015-08-16T12:40:59Z</time>
      </trkpt>
      <trkpt lat="40.445583" lon="-5.269617">
        <ele>2140.0</ele>
        <time>2015-08-16T12:41:00Z</time>
      </trkpt>
      <trkpt lat="40.445600" lon="-5.269500">
        <ele>2140.0</ele>
        <time>2015-08-16T12:41:01Z</time>
      </trkpt>
      <trkpt lat="40.445617" lon="-5.269400">
        <ele>2139.0</ele>
        <time>2015-08-16T12:41:02Z</time>
      </trkpt>
      <trkpt lat="40.445633" lon="-5.269267">
        <ele>2137.0</ele>
        <time>2015-08-16T12:41:03Z</time>
      </trkpt>
      <trkpt lat="40.445667" lon="-5.269117">
        <ele>2136.0</ele>
        <time>2015-08-16T12:41:04Z</time>
      </trkpt>
      <trkpt lat="40.445700" lon="-5.268983">
        <ele>2136.0</ele>
        <time>2015-08-16T12:41:05Z</time>
      </trkpt>
      <trkpt lat="40.445750" lon="-5.268833">
        <ele>2136.0</ele>
        <time>2015-08-16T12:41:06Z</time>
      </trkpt>
      <trkpt lat="40.445783" lon="-5.268700">
        <ele>2138.0</ele>
        <time>2015-08-16T12:41:07Z</time>
      </trkpt>
      <trkpt lat="40.445833" lon="-5.268583">
        <ele>2141.0</ele>
        <time>2015-08-16T12:41:08Z</time>
      </trkpt>
      <trkpt lat="40.445867" lon="-5.268483">
        <ele>2144.0</ele>
        <time>2015-08-16T12:41:09Z</time>
      </trkpt>
      <trkpt lat="40.445883" lon="-5.268400">
        <ele>2145.0</ele>
        <time>2015-08-16T12:41:10Z</time>
      </trkpt>
      <trkpt lat="40.445917" lon="-5.268317">
        <ele>2144.0</ele>
        <time>2015-08-16T12:41:11Z</time>
      </trkpt>
      <trkpt lat="40.445950" lon="-5.268217">
        <ele>2143.0</ele>
        <time>2015-08-16T12:41:12Z</time>
      </trkpt>
      <trkpt lat="40.445983" lon="-5.268083">
        <ele>2142.0</ele>
        <time>2015-08-16T12:41:13Z</time>
      </trkpt>
      <trkpt lat="40.446000" lon="-5.267950">
        <ele>2143.0</ele>
        <time>2015-08-16T12:41:14Z</time>
      </trkpt>
      <trkpt lat="40.446017" lon="-5.267817">
        <ele>2144.0</ele>
        <time>2015-08-16T12:41:15Z</time>
      </trkpt>
      <trkpt lat="40.446050" lon="-5.267683">
        <ele>2146.0</ele>
        <time>2015-08-16T12:41:16Z</time>
      </trkpt>
      <trkpt lat="40.446067" lon="-5.267550">
        <ele>2148.0</ele>
        <time>2015-08-16T12:41:17Z</time>
      </trkpt>
      <trkpt lat="40.446083" lon="-5.267417">
        <ele>2149.0</ele>
        <time>2015-08-16T12:41:18Z</time>
      </trkpt>
      <trkpt lat="40.446117" lon="-5.267317">
        <ele>2150.0</ele>
        <time>2015-08-16T12:41:19Z</time>
      </trkpt>
      <trkpt lat="40.446150" lon="-5.267200">
        <ele>2150.0</ele>
        <time>2015-08-16T12:41:20Z</time>
      </trkpt>
      <trkpt lat="40.446217" lon="-5.267117">
        <ele>2149.0</ele>
        <time>2015-08-16T12:41:21Z</time>
      </trkpt>
      <trkpt lat="40.446267" lon="-5.267050">
        <ele>2150.0</ele>
        <time>2015-08-16T12:41:22Z</time>
      </trkpt>
      <trkpt lat="40.446333" lon="-5.267017">
        <ele>2150.0</ele>
        <time>2015-08-16T12:41:23Z</time>
      </trkpt>
      <trkpt lat="40.446400" lon="-5.267033">
        <ele>2149.0</ele>
        <time>2015-08-16T12:41:24Z</time>
      </trkpt>
      <trkpt lat="40.446450" lon="-5.267100">
        <ele>2148.0</ele>
        <time>2015-08-16T12:41:25Z</time>
      </trkpt>
      <trkpt lat="40.446483" lon="-5.267200">
        <ele>2148.0</ele>
        <time>2015-08-16T12:41:26Z</time>
      </trkpt>
      <trkpt lat="40.446483" lon="-5.267317">
        <ele>2149.0</ele>
        <time>2015-08-16T12:41:27Z</time>
      </trkpt>
      <trkpt lat="40.446467" lon="-5.267433">
        <ele>2150.0</ele>
        <time>2015-08-16T12:41:28Z</time>
      </trkpt>
      <trkpt lat="40.446417" lon="-5.267550">
        <ele>2153.0</ele>
        <time>2015-08-16T12:41:29Z</time>
      </trkpt>
      <trkpt lat="40.446367" lon="-5.267650">
        <ele>2154.0</ele>
        <time>2015-08-16T12:41:30Z</time>
      </trkpt>
      <trkpt lat="40.446300" lon="-5.267733">
        <ele>2154.0</ele>
        <time>2015-08-16T12:41:31Z</time>
      </trkpt>
      <trkpt lat="40.446233" lon="-5.267817">
        <ele>2154.0</ele>
        <time>2015-08-16T12:41:32Z</time>
      </trkpt>
      <trkpt lat="40.446133" lon="-5.267883">
        <ele>2153.0</ele>
        <time>2015-08-16T12:41:33Z</time>
      </trkpt>
      <trkpt lat="40.446033" lon="-5.267917">
        <ele>2153.0</ele>
        <time>2015-08-16T12:41:34Z</time>
      </trkpt>
      <trkpt lat="40.445900" lon="-5.267950">
        <ele>2153.0</ele>
        <time>2015-08-16T12:41:35Z</time>
      </trkpt>
      <trkpt lat="40.445767" lon="-5.267933">
        <ele>2154.0</ele>
        <time>2015-08-16T12:41:36Z</time>
      </trkpt>
      <trkpt lat="40.445650" lon="-5.267883">
        <ele>2155.0</ele>
        <time>2015-08-16T12:41:37Z</time>
      </trkpt>
      <trkpt lat="40.445533" lon="-5.267800">
        <ele>2155.0</ele>
        <time>2015-08-16T12:41:38Z</time>
      </trkpt>
      <trkpt lat="40.445417" lon="-5.267667">
        <ele>2154.0</ele>
        <time>2015-08-16T12:41:39Z</time>
      </trkpt>
      <trkpt lat="40.445317" lon="-5.267517">
        <ele>2155.0</ele>
        <time>2015-08-16T12:41:40Z</time>
      </trkpt>
      <trkpt lat="40.445250" lon="-5.267367">
        <ele>2156.0</ele>
        <time>2015-08-16T12:41:41Z</time>
      </trkpt>
      <trkpt lat="40.445217" lon="-5.267217">
        <ele>2157.0</ele>
        <time>2015-08-16T12:41:42Z</time>
      </trkpt>
      <trkpt lat="40.445217" lon="-5.267067">
        <ele>2156.0</ele>
        <time>2015-08-16T12:41:43Z</time>
      </trkpt>
      <trkpt lat="40.445217" lon="-5.266917">
        <ele>2157.0</ele>
        <time>2015-08-16T12:41:44Z</time>
      </trkpt>
      <trkpt lat="40.445217" lon="-5.266767">
        <ele>2158.0</ele>
        <time>2015-08-16T12:41:45Z</time>
      </trkpt>
      <trkpt lat="40.445233" lon="-5.266650">
        <ele>2160.0</ele>
        <time>2015-08-16T12:41:46Z</time>
      </trkpt>
      <trkpt lat="40.445250" lon="-5.266567">
        <ele>2160.0</ele>
        <time>2015-08-16T12:41:47Z</time>
      </trkpt>
      <trkpt lat="40.445283" lon="-5.266483">
        <ele>2159.0</ele>
        <time>2015-08-16T12:41:48Z</time>
      </trkpt>
      <trkpt lat="40.445333" lon="-5.266383">
        <ele>2156.0</ele>
        <time>2015-08-16T12:41:49Z</time>
      </trkpt>
      <trkpt lat="40.445367" lon="-5.266283">
        <ele>2153.0</ele>
        <time>2015-08-16T12:41:50Z</time>
      </trkpt>
      <trkpt lat="40.445433" lon="-5.266183">
        <ele>2150.0</ele>
        <time>2015-08-16T12:41:51Z</time>
      </trkpt>
      <trkpt lat="40.445500" lon="-5.266067">
        <ele>2148.0</ele>
        <time>2015-08-16T12:41:52Z</time>
      </trkpt>
      <trkpt lat="40.445567" lon="-5.265983">
        <ele>2145.0</ele>
        <time>2015-08-16T12:41:53Z</time>
      </trkpt>
      <trkpt lat="40.445650" lon="-5.265900">
        <ele>2144.0</ele>
        <time>2015-08-16T12:41:54Z</time>
      </trkpt>
      <trkpt lat="40.445717" lon="-5.265833">
        <ele>2142.0</ele>
        <time>2015-08-16T12:41:55Z</time>
      </trkpt>
      <trkpt lat="40.445783" lon="-5.265733">
        <ele>2141.0</ele>
        <time>2015-08-16T12:41:56Z</time>
      </trkpt>
      <trkpt lat="40.445833" lon="-5.265617">
        <ele>2139.0</ele>
        <time>2015-08-16T12:41:57Z</time>
      </trkpt>
      <trkpt lat="40.445883" lon="-5.265533">
        <ele>2139.0</ele>
        <time>2015-08-16T12:41:58Z</time>
      </trkpt>
      <trkpt lat="40.445933" lon="-5.265450">
        <ele>2139.0</ele>
        <time>2015-08-16T12:41:59Z</time>
      </trkpt>
      <trkpt lat="40.445983" lon="-5.265383">
        <ele>2138.0</ele>
        <time>2015-08-16T12:42:00Z</time>
      </trkpt>
      <trkpt lat="40.446033" lon="-5.265317">
        <ele>2137.0</ele>
        <time>2015-08-16T12:42:01Z</time>
      </trkpt>
      <trkpt lat="40.446083" lon="-5.265250">
        <ele>2136.0</ele>
        <time>2015-08-16T12:42:02Z</time>
      </trkpt>
      <trkpt lat="40.446150" lon="-5.265183">
        <ele>2134.0</ele>
        <time>2015-08-16T12:42:03Z</time>
      </trkpt>
      <trkpt lat="40.446200" lon="-5.265133">
        <ele>2132.0</ele>
        <time>2015-08-16T12:42:04Z</time>
      </trkpt>
      <trkpt lat="40.446267" lon="-5.265083">
        <ele>2130.0</ele>
        <time>2015-08-16T12:42:05Z</time>
      </trkpt>
      <trkpt lat="40.446333" lon="-5.265033">
        <ele>2128.0</ele>
        <time>2015-08-16T12:42:06Z</time>
      </trkpt>
      <trkpt lat="40.446400" lon="-5.264983">
        <ele>2127.0</ele>
        <time>2015-08-16T12:42:07Z</time>
      </trkpt>
      <trkpt lat="40.446467" lon="-5.264933">
        <ele>2127.0</ele>
        <time>2015-08-16T12:42:08Z</time>
      </trkpt>
      <trkpt lat="40.446517" lon="-5.264900">
        <ele>2127.0</ele>
        <time>2015-08-16T12:42:09Z</time>
      </trkpt>
      <trkpt lat="40.446583" lon="-5.264867">
        <ele>2127.0</ele>
        <time>2015-08-16T12:42:10Z</time>
      </trkpt>
      <trkpt lat="40.446633" lon="-5.264817">
        <ele>2126.0</ele>
        <time>2015-08-16T12:42:11Z</time>
      </trkpt>
      <trkpt lat="40.446700" lon="-5.264767">
        <ele>2125.0</ele>
        <time>2015-08-16T12:42:12Z</time>
      </trkpt>
      <trkpt lat="40.446767" lon="-5.264700">
        <ele>2124.0</ele>
        <time>2015-08-16T12:42:13Z</time>
      </trkpt>
      <trkpt lat="40.446817" lon="-5.264633">
        <ele>2125.0</ele>
        <time>2015-08-16T12:42:14Z</time>
      </trkpt>
      <trkpt lat="40.446883" lon="-5.264583">
        <ele>2125.0</ele>
        <time>2015-08-16T12:42:15Z</time>
      </trkpt>
      <trkpt lat="40.446967" lon="-5.264517">
        <ele>2126.0</ele>
        <time>2015-08-16T12:42:16Z</time>
      </trkpt>
      <trkpt lat="40.447033" lon="-5.264467">
        <ele>2127.0</ele>
        <time>2015-08-16T12:42:17Z</time>
      </trkpt>
      <trkpt lat="40.447117" lon="-5.264400">
        <ele>2127.0</ele>
        <time>2015-08-16T12:42:18Z</time>
      </trkpt>
      <trkpt lat="40.447183" lon="-5.264317">
        <ele>2128.0</ele>
        <time>2015-08-16T12:42:19Z</time>
      </trkpt>
      <trkpt lat="40.447233" lon="-5.264233">
        <ele>2128.0</ele>
        <time>2015-08-16T12:42:20Z</time>
      </trkpt>
      <trkpt lat="40.447300" lon="-5.264150">
        <ele>2128.0</ele>
        <time>2015-08-16T12:42:21Z</time>
      </trkpt>
      <trkpt lat="40.447350" lon="-5.264083">
        <ele>2128.0</ele>
        <time>2015-08-16T12:42:22Z</time>
      </trkpt>
      <trkpt lat="40.447417" lon="-5.264017">
        <ele>2127.0</ele>
        <time>2015-08-16T12:42:23Z</time>
      </trkpt>
      <trkpt lat="40.447467" lon="-5.263950">
        <ele>2126.0</ele>
        <time>2015-08-16T12:42:24Z</time>
      </trkpt>
      <trkpt lat="40.447533" lon="-5.263867">
        <ele>2124.0</ele>
        <time>2015-08-16T12:42:25Z</time>
      </trkpt>
      <trkpt lat="40.447600" lon="-5.263800">
        <ele>2124.0</ele>
        <time>2015-08-16T12:42:26Z</time>
      </trkpt>
      <trkpt lat="40.447667" lon="-5.263717">
        <ele>2123.0</ele>
        <time>2015-08-16T12:42:27Z</time>
      </trkpt>
      <trkpt lat="40.447717" lon="-5.263633">
        <ele>2123.0</ele>
        <time>2015-08-16T12:42:28Z</time>
      </trkpt>
      <trkpt lat="40.447767" lon="-5.263550">
        <ele>2123.0</ele>
        <time>2015-08-16T12:42:29Z</time>
      </trkpt>
      <trkpt lat="40.447817" lon="-5.263483">
        <ele>2122.0</ele>
        <time>2015-08-16T12:42:30Z</time>
      </trkpt>
      <trkpt lat="40.447883" lon="-5.263433">
        <ele>2121.0</ele>
        <time>2015-08-16T12:42:31Z</time>
      </trkpt>
      <trkpt lat="40.447933" lon="-5.263367">
        <ele>2120.0</ele>
        <time>2015-08-16T12:42:32Z</time>
      </trkpt>
      <trkpt lat="40.447983" lon="-5.263300">
        <ele>2119.0</ele>
        <time>2015-08-16T12:42:33Z</time>
      </trkpt>
      <trkpt lat="40.448050" lon="-5.263233">
        <ele>2118.0</ele>
        <time>2015-08-16T12:42:34Z</time>
      </trkpt>
      <trkpt lat="40.448100" lon="-5.263167">
        <ele>2118.0</ele>
        <time>2015-08-16T12:42:35Z</time>
      </trkpt>
      <trkpt lat="40.448167" lon="-5.263100">
        <ele>2117.0</ele>
        <time>2015-08-16T12:42:36Z</time>
      </trkpt>
      <trkpt lat="40.448233" lon="-5.263033">
        <ele>2116.0</ele>
        <time>2015-08-16T12:42:37Z</time>
      </trkpt>
      <trkpt lat="40.448300" lon="-5.262967">
        <ele>2116.0</ele>
        <time>2015-08-16T12:42:38Z</time>
      </trkpt>
      <trkpt lat="40.448367" lon="-5.262917">
        <ele>2116.0</ele>
        <time>2015-08-16T12:42:39Z</time>
      </trkpt>
      <trkpt lat="40.448433" lon="-5.262850">
        <ele>2116.0</ele>
        <time>2015-08-16T12:42:40Z</time>
      </trkpt>
      <trkpt lat="40.448500" lon="-5.262767">
        <ele>2115.0</ele>
        <time>2015-08-16T12:42:41Z</time>
      </trkpt>
      <trkpt lat="40.448567" lon="-5.262700">
        <ele>2114.0</ele>
        <time>2015-08-16T12:42:42Z</time>
      </trkpt>
      <trkpt lat="40.448633" lon="-5.262600">
        <ele>2113.0</ele>
        <time>2015-08-16T12:42:43Z</time>
      </trkpt>
      <trkpt lat="40.448700" lon="-5.262517">
        <ele>2112.0</ele>
        <time>2015-08-16T12:42:44Z</time>
      </trkpt>
      <trkpt lat="40.448767" lon="-5.262433">
        <ele>2111.0</ele>
        <time>2015-08-16T12:42:45Z</time>
      </trkpt>
      <trkpt lat="40.448833" lon="-5.262350">
        <ele>2111.0</ele>
        <time>2015-08-16T12:42:46Z</time>
      </trkpt>
      <trkpt lat="40.448883" lon="-5.262283">
        <ele>2110.0</ele>
        <time>2015-08-16T12:42:47Z</time>
      </trkpt>
      <trkpt lat="40.448950" lon="-5.262217">
        <ele>2108.0</ele>
        <time>2015-08-16T12:42:48Z</time>
      </trkpt>
      <trkpt lat="40.449017" lon="-5.262150">
        <ele>2106.0</ele>
        <time>2015-08-16T12:42:49Z</time>
      </trkpt>
      <trkpt lat="40.449083" lon="-5.262083">
        <ele>2104.0</ele>
        <time>2015-08-16T12:42:50Z</time>
      </trkpt>
      <trkpt lat="40.449167" lon="-5.262033">
        <ele>2102.0</ele>
        <time>2015-08-16T12:42:51Z</time>
      </trkpt>
      <trkpt lat="40.449250" lon="-5.261967">
        <ele>2102.0</ele>
        <time>2015-08-16T12:42:52Z</time>
      </trkpt>
      <trkpt lat="40.449333" lon="-5.261917">
        <ele>2101.0</ele>
        <time>2015-08-16T12:42:53Z</time>
      </trkpt>
      <trkpt lat="40.449417" lon="-5.261867">
        <ele>2101.0</ele>
        <time>2015-08-16T12:42:54Z</time>
      </trkpt>
      <trkpt lat="40.449500" lon="-5.261817">
        <ele>2100.0</ele>
        <time>2015-08-16T12:42:55Z</time>
      </trkpt>
      <trkpt lat="40.449567" lon="-5.261750">
        <ele>2099.0</ele>
        <time>2015-08-16T12:42:56Z</time>
      </trkpt>
      <trkpt lat="40.449633" lon="-5.261700">
        <ele>2098.0</ele>
        <time>2015-08-16T12:42:57Z</time>
      </trkpt>
      <trkpt lat="40.449700" lon="-5.261667">
        <ele>2097.0</ele>
        <time>2015-08-16T12:42:58Z</time>
      </trkpt>
      <trkpt lat="40.449783" lon="-5.261633">
        <ele>2095.0</ele>
        <time>2015-08-16T12:42:59Z</time>
      </trkpt>
      <trkpt lat="40.449867" lon="-5.261600">
        <ele>2094.0</ele>
        <time>2015-08-16T12:43:00Z</time>
      </trkpt>
      <trkpt lat="40.449950" lon="-5.261550">
        <ele>2093.0</ele>
        <time>2015-08-16T12:43:01Z</time>
      </trkpt>
      <trkpt lat="40.450033" lon="-5.261500">
        <ele>2092.0</ele>
        <time>2015-08-16T12:43:02Z</time>
      </trkpt>
      <trkpt lat="40.450117" lon="-5.261450">
        <ele>2091.0</ele>
        <time>2015-08-16T12:43:03Z</time>
      </trkpt>
      <trkpt lat="40.450200" lon="-5.261383">
        <ele>2091.0</ele>
        <time>2015-08-16T12:43:04Z</time>
      </trkpt>
      <trkpt lat="40.450283" lon="-5.261333">
        <ele>2091.0</ele>
        <time>2015-08-16T12:43:05Z</time>
      </trkpt>
      <trkpt lat="40.450350" lon="-5.261267">
        <ele>2091.0</ele>
        <time>2015-08-16T12:43:06Z</time>
      </trkpt>
      <trkpt lat="40.450433" lon="-5.261200">
        <ele>2090.0</ele>
        <time>2015-08-16T12:43:07Z</time>
      </trkpt>
      <trkpt lat="40.450517" lon="-5.261133">
        <ele>2089.0</ele>
        <time>2015-08-16T12:43:08Z</time>
      </trkpt>
      <trkpt lat="40.450600" lon="-5.261067">
        <ele>2087.0</ele>
        <time>2015-08-16T12:43:09Z</time>
      </trkpt>
      <trkpt lat="40.450683" lon="-5.260983">
        <ele>2085.0</ele>
        <time>2015-08-16T12:43:10Z</time>
      </trkpt>
      <trkpt lat="40.450767" lon="-5.260917">
        <ele>2082.0</ele>
        <time>2015-08-16T12:43:11Z</time>
      </trkpt>
      <trkpt lat="40.450850" lon="-5.260833">
        <ele>2079.0</ele>
        <time>2015-08-16T12:43:12Z</time>
      </trkpt>
      <trkpt lat="40.450933" lon="-5.260733">
        <ele>2077.0</ele>
        <time>2015-08-16T12:43:13Z</time>
      </trkpt>
      <trkpt lat="40.451033" lon="-5.260650">
        <ele>2075.0</ele>
        <time>2015-08-16T12:43:14Z</time>
      </trkpt>
      <trkpt lat="40.451117" lon="-5.260583">
        <ele>2074.0</ele>
        <time>2015-08-16T12:43:15Z</time>
      </trkpt>
      <trkpt lat="40.451217" lon="-5.260517">
        <ele>2074.0</ele>
        <time>2015-08-16T12:43:16Z</time>
      </trkpt>
      <trkpt lat="40.451283" lon="-5.260467">
        <ele>2073.0</ele>
        <time>2015-08-16T12:43:17Z</time>
      </trkpt>
      <trkpt lat="40.451367" lon="-5.260417">
        <ele>2071.0</ele>
        <time>2015-08-16T12:43:18Z</time>
      </trkpt>
      <trkpt lat="40.451433" lon="-5.260367">
        <ele>2069.0</ele>
        <time>2015-08-16T12:43:19Z</time>
      </trkpt>
      <trkpt lat="40.451517" lon="-5.260300">
        <ele>2067.0</ele>
        <time>2015-08-16T12:43:20Z</time>
      </trkpt>
      <trkpt lat="40.451600" lon="-5.260250">
        <ele>2065.0</ele>
        <time>2015-08-16T12:43:21Z</time>
      </trkpt>
      <trkpt lat="40.451683" lon="-5.260183">
        <ele>2065.0</ele>
        <time>2015-08-16T12:43:22Z</time>
      </trkpt>
      <trkpt lat="40.451750" lon="-5.260117">
        <ele>2065.0</ele>
        <time>2015-08-16T12:43:23Z</time>
      </trkpt>
      <trkpt lat="40.451817" lon="-5.260033">
        <ele>2064.0</ele>
        <time>2015-08-16T12:43:24Z</time>
      </trkpt>
      <trkpt lat="40.451883" lon="-5.259967">
        <ele>2063.0</ele>
        <time>2015-08-16T12:43:25Z</time>
      </trkpt>
      <trkpt lat="40.451967" lon="-5.259900">
        <ele>2060.0</ele>
        <time>2015-08-16T12:43:26Z</time>
      </trkpt>
      <trkpt lat="40.452050" lon="-5.259850">
        <ele>2058.0</ele>
        <time>2015-08-16T12:43:27Z</time>
      </trkpt>
      <trkpt lat="40.452133" lon="-5.259800">
        <ele>2056.0</ele>
        <time>2015-08-16T12:43:28Z</time>
      </trkpt>
      <trkpt lat="40.452217" lon="-5.259733">
        <ele>2054.0</ele>
        <time>2015-08-16T12:43:29Z</time>
      </trkpt>
      <trkpt lat="40.452300" lon="-5.259683">
        <ele>2052.0</ele>
        <time>2015-08-16T12:43:30Z</time>
      </trkpt>
      <trkpt lat="40.452400" lon="-5.259617">
        <ele>2051.0</ele>
        <time>2015-08-16T12:43:31Z</time>
      </trkpt>
      <trkpt lat="40.452483" lon="-5.259550">
        <ele>2051.0</ele>
        <time>2015-08-16T12:43:32Z</time>
      </trkpt>
      <trkpt lat="40.452567" lon="-5.259483">
        <ele>2051.0</ele>
        <time>2015-08-16T12:43:33Z</time>
      </trkpt>
      <trkpt lat="40.452650" lon="-5.259400">
        <ele>2052.0</ele>
        <time>2015-08-16T12:43:34Z</time>
      </trkpt>
      <trkpt lat="40.452750" lon="-5.259333">
        <ele>2053.0</ele>
        <time>2015-08-16T12:43:35Z</time>
      </trkpt>
      <trkpt lat="40.452833" lon="-5.259283">
        <ele>2054.0</ele>
        <time>2015-08-16T12:43:36Z</time>
      </trkpt>
      <trkpt lat="40.452933" lon="-5.259217">
        <ele>2055.0</ele>
        <time>2015-08-16T12:43:37Z</time>
      </trkpt>
      <trkpt lat="40.453017" lon="-5.259150">
        <ele>2057.0</ele>
        <time>2015-08-16T12:43:38Z</time>
      </trkpt>
      <trkpt lat="40.453117" lon="-5.259100">
        <ele>2059.0</ele>
        <time>2015-08-16T12:43:39Z</time>
      </trkpt>
      <trkpt lat="40.453200" lon="-5.259033">
        <ele>2061.0</ele>
        <time>2015-08-16T12:43:40Z</time>
      </trkpt>
      <trkpt lat="40.453267" lon="-5.259000">
        <ele>2062.0</ele>
        <time>2015-08-16T12:43:41Z</time>
      </trkpt>
      <trkpt lat="40.453333" lon="-5.259000">
        <ele>2064.0</ele>
        <time>2015-08-16T12:43:42Z</time>
      </trkpt>
      <trkpt lat="40.453383" lon="-5.259017">
        <ele>2063.0</ele>
        <time>2015-08-16T12:43:43Z</time>
      </trkpt>
      <trkpt lat="40.453433" lon="-5.259067">
        <ele>2063.0</ele>
        <time>2015-08-16T12:43:44Z</time>
      </trkpt>
      <trkpt lat="40.453467" lon="-5.259133">
        <ele>2063.0</ele>
        <time>2015-08-16T12:43:45Z</time>
      </trkpt>
      <trkpt lat="40.453483" lon="-5.259217">
        <ele>2064.0</ele>
        <time>2015-08-16T12:43:46Z</time>
      </trkpt>
      <trkpt lat="40.453467" lon="-5.259317">
        <ele>2065.0</ele>
        <time>2015-08-16T12:43:47Z</time>
      </trkpt>
      <trkpt lat="40.453417" lon="-5.259383">
        <ele>2067.0</ele>
        <time>2015-08-16T12:43:48Z</time>
      </trkpt>
      <trkpt lat="40.453333" lon="-5.259450">
        <ele>2070.0</ele>
        <time>2015-08-16T12:43:49Z</time>
      </trkpt>
      <trkpt lat="40.453250" lon="-5.259500">
        <ele>2072.0</ele>
        <time>2015-08-16T12:43:50Z</time>
      </trkpt>
      <trkpt lat="40.453167" lon="-5.259533">
        <ele>2075.0</ele>
        <time>2015-08-16T12:43:51Z</time>
      </trkpt>
      <trkpt lat="40.453067" lon="-5.259533">
        <ele>2078.0</ele>
        <time>2015-08-16T12:43:52Z</time>
      </trkpt>
      <trkpt lat="40.452950" lon="-5.259483">
        <ele>2080.0</ele>
        <time>2015-08-16T12:43:53Z</time>
      </trkpt>
      <trkpt lat="40.452833" lon="-5.259383">
        <ele>2082.0</ele>
        <time>2015-08-16T12:43:54Z</time>
      </trkpt>
      <trkpt lat="40.452750" lon="-5.259267">
        <ele>2084.0</ele>
        <time>2015-08-16T12:43:55Z</time>
      </trkpt>
      <trkpt lat="40.452683" lon="-5.259100">
        <ele>2087.0</ele>
        <time>2015-08-16T12:43:56Z</time>
      </trkpt>
      <trkpt lat="40.452667" lon="-5.258933">
        <ele>2089.0</ele>
        <time>2015-08-16T12:43:57Z</time>
      </trkpt>
      <trkpt lat="40.452700" lon="-5.258783">
        <ele>2089.0</ele>
        <time>2015-08-16T12:43:58Z</time>
      </trkpt>
      <trkpt lat="40.452767" lon="-5.258667">
        <ele>2090.0</ele>
        <time>2015-08-16T12:43:59Z</time>
      </trkpt>
      <trkpt lat="40.452850" lon="-5.258583">
        <ele>2091.0</ele>
        <time>2015-08-16T12:44:00Z</time>
      </trkpt>
      <trkpt lat="40.452933" lon="-5.258533">
        <ele>2094.0</ele>
        <time>2015-08-16T12:44:01Z</time>
      </trkpt>
      <trkpt lat="40.453017" lon="-5.258533">
        <ele>2095.0</ele>
        <time>2015-08-16T12:44:02Z</time>
      </trkpt>
      <trkpt lat="40.453083" lon="-5.258550">
        <ele>2096.0</ele>
        <time>2015-08-16T12:44:03Z</time>
      </trkpt>
      <trkpt lat="40.453167" lon="-5.258600">
        <ele>2097.0</ele>
        <time>2015-08-16T12:44:04Z</time>
      </trkpt>
      <trkpt lat="40.453233" lon="-5.258650">
        <ele>2101.0</ele>
        <time>2015-08-16T12:44:05Z</time>
      </trkpt>
      <trkpt lat="40.453250" lon="-5.258717">
        <ele>2104.0</ele>
        <time>2015-08-16T12:44:06Z</time>
      </trkpt>
      <trkpt lat="40.453267" lon="-5.258800">
        <ele>2106.0</ele>
        <time>2015-08-16T12:44:07Z</time>
      </trkpt>
      <trkpt lat="40.453233" lon="-5.258883">
        <ele>2108.0</ele>
        <time>2015-08-16T12:44:08Z</time>
      </trkpt>
      <trkpt lat="40.453183" lon="-5.258983">
        <ele>2110.0</ele>
        <time>2015-08-16T12:44:09Z</time>
      </trkpt>
      <trkpt lat="40.453100" lon="-5.259050">
        <ele>2114.0</ele>
        <time>2015-08-16T12:44:10Z</time>
      </trkpt>
      <trkpt lat="40.453000" lon="-5.259067">
        <ele>2118.0</ele>
        <time>2015-08-16T12:44:11Z</time>
      </trkpt>
      <trkpt lat="40.452883" lon="-5.259050">
        <ele>2121.0</ele>
        <time>2015-08-16T12:44:12Z</time>
      </trkpt>
      <trkpt lat="40.452800" lon="-5.258967">
        <ele>2125.0</ele>
        <time>2015-08-16T12:44:13Z</time>
      </trkpt>
      <trkpt lat="40.452717" lon="-5.258883">
        <ele>2127.0</ele>
        <time>2015-08-16T12:44:14Z</time>
      </trkpt>
      <trkpt lat="40.452650" lon="-5.258767">
        <ele>2129.0</ele>
        <time>2015-08-16T12:44:15Z</time>
      </trkpt>
      <trkpt lat="40.452583" lon="-5.258633">
        <ele>2130.0</ele>
        <time>2015-08-16T12:44:16Z</time>
      </trkpt>
      <trkpt lat="40.452567" lon="-5.258467">
        <ele>2130.0</ele>
        <time>2015-08-16T12:44:17Z</time>
      </trkpt>
      <trkpt lat="40.452567" lon="-5.258300">
        <ele>2130.0</ele>
        <time>2015-08-16T12:44:18Z</time>
      </trkpt>
      <trkpt lat="40.452600" lon="-5.258133">
        <ele>2130.0</ele>
        <time>2015-08-16T12:44:19Z</time>
      </trkpt>
      <trkpt lat="40.452650" lon="-5.257983">
        <ele>2132.0</ele>
        <time>2015-08-16T12:44:20Z</time>
      </trkpt>
      <trkpt lat="40.452717" lon="-5.257883">
        <ele>2135.0</ele>
        <time>2015-08-16T12:44:21Z</time>
      </trkpt>
      <trkpt lat="40.452783" lon="-5.257817">
        <ele>2137.0</ele>
        <time>2015-08-16T12:44:22Z</time>
      </trkpt>
      <trkpt lat="40.452867" lon="-5.257800">
        <ele>2137.0</ele>
        <time>2015-08-16T12:44:23Z</time>
      </trkpt>
      <trkpt lat="40.452950" lon="-5.257783">
        <ele>2138.0</ele>
        <time>2015-08-16T12:44:24Z</time>
      </trkpt>
      <trkpt lat="40.453033" lon="-5.257800">
        <ele>2140.0</ele>
        <time>2015-08-16T12:44:25Z</time>
      </trkpt>
      <trkpt lat="40.453117" lon="-5.257850">
        <ele>2143.0</ele>
        <time>2015-08-16T12:44:26Z</time>
      </trkpt>
      <trkpt lat="40.453150" lon="-5.257933">
        <ele>2145.0</ele>
        <time>2015-08-16T12:44:27Z</time>
      </trkpt>
      <trkpt lat="40.453167" lon="-5.258017">
        <ele>2147.0</ele>
        <time>2015-08-16T12:44:28Z</time>
      </trkpt>
      <trkpt lat="40.453133" lon="-5.258100">
        <ele>2146.0</ele>
        <time>2015-08-16T12:44:29Z</time>
      </trkpt>
      <trkpt lat="40.453067" lon="-5.258200">
        <ele>2146.0</ele>
        <time>2015-08-16T12:44:30Z</time>
      </trkpt>
      <trkpt lat="40.452983" lon="-5.258283">
        <ele>2146.0</ele>
        <time>2015-08-16T12:44:31Z</time>
      </trkpt>
      <trkpt lat="40.452883" lon="-5.258367">
        <ele>2147.0</ele>
        <time>2015-08-16T12:44:32Z</time>
      </trkpt>
      <trkpt lat="40.452783" lon="-5.258433">
        <ele>2149.0</ele>
        <time>2015-08-16T12:44:33Z</time>
      </trkpt>
      <trkpt lat="40.452667" lon="-5.258483">
        <ele>2152.0</ele>
        <time>2015-08-16T12:44:34Z</time>
      </trkpt>
      <trkpt lat="40.452550" lon="-5.258500">
        <ele>2155.0</ele>
        <time>2015-08-16T12:44:35Z</time>
      </trkpt>
      <trkpt lat="40.452450" lon="-5.258467">
        <ele>2158.0</ele>
        <time>2015-08-16T12:44:36Z</time>
      </trkpt>
      <trkpt lat="40.452350" lon="-5.258383">
        <ele>2159.0</ele>
        <time>2015-08-16T12:44:37Z</time>
      </trkpt>
      <trkpt lat="40.452250" lon="-5.258283">
        <ele>2160.0</ele>
        <time>2015-08-16T12:44:38Z</time>
      </trkpt>
      <trkpt lat="40.452150" lon="-5.258217">
        <ele>2163.0</ele>
        <time>2015-08-16T12:44:39Z</time>
      </trkpt>
      <trkpt lat="40.452050" lon="-5.258167">
        <ele>2165.0</ele>
        <time>2015-08-16T12:44:40Z</time>
      </trkpt>
      <trkpt lat="40.451967" lon="-5.258167">
        <ele>2167.0</ele>
        <time>2015-08-16T12:44:41Z</time>
      </trkpt>
      <trkpt lat="40.451900" lon="-5.258200">
        <ele>2169.0</ele>
        <time>2015-08-16T12:44:42Z</time>
      </trkpt>
      <trkpt lat="40.451850" lon="-5.258250">
        <ele>2171.0</ele>
        <time>2015-08-16T12:44:43Z</time>
      </trkpt>
      <trkpt lat="40.451800" lon="-5.258333">
        <ele>2175.0</ele>
        <time>2015-08-16T12:44:44Z</time>
      </trkpt>
      <trkpt lat="40.451800" lon="-5.258400">
        <ele>2179.0</ele>
        <time>2015-08-16T12:44:45Z</time>
      </trkpt>
      <trkpt lat="40.451817" lon="-5.258467">
        <ele>2182.0</ele>
        <time>2015-08-16T12:44:46Z</time>
      </trkpt>
      <trkpt lat="40.451850" lon="-5.258517">
        <ele>2185.0</ele>
        <time>2015-08-16T12:44:47Z</time>
      </trkpt>
      <trkpt lat="40.451883" lon="-5.258567">
        <ele>2187.0</ele>
        <time>2015-08-16T12:44:48Z</time>
      </trkpt>
      <trkpt lat="40.451933" lon="-5.258633">
        <ele>2189.0</ele>
        <time>2015-08-16T12:44:49Z</time>
      </trkpt>
      <trkpt lat="40.452017" lon="-5.258667">
        <ele>2191.0</ele>
        <time>2015-08-16T12:44:50Z</time>
      </trkpt>
      <trkpt lat="40.452100" lon="-5.258650">
        <ele>2193.0</ele>
        <time>2015-08-16T12:44:51Z</time>
      </trkpt>
      <trkpt lat="40.452183" lon="-5.258600">
        <ele>2195.0</ele>
        <time>2015-08-16T12:44:52Z</time>
      </trkpt>
      <trkpt lat="40.452250" lon="-5.258500">
        <ele>2196.0</ele>
        <time>2015-08-16T12:44:53Z</time>
      </trkpt>
      <trkpt lat="40.452300" lon="-5.258383">
        <ele>2197.0</ele>
        <time>2015-08-16T12:44:54Z</time>
      </trkpt>
      <trkpt lat="40.452317" lon="-5.258233">
        <ele>2198.0</ele>
        <time>2015-08-16T12:44:55Z</time>
      </trkpt>
      <trkpt lat="40.452317" lon="-5.258067">
        <ele>2198.0</ele>
        <time>2015-08-16T12:44:56Z</time>
      </trkpt>
      <trkpt lat="40.452267" lon="-5.257917">
        <ele>2198.0</ele>
        <time>2015-08-16T12:44:57Z</time>
      </trkpt>
      <trkpt lat="40.452200" lon="-5.257750">
        <ele>2197.0</ele>
        <time>2015-08-16T12:44:58Z</time>
      </trkpt>
      <trkpt lat="40.452100" lon="-5.257633">
        <ele>2197.0</ele>
        <time>2015-08-16T12:44:59Z</time>
      </trkpt>
      <trkpt lat="40.451983" lon="-5.257567">
        <ele>2198.0</ele>
        <time>2015-08-16T12:45:00Z</time>
      </trkpt>
      <trkpt lat="40.451867" lon="-5.257533">
        <ele>2199.0</ele>
        <time>2015-08-16T12:45:01Z</time>
      </trkpt>
      <trkpt lat="40.451767" lon="-5.257550">
        <ele>2202.0</ele>
        <time>2015-08-16T12:45:02Z</time>
      </trkpt>
      <trkpt lat="40.451683" lon="-5.257583">
        <ele>2205.0</ele>
        <time>2015-08-16T12:45:03Z</time>
      </trkpt>
      <trkpt lat="40.451617" lon="-5.257617">
        <ele>2208.0</ele>
        <time>2015-08-16T12:45:04Z</time>
      </trkpt>
      <trkpt lat="40.451550" lon="-5.257633">
        <ele>2211.0</ele>
        <time>2015-08-16T12:45:05Z</time>
      </trkpt>
      <trkpt lat="40.451483" lon="-5.257667">
        <ele>2213.0</ele>
        <time>2015-08-16T12:45:06Z</time>
      </trkpt>
      <trkpt lat="40.451400" lon="-5.257717">
        <ele>2216.0</ele>
        <time>2015-08-16T12:45:07Z</time>
      </trkpt>
      <trkpt lat="40.451333" lon="-5.257767">
        <ele>2218.0</ele>
        <time>2015-08-16T12:45:08Z</time>
      </trkpt>
      <trkpt lat="40.451300" lon="-5.257833">
        <ele>2220.0</ele>
        <time>2015-08-16T12:45:09Z</time>
      </trkpt>
      <trkpt lat="40.451267" lon="-5.257917">
        <ele>2221.0</ele>
        <time>2015-08-16T12:45:10Z</time>
      </trkpt>
      <trkpt lat="40.451283" lon="-5.258017">
        <ele>2222.0</ele>
        <time>2015-08-16T12:45:11Z</time>
      </trkpt>
      <trkpt lat="40.451333" lon="-5.258100">
        <ele>2222.0</ele>
        <time>2015-08-16T12:45:12Z</time>
      </trkpt>
      <trkpt lat="40.451400" lon="-5.258183">
        <ele>2222.0</ele>
        <time>2015-08-16T12:45:13Z</time>
      </trkpt>
      <trkpt lat="40.451500" lon="-5.258200">
        <ele>2223.0</ele>
        <time>2015-08-16T12:45:14Z</time>
      </trkpt>
      <trkpt lat="40.451600" lon="-5.258150">
        <ele>2223.0</ele>
        <time>2015-08-16T12:45:15Z</time>
      </trkpt>
      <trkpt lat="40.451700" lon="-5.258067">
        <ele>2224.0</ele>
        <time>2015-08-16T12:45:16Z</time>
      </trkpt>
      <trkpt lat="40.451783" lon="-5.257967">
        <ele>2226.0</ele>
        <time>2015-08-16T12:45:17Z</time>
      </trkpt>
      <trkpt lat="40.451850" lon="-5.257883">
        <ele>2228.0</ele>
        <time>2015-08-16T12:45:18Z</time>
      </trkpt>
      <trkpt lat="40.451900" lon="-5.257800">
        <ele>2229.0</ele>
        <time>2015-08-16T12:45:19Z</time>
      </trkpt>
      <trkpt lat="40.451950" lon="-5.257700">
        <ele>2229.0</ele>
        <time>2015-08-16T12:45:20Z</time>
      </trkpt>
      <trkpt lat="40.452000" lon="-5.257600">
        <ele>2227.0</ele>
        <time>2015-08-16T12:45:21Z</time>
      </trkpt>
      <trkpt lat="40.452050" lon="-5.257483">
        <ele>2226.0</ele>
        <time>2015-08-16T12:45:22Z</time>
      </trkpt>
      <trkpt lat="40.452117" lon="-5.257383">
        <ele>2225.0</ele>
        <time>2015-08-16T12:45:23Z</time>
      </trkpt>
      <trkpt lat="40.452183" lon="-5.257267">
        <ele>2225.0</ele>
        <time>2015-08-16T12:45:24Z</time>
      </trkpt>
      <trkpt lat="40.452233" lon="-5.257183">
        <ele>2226.0</ele>
        <time>2015-08-16T12:45:25Z</time>
      </trkpt>
      <trkpt lat="40.452283" lon="-5.257133">
        <ele>2226.0</ele>
        <time>2015-08-16T12:45:26Z</time>
      </trkpt>
      <trkpt lat="40.452350" lon="-5.257083">
        <ele>2225.0</ele>
        <time>2015-08-16T12:45:27Z</time>
      </trkpt>
      <trkpt lat="40.452417" lon="-5.257050">
        <ele>2223.0</ele>
        <time>2015-08-16T12:45:28Z</time>
      </trkpt>
      <trkpt lat="40.452500" lon="-5.257000">
        <ele>2222.0</ele>
        <time>2015-08-16T12:45:29Z</time>
      </trkpt>
      <trkpt lat="40.452583" lon="-5.256933">
        <ele>2222.0</ele>
        <time>2015-08-16T12:45:30Z</time>
      </trkpt>
      <trkpt lat="40.452667" lon="-5.256883">
        <ele>2223.0</ele>
        <time>2015-08-16T12:45:31Z</time>
      </trkpt>
      <trkpt lat="40.452750" lon="-5.256833">
        <ele>2225.0</ele>
        <time>2015-08-16T12:45:32Z</time>
      </trkpt>
      <trkpt lat="40.452817" lon="-5.256783">
        <ele>2228.0</ele>
        <time>2015-08-16T12:45:33Z</time>
      </trkpt>
      <trkpt lat="40.452900" lon="-5.256733">
        <ele>2232.0</ele>
        <time>2015-08-16T12:45:34Z</time>
      </trkpt>
      <trkpt lat="40.452967" lon="-5.256683">
        <ele>2234.0</ele>
        <time>2015-08-16T12:45:35Z</time>
      </trkpt>
      <trkpt lat="40.453050" lon="-5.256633">
        <ele>2236.0</ele>
        <time>2015-08-16T12:45:36Z</time>
      </trkpt>
      <trkpt lat="40.453117" lon="-5.256567">
        <ele>2239.0</ele>
        <time>2015-08-16T12:45:37Z</time>
      </trkpt>
      <trkpt lat="40.453200" lon="-5.256533">
        <ele>2242.0</ele>
        <time>2015-08-16T12:45:38Z</time>
      </trkpt>
      <trkpt lat="40.453267" lon="-5.256467">
        <ele>2244.0</ele>
        <time>2015-08-16T12:45:39Z</time>
      </trkpt>
      <trkpt lat="40.453333" lon="-5.256400">
        <ele>2247.0</ele>
        <time>2015-08-16T12:45:40Z</time>
      </trkpt>
      <trkpt lat="40.453383" lon="-5.256317">
        <ele>2249.0</ele>
        <time>2015-08-16T12:45:41Z</time>
      </trkpt>
      <trkpt lat="40.453433" lon="-5.256200">
        <ele>2249.0</ele>
        <time>2015-08-16T12:45:42Z</time>
      </trkpt>
      <trkpt lat="40.453433" lon="-5.256067">
        <ele>2249.0</ele>
        <time>2015-08-16T12:45:43Z</time>
      </trkpt>
      <trkpt lat="40.453417" lon="-5.255900">
        <ele>2248.0</ele>
        <time>2015-08-16T12:45:44Z</time>
      </trkpt>
      <trkpt lat="40.453350" lon="-5.255767">
        <ele>2247.0</ele>
        <time>2015-08-16T12:45:45Z</time>
      </trkpt>
      <trkpt lat="40.453267" lon="-5.255650">
        <ele>2247.0</ele>
        <time>2015-08-16T12:45:46Z</time>
      </trkpt>
      <trkpt lat="40.453150" lon="-5.255583">
        <ele>2247.0</ele>
        <time>2015-08-16T12:45:47Z</time>
      </trkpt>
      <trkpt lat="40.453017" lon="-5.255567">
        <ele>2247.0</ele>
        <time>2015-08-16T12:45:48Z</time>
      </trkpt>
      <trkpt lat="40.452917" lon="-5.255617">
        <ele>2248.0</ele>
        <time>2015-08-16T12:45:49Z</time>
      </trkpt>
      <trkpt lat="40.452833" lon="-5.255700">
        <ele>2249.0</ele>
        <time>2015-08-16T12:45:50Z</time>
      </trkpt>
      <trkpt lat="40.452783" lon="-5.255783">
        <ele>2250.0</ele>
        <time>2015-08-16T12:45:51Z</time>
      </trkpt>
      <trkpt lat="40.452750" lon="-5.255883">
        <ele>2253.0</ele>
        <time>2015-08-16T12:45:52Z</time>
      </trkpt>
      <trkpt lat="40.452717" lon="-5.255950">
        <ele>2255.0</ele>
        <time>2015-08-16T12:45:53Z</time>
      </trkpt>
      <trkpt lat="40.452683" lon="-5.256033">
        <ele>2257.0</ele>
        <time>2015-08-16T12:45:54Z</time>
      </trkpt>
      <trkpt lat="40.452633" lon="-5.256133">
        <ele>2259.0</ele>
        <time>2015-08-16T12:45:55Z</time>
      </trkpt>
      <trkpt lat="40.452600" lon="-5.256233">
        <ele>2260.0</ele>
        <time>2015-08-16T12:45:56Z</time>
      </trkpt>
      <trkpt lat="40.452583" lon="-5.256350">
        <ele>2262.0</ele>
        <time>2015-08-16T12:45:57Z</time>
      </trkpt>
      <trkpt lat="40.452583" lon="-5.256450">
        <ele>2263.0</ele>
        <time>2015-08-16T12:45:58Z</time>
      </trkpt>
      <trkpt lat="40.452633" lon="-5.256533">
        <ele>2264.0</ele>
        <time>2015-08-16T12:45:59Z</time>
      </trkpt>
      <trkpt lat="40.452700" lon="-5.256567">
        <ele>2265.0</ele>
        <time>2015-08-16T12:46:00Z</time>
      </trkpt>
      <trkpt lat="40.452767" lon="-5.256567">
        <ele>2266.0</ele>
        <time>2015-08-16T12:46:01Z</time>
      </trkpt>
      <trkpt lat="40.452850" lon="-5.256533">
        <ele>2267.0</ele>
        <time>2015-08-16T12:46:02Z</time>
      </trkpt>
      <trkpt lat="40.452933" lon="-5.256483">
        <ele>2269.0</ele>
        <time>2015-08-16T12:46:03Z</time>
      </trkpt>
      <trkpt lat="40.452983" lon="-5.256417">
        <ele>2271.0</ele>
        <time>2015-08-16T12:46:04Z</time>
      </trkpt>
      <trkpt lat="40.453033" lon="-5.256333">
        <ele>2274.0</ele>
        <time>2015-08-16T12:46:05Z</time>
      </trkpt>
      <trkpt lat="40.453050" lon="-5.256233">
        <ele>2275.0</ele>
        <time>2015-08-16T12:46:06Z</time>
      </trkpt>
      <trkpt lat="40.453050" lon="-5.256133">
        <ele>2275.0</ele>
        <time>2015-08-16T12:46:07Z</time>
      </trkpt>
      <trkpt lat="40.453033" lon="-5.256000">
        <ele>2275.0</ele>
        <time>2015-08-16T12:46:08Z</time>
      </trkpt>
      <trkpt lat="40.452983" lon="-5.255867">
        <ele>2274.0</ele>
        <time>2015-08-16T12:46:09Z</time>
      </trkpt>
      <trkpt lat="40.452900" lon="-5.255750">
        <ele>2275.0</ele>
        <time>2015-08-16T12:46:10Z</time>
      </trkpt>
      <trkpt lat="40.452800" lon="-5.255650">
        <ele>2276.0</ele>
        <time>2015-08-16T12:46:11Z</time>
      </trkpt>
      <trkpt lat="40.452683" lon="-5.255600">
        <ele>2278.0</ele>
        <time>2015-08-16T12:46:12Z</time>
      </trkpt>
      <trkpt lat="40.452567" lon="-5.255567">
        <ele>2280.0</ele>
        <time>2015-08-16T12:46:13Z</time>
      </trkpt>
      <trkpt lat="40.452450" lon="-5.255583">
        <ele>2281.0</ele>
        <time>2015-08-16T12:46:14Z</time>
      </trkpt>
      <trkpt lat="40.452333" lon="-5.255617">
        <ele>2282.0</ele>
        <time>2015-08-16T12:46:15Z</time>
      </trkpt>
      <trkpt lat="40.452233" lon="-5.255683">
        <ele>2285.0</ele>
        <time>2015-08-16T12:46:16Z</time>
      </trkpt>
      <trkpt lat="40.452150" lon="-5.255767">
        <ele>2287.0</ele>
        <time>2015-08-16T12:46:17Z</time>
      </trkpt>
      <trkpt lat="40.452100" lon="-5.255867">
        <ele>2288.0</ele>
        <time>2015-08-16T12:46:18Z</time>
      </trkpt>
      <trkpt lat="40.452067" lon="-5.255967">
        <ele>2289.0</ele>
        <time>2015-08-16T12:46:19Z</time>
      </trkpt>
      <trkpt lat="40.452067" lon="-5.256067">
        <ele>2289.0</ele>
        <time>2015-08-16T12:46:20Z</time>
      </trkpt>
      <trkpt lat="40.452100" lon="-5.256133">
        <ele>2288.0</ele>
        <time>2015-08-16T12:46:21Z</time>
      </trkpt>
      <trkpt lat="40.452167" lon="-5.256183">
        <ele>2287.0</ele>
        <time>2015-08-16T12:46:22Z</time>
      </trkpt>
      <trkpt lat="40.452233" lon="-5.256200">
        <ele>2287.0</ele>
        <time>2015-08-16T12:46:23Z</time>
      </trkpt>
      <trkpt lat="40.452317" lon="-5.256183">
        <ele>2286.0</ele>
        <time>2015-08-16T12:46:24Z</time>
      </trkpt>
      <trkpt lat="40.452400" lon="-5.256133">
        <ele>2285.0</ele>
        <time>2015-08-16T12:46:25Z</time>
      </trkpt>
      <trkpt lat="40.452483" lon="-5.256067">
        <ele>2284.0</ele>
        <time>2015-08-16T12:46:26Z</time>
      </trkpt>
      <trkpt lat="40.452583" lon="-5.256000">
        <ele>2284.0</ele>
        <time>2015-08-16T12:46:27Z</time>
      </trkpt>
      <trkpt lat="40.452667" lon="-5.255917">
        <ele>2285.0</ele>
        <time>2015-08-16T12:46:28Z</time>
      </trkpt>
      <trkpt lat="40.452733" lon="-5.255800">
        <ele>2286.0</ele>
        <time>2015-08-16T12:46:29Z</time>
      </trkpt>
      <trkpt lat="40.452800" lon="-5.255700">
        <ele>2287.0</ele>
        <time>2015-08-16T12:46:30Z</time>
      </trkpt>
      <trkpt lat="40.452850" lon="-5.255583">
        <ele>2290.0</ele>
        <time>2015-08-16T12:46:31Z</time>
      </trkpt>
      <trkpt lat="40.452883" lon="-5.255483">
        <ele>2292.0</ele>
        <time>2015-08-16T12:46:32Z</time>
      </trkpt>
      <trkpt lat="40.452933" lon="-5.255383">
        <ele>2294.0</ele>
        <time>2015-08-16T12:46:33Z</time>
      </trkpt>
      <trkpt lat="40.452983" lon="-5.255300">
        <ele>2295.0</ele>
        <time>2015-08-16T12:46:34Z</time>
      </trkpt>
      <trkpt lat="40.453033" lon="-5.255200">
        <ele>2295.0</ele>
        <time>2015-08-16T12:46:35Z</time>
      </trkpt>
      <trkpt lat="40.453083" lon="-5.255100">
        <ele>2295.0</ele>
        <time>2015-08-16T12:46:36Z</time>
      </trkpt>
      <trkpt lat="40.453150" lon="-5.254983">
        <ele>2295.0</ele>
        <time>2015-08-16T12:46:37Z</time>
      </trkpt>
      <trkpt lat="40.453217" lon="-5.254883">
        <ele>2295.0</ele>
        <time>2015-08-16T12:46:38Z</time>
      </trkpt>
      <trkpt lat="40.453300" lon="-5.254800">
        <ele>2296.0</ele>
        <time>2015-08-16T12:46:39Z</time>
      </trkpt>
      <trkpt lat="40.453367" lon="-5.254700">
        <ele>2297.0</ele>
        <time>2015-08-16T12:46:40Z</time>
      </trkpt>
      <trkpt lat="40.453450" lon="-5.254600">
        <ele>2298.0</ele>
        <time>2015-08-16T12:46:41Z</time>
      </trkpt>
      <trkpt lat="40.453533" lon="-5.254500">
        <ele>2299.0</ele>
        <time>2015-08-16T12:46:42Z</time>
      </trkpt>
      <trkpt lat="40.453617" lon="-5.254400">
        <ele>2301.0</ele>
        <time>2015-08-16T12:46:43Z</time>
      </trkpt>
      <trkpt lat="40.453683" lon="-5.254300">
        <ele>2303.0</ele>
        <time>2015-08-16T12:46:44Z</time>
      </trkpt>
      <trkpt lat="40.453750" lon="-5.254183">
        <ele>2305.0</ele>
        <time>2015-08-16T12:46:45Z</time>
      </trkpt>
      <trkpt lat="40.453800" lon="-5.254050">
        <ele>2307.0</ele>
        <time>2015-08-16T12:46:46Z</time>
      </trkpt>
      <trkpt lat="40.453867" lon="-5.253917">
        <ele>2310.0</ele>
        <time>2015-08-16T12:46:47Z</time>
      </trkpt>
      <trkpt lat="40.453933" lon="-5.253817">
        <ele>2313.0</ele>
        <time>2015-08-16T12:46:48Z</time>
      </trkpt>
      <trkpt lat="40.453983" lon="-5.253767">
        <ele>2316.0</ele>
        <time>2015-08-16T12:46:49Z</time>
      </trkpt>
      <trkpt lat="40.454050" lon="-5.253767">
        <ele>2317.0</ele>
        <time>2015-08-16T12:46:50Z</time>
      </trkpt>
      <trkpt lat="40.454117" lon="-5.253800">
        <ele>2317.0</ele>
        <time>2015-08-16T12:46:51Z</time>
      </trkpt>
      <trkpt lat="40.454183" lon="-5.253883">
        <ele>2317.0</ele>
        <time>2015-08-16T12:46:52Z</time>
      </trkpt>
      <trkpt lat="40.454217" lon="-5.253967">
        <ele>2319.0</ele>
        <time>2015-08-16T12:46:53Z</time>
      </trkpt>
      <trkpt lat="40.454233" lon="-5.254067">
        <ele>2321.0</ele>
        <time>2015-08-16T12:46:54Z</time>
      </trkpt>
      <trkpt lat="40.454200" lon="-5.254183">
        <ele>2323.0</ele>
        <time>2015-08-16T12:46:55Z</time>
      </trkpt>
      <trkpt lat="40.454133" lon="-5.254267">
        <ele>2324.0</ele>
        <time>2015-08-16T12:46:56Z</time>
      </trkpt>
      <trkpt lat="40.454050" lon="-5.254333">
        <ele>2326.0</ele>
        <time>2015-08-16T12:46:57Z</time>
      </trkpt>
      <trkpt lat="40.453933" lon="-5.254350">
        <ele>2327.0</ele>
        <time>2015-08-16T12:46:58Z</time>
      </trkpt>
      <trkpt lat="40.453817" lon="-5.254333">
        <ele>2328.0</ele>
        <time>2015-08-16T12:46:59Z</time>
      </trkpt>
      <trkpt lat="40.453700" lon="-5.254267">
        <ele>2329.0</ele>
        <time>2015-08-16T12:47:00Z</time>
      </trkpt>
      <trkpt lat="40.453583" lon="-5.254167">
        <ele>2331.0</ele>
        <time>2015-08-16T12:47:01Z</time>
      </trkpt>
      <trkpt lat="40.453517" lon="-5.254033">
        <ele>2333.0</ele>
        <time>2015-08-16T12:47:02Z</time>
      </trkpt>
      <trkpt lat="40.453467" lon="-5.253883">
        <ele>2334.0</ele>
        <time>2015-08-16T12:47:03Z</time>
      </trkpt>
      <trkpt lat="40.453450" lon="-5.253733">
        <ele>2336.0</ele>
        <time>2015-08-16T12:47:04Z</time>
      </trkpt>
      <trkpt lat="40.453450" lon="-5.253567">
        <ele>2336.0</ele>
        <time>2015-08-16T12:47:05Z</time>
      </trkpt>
      <trkpt lat="40.453483" lon="-5.253433">
        <ele>2337.0</ele>
        <time>2015-08-16T12:47:06Z</time>
      </trkpt>
      <trkpt lat="40.453550" lon="-5.253300">
        <ele>2339.0</ele>
        <time>2015-08-16T12:47:07Z</time>
      </trkpt>
      <trkpt lat="40.453617" lon="-5.253233">
        <ele>2339.0</ele>
        <time>2015-08-16T12:47:08Z</time>
      </trkpt>
      <trkpt lat="40.453700" lon="-5.253217">
        <ele>2340.0</ele>
        <time>2015-08-16T12:47:09Z</time>
      </trkpt>
      <trkpt lat="40.453783" lon="-5.253250">
        <ele>2341.0</ele>
        <time>2015-08-16T12:47:10Z</time>
      </trkpt>
      <trkpt lat="40.453833" lon="-5.253333">
        <ele>2342.0</ele>
        <time>2015-08-16T12:47:11Z</time>
      </trkpt>
      <trkpt lat="40.453833" lon="-5.253433">
        <ele>2344.0</ele>
        <time>2015-08-16T12:47:12Z</time>
      </trkpt>
      <trkpt lat="40.453800" lon="-5.253533">
        <ele>2345.0</ele>
        <time>2015-08-16T12:47:13Z</time>
      </trkpt>
      <trkpt lat="40.453700" lon="-5.253600">
        <ele>2345.0</ele>
        <time>2015-08-16T12:47:14Z</time>
      </trkpt>
      <trkpt lat="40.453583" lon="-5.253617">
        <ele>2346.0</ele>
        <time>2015-08-16T12:47:15Z</time>
      </trkpt>
      <trkpt lat="40.453467" lon="-5.253567">
        <ele>2347.0</ele>
        <time>2015-08-16T12:47:16Z</time>
      </trkpt>
      <trkpt lat="40.453350" lon="-5.253450">
        <ele>2347.0</ele>
        <time>2015-08-16T12:47:17Z</time>
      </trkpt>
      <trkpt lat="40.453267" lon="-5.253283">
        <ele>2348.0</ele>
        <time>2015-08-16T12:47:18Z</time>
      </trkpt>
      <trkpt lat="40.453233" lon="-5.253100">
        <ele>2350.0</ele>
        <time>2015-08-16T12:47:19Z</time>
      </trkpt>
      <trkpt lat="40.453217" lon="-5.252933">
        <ele>2352.0</ele>
        <time>2015-08-16T12:47:20Z</time>
      </trkpt>
      <trkpt lat="40.453233" lon="-5.252767">
        <ele>2354.0</ele>
        <time>2015-08-16T12:47:21Z</time>
      </trkpt>
      <trkpt lat="40.453283" lon="-5.252633">
        <ele>2354.0</ele>
        <time>2015-08-16T12:47:22Z</time>
      </trkpt>
      <trkpt lat="40.453367" lon="-5.252500">
        <ele>2354.0</ele>
        <time>2015-08-16T12:47:23Z</time>
      </trkpt>
      <trkpt lat="40.453467" lon="-5.252417">
        <ele>2355.0</ele>
        <time>2015-08-16T12:47:24Z</time>
      </trkpt>
      <trkpt lat="40.453567" lon="-5.252400">
        <ele>2357.0</ele>
        <time>2015-08-16T12:47:25Z</time>
      </trkpt>
      <trkpt lat="40.453650" lon="-5.252450">
        <ele>2359.0</ele>
        <time>2015-08-16T12:47:26Z</time>
      </trkpt>
      <trkpt lat="40.453700" lon="-5.252517">
        <ele>2363.0</ele>
        <time>2015-08-16T12:47:27Z</time>
      </trkpt>
      <trkpt lat="40.453750" lon="-5.252583">
        <ele>2368.0</ele>
        <time>2015-08-16T12:47:28Z</time>
      </trkpt>
      <trkpt lat="40.453783" lon="-5.252633">
        <ele>2371.0</ele>
        <time>2015-08-16T12:47:29Z</time>
      </trkpt>
      <trkpt lat="40.453833" lon="-5.252683">
        <ele>2374.0</ele>
        <time>2015-08-16T12:47:30Z</time>
      </trkpt>
      <trkpt lat="40.453883" lon="-5.252733">
        <ele>2376.0</ele>
        <time>2015-08-16T12:47:31Z</time>
      </trkpt>
      <trkpt lat="40.453950" lon="-5.252767">
        <ele>2377.0</ele>
        <time>2015-08-16T12:47:32Z</time>
      </trkpt>
      <trkpt lat="40.454033" lon="-5.252800">
        <ele>2379.0</ele>
        <time>2015-08-16T12:47:33Z</time>
      </trkpt>
      <trkpt lat="40.454117" lon="-5.252800">
        <ele>2381.0</ele>
        <time>2015-08-16T12:47:34Z</time>
      </trkpt>
      <trkpt lat="40.454217" lon="-5.252750">
        <ele>2382.0</ele>
        <time>2015-08-16T12:47:35Z</time>
      </trkpt>
      <trkpt lat="40.454300" lon="-5.252650">
        <ele>2384.0</ele>
        <time>2015-08-16T12:47:36Z</time>
      </trkpt>
      <trkpt lat="40.454350" lon="-5.252533">
        <ele>2385.0</ele>
        <time>2015-08-16T12:47:37Z</time>
      </trkpt>
      <trkpt lat="40.454367" lon="-5.252383">
        <ele>2385.0</ele>
        <time>2015-08-16T12:47:38Z</time>
      </trkpt>
      <trkpt lat="40.454350" lon="-5.252233">
        <ele>2384.0</ele>
        <time>2015-08-16T12:47:39Z</time>
      </trkpt>
      <trkpt lat="40.454300" lon="-5.252117">
        <ele>2382.0</ele>
        <time>2015-08-16T12:47:40Z</time>
      </trkpt>
      <trkpt lat="40.454217" lon="-5.252000">
        <ele>2380.0</ele>
        <time>2015-08-16T12:47:41Z</time>
      </trkpt>
      <trkpt lat="40.454117" lon="-5.251917">
        <ele>2378.0</ele>
        <time>2015-08-16T12:47:42Z</time>
      </trkpt>
      <trkpt lat="40.454000" lon="-5.251867">
        <ele>2378.0</ele>
        <time>2015-08-16T12:47:43Z</time>
      </trkpt>
      <trkpt lat="40.453883" lon="-5.251867">
        <ele>2377.0</ele>
        <time>2015-08-16T12:47:44Z</time>
      </trkpt>
      <trkpt lat="40.453783" lon="-5.251900">
        <ele>2377.0</ele>
        <time>2015-08-16T12:47:45Z</time>
      </trkpt>
      <trkpt lat="40.453683" lon="-5.251967">
        <ele>2379.0</ele>
        <time>2015-08-16T12:47:46Z</time>
      </trkpt>
      <trkpt lat="40.453633" lon="-5.252067">
        <ele>2382.0</ele>
        <time>2015-08-16T12:47:47Z</time>
      </trkpt>
      <trkpt lat="40.453600" lon="-5.252167">
        <ele>2386.0</ele>
        <time>2015-08-16T12:47:48Z</time>
      </trkpt>
      <trkpt lat="40.453583" lon="-5.252250">
        <ele>2390.0</ele>
        <time>2015-08-16T12:47:49Z</time>
      </trkpt>
      <trkpt lat="40.453550" lon="-5.252317">
        <ele>2394.0</ele>
        <time>2015-08-16T12:47:50Z</time>
      </trkpt>
      <trkpt lat="40.453517" lon="-5.252367">
        <ele>2396.0</ele>
        <time>2015-08-16T12:47:51Z</time>
      </trkpt>
      <trkpt lat="40.453483" lon="-5.252417">
        <ele>2397.0</ele>
        <time>2015-08-16T12:47:52Z</time>
      </trkpt>
      <trkpt lat="40.453467" lon="-5.252467">
        <ele>2397.0</ele>
        <time>2015-08-16T12:47:53Z</time>
      </trkpt>
      <trkpt lat="40.453467" lon="-5.252517">
        <ele>2397.0</ele>
        <time>2015-08-16T12:47:54Z</time>
      </trkpt>
      <trkpt lat="40.453500" lon="-5.252567">
        <ele>2395.0</ele>
        <time>2015-08-16T12:47:55Z</time>
      </trkpt>
      <trkpt lat="40.453567" lon="-5.252583">
        <ele>2393.0</ele>
        <time>2015-08-16T12:47:56Z</time>
      </trkpt>
      <trkpt lat="40.453667" lon="-5.252567">
        <ele>2392.0</ele>
        <time>2015-08-16T12:47:57Z</time>
      </trkpt>
      <trkpt lat="40.453767" lon="-5.252517">
        <ele>2394.0</ele>
        <time>2015-08-16T12:47:58Z</time>
      </trkpt>
      <trkpt lat="40.453850" lon="-5.252450">
        <ele>2397.0</ele>
        <time>2015-08-16T12:47:59Z</time>
      </trkpt>
      <trkpt lat="40.453933" lon="-5.252383">
        <ele>2399.0</ele>
        <time>2015-08-16T12:48:00Z</time>
      </trkpt>
      <trkpt lat="40.454000" lon="-5.252333">
        <ele>2401.0</ele>
        <time>2015-08-16T12:48:01Z</time>
      </trkpt>
      <trkpt lat="40.454067" lon="-5.252250">
        <ele>2400.0</ele>
        <time>2015-08-16T12:48:02Z</time>
      </trkpt>
      <trkpt lat="40.454133" lon="-5.252167">
        <ele>2400.0</ele>
        <time>2015-08-16T12:48:03Z</time>
      </trkpt>
      <trkpt lat="40.454183" lon="-5.252050">
        <ele>2399.0</ele>
        <time>2015-08-16T12:48:04Z</time>
      </trkpt>
      <trkpt lat="40.454250" lon="-5.251950">
        <ele>2399.0</ele>
        <time>2015-08-16T12:48:05Z</time>
      </trkpt>
      <trkpt lat="40.454283" lon="-5.251850">
        <ele>2400.0</ele>
        <time>2015-08-16T12:48:06Z</time>
      </trkpt>
      <trkpt lat="40.454333" lon="-5.251750">
        <ele>2401.0</ele>
        <time>2015-08-16T12:48:07Z</time>
      </trkpt>
      <trkpt lat="40.454367" lon="-5.251650">
        <ele>2402.0</ele>
        <time>2015-08-16T12:48:08Z</time>
      </trkpt>
      <trkpt lat="40.454383" lon="-5.251517">
        <ele>2402.0</ele>
        <time>2015-08-16T12:48:09Z</time>
      </trkpt>
      <trkpt lat="40.454367" lon="-5.251383">
        <ele>2402.0</ele>
        <time>2015-08-16T12:48:10Z</time>
      </trkpt>
      <trkpt lat="40.454333" lon="-5.251250">
        <ele>2403.0</ele>
        <time>2015-08-16T12:48:11Z</time>
      </trkpt>
      <trkpt lat="40.454250" lon="-5.251150">
        <ele>2404.0</ele>
        <time>2015-08-16T12:48:12Z</time>
      </trkpt>
      <trkpt lat="40.454150" lon="-5.251067">
        <ele>2403.0</ele>
        <time>2015-08-16T12:48:13Z</time>
      </trkpt>
      <trkpt lat="40.454050" lon="-5.251017">
        <ele>2404.0</ele>
        <time>2015-08-16T12:48:14Z</time>
      </trkpt>
      <trkpt lat="40.453950" lon="-5.251000">
        <ele>2404.0</ele>
        <time>2015-08-16T12:48:15Z</time>
      </trkpt>
      <trkpt lat="40.453850" lon="-5.251000">
        <ele>2405.0</ele>
        <time>2015-08-16T12:48:16Z</time>
      </trkpt>
      <trkpt lat="40.453767" lon="-5.251050">
        <ele>2404.0</ele>
        <time>2015-08-16T12:48:17Z</time>
      </trkpt>
      <trkpt lat="40.453683" lon="-5.251117">
        <ele>2403.0</ele>
        <time>2015-08-16T12:48:18Z</time>
      </trkpt>
      <trkpt lat="40.453633" lon="-5.251217">
        <ele>2402.0</ele>
        <time>2015-08-16T12:48:19Z</time>
      </trkpt>
      <trkpt lat="40.453600" lon="-5.251317">
        <ele>2402.0</ele>
        <time>2015-08-16T12:48:20Z</time>
      </trkpt>
      <trkpt lat="40.453583" lon="-5.251433">
        <ele>2401.0</ele>
        <time>2015-08-16T12:48:21Z</time>
      </trkpt>
      <trkpt lat="40.453600" lon="-5.251533">
        <ele>2401.0</ele>
        <time>2015-08-16T12:48:22Z</time>
      </trkpt>
      <trkpt lat="40.453633" lon="-5.251617">
        <ele>2400.0</ele>
        <time>2015-08-16T12:48:23Z</time>
      </trkpt>
      <trkpt lat="40.453683" lon="-5.251667">
        <ele>2399.0</ele>
        <time>2015-08-16T12:48:24Z</time>
      </trkpt>
      <trkpt lat="40.453750" lon="-5.251717">
        <ele>2398.0</ele>
        <time>2015-08-16T12:48:25Z</time>
      </trkpt>
      <trkpt lat="40.453817" lon="-5.251733">
        <ele>2396.0</ele>
        <time>2015-08-16T12:48:26Z</time>
      </trkpt>
      <trkpt lat="40.453917" lon="-5.251717">
        <ele>2396.0</ele>
        <time>2015-08-16T12:48:27Z</time>
      </trkpt>
      <trkpt lat="40.454000" lon="-5.251683">
        <ele>2396.0</ele>
        <time>2015-08-16T12:48:28Z</time>
      </trkpt>
      <trkpt lat="40.454100" lon="-5.251617">
        <ele>2397.0</ele>
        <time>2015-08-16T12:48:29Z</time>
      </trkpt>
      <trkpt lat="40.454183" lon="-5.251550">
        <ele>2397.0</ele>
        <time>2015-08-16T12:48:30Z</time>
      </trkpt>
      <trkpt lat="40.454283" lon="-5.251467">
        <ele>2396.0</ele>
        <time>2015-08-16T12:48:31Z</time>
      </trkpt>
      <trkpt lat="40.454367" lon="-5.251367">
        <ele>2396.0</ele>
        <time>2015-08-16T12:48:32Z</time>
      </trkpt>
      <trkpt lat="40.454433" lon="-5.251250">
        <ele>2395.0</ele>
        <time>2015-08-16T12:48:33Z</time>
      </trkpt>
      <trkpt lat="40.454517" lon="-5.251117">
        <ele>2395.0</ele>
        <time>2015-08-16T12:48:34Z</time>
      </trkpt>
      <trkpt lat="40.454583" lon="-5.250983">
        <ele>2396.0</ele>
        <time>2015-08-16T12:48:35Z</time>
      </trkpt>
      <trkpt lat="40.454650" lon="-5.250883">
        <ele>2398.0</ele>
        <time>2015-08-16T12:48:36Z</time>
      </trkpt>
      <trkpt lat="40.454717" lon="-5.250783">
        <ele>2400.0</ele>
        <time>2015-08-16T12:48:37Z</time>
      </trkpt>
      <trkpt lat="40.454783" lon="-5.250700">
        <ele>2400.0</ele>
        <time>2015-08-16T12:48:38Z</time>
      </trkpt>
      <trkpt lat="40.454817" lon="-5.250617">
        <ele>2398.0</ele>
        <time>2015-08-16T12:48:39Z</time>
      </trkpt>
      <trkpt lat="40.454867" lon="-5.250533">
        <ele>2394.0</ele>
        <time>2015-08-16T12:48:40Z</time>
      </trkpt>
      <trkpt lat="40.454917" lon="-5.250417">
        <ele>2389.0</ele>
        <time>2015-08-16T12:48:41Z</time>
      </trkpt>
      <trkpt lat="40.454967" lon="-5.250283">
        <ele>2384.0</ele>
        <time>2015-08-16T12:48:42Z</time>
      </trkpt>
      <trkpt lat="40.455050" lon="-5.250167">
        <ele>2380.0</ele>
        <time>2015-08-16T12:48:43Z</time>
      </trkpt>
      <trkpt lat="40.455133" lon="-5.250050">
        <ele>2378.0</ele>
        <time>2015-08-16T12:48:44Z</time>
      </trkpt>
      <trkpt lat="40.455233" lon="-5.249967">
        <ele>2375.0</ele>
        <time>2015-08-16T12:48:45Z</time>
      </trkpt>
      <trkpt lat="40.455333" lon="-5.249917">
        <ele>2373.0</ele>
        <time>2015-08-16T12:48:46Z</time>
      </trkpt>
      <trkpt lat="40.455433" lon="-5.249883">
        <ele>2371.0</ele>
        <time>2015-08-16T12:48:47Z</time>
      </trkpt>
      <trkpt lat="40.455517" lon="-5.249850">
        <ele>2368.0</ele>
        <time>2015-08-16T12:48:48Z</time>
      </trkpt>
      <trkpt lat="40.455617" lon="-5.249833">
        <ele>2365.0</ele>
        <time>2015-08-16T12:48:49Z</time>
      </trkpt>
      <trkpt lat="40.455717" lon="-5.249817">
        <ele>2362.0</ele>
        <time>2015-08-16T12:48:50Z</time>
      </trkpt>
      <trkpt lat="40.455817" lon="-5.249817">
        <ele>2359.0</ele>
        <time>2015-08-16T12:48:51Z</time>
      </trkpt>
      <trkpt lat="40.455933" lon="-5.249783">
        <ele>2358.0</ele>
        <time>2015-08-16T12:48:52Z</time>
      </trkpt>
      <trkpt lat="40.456033" lon="-5.249750">
        <ele>2358.0</ele>
        <time>2015-08-16T12:48:53Z</time>
      </trkpt>
      <trkpt lat="40.456133" lon="-5.249683">
        <ele>2358.0</ele>
        <time>2015-08-16T12:48:54Z</time>
      </trkpt>
      <trkpt lat="40.456217" lon="-5.249633">
        <ele>2359.0</ele>
        <time>2015-08-16T12:48:55Z</time>
      </trkpt>
      <trkpt lat="40.456300" lon="-5.249583">
        <ele>2359.0</ele>
        <time>2015-08-16T12:48:56Z</time>
      </trkpt>
      <trkpt lat="40.456383" lon="-5.249550">
        <ele>2359.0</ele>
        <time>2015-08-16T12:48:57Z</time>
      </trkpt>
      <trkpt lat="40.456483" lon="-5.249517">
        <ele>2358.0</ele>
        <time>2015-08-16T12:48:58Z</time>
      </trkpt>
      <trkpt lat="40.456567" lon="-5.249483">
        <ele>2357.0</ele>
        <time>2015-08-16T12:48:59Z</time>
      </trkpt>
      <trkpt lat="40.456633" lon="-5.249450">
        <ele>2355.0</ele>
        <time>2015-08-16T12:49:00Z</time>
      </trkpt>
      <trkpt lat="40.456717" lon="-5.249400">
        <ele>2353.0</ele>
        <time>2015-08-16T12:49:01Z</time>
      </trkpt>
      <trkpt lat="40.456800" lon="-5.249367">
        <ele>2350.0</ele>
        <time>2015-08-16T12:49:02Z</time>
      </trkpt>
      <trkpt lat="40.456900" lon="-5.249317">
        <ele>2348.0</ele>
        <time>2015-08-16T12:49:03Z</time>
      </trkpt>
      <trkpt lat="40.457000" lon="-5.249267">
        <ele>2346.0</ele>
        <time>2015-08-16T12:49:04Z</time>
      </trkpt>
      <trkpt lat="40.457083" lon="-5.249217">
        <ele>2345.0</ele>
        <time>2015-08-16T12:49:05Z</time>
      </trkpt>
      <trkpt lat="40.457167" lon="-5.249167">
        <ele>2344.0</ele>
        <time>2015-08-16T12:49:06Z</time>
      </trkpt>
      <trkpt lat="40.457250" lon="-5.249100">
        <ele>2342.0</ele>
        <time>2015-08-16T12:49:07Z</time>
      </trkpt>
      <trkpt lat="40.457333" lon="-5.249033">
        <ele>2340.0</ele>
        <time>2015-08-16T12:49:08Z</time>
      </trkpt>
      <trkpt lat="40.457417" lon="-5.248950">
        <ele>2337.0</ele>
        <time>2015-08-16T12:49:09Z</time>
      </trkpt>
      <trkpt lat="40.457500" lon="-5.248867">
        <ele>2334.0</ele>
        <time>2015-08-16T12:49:10Z</time>
      </trkpt>
      <trkpt lat="40.457600" lon="-5.248767">
        <ele>2332.0</ele>
        <time>2015-08-16T12:49:11Z</time>
      </trkpt>
      <trkpt lat="40.457683" lon="-5.248650">
        <ele>2331.0</ele>
        <time>2015-08-16T12:49:12Z</time>
      </trkpt>
      <trkpt lat="40.457767" lon="-5.248550">
        <ele>2332.0</ele>
        <time>2015-08-16T12:49:13Z</time>
      </trkpt>
      <trkpt lat="40.457850" lon="-5.248450">
        <ele>2332.0</ele>
        <time>2015-08-16T12:49:14Z</time>
      </trkpt>
      <trkpt lat="40.457917" lon="-5.248350">
        <ele>2332.0</ele>
        <time>2015-08-16T12:49:15Z</time>
      </trkpt>
      <trkpt lat="40.457983" lon="-5.248267">
        <ele>2332.0</ele>
        <time>2015-08-16T12:49:16Z</time>
      </trkpt>
      <trkpt lat="40.458033" lon="-5.248167">
        <ele>2331.0</ele>
        <time>2015-08-16T12:49:17Z</time>
      </trkpt>
      <trkpt lat="40.458100" lon="-5.248067">
        <ele>2329.0</ele>
        <time>2015-08-16T12:49:18Z</time>
      </trkpt>
      <trkpt lat="40.458167" lon="-5.247950">
        <ele>2326.0</ele>
        <time>2015-08-16T12:49:19Z</time>
      </trkpt>
      <trkpt lat="40.458250" lon="-5.247817">
        <ele>2322.0</ele>
        <time>2015-08-16T12:49:20Z</time>
      </trkpt>
      <trkpt lat="40.458333" lon="-5.247700">
        <ele>2320.0</ele>
        <time>2015-08-16T12:49:21Z</time>
      </trkpt>
      <trkpt lat="40.458417" lon="-5.247583">
        <ele>2318.0</ele>
        <time>2015-08-16T12:49:22Z</time>
      </trkpt>
      <trkpt lat="40.458500" lon="-5.247467">
        <ele>2318.0</ele>
        <time>2015-08-16T12:49:23Z</time>
      </trkpt>
      <trkpt lat="40.458567" lon="-5.247350">
        <ele>2317.0</ele>
        <time>2015-08-16T12:49:24Z</time>
      </trkpt>
      <trkpt lat="40.458650" lon="-5.247233">
        <ele>2316.0</ele>
        <time>2015-08-16T12:49:25Z</time>
      </trkpt>
      <trkpt lat="40.458750" lon="-5.247133">
        <ele>2315.0</ele>
        <time>2015-08-16T12:49:26Z</time>
      </trkpt>
      <trkpt lat="40.458850" lon="-5.247033">
        <ele>2314.0</ele>
        <time>2015-08-16T12:49:27Z</time>
      </trkpt>
      <trkpt lat="40.458950" lon="-5.246917">
        <ele>2314.0</ele>
        <time>2015-08-16T12:49:28Z</time>
      </trkpt>
      <trkpt lat="40.459033" lon="-5.246800">
        <ele>2315.0</ele>
        <time>2015-08-16T12:49:29Z</time>
      </trkpt>
      <trkpt lat="40.459117" lon="-5.246700">
        <ele>2317.0</ele>
        <time>2015-08-16T12:49:30Z</time>
      </trkpt>
      <trkpt lat="40.459200" lon="-5.246600">
        <ele>2317.0</ele>
        <time>2015-08-16T12:49:31Z</time>
      </trkpt>
      <trkpt lat="40.459283" lon="-5.246517">
        <ele>2317.0</ele>
        <time>2015-08-16T12:49:32Z</time>
      </trkpt>
      <trkpt lat="40.459383" lon="-5.246450">
        <ele>2316.0</ele>
        <time>2015-08-16T12:49:33Z</time>
      </trkpt>
      <trkpt lat="40.459467" lon="-5.246367">
        <ele>2315.0</ele>
        <time>2015-08-16T12:49:34Z</time>
      </trkpt>
      <trkpt lat="40.459550" lon="-5.246267">
        <ele>2313.0</ele>
        <time>2015-08-16T12:49:35Z</time>
      </trkpt>
      <trkpt lat="40.459633" lon="-5.246133">
        <ele>2311.0</ele>
        <time>2015-08-16T12:49:36Z</time>
      </trkpt>
      <trkpt lat="40.459733" lon="-5.246033">
        <ele>2310.0</ele>
        <time>2015-08-16T12:49:37Z</time>
      </trkpt>
      <trkpt lat="40.459817" lon="-5.245933">
        <ele>2308.0</ele>
        <time>2015-08-16T12:49:38Z</time>
      </trkpt>
      <trkpt lat="40.459900" lon="-5.245833">
        <ele>2306.0</ele>
        <time>2015-08-16T12:49:39Z</time>
      </trkpt>
      <trkpt lat="40.460000" lon="-5.245750">
        <ele>2305.0</ele>
        <time>2015-08-16T12:49:40Z</time>
      </trkpt>
      <trkpt lat="40.460067" lon="-5.245650">
        <ele>2303.0</ele>
        <time>2015-08-16T12:49:41Z</time>
      </trkpt>
      <trkpt lat="40.460150" lon="-5.245550">
        <ele>2300.0</ele>
        <time>2015-08-16T12:49:42Z</time>
      </trkpt>
      <trkpt lat="40.460233" lon="-5.245450">
        <ele>2298.0</ele>
        <time>2015-08-16T12:49:43Z</time>
      </trkpt>
      <trkpt lat="40.460333" lon="-5.245350">
        <ele>2295.0</ele>
        <time>2015-08-16T12:49:44Z</time>
      </trkpt>
      <trkpt lat="40.460417" lon="-5.245250">
        <ele>2294.0</ele>
        <time>2015-08-16T12:49:45Z</time>
      </trkpt>
      <trkpt lat="40.460500" lon="-5.245150">
        <ele>2292.0</ele>
        <time>2015-08-16T12:49:46Z</time>
      </trkpt>
      <trkpt lat="40.460567" lon="-5.245050">
        <ele>2291.0</ele>
        <time>2015-08-16T12:49:47Z</time>
      </trkpt>
      <trkpt lat="40.460633" lon="-5.244950">
        <ele>2289.0</ele>
        <time>2015-08-16T12:49:48Z</time>
      </trkpt>
      <trkpt lat="40.460700" lon="-5.244850">
        <ele>2286.0</ele>
        <time>2015-08-16T12:49:49Z</time>
      </trkpt>
      <trkpt lat="40.460767" lon="-5.244750">
        <ele>2283.0</ele>
        <time>2015-08-16T12:49:50Z</time>
      </trkpt>
      <trkpt lat="40.460867" lon="-5.244683">
        <ele>2281.0</ele>
        <time>2015-08-16T12:49:51Z</time>
      </trkpt>
      <trkpt lat="40.460950" lon="-5.244617">
        <ele>2279.0</ele>
        <time>2015-08-16T12:49:52Z</time>
      </trkpt>
      <trkpt lat="40.461033" lon="-5.244567">
        <ele>2278.0</ele>
        <time>2015-08-16T12:49:53Z</time>
      </trkpt>
      <trkpt lat="40.461133" lon="-5.244517">
        <ele>2278.0</ele>
        <time>2015-08-16T12:49:54Z</time>
      </trkpt>
      <trkpt lat="40.461217" lon="-5.244467">
        <ele>2278.0</ele>
        <time>2015-08-16T12:49:55Z</time>
      </trkpt>
      <trkpt lat="40.461300" lon="-5.244417">
        <ele>2277.0</ele>
        <time>2015-08-16T12:49:56Z</time>
      </trkpt>
      <trkpt lat="40.461383" lon="-5.244350">
        <ele>2275.0</ele>
        <time>2015-08-16T12:49:57Z</time>
      </trkpt>
      <trkpt lat="40.461467" lon="-5.244283">
        <ele>2274.0</ele>
        <time>2015-08-16T12:49:58Z</time>
      </trkpt>
      <trkpt lat="40.461567" lon="-5.244233">
        <ele>2272.0</ele>
        <time>2015-08-16T12:49:59Z</time>
      </trkpt>
      <trkpt lat="40.461650" lon="-5.244183">
        <ele>2270.0</ele>
        <time>2015-08-16T12:50:00Z</time>
      </trkpt>
      <trkpt lat="40.461733" lon="-5.244133">
        <ele>2268.0</ele>
        <time>2015-08-16T12:50:01Z</time>
      </trkpt>
      <trkpt lat="40.461833" lon="-5.244067">
        <ele>2266.0</ele>
        <time>2015-08-16T12:50:02Z</time>
      </trkpt>
      <trkpt lat="40.461917" lon="-5.244017">
        <ele>2264.0</ele>
        <time>2015-08-16T12:50:03Z</time>
      </trkpt>
      <trkpt lat="40.462000" lon="-5.243967">
        <ele>2262.0</ele>
        <time>2015-08-16T12:50:04Z</time>
      </trkpt>
      <trkpt lat="40.462100" lon="-5.243917">
        <ele>2260.0</ele>
        <time>2015-08-16T12:50:05Z</time>
      </trkpt>
      <trkpt lat="40.462183" lon="-5.243867">
        <ele>2258.0</ele>
        <time>2015-08-16T12:50:06Z</time>
      </trkpt>
      <trkpt lat="40.462267" lon="-5.243817">
        <ele>2256.0</ele>
        <time>2015-08-16T12:50:07Z</time>
      </trkpt>
      <trkpt lat="40.462350" lon="-5.243767">
        <ele>2255.0</ele>
        <time>2015-08-16T12:50:08Z</time>
      </trkpt>
      <trkpt lat="40.462433" lon="-5.243717">
        <ele>2253.0</ele>
        <time>2015-08-16T12:50:09Z</time>
      </trkpt>
      <trkpt lat="40.462517" lon="-5.243667">
        <ele>2251.0</ele>
        <time>2015-08-16T12:50:10Z</time>
      </trkpt>
      <trkpt lat="40.462600" lon="-5.243617">
        <ele>2249.0</ele>
        <time>2015-08-16T12:50:11Z</time>
      </trkpt>
      <trkpt lat="40.462683" lon="-5.243567">
        <ele>2246.0</ele>
        <time>2015-08-16T12:50:12Z</time>
      </trkpt>
      <trkpt lat="40.462767" lon="-5.243533">
        <ele>2244.0</ele>
        <time>2015-08-16T12:50:13Z</time>
      </trkpt>
      <trkpt lat="40.462850" lon="-5.243483">
        <ele>2241.0</ele>
        <time>2015-08-16T12:50:14Z</time>
      </trkpt>
      <trkpt lat="40.462950" lon="-5.243433">
        <ele>2240.0</ele>
        <time>2015-08-16T12:50:15Z</time>
      </trkpt>
      <trkpt lat="40.463033" lon="-5.243367">
        <ele>2238.0</ele>
        <time>2015-08-16T12:50:16Z</time>
      </trkpt>
      <trkpt lat="40.463100" lon="-5.243317">
        <ele>2238.0</ele>
        <time>2015-08-16T12:50:17Z</time>
      </trkpt>
      <trkpt lat="40.463167" lon="-5.243250">
        <ele>2238.0</ele>
        <time>2015-08-16T12:50:18Z</time>
      </trkpt>
      <trkpt lat="40.463233" lon="-5.243183">
        <ele>2237.0</ele>
        <time>2015-08-16T12:50:19Z</time>
      </trkpt>
      <trkpt lat="40.463300" lon="-5.243133">
        <ele>2235.0</ele>
        <time>2015-08-16T12:50:20Z</time>
      </trkpt>
      <trkpt lat="40.463367" lon="-5.243067">
        <ele>2234.0</ele>
        <time>2015-08-16T12:50:21Z</time>
      </trkpt>
      <trkpt lat="40.463450" lon="-5.243000">
        <ele>2233.0</ele>
        <time>2015-08-16T12:50:22Z</time>
      </trkpt>
      <trkpt lat="40.463517" lon="-5.242950">
        <ele>2232.0</ele>
        <time>2015-08-16T12:50:23Z</time>
      </trkpt>
      <trkpt lat="40.463600" lon="-5.242883">
        <ele>2231.0</ele>
        <time>2015-08-16T12:50:24Z</time>
      </trkpt>
      <trkpt lat="40.463667" lon="-5.242833">
        <ele>2230.0</ele>
        <time>2015-08-16T12:50:25Z</time>
      </trkpt>
      <trkpt lat="40.463750" lon="-5.242767">
        <ele>2229.0</ele>
        <time>2015-08-16T12:50:26Z</time>
      </trkpt>
      <trkpt lat="40.463817" lon="-5.242717">
        <ele>2228.0</ele>
        <time>2015-08-16T12:50:27Z</time>
      </trkpt>
      <trkpt lat="40.463900" lon="-5.242667">
        <ele>2226.0</ele>
        <time>2015-08-16T12:50:28Z</time>
      </trkpt>
      <trkpt lat="40.463983" lon="-5.242617">
        <ele>2224.0</ele>
        <time>2015-08-16T12:50:29Z</time>
      </trkpt>
      <trkpt lat="40.464067" lon="-5.242567">
        <ele>2222.0</ele>
        <time>2015-08-16T12:50:30Z</time>
      </trkpt>
      <trkpt lat="40.464150" lon="-5.242500">
        <ele>2220.0</ele>
        <time>2015-08-16T12:50:31Z</time>
      </trkpt>
      <trkpt lat="40.464233" lon="-5.242417">
        <ele>2219.0</ele>
        <time>2015-08-16T12:50:32Z</time>
      </trkpt>
      <trkpt lat="40.464300" lon="-5.242333">
        <ele>2219.0</ele>
        <time>2015-08-16T12:50:33Z</time>
      </trkpt>
      <trkpt lat="40.464383" lon="-5.242267">
        <ele>2219.0</ele>
        <time>2015-08-16T12:50:34Z</time>
      </trkpt>
      <trkpt lat="40.464450" lon="-5.242217">
        <ele>2218.0</ele>
        <time>2015-08-16T12:50:35Z</time>
      </trkpt>
      <trkpt lat="40.464533" lon="-5.242150">
        <ele>2216.0</ele>
        <time>2015-08-16T12:50:36Z</time>
      </trkpt>
      <trkpt lat="40.464617" lon="-5.242100">
        <ele>2215.0</ele>
        <time>2015-08-16T12:50:37Z</time>
      </trkpt>
      <trkpt lat="40.464700" lon="-5.242050">
        <ele>2214.0</ele>
        <time>2015-08-16T12:50:38Z</time>
      </trkpt>
      <trkpt lat="40.464783" lon="-5.241983">
        <ele>2213.0</ele>
        <time>2015-08-16T12:50:39Z</time>
      </trkpt>
      <trkpt lat="40.464883" lon="-5.241917">
        <ele>2211.0</ele>
        <time>2015-08-16T12:50:40Z</time>
      </trkpt>
      <trkpt lat="40.464967" lon="-5.241817">
        <ele>2209.0</ele>
        <time>2015-08-16T12:50:41Z</time>
      </trkpt>
      <trkpt lat="40.465067" lon="-5.241733">
        <ele>2208.0</ele>
        <time>2015-08-16T12:50:42Z</time>
      </trkpt>
      <trkpt lat="40.465167" lon="-5.241667">
        <ele>2207.0</ele>
        <time>2015-08-16T12:50:43Z</time>
      </trkpt>
      <trkpt lat="40.465250" lon="-5.241600">
        <ele>2208.0</ele>
        <time>2015-08-16T12:50:44Z</time>
      </trkpt>
      <trkpt lat="40.465350" lon="-5.241567">
        <ele>2208.0</ele>
        <time>2015-08-16T12:50:45Z</time>
      </trkpt>
      <trkpt lat="40.465433" lon="-5.241533">
        <ele>2209.0</ele>
        <time>2015-08-16T12:50:46Z</time>
      </trkpt>
      <trkpt lat="40.465517" lon="-5.241483">
        <ele>2208.0</ele>
        <time>2015-08-16T12:50:47Z</time>
      </trkpt>
      <trkpt lat="40.465583" lon="-5.241433">
        <ele>2207.0</ele>
        <time>2015-08-16T12:50:48Z</time>
      </trkpt>
      <trkpt lat="40.465683" lon="-5.241367">
        <ele>2205.0</ele>
        <time>2015-08-16T12:50:49Z</time>
      </trkpt>
      <trkpt lat="40.465767" lon="-5.241317">
        <ele>2203.0</ele>
        <time>2015-08-16T12:50:50Z</time>
      </trkpt>
      <trkpt lat="40.465867" lon="-5.241283">
        <ele>2201.0</ele>
        <time>2015-08-16T12:50:51Z</time>
      </trkpt>
      <trkpt lat="40.465967" lon="-5.241267">
        <ele>2200.0</ele>
        <time>2015-08-16T12:50:52Z</time>
      </trkpt>
      <trkpt lat="40.466067" lon="-5.241233">
        <ele>2199.0</ele>
        <time>2015-08-16T12:50:53Z</time>
      </trkpt>
      <trkpt lat="40.466150" lon="-5.241200">
        <ele>2198.0</ele>
        <time>2015-08-16T12:50:54Z</time>
      </trkpt>
      <trkpt lat="40.466233" lon="-5.241150">
        <ele>2196.0</ele>
        <time>2015-08-16T12:50:55Z</time>
      </trkpt>
      <trkpt lat="40.466317" lon="-5.241100">
        <ele>2195.0</ele>
        <time>2015-08-16T12:50:56Z</time>
      </trkpt>
      <trkpt lat="40.466400" lon="-5.241050">
        <ele>2193.0</ele>
        <time>2015-08-16T12:50:57Z</time>
      </trkpt>
      <trkpt lat="40.466483" lon="-5.241000">
        <ele>2191.0</ele>
        <time>2015-08-16T12:50:58Z</time>
      </trkpt>
      <trkpt lat="40.466583" lon="-5.240983">
        <ele>2190.0</ele>
        <time>2015-08-16T12:50:59Z</time>
      </trkpt>
      <trkpt lat="40.466667" lon="-5.240950">
        <ele>2188.0</ele>
        <time>2015-08-16T12:51:00Z</time>
      </trkpt>
      <trkpt lat="40.466733" lon="-5.240900">
        <ele>2187.0</ele>
        <time>2015-08-16T12:51:01Z</time>
      </trkpt>
      <trkpt lat="40.466817" lon="-5.240833">
        <ele>2184.0</ele>
        <time>2015-08-16T12:51:02Z</time>
      </trkpt>
      <trkpt lat="40.466883" lon="-5.240783">
        <ele>2182.0</ele>
        <time>2015-08-16T12:51:03Z</time>
      </trkpt>
      <trkpt lat="40.466950" lon="-5.240733">
        <ele>2180.0</ele>
        <time>2015-08-16T12:51:04Z</time>
      </trkpt>
      <trkpt lat="40.467033" lon="-5.240700">
        <ele>2177.0</ele>
        <time>2015-08-16T12:51:05Z</time>
      </trkpt>
      <trkpt lat="40.467100" lon="-5.240667">
        <ele>2176.0</ele>
        <time>2015-08-16T12:51:06Z</time>
      </trkpt>
      <trkpt lat="40.467183" lon="-5.240633">
        <ele>2174.0</ele>
        <time>2015-08-16T12:51:07Z</time>
      </trkpt>
      <trkpt lat="40.467250" lon="-5.240600">
        <ele>2172.0</ele>
        <time>2015-08-16T12:51:08Z</time>
      </trkpt>
      <trkpt lat="40.467317" lon="-5.240583">
        <ele>2170.0</ele>
        <time>2015-08-16T12:51:09Z</time>
      </trkpt>
      <trkpt lat="40.467400" lon="-5.240567">
        <ele>2169.0</ele>
        <time>2015-08-16T12:51:10Z</time>
      </trkpt>
      <trkpt lat="40.467467" lon="-5.240567">
        <ele>2167.0</ele>
        <time>2015-08-16T12:51:11Z</time>
      </trkpt>
      <trkpt lat="40.467550" lon="-5.240567">
        <ele>2165.0</ele>
        <time>2015-08-16T12:51:12Z</time>
      </trkpt>
      <trkpt lat="40.467633" lon="-5.240550">
        <ele>2165.0</ele>
        <time>2015-08-16T12:51:13Z</time>
      </trkpt>
      <trkpt lat="40.467717" lon="-5.240550">
        <ele>2165.0</ele>
        <time>2015-08-16T12:51:14Z</time>
      </trkpt>
      <trkpt lat="40.467783" lon="-5.240517">
        <ele>2166.0</ele>
        <time>2015-08-16T12:51:15Z</time>
      </trkpt>
      <trkpt lat="40.467850" lon="-5.240500">
        <ele>2166.0</ele>
        <time>2015-08-16T12:51:16Z</time>
      </trkpt>
      <trkpt lat="40.467900" lon="-5.240483">
        <ele>2166.0</ele>
        <time>2015-08-16T12:51:17Z</time>
      </trkpt>
      <trkpt lat="40.467967" lon="-5.240467">
        <ele>2165.0</ele>
        <time>2015-08-16T12:51:18Z</time>
      </trkpt>
      <trkpt lat="40.468033" lon="-5.240450">
        <ele>2163.0</ele>
        <time>2015-08-16T12:51:19Z</time>
      </trkpt>
      <trkpt lat="40.468117" lon="-5.240433">
        <ele>2163.0</ele>
        <time>2015-08-16T12:51:20Z</time>
      </trkpt>
      <trkpt lat="40.468200" lon="-5.240433">
        <ele>2163.0</ele>
        <time>2015-08-16T12:51:21Z</time>
      </trkpt>
      <trkpt lat="40.468267" lon="-5.240433">
        <ele>2164.0</ele>
        <time>2015-08-16T12:51:22Z</time>
      </trkpt>
      <trkpt lat="40.468350" lon="-5.240417">
        <ele>2165.0</ele>
        <time>2015-08-16T12:51:23Z</time>
      </trkpt>
      <trkpt lat="40.468417" lon="-5.240400">
        <ele>2165.0</ele>
        <time>2015-08-16T12:51:24Z</time>
      </trkpt>
      <trkpt lat="40.468467" lon="-5.240367">
        <ele>2165.0</ele>
        <time>2015-08-16T12:51:25Z</time>
      </trkpt>
      <trkpt lat="40.468533" lon="-5.240333">
        <ele>2164.0</ele>
        <time>2015-08-16T12:51:26Z</time>
      </trkpt>
      <trkpt lat="40.468617" lon="-5.240300">
        <ele>2164.0</ele>
        <time>2015-08-16T12:51:27Z</time>
      </trkpt>
      <trkpt lat="40.468700" lon="-5.240267">
        <ele>2163.0</ele>
        <time>2015-08-16T12:51:28Z</time>
      </trkpt>
      <trkpt lat="40.468767" lon="-5.240217">
        <ele>2163.0</ele>
        <time>2015-08-16T12:51:29Z</time>
      </trkpt>
      <trkpt lat="40.468850" lon="-5.240167">
        <ele>2165.0</ele>
        <time>2015-08-16T12:51:30Z</time>
      </trkpt>
      <trkpt lat="40.468917" lon="-5.240100">
        <ele>2166.0</ele>
        <time>2015-08-16T12:51:31Z</time>
      </trkpt>
      <trkpt lat="40.468983" lon="-5.240050">
        <ele>2167.0</ele>
        <time>2015-08-16T12:51:32Z</time>
      </trkpt>
      <trkpt lat="40.469050" lon="-5.240017">
        <ele>2168.0</ele>
        <time>2015-08-16T12:51:33Z</time>
      </trkpt>
      <trkpt lat="40.469117" lon="-5.239983">
        <ele>2168.0</ele>
        <time>2015-08-16T12:51:34Z</time>
      </trkpt>
      <trkpt lat="40.469183" lon="-5.239967">
        <ele>2168.0</ele>
        <time>2015-08-16T12:51:35Z</time>
      </trkpt>
      <trkpt lat="40.469250" lon="-5.240000">
        <ele>2169.0</ele>
        <time>2015-08-16T12:51:36Z</time>
      </trkpt>
      <trkpt lat="40.469300" lon="-5.240067">
        <ele>2171.0</ele>
        <time>2015-08-16T12:51:37Z</time>
      </trkpt>
      <trkpt lat="40.469333" lon="-5.240133">
        <ele>2175.0</ele>
        <time>2015-08-16T12:51:38Z</time>
      </trkpt>
      <trkpt lat="40.469333" lon="-5.240217">
        <ele>2179.0</ele>
        <time>2015-08-16T12:51:39Z</time>
      </trkpt>
      <trkpt lat="40.469317" lon="-5.240267">
        <ele>2182.0</ele>
        <time>2015-08-16T12:51:40Z</time>
      </trkpt>
      <trkpt lat="40.469300" lon="-5.240317">
        <ele>2184.0</ele>
        <time>2015-08-16T12:51:41Z</time>
      </trkpt>
      <trkpt lat="40.469300" lon="-5.240367">
        <ele>2184.0</ele>
        <time>2015-08-16T12:51:42Z</time>
      </trkpt>
      <trkpt lat="40.469317" lon="-5.240417">
        <ele>2183.0</ele>
        <time>2015-08-16T12:51:43Z</time>
      </trkpt>
      <trkpt lat="40.469367" lon="-5.240467">
        <ele>2183.0</ele>
        <time>2015-08-16T12:51:44Z</time>
      </trkpt>
      <trkpt lat="40.469417" lon="-5.240483">
        <ele>2184.0</ele>
        <time>2015-08-16T12:51:45Z</time>
      </trkpt>
      <trkpt lat="40.469500" lon="-5.240467">
        <ele>2186.0</ele>
        <time>2015-08-16T12:51:46Z</time>
      </trkpt>
      <trkpt lat="40.469567" lon="-5.240400">
        <ele>2187.0</ele>
        <time>2015-08-16T12:51:47Z</time>
      </trkpt>
      <trkpt lat="40.469633" lon="-5.240283">
        <ele>2189.0</ele>
        <time>2015-08-16T12:51:48Z</time>
      </trkpt>
      <trkpt lat="40.469700" lon="-5.240183">
        <ele>2193.0</ele>
        <time>2015-08-16T12:51:49Z</time>
      </trkpt>
      <trkpt lat="40.469767" lon="-5.240100">
        <ele>2198.0</ele>
        <time>2015-08-16T12:51:50Z</time>
      </trkpt>
      <trkpt lat="40.469833" lon="-5.240050">
        <ele>2202.0</ele>
        <time>2015-08-16T12:51:51Z</time>
      </trkpt>
      <trkpt lat="40.469883" lon="-5.240017">
        <ele>2205.0</ele>
        <time>2015-08-16T12:51:52Z</time>
      </trkpt>
      <trkpt lat="40.469933" lon="-5.239967">
        <ele>2207.0</ele>
        <time>2015-08-16T12:51:53Z</time>
      </trkpt>
      <trkpt lat="40.470000" lon="-5.239867">
        <ele>2207.0</ele>
        <time>2015-08-16T12:51:54Z</time>
      </trkpt>
      <trkpt lat="40.470033" lon="-5.239733">
        <ele>2206.0</ele>
        <time>2015-08-16T12:51:55Z</time>
      </trkpt>
      <trkpt lat="40.470033" lon="-5.239567">
        <ele>2206.0</ele>
        <time>2015-08-16T12:51:56Z</time>
      </trkpt>
      <trkpt lat="40.469983" lon="-5.239383">
        <ele>2207.0</ele>
        <time>2015-08-16T12:51:57Z</time>
      </trkpt>
      <trkpt lat="40.469917" lon="-5.239217">
        <ele>2209.0</ele>
        <time>2015-08-16T12:51:58Z</time>
      </trkpt>
      <trkpt lat="40.469817" lon="-5.239083">
        <ele>2213.0</ele>
        <time>2015-08-16T12:51:59Z</time>
      </trkpt>
      <trkpt lat="40.469717" lon="-5.238983">
        <ele>2218.0</ele>
        <time>2015-08-16T12:52:00Z</time>
      </trkpt>
      <trkpt lat="40.469617" lon="-5.238933">
        <ele>2222.0</ele>
        <time>2015-08-16T12:52:01Z</time>
      </trkpt>
      <trkpt lat="40.469517" lon="-5.238917">
        <ele>2225.0</ele>
        <time>2015-08-16T12:52:02Z</time>
      </trkpt>
      <trkpt lat="40.469400" lon="-5.238950">
        <ele>2227.0</ele>
        <time>2015-08-16T12:52:03Z</time>
      </trkpt>
      <trkpt lat="40.469317" lon="-5.239017">
        <ele>2228.0</ele>
        <time>2015-08-16T12:52:04Z</time>
      </trkpt>
      <trkpt lat="40.469267" lon="-5.239117">
        <ele>2231.0</ele>
        <time>2015-08-16T12:52:05Z</time>
      </trkpt>
      <trkpt lat="40.469250" lon="-5.239217">
        <ele>2232.0</ele>
        <time>2015-08-16T12:52:06Z</time>
      </trkpt>
      <trkpt lat="40.469267" lon="-5.239300">
        <ele>2235.0</ele>
        <time>2015-08-16T12:52:07Z</time>
      </trkpt>
      <trkpt lat="40.469317" lon="-5.239367">
        <ele>2238.0</ele>
        <time>2015-08-16T12:52:08Z</time>
      </trkpt>
      <trkpt lat="40.469367" lon="-5.239400">
        <ele>2242.0</ele>
        <time>2015-08-16T12:52:09Z</time>
      </trkpt>
      <trkpt lat="40.469417" lon="-5.239383">
        <ele>2246.0</ele>
        <time>2015-08-16T12:52:10Z</time>
      </trkpt>
      <trkpt lat="40.469467" lon="-5.239350">
        <ele>2248.0</ele>
        <time>2015-08-16T12:52:11Z</time>
      </trkpt>
      <trkpt lat="40.469517" lon="-5.239267">
        <ele>2248.0</ele>
        <time>2015-08-16T12:52:12Z</time>
      </trkpt>
      <trkpt lat="40.469567" lon="-5.239167">
        <ele>2249.0</ele>
        <time>2015-08-16T12:52:13Z</time>
      </trkpt>
      <trkpt lat="40.469600" lon="-5.239033">
        <ele>2250.0</ele>
        <time>2015-08-16T12:52:14Z</time>
      </trkpt>
      <trkpt lat="40.469617" lon="-5.238867">
        <ele>2250.0</ele>
        <time>2015-08-16T12:52:15Z</time>
      </trkpt>
      <trkpt lat="40.469583" lon="-5.238700">
        <ele>2251.0</ele>
        <time>2015-08-16T12:52:16Z</time>
      </trkpt>
      <trkpt lat="40.469517" lon="-5.238533">
        <ele>2251.0</ele>
        <time>2015-08-16T12:52:17Z</time>
      </trkpt>
      <trkpt lat="40.469433" lon="-5.238367">
        <ele>2252.0</ele>
        <time>2015-08-16T12:52:18Z</time>
      </trkpt>
      <trkpt lat="40.469317" lon="-5.238250">
        <ele>2253.0</ele>
        <time>2015-08-16T12:52:19Z</time>
      </trkpt>
      <trkpt lat="40.469183" lon="-5.238150">
        <ele>2256.0</ele>
        <time>2015-08-16T12:52:20Z</time>
      </trkpt>
      <trkpt lat="40.469050" lon="-5.238133">
        <ele>2258.0</ele>
        <time>2015-08-16T12:52:21Z</time>
      </trkpt>
      <trkpt lat="40.468917" lon="-5.238133">
        <ele>2262.0</ele>
        <time>2015-08-16T12:52:22Z</time>
      </trkpt>
      <trkpt lat="40.468817" lon="-5.238167">
        <ele>2265.0</ele>
        <time>2015-08-16T12:52:23Z</time>
      </trkpt>
      <trkpt lat="40.468733" lon="-5.238217">
        <ele>2268.0</ele>
        <time>2015-08-16T12:52:24Z</time>
      </trkpt>
      <trkpt lat="40.468683" lon="-5.238283">
        <ele>2269.0</ele>
        <time>2015-08-16T12:52:25Z</time>
      </trkpt>
      <trkpt lat="40.468650" lon="-5.238367">
        <ele>2269.0</ele>
        <time>2015-08-16T12:52:26Z</time>
      </trkpt>
      <trkpt lat="40.468633" lon="-5.238483">
        <ele>2269.0</ele>
        <time>2015-08-16T12:52:27Z</time>
      </trkpt>
      <trkpt lat="40.468650" lon="-5.238583">
        <ele>2270.0</ele>
        <time>2015-08-16T12:52:28Z</time>
      </trkpt>
      <trkpt lat="40.468683" lon="-5.238683">
        <ele>2272.0</ele>
        <time>2015-08-16T12:52:29Z</time>
      </trkpt>
      <trkpt lat="40.468733" lon="-5.238750">
        <ele>2275.0</ele>
        <time>2015-08-16T12:52:30Z</time>
      </trkpt>
      <trkpt lat="40.468800" lon="-5.238783">
        <ele>2279.0</ele>
        <time>2015-08-16T12:52:31Z</time>
      </trkpt>
      <trkpt lat="40.468850" lon="-5.238800">
        <ele>2283.0</ele>
        <time>2015-08-16T12:52:32Z</time>
      </trkpt>
      <trkpt lat="40.468900" lon="-5.238783">
        <ele>2286.0</ele>
        <time>2015-08-16T12:52:33Z</time>
      </trkpt>
      <trkpt lat="40.468950" lon="-5.238750">
        <ele>2287.0</ele>
        <time>2015-08-16T12:52:34Z</time>
      </trkpt>
      <trkpt lat="40.469000" lon="-5.238700">
        <ele>2287.0</ele>
        <time>2015-08-16T12:52:35Z</time>
      </trkpt>
      <trkpt lat="40.469067" lon="-5.238633">
        <ele>2286.0</ele>
        <time>2015-08-16T12:52:36Z</time>
      </trkpt>
      <trkpt lat="40.469133" lon="-5.238533">
        <ele>2285.0</ele>
        <time>2015-08-16T12:52:37Z</time>
      </trkpt>
      <trkpt lat="40.469183" lon="-5.238367">
        <ele>2284.0</ele>
        <time>2015-08-16T12:52:38Z</time>
      </trkpt>
      <trkpt lat="40.469200" lon="-5.238200">
        <ele>2285.0</ele>
        <time>2015-08-16T12:52:39Z</time>
      </trkpt>
      <trkpt lat="40.469167" lon="-5.238017">
        <ele>2286.0</ele>
        <time>2015-08-16T12:52:40Z</time>
      </trkpt>
      <trkpt lat="40.469117" lon="-5.237850">
        <ele>2287.0</ele>
        <time>2015-08-16T12:52:41Z</time>
      </trkpt>
      <trkpt lat="40.469033" lon="-5.237700">
        <ele>2288.0</ele>
        <time>2015-08-16T12:52:42Z</time>
      </trkpt>
      <trkpt lat="40.468933" lon="-5.237583">
        <ele>2288.0</ele>
        <time>2015-08-16T12:52:43Z</time>
      </trkpt>
      <trkpt lat="40.468800" lon="-5.237500">
        <ele>2289.0</ele>
        <time>2015-08-16T12:52:44Z</time>
      </trkpt>
      <trkpt lat="40.468667" lon="-5.237467">
        <ele>2291.0</ele>
        <time>2015-08-16T12:52:45Z</time>
      </trkpt>
      <trkpt lat="40.468550" lon="-5.237467">
        <ele>2293.0</ele>
        <time>2015-08-16T12:52:46Z</time>
      </trkpt>
      <trkpt lat="40.468450" lon="-5.237500">
        <ele>2295.0</ele>
        <time>2015-08-16T12:52:47Z</time>
      </trkpt>
      <trkpt lat="40.468367" lon="-5.237550">
        <ele>2297.0</ele>
        <time>2015-08-16T12:52:48Z</time>
      </trkpt>
      <trkpt lat="40.468300" lon="-5.237617">
        <ele>2298.0</ele>
        <time>2015-08-16T12:52:49Z</time>
      </trkpt>
      <trkpt lat="40.468250" lon="-5.237683">
        <ele>2299.0</ele>
        <time>2015-08-16T12:52:50Z</time>
      </trkpt>
      <trkpt lat="40.468233" lon="-5.237767">
        <ele>2299.0</ele>
        <time>2015-08-16T12:52:51Z</time>
      </trkpt>
      <trkpt lat="40.468233" lon="-5.237850">
        <ele>2300.0</ele>
        <time>2015-08-16T12:52:52Z</time>
      </trkpt>
      <trkpt lat="40.468267" lon="-5.237917">
        <ele>2300.0</ele>
        <time>2015-08-16T12:52:53Z</time>
      </trkpt>
      <trkpt lat="40.468300" lon="-5.237983">
        <ele>2301.0</ele>
        <time>2015-08-16T12:52:54Z</time>
      </trkpt>
      <trkpt lat="40.468367" lon="-5.238017">
        <ele>2302.0</ele>
        <time>2015-08-16T12:52:55Z</time>
      </trkpt>
      <trkpt lat="40.468417" lon="-5.238017">
        <ele>2304.0</ele>
        <time>2015-08-16T12:52:56Z</time>
      </trkpt>
      <trkpt lat="40.468500" lon="-5.237983">
        <ele>2305.0</ele>
        <time>2015-08-16T12:52:57Z</time>
      </trkpt>
      <trkpt lat="40.468567" lon="-5.237917">
        <ele>2306.0</ele>
        <time>2015-08-16T12:52:58Z</time>
      </trkpt>
      <trkpt lat="40.468617" lon="-5.237800">
        <ele>2307.0</ele>
        <time>2015-08-16T12:52:59Z</time>
      </trkpt>
      <trkpt lat="40.468650" lon="-5.237667">
        <ele>2308.0</ele>
        <time>2015-08-16T12:53:00Z</time>
      </trkpt>
      <trkpt lat="40.468650" lon="-5.237500">
        <ele>2310.0</ele>
        <time>2015-08-16T12:53:01Z</time>
      </trkpt>
      <trkpt lat="40.468600" lon="-5.237333">
        <ele>2311.0</ele>
        <time>2015-08-16T12:53:02Z</time>
      </trkpt>
      <trkpt lat="40.468517" lon="-5.237200">
        <ele>2312.0</ele>
        <time>2015-08-16T12:53:03Z</time>
      </trkpt>
      <trkpt lat="40.468400" lon="-5.237083">
        <ele>2314.0</ele>
        <time>2015-08-16T12:53:04Z</time>
      </trkpt>
      <trkpt lat="40.468267" lon="-5.237033">
        <ele>2315.0</ele>
        <time>2015-08-16T12:53:05Z</time>
      </trkpt>
      <trkpt lat="40.468133" lon="-5.237033">
        <ele>2316.0</ele>
        <time>2015-08-16T12:53:06Z</time>
      </trkpt>
      <trkpt lat="40.468017" lon="-5.237067">
        <ele>2317.0</ele>
        <time>2015-08-16T12:53:07Z</time>
      </trkpt>
      <trkpt lat="40.467933" lon="-5.237150">
        <ele>2317.0</ele>
        <time>2015-08-16T12:53:08Z</time>
      </trkpt>
      <trkpt lat="40.467900" lon="-5.237267">
        <ele>2318.0</ele>
        <time>2015-08-16T12:53:09Z</time>
      </trkpt>
      <trkpt lat="40.467883" lon="-5.237367">
        <ele>2319.0</ele>
        <time>2015-08-16T12:53:10Z</time>
      </trkpt>
      <trkpt lat="40.467917" lon="-5.237450">
        <ele>2320.0</ele>
        <time>2015-08-16T12:53:11Z</time>
      </trkpt>
      <trkpt lat="40.467967" lon="-5.237500">
        <ele>2320.0</ele>
        <time>2015-08-16T12:53:12Z</time>
      </trkpt>
      <trkpt lat="40.468033" lon="-5.237517">
        <ele>2320.0</ele>
        <time>2015-08-16T12:53:13Z</time>
      </trkpt>
      <trkpt lat="40.468117" lon="-5.237483">
        <ele>2321.0</ele>
        <time>2015-08-16T12:53:14Z</time>
      </trkpt>
      <trkpt lat="40.468200" lon="-5.237400">
        <ele>2322.0</ele>
        <time>2015-08-16T12:53:15Z</time>
      </trkpt>
      <trkpt lat="40.468250" lon="-5.237283">
        <ele>2324.0</ele>
        <time>2015-08-16T12:53:16Z</time>
      </trkpt>
      <trkpt lat="40.468267" lon="-5.237133">
        <ele>2326.0</ele>
        <time>2015-08-16T12:53:17Z</time>
      </trkpt>
      <trkpt lat="40.468250" lon="-5.236983">
        <ele>2328.0</ele>
        <time>2015-08-16T12:53:18Z</time>
      </trkpt>
      <trkpt lat="40.468200" lon="-5.236833">
        <ele>2330.0</ele>
        <time>2015-08-16T12:53:19Z</time>
      </trkpt>
      <trkpt lat="40.468100" lon="-5.236700">
        <ele>2331.0</ele>
        <time>2015-08-16T12:53:20Z</time>
      </trkpt>
      <trkpt lat="40.467983" lon="-5.236600">
        <ele>2331.0</ele>
        <time>2015-08-16T12:53:21Z</time>
      </trkpt>
      <trkpt lat="40.467850" lon="-5.236567">
        <ele>2332.0</ele>
        <time>2015-08-16T12:53:22Z</time>
      </trkpt>
      <trkpt lat="40.467733" lon="-5.236600">
        <ele>2332.0</ele>
        <time>2015-08-16T12:53:23Z</time>
      </trkpt>
      <trkpt lat="40.467617" lon="-5.236650">
        <ele>2333.0</ele>
        <time>2015-08-16T12:53:24Z</time>
      </trkpt>
      <trkpt lat="40.467533" lon="-5.236733">
        <ele>2334.0</ele>
        <time>2015-08-16T12:53:25Z</time>
      </trkpt>
      <trkpt lat="40.467483" lon="-5.236817">
        <ele>2336.0</ele>
        <time>2015-08-16T12:53:26Z</time>
      </trkpt>
      <trkpt lat="40.467433" lon="-5.236883">
        <ele>2336.0</ele>
        <time>2015-08-16T12:53:27Z</time>
      </trkpt>
      <trkpt lat="40.467400" lon="-5.236967">
        <ele>2336.0</ele>
        <time>2015-08-16T12:53:28Z</time>
      </trkpt>
      <trkpt lat="40.467400" lon="-5.237050">
        <ele>2335.0</ele>
        <time>2015-08-16T12:53:29Z</time>
      </trkpt>
      <trkpt lat="40.467433" lon="-5.237117">
        <ele>2334.0</ele>
        <time>2015-08-16T12:53:30Z</time>
      </trkpt>
      <trkpt lat="40.467483" lon="-5.237150">
        <ele>2333.0</ele>
        <time>2015-08-16T12:53:31Z</time>
      </trkpt>
      <trkpt lat="40.467533" lon="-5.237167">
        <ele>2333.0</ele>
        <time>2015-08-16T12:53:32Z</time>
      </trkpt>
      <trkpt lat="40.467617" lon="-5.237167">
        <ele>2333.0</ele>
        <time>2015-08-16T12:53:33Z</time>
      </trkpt>
      <trkpt lat="40.467683" lon="-5.237150">
        <ele>2334.0</ele>
        <time>2015-08-16T12:53:34Z</time>
      </trkpt>
      <trkpt lat="40.467750" lon="-5.237133">
        <ele>2335.0</ele>
        <time>2015-08-16T12:53:35Z</time>
      </trkpt>
      <trkpt lat="40.467817" lon="-5.237100">
        <ele>2337.0</ele>
        <time>2015-08-16T12:53:36Z</time>
      </trkpt>
      <trkpt lat="40.467900" lon="-5.237067">
        <ele>2339.0</ele>
        <time>2015-08-16T12:53:37Z</time>
      </trkpt>
      <trkpt lat="40.467967" lon="-5.237033">
        <ele>2340.0</ele>
        <time>2015-08-16T12:53:38Z</time>
      </trkpt>
      <trkpt lat="40.468033" lon="-5.236967">
        <ele>2341.0</ele>
        <time>2015-08-16T12:53:39Z</time>
      </trkpt>
      <trkpt lat="40.468100" lon="-5.236917">
        <ele>2341.0</ele>
        <time>2015-08-16T12:53:40Z</time>
      </trkpt>
      <trkpt lat="40.468183" lon="-5.236867">
        <ele>2342.0</ele>
        <time>2015-08-16T12:53:41Z</time>
      </trkpt>
      <trkpt lat="40.468250" lon="-5.236817">
        <ele>2344.0</ele>
        <time>2015-08-16T12:53:42Z</time>
      </trkpt>
      <trkpt lat="40.468317" lon="-5.236750">
        <ele>2346.0</ele>
        <time>2015-08-16T12:53:43Z</time>
      </trkpt>
      <trkpt lat="40.468367" lon="-5.236683">
        <ele>2346.0</ele>
        <time>2015-08-16T12:53:44Z</time>
      </trkpt>
      <trkpt lat="40.468400" lon="-5.236600">
        <ele>2346.0</ele>
        <time>2015-08-16T12:53:45Z</time>
      </trkpt>
      <trkpt lat="40.468433" lon="-5.236483">
        <ele>2346.0</ele>
        <time>2015-08-16T12:53:46Z</time>
      </trkpt>
      <trkpt lat="40.468483" lon="-5.236383">
        <ele>2346.0</ele>
        <time>2015-08-16T12:53:47Z</time>
      </trkpt>
      <trkpt lat="40.468517" lon="-5.236267">
        <ele>2346.0</ele>
        <time>2015-08-16T12:53:48Z</time>
      </trkpt>
      <trkpt lat="40.468567" lon="-5.236167">
        <ele>2346.0</ele>
        <time>2015-08-16T12:53:49Z</time>
      </trkpt>
      <trkpt lat="40.468617" lon="-5.236067">
        <ele>2345.0</ele>
        <time>2015-08-16T12:53:50Z</time>
      </trkpt>
      <trkpt lat="40.468667" lon="-5.235967">
        <ele>2345.0</ele>
        <time>2015-08-16T12:53:51Z</time>
      </trkpt>
      <trkpt lat="40.468717" lon="-5.235883">
        <ele>2346.0</ele>
        <time>2015-08-16T12:53:52Z</time>
      </trkpt>
      <trkpt lat="40.468783" lon="-5.235800">
        <ele>2346.0</ele>
        <time>2015-08-16T12:53:53Z</time>
      </trkpt>
      <trkpt lat="40.468833" lon="-5.235717">
        <ele>2345.0</ele>
        <time>2015-08-16T12:53:54Z</time>
      </trkpt>
      <trkpt lat="40.468900" lon="-5.235633">
        <ele>2345.0</ele>
        <time>2015-08-16T12:53:55Z</time>
      </trkpt>
      <trkpt lat="40.468983" lon="-5.235567">
        <ele>2344.0</ele>
        <time>2015-08-16T12:53:56Z</time>
      </trkpt>
      <trkpt lat="40.469050" lon="-5.235500">
        <ele>2344.0</ele>
        <time>2015-08-16T12:53:57Z</time>
      </trkpt>
      <trkpt lat="40.469117" lon="-5.235450">
        <ele>2343.0</ele>
        <time>2015-08-16T12:53:58Z</time>
      </trkpt>
      <trkpt lat="40.469200" lon="-5.235400">
        <ele>2343.0</ele>
        <time>2015-08-16T12:53:59Z</time>
      </trkpt>
      <trkpt lat="40.469267" lon="-5.235350">
        <ele>2343.0</ele>
        <time>2015-08-16T12:54:00Z</time>
      </trkpt>
      <trkpt lat="40.469317" lon="-5.235283">
        <ele>2343.0</ele>
        <time>2015-08-16T12:54:01Z</time>
      </trkpt>
      <trkpt lat="40.469383" lon="-5.235217">
        <ele>2342.0</ele>
        <time>2015-08-16T12:54:02Z</time>
      </trkpt>
      <trkpt lat="40.469450" lon="-5.235133">
        <ele>2341.0</ele>
        <time>2015-08-16T12:54:03Z</time>
      </trkpt>
      <trkpt lat="40.469517" lon="-5.235050">
        <ele>2340.0</ele>
        <time>2015-08-16T12:54:04Z</time>
      </trkpt>
      <trkpt lat="40.469583" lon="-5.234967">
        <ele>2340.0</ele>
        <time>2015-08-16T12:54:05Z</time>
      </trkpt>
      <trkpt lat="40.469650" lon="-5.234883">
        <ele>2339.0</ele>
        <time>2015-08-16T12:54:06Z</time>
      </trkpt>
      <trkpt lat="40.469700" lon="-5.234800">
        <ele>2339.0</ele>
        <time>2015-08-16T12:54:07Z</time>
      </trkpt>
      <trkpt lat="40.469767" lon="-5.234717">
        <ele>2337.0</ele>
        <time>2015-08-16T12:54:08Z</time>
      </trkpt>
      <trkpt lat="40.469817" lon="-5.234617">
        <ele>2334.0</ele>
        <time>2015-08-16T12:54:09Z</time>
      </trkpt>
      <trkpt lat="40.469883" lon="-5.234517">
        <ele>2332.0</ele>
        <time>2015-08-16T12:54:10Z</time>
      </trkpt>
      <trkpt lat="40.469950" lon="-5.234433">
        <ele>2329.0</ele>
        <time>2015-08-16T12:54:11Z</time>
      </trkpt>
      <trkpt lat="40.470017" lon="-5.234350">
        <ele>2328.0</ele>
        <time>2015-08-16T12:54:12Z</time>
      </trkpt>
      <trkpt lat="40.470100" lon="-5.234267">
        <ele>2326.0</ele>
        <time>2015-08-16T12:54:13Z</time>
      </trkpt>
      <trkpt lat="40.470167" lon="-5.234200">
        <ele>2325.0</ele>
        <time>2015-08-16T12:54:14Z</time>
      </trkpt>
      <trkpt lat="40.470233" lon="-5.234133">
        <ele>2322.0</ele>
        <time>2015-08-16T12:54:15Z</time>
      </trkpt>
      <trkpt lat="40.470317" lon="-5.234067">
        <ele>2319.0</ele>
        <time>2015-08-16T12:54:16Z</time>
      </trkpt>
      <trkpt lat="40.470383" lon="-5.233983">
        <ele>2316.0</ele>
        <time>2015-08-16T12:54:17Z</time>
      </trkpt>
      <trkpt lat="40.470467" lon="-5.233917">
        <ele>2314.0</ele>
        <time>2015-08-16T12:54:18Z</time>
      </trkpt>
      <trkpt lat="40.470533" lon="-5.233850">
        <ele>2313.0</ele>
        <time>2015-08-16T12:54:19Z</time>
      </trkpt>
      <trkpt lat="40.470600" lon="-5.233783">
        <ele>2311.0</ele>
        <time>2015-08-16T12:54:20Z</time>
      </trkpt>
      <trkpt lat="40.470650" lon="-5.233733">
        <ele>2309.0</ele>
        <time>2015-08-16T12:54:21Z</time>
      </trkpt>
      <trkpt lat="40.470717" lon="-5.233650">
        <ele>2306.0</ele>
        <time>2015-08-16T12:54:22Z</time>
      </trkpt>
      <trkpt lat="40.470783" lon="-5.233583">
        <ele>2303.0</ele>
        <time>2015-08-16T12:54:23Z</time>
      </trkpt>
      <trkpt lat="40.470850" lon="-5.233500">
        <ele>2300.0</ele>
        <time>2015-08-16T12:54:24Z</time>
      </trkpt>
      <trkpt lat="40.470917" lon="-5.233400">
        <ele>2298.0</ele>
        <time>2015-08-16T12:54:25Z</time>
      </trkpt>
      <trkpt lat="40.470983" lon="-5.233317">
        <ele>2295.0</ele>
        <time>2015-08-16T12:54:26Z</time>
      </trkpt>
      <trkpt lat="40.471067" lon="-5.233217">
        <ele>2292.0</ele>
        <time>2015-08-16T12:54:27Z</time>
      </trkpt>
      <trkpt lat="40.471150" lon="-5.233117">
        <ele>2288.0</ele>
        <time>2015-08-16T12:54:28Z</time>
      </trkpt>
      <trkpt lat="40.471233" lon="-5.233000">
        <ele>2284.0</ele>
        <time>2015-08-16T12:54:29Z</time>
      </trkpt>
      <trkpt lat="40.471333" lon="-5.232900">
        <ele>2282.0</ele>
        <time>2015-08-16T12:54:30Z</time>
      </trkpt>
      <trkpt lat="40.471433" lon="-5.232783">
        <ele>2283.0</ele>
        <time>2015-08-16T12:54:31Z</time>
      </trkpt>
      <trkpt lat="40.471533" lon="-5.232667">
        <ele>2285.0</ele>
        <time>2015-08-16T12:54:32Z</time>
      </trkpt>
      <trkpt lat="40.471617" lon="-5.232583">
        <ele>2288.0</ele>
        <time>2015-08-16T12:54:33Z</time>
      </trkpt>
      <trkpt lat="40.471700" lon="-5.232517">
        <ele>2290.0</ele>
        <time>2015-08-16T12:54:34Z</time>
      </trkpt>
      <trkpt lat="40.471767" lon="-5.232467">
        <ele>2293.0</ele>
        <time>2015-08-16T12:54:35Z</time>
      </trkpt>
      <trkpt lat="40.471833" lon="-5.232417">
        <ele>2296.0</ele>
        <time>2015-08-16T12:54:36Z</time>
      </trkpt>
      <trkpt lat="40.471900" lon="-5.232367">
        <ele>2299.0</ele>
        <time>2015-08-16T12:54:37Z</time>
      </trkpt>
      <trkpt lat="40.471950" lon="-5.232333">
        <ele>2302.0</ele>
        <time>2015-08-16T12:54:38Z</time>
      </trkpt>
      <trkpt lat="40.472000" lon="-5.232283">
        <ele>2305.0</ele>
        <time>2015-08-16T12:54:39Z</time>
      </trkpt>
      <trkpt lat="40.472050" lon="-5.232217">
        <ele>2306.0</ele>
        <time>2015-08-16T12:54:40Z</time>
      </trkpt>
      <trkpt lat="40.472100" lon="-5.232100">
        <ele>2306.0</ele>
        <time>2015-08-16T12:54:41Z</time>
      </trkpt>
      <trkpt lat="40.472133" lon="-5.231950">
        <ele>2307.0</ele>
        <time>2015-08-16T12:54:42Z</time>
      </trkpt>
      <trkpt lat="40.472150" lon="-5.231767">
        <ele>2309.0</ele>
        <time>2015-08-16T12:54:43Z</time>
      </trkpt>
      <trkpt lat="40.472117" lon="-5.231600">
        <ele>2311.0</ele>
        <time>2015-08-16T12:54:44Z</time>
      </trkpt>
      <trkpt lat="40.472033" lon="-5.231450">
        <ele>2313.0</ele>
        <time>2015-08-16T12:54:45Z</time>
      </trkpt>
      <trkpt lat="40.471917" lon="-5.231350">
        <ele>2314.0</ele>
        <time>2015-08-16T12:54:46Z</time>
      </trkpt>
      <trkpt lat="40.471783" lon="-5.231317">
        <ele>2316.0</ele>
        <time>2015-08-16T12:54:47Z</time>
      </trkpt>
      <trkpt lat="40.471667" lon="-5.231333">
        <ele>2319.0</ele>
        <time>2015-08-16T12:54:48Z</time>
      </trkpt>
      <trkpt lat="40.471567" lon="-5.231400">
        <ele>2320.0</ele>
        <time>2015-08-16T12:54:49Z</time>
      </trkpt>
      <trkpt lat="40.471517" lon="-5.231483">
        <ele>2321.0</ele>
        <time>2015-08-16T12:54:50Z</time>
      </trkpt>
      <trkpt lat="40.471500" lon="-5.231583">
        <ele>2321.0</ele>
        <time>2015-08-16T12:54:51Z</time>
      </trkpt>
      <trkpt lat="40.471550" lon="-5.231667">
        <ele>2320.0</ele>
        <time>2015-08-16T12:54:52Z</time>
      </trkpt>
      <trkpt lat="40.471633" lon="-5.231700">
        <ele>2320.0</ele>
        <time>2015-08-16T12:54:53Z</time>
      </trkpt>
      <trkpt lat="40.471733" lon="-5.231683">
        <ele>2323.0</ele>
        <time>2015-08-16T12:54:54Z</time>
      </trkpt>
      <trkpt lat="40.471833" lon="-5.231633">
        <ele>2329.0</ele>
        <time>2015-08-16T12:54:55Z</time>
      </trkpt>
      <trkpt lat="40.471917" lon="-5.231583">
        <ele>2334.0</ele>
        <time>2015-08-16T12:54:56Z</time>
      </trkpt>
      <trkpt lat="40.471983" lon="-5.231550">
        <ele>2339.0</ele>
        <time>2015-08-16T12:54:57Z</time>
      </trkpt>
      <trkpt lat="40.472033" lon="-5.231550">
        <ele>2341.0</ele>
        <time>2015-08-16T12:54:58Z</time>
      </trkpt>
      <trkpt lat="40.472083" lon="-5.231550">
        <ele>2343.0</ele>
        <time>2015-08-16T12:54:59Z</time>
      </trkpt>
      <trkpt lat="40.472150" lon="-5.231533">
        <ele>2344.0</ele>
        <time>2015-08-16T12:55:00Z</time>
      </trkpt>
      <trkpt lat="40.472217" lon="-5.231483">
        <ele>2345.0</ele>
        <time>2015-08-16T12:55:01Z</time>
      </trkpt>
      <trkpt lat="40.472300" lon="-5.231367">
        <ele>2345.0</ele>
        <time>2015-08-16T12:55:02Z</time>
      </trkpt>
      <trkpt lat="40.472333" lon="-5.231200">
        <ele>2346.0</ele>
        <time>2015-08-16T12:55:03Z</time>
      </trkpt>
      <trkpt lat="40.472317" lon="-5.231033">
        <ele>2348.0</ele>
        <time>2015-08-16T12:55:04Z</time>
      </trkpt>
      <trkpt lat="40.472250" lon="-5.230883">
        <ele>2350.0</ele>
        <time>2015-08-16T12:55:05Z</time>
      </trkpt>
      <trkpt lat="40.472133" lon="-5.230800">
        <ele>2350.0</ele>
        <time>2015-08-16T12:55:06Z</time>
      </trkpt>
      <trkpt lat="40.471983" lon="-5.230767">
        <ele>2351.0</ele>
        <time>2015-08-16T12:55:07Z</time>
      </trkpt>
      <trkpt lat="40.471850" lon="-5.230817">
        <ele>2354.0</ele>
        <time>2015-08-16T12:55:08Z</time>
      </trkpt>
      <trkpt lat="40.471767" lon="-5.230883">
        <ele>2358.0</ele>
        <time>2015-08-16T12:55:09Z</time>
      </trkpt>
      <trkpt lat="40.471717" lon="-5.230983">
        <ele>2360.0</ele>
        <time>2015-08-16T12:55:10Z</time>
      </trkpt>
      <trkpt lat="40.471717" lon="-5.231083">
        <ele>2361.0</ele>
        <time>2015-08-16T12:55:11Z</time>
      </trkpt>
      <trkpt lat="40.471750" lon="-5.231167">
        <ele>2361.0</ele>
        <time>2015-08-16T12:55:12Z</time>
      </trkpt>
      <trkpt lat="40.471800" lon="-5.231217">
        <ele>2362.0</ele>
        <time>2015-08-16T12:55:13Z</time>
      </trkpt>
      <trkpt lat="40.471900" lon="-5.231250">
        <ele>2364.0</ele>
        <time>2015-08-16T12:55:14Z</time>
      </trkpt>
      <trkpt lat="40.472000" lon="-5.231233">
        <ele>2368.0</ele>
        <time>2015-08-16T12:55:15Z</time>
      </trkpt>
      <trkpt lat="40.472100" lon="-5.231183">
        <ele>2371.0</ele>
        <time>2015-08-16T12:55:16Z</time>
      </trkpt>
      <trkpt lat="40.472167" lon="-5.231067">
        <ele>2373.0</ele>
        <time>2015-08-16T12:55:17Z</time>
      </trkpt>
      <trkpt lat="40.472200" lon="-5.230917">
        <ele>2373.0</ele>
        <time>2015-08-16T12:55:18Z</time>
      </trkpt>
      <trkpt lat="40.472183" lon="-5.230733">
        <ele>2374.0</ele>
        <time>2015-08-16T12:55:19Z</time>
      </trkpt>
      <trkpt lat="40.472117" lon="-5.230583">
        <ele>2375.0</ele>
        <time>2015-08-16T12:55:20Z</time>
      </trkpt>
      <trkpt lat="40.472017" lon="-5.230467">
        <ele>2377.0</ele>
        <time>2015-08-16T12:55:21Z</time>
      </trkpt>
      <trkpt lat="40.471900" lon="-5.230417">
        <ele>2380.0</ele>
        <time>2015-08-16T12:55:22Z</time>
      </trkpt>
      <trkpt lat="40.471783" lon="-5.230417">
        <ele>2383.0</ele>
        <time>2015-08-16T12:55:23Z</time>
      </trkpt>
      <trkpt lat="40.471667" lon="-5.230467">
        <ele>2385.0</ele>
        <time>2015-08-16T12:55:24Z</time>
      </trkpt>
      <trkpt lat="40.471600" lon="-5.230533">
        <ele>2386.0</ele>
        <time>2015-08-16T12:55:25Z</time>
      </trkpt>
      <trkpt lat="40.471550" lon="-5.230633">
        <ele>2386.0</ele>
        <time>2015-08-16T12:55:26Z</time>
      </trkpt>
      <trkpt lat="40.471567" lon="-5.230750">
        <ele>2387.0</ele>
        <time>2015-08-16T12:55:27Z</time>
      </trkpt>
      <trkpt lat="40.471600" lon="-5.230850">
        <ele>2388.0</ele>
        <time>2015-08-16T12:55:28Z</time>
      </trkpt>
      <trkpt lat="40.471683" lon="-5.230950">
        <ele>2391.0</ele>
        <time>2015-08-16T12:55:29Z</time>
      </trkpt>
      <trkpt lat="40.471750" lon="-5.231000">
        <ele>2396.0</ele>
        <time>2015-08-16T12:55:30Z</time>
      </trkpt>
      <trkpt lat="40.471817" lon="-5.231017">
        <ele>2403.0</ele>
        <time>2015-08-16T12:55:31Z</time>
      </trkpt>
      <trkpt lat="40.471867" lon="-5.231017">
        <ele>2407.0</ele>
        <time>2015-08-16T12:55:32Z</time>
      </trkpt>
      <trkpt lat="40.471883" lon="-5.231033">
        <ele>2410.0</ele>
        <time>2015-08-16T12:55:33Z</time>
      </trkpt>
      <trkpt lat="40.471933" lon="-5.231050">
        <ele>2412.0</ele>
        <time>2015-08-16T12:55:34Z</time>
      </trkpt>
      <trkpt lat="40.472000" lon="-5.231050">
        <ele>2414.0</ele>
        <time>2015-08-16T12:55:35Z</time>
      </trkpt>
      <trkpt lat="40.472083" lon="-5.231000">
        <ele>2414.0</ele>
        <time>2015-08-16T12:55:36Z</time>
      </trkpt>
      <trkpt lat="40.472167" lon="-5.230883">
        <ele>2416.0</ele>
        <time>2015-08-16T12:55:37Z</time>
      </trkpt>
      <trkpt lat="40.472217" lon="-5.230717">
        <ele>2417.0</ele>
        <time>2015-08-16T12:55:38Z</time>
      </trkpt>
      <trkpt lat="40.472183" lon="-5.230517">
        <ele>2417.0</ele>
        <time>2015-08-16T12:55:39Z</time>
      </trkpt>
      <trkpt lat="40.472067" lon="-5.230367">
        <ele>2416.0</ele>
        <time>2015-08-16T12:55:40Z</time>
      </trkpt>
      <trkpt lat="40.471933" lon="-5.230300">
        <ele>2414.0</ele>
        <time>2015-08-16T12:55:41Z</time>
      </trkpt>
      <trkpt lat="40.471783" lon="-5.230350">
        <ele>2413.0</ele>
        <time>2015-08-16T12:55:42Z</time>
      </trkpt>
      <trkpt lat="40.471700" lon="-5.230467">
        <ele>2415.0</ele>
        <time>2015-08-16T12:55:43Z</time>
      </trkpt>
      <trkpt lat="40.471650" lon="-5.230600">
        <ele>2419.0</ele>
        <time>2015-08-16T12:55:44Z</time>
      </trkpt>
      <trkpt lat="40.471633" lon="-5.230700">
        <ele>2423.0</ele>
        <time>2015-08-16T12:55:45Z</time>
      </trkpt>
      <trkpt lat="40.471617" lon="-5.230783">
        <ele>2426.0</ele>
        <time>2015-08-16T12:55:46Z</time>
      </trkpt>
      <trkpt lat="40.471600" lon="-5.230883">
        <ele>2427.0</ele>
        <time>2015-08-16T12:55:47Z</time>
      </trkpt>
      <trkpt lat="40.471600" lon="-5.230983">
        <ele>2429.0</ele>
        <time>2015-08-16T12:55:48Z</time>
      </trkpt>
      <trkpt lat="40.471633" lon="-5.231083">
        <ele>2432.0</ele>
        <time>2015-08-16T12:55:49Z</time>
      </trkpt>
      <trkpt lat="40.471717" lon="-5.231133">
        <ele>2435.0</ele>
        <time>2015-08-16T12:55:50Z</time>
      </trkpt>
      <trkpt lat="40.471833" lon="-5.231100">
        <ele>2438.0</ele>
        <time>2015-08-16T12:55:51Z</time>
      </trkpt>
      <trkpt lat="40.471933" lon="-5.231000">
        <ele>2440.0</ele>
        <time>2015-08-16T12:55:52Z</time>
      </trkpt>
      <trkpt lat="40.472000" lon="-5.230833">
        <ele>2444.0</ele>
        <time>2015-08-16T12:55:53Z</time>
      </trkpt>
      <trkpt lat="40.472017" lon="-5.230633">
        <ele>2448.0</ele>
        <time>2015-08-16T12:55:54Z</time>
      </trkpt>
      <trkpt lat="40.471950" lon="-5.230467">
        <ele>2450.0</ele>
        <time>2015-08-16T12:55:55Z</time>
      </trkpt>
      <trkpt lat="40.471850" lon="-5.230350">
        <ele>2450.0</ele>
        <time>2015-08-16T12:55:56Z</time>
      </trkpt>
      <trkpt lat="40.471717" lon="-5.230350">
        <ele>2451.0</ele>
        <time>2015-08-16T12:55:57Z</time>
      </trkpt>
      <trkpt lat="40.471617" lon="-5.230433">
        <ele>2452.0</ele>
        <time>2015-08-16T12:55:58Z</time>
      </trkpt>
      <trkpt lat="40.471567" lon="-5.230550">
        <ele>2454.0</ele>
        <time>2015-08-16T12:55:59Z</time>
      </trkpt>
      <trkpt lat="40.471550" lon="-5.230667">
        <ele>2460.0</ele>
        <time>2015-08-16T12:56:00Z</time>
      </trkpt>
      <trkpt lat="40.471567" lon="-5.230750">
        <ele>2467.0</ele>
        <time>2015-08-16T12:56:01Z</time>
      </trkpt>
      <trkpt lat="40.471600" lon="-5.230817">
        <ele>2473.0</ele>
        <time>2015-08-16T12:56:02Z</time>
      </trkpt>
      <trkpt lat="40.471617" lon="-5.230867">
        <ele>2479.0</ele>
        <time>2015-08-16T12:56:03Z</time>
      </trkpt>
      <trkpt lat="40.471633" lon="-5.230933">
        <ele>2483.0</ele>
        <time>2015-08-16T12:56:04Z</time>
      </trkpt>
      <trkpt lat="40.471617" lon="-5.231033">
        <ele>2487.0</ele>
        <time>2015-08-16T12:56:05Z</time>
      </trkpt>
      <trkpt lat="40.471600" lon="-5.231133">
        <ele>2490.0</ele>
        <time>2015-08-16T12:56:06Z</time>
      </trkpt>
      <trkpt lat="40.471617" lon="-5.231267">
        <ele>2494.0</ele>
        <time>2015-08-16T12:56:07Z</time>
      </trkpt>
      <trkpt lat="40.471667" lon="-5.231350">
        <ele>2499.0</ele>
        <time>2015-08-16T12:56:08Z</time>
      </trkpt>
      <trkpt lat="40.471750" lon="-5.231383">
        <ele>2502.0</ele>
        <time>2015-08-16T12:56:09Z</time>
      </trkpt>
      <trkpt lat="40.471850" lon="-5.231333">
        <ele>2504.0</ele>
        <time>2015-08-16T12:56:10Z</time>
      </trkpt>
      <trkpt lat="40.471933" lon="-5.231217">
        <ele>2508.0</ele>
        <time>2015-08-16T12:56:11Z</time>
      </trkpt>
      <trkpt lat="40.472000" lon="-5.231067">
        <ele>2513.0</ele>
        <time>2015-08-16T12:56:12Z</time>
      </trkpt>
      <trkpt lat="40.472000" lon="-5.230917">
        <ele>2518.0</ele>
        <time>2015-08-16T12:56:13Z</time>
      </trkpt>
      <trkpt lat="40.471983" lon="-5.230767">
        <ele>2523.0</ele>
        <time>2015-08-16T12:56:14Z</time>
      </trkpt>
      <trkpt lat="40.471917" lon="-5.230617">
        <ele>2528.0</ele>
        <time>2015-08-16T12:56:15Z</time>
      </trkpt>
      <trkpt lat="40.471833" lon="-5.230500">
        <ele>2534.0</ele>
        <time>2015-08-16T12:56:16Z</time>
      </trkpt>
      <trkpt lat="40.471733" lon="-5.230450">
        <ele>2540.0</ele>
        <time>2015-08-16T12:56:17Z</time>
      </trkpt>
      <trkpt lat="40.471617" lon="-5.230450">
        <ele>2545.0</ele>
        <time>2015-08-16T12:56:18Z</time>
      </trkpt>
      <trkpt lat="40.471533" lon="-5.230517">
        <ele>2549.0</ele>
        <time>2015-08-16T12:56:19Z</time>
      </trkpt>
      <trkpt lat="40.471467" lon="-5.230600">
        <ele>2554.0</ele>
        <time>2015-08-16T12:56:20Z</time>
      </trkpt>
      <trkpt lat="40.471433" lon="-5.230700">
        <ele>2559.0</ele>
        <time>2015-08-16T12:56:21Z</time>
      </trkpt>
      <trkpt lat="40.471417" lon="-5.230800">
        <ele>2564.0</ele>
        <time>2015-08-16T12:56:22Z</time>
      </trkpt>
      <trkpt lat="40.471450" lon="-5.230883">
        <ele>2568.0</ele>
        <time>2015-08-16T12:56:23Z</time>
      </trkpt>
      <trkpt lat="40.471500" lon="-5.230950">
        <ele>2571.0</ele>
        <time>2015-08-16T12:56:24Z</time>
      </trkpt>
      <trkpt lat="40.471600" lon="-5.230983">
        <ele>2574.0</ele>
        <time>2015-08-16T12:56:25Z</time>
      </trkpt>
      <trkpt lat="40.471700" lon="-5.230967">
        <ele>2577.0</ele>
        <time>2015-08-16T12:56:26Z</time>
      </trkpt>
      <trkpt lat="40.471817" lon="-5.230900">
        <ele>2581.0</ele>
        <time>2015-08-16T12:56:27Z</time>
      </trkpt>
      <trkpt lat="40.471900" lon="-5.230783">
        <ele>2586.0</ele>
        <time>2015-08-16T12:56:28Z</time>
      </trkpt>
      <trkpt lat="40.471967" lon="-5.230633">
        <ele>2589.0</ele>
        <time>2015-08-16T12:56:29Z</time>
      </trkpt>
      <trkpt lat="40.471983" lon="-5.230450">
        <ele>2592.0</ele>
        <time>2015-08-16T12:56:30Z</time>
      </trkpt>
      <trkpt lat="40.471950" lon="-5.230283">
        <ele>2595.0</ele>
        <time>2015-08-16T12:56:31Z</time>
      </trkpt>
      <trkpt lat="40.471883" lon="-5.230133">
        <ele>2598.0</ele>
        <time>2015-08-16T12:56:32Z</time>
      </trkpt>
      <trkpt lat="40.471783" lon="-5.230017">
        <ele>2602.0</ele>
        <time>2015-08-16T12:56:33Z</time>
      </trkpt>
      <trkpt lat="40.471683" lon="-5.229967">
        <ele>2605.0</ele>
        <time>2015-08-16T12:56:34Z</time>
      </trkpt>
      <trkpt lat="40.471567" lon="-5.229967">
        <ele>2609.0</ele>
        <time>2015-08-16T12:56:35Z</time>
      </trkpt>
      <trkpt lat="40.471467" lon="-5.230017">
        <ele>2612.0</ele>
        <time>2015-08-16T12:56:36Z</time>
      </trkpt>
      <trkpt lat="40.471400" lon="-5.230117">
        <ele>2616.0</ele>
        <time>2015-08-16T12:56:37Z</time>
      </trkpt>
      <trkpt lat="40.471350" lon="-5.230233">
        <ele>2619.0</ele>
        <time>2015-08-16T12:56:38Z</time>
      </trkpt>
      <trkpt lat="40.471367" lon="-5.230350">
        <ele>2622.0</ele>
        <time>2015-08-16T12:56:39Z</time>
      </trkpt>
      <trkpt lat="40.471450" lon="-5.230433">
        <ele>2624.0</ele>
        <time>2015-08-16T12:56:40Z</time>
      </trkpt>
      <trkpt lat="40.471550" lon="-5.230433">
        <ele>2626.0</ele>
        <time>2015-08-16T12:56:41Z</time>
      </trkpt>
      <trkpt lat="40.471667" lon="-5.230367">
        <ele>2627.0</ele>
        <time>2015-08-16T12:56:42Z</time>
      </trkpt>
      <trkpt lat="40.471767" lon="-5.230233">
        <ele>2630.0</ele>
        <time>2015-08-16T12:56:43Z</time>
      </trkpt>
      <trkpt lat="40.471850" lon="-5.230083">
        <ele>2636.0</ele>
        <time>2015-08-16T12:56:44Z</time>
      </trkpt>
      <trkpt lat="40.471900" lon="-5.229933">
        <ele>2642.0</ele>
        <time>2015-08-16T12:56:45Z</time>
      </trkpt>
      <trkpt lat="40.471917" lon="-5.229783">
        <ele>2647.0</ele>
        <time>2015-08-16T12:56:46Z</time>
      </trkpt>
      <trkpt lat="40.471900" lon="-5.229633">
        <ele>2651.0</ele>
        <time>2015-08-16T12:56:47Z</time>
      </trkpt>
      <trkpt lat="40.471850" lon="-5.229500">
        <ele>2653.0</ele>
        <time>2015-08-16T12:56:48Z</time>
      </trkpt>
      <trkpt lat="40.471750" lon="-5.229383">
        <ele>2654.0</ele>
        <time>2015-08-16T12:56:49Z</time>
      </trkpt>
      <trkpt lat="40.471650" lon="-5.229317">
        <ele>2658.0</ele>
        <time>2015-08-16T12:56:50Z</time>
      </trkpt>
      <trkpt lat="40.471533" lon="-5.229300">
        <ele>2662.0</ele>
        <time>2015-08-16T12:56:51Z</time>
      </trkpt>
      <trkpt lat="40.471450" lon="-5.229350">
        <ele>2667.0</ele>
        <time>2015-08-16T12:56:52Z</time>
      </trkpt>
      <trkpt lat="40.471400" lon="-5.229450">
        <ele>2671.0</ele>
        <time>2015-08-16T12:56:53Z</time>
      </trkpt>
      <trkpt lat="40.471400" lon="-5.229567">
        <ele>2675.0</ele>
        <time>2015-08-16T12:56:54Z</time>
      </trkpt>
      <trkpt lat="40.471433" lon="-5.229667">
        <ele>2681.0</ele>
        <time>2015-08-16T12:56:55Z</time>
      </trkpt>
      <trkpt lat="40.471500" lon="-5.229717">
        <ele>2687.0</ele>
        <time>2015-08-16T12:56:56Z</time>
      </trkpt>
      <trkpt lat="40.471550" lon="-5.229750">
        <ele>2692.0</ele>
        <time>2015-08-16T12:56:57Z</time>
      </trkpt>
      <trkpt lat="40.471633" lon="-5.229750">
        <ele>2695.0</ele>
        <time>2015-08-16T12:56:58Z</time>
      </trkpt>
      <trkpt lat="40.471733" lon="-5.229717">
        <ele>2698.0</ele>
        <time>2015-08-16T12:56:59Z</time>
      </trkpt>
      <trkpt lat="40.471833" lon="-5.229667">
        <ele>2700.0</ele>
        <time>2015-08-16T12:57:00Z</time>
      </trkpt>
      <trkpt lat="40.471933" lon="-5.229583">
        <ele>2703.0</ele>
        <time>2015-08-16T12:57:01Z</time>
      </trkpt>
      <trkpt lat="40.472033" lon="-5.229483">
        <ele>2707.0</ele>
        <time>2015-08-16T12:57:02Z</time>
      </trkpt>
      <trkpt lat="40.472117" lon="-5.229350">
        <ele>2711.0</ele>
        <time>2015-08-16T12:57:03Z</time>
      </trkpt>
      <trkpt lat="40.472150" lon="-5.229217">
        <ele>2714.0</ele>
        <time>2015-08-16T12:57:04Z</time>
      </trkpt>
      <trkpt lat="40.472167" lon="-5.229067">
        <ele>2717.0</ele>
        <time>2015-08-16T12:57:05Z</time>
      </trkpt>
      <trkpt lat="40.472150" lon="-5.228900">
        <ele>2719.0</ele>
        <time>2015-08-16T12:57:06Z</time>
      </trkpt>
      <trkpt lat="40.472100" lon="-5.228750">
        <ele>2722.0</ele>
        <time>2015-08-16T12:57:07Z</time>
      </trkpt>
      <trkpt lat="40.472033" lon="-5.228617">
        <ele>2726.0</ele>
        <time>2015-08-16T12:57:08Z</time>
      </trkpt>
      <trkpt lat="40.471950" lon="-5.228550">
        <ele>2730.0</ele>
        <time>2015-08-16T12:57:09Z</time>
      </trkpt>
      <trkpt lat="40.471850" lon="-5.228533">
        <ele>2734.0</ele>
        <time>2015-08-16T12:57:10Z</time>
      </trkpt>
      <trkpt lat="40.471750" lon="-5.228567">
        <ele>2737.0</ele>
        <time>2015-08-16T12:57:11Z</time>
      </trkpt>
      <trkpt lat="40.471700" lon="-5.228667">
        <ele>2741.0</ele>
        <time>2015-08-16T12:57:12Z</time>
      </trkpt>
      <trkpt lat="40.471700" lon="-5.228783">
        <ele>2744.0</ele>
        <time>2015-08-16T12:57:13Z</time>
      </trkpt>
      <trkpt lat="40.471750" lon="-5.228883">
        <ele>2750.0</ele>
        <time>2015-08-16T12:57:14Z</time>
      </trkpt>
      <trkpt lat="40.471833" lon="-5.228933">
        <ele>2756.0</ele>
        <time>2015-08-16T12:57:15Z</time>
      </trkpt>
      <trkpt lat="40.471917" lon="-5.228967">
        <ele>2762.0</ele>
        <time>2015-08-16T12:57:16Z</time>
      </trkpt>
      <trkpt lat="40.472000" lon="-5.228950">
        <ele>2767.0</ele>
        <time>2015-08-16T12:57:17Z</time>
      </trkpt>
      <trkpt lat="40.472100" lon="-5.228917">
        <ele>2770.0</ele>
        <time>2015-08-16T12:57:18Z</time>
      </trkpt>
      <trkpt lat="40.472183" lon="-5.228850">
        <ele>2772.0</ele>
        <time>2015-08-16T12:57:19Z</time>
      </trkpt>
      <trkpt lat="40.472300" lon="-5.228767">
        <ele>2775.0</ele>
        <time>2015-08-16T12:57:20Z</time>
      </trkpt>
      <trkpt lat="40.472383" lon="-5.228650">
        <ele>2777.0</ele>
        <time>2015-08-16T12:57:21Z</time>
      </trkpt>
      <trkpt lat="40.472450" lon="-5.228517">
        <ele>2779.0</ele>
        <time>2015-08-16T12:57:22Z</time>
      </trkpt>
      <trkpt lat="40.472483" lon="-5.228350">
        <ele>2781.0</ele>
        <time>2015-08-16T12:57:23Z</time>
      </trkpt>
      <trkpt lat="40.472450" lon="-5.228167">
        <ele>2782.0</ele>
        <time>2015-08-16T12:57:24Z</time>
      </trkpt>
      <trkpt lat="40.472383" lon="-5.228017">
        <ele>2785.0</ele>
        <time>2015-08-16T12:57:25Z</time>
      </trkpt>
      <trkpt lat="40.472283" lon="-5.227950">
        <ele>2788.0</ele>
        <time>2015-08-16T12:57:26Z</time>
      </trkpt>
      <trkpt lat="40.472183" lon="-5.227950">
        <ele>2790.0</ele>
        <time>2015-08-16T12:57:27Z</time>
      </trkpt>
      <trkpt lat="40.472100" lon="-5.228033">
        <ele>2790.0</ele>
        <time>2015-08-16T12:57:28Z</time>
      </trkpt>
      <trkpt lat="40.472067" lon="-5.228150">
        <ele>2792.0</ele>
        <time>2015-08-16T12:57:29Z</time>
      </trkpt>
      <trkpt lat="40.472050" lon="-5.228267">
        <ele>2796.0</ele>
        <time>2015-08-16T12:57:30Z</time>
      </trkpt>
      <trkpt lat="40.472083" lon="-5.228383">
        <ele>2800.0</ele>
        <time>2015-08-16T12:57:31Z</time>
      </trkpt>
      <trkpt lat="40.472150" lon="-5.228450">
        <ele>2803.0</ele>
        <time>2015-08-16T12:57:32Z</time>
      </trkpt>
      <trkpt lat="40.472267" lon="-5.228467">
        <ele>2805.0</ele>
        <time>2015-08-16T12:57:33Z</time>
      </trkpt>
      <trkpt lat="40.472383" lon="-5.228450">
        <ele>2808.0</ele>
        <time>2015-08-16T12:57:34Z</time>
      </trkpt>
      <trkpt lat="40.472517" lon="-5.228400">
        <ele>2813.0</ele>
        <time>2015-08-16T12:57:35Z</time>
      </trkpt>
      <trkpt lat="40.472617" lon="-5.228317">
        <ele>2817.0</ele>
        <time>2015-08-16T12:57:36Z</time>
      </trkpt>
      <trkpt lat="40.472717" lon="-5.228200">
        <ele>2821.0</ele>
        <time>2015-08-16T12:57:37Z</time>
      </trkpt>
      <trkpt lat="40.472783" lon="-5.228067">
        <ele>2823.0</ele>
        <time>2015-08-16T12:57:38Z</time>
      </trkpt>
      <trkpt lat="40.472850" lon="-5.227933">
        <ele>2824.0</ele>
        <time>2015-08-16T12:57:39Z</time>
      </trkpt>
      <trkpt lat="40.472933" lon="-5.227800">
        <ele>2825.0</ele>
        <time>2015-08-16T12:57:40Z</time>
      </trkpt>
      <trkpt lat="40.473000" lon="-5.227667">
        <ele>2825.0</ele>
        <time>2015-08-16T12:57:41Z</time>
      </trkpt>
      <trkpt lat="40.473083" lon="-5.227550">
        <ele>2826.0</ele>
        <time>2015-08-16T12:57:42Z</time>
      </trkpt>
      <trkpt lat="40.473167" lon="-5.227433">
        <ele>2825.0</ele>
        <time>2015-08-16T12:57:43Z</time>
      </trkpt>
      <trkpt lat="40.473267" lon="-5.227300">
        <ele>2825.0</ele>
        <time>2015-08-16T12:57:44Z</time>
      </trkpt>
      <trkpt lat="40.473350" lon="-5.227167">
        <ele>2824.0</ele>
        <time>2015-08-16T12:57:45Z</time>
      </trkpt>
      <trkpt lat="40.473433" lon="-5.227017">
        <ele>2824.0</ele>
        <time>2015-08-16T12:57:46Z</time>
      </trkpt>
      <trkpt lat="40.473517" lon="-5.226883">
        <ele>2827.0</ele>
        <time>2015-08-16T12:57:47Z</time>
      </trkpt>
      <trkpt lat="40.473583" lon="-5.226750">
        <ele>2830.0</ele>
        <time>2015-08-16T12:57:48Z</time>
      </trkpt>
      <trkpt lat="40.473633" lon="-5.226633">
        <ele>2832.0</ele>
        <time>2015-08-16T12:57:49Z</time>
      </trkpt>
      <trkpt lat="40.473683" lon="-5.226517">
        <ele>2833.0</ele>
        <time>2015-08-16T12:57:50Z</time>
      </trkpt>
      <trkpt lat="40.473750" lon="-5.226400">
        <ele>2832.0</ele>
        <time>2015-08-16T12:57:51Z</time>
      </trkpt>
      <trkpt lat="40.473800" lon="-5.226267">
        <ele>2829.0</ele>
        <time>2015-08-16T12:57:52Z</time>
      </trkpt>
      <trkpt lat="40.473883" lon="-5.226117">
        <ele>2827.0</ele>
        <time>2015-08-16T12:57:53Z</time>
      </trkpt>
      <trkpt lat="40.473950" lon="-5.225967">
        <ele>2826.0</ele>
        <time>2015-08-16T12:57:54Z</time>
      </trkpt>
      <trkpt lat="40.474050" lon="-5.225817">
        <ele>2826.0</ele>
        <time>2015-08-16T12:57:55Z</time>
      </trkpt>
      <trkpt lat="40.474150" lon="-5.225717">
        <ele>2827.0</ele>
        <time>2015-08-16T12:57:56Z</time>
      </trkpt>
      <trkpt lat="40.474250" lon="-5.225617">
        <ele>2828.0</ele>
        <time>2015-08-16T12:57:57Z</time>
      </trkpt>
      <trkpt lat="40.474333" lon="-5.225517">
        <ele>2828.0</ele>
        <time>2015-08-16T12:57:58Z</time>
      </trkpt>
      <trkpt lat="40.474417" lon="-5.225400">
        <ele>2827.0</ele>
        <time>2015-08-16T12:57:59Z</time>
      </trkpt>
      <trkpt lat="40.474500" lon="-5.225283">
        <ele>2825.0</ele>
        <time>2015-08-16T12:58:00Z</time>
      </trkpt>
      <trkpt lat="40.474600" lon="-5.225183">
        <ele>2822.0</ele>
        <time>2015-08-16T12:58:01Z</time>
      </trkpt>
      <trkpt lat="40.474683" lon="-5.225083">
        <ele>2819.0</ele>
        <time>2015-08-16T12:58:02Z</time>
      </trkpt>
      <trkpt lat="40.474783" lon="-5.224950">
        <ele>2815.0</ele>
        <time>2015-08-16T12:58:03Z</time>
      </trkpt>
      <trkpt lat="40.474883" lon="-5.224817">
        <ele>2811.0</ele>
        <time>2015-08-16T12:58:04Z</time>
      </trkpt>
      <trkpt lat="40.475000" lon="-5.224683">
        <ele>2809.0</ele>
        <time>2015-08-16T12:58:05Z</time>
      </trkpt>
      <trkpt lat="40.475117" lon="-5.224567">
        <ele>2807.0</ele>
        <time>2015-08-16T12:58:06Z</time>
      </trkpt>
      <trkpt lat="40.475233" lon="-5.224450">
        <ele>2806.0</ele>
        <time>2015-08-16T12:58:07Z</time>
      </trkpt>
      <trkpt lat="40.475350" lon="-5.224350">
        <ele>2805.0</ele>
        <time>2015-08-16T12:58:08Z</time>
      </trkpt>
      <trkpt lat="40.475467" lon="-5.224250">
        <ele>2803.0</ele>
        <time>2015-08-16T12:58:09Z</time>
      </trkpt>
      <trkpt lat="40.475583" lon="-5.224133">
        <ele>2800.0</ele>
        <time>2015-08-16T12:58:10Z</time>
      </trkpt>
      <trkpt lat="40.475683" lon="-5.224000">
        <ele>2796.0</ele>
        <time>2015-08-16T12:58:11Z</time>
      </trkpt>
      <trkpt lat="40.475800" lon="-5.223867">
        <ele>2794.0</ele>
        <time>2015-08-16T12:58:12Z</time>
      </trkpt>
      <trkpt lat="40.475917" lon="-5.223733">
        <ele>2792.0</ele>
        <time>2015-08-16T12:58:13Z</time>
      </trkpt>
      <trkpt lat="40.476033" lon="-5.223617">
        <ele>2791.0</ele>
        <time>2015-08-16T12:58:14Z</time>
      </trkpt>
      <trkpt lat="40.476150" lon="-5.223517">
        <ele>2789.0</ele>
        <time>2015-08-16T12:58:15Z</time>
      </trkpt>
      <trkpt lat="40.476267" lon="-5.223400">
        <ele>2787.0</ele>
        <time>2015-08-16T12:58:16Z</time>
      </trkpt>
      <trkpt lat="40.476400" lon="-5.223300">
        <ele>2784.0</ele>
        <time>2015-08-16T12:58:17Z</time>
      </trkpt>
      <trkpt lat="40.476517" lon="-5.223183">
        <ele>2781.0</ele>
        <time>2015-08-16T12:58:18Z</time>
      </trkpt>
      <trkpt lat="40.476650" lon="-5.223067">
        <ele>2778.0</ele>
        <time>2015-08-16T12:58:19Z</time>
      </trkpt>
      <trkpt lat="40.476783" lon="-5.222950">
        <ele>2776.0</ele>
        <time>2015-08-16T12:58:20Z</time>
      </trkpt>
      <trkpt lat="40.476900" lon="-5.222833">
        <ele>2774.0</ele>
        <time>2015-08-16T12:58:21Z</time>
      </trkpt>
      <trkpt lat="40.477033" lon="-5.222733">
        <ele>2772.0</ele>
        <time>2015-08-16T12:58:22Z</time>
      </trkpt>
      <trkpt lat="40.477150" lon="-5.222617">
        <ele>2770.0</ele>
        <time>2015-08-16T12:58:23Z</time>
      </trkpt>
      <trkpt lat="40.477267" lon="-5.222500">
        <ele>2767.0</ele>
        <time>2015-08-16T12:58:24Z</time>
      </trkpt>
      <trkpt lat="40.477383" lon="-5.222383">
        <ele>2765.0</ele>
        <time>2015-08-16T12:58:25Z</time>
      </trkpt>
      <trkpt lat="40.477500" lon="-5.222267">
        <ele>2762.0</ele>
        <time>2015-08-16T12:58:26Z</time>
      </trkpt>
      <trkpt lat="40.477600" lon="-5.222133">
        <ele>2760.0</ele>
        <time>2015-08-16T12:58:27Z</time>
      </trkpt>
      <trkpt lat="40.477717" lon="-5.222017">
        <ele>2758.0</ele>
        <time>2015-08-16T12:58:28Z</time>
      </trkpt>
      <trkpt lat="40.477833" lon="-5.221900">
        <ele>2756.0</ele>
        <time>2015-08-16T12:58:29Z</time>
      </trkpt>
      <trkpt lat="40.477950" lon="-5.221783">
        <ele>2754.0</ele>
        <time>2015-08-16T12:58:30Z</time>
      </trkpt>
      <trkpt lat="40.478067" lon="-5.221683">
        <ele>2753.0</ele>
        <time>2015-08-16T12:58:31Z</time>
      </trkpt>
      <trkpt lat="40.478183" lon="-5.221567">
        <ele>2752.0</ele>
        <time>2015-08-16T12:58:32Z</time>
      </trkpt>
      <trkpt lat="40.478300" lon="-5.221450">
        <ele>2750.0</ele>
        <time>2015-08-16T12:58:33Z</time>
      </trkpt>
      <trkpt lat="40.478417" lon="-5.221333">
        <ele>2748.0</ele>
        <time>2015-08-16T12:58:34Z</time>
      </trkpt>
      <trkpt lat="40.478533" lon="-5.221217">
        <ele>2746.0</ele>
        <time>2015-08-16T12:58:35Z</time>
      </trkpt>
      <trkpt lat="40.478650" lon="-5.221117">
        <ele>2745.0</ele>
        <time>2015-08-16T12:58:36Z</time>
      </trkpt>
      <trkpt lat="40.478750" lon="-5.221000">
        <ele>2744.0</ele>
        <time>2015-08-16T12:58:37Z</time>
      </trkpt>
      <trkpt lat="40.478850" lon="-5.220900">
        <ele>2743.0</ele>
        <time>2015-08-16T12:58:38Z</time>
      </trkpt>
      <trkpt lat="40.478950" lon="-5.220783">
        <ele>2741.0</ele>
        <time>2015-08-16T12:58:39Z</time>
      </trkpt>
      <trkpt lat="40.479050" lon="-5.220633">
        <ele>2740.0</ele>
        <time>2015-08-16T12:58:40Z</time>
      </trkpt>
      <trkpt lat="40.479167" lon="-5.220500">
        <ele>2740.0</ele>
        <time>2015-08-16T12:58:41Z</time>
      </trkpt>
      <trkpt lat="40.479267" lon="-5.220383">
        <ele>2744.0</ele>
        <time>2015-08-16T12:58:42Z</time>
      </trkpt>
      <trkpt lat="40.479350" lon="-5.220283">
        <ele>2748.0</ele>
        <time>2015-08-16T12:58:43Z</time>
      </trkpt>
      <trkpt lat="40.479433" lon="-5.220217">
        <ele>2751.0</ele>
        <time>2015-08-16T12:58:44Z</time>
      </trkpt>
      <trkpt lat="40.479500" lon="-5.220150">
        <ele>2752.0</ele>
        <time>2015-08-16T12:58:45Z</time>
      </trkpt>
      <trkpt lat="40.479600" lon="-5.220083">
        <ele>2753.0</ele>
        <time>2015-08-16T12:58:46Z</time>
      </trkpt>
      <trkpt lat="40.479700" lon="-5.220050">
        <ele>2753.0</ele>
        <time>2015-08-16T12:58:47Z</time>
      </trkpt>
      <trkpt lat="40.479817" lon="-5.220017">
        <ele>2754.0</ele>
        <time>2015-08-16T12:58:48Z</time>
      </trkpt>
      <trkpt lat="40.479933" lon="-5.219983">
        <ele>2756.0</ele>
        <time>2015-08-16T12:58:49Z</time>
      </trkpt>
      <trkpt lat="40.480033" lon="-5.219950">
        <ele>2759.0</ele>
        <time>2015-08-16T12:58:50Z</time>
      </trkpt>
      <trkpt lat="40.480117" lon="-5.219883">
        <ele>2760.0</ele>
        <time>2015-08-16T12:58:51Z</time>
      </trkpt>
      <trkpt lat="40.480200" lon="-5.219800">
        <ele>2760.0</ele>
        <time>2015-08-16T12:58:52Z</time>
      </trkpt>
      <trkpt lat="40.480300" lon="-5.219700">
        <ele>2760.0</ele>
        <time>2015-08-16T12:58:53Z</time>
      </trkpt>
      <trkpt lat="40.480383" lon="-5.219617">
        <ele>2759.0</ele>
        <time>2015-08-16T12:58:54Z</time>
      </trkpt>
      <trkpt lat="40.480483" lon="-5.219533">
        <ele>2759.0</ele>
        <time>2015-08-16T12:58:55Z</time>
      </trkpt>
      <trkpt lat="40.480583" lon="-5.219450">
        <ele>2758.0</ele>
        <time>2015-08-16T12:58:56Z</time>
      </trkpt>
      <trkpt lat="40.480667" lon="-5.219383">
        <ele>2759.0</ele>
        <time>2015-08-16T12:58:57Z</time>
      </trkpt>
      <trkpt lat="40.480767" lon="-5.219300">
        <ele>2759.0</ele>
        <time>2015-08-16T12:58:58Z</time>
      </trkpt>
      <trkpt lat="40.480867" lon="-5.219250">
        <ele>2758.0</ele>
        <time>2015-08-16T12:58:59Z</time>
      </trkpt>
      <trkpt lat="40.480967" lon="-5.219183">
        <ele>2757.0</ele>
        <time>2015-08-16T12:59:00Z</time>
      </trkpt>
      <trkpt lat="40.481067" lon="-5.219117">
        <ele>2757.0</ele>
        <time>2015-08-16T12:59:01Z</time>
      </trkpt>
      <trkpt lat="40.481167" lon="-5.219033">
        <ele>2755.0</ele>
        <time>2015-08-16T12:59:02Z</time>
      </trkpt>
      <trkpt lat="40.481267" lon="-5.218950">
        <ele>2754.0</ele>
        <time>2015-08-16T12:59:03Z</time>
      </trkpt>
      <trkpt lat="40.481367" lon="-5.218850">
        <ele>2752.0</ele>
        <time>2015-08-16T12:59:04Z</time>
      </trkpt>
      <trkpt lat="40.481483" lon="-5.218767">
        <ele>2751.0</ele>
        <time>2015-08-16T12:59:05Z</time>
      </trkpt>
      <trkpt lat="40.481583" lon="-5.218683">
        <ele>2751.0</ele>
        <time>2015-08-16T12:59:06Z</time>
      </trkpt>
      <trkpt lat="40.481683" lon="-5.218633">
        <ele>2750.0</ele>
        <time>2015-08-16T12:59:07Z</time>
      </trkpt>
      <trkpt lat="40.481800" lon="-5.218550">
        <ele>2749.0</ele>
        <time>2015-08-16T12:59:08Z</time>
      </trkpt>
      <trkpt lat="40.481900" lon="-5.218483">
        <ele>2747.0</ele>
        <time>2015-08-16T12:59:09Z</time>
      </trkpt>
      <trkpt lat="40.482000" lon="-5.218383">
        <ele>2745.0</ele>
        <time>2015-08-16T12:59:10Z</time>
      </trkpt>
      <trkpt lat="40.482100" lon="-5.218267">
        <ele>2743.0</ele>
        <time>2015-08-16T12:59:11Z</time>
      </trkpt>
      <trkpt lat="40.482217" lon="-5.218167">
        <ele>2741.0</ele>
        <time>2015-08-16T12:59:12Z</time>
      </trkpt>
      <trkpt lat="40.482317" lon="-5.218083">
        <ele>2738.0</ele>
        <time>2015-08-16T12:59:13Z</time>
      </trkpt>
      <trkpt lat="40.482433" lon="-5.218000">
        <ele>2735.0</ele>
        <time>2015-08-16T12:59:14Z</time>
      </trkpt>
      <trkpt lat="40.482550" lon="-5.217900">
        <ele>2732.0</ele>
        <time>2015-08-16T12:59:15Z</time>
      </trkpt>
      <trkpt lat="40.482667" lon="-5.217800">
        <ele>2728.0</ele>
        <time>2015-08-16T12:59:16Z</time>
      </trkpt>
      <trkpt lat="40.482767" lon="-5.217667">
        <ele>2724.0</ele>
        <time>2015-08-16T12:59:17Z</time>
      </trkpt>
      <trkpt lat="40.482867" lon="-5.217550">
        <ele>2720.0</ele>
        <time>2015-08-16T12:59:18Z</time>
      </trkpt>
      <trkpt lat="40.482983" lon="-5.217417">
        <ele>2716.0</ele>
        <time>2015-08-16T12:59:19Z</time>
      </trkpt>
      <trkpt lat="40.483117" lon="-5.217300">
        <ele>2713.0</ele>
        <time>2015-08-16T12:59:20Z</time>
      </trkpt>
      <trkpt lat="40.483233" lon="-5.217183">
        <ele>2711.0</ele>
        <time>2015-08-16T12:59:21Z</time>
      </trkpt>
      <trkpt lat="40.483350" lon="-5.217067">
        <ele>2710.0</ele>
        <time>2015-08-16T12:59:22Z</time>
      </trkpt>
      <trkpt lat="40.483483" lon="-5.216967">
        <ele>2708.0</ele>
        <time>2015-08-16T12:59:23Z</time>
      </trkpt>
      <trkpt lat="40.483600" lon="-5.216867">
        <ele>2705.0</ele>
        <time>2015-08-16T12:59:24Z</time>
      </trkpt>
      <trkpt lat="40.483733" lon="-5.216750">
        <ele>2702.0</ele>
        <time>2015-08-16T12:59:25Z</time>
      </trkpt>
      <trkpt lat="40.483867" lon="-5.216633">
        <ele>2699.0</ele>
        <time>2015-08-16T12:59:26Z</time>
      </trkpt>
      <trkpt lat="40.484000" lon="-5.216517">
        <ele>2697.0</ele>
        <time>2015-08-16T12:59:27Z</time>
      </trkpt>
      <trkpt lat="40.484133" lon="-5.216417">
        <ele>2696.0</ele>
        <time>2015-08-16T12:59:28Z</time>
      </trkpt>
      <trkpt lat="40.484267" lon="-5.216317">
        <ele>2695.0</ele>
        <time>2015-08-16T12:59:29Z</time>
      </trkpt>
      <trkpt lat="40.484400" lon="-5.216200">
        <ele>2694.0</ele>
        <time>2015-08-16T12:59:30Z</time>
      </trkpt>
      <trkpt lat="40.484533" lon="-5.216083">
        <ele>2692.0</ele>
        <time>2015-08-16T12:59:31Z</time>
      </trkpt>
      <trkpt lat="40.484650" lon="-5.215967">
        <ele>2690.0</ele>
        <time>2015-08-16T12:59:32Z</time>
      </trkpt>
      <trkpt lat="40.484783" lon="-5.215817">
        <ele>2688.0</ele>
        <time>2015-08-16T12:59:33Z</time>
      </trkpt>
      <trkpt lat="40.484900" lon="-5.215683">
        <ele>2686.0</ele>
        <time>2015-08-16T12:59:34Z</time>
      </trkpt>
      <trkpt lat="40.485017" lon="-5.215550">
        <ele>2685.0</ele>
        <time>2015-08-16T12:59:35Z</time>
      </trkpt>
      <trkpt lat="40.485133" lon="-5.215417">
        <ele>2684.0</ele>
        <time>2015-08-16T12:59:36Z</time>
      </trkpt>
      <trkpt lat="40.485250" lon="-5.215267">
        <ele>2683.0</ele>
        <time>2015-08-16T12:59:37Z</time>
      </trkpt>
      <trkpt lat="40.485350" lon="-5.215133">
        <ele>2681.0</ele>
        <time>2015-08-16T12:59:38Z</time>
      </trkpt>
      <trkpt lat="40.485467" lon="-5.214983">
        <ele>2679.0</ele>
        <time>2015-08-16T12:59:39Z</time>
      </trkpt>
      <trkpt lat="40.485567" lon="-5.214817">
        <ele>2677.0</ele>
        <time>2015-08-16T12:59:40Z</time>
      </trkpt>
      <trkpt lat="40.485683" lon="-5.214667">
        <ele>2675.0</ele>
        <time>2015-08-16T12:59:41Z</time>
      </trkpt>
      <trkpt lat="40.485800" lon="-5.214517">
        <ele>2674.0</ele>
        <time>2015-08-16T12:59:42Z</time>
      </trkpt>
      <trkpt lat="40.485900" lon="-5.214367">
        <ele>2672.0</ele>
        <time>2015-08-16T12:59:43Z</time>
      </trkpt>
      <trkpt lat="40.486017" lon="-5.214233">
        <ele>2671.0</ele>
        <time>2015-08-16T12:59:44Z</time>
      </trkpt>
      <trkpt lat="40.486117" lon="-5.214083">
        <ele>2669.0</ele>
        <time>2015-08-16T12:59:45Z</time>
      </trkpt>
      <trkpt lat="40.486233" lon="-5.213917">
        <ele>2667.0</ele>
        <time>2015-08-16T12:59:46Z</time>
      </trkpt>
      <trkpt lat="40.486333" lon="-5.213767">
        <ele>2665.0</ele>
        <time>2015-08-16T12:59:47Z</time>
      </trkpt>
      <trkpt lat="40.486433" lon="-5.213600">
        <ele>2664.0</ele>
        <time>2015-08-16T12:59:48Z</time>
      </trkpt>
      <trkpt lat="40.486533" lon="-5.213450">
        <ele>2662.0</ele>
        <time>2015-08-16T12:59:49Z</time>
      </trkpt>
      <trkpt lat="40.486650" lon="-5.213317">
        <ele>2660.0</ele>
        <time>2015-08-16T12:59:50Z</time>
      </trkpt>
      <trkpt lat="40.486750" lon="-5.213150">
        <ele>2658.0</ele>
        <time>2015-08-16T12:59:51Z</time>
      </trkpt>
      <trkpt lat="40.486850" lon="-5.213000">
        <ele>2657.0</ele>
        <time>2015-08-16T12:59:52Z</time>
      </trkpt>
      <trkpt lat="40.486950" lon="-5.212850">
        <ele>2655.0</ele>
        <time>2015-08-16T12:59:53Z</time>
      </trkpt>
      <trkpt lat="40.487050" lon="-5.212683">
        <ele>2653.0</ele>
        <time>2015-08-16T12:59:54Z</time>
      </trkpt>
      <trkpt lat="40.487150" lon="-5.212533">
        <ele>2651.0</ele>
        <time>2015-08-16T12:59:55Z</time>
      </trkpt>
      <trkpt lat="40.487250" lon="-5.212383">
        <ele>2649.0</ele>
        <time>2015-08-16T12:59:56Z</time>
      </trkpt>
      <trkpt lat="40.487350" lon="-5.212217">
        <ele>2646.0</ele>
        <time>2015-08-16T12:59:57Z</time>
      </trkpt>
      <trkpt lat="40.487450" lon="-5.212067">
        <ele>2644.0</ele>
        <time>2015-08-16T12:59:58Z</time>
      </trkpt>
      <trkpt lat="40.487550" lon="-5.211900">
        <ele>2643.0</ele>
        <time>2015-08-16T12:59:59Z</time>
      </trkpt>
      <trkpt lat="40.487650" lon="-5.211750">
        <ele>2642.0</ele>
        <time>2015-08-16T13:00:00Z</time>
      </trkpt>
      <trkpt lat="40.487733" lon="-5.211583">
        <ele>2641.0</ele>
        <time>2015-08-16T13:00:01Z</time>
      </trkpt>
      <trkpt lat="40.487817" lon="-5.211433">
        <ele>2640.0</ele>
        <time>2015-08-16T13:00:02Z</time>
      </trkpt>
      <trkpt lat="40.487883" lon="-5.211267">
        <ele>2639.0</ele>
        <time>2015-08-16T13:00:03Z</time>
      </trkpt>
      <trkpt lat="40.487967" lon="-5.211117">
        <ele>2637.0</ele>
        <time>2015-08-16T13:00:04Z</time>
      </trkpt>
      <trkpt lat="40.488033" lon="-5.210950">
        <ele>2635.0</ele>
        <time>2015-08-16T13:00:05Z</time>
      </trkpt>
      <trkpt lat="40.488100" lon="-5.210783">
        <ele>2633.0</ele>
        <time>2015-08-16T13:00:06Z</time>
      </trkpt>
      <trkpt lat="40.488150" lon="-5.210600">
        <ele>2632.0</ele>
        <time>2015-08-16T13:00:07Z</time>
      </trkpt>
      <trkpt lat="40.488217" lon="-5.210433">
        <ele>2631.0</ele>
        <time>2015-08-16T13:00:08Z</time>
      </trkpt>
      <trkpt lat="40.488267" lon="-5.210267">
        <ele>2630.0</ele>
        <time>2015-08-16T13:00:09Z</time>
      </trkpt>
      <trkpt lat="40.488317" lon="-5.210083">
        <ele>2628.0</ele>
        <time>2015-08-16T13:00:10Z</time>
      </trkpt>
      <trkpt lat="40.488367" lon="-5.209917">
        <ele>2627.0</ele>
        <time>2015-08-16T13:00:11Z</time>
      </trkpt>
      <trkpt lat="40.488417" lon="-5.209750">
        <ele>2625.0</ele>
        <time>2015-08-16T13:00:12Z</time>
      </trkpt>
      <trkpt lat="40.488467" lon="-5.209567">
        <ele>2624.0</ele>
        <time>2015-08-16T13:00:13Z</time>
      </trkpt>
      <trkpt lat="40.488500" lon="-5.209383">
        <ele>2623.0</ele>
        <time>2015-08-16T13:00:14Z</time>
      </trkpt>
      <trkpt lat="40.488550" lon="-5.209217">
        <ele>2621.0</ele>
        <time>2015-08-16T13:00:15Z</time>
      </trkpt>
      <trkpt lat="40.488583" lon="-5.209033">
        <ele>2620.0</ele>
        <time>2015-08-16T13:00:16Z</time>
      </trkpt>
      <trkpt lat="40.488617" lon="-5.208850">
        <ele>2619.0</ele>
        <time>2015-08-16T13:00:17Z</time>
      </trkpt>
      <trkpt lat="40.488650" lon="-5.208683">
        <ele>2618.0</ele>
        <time>2015-08-16T13:00:18Z</time>
      </trkpt>
      <trkpt lat="40.488683" lon="-5.208500">
        <ele>2617.0</ele>
        <time>2015-08-16T13:00:19Z</time>
      </trkpt>
      <trkpt lat="40.488717" lon="-5.208317">
        <ele>2615.0</ele>
        <time>2015-08-16T13:00:20Z</time>
      </trkpt>
      <trkpt lat="40.488750" lon="-5.208133">
        <ele>2614.0</ele>
        <time>2015-08-16T13:00:21Z</time>
      </trkpt>
      <trkpt lat="40.488767" lon="-5.207950">
        <ele>2613.0</ele>
        <time>2015-08-16T13:00:22Z</time>
      </trkpt>
      <trkpt lat="40.488767" lon="-5.207767">
        <ele>2612.0</ele>
        <time>2015-08-16T13:00:23Z</time>
      </trkpt>
      <trkpt lat="40.488783" lon="-5.207600">
        <ele>2612.0</ele>
        <time>2015-08-16T13:00:24Z</time>
      </trkpt>
      <trkpt lat="40.488783" lon="-5.207417">
        <ele>2611.0</ele>
        <time>2015-08-16T13:00:25Z</time>
      </trkpt>
      <trkpt lat="40.488800" lon="-5.207233">
        <ele>2610.0</ele>
        <time>2015-08-16T13:00:26Z</time>
      </trkpt>
      <trkpt lat="40.488800" lon="-5.207067">
        <ele>2609.0</ele>
        <time>2015-08-16T13:00:27Z</time>
      </trkpt>
      <trkpt lat="40.488800" lon="-5.206883">
        <ele>2607.0</ele>
        <time>2015-08-16T13:00:28Z</time>
      </trkpt>
      <trkpt lat="40.488783" lon="-5.206700">
        <ele>2606.0</ele>
        <time>2015-08-16T13:00:29Z</time>
      </trkpt>
      <trkpt lat="40.488767" lon="-5.206517">
        <ele>2605.0</ele>
        <time>2015-08-16T13:00:30Z</time>
      </trkpt>
      <trkpt lat="40.488750" lon="-5.206350">
        <ele>2605.0</ele>
        <time>2015-08-16T13:00:31Z</time>
      </trkpt>
      <trkpt lat="40.488733" lon="-5.206183">
        <ele>2605.0</ele>
        <time>2015-08-16T13:00:32Z</time>
      </trkpt>
      <trkpt lat="40.488733" lon="-5.206017">
        <ele>2604.0</ele>
        <time>2015-08-16T13:00:33Z</time>
      </trkpt>
      <trkpt lat="40.488733" lon="-5.205850">
        <ele>2603.0</ele>
        <time>2015-08-16T13:00:34Z</time>
      </trkpt>
      <trkpt lat="40.488733" lon="-5.205683">
        <ele>2601.0</ele>
        <time>2015-08-16T13:00:35Z</time>
      </trkpt>
      <trkpt lat="40.488717" lon="-5.205500">
        <ele>2600.0</ele>
        <time>2015-08-16T13:00:36Z</time>
      </trkpt>
      <trkpt lat="40.488700" lon="-5.205333">
        <ele>2599.0</ele>
        <time>2015-08-16T13:00:37Z</time>
      </trkpt>
      <trkpt lat="40.488667" lon="-5.205183">
        <ele>2599.0</ele>
        <time>2015-08-16T13:00:38Z</time>
      </trkpt>
      <trkpt lat="40.488650" lon="-5.205017">
        <ele>2599.0</ele>
        <time>2015-08-16T13:00:39Z</time>
      </trkpt>
      <trkpt lat="40.488633" lon="-5.204867">
        <ele>2598.0</ele>
        <time>2015-08-16T13:00:40Z</time>
      </trkpt>
      <trkpt lat="40.488650" lon="-5.204717">
        <ele>2598.0</ele>
        <time>2015-08-16T13:00:41Z</time>
      </trkpt>
      <trkpt lat="40.488683" lon="-5.204550">
        <ele>2596.0</ele>
        <time>2015-08-16T13:00:42Z</time>
      </trkpt>
      <trkpt lat="40.488733" lon="-5.204400">
        <ele>2595.0</ele>
        <time>2015-08-16T13:00:43Z</time>
      </trkpt>
      <trkpt lat="40.488800" lon="-5.204250">
        <ele>2593.0</ele>
        <time>2015-08-16T13:00:44Z</time>
      </trkpt>
      <trkpt lat="40.488883" lon="-5.204117">
        <ele>2592.0</ele>
        <time>2015-08-16T13:00:45Z</time>
      </trkpt>
      <trkpt lat="40.488983" lon="-5.204000">
        <ele>2591.0</ele>
        <time>2015-08-16T13:00:46Z</time>
      </trkpt>
      <trkpt lat="40.489100" lon="-5.203883">
        <ele>2590.0</ele>
        <time>2015-08-16T13:00:47Z</time>
      </trkpt>
      <trkpt lat="40.489200" lon="-5.203767">
        <ele>2590.0</ele>
        <time>2015-08-16T13:00:48Z</time>
      </trkpt>
      <trkpt lat="40.489300" lon="-5.203667">
        <ele>2590.0</ele>
        <time>2015-08-16T13:00:49Z</time>
      </trkpt>
      <trkpt lat="40.489417" lon="-5.203583">
        <ele>2589.0</ele>
        <time>2015-08-16T13:00:50Z</time>
      </trkpt>
      <trkpt lat="40.489533" lon="-5.203500">
        <ele>2588.0</ele>
        <time>2015-08-16T13:00:51Z</time>
      </trkpt>
      <trkpt lat="40.489667" lon="-5.203433">
        <ele>2587.0</ele>
        <time>2015-08-16T13:00:52Z</time>
      </trkpt>
      <trkpt lat="40.489783" lon="-5.203383">
        <ele>2587.0</ele>
        <time>2015-08-16T13:00:53Z</time>
      </trkpt>
      <trkpt lat="40.489900" lon="-5.203317">
        <ele>2588.0</ele>
        <time>2015-08-16T13:00:54Z</time>
      </trkpt>
      <trkpt lat="40.490017" lon="-5.203250">
        <ele>2588.0</ele>
        <time>2015-08-16T13:00:55Z</time>
      </trkpt>
      <trkpt lat="40.490117" lon="-5.203183">
        <ele>2588.0</ele>
        <time>2015-08-16T13:00:56Z</time>
      </trkpt>
      <trkpt lat="40.490233" lon="-5.203100">
        <ele>2587.0</ele>
        <time>2015-08-16T13:00:57Z</time>
      </trkpt>
      <trkpt lat="40.490333" lon="-5.203033">
        <ele>2586.0</ele>
        <time>2015-08-16T13:00:58Z</time>
      </trkpt>
      <trkpt lat="40.490450" lon="-5.202967">
        <ele>2585.0</ele>
        <time>2015-08-16T13:00:59Z</time>
      </trkpt>
      <trkpt lat="40.490567" lon="-5.202883">
        <ele>2585.0</ele>
        <time>2015-08-16T13:01:00Z</time>
      </trkpt>
      <trkpt lat="40.490667" lon="-5.202800">
        <ele>2584.0</ele>
        <time>2015-08-16T13:01:01Z</time>
      </trkpt>
      <trkpt lat="40.490783" lon="-5.202700">
        <ele>2584.0</ele>
        <time>2015-08-16T13:01:02Z</time>
      </trkpt>
      <trkpt lat="40.490883" lon="-5.202617">
        <ele>2584.0</ele>
        <time>2015-08-16T13:01:03Z</time>
      </trkpt>
      <trkpt lat="40.490983" lon="-5.202533">
        <ele>2584.0</ele>
        <time>2015-08-16T13:01:04Z</time>
      </trkpt>
      <trkpt lat="40.491083" lon="-5.202450">
        <ele>2583.0</ele>
        <time>2015-08-16T13:01:05Z</time>
      </trkpt>
      <trkpt lat="40.491183" lon="-5.202350">
        <ele>2582.0</ele>
        <time>2015-08-16T13:01:06Z</time>
      </trkpt>
      <trkpt lat="40.491283" lon="-5.202267">
        <ele>2581.0</ele>
        <time>2015-08-16T13:01:07Z</time>
      </trkpt>
      <trkpt lat="40.491383" lon="-5.202167">
        <ele>2581.0</ele>
        <time>2015-08-16T13:01:08Z</time>
      </trkpt>
      <trkpt lat="40.491483" lon="-5.202067">
        <ele>2580.0</ele>
        <time>2015-08-16T13:01:09Z</time>
      </trkpt>
      <trkpt lat="40.491583" lon="-5.201967">
        <ele>2580.0</ele>
        <time>2015-08-16T13:01:10Z</time>
      </trkpt>
      <trkpt lat="40.491683" lon="-5.201867">
        <ele>2579.0</ele>
        <time>2015-08-16T13:01:11Z</time>
      </trkpt>
      <trkpt lat="40.491767" lon="-5.201767">
        <ele>2579.0</ele>
        <time>2015-08-16T13:01:12Z</time>
      </trkpt>
      <trkpt lat="40.491867" lon="-5.201667">
        <ele>2578.0</ele>
        <time>2015-08-16T13:01:13Z</time>
      </trkpt>
      <trkpt lat="40.491950" lon="-5.201550">
        <ele>2577.0</ele>
        <time>2015-08-16T13:01:14Z</time>
      </trkpt>
      <trkpt lat="40.492050" lon="-5.201450">
        <ele>2576.0</ele>
        <time>2015-08-16T13:01:15Z</time>
      </trkpt>
      <trkpt lat="40.492150" lon="-5.201367">
        <ele>2575.0</ele>
        <time>2015-08-16T13:01:16Z</time>
      </trkpt>
      <trkpt lat="40.492250" lon="-5.201267">
        <ele>2575.0</ele>
        <time>2015-08-16T13:01:17Z</time>
      </trkpt>
      <trkpt lat="40.492333" lon="-5.201183">
        <ele>2574.0</ele>
        <time>2015-08-16T13:01:18Z</time>
      </trkpt>
      <trkpt lat="40.492433" lon="-5.201083">
        <ele>2573.0</ele>
        <time>2015-08-16T13:01:19Z</time>
      </trkpt>
      <trkpt lat="40.492533" lon="-5.201000">
        <ele>2572.0</ele>
        <time>2015-08-16T13:01:20Z</time>
      </trkpt>
      <trkpt lat="40.492633" lon="-5.200900">
        <ele>2571.0</ele>
        <time>2015-08-16T13:01:21Z</time>
      </trkpt>
      <trkpt lat="40.492733" lon="-5.200800">
        <ele>2570.0</ele>
        <time>2015-08-16T13:01:22Z</time>
      </trkpt>
      <trkpt lat="40.492833" lon="-5.200700">
        <ele>2569.0</ele>
        <time>2015-08-16T13:01:23Z</time>
      </trkpt>
      <trkpt lat="40.492933" lon="-5.200617">
        <ele>2568.0</ele>
        <time>2015-08-16T13:01:24Z</time>
      </trkpt>
      <trkpt lat="40.493033" lon="-5.200533">
        <ele>2566.0</ele>
        <time>2015-08-16T13:01:25Z</time>
      </trkpt>
      <trkpt lat="40.493133" lon="-5.200433">
        <ele>2565.0</ele>
        <time>2015-08-16T13:01:26Z</time>
      </trkpt>
      <trkpt lat="40.493217" lon="-5.200350">
        <ele>2564.0</ele>
        <time>2015-08-16T13:01:27Z</time>
      </trkpt>
      <trkpt lat="40.493317" lon="-5.200267">
        <ele>2563.0</ele>
        <time>2015-08-16T13:01:28Z</time>
      </trkpt>
      <trkpt lat="40.493400" lon="-5.200167">
        <ele>2561.0</ele>
        <time>2015-08-16T13:01:29Z</time>
      </trkpt>
      <trkpt lat="40.493500" lon="-5.200083">
        <ele>2560.0</ele>
        <time>2015-08-16T13:01:30Z</time>
      </trkpt>
      <trkpt lat="40.493600" lon="-5.200000">
        <ele>2558.0</ele>
        <time>2015-08-16T13:01:31Z</time>
      </trkpt>
      <trkpt lat="40.493700" lon="-5.199933">
        <ele>2556.0</ele>
        <time>2015-08-16T13:01:32Z</time>
      </trkpt>
      <trkpt lat="40.493800" lon="-5.199833">
        <ele>2554.0</ele>
        <time>2015-08-16T13:01:33Z</time>
      </trkpt>
      <trkpt lat="40.493900" lon="-5.199750">
        <ele>2552.0</ele>
        <time>2015-08-16T13:01:34Z</time>
      </trkpt>
      <trkpt lat="40.493983" lon="-5.199633">
        <ele>2550.0</ele>
        <time>2015-08-16T13:01:35Z</time>
      </trkpt>
      <trkpt lat="40.494083" lon="-5.199533">
        <ele>2549.0</ele>
        <time>2015-08-16T13:01:36Z</time>
      </trkpt>
      <trkpt lat="40.494183" lon="-5.199450">
        <ele>2548.0</ele>
        <time>2015-08-16T13:01:37Z</time>
      </trkpt>
      <trkpt lat="40.494283" lon="-5.199367">
        <ele>2547.0</ele>
        <time>2015-08-16T13:01:38Z</time>
      </trkpt>
      <trkpt lat="40.494383" lon="-5.199300">
        <ele>2546.0</ele>
        <time>2015-08-16T13:01:39Z</time>
      </trkpt>
      <trkpt lat="40.494483" lon="-5.199217">
        <ele>2544.0</ele>
        <time>2015-08-16T13:01:40Z</time>
      </trkpt>
      <trkpt lat="40.494567" lon="-5.199117">
        <ele>2542.0</ele>
        <time>2015-08-16T13:01:41Z</time>
      </trkpt>
      <trkpt lat="40.494667" lon="-5.199033">
        <ele>2540.0</ele>
        <time>2015-08-16T13:01:42Z</time>
      </trkpt>
      <trkpt lat="40.494783" lon="-5.198950">
        <ele>2538.0</ele>
        <time>2015-08-16T13:01:43Z</time>
      </trkpt>
      <trkpt lat="40.494883" lon="-5.198883">
        <ele>2537.0</ele>
        <time>2015-08-16T13:01:44Z</time>
      </trkpt>
      <trkpt lat="40.494983" lon="-5.198817">
        <ele>2536.0</ele>
        <time>2015-08-16T13:01:45Z</time>
      </trkpt>
      <trkpt lat="40.495083" lon="-5.198750">
        <ele>2534.0</ele>
        <time>2015-08-16T13:01:46Z</time>
      </trkpt>
      <trkpt lat="40.495183" lon="-5.198683">
        <ele>2532.0</ele>
        <time>2015-08-16T13:01:47Z</time>
      </trkpt>
      <trkpt lat="40.495283" lon="-5.198600">
        <ele>2530.0</ele>
        <time>2015-08-16T13:01:48Z</time>
      </trkpt>
      <trkpt lat="40.495383" lon="-5.198533">
        <ele>2529.0</ele>
        <time>2015-08-16T13:01:49Z</time>
      </trkpt>
      <trkpt lat="40.495500" lon="-5.198450">
        <ele>2527.0</ele>
        <time>2015-08-16T13:01:50Z</time>
      </trkpt>
      <trkpt lat="40.495600" lon="-5.198383">
        <ele>2526.0</ele>
        <time>2015-08-16T13:01:51Z</time>
      </trkpt>
      <trkpt lat="40.495700" lon="-5.198317">
        <ele>2524.0</ele>
        <time>2015-08-16T13:01:52Z</time>
      </trkpt>
      <trkpt lat="40.495800" lon="-5.198250">
        <ele>2523.0</ele>
        <time>2015-08-16T13:01:53Z</time>
      </trkpt>
      <trkpt lat="40.495900" lon="-5.198183">
        <ele>2521.0</ele>
        <time>2015-08-16T13:01:54Z</time>
      </trkpt>
      <trkpt lat="40.496000" lon="-5.198117">
        <ele>2520.0</ele>
        <time>2015-08-16T13:01:55Z</time>
      </trkpt>
      <trkpt lat="40.496100" lon="-5.198050">
        <ele>2519.0</ele>
        <time>2015-08-16T13:01:56Z</time>
      </trkpt>
      <trkpt lat="40.496200" lon="-5.197967">
        <ele>2518.0</ele>
        <time>2015-08-16T13:01:57Z</time>
      </trkpt>
      <trkpt lat="40.496300" lon="-5.197900">
        <ele>2517.0</ele>
        <time>2015-08-16T13:01:58Z</time>
      </trkpt>
      <trkpt lat="40.496400" lon="-5.197833">
        <ele>2516.0</ele>
        <time>2015-08-16T13:01:59Z</time>
      </trkpt>
      <trkpt lat="40.496500" lon="-5.197750">
        <ele>2514.0</ele>
        <time>2015-08-16T13:02:00Z</time>
      </trkpt>
      <trkpt lat="40.496600" lon="-5.197667">
        <ele>2512.0</ele>
        <time>2015-08-16T13:02:01Z</time>
      </trkpt>
      <trkpt lat="40.496700" lon="-5.197583">
        <ele>2511.0</ele>
        <time>2015-08-16T13:02:02Z</time>
      </trkpt>
      <trkpt lat="40.496783" lon="-5.197483">
        <ele>2509.0</ele>
        <time>2015-08-16T13:02:03Z</time>
      </trkpt>
      <trkpt lat="40.496867" lon="-5.197367">
        <ele>2508.0</ele>
        <time>2015-08-16T13:02:04Z</time>
      </trkpt>
      <trkpt lat="40.496950" lon="-5.197267">
        <ele>2506.0</ele>
        <time>2015-08-16T13:02:05Z</time>
      </trkpt>
      <trkpt lat="40.497033" lon="-5.197167">
        <ele>2504.0</ele>
        <time>2015-08-16T13:02:06Z</time>
      </trkpt>
      <trkpt lat="40.497117" lon="-5.197050">
        <ele>2502.0</ele>
        <time>2015-08-16T13:02:07Z</time>
      </trkpt>
      <trkpt lat="40.497217" lon="-5.196950">
        <ele>2500.0</ele>
        <time>2015-08-16T13:02:08Z</time>
      </trkpt>
      <trkpt lat="40.497300" lon="-5.196833">
        <ele>2497.0</ele>
        <time>2015-08-16T13:02:09Z</time>
      </trkpt>
      <trkpt lat="40.497400" lon="-5.196733">
        <ele>2495.0</ele>
        <time>2015-08-16T13:02:10Z</time>
      </trkpt>
      <trkpt lat="40.497483" lon="-5.196633">
        <ele>2493.0</ele>
        <time>2015-08-16T13:02:11Z</time>
      </trkpt>
      <trkpt lat="40.497583" lon="-5.196533">
        <ele>2492.0</ele>
        <time>2015-08-16T13:02:12Z</time>
      </trkpt>
      <trkpt lat="40.497683" lon="-5.196450">
        <ele>2490.0</ele>
        <time>2015-08-16T13:02:13Z</time>
      </trkpt>
      <trkpt lat="40.497767" lon="-5.196350">
        <ele>2489.0</ele>
        <time>2015-08-16T13:02:14Z</time>
      </trkpt>
      <trkpt lat="40.497867" lon="-5.196267">
        <ele>2486.0</ele>
        <time>2015-08-16T13:02:15Z</time>
      </trkpt>
      <trkpt lat="40.497950" lon="-5.196167">
        <ele>2484.0</ele>
        <time>2015-08-16T13:02:16Z</time>
      </trkpt>
      <trkpt lat="40.498050" lon="-5.196067">
        <ele>2482.0</ele>
        <time>2015-08-16T13:02:17Z</time>
      </trkpt>
      <trkpt lat="40.498133" lon="-5.195967">
        <ele>2480.0</ele>
        <time>2015-08-16T13:02:18Z</time>
      </trkpt>
      <trkpt lat="40.498217" lon="-5.195850">
        <ele>2478.0</ele>
        <time>2015-08-16T13:02:19Z</time>
      </trkpt>
      <trkpt lat="40.498300" lon="-5.195750">
        <ele>2477.0</ele>
        <time>2015-08-16T13:02:20Z</time>
      </trkpt>
      <trkpt lat="40.498400" lon="-5.195650">
        <ele>2475.0</ele>
        <time>2015-08-16T13:02:21Z</time>
      </trkpt>
      <trkpt lat="40.498483" lon="-5.195550">
        <ele>2474.0</ele>
        <time>2015-08-16T13:02:22Z</time>
      </trkpt>
      <trkpt lat="40.498567" lon="-5.195450">
        <ele>2471.0</ele>
        <time>2015-08-16T13:02:23Z</time>
      </trkpt>
      <trkpt lat="40.498633" lon="-5.195333">
        <ele>2469.0</ele>
        <time>2015-08-16T13:02:24Z</time>
      </trkpt>
      <trkpt lat="40.498717" lon="-5.195217">
        <ele>2467.0</ele>
        <time>2015-08-16T13:02:25Z</time>
      </trkpt>
      <trkpt lat="40.498783" lon="-5.195083">
        <ele>2465.0</ele>
        <time>2015-08-16T13:02:26Z</time>
      </trkpt>
      <trkpt lat="40.498850" lon="-5.194967">
        <ele>2464.0</ele>
        <time>2015-08-16T13:02:27Z</time>
      </trkpt>
      <trkpt lat="40.498900" lon="-5.194833">
        <ele>2463.0</ele>
        <time>2015-08-16T13:02:28Z</time>
      </trkpt>
      <trkpt lat="40.498967" lon="-5.194717">
        <ele>2461.0</ele>
        <time>2015-08-16T13:02:29Z</time>
      </trkpt>
      <trkpt lat="40.499017" lon="-5.194583">
        <ele>2460.0</ele>
        <time>2015-08-16T13:02:30Z</time>
      </trkpt>
      <trkpt lat="40.499083" lon="-5.194450">
        <ele>2458.0</ele>
        <time>2015-08-16T13:02:31Z</time>
      </trkpt>
      <trkpt lat="40.499150" lon="-5.194333">
        <ele>2457.0</ele>
        <time>2015-08-16T13:02:32Z</time>
      </trkpt>
      <trkpt lat="40.499217" lon="-5.194217">
        <ele>2455.0</ele>
        <time>2015-08-16T13:02:33Z</time>
      </trkpt>
      <trkpt lat="40.499300" lon="-5.194117">
        <ele>2453.0</ele>
        <time>2015-08-16T13:02:34Z</time>
      </trkpt>
      <trkpt lat="40.499400" lon="-5.194017">
        <ele>2451.0</ele>
        <time>2015-08-16T13:02:35Z</time>
      </trkpt>
      <trkpt lat="40.499483" lon="-5.193917">
        <ele>2450.0</ele>
        <time>2015-08-16T13:02:36Z</time>
      </trkpt>
      <trkpt lat="40.499583" lon="-5.193833">
        <ele>2449.0</ele>
        <time>2015-08-16T13:02:37Z</time>
      </trkpt>
      <trkpt lat="40.499683" lon="-5.193733">
        <ele>2448.0</ele>
        <time>2015-08-16T13:02:38Z</time>
      </trkpt>
      <trkpt lat="40.499767" lon="-5.193667">
        <ele>2446.0</ele>
        <time>2015-08-16T13:02:39Z</time>
      </trkpt>
      <trkpt lat="40.499867" lon="-5.193567">
        <ele>2444.0</ele>
        <time>2015-08-16T13:02:40Z</time>
      </trkpt>
      <trkpt lat="40.499967" lon="-5.193483">
        <ele>2442.0</ele>
        <time>2015-08-16T13:02:41Z</time>
      </trkpt>
      <trkpt lat="40.500050" lon="-5.193383">
        <ele>2440.0</ele>
        <time>2015-08-16T13:02:42Z</time>
      </trkpt>
      <trkpt lat="40.500150" lon="-5.193283">
        <ele>2439.0</ele>
        <time>2015-08-16T13:02:43Z</time>
      </trkpt>
      <trkpt lat="40.500233" lon="-5.193183">
        <ele>2437.0</ele>
        <time>2015-08-16T13:02:44Z</time>
      </trkpt>
      <trkpt lat="40.500317" lon="-5.193100">
        <ele>2435.0</ele>
        <time>2015-08-16T13:02:45Z</time>
      </trkpt>
      <trkpt lat="40.500417" lon="-5.193000">
        <ele>2433.0</ele>
        <time>2015-08-16T13:02:46Z</time>
      </trkpt>
      <trkpt lat="40.500500" lon="-5.192900">
        <ele>2430.0</ele>
        <time>2015-08-16T13:02:47Z</time>
      </trkpt>
      <trkpt lat="40.500583" lon="-5.192800">
        <ele>2429.0</ele>
        <time>2015-08-16T13:02:48Z</time>
      </trkpt>
      <trkpt lat="40.500667" lon="-5.192700">
        <ele>2427.0</ele>
        <time>2015-08-16T13:02:49Z</time>
      </trkpt>
      <trkpt lat="40.500750" lon="-5.192600">
        <ele>2425.0</ele>
        <time>2015-08-16T13:02:50Z</time>
      </trkpt>
      <trkpt lat="40.500817" lon="-5.192483">
        <ele>2423.0</ele>
        <time>2015-08-16T13:02:51Z</time>
      </trkpt>
      <trkpt lat="40.500900" lon="-5.192367">
        <ele>2421.0</ele>
        <time>2015-08-16T13:02:52Z</time>
      </trkpt>
      <trkpt lat="40.500967" lon="-5.192250">
        <ele>2418.0</ele>
        <time>2015-08-16T13:02:53Z</time>
      </trkpt>
      <trkpt lat="40.501050" lon="-5.192133">
        <ele>2416.0</ele>
        <time>2015-08-16T13:02:54Z</time>
      </trkpt>
      <trkpt lat="40.501150" lon="-5.192017">
        <ele>2414.0</ele>
        <time>2015-08-16T13:02:55Z</time>
      </trkpt>
      <trkpt lat="40.501250" lon="-5.191900">
        <ele>2414.0</ele>
        <time>2015-08-16T13:02:56Z</time>
      </trkpt>
      <trkpt lat="40.501333" lon="-5.191800">
        <ele>2414.0</ele>
        <time>2015-08-16T13:02:57Z</time>
      </trkpt>
      <trkpt lat="40.501417" lon="-5.191717">
        <ele>2414.0</ele>
        <time>2015-08-16T13:02:58Z</time>
      </trkpt>
      <trkpt lat="40.501500" lon="-5.191617">
        <ele>2413.0</ele>
        <time>2015-08-16T13:02:59Z</time>
      </trkpt>
      <trkpt lat="40.501583" lon="-5.191533">
        <ele>2411.0</ele>
        <time>2015-08-16T13:03:00Z</time>
      </trkpt>
      <trkpt lat="40.501650" lon="-5.191417">
        <ele>2409.0</ele>
        <time>2015-08-16T13:03:01Z</time>
      </trkpt>
      <trkpt lat="40.501733" lon="-5.191317">
        <ele>2408.0</ele>
        <time>2015-08-16T13:03:02Z</time>
      </trkpt>
      <trkpt lat="40.501817" lon="-5.191200">
        <ele>2406.0</ele>
        <time>2015-08-16T13:03:03Z</time>
      </trkpt>
      <trkpt lat="40.501900" lon="-5.191083">
        <ele>2405.0</ele>
        <time>2015-08-16T13:03:04Z</time>
      </trkpt>
      <trkpt lat="40.501983" lon="-5.190967">
        <ele>2403.0</ele>
        <time>2015-08-16T13:03:05Z</time>
      </trkpt>
      <trkpt lat="40.502067" lon="-5.190850">
        <ele>2402.0</ele>
        <time>2015-08-16T13:03:06Z</time>
      </trkpt>
      <trkpt lat="40.502133" lon="-5.190750">
        <ele>2401.0</ele>
        <time>2015-08-16T13:03:07Z</time>
      </trkpt>
      <trkpt lat="40.502200" lon="-5.190633">
        <ele>2400.0</ele>
        <time>2015-08-16T13:03:08Z</time>
      </trkpt>
      <trkpt lat="40.502267" lon="-5.190533">
        <ele>2398.0</ele>
        <time>2015-08-16T13:03:09Z</time>
      </trkpt>
      <trkpt lat="40.502350" lon="-5.190417">
        <ele>2397.0</ele>
        <time>2015-08-16T13:03:10Z</time>
      </trkpt>
      <trkpt lat="40.502417" lon="-5.190317">
        <ele>2394.0</ele>
        <time>2015-08-16T13:03:11Z</time>
      </trkpt>
      <trkpt lat="40.502500" lon="-5.190200">
        <ele>2392.0</ele>
        <time>2015-08-16T13:03:12Z</time>
      </trkpt>
      <trkpt lat="40.502583" lon="-5.190100">
        <ele>2390.0</ele>
        <time>2015-08-16T13:03:13Z</time>
      </trkpt>
      <trkpt lat="40.502650" lon="-5.189983">
        <ele>2388.0</ele>
        <time>2015-08-16T13:03:14Z</time>
      </trkpt>
      <trkpt lat="40.502733" lon="-5.189883">
        <ele>2387.0</ele>
        <time>2015-08-16T13:03:15Z</time>
      </trkpt>
      <trkpt lat="40.502817" lon="-5.189800">
        <ele>2385.0</ele>
        <time>2015-08-16T13:03:16Z</time>
      </trkpt>
      <trkpt lat="40.502917" lon="-5.189717">
        <ele>2383.0</ele>
        <time>2015-08-16T13:03:17Z</time>
      </trkpt>
      <trkpt lat="40.503000" lon="-5.189617">
        <ele>2381.0</ele>
        <time>2015-08-16T13:03:18Z</time>
      </trkpt>
      <trkpt lat="40.503100" lon="-5.189517">
        <ele>2380.0</ele>
        <time>2015-08-16T13:03:19Z</time>
      </trkpt>
      <trkpt lat="40.503183" lon="-5.189433">
        <ele>2378.0</ele>
        <time>2015-08-16T13:03:20Z</time>
      </trkpt>
      <trkpt lat="40.503283" lon="-5.189333">
        <ele>2377.0</ele>
        <time>2015-08-16T13:03:21Z</time>
      </trkpt>
      <trkpt lat="40.503367" lon="-5.189267">
        <ele>2376.0</ele>
        <time>2015-08-16T13:03:22Z</time>
      </trkpt>
      <trkpt lat="40.503467" lon="-5.189183">
        <ele>2374.0</ele>
        <time>2015-08-16T13:03:23Z</time>
      </trkpt>
      <trkpt lat="40.503567" lon="-5.189100">
        <ele>2372.0</ele>
        <time>2015-08-16T13:03:24Z</time>
      </trkpt>
      <trkpt lat="40.503650" lon="-5.189017">
        <ele>2369.0</ele>
        <time>2015-08-16T13:03:25Z</time>
      </trkpt>
      <trkpt lat="40.503750" lon="-5.188917">
        <ele>2368.0</ele>
        <time>2015-08-16T13:03:26Z</time>
      </trkpt>
      <trkpt lat="40.503850" lon="-5.188833">
        <ele>2366.0</ele>
        <time>2015-08-16T13:03:27Z</time>
      </trkpt>
      <trkpt lat="40.503933" lon="-5.188750">
        <ele>2365.0</ele>
        <time>2015-08-16T13:03:28Z</time>
      </trkpt>
      <trkpt lat="40.504033" lon="-5.188667">
        <ele>2363.0</ele>
        <time>2015-08-16T13:03:29Z</time>
      </trkpt>
      <trkpt lat="40.504133" lon="-5.188583">
        <ele>2361.0</ele>
        <time>2015-08-16T13:03:30Z</time>
      </trkpt>
      <trkpt lat="40.504217" lon="-5.188500">
        <ele>2358.0</ele>
        <time>2015-08-16T13:03:31Z</time>
      </trkpt>
      <trkpt lat="40.504300" lon="-5.188400">
        <ele>2356.0</ele>
        <time>2015-08-16T13:03:32Z</time>
      </trkpt>
      <trkpt lat="40.504383" lon="-5.188300">
        <ele>2353.0</ele>
        <time>2015-08-16T13:03:33Z</time>
      </trkpt>
      <trkpt lat="40.504483" lon="-5.188200">
        <ele>2351.0</ele>
        <time>2015-08-16T13:03:34Z</time>
      </trkpt>
      <trkpt lat="40.504567" lon="-5.188100">
        <ele>2349.0</ele>
        <time>2015-08-16T13:03:35Z</time>
      </trkpt>
      <trkpt lat="40.504650" lon="-5.188000">
        <ele>2348.0</ele>
        <time>2015-08-16T13:03:36Z</time>
      </trkpt>
      <trkpt lat="40.504733" lon="-5.187900">
        <ele>2346.0</ele>
        <time>2015-08-16T13:03:37Z</time>
      </trkpt>
      <trkpt lat="40.504833" lon="-5.187800">
        <ele>2343.0</ele>
        <time>2015-08-16T13:03:38Z</time>
      </trkpt>
      <trkpt lat="40.504917" lon="-5.187700">
        <ele>2341.0</ele>
        <time>2015-08-16T13:03:39Z</time>
      </trkpt>
      <trkpt lat="40.505000" lon="-5.187600">
        <ele>2339.0</ele>
        <time>2015-08-16T13:03:40Z</time>
      </trkpt>
      <trkpt lat="40.505083" lon="-5.187500">
        <ele>2337.0</ele>
        <time>2015-08-16T13:03:41Z</time>
      </trkpt>
      <trkpt lat="40.505167" lon="-5.187383">
        <ele>2335.0</ele>
        <time>2015-08-16T13:03:42Z</time>
      </trkpt>
      <trkpt lat="40.505250" lon="-5.187283">
        <ele>2333.0</ele>
        <time>2015-08-16T13:03:43Z</time>
      </trkpt>
      <trkpt lat="40.505333" lon="-5.187183">
        <ele>2330.0</ele>
        <time>2015-08-16T13:03:44Z</time>
      </trkpt>
      <trkpt lat="40.505417" lon="-5.187083">
        <ele>2328.0</ele>
        <time>2015-08-16T13:03:45Z</time>
      </trkpt>
      <trkpt lat="40.505500" lon="-5.186967">
        <ele>2326.0</ele>
        <time>2015-08-16T13:03:46Z</time>
      </trkpt>
      <trkpt lat="40.505583" lon="-5.186867">
        <ele>2325.0</ele>
        <time>2015-08-16T13:03:47Z</time>
      </trkpt>
      <trkpt lat="40.505667" lon="-5.186750">
        <ele>2323.0</ele>
        <time>2015-08-16T13:03:48Z</time>
      </trkpt>
      <trkpt lat="40.505750" lon="-5.186633">
        <ele>2322.0</ele>
        <time>2015-08-16T13:03:49Z</time>
      </trkpt>
      <trkpt lat="40.505833" lon="-5.186517">
        <ele>2320.0</ele>
        <time>2015-08-16T13:03:50Z</time>
      </trkpt>
      <trkpt lat="40.505900" lon="-5.186400">
        <ele>2319.0</ele>
        <time>2015-08-16T13:03:51Z</time>
      </trkpt>
      <trkpt lat="40.505967" lon="-5.186283">
        <ele>2316.0</ele>
        <time>2015-08-16T13:03:52Z</time>
      </trkpt>
      <trkpt lat="40.506033" lon="-5.186150">
        <ele>2314.0</ele>
        <time>2015-08-16T13:03:53Z</time>
      </trkpt>
      <trkpt lat="40.506100" lon="-5.186017">
        <ele>2312.0</ele>
        <time>2015-08-16T13:03:54Z</time>
      </trkpt>
      <trkpt lat="40.506167" lon="-5.185883">
        <ele>2310.0</ele>
        <time>2015-08-16T13:03:55Z</time>
      </trkpt>
      <trkpt lat="40.506233" lon="-5.185750">
        <ele>2309.0</ele>
        <time>2015-08-16T13:03:56Z</time>
      </trkpt>
      <trkpt lat="40.506283" lon="-5.185617">
        <ele>2308.0</ele>
        <time>2015-08-16T13:03:57Z</time>
      </trkpt>
      <trkpt lat="40.506333" lon="-5.185483">
        <ele>2306.0</ele>
        <time>2015-08-16T13:03:58Z</time>
      </trkpt>
      <trkpt lat="40.506400" lon="-5.185350">
        <ele>2304.0</ele>
        <time>2015-08-16T13:03:59Z</time>
      </trkpt>
      <trkpt lat="40.506450" lon="-5.185217">
        <ele>2302.0</ele>
        <time>2015-08-16T13:04:00Z</time>
      </trkpt>
      <trkpt lat="40.506517" lon="-5.185083">
        <ele>2301.0</ele>
        <time>2015-08-16T13:04:01Z</time>
      </trkpt>
      <trkpt lat="40.506583" lon="-5.184950">
        <ele>2299.0</ele>
        <time>2015-08-16T13:04:02Z</time>
      </trkpt>
      <trkpt lat="40.506633" lon="-5.184817">
        <ele>2297.0</ele>
        <time>2015-08-16T13:04:03Z</time>
      </trkpt>
      <trkpt lat="40.506700" lon="-5.184683">
        <ele>2296.0</ele>
        <time>2015-08-16T13:04:04Z</time>
      </trkpt>
      <trkpt lat="40.506767" lon="-5.184567">
        <ele>2295.0</ele>
        <time>2015-08-16T13:04:05Z</time>
      </trkpt>
      <trkpt lat="40.506833" lon="-5.184433">
        <ele>2293.0</ele>
        <time>2015-08-16T13:04:06Z</time>
      </trkpt>
      <trkpt lat="40.506900" lon="-5.184300">
        <ele>2291.0</ele>
        <time>2015-08-16T13:04:07Z</time>
      </trkpt>
      <trkpt lat="40.506967" lon="-5.184183">
        <ele>2289.0</ele>
        <time>2015-08-16T13:04:08Z</time>
      </trkpt>
      <trkpt lat="40.507033" lon="-5.184050">
        <ele>2287.0</ele>
        <time>2015-08-16T13:04:09Z</time>
      </trkpt>
      <trkpt lat="40.507100" lon="-5.183917">
        <ele>2286.0</ele>
        <time>2015-08-16T13:04:10Z</time>
      </trkpt>
      <trkpt lat="40.507167" lon="-5.183800">
        <ele>2284.0</ele>
        <time>2015-08-16T13:04:11Z</time>
      </trkpt>
      <trkpt lat="40.507233" lon="-5.183667">
        <ele>2283.0</ele>
        <time>2015-08-16T13:04:12Z</time>
      </trkpt>
      <trkpt lat="40.507317" lon="-5.183550">
        <ele>2282.0</ele>
        <time>2015-08-16T13:04:13Z</time>
      </trkpt>
      <trkpt lat="40.507400" lon="-5.183433">
        <ele>2280.0</ele>
        <time>2015-08-16T13:04:14Z</time>
      </trkpt>
      <trkpt lat="40.507483" lon="-5.183317">
        <ele>2279.0</ele>
        <time>2015-08-16T13:04:15Z</time>
      </trkpt>
      <trkpt lat="40.507550" lon="-5.183217">
        <ele>2276.0</ele>
        <time>2015-08-16T13:04:16Z</time>
      </trkpt>
      <trkpt lat="40.507650" lon="-5.183117">
        <ele>2274.0</ele>
        <time>2015-08-16T13:04:17Z</time>
      </trkpt>
      <trkpt lat="40.507733" lon="-5.183017">
        <ele>2272.0</ele>
        <time>2015-08-16T13:04:18Z</time>
      </trkpt>
      <trkpt lat="40.507833" lon="-5.182917">
        <ele>2270.0</ele>
        <time>2015-08-16T13:04:19Z</time>
      </trkpt>
      <trkpt lat="40.507933" lon="-5.182817">
        <ele>2269.0</ele>
        <time>2015-08-16T13:04:20Z</time>
      </trkpt>
      <trkpt lat="40.508017" lon="-5.182717">
        <ele>2268.0</ele>
        <time>2015-08-16T13:04:21Z</time>
      </trkpt>
      <trkpt lat="40.508117" lon="-5.182617">
        <ele>2266.0</ele>
        <time>2015-08-16T13:04:22Z</time>
      </trkpt>
      <trkpt lat="40.508200" lon="-5.182517">
        <ele>2265.0</ele>
        <time>2015-08-16T13:04:23Z</time>
      </trkpt>
      <trkpt lat="40.508300" lon="-5.182417">
        <ele>2263.0</ele>
        <time>2015-08-16T13:04:24Z</time>
      </trkpt>
      <trkpt lat="40.508383" lon="-5.182317">
        <ele>2261.0</ele>
        <time>2015-08-16T13:04:25Z</time>
      </trkpt>
      <trkpt lat="40.508483" lon="-5.182233">
        <ele>2259.0</ele>
        <time>2015-08-16T13:04:26Z</time>
      </trkpt>
      <trkpt lat="40.508567" lon="-5.182117">
        <ele>2257.0</ele>
        <time>2015-08-16T13:04:27Z</time>
      </trkpt>
      <trkpt lat="40.508650" lon="-5.182017">
        <ele>2255.0</ele>
        <time>2015-08-16T13:04:28Z</time>
      </trkpt>
      <trkpt lat="40.508733" lon="-5.181900">
        <ele>2253.0</ele>
        <time>2015-08-16T13:04:29Z</time>
      </trkpt>
      <trkpt lat="40.508817" lon="-5.181800">
        <ele>2251.0</ele>
        <time>2015-08-16T13:04:30Z</time>
      </trkpt>
      <trkpt lat="40.508883" lon="-5.181683">
        <ele>2249.0</ele>
        <time>2015-08-16T13:04:31Z</time>
      </trkpt>
      <trkpt lat="40.508967" lon="-5.181567">
        <ele>2246.0</ele>
        <time>2015-08-16T13:04:32Z</time>
      </trkpt>
      <trkpt lat="40.509050" lon="-5.181450">
        <ele>2244.0</ele>
        <time>2015-08-16T13:04:33Z</time>
      </trkpt>
      <trkpt lat="40.509117" lon="-5.181317">
        <ele>2242.0</ele>
        <time>2015-08-16T13:04:34Z</time>
      </trkpt>
      <trkpt lat="40.509200" lon="-5.181200">
        <ele>2240.0</ele>
        <time>2015-08-16T13:04:35Z</time>
      </trkpt>
      <trkpt lat="40.509283" lon="-5.181100">
        <ele>2239.0</ele>
        <time>2015-08-16T13:04:36Z</time>
      </trkpt>
      <trkpt lat="40.509367" lon="-5.181000">
        <ele>2237.0</ele>
        <time>2015-08-16T13:04:37Z</time>
      </trkpt>
      <trkpt lat="40.509467" lon="-5.180917">
        <ele>2235.0</ele>
        <time>2015-08-16T13:04:38Z</time>
      </trkpt>
      <trkpt lat="40.509567" lon="-5.180833">
        <ele>2233.0</ele>
        <time>2015-08-16T13:04:39Z</time>
      </trkpt>
      <trkpt lat="40.509667" lon="-5.180750">
        <ele>2231.0</ele>
        <time>2015-08-16T13:04:40Z</time>
      </trkpt>
      <trkpt lat="40.509767" lon="-5.180683">
        <ele>2229.0</ele>
        <time>2015-08-16T13:04:41Z</time>
      </trkpt>
      <trkpt lat="40.509867" lon="-5.180600">
        <ele>2227.0</ele>
        <time>2015-08-16T13:04:42Z</time>
      </trkpt>
      <trkpt lat="40.509967" lon="-5.180517">
        <ele>2226.0</ele>
        <time>2015-08-16T13:04:43Z</time>
      </trkpt>
      <trkpt lat="40.510067" lon="-5.180450">
        <ele>2224.0</ele>
        <time>2015-08-16T13:04:44Z</time>
      </trkpt>
      <trkpt lat="40.510150" lon="-5.180367">
        <ele>2223.0</ele>
        <time>2015-08-16T13:04:45Z</time>
      </trkpt>
      <trkpt lat="40.510250" lon="-5.180283">
        <ele>2221.0</ele>
        <time>2015-08-16T13:04:46Z</time>
      </trkpt>
      <trkpt lat="40.510350" lon="-5.180183">
        <ele>2219.0</ele>
        <time>2015-08-16T13:04:47Z</time>
      </trkpt>
      <trkpt lat="40.510450" lon="-5.180100">
        <ele>2217.0</ele>
        <time>2015-08-16T13:04:48Z</time>
      </trkpt>
      <trkpt lat="40.510550" lon="-5.180000">
        <ele>2215.0</ele>
        <time>2015-08-16T13:04:49Z</time>
      </trkpt>
      <trkpt lat="40.510633" lon="-5.179900">
        <ele>2213.0</ele>
        <time>2015-08-16T13:04:50Z</time>
      </trkpt>
      <trkpt lat="40.510717" lon="-5.179783">
        <ele>2211.0</ele>
        <time>2015-08-16T13:04:51Z</time>
      </trkpt>
      <trkpt lat="40.510817" lon="-5.179683">
        <ele>2209.0</ele>
        <time>2015-08-16T13:04:52Z</time>
      </trkpt>
      <trkpt lat="40.510917" lon="-5.179583">
        <ele>2207.0</ele>
        <time>2015-08-16T13:04:53Z</time>
      </trkpt>
      <trkpt lat="40.511000" lon="-5.179483">
        <ele>2204.0</ele>
        <time>2015-08-16T13:04:54Z</time>
      </trkpt>
      <trkpt lat="40.511100" lon="-5.179383">
        <ele>2202.0</ele>
        <time>2015-08-16T13:04:55Z</time>
      </trkpt>
      <trkpt lat="40.511183" lon="-5.179267">
        <ele>2200.0</ele>
        <time>2015-08-16T13:04:56Z</time>
      </trkpt>
      <trkpt lat="40.511283" lon="-5.179167">
        <ele>2198.0</ele>
        <time>2015-08-16T13:04:57Z</time>
      </trkpt>
      <trkpt lat="40.511383" lon="-5.179083">
        <ele>2196.0</ele>
        <time>2015-08-16T13:04:58Z</time>
      </trkpt>
      <trkpt lat="40.511483" lon="-5.179000">
        <ele>2194.0</ele>
        <time>2015-08-16T13:04:59Z</time>
      </trkpt>
      <trkpt lat="40.511583" lon="-5.178917">
        <ele>2191.0</ele>
        <time>2015-08-16T13:05:00Z</time>
      </trkpt>
      <trkpt lat="40.511683" lon="-5.178850">
        <ele>2188.0</ele>
        <time>2015-08-16T13:05:01Z</time>
      </trkpt>
      <trkpt lat="40.511783" lon="-5.178767">
        <ele>2185.0</ele>
        <time>2015-08-16T13:05:02Z</time>
      </trkpt>
      <trkpt lat="40.511900" lon="-5.178717">
        <ele>2183.0</ele>
        <time>2015-08-16T13:05:03Z</time>
      </trkpt>
      <trkpt lat="40.512017" lon="-5.178667">
        <ele>2182.0</ele>
        <time>2015-08-16T13:05:04Z</time>
      </trkpt>
      <trkpt lat="40.512117" lon="-5.178633">
        <ele>2180.0</ele>
        <time>2015-08-16T13:05:05Z</time>
      </trkpt>
      <trkpt lat="40.512233" lon="-5.178583">
        <ele>2178.0</ele>
        <time>2015-08-16T13:05:06Z</time>
      </trkpt>
      <trkpt lat="40.512333" lon="-5.178533">
        <ele>2176.0</ele>
        <time>2015-08-16T13:05:07Z</time>
      </trkpt>
      <trkpt lat="40.512450" lon="-5.178467">
        <ele>2174.0</ele>
        <time>2015-08-16T13:05:08Z</time>
      </trkpt>
      <trkpt lat="40.512550" lon="-5.178417">
        <ele>2173.0</ele>
        <time>2015-08-16T13:05:09Z</time>
      </trkpt>
      <trkpt lat="40.512650" lon="-5.178400">
        <ele>2172.0</ele>
        <time>2015-08-16T13:05:10Z</time>
      </trkpt>
      <trkpt lat="40.512750" lon="-5.178383">
        <ele>2170.0</ele>
        <time>2015-08-16T13:05:11Z</time>
      </trkpt>
      <trkpt lat="40.512867" lon="-5.178367">
        <ele>2167.0</ele>
        <time>2015-08-16T13:05:12Z</time>
      </trkpt>
      <trkpt lat="40.512967" lon="-5.178333">
        <ele>2164.0</ele>
        <time>2015-08-16T13:05:13Z</time>
      </trkpt>
      <trkpt lat="40.513083" lon="-5.178283">
        <ele>2161.0</ele>
        <time>2015-08-16T13:05:14Z</time>
      </trkpt>
      <trkpt lat="40.513200" lon="-5.178250">
        <ele>2159.0</ele>
        <time>2015-08-16T13:05:15Z</time>
      </trkpt>
      <trkpt lat="40.513317" lon="-5.178200">
        <ele>2157.0</ele>
        <time>2015-08-16T13:05:16Z</time>
      </trkpt>
      <trkpt lat="40.513433" lon="-5.178167">
        <ele>2155.0</ele>
        <time>2015-08-16T13:05:17Z</time>
      </trkpt>
      <trkpt lat="40.513533" lon="-5.178133">
        <ele>2153.0</ele>
        <time>2015-08-16T13:05:18Z</time>
      </trkpt>
      <trkpt lat="40.513650" lon="-5.178117">
        <ele>2152.0</ele>
        <time>2015-08-16T13:05:19Z</time>
      </trkpt>
      <trkpt lat="40.513767" lon="-5.178100">
        <ele>2150.0</ele>
        <time>2015-08-16T13:05:20Z</time>
      </trkpt>
      <trkpt lat="40.513867" lon="-5.178083">
        <ele>2148.0</ele>
        <time>2015-08-16T13:05:21Z</time>
      </trkpt>
      <trkpt lat="40.513967" lon="-5.178067">
        <ele>2145.0</ele>
        <time>2015-08-16T13:05:22Z</time>
      </trkpt>
      <trkpt lat="40.514083" lon="-5.178050">
        <ele>2141.0</ele>
        <time>2015-08-16T13:05:23Z</time>
      </trkpt>
      <trkpt lat="40.514200" lon="-5.178033">
        <ele>2138.0</ele>
        <time>2015-08-16T13:05:24Z</time>
      </trkpt>
      <trkpt lat="40.514317" lon="-5.178017">
        <ele>2135.0</ele>
        <time>2015-08-16T13:05:25Z</time>
      </trkpt>
      <trkpt lat="40.514433" lon="-5.178017">
        <ele>2133.0</ele>
        <time>2015-08-16T13:05:26Z</time>
      </trkpt>
      <trkpt lat="40.514550" lon="-5.178000">
        <ele>2132.0</ele>
        <time>2015-08-16T13:05:27Z</time>
      </trkpt>
      <trkpt lat="40.514650" lon="-5.178000">
        <ele>2131.0</ele>
        <time>2015-08-16T13:05:28Z</time>
      </trkpt>
      <trkpt lat="40.514750" lon="-5.177983">
        <ele>2129.0</ele>
        <time>2015-08-16T13:05:29Z</time>
      </trkpt>
      <trkpt lat="40.514867" lon="-5.177967">
        <ele>2127.0</ele>
        <time>2015-08-16T13:05:30Z</time>
      </trkpt>
      <trkpt lat="40.514967" lon="-5.177950">
        <ele>2124.0</ele>
        <time>2015-08-16T13:05:31Z</time>
      </trkpt>
      <trkpt lat="40.515100" lon="-5.177950">
        <ele>2122.0</ele>
        <time>2015-08-16T13:05:32Z</time>
      </trkpt>
      <trkpt lat="40.515200" lon="-5.177933">
        <ele>2120.0</ele>
        <time>2015-08-16T13:05:33Z</time>
      </trkpt>
      <trkpt lat="40.515317" lon="-5.177917">
        <ele>2119.0</ele>
        <time>2015-08-16T13:05:34Z</time>
      </trkpt>
      <trkpt lat="40.515417" lon="-5.177883">
        <ele>2118.0</ele>
        <time>2015-08-16T13:05:35Z</time>
      </trkpt>
      <trkpt lat="40.515517" lon="-5.177867">
        <ele>2115.0</ele>
        <time>2015-08-16T13:05:36Z</time>
      </trkpt>
      <trkpt lat="40.515633" lon="-5.177833">
        <ele>2112.0</ele>
        <time>2015-08-16T13:05:37Z</time>
      </trkpt>
      <trkpt lat="40.515733" lon="-5.177800">
        <ele>2109.0</ele>
        <time>2015-08-16T13:05:38Z</time>
      </trkpt>
      <trkpt lat="40.515833" lon="-5.177767">
        <ele>2107.0</ele>
        <time>2015-08-16T13:05:39Z</time>
      </trkpt>
      <trkpt lat="40.515950" lon="-5.177750">
        <ele>2104.0</ele>
        <time>2015-08-16T13:05:40Z</time>
      </trkpt>
      <trkpt lat="40.516050" lon="-5.177717">
        <ele>2102.0</ele>
        <time>2015-08-16T13:05:41Z</time>
      </trkpt>
      <trkpt lat="40.516133" lon="-5.177700">
        <ele>2099.0</ele>
        <time>2015-08-16T13:05:42Z</time>
      </trkpt>
      <trkpt lat="40.516233" lon="-5.177683">
        <ele>2097.0</ele>
        <time>2015-08-16T13:05:43Z</time>
      </trkpt>
      <trkpt lat="40.516333" lon="-5.177667">
        <ele>2094.0</ele>
        <time>2015-08-16T13:05:44Z</time>
      </trkpt>
      <trkpt lat="40.516433" lon="-5.177667">
        <ele>2092.0</ele>
        <time>2015-08-16T13:05:45Z</time>
      </trkpt>
      <trkpt lat="40.516533" lon="-5.177650">
        <ele>2089.0</ele>
        <time>2015-08-16T13:05:46Z</time>
      </trkpt>
      <trkpt lat="40.516633" lon="-5.177617">
        <ele>2087.0</ele>
        <time>2015-08-16T13:05:47Z</time>
      </trkpt>
      <trkpt lat="40.516733" lon="-5.177583">
        <ele>2086.0</ele>
        <time>2015-08-16T13:05:48Z</time>
      </trkpt>
      <trkpt lat="40.516833" lon="-5.177550">
        <ele>2084.0</ele>
        <time>2015-08-16T13:05:49Z</time>
      </trkpt>
      <trkpt lat="40.516917" lon="-5.177500">
        <ele>2082.0</ele>
        <time>2015-08-16T13:05:50Z</time>
      </trkpt>
      <trkpt lat="40.517017" lon="-5.177450">
        <ele>2080.0</ele>
        <time>2015-08-16T13:05:51Z</time>
      </trkpt>
      <trkpt lat="40.517100" lon="-5.177400">
        <ele>2078.0</ele>
        <time>2015-08-16T13:05:52Z</time>
      </trkpt>
      <trkpt lat="40.517200" lon="-5.177350">
        <ele>2076.0</ele>
        <time>2015-08-16T13:05:53Z</time>
      </trkpt>
      <trkpt lat="40.517300" lon="-5.177283">
        <ele>2074.0</ele>
        <time>2015-08-16T13:05:54Z</time>
      </trkpt>
      <trkpt lat="40.517383" lon="-5.177233">
        <ele>2073.0</ele>
        <time>2015-08-16T13:05:55Z</time>
      </trkpt>
      <trkpt lat="40.517483" lon="-5.177183">
        <ele>2072.0</ele>
        <time>2015-08-16T13:05:56Z</time>
      </trkpt>
      <trkpt lat="40.517567" lon="-5.177150">
        <ele>2071.0</ele>
        <time>2015-08-16T13:05:57Z</time>
      </trkpt>
      <trkpt lat="40.517667" lon="-5.177117">
        <ele>2069.0</ele>
        <time>2015-08-16T13:05:58Z</time>
      </trkpt>
      <trkpt lat="40.517767" lon="-5.177083">
        <ele>2067.0</ele>
        <time>2015-08-16T13:05:59Z</time>
      </trkpt>
      <trkpt lat="40.517867" lon="-5.177033">
        <ele>2065.0</ele>
        <time>2015-08-16T13:06:00Z</time>
      </trkpt>
      <trkpt lat="40.517967" lon="-5.177000">
        <ele>2064.0</ele>
        <time>2015-08-16T13:06:01Z</time>
      </trkpt>
      <trkpt lat="40.518067" lon="-5.176967">
        <ele>2063.0</ele>
        <time>2015-08-16T13:06:02Z</time>
      </trkpt>
      <trkpt lat="40.518167" lon="-5.176950">
        <ele>2062.0</ele>
        <time>2015-08-16T13:06:03Z</time>
      </trkpt>
      <trkpt lat="40.518250" lon="-5.176917">
        <ele>2060.0</ele>
        <time>2015-08-16T13:06:04Z</time>
      </trkpt>
      <trkpt lat="40.518350" lon="-5.176883">
        <ele>2059.0</ele>
        <time>2015-08-16T13:06:05Z</time>
      </trkpt>
      <trkpt lat="40.518450" lon="-5.176850">
        <ele>2057.0</ele>
        <time>2015-08-16T13:06:06Z</time>
      </trkpt>
      <trkpt lat="40.518550" lon="-5.176817">
        <ele>2056.0</ele>
        <time>2015-08-16T13:06:07Z</time>
      </trkpt>
      <trkpt lat="40.518633" lon="-5.176767">
        <ele>2055.0</ele>
        <time>2015-08-16T13:06:08Z</time>
      </trkpt>
      <trkpt lat="40.518717" lon="-5.176733">
        <ele>2053.0</ele>
        <time>2015-08-16T13:06:09Z</time>
      </trkpt>
      <trkpt lat="40.518817" lon="-5.176683">
        <ele>2051.0</ele>
        <time>2015-08-16T13:06:10Z</time>
      </trkpt>
      <trkpt lat="40.518900" lon="-5.176617">
        <ele>2049.0</ele>
        <time>2015-08-16T13:06:11Z</time>
      </trkpt>
      <trkpt lat="40.519000" lon="-5.176533">
        <ele>2046.0</ele>
        <time>2015-08-16T13:06:12Z</time>
      </trkpt>
      <trkpt lat="40.519100" lon="-5.176450">
        <ele>2045.0</ele>
        <time>2015-08-16T13:06:13Z</time>
      </trkpt>
      <trkpt lat="40.519200" lon="-5.176383">
        <ele>2044.0</ele>
        <time>2015-08-16T13:06:14Z</time>
      </trkpt>
      <trkpt lat="40.519283" lon="-5.176317">
        <ele>2042.0</ele>
        <time>2015-08-16T13:06:15Z</time>
      </trkpt>
      <trkpt lat="40.519383" lon="-5.176267">
        <ele>2041.0</ele>
        <time>2015-08-16T13:06:16Z</time>
      </trkpt>
      <trkpt lat="40.519483" lon="-5.176217">
        <ele>2040.0</ele>
        <time>2015-08-16T13:06:17Z</time>
      </trkpt>
      <trkpt lat="40.519567" lon="-5.176167">
        <ele>2038.0</ele>
        <time>2015-08-16T13:06:18Z</time>
      </trkpt>
      <trkpt lat="40.519650" lon="-5.176117">
        <ele>2036.0</ele>
        <time>2015-08-16T13:06:19Z</time>
      </trkpt>
      <trkpt lat="40.519750" lon="-5.176083">
        <ele>2034.0</ele>
        <time>2015-08-16T13:06:20Z</time>
      </trkpt>
      <trkpt lat="40.519867" lon="-5.176050">
        <ele>2031.0</ele>
        <time>2015-08-16T13:06:21Z</time>
      </trkpt>
      <trkpt lat="40.519967" lon="-5.176017">
        <ele>2029.0</ele>
        <time>2015-08-16T13:06:22Z</time>
      </trkpt>
      <trkpt lat="40.520083" lon="-5.176000">
        <ele>2028.0</ele>
        <time>2015-08-16T13:06:23Z</time>
      </trkpt>
      <trkpt lat="40.520183" lon="-5.175967">
        <ele>2028.0</ele>
        <time>2015-08-16T13:06:24Z</time>
      </trkpt>
      <trkpt lat="40.520283" lon="-5.175933">
        <ele>2029.0</ele>
        <time>2015-08-16T13:06:25Z</time>
      </trkpt>
      <trkpt lat="40.520400" lon="-5.175883">
        <ele>2030.0</ele>
        <time>2015-08-16T13:06:26Z</time>
      </trkpt>
      <trkpt lat="40.520517" lon="-5.175850">
        <ele>2031.0</ele>
        <time>2015-08-16T13:06:27Z</time>
      </trkpt>
      <trkpt lat="40.520617" lon="-5.175800">
        <ele>2032.0</ele>
        <time>2015-08-16T13:06:28Z</time>
      </trkpt>
      <trkpt lat="40.520717" lon="-5.175750">
        <ele>2033.0</ele>
        <time>2015-08-16T13:06:29Z</time>
      </trkpt>
      <trkpt lat="40.520817" lon="-5.175700">
        <ele>2033.0</ele>
        <time>2015-08-16T13:06:30Z</time>
      </trkpt>
      <trkpt lat="40.520900" lon="-5.175650">
        <ele>2032.0</ele>
        <time>2015-08-16T13:06:31Z</time>
      </trkpt>
      <trkpt lat="40.520983" lon="-5.175583">
        <ele>2031.0</ele>
        <time>2015-08-16T13:06:32Z</time>
      </trkpt>
      <trkpt lat="40.521083" lon="-5.175533">
        <ele>2029.0</ele>
        <time>2015-08-16T13:06:33Z</time>
      </trkpt>
      <trkpt lat="40.521200" lon="-5.175500">
        <ele>2028.0</ele>
        <time>2015-08-16T13:06:34Z</time>
      </trkpt>
      <trkpt lat="40.521317" lon="-5.175467">
        <ele>2027.0</ele>
        <time>2015-08-16T13:06:35Z</time>
      </trkpt>
      <trkpt lat="40.521433" lon="-5.175433">
        <ele>2027.0</ele>
        <time>2015-08-16T13:06:36Z</time>
      </trkpt>
      <trkpt lat="40.521533" lon="-5.175383">
        <ele>2026.0</ele>
        <time>2015-08-16T13:06:37Z</time>
      </trkpt>
      <trkpt lat="40.521650" lon="-5.175350">
        <ele>2026.0</ele>
        <time>2015-08-16T13:06:38Z</time>
      </trkpt>
      <trkpt lat="40.521750" lon="-5.175300">
        <ele>2025.0</ele>
        <time>2015-08-16T13:06:39Z</time>
      </trkpt>
      <trkpt lat="40.521850" lon="-5.175267">
        <ele>2024.0</ele>
        <time>2015-08-16T13:06:40Z</time>
      </trkpt>
      <trkpt lat="40.521950" lon="-5.175250">
        <ele>2022.0</ele>
        <time>2015-08-16T13:06:41Z</time>
      </trkpt>
      <trkpt lat="40.522067" lon="-5.175233">
        <ele>2020.0</ele>
        <time>2015-08-16T13:06:42Z</time>
      </trkpt>
      <trkpt lat="40.522167" lon="-5.175233">
        <ele>2019.0</ele>
        <time>2015-08-16T13:06:43Z</time>
      </trkpt>
      <trkpt lat="40.522283" lon="-5.175233">
        <ele>2018.0</ele>
        <time>2015-08-16T13:06:44Z</time>
      </trkpt>
      <trkpt lat="40.522400" lon="-5.175233">
        <ele>2018.0</ele>
        <time>2015-08-16T13:06:45Z</time>
      </trkpt>
      <trkpt lat="40.522517" lon="-5.175250">
        <ele>2019.0</ele>
        <time>2015-08-16T13:06:46Z</time>
      </trkpt>
      <trkpt lat="40.522617" lon="-5.175250">
        <ele>2020.0</ele>
        <time>2015-08-16T13:06:47Z</time>
      </trkpt>
      <trkpt lat="40.522717" lon="-5.175267">
        <ele>2019.0</ele>
        <time>2015-08-16T13:06:48Z</time>
      </trkpt>
      <trkpt lat="40.522817" lon="-5.175267">
        <ele>2017.0</ele>
        <time>2015-08-16T13:06:49Z</time>
      </trkpt>
      <trkpt lat="40.522933" lon="-5.175267">
        <ele>2014.0</ele>
        <time>2015-08-16T13:06:50Z</time>
      </trkpt>
      <trkpt lat="40.523067" lon="-5.175283">
        <ele>2013.0</ele>
        <time>2015-08-16T13:06:51Z</time>
      </trkpt>
      <trkpt lat="40.523200" lon="-5.175300">
        <ele>2012.0</ele>
        <time>2015-08-16T13:06:52Z</time>
      </trkpt>
      <trkpt lat="40.523317" lon="-5.175317">
        <ele>2012.0</ele>
        <time>2015-08-16T13:06:53Z</time>
      </trkpt>
      <trkpt lat="40.523417" lon="-5.175350">
        <ele>2014.0</ele>
        <time>2015-08-16T13:06:54Z</time>
      </trkpt>
      <trkpt lat="40.523517" lon="-5.175350">
        <ele>2015.0</ele>
        <time>2015-08-16T13:06:55Z</time>
      </trkpt>
      <trkpt lat="40.523617" lon="-5.175367">
        <ele>2016.0</ele>
        <time>2015-08-16T13:06:56Z</time>
      </trkpt>
      <trkpt lat="40.523700" lon="-5.175367">
        <ele>2016.0</ele>
        <time>2015-08-16T13:06:57Z</time>
      </trkpt>
      <trkpt lat="40.523783" lon="-5.175383">
        <ele>2015.0</ele>
        <time>2015-08-16T13:06:58Z</time>
      </trkpt>
      <trkpt lat="40.523867" lon="-5.175417">
        <ele>2013.0</ele>
        <time>2015-08-16T13:06:59Z</time>
      </trkpt>
      <trkpt lat="40.523967" lon="-5.175450">
        <ele>2012.0</ele>
        <time>2015-08-16T13:07:00Z</time>
      </trkpt>
      <trkpt lat="40.524050" lon="-5.175483">
        <ele>2012.0</ele>
        <time>2015-08-16T13:07:01Z</time>
      </trkpt>
      <trkpt lat="40.524150" lon="-5.175517">
        <ele>2014.0</ele>
        <time>2015-08-16T13:07:02Z</time>
      </trkpt>
      <trkpt lat="40.524233" lon="-5.175567">
        <ele>2016.0</ele>
        <time>2015-08-16T13:07:03Z</time>
      </trkpt>
      <trkpt lat="40.524317" lon="-5.175600">
        <ele>2019.0</ele>
        <time>2015-08-16T13:07:04Z</time>
      </trkpt>
      <trkpt lat="40.524383" lon="-5.175633">
        <ele>2021.0</ele>
        <time>2015-08-16T13:07:05Z</time>
      </trkpt>
      <trkpt lat="40.524450" lon="-5.175683">
        <ele>2023.0</ele>
        <time>2015-08-16T13:07:06Z</time>
      </trkpt>
      <trkpt lat="40.524517" lon="-5.175733">
        <ele>2024.0</ele>
        <time>2015-08-16T13:07:07Z</time>
      </trkpt>
      <trkpt lat="40.524600" lon="-5.175783">
        <ele>2026.0</ele>
        <time>2015-08-16T13:07:08Z</time>
      </trkpt>
      <trkpt lat="40.524700" lon="-5.175817">
        <ele>2029.0</ele>
        <time>2015-08-16T13:07:09Z</time>
      </trkpt>
      <trkpt lat="40.524783" lon="-5.175833">
        <ele>2033.0</ele>
        <time>2015-08-16T13:07:10Z</time>
      </trkpt>
      <trkpt lat="40.524883" lon="-5.175783">
        <ele>2038.0</ele>
        <time>2015-08-16T13:07:11Z</time>
      </trkpt>
      <trkpt lat="40.524950" lon="-5.175717">
        <ele>2041.0</ele>
        <time>2015-08-16T13:07:12Z</time>
      </trkpt>
      <trkpt lat="40.525017" lon="-5.175583">
        <ele>2042.0</ele>
        <time>2015-08-16T13:07:13Z</time>
      </trkpt>
      <trkpt lat="40.525050" lon="-5.175433">
        <ele>2044.0</ele>
        <time>2015-08-16T13:07:14Z</time>
      </trkpt>
      <trkpt lat="40.525083" lon="-5.175283">
        <ele>2045.0</ele>
        <time>2015-08-16T13:07:15Z</time>
      </trkpt>
      <trkpt lat="40.525067" lon="-5.175133">
        <ele>2048.0</ele>
        <time>2015-08-16T13:07:16Z</time>
      </trkpt>
      <trkpt lat="40.525033" lon="-5.174983">
        <ele>2048.0</ele>
        <time>2015-08-16T13:07:17Z</time>
      </trkpt>
      <trkpt lat="40.524967" lon="-5.174867">
        <ele>2048.0</ele>
        <time>2015-08-16T13:07:18Z</time>
      </trkpt>
      <trkpt lat="40.524867" lon="-5.174783">
        <ele>2048.0</ele>
        <time>2015-08-16T13:07:19Z</time>
      </trkpt>
      <trkpt lat="40.524750" lon="-5.174750">
        <ele>2051.0</ele>
        <time>2015-08-16T13:07:20Z</time>
      </trkpt>
      <trkpt lat="40.524667" lon="-5.174783">
        <ele>2054.0</ele>
        <time>2015-08-16T13:07:21Z</time>
      </trkpt>
      <trkpt lat="40.524600" lon="-5.174833">
        <ele>2057.0</ele>
        <time>2015-08-16T13:07:22Z</time>
      </trkpt>
      <trkpt lat="40.524550" lon="-5.174883">
        <ele>2059.0</ele>
        <time>2015-08-16T13:07:23Z</time>
      </trkpt>
      <trkpt lat="40.524483" lon="-5.174933">
        <ele>2062.0</ele>
        <time>2015-08-16T13:07:24Z</time>
      </trkpt>
      <trkpt lat="40.524433" lon="-5.174983">
        <ele>2066.0</ele>
        <time>2015-08-16T13:07:25Z</time>
      </trkpt>
      <trkpt lat="40.524367" lon="-5.175017">
        <ele>2069.0</ele>
        <time>2015-08-16T13:07:26Z</time>
      </trkpt>
      <trkpt lat="40.524317" lon="-5.175067">
        <ele>2071.0</ele>
        <time>2015-08-16T13:07:27Z</time>
      </trkpt>
      <trkpt lat="40.524283" lon="-5.175133">
        <ele>2073.0</ele>
        <time>2015-08-16T13:07:28Z</time>
      </trkpt>
      <trkpt lat="40.524250" lon="-5.175217">
        <ele>2075.0</ele>
        <time>2015-08-16T13:07:29Z</time>
      </trkpt>
      <trkpt lat="40.524250" lon="-5.175283">
        <ele>2077.0</ele>
        <time>2015-08-16T13:07:30Z</time>
      </trkpt>
      <trkpt lat="40.524250" lon="-5.175367">
        <ele>2079.0</ele>
        <time>2015-08-16T13:07:31Z</time>
      </trkpt>
      <trkpt lat="40.524267" lon="-5.175467">
        <ele>2081.0</ele>
        <time>2015-08-16T13:07:32Z</time>
      </trkpt>
      <trkpt lat="40.524317" lon="-5.175550">
        <ele>2082.0</ele>
        <time>2015-08-16T13:07:33Z</time>
      </trkpt>
      <trkpt lat="40.524400" lon="-5.175633">
        <ele>2083.0</ele>
        <time>2015-08-16T13:07:34Z</time>
      </trkpt>
      <trkpt lat="40.524483" lon="-5.175683">
        <ele>2086.0</ele>
        <time>2015-08-16T13:07:35Z</time>
      </trkpt>
      <trkpt lat="40.524550" lon="-5.175717">
        <ele>2090.0</ele>
        <time>2015-08-16T13:07:36Z</time>
      </trkpt>
      <trkpt lat="40.524617" lon="-5.175767">
        <ele>2093.0</ele>
        <time>2015-08-16T13:07:37Z</time>
      </trkpt>
      <trkpt lat="40.524683" lon="-5.175800">
        <ele>2096.0</ele>
        <time>2015-08-16T13:07:38Z</time>
      </trkpt>
      <trkpt lat="40.524750" lon="-5.175833">
        <ele>2098.0</ele>
        <time>2015-08-16T13:07:39Z</time>
      </trkpt>
      <trkpt lat="40.524833" lon="-5.175833">
        <ele>2100.0</ele>
        <time>2015-08-16T13:07:40Z</time>
      </trkpt>
      <trkpt lat="40.524917" lon="-5.175783">
        <ele>2101.0</ele>
        <time>2015-08-16T13:07:41Z</time>
      </trkpt>
      <trkpt lat="40.525000" lon="-5.175667">
        <ele>2103.0</ele>
        <time>2015-08-16T13:07:42Z</time>
      </trkpt>
      <trkpt lat="40.525067" lon="-5.175533">
        <ele>2106.0</ele>
        <time>2015-08-16T13:07:43Z</time>
      </trkpt>
      <trkpt lat="40.525117" lon="-5.175400">
        <ele>2111.0</ele>
        <time>2015-08-16T13:07:44Z</time>
      </trkpt>
      <trkpt lat="40.525133" lon="-5.175267">
        <ele>2115.0</ele>
        <time>2015-08-16T13:07:45Z</time>
      </trkpt>
      <trkpt lat="40.525100" lon="-5.175133">
        <ele>2117.0</ele>
        <time>2015-08-16T13:07:46Z</time>
      </trkpt>
      <trkpt lat="40.525050" lon="-5.175017">
        <ele>2118.0</ele>
        <time>2015-08-16T13:07:47Z</time>
      </trkpt>
      <trkpt lat="40.524950" lon="-5.174933">
        <ele>2119.0</ele>
        <time>2015-08-16T13:07:48Z</time>
      </trkpt>
      <trkpt lat="40.524833" lon="-5.174900">
        <ele>2120.0</ele>
        <time>2015-08-16T13:07:49Z</time>
      </trkpt>
      <trkpt lat="40.524717" lon="-5.174933">
        <ele>2123.0</ele>
        <time>2015-08-16T13:07:50Z</time>
      </trkpt>
      <trkpt lat="40.524633" lon="-5.175000">
        <ele>2127.0</ele>
        <time>2015-08-16T13:07:51Z</time>
      </trkpt>
      <trkpt lat="40.524600" lon="-5.175100">
        <ele>2131.0</ele>
        <time>2015-08-16T13:07:52Z</time>
      </trkpt>
      <trkpt lat="40.524600" lon="-5.175183">
        <ele>2132.0</ele>
        <time>2015-08-16T13:07:53Z</time>
      </trkpt>
      <trkpt lat="40.524633" lon="-5.175283">
        <ele>2131.0</ele>
        <time>2015-08-16T13:07:54Z</time>
      </trkpt>
      <trkpt lat="40.524700" lon="-5.175367">
        <ele>2131.0</ele>
        <time>2015-08-16T13:07:55Z</time>
      </trkpt>
      <trkpt lat="40.524750" lon="-5.175433">
        <ele>2131.0</ele>
        <time>2015-08-16T13:07:56Z</time>
      </trkpt>
      <trkpt lat="40.524833" lon="-5.175483">
        <ele>2131.0</ele>
        <time>2015-08-16T13:07:57Z</time>
      </trkpt>
      <trkpt lat="40.524917" lon="-5.175500">
        <ele>2131.0</ele>
        <time>2015-08-16T13:07:58Z</time>
      </trkpt>
      <trkpt lat="40.525017" lon="-5.175517">
        <ele>2131.0</ele>
        <time>2015-08-16T13:07:59Z</time>
      </trkpt>
      <trkpt lat="40.525117" lon="-5.175500">
        <ele>2131.0</ele>
        <time>2015-08-16T13:08:00Z</time>
      </trkpt>
      <trkpt lat="40.525217" lon="-5.175500">
        <ele>2132.0</ele>
        <time>2015-08-16T13:08:01Z</time>
      </trkpt>
      <trkpt lat="40.525333" lon="-5.175500">
        <ele>2134.0</ele>
        <time>2015-08-16T13:08:02Z</time>
      </trkpt>
      <trkpt lat="40.525433" lon="-5.175483">
        <ele>2138.0</ele>
        <time>2015-08-16T13:08:03Z</time>
      </trkpt>
      <trkpt lat="40.525533" lon="-5.175467">
        <ele>2141.0</ele>
        <time>2015-08-16T13:08:04Z</time>
      </trkpt>
      <trkpt lat="40.525617" lon="-5.175450">
        <ele>2145.0</ele>
        <time>2015-08-16T13:08:05Z</time>
      </trkpt>
      <trkpt lat="40.525683" lon="-5.175450">
        <ele>2148.0</ele>
        <time>2015-08-16T13:08:06Z</time>
      </trkpt>
      <trkpt lat="40.525750" lon="-5.175417">
        <ele>2150.0</ele>
        <time>2015-08-16T13:08:07Z</time>
      </trkpt>
      <trkpt lat="40.525817" lon="-5.175367">
        <ele>2151.0</ele>
        <time>2015-08-16T13:08:08Z</time>
      </trkpt>
      <trkpt lat="40.525867" lon="-5.175283">
        <ele>2152.0</ele>
        <time>2015-08-16T13:08:09Z</time>
      </trkpt>
      <trkpt lat="40.525917" lon="-5.175183">
        <ele>2154.0</ele>
        <time>2015-08-16T13:08:10Z</time>
      </trkpt>
      <trkpt lat="40.525967" lon="-5.175067">
        <ele>2156.0</ele>
        <time>2015-08-16T13:08:11Z</time>
      </trkpt>
      <trkpt lat="40.525967" lon="-5.174950">
        <ele>2159.0</ele>
        <time>2015-08-16T13:08:12Z</time>
      </trkpt>
      <trkpt lat="40.525967" lon="-5.174850">
        <ele>2161.0</ele>
        <time>2015-08-16T13:08:13Z</time>
      </trkpt>
      <trkpt lat="40.525933" lon="-5.174750">
        <ele>2161.0</ele>
        <time>2015-08-16T13:08:14Z</time>
      </trkpt>
      <trkpt lat="40.525867" lon="-5.174650">
        <ele>2160.0</ele>
        <time>2015-08-16T13:08:15Z</time>
      </trkpt>
      <trkpt lat="40.525783" lon="-5.174567">
        <ele>2159.0</ele>
        <time>2015-08-16T13:08:16Z</time>
      </trkpt>
      <trkpt lat="40.525683" lon="-5.174533">
        <ele>2158.0</ele>
        <time>2015-08-16T13:08:17Z</time>
      </trkpt>
      <trkpt lat="40.525567" lon="-5.174517">
        <ele>2158.0</ele>
        <time>2015-08-16T13:08:18Z</time>
      </trkpt>
      <trkpt lat="40.525467" lon="-5.174550">
        <ele>2161.0</ele>
        <time>2015-08-16T13:08:19Z</time>
      </trkpt>
      <trkpt lat="40.525367" lon="-5.174617">
        <ele>2164.0</ele>
        <time>2015-08-16T13:08:20Z</time>
      </trkpt>
      <trkpt lat="40.525317" lon="-5.174683">
        <ele>2168.0</ele>
        <time>2015-08-16T13:08:21Z</time>
      </trkpt>
      <trkpt lat="40.525250" lon="-5.174733">
        <ele>2172.0</ele>
        <time>2015-08-16T13:08:22Z</time>
      </trkpt>
      <trkpt lat="40.525200" lon="-5.174767">
        <ele>2175.0</ele>
        <time>2015-08-16T13:08:23Z</time>
      </trkpt>
      <trkpt lat="40.525133" lon="-5.174767">
        <ele>2176.0</ele>
        <time>2015-08-16T13:08:24Z</time>
      </trkpt>
      <trkpt lat="40.525083" lon="-5.174783">
        <ele>2177.0</ele>
        <time>2015-08-16T13:08:25Z</time>
      </trkpt>
      <trkpt lat="40.525017" lon="-5.174817">
        <ele>2176.0</ele>
        <time>2015-08-16T13:08:26Z</time>
      </trkpt>
      <trkpt lat="40.525000" lon="-5.174883">
        <ele>2174.0</ele>
        <time>2015-08-16T13:08:27Z</time>
      </trkpt>
      <trkpt lat="40.525000" lon="-5.174983">
        <ele>2171.0</ele>
        <time>2015-08-16T13:08:28Z</time>
      </trkpt>
      <trkpt lat="40.525050" lon="-5.175083">
        <ele>2168.0</ele>
        <time>2015-08-16T13:08:29Z</time>
      </trkpt>
      <trkpt lat="40.525133" lon="-5.175150">
        <ele>2166.0</ele>
        <time>2015-08-16T13:08:30Z</time>
      </trkpt>
      <trkpt lat="40.525250" lon="-5.175183">
        <ele>2164.0</ele>
        <time>2015-08-16T13:08:31Z</time>
      </trkpt>
      <trkpt lat="40.525367" lon="-5.175167">
        <ele>2166.0</ele>
        <time>2015-08-16T13:08:32Z</time>
      </trkpt>
      <trkpt lat="40.525467" lon="-5.175117">
        <ele>2167.0</ele>
        <time>2015-08-16T13:08:33Z</time>
      </trkpt>
      <trkpt lat="40.525550" lon="-5.175083">
        <ele>2168.0</ele>
        <time>2015-08-16T13:08:34Z</time>
      </trkpt>
      <trkpt lat="40.525617" lon="-5.175050">
        <ele>2169.0</ele>
        <time>2015-08-16T13:08:35Z</time>
      </trkpt>
      <trkpt lat="40.525683" lon="-5.175017">
        <ele>2167.0</ele>
        <time>2015-08-16T13:08:36Z</time>
      </trkpt>
      <trkpt lat="40.525783" lon="-5.174983">
        <ele>2165.0</ele>
        <time>2015-08-16T13:08:37Z</time>
      </trkpt>
      <trkpt lat="40.525883" lon="-5.174967">
        <ele>2163.0</ele>
        <time>2015-08-16T13:08:38Z</time>
      </trkpt>
      <trkpt lat="40.525983" lon="-5.174933">
        <ele>2163.0</ele>
        <time>2015-08-16T13:08:39Z</time>
      </trkpt>
      <trkpt lat="40.526067" lon="-5.174883">
        <ele>2163.0</ele>
        <time>2015-08-16T13:08:40Z</time>
      </trkpt>
      <trkpt lat="40.526150" lon="-5.174800">
        <ele>2163.0</ele>
        <time>2015-08-16T13:08:41Z</time>
      </trkpt>
      <trkpt lat="40.526217" lon="-5.174700">
        <ele>2161.0</ele>
        <time>2015-08-16T13:08:42Z</time>
      </trkpt>
      <trkpt lat="40.526283" lon="-5.174567">
        <ele>2158.0</ele>
        <time>2015-08-16T13:08:43Z</time>
      </trkpt>
      <trkpt lat="40.526350" lon="-5.174417">
        <ele>2157.0</ele>
        <time>2015-08-16T13:08:44Z</time>
      </trkpt>
      <trkpt lat="40.526417" lon="-5.174267">
        <ele>2158.0</ele>
        <time>2015-08-16T13:08:45Z</time>
      </trkpt>
      <trkpt lat="40.526467" lon="-5.174150">
        <ele>2161.0</ele>
        <time>2015-08-16T13:08:46Z</time>
      </trkpt>
      <trkpt lat="40.526517" lon="-5.174050">
        <ele>2165.0</ele>
        <time>2015-08-16T13:08:47Z</time>
      </trkpt>
      <trkpt lat="40.526567" lon="-5.173950">
        <ele>2166.0</ele>
        <time>2015-08-16T13:08:48Z</time>
      </trkpt>
      <trkpt lat="40.526650" lon="-5.173850">
        <ele>2165.0</ele>
        <time>2015-08-16T13:08:49Z</time>
      </trkpt>
      <trkpt lat="40.526733" lon="-5.173717">
        <ele>2164.0</ele>
        <time>2015-08-16T13:08:50Z</time>
      </trkpt>
      <trkpt lat="40.526800" lon="-5.173567">
        <ele>2164.0</ele>
        <time>2015-08-16T13:08:51Z</time>
      </trkpt>
      <trkpt lat="40.526850" lon="-5.173400">
        <ele>2165.0</ele>
        <time>2015-08-16T13:08:52Z</time>
      </trkpt>
      <trkpt lat="40.526867" lon="-5.173217">
        <ele>2167.0</ele>
        <time>2015-08-16T13:08:53Z</time>
      </trkpt>
      <trkpt lat="40.526883" lon="-5.173067">
        <ele>2172.0</ele>
        <time>2015-08-16T13:08:54Z</time>
      </trkpt>
      <trkpt lat="40.526917" lon="-5.172933">
        <ele>2176.0</ele>
        <time>2015-08-16T13:08:55Z</time>
      </trkpt>
      <trkpt lat="40.526967" lon="-5.172800">
        <ele>2178.0</ele>
        <time>2015-08-16T13:08:56Z</time>
      </trkpt>
      <trkpt lat="40.527000" lon="-5.172667">
        <ele>2180.0</ele>
        <time>2015-08-16T13:08:57Z</time>
      </trkpt>
      <trkpt lat="40.527017" lon="-5.172517">
        <ele>2180.0</ele>
        <time>2015-08-16T13:08:58Z</time>
      </trkpt>
      <trkpt lat="40.527017" lon="-5.172350">
        <ele>2180.0</ele>
        <time>2015-08-16T13:08:59Z</time>
      </trkpt>
      <trkpt lat="40.526983" lon="-5.172200">
        <ele>2180.0</ele>
        <time>2015-08-16T13:09:00Z</time>
      </trkpt>
      <trkpt lat="40.526900" lon="-5.172067">
        <ele>2180.0</ele>
        <time>2015-08-16T13:09:01Z</time>
      </trkpt>
      <trkpt lat="40.526817" lon="-5.172000">
        <ele>2181.0</ele>
        <time>2015-08-16T13:09:02Z</time>
      </trkpt>
      <trkpt lat="40.526717" lon="-5.171967">
        <ele>2182.0</ele>
        <time>2015-08-16T13:09:03Z</time>
      </trkpt>
      <trkpt lat="40.526650" lon="-5.171983">
        <ele>2184.0</ele>
        <time>2015-08-16T13:09:04Z</time>
      </trkpt>
      <trkpt lat="40.526583" lon="-5.172000">
        <ele>2185.0</ele>
        <time>2015-08-16T13:09:05Z</time>
      </trkpt>
      <trkpt lat="40.526533" lon="-5.172050">
        <ele>2187.0</ele>
        <time>2015-08-16T13:09:06Z</time>
      </trkpt>
      <trkpt lat="40.526517" lon="-5.172117">
        <ele>2188.0</ele>
        <time>2015-08-16T13:09:07Z</time>
      </trkpt>
      <trkpt lat="40.526550" lon="-5.172200">
        <ele>2188.0</ele>
        <time>2015-08-16T13:09:08Z</time>
      </trkpt>
      <trkpt lat="40.526600" lon="-5.172283">
        <ele>2187.0</ele>
        <time>2015-08-16T13:09:09Z</time>
      </trkpt>
      <trkpt lat="40.526683" lon="-5.172367">
        <ele>2188.0</ele>
        <time>2015-08-16T13:09:10Z</time>
      </trkpt>
      <trkpt lat="40.526783" lon="-5.172417">
        <ele>2189.0</ele>
        <time>2015-08-16T13:09:11Z</time>
      </trkpt>
      <trkpt lat="40.526900" lon="-5.172433">
        <ele>2190.0</ele>
        <time>2015-08-16T13:09:12Z</time>
      </trkpt>
      <trkpt lat="40.527033" lon="-5.172417">
        <ele>2193.0</ele>
        <time>2015-08-16T13:09:13Z</time>
      </trkpt>
      <trkpt lat="40.527150" lon="-5.172383">
        <ele>2197.0</ele>
        <time>2015-08-16T13:09:14Z</time>
      </trkpt>
      <trkpt lat="40.527250" lon="-5.172350">
        <ele>2201.0</ele>
        <time>2015-08-16T13:09:15Z</time>
      </trkpt>
      <trkpt lat="40.527333" lon="-5.172283">
        <ele>2204.0</ele>
        <time>2015-08-16T13:09:16Z</time>
      </trkpt>
      <trkpt lat="40.527433" lon="-5.172183">
        <ele>2206.0</ele>
        <time>2015-08-16T13:09:17Z</time>
      </trkpt>
      <trkpt lat="40.527533" lon="-5.172050">
        <ele>2208.0</ele>
        <time>2015-08-16T13:09:18Z</time>
      </trkpt>
      <trkpt lat="40.527600" lon="-5.171900">
        <ele>2210.0</ele>
        <time>2015-08-16T13:09:19Z</time>
      </trkpt>
      <trkpt lat="40.527633" lon="-5.171717">
        <ele>2212.0</ele>
        <time>2015-08-16T13:09:20Z</time>
      </trkpt>
      <trkpt lat="40.527617" lon="-5.171550">
        <ele>2214.0</ele>
        <time>2015-08-16T13:09:21Z</time>
      </trkpt>
      <trkpt lat="40.527567" lon="-5.171400">
        <ele>2215.0</ele>
        <time>2015-08-16T13:09:22Z</time>
      </trkpt>
      <trkpt lat="40.527483" lon="-5.171267">
        <ele>2216.0</ele>
        <time>2015-08-16T13:09:23Z</time>
      </trkpt>
      <trkpt lat="40.527383" lon="-5.171200">
        <ele>2219.0</ele>
        <time>2015-08-16T13:09:24Z</time>
      </trkpt>
      <trkpt lat="40.527300" lon="-5.171167">
        <ele>2222.0</ele>
        <time>2015-08-16T13:09:25Z</time>
      </trkpt>
      <trkpt lat="40.527250" lon="-5.171167">
        <ele>2226.0</ele>
        <time>2015-08-16T13:09:26Z</time>
      </trkpt>
      <trkpt lat="40.527217" lon="-5.171217">
        <ele>2227.0</ele>
        <time>2015-08-16T13:09:27Z</time>
      </trkpt>
      <trkpt lat="40.527200" lon="-5.171300">
        <ele>2228.0</ele>
        <time>2015-08-16T13:09:28Z</time>
      </trkpt>
      <trkpt lat="40.527233" lon="-5.171383">
        <ele>2229.0</ele>
        <time>2015-08-16T13:09:29Z</time>
      </trkpt>
      <trkpt lat="40.527300" lon="-5.171467">
        <ele>2231.0</ele>
        <time>2015-08-16T13:09:30Z</time>
      </trkpt>
      <trkpt lat="40.527367" lon="-5.171517">
        <ele>2234.0</ele>
        <time>2015-08-16T13:09:31Z</time>
      </trkpt>
      <trkpt lat="40.527450" lon="-5.171550">
        <ele>2239.0</ele>
        <time>2015-08-16T13:09:32Z</time>
      </trkpt>
      <trkpt lat="40.527533" lon="-5.171567">
        <ele>2244.0</ele>
        <time>2015-08-16T13:09:33Z</time>
      </trkpt>
      <trkpt lat="40.527583" lon="-5.171583">
        <ele>2248.0</ele>
        <time>2015-08-16T13:09:34Z</time>
      </trkpt>
      <trkpt lat="40.527650" lon="-5.171633">
        <ele>2251.0</ele>
        <time>2015-08-16T13:09:35Z</time>
      </trkpt>
      <trkpt lat="40.527700" lon="-5.171683">
        <ele>2253.0</ele>
        <time>2015-08-16T13:09:36Z</time>
      </trkpt>
      <trkpt lat="40.527783" lon="-5.171733">
        <ele>2255.0</ele>
        <time>2015-08-16T13:09:37Z</time>
      </trkpt>
      <trkpt lat="40.527883" lon="-5.171783">
        <ele>2258.0</ele>
        <time>2015-08-16T13:09:38Z</time>
      </trkpt>
      <trkpt lat="40.528000" lon="-5.171767">
        <ele>2260.0</ele>
        <time>2015-08-16T13:09:39Z</time>
      </trkpt>
      <trkpt lat="40.528117" lon="-5.171700">
        <ele>2261.0</ele>
        <time>2015-08-16T13:09:40Z</time>
      </trkpt>
      <trkpt lat="40.528217" lon="-5.171583">
        <ele>2264.0</ele>
        <time>2015-08-16T13:09:41Z</time>
      </trkpt>
      <trkpt lat="40.528283" lon="-5.171433">
        <ele>2267.0</ele>
        <time>2015-08-16T13:09:42Z</time>
      </trkpt>
      <trkpt lat="40.528317" lon="-5.171283">
        <ele>2270.0</ele>
        <time>2015-08-16T13:09:43Z</time>
      </trkpt>
      <trkpt lat="40.528300" lon="-5.171133">
        <ele>2272.0</ele>
        <time>2015-08-16T13:09:44Z</time>
      </trkpt>
      <trkpt lat="40.528250" lon="-5.171017">
        <ele>2273.0</ele>
        <time>2015-08-16T13:09:45Z</time>
      </trkpt>
      <trkpt lat="40.528183" lon="-5.170933">
        <ele>2272.0</ele>
        <time>2015-08-16T13:09:46Z</time>
      </trkpt>
      <trkpt lat="40.528083" lon="-5.170900">
        <ele>2273.0</ele>
        <time>2015-08-16T13:09:47Z</time>
      </trkpt>
      <trkpt lat="40.527983" lon="-5.170917">
        <ele>2274.0</ele>
        <time>2015-08-16T13:09:48Z</time>
      </trkpt>
      <trkpt lat="40.527917" lon="-5.170983">
        <ele>2277.0</ele>
        <time>2015-08-16T13:09:49Z</time>
      </trkpt>
      <trkpt lat="40.527883" lon="-5.171067">
        <ele>2281.0</ele>
        <time>2015-08-16T13:09:50Z</time>
      </trkpt>
      <trkpt lat="40.527883" lon="-5.171150">
        <ele>2285.0</ele>
        <time>2015-08-16T13:09:51Z</time>
      </trkpt>
      <trkpt lat="40.527917" lon="-5.171217">
        <ele>2290.0</ele>
        <time>2015-08-16T13:09:52Z</time>
      </trkpt>
      <trkpt lat="40.527983" lon="-5.171267">
        <ele>2293.0</ele>
        <time>2015-08-16T13:09:53Z</time>
      </trkpt>
      <trkpt lat="40.528050" lon="-5.171300">
        <ele>2295.0</ele>
        <time>2015-08-16T13:09:54Z</time>
      </trkpt>
      <trkpt lat="40.528150" lon="-5.171317">
        <ele>2297.0</ele>
        <time>2015-08-16T13:09:55Z</time>
      </trkpt>
      <trkpt lat="40.528250" lon="-5.171300">
        <ele>2298.0</ele>
        <time>2015-08-16T13:09:56Z</time>
      </trkpt>
      <trkpt lat="40.528367" lon="-5.171233">
        <ele>2299.0</ele>
        <time>2015-08-16T13:09:57Z</time>
      </trkpt>
      <trkpt lat="40.528450" lon="-5.171117">
        <ele>2299.0</ele>
        <time>2015-08-16T13:09:58Z</time>
      </trkpt>
      <trkpt lat="40.528517" lon="-5.170950">
        <ele>2300.0</ele>
        <time>2015-08-16T13:09:59Z</time>
      </trkpt>
      <trkpt lat="40.528533" lon="-5.170783">
        <ele>2302.0</ele>
        <time>2015-08-16T13:10:00Z</time>
      </trkpt>
      <trkpt lat="40.528517" lon="-5.170633">
        <ele>2305.0</ele>
        <time>2015-08-16T13:10:01Z</time>
      </trkpt>
      <trkpt lat="40.528467" lon="-5.170517">
        <ele>2305.0</ele>
        <time>2015-08-16T13:10:02Z</time>
      </trkpt>
      <trkpt lat="40.528400" lon="-5.170433">
        <ele>2305.0</ele>
        <time>2015-08-16T13:10:03Z</time>
      </trkpt>
      <trkpt lat="40.528300" lon="-5.170383">
        <ele>2306.0</ele>
        <time>2015-08-16T13:10:04Z</time>
      </trkpt>
      <trkpt lat="40.528217" lon="-5.170383">
        <ele>2306.0</ele>
        <time>2015-08-16T13:10:05Z</time>
      </trkpt>
      <trkpt lat="40.528133" lon="-5.170400">
        <ele>2308.0</ele>
        <time>2015-08-16T13:10:06Z</time>
      </trkpt>
      <trkpt lat="40.528067" lon="-5.170467">
        <ele>2310.0</ele>
        <time>2015-08-16T13:10:07Z</time>
      </trkpt>
      <trkpt lat="40.528033" lon="-5.170550">
        <ele>2313.0</ele>
        <time>2015-08-16T13:10:08Z</time>
      </trkpt>
      <trkpt lat="40.528000" lon="-5.170633">
        <ele>2316.0</ele>
        <time>2015-08-16T13:10:09Z</time>
      </trkpt>
      <trkpt lat="40.528000" lon="-5.170733">
        <ele>2319.0</ele>
        <time>2015-08-16T13:10:10Z</time>
      </trkpt>
      <trkpt lat="40.528000" lon="-5.170817">
        <ele>2323.0</ele>
        <time>2015-08-16T13:10:11Z</time>
      </trkpt>
      <trkpt lat="40.528050" lon="-5.170883">
        <ele>2325.0</ele>
        <time>2015-08-16T13:10:12Z</time>
      </trkpt>
      <trkpt lat="40.528100" lon="-5.170950">
        <ele>2326.0</ele>
        <time>2015-08-16T13:10:13Z</time>
      </trkpt>
      <trkpt lat="40.528183" lon="-5.171000">
        <ele>2328.0</ele>
        <time>2015-08-16T13:10:14Z</time>
      </trkpt>
      <trkpt lat="40.528267" lon="-5.171067">
        <ele>2331.0</ele>
        <time>2015-08-16T13:10:15Z</time>
      </trkpt>
      <trkpt lat="40.528333" lon="-5.171133">
        <ele>2336.0</ele>
        <time>2015-08-16T13:10:16Z</time>
      </trkpt>
      <trkpt lat="40.528383" lon="-5.171183">
        <ele>2340.0</ele>
        <time>2015-08-16T13:10:17Z</time>
      </trkpt>
      <trkpt lat="40.528450" lon="-5.171233">
        <ele>2343.0</ele>
        <time>2015-08-16T13:10:18Z</time>
      </trkpt>
      <trkpt lat="40.528500" lon="-5.171283">
        <ele>2346.0</ele>
        <time>2015-08-16T13:10:19Z</time>
      </trkpt>
      <trkpt lat="40.528583" lon="-5.171317">
        <ele>2348.0</ele>
        <time>2015-08-16T13:10:20Z</time>
      </trkpt>
      <trkpt lat="40.528667" lon="-5.171333">
        <ele>2349.0</ele>
        <time>2015-08-16T13:10:21Z</time>
      </trkpt>
      <trkpt lat="40.528783" lon="-5.171300">
        <ele>2351.0</ele>
        <time>2015-08-16T13:10:22Z</time>
      </trkpt>
      <trkpt lat="40.528867" lon="-5.171217">
        <ele>2352.0</ele>
        <time>2015-08-16T13:10:23Z</time>
      </trkpt>
      <trkpt lat="40.528950" lon="-5.171100">
        <ele>2354.0</ele>
        <time>2015-08-16T13:10:24Z</time>
      </trkpt>
      <trkpt lat="40.529000" lon="-5.170967">
        <ele>2356.0</ele>
        <time>2015-08-16T13:10:25Z</time>
      </trkpt>
      <trkpt lat="40.529017" lon="-5.170817">
        <ele>2358.0</ele>
        <time>2015-08-16T13:10:26Z</time>
      </trkpt>
      <trkpt lat="40.529000" lon="-5.170683">
        <ele>2359.0</ele>
        <time>2015-08-16T13:10:27Z</time>
      </trkpt>
      <trkpt lat="40.528950" lon="-5.170550">
        <ele>2359.0</ele>
        <time>2015-08-16T13:10:28Z</time>
      </trkpt>
      <trkpt lat="40.528867" lon="-5.170450">
        <ele>2359.0</ele>
        <time>2015-08-16T13:10:29Z</time>
      </trkpt>
      <trkpt lat="40.528767" lon="-5.170383">
        <ele>2359.0</ele>
        <time>2015-08-16T13:10:30Z</time>
      </trkpt>
      <trkpt lat="40.528667" lon="-5.170350">
        <ele>2361.0</ele>
        <time>2015-08-16T13:10:31Z</time>
      </trkpt>
      <trkpt lat="40.528567" lon="-5.170367">
        <ele>2363.0</ele>
        <time>2015-08-16T13:10:32Z</time>
      </trkpt>
      <trkpt lat="40.528483" lon="-5.170400">
        <ele>2367.0</ele>
        <time>2015-08-16T13:10:33Z</time>
      </trkpt>
      <trkpt lat="40.528417" lon="-5.170467">
        <ele>2370.0</ele>
        <time>2015-08-16T13:10:34Z</time>
      </trkpt>
      <trkpt lat="40.528383" lon="-5.170550">
        <ele>2373.0</ele>
        <time>2015-08-16T13:10:35Z</time>
      </trkpt>
      <trkpt lat="40.528367" lon="-5.170633">
        <ele>2375.0</ele>
        <time>2015-08-16T13:10:36Z</time>
      </trkpt>
      <trkpt lat="40.528400" lon="-5.170717">
        <ele>2378.0</ele>
        <time>2015-08-16T13:10:37Z</time>
      </trkpt>
      <trkpt lat="40.528467" lon="-5.170783">
        <ele>2379.0</ele>
        <time>2015-08-16T13:10:38Z</time>
      </trkpt>
      <trkpt lat="40.528567" lon="-5.170800">
        <ele>2379.0</ele>
        <time>2015-08-16T13:10:39Z</time>
      </trkpt>
      <trkpt lat="40.528683" lon="-5.170767">
        <ele>2378.0</ele>
        <time>2015-08-16T13:10:40Z</time>
      </trkpt>
      <trkpt lat="40.528783" lon="-5.170683">
        <ele>2380.0</ele>
        <time>2015-08-16T13:10:41Z</time>
      </trkpt>
      <trkpt lat="40.528867" lon="-5.170583">
        <ele>2384.0</ele>
        <time>2015-08-16T13:10:42Z</time>
      </trkpt>
      <trkpt lat="40.528933" lon="-5.170467">
        <ele>2388.0</ele>
        <time>2015-08-16T13:10:43Z</time>
      </trkpt>
      <trkpt lat="40.528967" lon="-5.170350">
        <ele>2391.0</ele>
        <time>2015-08-16T13:10:44Z</time>
      </trkpt>
      <trkpt lat="40.529017" lon="-5.170233">
        <ele>2393.0</ele>
        <time>2015-08-16T13:10:45Z</time>
      </trkpt>
      <trkpt lat="40.529067" lon="-5.170100">
        <ele>2394.0</ele>
        <time>2015-08-16T13:10:46Z</time>
      </trkpt>
      <trkpt lat="40.529117" lon="-5.169983">
        <ele>2395.0</ele>
        <time>2015-08-16T13:10:47Z</time>
      </trkpt>
      <trkpt lat="40.529117" lon="-5.169833">
        <ele>2395.0</ele>
        <time>2015-08-16T13:10:48Z</time>
      </trkpt>
      <trkpt lat="40.529117" lon="-5.169683">
        <ele>2395.0</ele>
        <time>2015-08-16T13:10:49Z</time>
      </trkpt>
      <trkpt lat="40.529067" lon="-5.169550">
        <ele>2395.0</ele>
        <time>2015-08-16T13:10:50Z</time>
      </trkpt>
      <trkpt lat="40.529000" lon="-5.169450">
        <ele>2395.0</ele>
        <time>2015-08-16T13:10:51Z</time>
      </trkpt>
      <trkpt lat="40.528917" lon="-5.169383">
        <ele>2394.0</ele>
        <time>2015-08-16T13:10:52Z</time>
      </trkpt>
      <trkpt lat="40.528833" lon="-5.169350">
        <ele>2394.0</ele>
        <time>2015-08-16T13:10:53Z</time>
      </trkpt>
      <trkpt lat="40.528733" lon="-5.169367">
        <ele>2396.0</ele>
        <time>2015-08-16T13:10:54Z</time>
      </trkpt>
      <trkpt lat="40.528633" lon="-5.169400">
        <ele>2399.0</ele>
        <time>2015-08-16T13:10:55Z</time>
      </trkpt>
      <trkpt lat="40.528583" lon="-5.169467">
        <ele>2403.0</ele>
        <time>2015-08-16T13:10:56Z</time>
      </trkpt>
      <trkpt lat="40.528533" lon="-5.169550">
        <ele>2407.0</ele>
        <time>2015-08-16T13:10:57Z</time>
      </trkpt>
      <trkpt lat="40.528533" lon="-5.169650">
        <ele>2409.0</ele>
        <time>2015-08-16T13:10:58Z</time>
      </trkpt>
      <trkpt lat="40.528550" lon="-5.169733">
        <ele>2410.0</ele>
        <time>2015-08-16T13:10:59Z</time>
      </trkpt>
      <trkpt lat="40.528567" lon="-5.169833">
        <ele>2411.0</ele>
        <time>2015-08-16T13:11:00Z</time>
      </trkpt>
      <trkpt lat="40.528617" lon="-5.169917">
        <ele>2412.0</ele>
        <time>2015-08-16T13:11:01Z</time>
      </trkpt>
      <trkpt lat="40.528683" lon="-5.170000">
        <ele>2413.0</ele>
        <time>2015-08-16T13:11:02Z</time>
      </trkpt>
      <trkpt lat="40.528767" lon="-5.170050">
        <ele>2413.0</ele>
        <time>2015-08-16T13:11:03Z</time>
      </trkpt>
      <trkpt lat="40.528883" lon="-5.170083">
        <ele>2413.0</ele>
        <time>2015-08-16T13:11:04Z</time>
      </trkpt>
      <trkpt lat="40.529000" lon="-5.170067">
        <ele>2413.0</ele>
        <time>2015-08-16T13:11:05Z</time>
      </trkpt>
      <trkpt lat="40.529117" lon="-5.170033">
        <ele>2413.0</ele>
        <time>2015-08-16T13:11:06Z</time>
      </trkpt>
      <trkpt lat="40.529233" lon="-5.169967">
        <ele>2416.0</ele>
        <time>2015-08-16T13:11:07Z</time>
      </trkpt>
      <trkpt lat="40.529333" lon="-5.169867">
        <ele>2420.0</ele>
        <time>2015-08-16T13:11:08Z</time>
      </trkpt>
      <trkpt lat="40.529417" lon="-5.169783">
        <ele>2423.0</ele>
        <time>2015-08-16T13:11:09Z</time>
      </trkpt>
      <trkpt lat="40.529500" lon="-5.169700">
        <ele>2426.0</ele>
        <time>2015-08-16T13:11:10Z</time>
      </trkpt>
      <trkpt lat="40.529583" lon="-5.169650">
        <ele>2429.0</ele>
        <time>2015-08-16T13:11:11Z</time>
      </trkpt>
      <trkpt lat="40.529667" lon="-5.169583">
        <ele>2431.0</ele>
        <time>2015-08-16T13:11:12Z</time>
      </trkpt>
      <trkpt lat="40.529733" lon="-5.169517">
        <ele>2432.0</ele>
        <time>2015-08-16T13:11:13Z</time>
      </trkpt>
      <trkpt lat="40.529800" lon="-5.169417">
        <ele>2433.0</ele>
        <time>2015-08-16T13:11:14Z</time>
      </trkpt>
      <trkpt lat="40.529833" lon="-5.169300">
        <ele>2431.0</ele>
        <time>2015-08-16T13:11:15Z</time>
      </trkpt>
      <trkpt lat="40.529850" lon="-5.169133">
        <ele>2431.0</ele>
        <time>2015-08-16T13:11:16Z</time>
      </trkpt>
      <trkpt lat="40.529833" lon="-5.168983">
        <ele>2431.0</ele>
        <time>2015-08-16T13:11:17Z</time>
      </trkpt>
      <trkpt lat="40.529783" lon="-5.168833">
        <ele>2431.0</ele>
        <time>2015-08-16T13:11:18Z</time>
      </trkpt>
      <trkpt lat="40.529700" lon="-5.168733">
        <ele>2433.0</ele>
        <time>2015-08-16T13:11:19Z</time>
      </trkpt>
      <trkpt lat="40.529600" lon="-5.168683">
        <ele>2435.0</ele>
        <time>2015-08-16T13:11:20Z</time>
      </trkpt>
      <trkpt lat="40.529517" lon="-5.168650">
        <ele>2438.0</ele>
        <time>2015-08-16T13:11:21Z</time>
      </trkpt>
      <trkpt lat="40.529433" lon="-5.168650">
        <ele>2439.0</ele>
        <time>2015-08-16T13:11:22Z</time>
      </trkpt>
      <trkpt lat="40.529350" lon="-5.168683">
        <ele>2441.0</ele>
        <time>2015-08-16T13:11:23Z</time>
      </trkpt>
      <trkpt lat="40.529267" lon="-5.168733">
        <ele>2442.0</ele>
        <time>2015-08-16T13:11:24Z</time>
      </trkpt>
      <trkpt lat="40.529217" lon="-5.168833">
        <ele>2443.0</ele>
        <time>2015-08-16T13:11:25Z</time>
      </trkpt>
      <trkpt lat="40.529183" lon="-5.168933">
        <ele>2445.0</ele>
        <time>2015-08-16T13:11:26Z</time>
      </trkpt>
      <trkpt lat="40.529183" lon="-5.169050">
        <ele>2447.0</ele>
        <time>2015-08-16T13:11:27Z</time>
      </trkpt>
      <trkpt lat="40.529217" lon="-5.169150">
        <ele>2449.0</ele>
        <time>2015-08-16T13:11:28Z</time>
      </trkpt>
      <trkpt lat="40.529283" lon="-5.169250">
        <ele>2450.0</ele>
        <time>2015-08-16T13:11:29Z</time>
      </trkpt>
      <trkpt lat="40.529367" lon="-5.169317">
        <ele>2451.0</ele>
        <time>2015-08-16T13:11:30Z</time>
      </trkpt>
      <trkpt lat="40.529483" lon="-5.169333">
        <ele>2453.0</ele>
        <time>2015-08-16T13:11:31Z</time>
      </trkpt>
      <trkpt lat="40.529600" lon="-5.169333">
        <ele>2454.0</ele>
        <time>2015-08-16T13:11:32Z</time>
      </trkpt>
      <trkpt lat="40.529700" lon="-5.169283">
        <ele>2455.0</ele>
        <time>2015-08-16T13:11:33Z</time>
      </trkpt>
      <trkpt lat="40.529817" lon="-5.169217">
        <ele>2457.0</ele>
        <time>2015-08-16T13:11:34Z</time>
      </trkpt>
      <trkpt lat="40.529900" lon="-5.169117">
        <ele>2459.0</ele>
        <time>2015-08-16T13:11:35Z</time>
      </trkpt>
      <trkpt lat="40.529950" lon="-5.169000">
        <ele>2461.0</ele>
        <time>2015-08-16T13:11:36Z</time>
      </trkpt>
      <trkpt lat="40.529983" lon="-5.168883">
        <ele>2461.0</ele>
        <time>2015-08-16T13:11:37Z</time>
      </trkpt>
      <trkpt lat="40.529967" lon="-5.168733">
        <ele>2461.0</ele>
        <time>2015-08-16T13:11:38Z</time>
      </trkpt>
      <trkpt lat="40.529917" lon="-5.168600">
        <ele>2461.0</ele>
        <time>2015-08-16T13:11:39Z</time>
      </trkpt>
      <trkpt lat="40.529850" lon="-5.168483">
        <ele>2462.0</ele>
        <time>2015-08-16T13:11:40Z</time>
      </trkpt>
      <trkpt lat="40.529733" lon="-5.168417">
        <ele>2463.0</ele>
        <time>2015-08-16T13:11:41Z</time>
      </trkpt>
      <trkpt lat="40.529633" lon="-5.168400">
        <ele>2465.0</ele>
        <time>2015-08-16T13:11:42Z</time>
      </trkpt>
      <trkpt lat="40.529533" lon="-5.168433">
        <ele>2468.0</ele>
        <time>2015-08-16T13:11:43Z</time>
      </trkpt>
      <trkpt lat="40.529467" lon="-5.168500">
        <ele>2471.0</ele>
        <time>2015-08-16T13:11:44Z</time>
      </trkpt>
      <trkpt lat="40.529433" lon="-5.168583">
        <ele>2474.0</ele>
        <time>2015-08-16T13:11:45Z</time>
      </trkpt>
      <trkpt lat="40.529417" lon="-5.168667">
        <ele>2475.0</ele>
        <time>2015-08-16T13:11:46Z</time>
      </trkpt>
      <trkpt lat="40.529417" lon="-5.168767">
        <ele>2475.0</ele>
        <time>2015-08-16T13:11:47Z</time>
      </trkpt>
      <trkpt lat="40.529450" lon="-5.168867">
        <ele>2475.0</ele>
        <time>2015-08-16T13:11:48Z</time>
      </trkpt>
      <trkpt lat="40.529500" lon="-5.168983">
        <ele>2474.0</ele>
        <time>2015-08-16T13:11:49Z</time>
      </trkpt>
      <trkpt lat="40.529583" lon="-5.169067">
        <ele>2474.0</ele>
        <time>2015-08-16T13:11:50Z</time>
      </trkpt>
      <trkpt lat="40.529683" lon="-5.169133">
        <ele>2474.0</ele>
        <time>2015-08-16T13:11:51Z</time>
      </trkpt>
      <trkpt lat="40.529783" lon="-5.169167">
        <ele>2475.0</ele>
        <time>2015-08-16T13:11:52Z</time>
      </trkpt>
      <trkpt lat="40.529900" lon="-5.169167">
        <ele>2475.0</ele>
        <time>2015-08-16T13:11:53Z</time>
      </trkpt>
      <trkpt lat="40.530017" lon="-5.169150">
        <ele>2476.0</ele>
        <time>2015-08-16T13:11:54Z</time>
      </trkpt>
      <trkpt lat="40.530117" lon="-5.169117">
        <ele>2477.0</ele>
        <time>2015-08-16T13:11:55Z</time>
      </trkpt>
      <trkpt lat="40.530217" lon="-5.169067">
        <ele>2478.0</ele>
        <time>2015-08-16T13:11:56Z</time>
      </trkpt>
      <trkpt lat="40.530317" lon="-5.169000">
        <ele>2479.0</ele>
        <time>2015-08-16T13:11:57Z</time>
      </trkpt>
      <trkpt lat="40.530400" lon="-5.168917">
        <ele>2480.0</ele>
        <time>2015-08-16T13:11:58Z</time>
      </trkpt>
      <trkpt lat="40.530450" lon="-5.168817">
        <ele>2480.0</ele>
        <time>2015-08-16T13:11:59Z</time>
      </trkpt>
      <trkpt lat="40.530467" lon="-5.168700">
        <ele>2479.0</ele>
        <time>2015-08-16T13:12:00Z</time>
      </trkpt>
      <trkpt lat="40.530467" lon="-5.168567">
        <ele>2478.0</ele>
        <time>2015-08-16T13:12:01Z</time>
      </trkpt>
      <trkpt lat="40.530450" lon="-5.168433">
        <ele>2477.0</ele>
        <time>2015-08-16T13:12:02Z</time>
      </trkpt>
      <trkpt lat="40.530400" lon="-5.168317">
        <ele>2478.0</ele>
        <time>2015-08-16T13:12:03Z</time>
      </trkpt>
      <trkpt lat="40.530333" lon="-5.168233">
        <ele>2479.0</ele>
        <time>2015-08-16T13:12:04Z</time>
      </trkpt>
      <trkpt lat="40.530250" lon="-5.168167">
        <ele>2480.0</ele>
        <time>2015-08-16T13:12:05Z</time>
      </trkpt>
      <trkpt lat="40.530150" lon="-5.168133">
        <ele>2481.0</ele>
        <time>2015-08-16T13:12:06Z</time>
      </trkpt>
      <trkpt lat="40.530067" lon="-5.168133">
        <ele>2483.0</ele>
        <time>2015-08-16T13:12:07Z</time>
      </trkpt>
      <trkpt lat="40.529967" lon="-5.168167">
        <ele>2486.0</ele>
        <time>2015-08-16T13:12:08Z</time>
      </trkpt>
      <trkpt lat="40.529900" lon="-5.168200">
        <ele>2488.0</ele>
        <time>2015-08-16T13:12:09Z</time>
      </trkpt>
      <trkpt lat="40.529833" lon="-5.168250">
        <ele>2490.0</ele>
        <time>2015-08-16T13:12:10Z</time>
      </trkpt>
      <trkpt lat="40.529800" lon="-5.168317">
        <ele>2490.0</ele>
        <time>2015-08-16T13:12:11Z</time>
      </trkpt>
      <trkpt lat="40.529767" lon="-5.168400">
        <ele>2489.0</ele>
        <time>2015-08-16T13:12:12Z</time>
      </trkpt>
      <trkpt lat="40.529767" lon="-5.168517">
        <ele>2488.0</ele>
        <time>2015-08-16T13:12:13Z</time>
      </trkpt>
      <trkpt lat="40.529783" lon="-5.168633">
        <ele>2486.0</ele>
        <time>2015-08-16T13:12:14Z</time>
      </trkpt>
      <trkpt lat="40.529833" lon="-5.168750">
        <ele>2485.0</ele>
        <time>2015-08-16T13:12:15Z</time>
      </trkpt>
      <trkpt lat="40.529900" lon="-5.168850">
        <ele>2484.0</ele>
        <time>2015-08-16T13:12:16Z</time>
      </trkpt>
      <trkpt lat="40.529967" lon="-5.168933">
        <ele>2484.0</ele>
        <time>2015-08-16T13:12:17Z</time>
      </trkpt>
      <trkpt lat="40.530067" lon="-5.168983">
        <ele>2483.0</ele>
        <time>2015-08-16T13:12:18Z</time>
      </trkpt>
      <trkpt lat="40.530167" lon="-5.169000">
        <ele>2482.0</ele>
        <time>2015-08-16T13:12:19Z</time>
      </trkpt>
      <trkpt lat="40.530283" lon="-5.169000">
        <ele>2481.0</ele>
        <time>2015-08-16T13:12:20Z</time>
      </trkpt>
      <trkpt lat="40.530383" lon="-5.168967">
        <ele>2481.0</ele>
        <time>2015-08-16T13:12:21Z</time>
      </trkpt>
      <trkpt lat="40.530500" lon="-5.168917">
        <ele>2481.0</ele>
        <time>2015-08-16T13:12:22Z</time>
      </trkpt>
      <trkpt lat="40.530583" lon="-5.168850">
        <ele>2481.0</ele>
        <time>2015-08-16T13:12:23Z</time>
      </trkpt>
      <trkpt lat="40.530650" lon="-5.168750">
        <ele>2481.0</ele>
        <time>2015-08-16T13:12:24Z</time>
      </trkpt>
      <trkpt lat="40.530700" lon="-5.168667">
        <ele>2481.0</ele>
        <time>2015-08-16T13:12:25Z</time>
      </trkpt>
      <trkpt lat="40.530750" lon="-5.168567">
        <ele>2480.0</ele>
        <time>2015-08-16T13:12:26Z</time>
      </trkpt>
      <trkpt lat="40.530800" lon="-5.168467">
        <ele>2479.0</ele>
        <time>2015-08-16T13:12:27Z</time>
      </trkpt>
      <trkpt lat="40.530850" lon="-5.168333">
        <ele>2477.0</ele>
        <time>2015-08-16T13:12:28Z</time>
      </trkpt>
      <trkpt lat="40.530883" lon="-5.168167">
        <ele>2476.0</ele>
        <time>2015-08-16T13:12:29Z</time>
      </trkpt>
      <trkpt lat="40.530917" lon="-5.168000">
        <ele>2479.0</ele>
        <time>2015-08-16T13:12:30Z</time>
      </trkpt>
      <trkpt lat="40.530950" lon="-5.167867">
        <ele>2482.0</ele>
        <time>2015-08-16T13:12:31Z</time>
      </trkpt>
      <trkpt lat="40.530983" lon="-5.167733">
        <ele>2485.0</ele>
        <time>2015-08-16T13:12:32Z</time>
      </trkpt>
      <trkpt lat="40.531033" lon="-5.167633">
        <ele>2488.0</ele>
        <time>2015-08-16T13:12:33Z</time>
      </trkpt>
      <trkpt lat="40.531083" lon="-5.167533">
        <ele>2489.0</ele>
        <time>2015-08-16T13:12:34Z</time>
      </trkpt>
      <trkpt lat="40.531150" lon="-5.167450">
        <ele>2490.0</ele>
        <time>2015-08-16T13:12:35Z</time>
      </trkpt>
      <trkpt lat="40.531233" lon="-5.167350">
        <ele>2490.0</ele>
        <time>2015-08-16T13:12:36Z</time>
      </trkpt>
      <trkpt lat="40.531300" lon="-5.167233">
        <ele>2490.0</ele>
        <time>2015-08-16T13:12:37Z</time>
      </trkpt>
      <trkpt lat="40.531367" lon="-5.167100">
        <ele>2490.0</ele>
        <time>2015-08-16T13:12:38Z</time>
      </trkpt>
      <trkpt lat="40.531417" lon="-5.166950">
        <ele>2491.0</ele>
        <time>2015-08-16T13:12:39Z</time>
      </trkpt>
      <trkpt lat="40.531467" lon="-5.166800">
        <ele>2493.0</ele>
        <time>2015-08-16T13:12:40Z</time>
      </trkpt>
      <trkpt lat="40.531517" lon="-5.166667">
        <ele>2494.0</ele>
        <time>2015-08-16T13:12:41Z</time>
      </trkpt>
      <trkpt lat="40.531550" lon="-5.166517">
        <ele>2495.0</ele>
        <time>2015-08-16T13:12:42Z</time>
      </trkpt>
      <trkpt lat="40.531600" lon="-5.166383">
        <ele>2496.0</ele>
        <time>2015-08-16T13:12:43Z</time>
      </trkpt>
      <trkpt lat="40.531617" lon="-5.166233">
        <ele>2495.0</ele>
        <time>2015-08-16T13:12:44Z</time>
      </trkpt>
      <trkpt lat="40.531617" lon="-5.166100">
        <ele>2495.0</ele>
        <time>2015-08-16T13:12:45Z</time>
      </trkpt>
      <trkpt lat="40.531617" lon="-5.165950">
        <ele>2493.0</ele>
        <time>2015-08-16T13:12:46Z</time>
      </trkpt>
      <trkpt lat="40.531600" lon="-5.165783">
        <ele>2491.0</ele>
        <time>2015-08-16T13:12:47Z</time>
      </trkpt>
      <trkpt lat="40.531600" lon="-5.165600">
        <ele>2490.0</ele>
        <time>2015-08-16T13:12:48Z</time>
      </trkpt>
      <trkpt lat="40.531617" lon="-5.165417">
        <ele>2490.0</ele>
        <time>2015-08-16T13:12:49Z</time>
      </trkpt>
      <trkpt lat="40.531633" lon="-5.165267">
        <ele>2490.0</ele>
        <time>2015-08-16T13:12:50Z</time>
      </trkpt>
      <trkpt lat="40.531667" lon="-5.165117">
        <ele>2489.0</ele>
        <time>2015-08-16T13:12:51Z</time>
      </trkpt>
      <trkpt lat="40.531700" lon="-5.164967">
        <ele>2489.0</ele>
        <time>2015-08-16T13:12:52Z</time>
      </trkpt>
      <trkpt lat="40.531750" lon="-5.164817">
        <ele>2488.0</ele>
        <time>2015-08-16T13:12:53Z</time>
      </trkpt>
      <trkpt lat="40.531800" lon="-5.164667">
        <ele>2488.0</ele>
        <time>2015-08-16T13:12:54Z</time>
      </trkpt>
      <trkpt lat="40.531850" lon="-5.164517">
        <ele>2488.0</ele>
        <time>2015-08-16T13:12:55Z</time>
      </trkpt>
      <trkpt lat="40.531883" lon="-5.164383">
        <ele>2489.0</ele>
        <time>2015-08-16T13:12:56Z</time>
      </trkpt>
      <trkpt lat="40.531933" lon="-5.164267">
        <ele>2489.0</ele>
        <time>2015-08-16T13:12:57Z</time>
      </trkpt>
      <trkpt lat="40.531967" lon="-5.164150">
        <ele>2488.0</ele>
        <time>2015-08-16T13:12:58Z</time>
      </trkpt>
      <trkpt lat="40.532017" lon="-5.164033">
        <ele>2486.0</ele>
        <time>2015-08-16T13:12:59Z</time>
      </trkpt>
      <trkpt lat="40.532050" lon="-5.163917">
        <ele>2484.0</ele>
        <time>2015-08-16T13:13:00Z</time>
      </trkpt>
      <trkpt lat="40.532067" lon="-5.163783">
        <ele>2483.0</ele>
        <time>2015-08-16T13:13:01Z</time>
      </trkpt>
      <trkpt lat="40.532100" lon="-5.163650">
        <ele>2482.0</ele>
        <time>2015-08-16T13:13:02Z</time>
      </trkpt>
      <trkpt lat="40.532133" lon="-5.163533">
        <ele>2481.0</ele>
        <time>2015-08-16T13:13:03Z</time>
      </trkpt>
      <trkpt lat="40.532167" lon="-5.163417">
        <ele>2481.0</ele>
        <time>2015-08-16T13:13:04Z</time>
      </trkpt>
      <trkpt lat="40.532200" lon="-5.163300">
        <ele>2480.0</ele>
        <time>2015-08-16T13:13:05Z</time>
      </trkpt>
      <trkpt lat="40.532233" lon="-5.163200">
        <ele>2479.0</ele>
        <time>2015-08-16T13:13:06Z</time>
      </trkpt>
      <trkpt lat="40.532283" lon="-5.163100">
        <ele>2477.0</ele>
        <time>2015-08-16T13:13:07Z</time>
      </trkpt>
      <trkpt lat="40.532350" lon="-5.163000">
        <ele>2475.0</ele>
        <time>2015-08-16T13:13:08Z</time>
      </trkpt>
      <trkpt lat="40.532417" lon="-5.162900">
        <ele>2472.0</ele>
        <time>2015-08-16T13:13:09Z</time>
      </trkpt>
      <trkpt lat="40.532483" lon="-5.162800">
        <ele>2469.0</ele>
        <time>2015-08-16T13:13:10Z</time>
      </trkpt>
      <trkpt lat="40.532550" lon="-5.162683">
        <ele>2467.0</ele>
        <time>2015-08-16T13:13:11Z</time>
      </trkpt>
      <trkpt lat="40.532633" lon="-5.162583">
        <ele>2464.0</ele>
        <time>2015-08-16T13:13:12Z</time>
      </trkpt>
      <trkpt lat="40.532717" lon="-5.162467">
        <ele>2463.0</ele>
        <time>2015-08-16T13:13:13Z</time>
      </trkpt>
      <trkpt lat="40.532800" lon="-5.162383">
        <ele>2462.0</ele>
        <time>2015-08-16T13:13:14Z</time>
      </trkpt>
      <trkpt lat="40.532867" lon="-5.162300">
        <ele>2462.0</ele>
        <time>2015-08-16T13:13:15Z</time>
      </trkpt>
      <trkpt lat="40.532933" lon="-5.162217">
        <ele>2461.0</ele>
        <time>2015-08-16T13:13:16Z</time>
      </trkpt>
      <trkpt lat="40.533000" lon="-5.162133">
        <ele>2460.0</ele>
        <time>2015-08-16T13:13:17Z</time>
      </trkpt>
      <trkpt lat="40.533067" lon="-5.162033">
        <ele>2460.0</ele>
        <time>2015-08-16T13:13:18Z</time>
      </trkpt>
      <trkpt lat="40.533133" lon="-5.161950">
        <ele>2460.0</ele>
        <time>2015-08-16T13:13:19Z</time>
      </trkpt>
      <trkpt lat="40.533200" lon="-5.161850">
        <ele>2460.0</ele>
        <time>2015-08-16T13:13:20Z</time>
      </trkpt>
      <trkpt lat="40.533267" lon="-5.161767">
        <ele>2461.0</ele>
        <time>2015-08-16T13:13:21Z</time>
      </trkpt>
      <trkpt lat="40.533333" lon="-5.161667">
        <ele>2461.0</ele>
        <time>2015-08-16T13:13:22Z</time>
      </trkpt>
      <trkpt lat="40.533417" lon="-5.161567">
        <ele>2461.0</ele>
        <time>2015-08-16T13:13:23Z</time>
      </trkpt>
      <trkpt lat="40.533500" lon="-5.161467">
        <ele>2462.0</ele>
        <time>2015-08-16T13:13:24Z</time>
      </trkpt>
      <trkpt lat="40.533583" lon="-5.161367">
        <ele>2464.0</ele>
        <time>2015-08-16T13:13:25Z</time>
      </trkpt>
      <trkpt lat="40.533667" lon="-5.161283">
        <ele>2466.0</ele>
        <time>2015-08-16T13:13:26Z</time>
      </trkpt>
      <trkpt lat="40.533733" lon="-5.161183">
        <ele>2467.0</ele>
        <time>2015-08-16T13:13:27Z</time>
      </trkpt>
      <trkpt lat="40.533800" lon="-5.161100">
        <ele>2468.0</ele>
        <time>2015-08-16T13:13:28Z</time>
      </trkpt>
      <trkpt lat="40.533883" lon="-5.161000">
        <ele>2469.0</ele>
        <time>2015-08-16T13:13:29Z</time>
      </trkpt>
      <trkpt lat="40.533950" lon="-5.160900">
        <ele>2469.0</ele>
        <time>2015-08-16T13:13:30Z</time>
      </trkpt>
      <trkpt lat="40.534017" lon="-5.160783">
        <ele>2470.0</ele>
        <time>2015-08-16T13:13:31Z</time>
      </trkpt>
      <trkpt lat="40.534083" lon="-5.160683">
        <ele>2470.0</ele>
        <time>2015-08-16T13:13:32Z</time>
      </trkpt>
      <trkpt lat="40.534167" lon="-5.160550">
        <ele>2471.0</ele>
        <time>2015-08-16T13:13:33Z</time>
      </trkpt>
      <trkpt lat="40.534233" lon="-5.160433">
        <ele>2472.0</ele>
        <time>2015-08-16T13:13:34Z</time>
      </trkpt>
      <trkpt lat="40.534317" lon="-5.160317">
        <ele>2474.0</ele>
        <time>2015-08-16T13:13:35Z</time>
      </trkpt>
      <trkpt lat="40.534383" lon="-5.160200">
        <ele>2476.0</ele>
        <time>2015-08-16T13:13:36Z</time>
      </trkpt>
      <trkpt lat="40.534467" lon="-5.160100">
        <ele>2478.0</ele>
        <time>2015-08-16T13:13:37Z</time>
      </trkpt>
      <trkpt lat="40.534550" lon="-5.160017">
        <ele>2478.0</ele>
        <time>2015-08-16T13:13:38Z</time>
      </trkpt>
      <trkpt lat="40.534633" lon="-5.159917">
        <ele>2480.0</ele>
        <time>2015-08-16T13:13:39Z</time>
      </trkpt>
      <trkpt lat="40.534717" lon="-5.159800">
        <ele>2481.0</ele>
        <time>2015-08-16T13:13:40Z</time>
      </trkpt>
      <trkpt lat="40.534800" lon="-5.159667">
        <ele>2484.0</ele>
        <time>2015-08-16T13:13:41Z</time>
      </trkpt>
      <trkpt lat="40.534883" lon="-5.159550">
        <ele>2487.0</ele>
        <time>2015-08-16T13:13:42Z</time>
      </trkpt>
      <trkpt lat="40.534967" lon="-5.159433">
        <ele>2490.0</ele>
        <time>2015-08-16T13:13:43Z</time>
      </trkpt>
      <trkpt lat="40.535033" lon="-5.159333">
        <ele>2493.0</ele>
        <time>2015-08-16T13:13:44Z</time>
      </trkpt>
      <trkpt lat="40.535100" lon="-5.159200">
        <ele>2495.0</ele>
        <time>2015-08-16T13:13:45Z</time>
      </trkpt>
      <trkpt lat="40.535133" lon="-5.159067">
        <ele>2496.0</ele>
        <time>2015-08-16T13:13:46Z</time>
      </trkpt>
      <trkpt lat="40.535150" lon="-5.158900">
        <ele>2496.0</ele>
        <time>2015-08-16T13:13:47Z</time>
      </trkpt>
      <trkpt lat="40.535150" lon="-5.158733">
        <ele>2497.0</ele>
        <time>2015-08-16T13:13:48Z</time>
      </trkpt>
      <trkpt lat="40.535100" lon="-5.158583">
        <ele>2498.0</ele>
        <time>2015-08-16T13:13:49Z</time>
      </trkpt>
      <trkpt lat="40.535050" lon="-5.158467">
        <ele>2499.0</ele>
        <time>2015-08-16T13:13:50Z</time>
      </trkpt>
      <trkpt lat="40.534967" lon="-5.158400">
        <ele>2499.0</ele>
        <time>2015-08-16T13:13:51Z</time>
      </trkpt>
      <trkpt lat="40.534883" lon="-5.158367">
        <ele>2498.0</ele>
        <time>2015-08-16T13:13:52Z</time>
      </trkpt>
      <trkpt lat="40.534800" lon="-5.158383">
        <ele>2497.0</ele>
        <time>2015-08-16T13:13:53Z</time>
      </trkpt>
      <trkpt lat="40.534750" lon="-5.158417">
        <ele>2496.0</ele>
        <time>2015-08-16T13:13:54Z</time>
      </trkpt>
      <trkpt lat="40.534717" lon="-5.158483">
        <ele>2495.0</ele>
        <time>2015-08-16T13:13:55Z</time>
      </trkpt>
      <trkpt lat="40.534717" lon="-5.158567">
        <ele>2493.0</ele>
        <time>2015-08-16T13:13:56Z</time>
      </trkpt>
      <trkpt lat="40.534733" lon="-5.158650">
        <ele>2492.0</ele>
        <time>2015-08-16T13:13:57Z</time>
      </trkpt>
      <trkpt lat="40.534783" lon="-5.158733">
        <ele>2491.0</ele>
        <time>2015-08-16T13:13:58Z</time>
      </trkpt>
      <trkpt lat="40.534817" lon="-5.158817">
        <ele>2492.0</ele>
        <time>2015-08-16T13:13:59Z</time>
      </trkpt>
      <trkpt lat="40.534867" lon="-5.158917">
        <ele>2493.0</ele>
        <time>2015-08-16T13:14:00Z</time>
      </trkpt>
      <trkpt lat="40.534883" lon="-5.159000">
        <ele>2495.0</ele>
        <time>2015-08-16T13:14:01Z</time>
      </trkpt>
      <trkpt lat="40.534917" lon="-5.159100">
        <ele>2497.0</ele>
        <time>2015-08-16T13:14:02Z</time>
      </trkpt>
      <trkpt lat="40.534967" lon="-5.159183">
        <ele>2498.0</ele>
        <time>2015-08-16T13:14:03Z</time>
      </trkpt>
      <trkpt lat="40.535017" lon="-5.159250">
        <ele>2500.0</ele>
        <time>2015-08-16T13:14:04Z</time>
      </trkpt>
      <trkpt lat="40.535117" lon="-5.159300">
        <ele>2501.0</ele>
        <time>2015-08-16T13:14:05Z</time>
      </trkpt>
      <trkpt lat="40.535200" lon="-5.159300">
        <ele>2503.0</ele>
        <time>2015-08-16T13:14:06Z</time>
      </trkpt>
      <trkpt lat="40.535300" lon="-5.159283">
        <ele>2505.0</ele>
        <time>2015-08-16T13:14:07Z</time>
      </trkpt>
      <trkpt lat="40.535400" lon="-5.159233">
        <ele>2507.0</ele>
        <time>2015-08-16T13:14:08Z</time>
      </trkpt>
      <trkpt lat="40.535483" lon="-5.159117">
        <ele>2508.0</ele>
        <time>2015-08-16T13:14:09Z</time>
      </trkpt>
      <trkpt lat="40.535567" lon="-5.158967">
        <ele>2504.0</ele>
        <time>2015-08-16T13:14:10Z</time>
      </trkpt>
      <trkpt lat="40.535650" lon="-5.158817">
        <ele>2504.0</ele>
        <time>2015-08-16T13:14:11Z</time>
      </trkpt>
      <trkpt lat="40.535700" lon="-5.158650">
        <ele>2504.0</ele>
        <time>2015-08-16T13:14:12Z</time>
      </trkpt>
      <trkpt lat="40.535733" lon="-5.158483">
        <ele>2504.0</ele>
        <time>2015-08-16T13:14:13Z</time>
      </trkpt>
      <trkpt lat="40.535733" lon="-5.158317">
        <ele>2505.0</ele>
        <time>2015-08-16T13:14:14Z</time>
      </trkpt>
      <trkpt lat="40.535700" lon="-5.158150">
        <ele>2506.0</ele>
        <time>2015-08-16T13:14:15Z</time>
      </trkpt>
      <trkpt lat="40.535667" lon="-5.158017">
        <ele>2508.0</ele>
        <time>2015-08-16T13:14:16Z</time>
      </trkpt>
      <trkpt lat="40.535600" lon="-5.157900">
        <ele>2509.0</ele>
        <time>2015-08-16T13:14:17Z</time>
      </trkpt>
      <trkpt lat="40.535517" lon="-5.157833">
        <ele>2510.0</ele>
        <time>2015-08-16T13:14:18Z</time>
      </trkpt>
      <trkpt lat="40.535433" lon="-5.157800">
        <ele>2510.0</ele>
        <time>2015-08-16T13:14:19Z</time>
      </trkpt>
      <trkpt lat="40.535350" lon="-5.157817">
        <ele>2510.0</ele>
        <time>2015-08-16T13:14:20Z</time>
      </trkpt>
      <trkpt lat="40.535300" lon="-5.157883">
        <ele>2510.0</ele>
        <time>2015-08-16T13:14:21Z</time>
      </trkpt>
      <trkpt lat="40.535267" lon="-5.157983">
        <ele>2511.0</ele>
        <time>2015-08-16T13:14:22Z</time>
      </trkpt>
      <trkpt lat="40.535267" lon="-5.158083">
        <ele>2514.0</ele>
        <time>2015-08-16T13:14:23Z</time>
      </trkpt>
      <trkpt lat="40.535283" lon="-5.158183">
        <ele>2516.0</ele>
        <time>2015-08-16T13:14:24Z</time>
      </trkpt>
      <trkpt lat="40.535333" lon="-5.158267">
        <ele>2519.0</ele>
        <time>2015-08-16T13:14:25Z</time>
      </trkpt>
      <trkpt lat="40.535383" lon="-5.158333">
        <ele>2520.0</ele>
        <time>2015-08-16T13:14:26Z</time>
      </trkpt>
      <trkpt lat="40.535450" lon="-5.158367">
        <ele>2520.0</ele>
        <time>2015-08-16T13:14:27Z</time>
      </trkpt>
      <trkpt lat="40.535550" lon="-5.158383">
        <ele>2520.0</ele>
        <time>2015-08-16T13:14:28Z</time>
      </trkpt>
      <trkpt lat="40.535650" lon="-5.158367">
        <ele>2521.0</ele>
        <time>2015-08-16T13:14:29Z</time>
      </trkpt>
      <trkpt lat="40.535750" lon="-5.158317">
        <ele>2522.0</ele>
        <time>2015-08-16T13:14:30Z</time>
      </trkpt>
      <trkpt lat="40.535867" lon="-5.158250">
        <ele>2523.0</ele>
        <time>2015-08-16T13:14:31Z</time>
      </trkpt>
      <trkpt lat="40.535950" lon="-5.158150">
        <ele>2523.0</ele>
        <time>2015-08-16T13:14:32Z</time>
      </trkpt>
      <trkpt lat="40.536050" lon="-5.158033">
        <ele>2523.0</ele>
        <time>2015-08-16T13:14:33Z</time>
      </trkpt>
      <trkpt lat="40.536117" lon="-5.157867">
        <ele>2522.0</ele>
        <time>2015-08-16T13:14:34Z</time>
      </trkpt>
      <trkpt lat="40.536150" lon="-5.157700">
        <ele>2521.0</ele>
        <time>2015-08-16T13:14:35Z</time>
      </trkpt>
      <trkpt lat="40.536150" lon="-5.157500">
        <ele>2521.0</ele>
        <time>2015-08-16T13:14:36Z</time>
      </trkpt>
      <trkpt lat="40.536117" lon="-5.157333">
        <ele>2522.0</ele>
        <time>2015-08-16T13:14:37Z</time>
      </trkpt>
      <trkpt lat="40.536067" lon="-5.157217">
        <ele>2523.0</ele>
        <time>2015-08-16T13:14:38Z</time>
      </trkpt>
      <trkpt lat="40.535983" lon="-5.157117">
        <ele>2525.0</ele>
        <time>2015-08-16T13:14:39Z</time>
      </trkpt>
      <trkpt lat="40.535900" lon="-5.157083">
        <ele>2525.0</ele>
        <time>2015-08-16T13:14:40Z</time>
      </trkpt>
      <trkpt lat="40.535833" lon="-5.157100">
        <ele>2526.0</ele>
        <time>2015-08-16T13:14:41Z</time>
      </trkpt>
      <trkpt lat="40.535750" lon="-5.157133">
        <ele>2526.0</ele>
        <time>2015-08-16T13:14:42Z</time>
      </trkpt>
      <trkpt lat="40.535700" lon="-5.157200">
        <ele>2527.0</ele>
        <time>2015-08-16T13:14:43Z</time>
      </trkpt>
      <trkpt lat="40.535683" lon="-5.157300">
        <ele>2528.0</ele>
        <time>2015-08-16T13:14:44Z</time>
      </trkpt>
      <trkpt lat="40.535683" lon="-5.157400">
        <ele>2528.0</ele>
        <time>2015-08-16T13:14:45Z</time>
      </trkpt>
      <trkpt lat="40.535717" lon="-5.157483">
        <ele>2529.0</ele>
        <time>2015-08-16T13:14:46Z</time>
      </trkpt>
      <trkpt lat="40.535750" lon="-5.157567">
        <ele>2530.0</ele>
        <time>2015-08-16T13:14:47Z</time>
      </trkpt>
      <trkpt lat="40.535817" lon="-5.157633">
        <ele>2532.0</ele>
        <time>2015-08-16T13:14:48Z</time>
      </trkpt>
      <trkpt lat="40.535883" lon="-5.157667">
        <ele>2533.0</ele>
        <time>2015-08-16T13:14:49Z</time>
      </trkpt>
      <trkpt lat="40.535967" lon="-5.157683">
        <ele>2535.0</ele>
        <time>2015-08-16T13:14:50Z</time>
      </trkpt>
      <trkpt lat="40.536050" lon="-5.157667">
        <ele>2535.0</ele>
        <time>2015-08-16T13:14:51Z</time>
      </trkpt>
      <trkpt lat="40.536150" lon="-5.157650">
        <ele>2535.0</ele>
        <time>2015-08-16T13:14:52Z</time>
      </trkpt>
      <trkpt lat="40.536250" lon="-5.157600">
        <ele>2534.0</ele>
        <time>2015-08-16T13:14:53Z</time>
      </trkpt>
      <trkpt lat="40.536350" lon="-5.157533">
        <ele>2533.0</ele>
        <time>2015-08-16T13:14:54Z</time>
      </trkpt>
      <trkpt lat="40.536450" lon="-5.157417">
        <ele>2533.0</ele>
        <time>2015-08-16T13:14:55Z</time>
      </trkpt>
      <trkpt lat="40.536550" lon="-5.157300">
        <ele>2533.0</ele>
        <time>2015-08-16T13:14:56Z</time>
      </trkpt>
      <trkpt lat="40.536633" lon="-5.157150">
        <ele>2533.0</ele>
        <time>2015-08-16T13:14:57Z</time>
      </trkpt>
      <trkpt lat="40.536700" lon="-5.157017">
        <ele>2533.0</ele>
        <time>2015-08-16T13:14:58Z</time>
      </trkpt>
      <trkpt lat="40.536767" lon="-5.156867">
        <ele>2532.0</ele>
        <time>2015-08-16T13:14:59Z</time>
      </trkpt>
      <trkpt lat="40.536850" lon="-5.156700">
        <ele>2532.0</ele>
        <time>2015-08-16T13:15:00Z</time>
      </trkpt>
      <trkpt lat="40.536917" lon="-5.156550">
        <ele>2531.0</ele>
        <time>2015-08-16T13:15:01Z</time>
      </trkpt>
      <trkpt lat="40.537000" lon="-5.156383">
        <ele>2530.0</ele>
        <time>2015-08-16T13:15:02Z</time>
      </trkpt>
      <trkpt lat="40.537083" lon="-5.156217">
        <ele>2529.0</ele>
        <time>2015-08-16T13:15:03Z</time>
      </trkpt>
      <trkpt lat="40.537150" lon="-5.156050">
        <ele>2529.0</ele>
        <time>2015-08-16T13:15:04Z</time>
      </trkpt>
      <trkpt lat="40.537233" lon="-5.155900">
        <ele>2529.0</ele>
        <time>2015-08-16T13:15:05Z</time>
      </trkpt>
      <trkpt lat="40.537300" lon="-5.155750">
        <ele>2528.0</ele>
        <time>2015-08-16T13:15:06Z</time>
      </trkpt>
      <trkpt lat="40.537367" lon="-5.155600">
        <ele>2528.0</ele>
        <time>2015-08-16T13:15:07Z</time>
      </trkpt>
      <trkpt lat="40.537433" lon="-5.155450">
        <ele>2527.0</ele>
        <time>2015-08-16T13:15:08Z</time>
      </trkpt>
      <trkpt lat="40.537483" lon="-5.155283">
        <ele>2525.0</ele>
        <time>2015-08-16T13:15:09Z</time>
      </trkpt>
      <trkpt lat="40.537550" lon="-5.155117">
        <ele>2523.0</ele>
        <time>2015-08-16T13:15:10Z</time>
      </trkpt>
      <trkpt lat="40.537600" lon="-5.154950">
        <ele>2522.0</ele>
        <time>2015-08-16T13:15:11Z</time>
      </trkpt>
      <trkpt lat="40.537650" lon="-5.154800">
        <ele>2520.0</ele>
        <time>2015-08-16T13:15:12Z</time>
      </trkpt>
      <trkpt lat="40.537700" lon="-5.154650">
        <ele>2518.0</ele>
        <time>2015-08-16T13:15:13Z</time>
      </trkpt>
      <trkpt lat="40.537767" lon="-5.154517">
        <ele>2515.0</ele>
        <time>2015-08-16T13:15:14Z</time>
      </trkpt>
      <trkpt lat="40.537850" lon="-5.154383">
        <ele>2512.0</ele>
        <time>2015-08-16T13:15:15Z</time>
      </trkpt>
      <trkpt lat="40.537933" lon="-5.154233">
        <ele>2510.0</ele>
        <time>2015-08-16T13:15:16Z</time>
      </trkpt>
      <trkpt lat="40.538017" lon="-5.154100">
        <ele>2508.0</ele>
        <time>2015-08-16T13:15:17Z</time>
      </trkpt>
      <trkpt lat="40.538100" lon="-5.153950">
        <ele>2506.0</ele>
        <time>2015-08-16T13:15:18Z</time>
      </trkpt>
      <trkpt lat="40.538167" lon="-5.153817">
        <ele>2504.0</ele>
        <time>2015-08-16T13:15:19Z</time>
      </trkpt>
      <trkpt lat="40.538217" lon="-5.153667">
        <ele>2501.0</ele>
        <time>2015-08-16T13:15:20Z</time>
      </trkpt>
      <trkpt lat="40.538283" lon="-5.153500">
        <ele>2499.0</ele>
        <time>2015-08-16T13:15:21Z</time>
      </trkpt>
      <trkpt lat="40.538350" lon="-5.153350">
        <ele>2497.0</ele>
        <time>2015-08-16T13:15:22Z</time>
      </trkpt>
      <trkpt lat="40.538417" lon="-5.153200">
        <ele>2495.0</ele>
        <time>2015-08-16T13:15:23Z</time>
      </trkpt>
      <trkpt lat="40.538483" lon="-5.153050">
        <ele>2493.0</ele>
        <time>2015-08-16T13:15:24Z</time>
      </trkpt>
      <trkpt lat="40.538550" lon="-5.152883">
        <ele>2491.0</ele>
        <time>2015-08-16T13:15:25Z</time>
      </trkpt>
      <trkpt lat="40.538600" lon="-5.152717">
        <ele>2489.0</ele>
        <time>2015-08-16T13:15:26Z</time>
      </trkpt>
      <trkpt lat="40.538650" lon="-5.152550">
        <ele>2487.0</ele>
        <time>2015-08-16T13:15:27Z</time>
      </trkpt>
      <trkpt lat="40.538700" lon="-5.152400">
        <ele>2485.0</ele>
        <time>2015-08-16T13:15:28Z</time>
      </trkpt>
      <trkpt lat="40.538767" lon="-5.152233">
        <ele>2483.0</ele>
        <time>2015-08-16T13:15:29Z</time>
      </trkpt>
      <trkpt lat="40.538833" lon="-5.152067">
        <ele>2481.0</ele>
        <time>2015-08-16T13:15:30Z</time>
      </trkpt>
      <trkpt lat="40.538900" lon="-5.151900">
        <ele>2479.0</ele>
        <time>2015-08-16T13:15:31Z</time>
      </trkpt>
      <trkpt lat="40.538950" lon="-5.151750">
        <ele>2477.0</ele>
        <time>2015-08-16T13:15:32Z</time>
      </trkpt>
      <trkpt lat="40.539000" lon="-5.151583">
        <ele>2475.0</ele>
        <time>2015-08-16T13:15:33Z</time>
      </trkpt>
      <trkpt lat="40.539067" lon="-5.151433">
        <ele>2472.0</ele>
        <time>2015-08-16T13:15:34Z</time>
      </trkpt>
      <trkpt lat="40.539133" lon="-5.151283">
        <ele>2470.0</ele>
        <time>2015-08-16T13:15:35Z</time>
      </trkpt>
      <trkpt lat="40.539200" lon="-5.151133">
        <ele>2468.0</ele>
        <time>2015-08-16T13:15:36Z</time>
      </trkpt>
      <trkpt lat="40.539267" lon="-5.150983">
        <ele>2466.0</ele>
        <time>2015-08-16T13:15:37Z</time>
      </trkpt>
      <trkpt lat="40.539333" lon="-5.150833">
        <ele>2463.0</ele>
        <time>2015-08-16T13:15:38Z</time>
      </trkpt>
      <trkpt lat="40.539400" lon="-5.150667">
        <ele>2460.0</ele>
        <time>2015-08-16T13:15:39Z</time>
      </trkpt>
      <trkpt lat="40.539467" lon="-5.150517">
        <ele>2457.0</ele>
        <time>2015-08-16T13:15:40Z</time>
      </trkpt>
      <trkpt lat="40.539533" lon="-5.150383">
        <ele>2455.0</ele>
        <time>2015-08-16T13:15:41Z</time>
      </trkpt>
      <trkpt lat="40.539600" lon="-5.150217">
        <ele>2452.0</ele>
        <time>2015-08-16T13:15:42Z</time>
      </trkpt>
      <trkpt lat="40.539667" lon="-5.150067">
        <ele>2449.0</ele>
        <time>2015-08-16T13:15:43Z</time>
      </trkpt>
      <trkpt lat="40.539717" lon="-5.149900">
        <ele>2446.0</ele>
        <time>2015-08-16T13:15:44Z</time>
      </trkpt>
      <trkpt lat="40.539783" lon="-5.149750">
        <ele>2443.0</ele>
        <time>2015-08-16T13:15:45Z</time>
      </trkpt>
      <trkpt lat="40.539850" lon="-5.149583">
        <ele>2440.0</ele>
        <time>2015-08-16T13:15:46Z</time>
      </trkpt>
      <trkpt lat="40.539917" lon="-5.149433">
        <ele>2438.0</ele>
        <time>2015-08-16T13:15:47Z</time>
      </trkpt>
      <trkpt lat="40.539983" lon="-5.149267">
        <ele>2436.0</ele>
        <time>2015-08-16T13:15:48Z</time>
      </trkpt>
      <trkpt lat="40.540050" lon="-5.149133">
        <ele>2434.0</ele>
        <time>2015-08-16T13:15:49Z</time>
      </trkpt>
      <trkpt lat="40.540100" lon="-5.148983">
        <ele>2433.0</ele>
        <time>2015-08-16T13:15:50Z</time>
      </trkpt>
      <trkpt lat="40.540167" lon="-5.148850">
        <ele>2430.0</ele>
        <time>2015-08-16T13:15:51Z</time>
      </trkpt>
      <trkpt lat="40.540217" lon="-5.148700">
        <ele>2427.0</ele>
        <time>2015-08-16T13:15:52Z</time>
      </trkpt>
      <trkpt lat="40.540283" lon="-5.148533">
        <ele>2423.0</ele>
        <time>2015-08-16T13:15:53Z</time>
      </trkpt>
      <trkpt lat="40.540333" lon="-5.148367">
        <ele>2420.0</ele>
        <time>2015-08-16T13:15:54Z</time>
      </trkpt>
      <trkpt lat="40.540383" lon="-5.148200">
        <ele>2417.0</ele>
        <time>2015-08-16T13:15:55Z</time>
      </trkpt>
      <trkpt lat="40.540417" lon="-5.148033">
        <ele>2414.0</ele>
        <time>2015-08-16T13:15:56Z</time>
      </trkpt>
      <trkpt lat="40.540450" lon="-5.147850">
        <ele>2412.0</ele>
        <time>2015-08-16T13:15:57Z</time>
      </trkpt>
      <trkpt lat="40.540483" lon="-5.147683">
        <ele>2409.0</ele>
        <time>2015-08-16T13:15:58Z</time>
      </trkpt>
      <trkpt lat="40.540517" lon="-5.147533">
        <ele>2407.0</ele>
        <time>2015-08-16T13:15:59Z</time>
      </trkpt>
      <trkpt lat="40.540567" lon="-5.147383">
        <ele>2406.0</ele>
        <time>2015-08-16T13:16:00Z</time>
      </trkpt>
      <trkpt lat="40.540600" lon="-5.147233">
        <ele>2404.0</ele>
        <time>2015-08-16T13:16:01Z</time>
      </trkpt>
      <trkpt lat="40.540633" lon="-5.147083">
        <ele>2401.0</ele>
        <time>2015-08-16T13:16:02Z</time>
      </trkpt>
      <trkpt lat="40.540667" lon="-5.146933">
        <ele>2398.0</ele>
        <time>2015-08-16T13:16:03Z</time>
      </trkpt>
      <trkpt lat="40.540700" lon="-5.146783">
        <ele>2395.0</ele>
        <time>2015-08-16T13:16:04Z</time>
      </trkpt>
      <trkpt lat="40.540733" lon="-5.146633">
        <ele>2391.0</ele>
        <time>2015-08-16T13:16:05Z</time>
      </trkpt>
      <trkpt lat="40.540750" lon="-5.146467">
        <ele>2388.0</ele>
        <time>2015-08-16T13:16:06Z</time>
      </trkpt>
      <trkpt lat="40.540767" lon="-5.146300">
        <ele>2385.0</ele>
        <time>2015-08-16T13:16:07Z</time>
      </trkpt>
      <trkpt lat="40.540783" lon="-5.146133">
        <ele>2382.0</ele>
        <time>2015-08-16T13:16:08Z</time>
      </trkpt>
      <trkpt lat="40.540817" lon="-5.145967">
        <ele>2379.0</ele>
        <time>2015-08-16T13:16:09Z</time>
      </trkpt>
      <trkpt lat="40.540850" lon="-5.145800">
        <ele>2376.0</ele>
        <time>2015-08-16T13:16:10Z</time>
      </trkpt>
      <trkpt lat="40.540867" lon="-5.145633">
        <ele>2373.0</ele>
        <time>2015-08-16T13:16:11Z</time>
      </trkpt>
      <trkpt lat="40.540900" lon="-5.145467">
        <ele>2370.0</ele>
        <time>2015-08-16T13:16:12Z</time>
      </trkpt>
      <trkpt lat="40.540933" lon="-5.145283">
        <ele>2367.0</ele>
        <time>2015-08-16T13:16:13Z</time>
      </trkpt>
      <trkpt lat="40.540950" lon="-5.145117">
        <ele>2365.0</ele>
        <time>2015-08-16T13:16:14Z</time>
      </trkpt>
      <trkpt lat="40.540967" lon="-5.144967">
        <ele>2363.0</ele>
        <time>2015-08-16T13:16:15Z</time>
      </trkpt>
      <trkpt lat="40.541000" lon="-5.144800">
        <ele>2361.0</ele>
        <time>2015-08-16T13:16:16Z</time>
      </trkpt>
      <trkpt lat="40.541033" lon="-5.144650">
        <ele>2358.0</ele>
        <time>2015-08-16T13:16:17Z</time>
      </trkpt>
      <trkpt lat="40.541067" lon="-5.144500">
        <ele>2356.0</ele>
        <time>2015-08-16T13:16:18Z</time>
      </trkpt>
      <trkpt lat="40.541117" lon="-5.144350">
        <ele>2354.0</ele>
        <time>2015-08-16T13:16:19Z</time>
      </trkpt>
      <trkpt lat="40.541150" lon="-5.144200">
        <ele>2351.0</ele>
        <time>2015-08-16T13:16:20Z</time>
      </trkpt>
      <trkpt lat="40.541183" lon="-5.144033">
        <ele>2348.0</ele>
        <time>2015-08-16T13:16:21Z</time>
      </trkpt>
      <trkpt lat="40.541200" lon="-5.143883">
        <ele>2345.0</ele>
        <time>2015-08-16T13:16:22Z</time>
      </trkpt>
      <trkpt lat="40.541233" lon="-5.143717">
        <ele>2343.0</ele>
        <time>2015-08-16T13:16:23Z</time>
      </trkpt>
      <trkpt lat="40.541250" lon="-5.143550">
        <ele>2341.0</ele>
        <time>2015-08-16T13:16:24Z</time>
      </trkpt>
      <trkpt lat="40.541267" lon="-5.143400">
        <ele>2339.0</ele>
        <time>2015-08-16T13:16:25Z</time>
      </trkpt>
      <trkpt lat="40.541283" lon="-5.143250">
        <ele>2338.0</ele>
        <time>2015-08-16T13:16:26Z</time>
      </trkpt>
      <trkpt lat="40.541317" lon="-5.143100">
        <ele>2336.0</ele>
        <time>2015-08-16T13:16:27Z</time>
      </trkpt>
      <trkpt lat="40.541350" lon="-5.142950">
        <ele>2335.0</ele>
        <time>2015-08-16T13:16:28Z</time>
      </trkpt>
      <trkpt lat="40.541383" lon="-5.142800">
        <ele>2333.0</ele>
        <time>2015-08-16T13:16:29Z</time>
      </trkpt>
      <trkpt lat="40.541433" lon="-5.142650">
        <ele>2331.0</ele>
        <time>2015-08-16T13:16:30Z</time>
      </trkpt>
      <trkpt lat="40.541483" lon="-5.142500">
        <ele>2330.0</ele>
        <time>2015-08-16T13:16:31Z</time>
      </trkpt>
      <trkpt lat="40.541517" lon="-5.142333">
        <ele>2328.0</ele>
        <time>2015-08-16T13:16:32Z</time>
      </trkpt>
      <trkpt lat="40.541567" lon="-5.142167">
        <ele>2326.0</ele>
        <time>2015-08-16T13:16:33Z</time>
      </trkpt>
      <trkpt lat="40.541600" lon="-5.142000">
        <ele>2325.0</ele>
        <time>2015-08-16T13:16:34Z</time>
      </trkpt>
      <trkpt lat="40.541650" lon="-5.141833">
        <ele>2323.0</ele>
        <time>2015-08-16T13:16:35Z</time>
      </trkpt>
      <trkpt lat="40.541667" lon="-5.141667">
        <ele>2321.0</ele>
        <time>2015-08-16T13:16:36Z</time>
      </trkpt>
      <trkpt lat="40.541700" lon="-5.141517">
        <ele>2319.0</ele>
        <time>2015-08-16T13:16:37Z</time>
      </trkpt>
      <trkpt lat="40.541717" lon="-5.141333">
        <ele>2316.0</ele>
        <time>2015-08-16T13:16:38Z</time>
      </trkpt>
      <trkpt lat="40.541733" lon="-5.141150">
        <ele>2313.0</ele>
        <time>2015-08-16T13:16:39Z</time>
      </trkpt>
      <trkpt lat="40.541750" lon="-5.140967">
        <ele>2310.0</ele>
        <time>2015-08-16T13:16:40Z</time>
      </trkpt>
      <trkpt lat="40.541783" lon="-5.140767">
        <ele>2309.0</ele>
        <time>2015-08-16T13:16:41Z</time>
      </trkpt>
      <trkpt lat="40.541817" lon="-5.140600">
        <ele>2308.0</ele>
        <time>2015-08-16T13:16:42Z</time>
      </trkpt>
      <trkpt lat="40.541850" lon="-5.140417">
        <ele>2306.0</ele>
        <time>2015-08-16T13:16:43Z</time>
      </trkpt>
      <trkpt lat="40.541883" lon="-5.140250">
        <ele>2304.0</ele>
        <time>2015-08-16T13:16:44Z</time>
      </trkpt>
      <trkpt lat="40.541917" lon="-5.140083">
        <ele>2301.0</ele>
        <time>2015-08-16T13:16:45Z</time>
      </trkpt>
      <trkpt lat="40.541950" lon="-5.139917">
        <ele>2298.0</ele>
        <time>2015-08-16T13:16:46Z</time>
      </trkpt>
      <trkpt lat="40.542000" lon="-5.139750">
        <ele>2294.0</ele>
        <time>2015-08-16T13:16:47Z</time>
      </trkpt>
      <trkpt lat="40.542050" lon="-5.139583">
        <ele>2291.0</ele>
        <time>2015-08-16T13:16:48Z</time>
      </trkpt>
      <trkpt lat="40.542100" lon="-5.139433">
        <ele>2287.0</ele>
        <time>2015-08-16T13:16:49Z</time>
      </trkpt>
      <trkpt lat="40.542150" lon="-5.139267">
        <ele>2283.0</ele>
        <time>2015-08-16T13:16:50Z</time>
      </trkpt>
      <trkpt lat="40.542200" lon="-5.139100">
        <ele>2279.0</ele>
        <time>2015-08-16T13:16:51Z</time>
      </trkpt>
      <trkpt lat="40.542250" lon="-5.138917">
        <ele>2274.0</ele>
        <time>2015-08-16T13:16:52Z</time>
      </trkpt>
      <trkpt lat="40.542300" lon="-5.138733">
        <ele>2272.0</ele>
        <time>2015-08-16T13:16:53Z</time>
      </trkpt>
      <trkpt lat="40.542350" lon="-5.138567">
        <ele>2270.0</ele>
        <time>2015-08-16T13:16:54Z</time>
      </trkpt>
      <trkpt lat="40.542383" lon="-5.138400">
        <ele>2269.0</ele>
        <time>2015-08-16T13:16:55Z</time>
      </trkpt>
      <trkpt lat="40.542433" lon="-5.138250">
        <ele>2266.0</ele>
        <time>2015-08-16T13:16:56Z</time>
      </trkpt>
      <trkpt lat="40.542467" lon="-5.138133">
        <ele>2263.0</ele>
        <time>2015-08-16T13:16:57Z</time>
      </trkpt>
      <trkpt lat="40.542533" lon="-5.138017">
        <ele>2259.0</ele>
        <time>2015-08-16T13:16:58Z</time>
      </trkpt>
      <trkpt lat="40.542583" lon="-5.137900">
        <ele>2255.0</ele>
        <time>2015-08-16T13:16:59Z</time>
      </trkpt>
      <trkpt lat="40.542633" lon="-5.137783">
        <ele>2249.0</ele>
        <time>2015-08-16T13:17:00Z</time>
      </trkpt>
      <trkpt lat="40.542683" lon="-5.137633">
        <ele>2244.0</ele>
        <time>2015-08-16T13:17:01Z</time>
      </trkpt>
      <trkpt lat="40.542717" lon="-5.137483">
        <ele>2239.0</ele>
        <time>2015-08-16T13:17:02Z</time>
      </trkpt>
      <trkpt lat="40.542767" lon="-5.137317">
        <ele>2233.0</ele>
        <time>2015-08-16T13:17:03Z</time>
      </trkpt>
      <trkpt lat="40.542817" lon="-5.137150">
        <ele>2229.0</ele>
        <time>2015-08-16T13:17:04Z</time>
      </trkpt>
      <trkpt lat="40.542883" lon="-5.136967">
        <ele>2224.0</ele>
        <time>2015-08-16T13:17:05Z</time>
      </trkpt>
      <trkpt lat="40.542933" lon="-5.136783">
        <ele>2220.0</ele>
        <time>2015-08-16T13:17:06Z</time>
      </trkpt>
      <trkpt lat="40.543000" lon="-5.136600">
        <ele>2216.0</ele>
        <time>2015-08-16T13:17:07Z</time>
      </trkpt>
      <trkpt lat="40.543050" lon="-5.136400">
        <ele>2212.0</ele>
        <time>2015-08-16T13:17:08Z</time>
      </trkpt>
      <trkpt lat="40.543100" lon="-5.136200">
        <ele>2210.0</ele>
        <time>2015-08-16T13:17:09Z</time>
      </trkpt>
      <trkpt lat="40.543133" lon="-5.136017">
        <ele>2208.0</ele>
        <time>2015-08-16T13:17:10Z</time>
      </trkpt>
      <trkpt lat="40.543167" lon="-5.135850">
        <ele>2206.0</ele>
        <time>2015-08-16T13:17:11Z</time>
      </trkpt>
      <trkpt lat="40.543183" lon="-5.135717">
        <ele>2204.0</ele>
        <time>2015-08-16T13:17:12Z</time>
      </trkpt>
      <trkpt lat="40.543217" lon="-5.135567">
        <ele>2201.0</ele>
        <time>2015-08-16T13:17:13Z</time>
      </trkpt>
      <trkpt lat="40.543250" lon="-5.135400">
        <ele>2197.0</ele>
        <time>2015-08-16T13:17:14Z</time>
      </trkpt>
      <trkpt lat="40.543283" lon="-5.135233">
        <ele>2193.0</ele>
        <time>2015-08-16T13:17:15Z</time>
      </trkpt>
      <trkpt lat="40.543333" lon="-5.135067">
        <ele>2189.0</ele>
        <time>2015-08-16T13:17:16Z</time>
      </trkpt>
      <trkpt lat="40.543367" lon="-5.134900">
        <ele>2185.0</ele>
        <time>2015-08-16T13:17:17Z</time>
      </trkpt>
      <trkpt lat="40.543400" lon="-5.134750">
        <ele>2183.0</ele>
        <time>2015-08-16T13:17:18Z</time>
      </trkpt>
      <trkpt lat="40.543417" lon="-5.134583">
        <ele>2179.0</ele>
        <time>2015-08-16T13:17:19Z</time>
      </trkpt>
      <trkpt lat="40.543433" lon="-5.134433">
        <ele>2175.0</ele>
        <time>2015-08-16T13:17:20Z</time>
      </trkpt>
      <trkpt lat="40.543483" lon="-5.134267">
        <ele>2170.0</ele>
        <time>2015-08-16T13:17:21Z</time>
      </trkpt>
      <trkpt lat="40.543533" lon="-5.134100">
        <ele>2166.0</ele>
        <time>2015-08-16T13:17:22Z</time>
      </trkpt>
      <trkpt lat="40.543567" lon="-5.133917">
        <ele>2163.0</ele>
        <time>2015-08-16T13:17:23Z</time>
      </trkpt>
      <trkpt lat="40.543600" lon="-5.133733">
        <ele>2161.0</ele>
        <time>2015-08-16T13:17:24Z</time>
      </trkpt>
      <trkpt lat="40.543617" lon="-5.133567">
        <ele>2159.0</ele>
        <time>2015-08-16T13:17:25Z</time>
      </trkpt>
      <trkpt lat="40.543650" lon="-5.133400">
        <ele>2157.0</ele>
        <time>2015-08-16T13:17:26Z</time>
      </trkpt>
      <trkpt lat="40.543667" lon="-5.133233">
        <ele>2156.0</ele>
        <time>2015-08-16T13:17:27Z</time>
      </trkpt>
      <trkpt lat="40.543700" lon="-5.133083">
        <ele>2153.0</ele>
        <time>2015-08-16T13:17:28Z</time>
      </trkpt>
      <trkpt lat="40.543733" lon="-5.132933">
        <ele>2151.0</ele>
        <time>2015-08-16T13:17:29Z</time>
      </trkpt>
      <trkpt lat="40.543767" lon="-5.132783">
        <ele>2147.0</ele>
        <time>2015-08-16T13:17:30Z</time>
      </trkpt>
      <trkpt lat="40.543800" lon="-5.132633">
        <ele>2144.0</ele>
        <time>2015-08-16T13:17:31Z</time>
      </trkpt>
      <trkpt lat="40.543833" lon="-5.132467">
        <ele>2139.0</ele>
        <time>2015-08-16T13:17:32Z</time>
      </trkpt>
      <trkpt lat="40.543883" lon="-5.132300">
        <ele>2135.0</ele>
        <time>2015-08-16T13:17:33Z</time>
      </trkpt>
      <trkpt lat="40.543917" lon="-5.132133">
        <ele>2131.0</ele>
        <time>2015-08-16T13:17:34Z</time>
      </trkpt>
      <trkpt lat="40.543950" lon="-5.131967">
        <ele>2126.0</ele>
        <time>2015-08-16T13:17:35Z</time>
      </trkpt>
      <trkpt lat="40.543967" lon="-5.131800">
        <ele>2121.0</ele>
        <time>2015-08-16T13:17:36Z</time>
      </trkpt>
      <trkpt lat="40.543983" lon="-5.131633">
        <ele>2116.0</ele>
        <time>2015-08-16T13:17:37Z</time>
      </trkpt>
      <trkpt lat="40.544017" lon="-5.131450">
        <ele>2110.0</ele>
        <time>2015-08-16T13:17:38Z</time>
      </trkpt>
      <trkpt lat="40.544067" lon="-5.131267">
        <ele>2106.0</ele>
        <time>2015-08-16T13:17:39Z</time>
      </trkpt>
      <trkpt lat="40.544133" lon="-5.131100">
        <ele>2103.0</ele>
        <time>2015-08-16T13:17:40Z</time>
      </trkpt>
      <trkpt lat="40.544183" lon="-5.130933">
        <ele>2100.0</ele>
        <time>2015-08-16T13:17:41Z</time>
      </trkpt>
      <trkpt lat="40.544217" lon="-5.130750">
        <ele>2096.0</ele>
        <time>2015-08-16T13:17:42Z</time>
      </trkpt>
      <trkpt lat="40.544233" lon="-5.130567">
        <ele>2092.0</ele>
        <time>2015-08-16T13:17:43Z</time>
      </trkpt>
      <trkpt lat="40.544283" lon="-5.130383">
        <ele>2088.0</ele>
        <time>2015-08-16T13:17:44Z</time>
      </trkpt>
      <trkpt lat="40.544333" lon="-5.130200">
        <ele>2085.0</ele>
        <time>2015-08-16T13:17:45Z</time>
      </trkpt>
      <trkpt lat="40.544400" lon="-5.130033">
        <ele>2083.0</ele>
        <time>2015-08-16T13:17:46Z</time>
      </trkpt>
      <trkpt lat="40.544433" lon="-5.129867">
        <ele>2080.0</ele>
        <time>2015-08-16T13:17:47Z</time>
      </trkpt>
      <trkpt lat="40.544467" lon="-5.129700">
        <ele>2076.0</ele>
        <time>2015-08-16T13:17:48Z</time>
      </trkpt>
      <trkpt lat="40.544500" lon="-5.129517">
        <ele>2072.0</ele>
        <time>2015-08-16T13:17:49Z</time>
      </trkpt>
      <trkpt lat="40.544550" lon="-5.129317">
        <ele>2068.0</ele>
        <time>2015-08-16T13:17:50Z</time>
      </trkpt>
      <trkpt lat="40.544617" lon="-5.129133">
        <ele>2064.0</ele>
        <time>2015-08-16T13:17:51Z</time>
      </trkpt>
      <trkpt lat="40.544683" lon="-5.128950">
        <ele>2062.0</ele>
        <time>2015-08-16T13:17:52Z</time>
      </trkpt>
      <trkpt lat="40.544733" lon="-5.128783">
        <ele>2061.0</ele>
        <time>2015-08-16T13:17:53Z</time>
      </trkpt>
      <trkpt lat="40.544800" lon="-5.128617">
        <ele>2058.0</ele>
        <time>2015-08-16T13:17:54Z</time>
      </trkpt>
      <trkpt lat="40.544850" lon="-5.128450">
        <ele>2055.0</ele>
        <time>2015-08-16T13:17:55Z</time>
      </trkpt>
      <trkpt lat="40.544917" lon="-5.128283">
        <ele>2050.0</ele>
        <time>2015-08-16T13:17:56Z</time>
      </trkpt>
      <trkpt lat="40.544983" lon="-5.128083">
        <ele>2047.0</ele>
        <time>2015-08-16T13:17:57Z</time>
      </trkpt>
      <trkpt lat="40.545050" lon="-5.127883">
        <ele>2044.0</ele>
        <time>2015-08-16T13:17:58Z</time>
      </trkpt>
      <trkpt lat="40.545117" lon="-5.127667">
        <ele>2045.0</ele>
        <time>2015-08-16T13:17:59Z</time>
      </trkpt>
      <trkpt lat="40.545167" lon="-5.127483">
        <ele>2047.0</ele>
        <time>2015-08-16T13:18:00Z</time>
      </trkpt>
      <trkpt lat="40.545233" lon="-5.127300">
        <ele>2049.0</ele>
        <time>2015-08-16T13:18:01Z</time>
      </trkpt>
      <trkpt lat="40.545300" lon="-5.127167">
        <ele>2052.0</ele>
        <time>2015-08-16T13:18:02Z</time>
      </trkpt>
      <trkpt lat="40.545350" lon="-5.127033">
        <ele>2053.0</ele>
        <time>2015-08-16T13:18:03Z</time>
      </trkpt>
      <trkpt lat="40.545400" lon="-5.126900">
        <ele>2054.0</ele>
        <time>2015-08-16T13:18:04Z</time>
      </trkpt>
      <trkpt lat="40.545433" lon="-5.126767">
        <ele>2053.0</ele>
        <time>2015-08-16T13:18:05Z</time>
      </trkpt>
      <trkpt lat="40.545483" lon="-5.126617">
        <ele>2053.0</ele>
        <time>2015-08-16T13:18:06Z</time>
      </trkpt>
      <trkpt lat="40.545533" lon="-5.126483">
        <ele>2052.0</ele>
        <time>2015-08-16T13:18:07Z</time>
      </trkpt>
      <trkpt lat="40.545583" lon="-5.126350">
        <ele>2052.0</ele>
        <time>2015-08-16T13:18:08Z</time>
      </trkpt>
      <trkpt lat="40.545650" lon="-5.126233">
        <ele>2052.0</ele>
        <time>2015-08-16T13:18:09Z</time>
      </trkpt>
      <trkpt lat="40.545733" lon="-5.126100">
        <ele>2052.0</ele>
        <time>2015-08-16T13:18:10Z</time>
      </trkpt>
      <trkpt lat="40.545800" lon="-5.125983">
        <ele>2052.0</ele>
        <time>2015-08-16T13:18:11Z</time>
      </trkpt>
      <trkpt lat="40.545883" lon="-5.125867">
        <ele>2052.0</ele>
        <time>2015-08-16T13:18:12Z</time>
      </trkpt>
      <trkpt lat="40.545950" lon="-5.125750">
        <ele>2052.0</ele>
        <time>2015-08-16T13:18:13Z</time>
      </trkpt>
      <trkpt lat="40.546033" lon="-5.125633">
        <ele>2052.0</ele>
        <time>2015-08-16T13:18:14Z</time>
      </trkpt>
      <trkpt lat="40.546117" lon="-5.125517">
        <ele>2053.0</ele>
        <time>2015-08-16T13:18:15Z</time>
      </trkpt>
      <trkpt lat="40.546183" lon="-5.125417">
        <ele>2054.0</ele>
        <time>2015-08-16T13:18:16Z</time>
      </trkpt>
      <trkpt lat="40.546267" lon="-5.125300">
        <ele>2055.0</ele>
        <time>2015-08-16T13:18:17Z</time>
      </trkpt>
      <trkpt lat="40.546350" lon="-5.125217">
        <ele>2055.0</ele>
        <time>2015-08-16T13:18:18Z</time>
      </trkpt>
      <trkpt lat="40.546450" lon="-5.125133">
        <ele>2055.0</ele>
        <time>2015-08-16T13:18:19Z</time>
      </trkpt>
      <trkpt lat="40.546550" lon="-5.125083">
        <ele>2055.0</ele>
        <time>2015-08-16T13:18:20Z</time>
      </trkpt>
      <trkpt lat="40.546650" lon="-5.125050">
        <ele>2055.0</ele>
        <time>2015-08-16T13:18:21Z</time>
      </trkpt>
      <trkpt lat="40.546750" lon="-5.125083">
        <ele>2054.0</ele>
        <time>2015-08-16T13:18:22Z</time>
      </trkpt>
      <trkpt lat="40.546817" lon="-5.125133">
        <ele>2054.0</ele>
        <time>2015-08-16T13:18:23Z</time>
      </trkpt>
      <trkpt lat="40.546850" lon="-5.125217">
        <ele>2054.0</ele>
        <time>2015-08-16T13:18:24Z</time>
      </trkpt>
      <trkpt lat="40.546850" lon="-5.125300">
        <ele>2052.0</ele>
        <time>2015-08-16T13:18:25Z</time>
      </trkpt>
      <trkpt lat="40.546817" lon="-5.125367">
        <ele>2051.0</ele>
        <time>2015-08-16T13:18:26Z</time>
      </trkpt>
      <trkpt lat="40.546767" lon="-5.125417">
        <ele>2050.0</ele>
        <time>2015-08-16T13:18:27Z</time>
      </trkpt>
      <trkpt lat="40.546683" lon="-5.125433">
        <ele>2049.0</ele>
        <time>2015-08-16T13:18:28Z</time>
      </trkpt>
      <trkpt lat="40.546583" lon="-5.125417">
        <ele>2048.0</ele>
        <time>2015-08-16T13:18:29Z</time>
      </trkpt>
      <trkpt lat="40.546483" lon="-5.125350">
        <ele>2047.0</ele>
        <time>2015-08-16T13:18:30Z</time>
      </trkpt>
      <trkpt lat="40.546400" lon="-5.125233">
        <ele>2046.0</ele>
        <time>2015-08-16T13:18:31Z</time>
      </trkpt>
      <trkpt lat="40.546333" lon="-5.125117">
        <ele>2046.0</ele>
        <time>2015-08-16T13:18:32Z</time>
      </trkpt>
      <trkpt lat="40.546267" lon="-5.124967">
        <ele>2046.0</ele>
        <time>2015-08-16T13:18:33Z</time>
      </trkpt>
      <trkpt lat="40.546233" lon="-5.124817">
        <ele>2046.0</ele>
        <time>2015-08-16T13:18:34Z</time>
      </trkpt>
      <trkpt lat="40.546217" lon="-5.124667">
        <ele>2046.0</ele>
        <time>2015-08-16T13:18:35Z</time>
      </trkpt>
      <trkpt lat="40.546183" lon="-5.124500">
        <ele>2047.0</ele>
        <time>2015-08-16T13:18:36Z</time>
      </trkpt>
      <trkpt lat="40.546167" lon="-5.124350">
        <ele>2047.0</ele>
        <time>2015-08-16T13:18:37Z</time>
      </trkpt>
      <trkpt lat="40.546150" lon="-5.124183">
        <ele>2047.0</ele>
        <time>2015-08-16T13:18:38Z</time>
      </trkpt>
      <trkpt lat="40.546133" lon="-5.124033">
        <ele>2046.0</ele>
        <time>2015-08-16T13:18:39Z</time>
      </trkpt>
      <trkpt lat="40.546117" lon="-5.123883">
        <ele>2045.0</ele>
        <time>2015-08-16T13:18:40Z</time>
      </trkpt>
      <trkpt lat="40.546117" lon="-5.123733">
        <ele>2043.0</ele>
        <time>2015-08-16T13:18:41Z</time>
      </trkpt>
      <trkpt lat="40.546133" lon="-5.123567">
        <ele>2041.0</ele>
        <time>2015-08-16T13:18:42Z</time>
      </trkpt>
      <trkpt lat="40.546167" lon="-5.123383">
        <ele>2040.0</ele>
        <time>2015-08-16T13:18:43Z</time>
      </trkpt>
      <trkpt lat="40.546217" lon="-5.123217">
        <ele>2039.0</ele>
        <time>2015-08-16T13:18:44Z</time>
      </trkpt>
      <trkpt lat="40.546283" lon="-5.123067">
        <ele>2039.0</ele>
        <time>2015-08-16T13:18:45Z</time>
      </trkpt>
      <trkpt lat="40.546333" lon="-5.122917">
        <ele>2040.0</ele>
        <time>2015-08-16T13:18:46Z</time>
      </trkpt>
      <trkpt lat="40.546383" lon="-5.122767">
        <ele>2040.0</ele>
        <time>2015-08-16T13:18:47Z</time>
      </trkpt>
      <trkpt lat="40.546433" lon="-5.122617">
        <ele>2040.0</ele>
        <time>2015-08-16T13:18:48Z</time>
      </trkpt>
      <trkpt lat="40.546467" lon="-5.122467">
        <ele>2039.0</ele>
        <time>2015-08-16T13:18:49Z</time>
      </trkpt>
      <trkpt lat="40.546517" lon="-5.122300">
        <ele>2038.0</ele>
        <time>2015-08-16T13:18:50Z</time>
      </trkpt>
      <trkpt lat="40.546567" lon="-5.122150">
        <ele>2038.0</ele>
        <time>2015-08-16T13:18:51Z</time>
      </trkpt>
      <trkpt lat="40.546633" lon="-5.121983">
        <ele>2039.0</ele>
        <time>2015-08-16T13:18:52Z</time>
      </trkpt>
      <trkpt lat="40.546667" lon="-5.121833">
        <ele>2039.0</ele>
        <time>2015-08-16T13:18:53Z</time>
      </trkpt>
      <trkpt lat="40.546717" lon="-5.121683">
        <ele>2040.0</ele>
        <time>2015-08-16T13:18:54Z</time>
      </trkpt>
      <trkpt lat="40.546767" lon="-5.121533">
        <ele>2041.0</ele>
        <time>2015-08-16T13:18:55Z</time>
      </trkpt>
      <trkpt lat="40.546817" lon="-5.121383">
        <ele>2040.0</ele>
        <time>2015-08-16T13:18:56Z</time>
      </trkpt>
      <trkpt lat="40.546867" lon="-5.121250">
        <ele>2040.0</ele>
        <time>2015-08-16T13:18:57Z</time>
      </trkpt>
      <trkpt lat="40.546950" lon="-5.121100">
        <ele>2040.0</ele>
        <time>2015-08-16T13:18:58Z</time>
      </trkpt>
      <trkpt lat="40.547033" lon="-5.120983">
        <ele>2040.0</ele>
        <time>2015-08-16T13:18:59Z</time>
      </trkpt>
      <trkpt lat="40.547133" lon="-5.120883">
        <ele>2040.0</ele>
        <time>2015-08-16T13:19:00Z</time>
      </trkpt>
      <trkpt lat="40.547250" lon="-5.120800">
        <ele>2040.0</ele>
        <time>2015-08-16T13:19:01Z</time>
      </trkpt>
      <trkpt lat="40.547350" lon="-5.120733">
        <ele>2041.0</ele>
        <time>2015-08-16T13:19:02Z</time>
      </trkpt>
      <trkpt lat="40.547450" lon="-5.120700">
        <ele>2041.0</ele>
        <time>2015-08-16T13:19:03Z</time>
      </trkpt>
      <trkpt lat="40.547550" lon="-5.120667">
        <ele>2041.0</ele>
        <time>2015-08-16T13:19:04Z</time>
      </trkpt>
      <trkpt lat="40.547633" lon="-5.120650">
        <ele>2042.0</ele>
        <time>2015-08-16T13:19:05Z</time>
      </trkpt>
      <trkpt lat="40.547717" lon="-5.120617">
        <ele>2042.0</ele>
        <time>2015-08-16T13:19:06Z</time>
      </trkpt>
      <trkpt lat="40.547800" lon="-5.120583">
        <ele>2043.0</ele>
        <time>2015-08-16T13:19:07Z</time>
      </trkpt>
      <trkpt lat="40.547900" lon="-5.120533">
        <ele>2043.0</ele>
        <time>2015-08-16T13:19:08Z</time>
      </trkpt>
      <trkpt lat="40.548000" lon="-5.120467">
        <ele>2043.0</ele>
        <time>2015-08-16T13:19:09Z</time>
      </trkpt>
      <trkpt lat="40.548100" lon="-5.120400">
        <ele>2045.0</ele>
        <time>2015-08-16T13:19:10Z</time>
      </trkpt>
      <trkpt lat="40.548183" lon="-5.120367">
        <ele>2046.0</ele>
        <time>2015-08-16T13:19:11Z</time>
      </trkpt>
      <trkpt lat="40.548283" lon="-5.120333">
        <ele>2047.0</ele>
        <time>2015-08-16T13:19:12Z</time>
      </trkpt>
      <trkpt lat="40.548367" lon="-5.120333">
        <ele>2047.0</ele>
        <time>2015-08-16T13:19:13Z</time>
      </trkpt>
      <trkpt lat="40.548450" lon="-5.120350">
        <ele>2048.0</ele>
        <time>2015-08-16T13:19:14Z</time>
      </trkpt>
      <trkpt lat="40.548533" lon="-5.120367">
        <ele>2049.0</ele>
        <time>2015-08-16T13:19:15Z</time>
      </trkpt>
      <trkpt lat="40.548617" lon="-5.120367">
        <ele>2050.0</ele>
        <time>2015-08-16T13:19:16Z</time>
      </trkpt>
      <trkpt lat="40.548700" lon="-5.120383">
        <ele>2051.0</ele>
        <time>2015-08-16T13:19:17Z</time>
      </trkpt>
      <trkpt lat="40.548800" lon="-5.120367">
        <ele>2051.0</ele>
        <time>2015-08-16T13:19:18Z</time>
      </trkpt>
      <trkpt lat="40.548883" lon="-5.120333">
        <ele>2053.0</ele>
        <time>2015-08-16T13:19:19Z</time>
      </trkpt>
      <trkpt lat="40.548983" lon="-5.120267">
        <ele>2054.0</ele>
        <time>2015-08-16T13:19:20Z</time>
      </trkpt>
      <trkpt lat="40.549083" lon="-5.120167">
        <ele>2055.0</ele>
        <time>2015-08-16T13:19:21Z</time>
      </trkpt>
      <trkpt lat="40.549183" lon="-5.120033">
        <ele>2057.0</ele>
        <time>2015-08-16T13:19:22Z</time>
      </trkpt>
      <trkpt lat="40.549233" lon="-5.119883">
        <ele>2059.0</ele>
        <time>2015-08-16T13:19:23Z</time>
      </trkpt>
      <trkpt lat="40.549267" lon="-5.119717">
        <ele>2061.0</ele>
        <time>2015-08-16T13:19:24Z</time>
      </trkpt>
      <trkpt lat="40.549250" lon="-5.119550">
        <ele>2061.0</ele>
        <time>2015-08-16T13:19:25Z</time>
      </trkpt>
      <trkpt lat="40.549200" lon="-5.119383">
        <ele>2062.0</ele>
        <time>2015-08-16T13:19:26Z</time>
      </trkpt>
      <trkpt lat="40.549150" lon="-5.119233">
        <ele>2063.0</ele>
        <time>2015-08-16T13:19:27Z</time>
      </trkpt>
      <trkpt lat="40.549067" lon="-5.119117">
        <ele>2065.0</ele>
        <time>2015-08-16T13:19:28Z</time>
      </trkpt>
      <trkpt lat="40.548983" lon="-5.119050">
        <ele>2065.0</ele>
        <time>2015-08-16T13:19:29Z</time>
      </trkpt>
      <trkpt lat="40.548883" lon="-5.119033">
        <ele>2066.0</ele>
        <time>2015-08-16T13:19:30Z</time>
      </trkpt>
      <trkpt lat="40.548817" lon="-5.119050">
        <ele>2067.0</ele>
        <time>2015-08-16T13:19:31Z</time>
      </trkpt>
      <trkpt lat="40.548750" lon="-5.119067">
        <ele>2070.0</ele>
        <time>2015-08-16T13:19:32Z</time>
      </trkpt>
      <trkpt lat="40.548717" lon="-5.119100">
        <ele>2071.0</ele>
        <time>2015-08-16T13:19:33Z</time>
      </trkpt>
      <trkpt lat="40.548683" lon="-5.119133">
        <ele>2073.0</ele>
        <time>2015-08-16T13:19:34Z</time>
      </trkpt>
      <trkpt lat="40.548667" lon="-5.119183">
        <ele>2073.0</ele>
        <time>2015-08-16T13:19:35Z</time>
      </trkpt>
      <trkpt lat="40.548683" lon="-5.119233">
        <ele>2074.0</ele>
        <time>2015-08-16T13:19:36Z</time>
      </trkpt>
      <trkpt lat="40.548717" lon="-5.119300">
        <ele>2074.0</ele>
        <time>2015-08-16T13:19:37Z</time>
      </trkpt>
      <trkpt lat="40.548767" lon="-5.119367">
        <ele>2075.0</ele>
        <time>2015-08-16T13:19:38Z</time>
      </trkpt>
      <trkpt lat="40.548833" lon="-5.119417">
        <ele>2075.0</ele>
        <time>2015-08-16T13:19:39Z</time>
      </trkpt>
      <trkpt lat="40.548917" lon="-5.119450">
        <ele>2076.0</ele>
        <time>2015-08-16T13:19:40Z</time>
      </trkpt>
      <trkpt lat="40.549033" lon="-5.119467">
        <ele>2077.0</ele>
        <time>2015-08-16T13:19:41Z</time>
      </trkpt>
      <trkpt lat="40.549133" lon="-5.119433">
        <ele>2078.0</ele>
        <time>2015-08-16T13:19:42Z</time>
      </trkpt>
      <trkpt lat="40.549250" lon="-5.119367">
        <ele>2079.0</ele>
        <time>2015-08-16T13:19:43Z</time>
      </trkpt>
      <trkpt lat="40.549350" lon="-5.119267">
        <ele>2080.0</ele>
        <time>2015-08-16T13:19:44Z</time>
      </trkpt>
      <trkpt lat="40.549450" lon="-5.119133">
        <ele>2082.0</ele>
        <time>2015-08-16T13:19:45Z</time>
      </trkpt>
      <trkpt lat="40.549533" lon="-5.119017">
        <ele>2084.0</ele>
        <time>2015-08-16T13:19:46Z</time>
      </trkpt>
      <trkpt lat="40.549600" lon="-5.118867">
        <ele>2086.0</ele>
        <time>2015-08-16T13:19:47Z</time>
      </trkpt>
      <trkpt lat="40.549650" lon="-5.118717">
        <ele>2087.0</ele>
        <time>2015-08-16T13:19:48Z</time>
      </trkpt>
      <trkpt lat="40.549667" lon="-5.118533">
        <ele>2088.0</ele>
        <time>2015-08-16T13:19:49Z</time>
      </trkpt>
      <trkpt lat="40.549633" lon="-5.118367">
        <ele>2089.0</ele>
        <time>2015-08-16T13:19:50Z</time>
      </trkpt>
      <trkpt lat="40.549583" lon="-5.118217">
        <ele>2090.0</ele>
        <time>2015-08-16T13:19:51Z</time>
      </trkpt>
      <trkpt lat="40.549517" lon="-5.118100">
        <ele>2091.0</ele>
        <time>2015-08-16T13:19:52Z</time>
      </trkpt>
      <trkpt lat="40.549417" lon="-5.118033">
        <ele>2091.0</ele>
        <time>2015-08-16T13:19:53Z</time>
      </trkpt>
      <trkpt lat="40.549317" lon="-5.118033">
        <ele>2091.0</ele>
        <time>2015-08-16T13:19:54Z</time>
      </trkpt>
      <trkpt lat="40.549233" lon="-5.118067">
        <ele>2091.0</ele>
        <time>2015-08-16T13:19:55Z</time>
      </trkpt>
      <trkpt lat="40.549167" lon="-5.118133">
        <ele>2093.0</ele>
        <time>2015-08-16T13:19:56Z</time>
      </trkpt>
      <trkpt lat="40.549133" lon="-5.118200">
        <ele>2095.0</ele>
        <time>2015-08-16T13:19:57Z</time>
      </trkpt>
      <trkpt lat="40.549150" lon="-5.118267">
        <ele>2097.0</ele>
        <time>2015-08-16T13:19:58Z</time>
      </trkpt>
      <trkpt lat="40.549167" lon="-5.118333">
        <ele>2098.0</ele>
        <time>2015-08-16T13:19:59Z</time>
      </trkpt>
      <trkpt lat="40.549233" lon="-5.118400">
        <ele>2098.0</ele>
        <time>2015-08-16T13:20:00Z</time>
      </trkpt>
      <trkpt lat="40.549300" lon="-5.118450">
        <ele>2098.0</ele>
        <time>2015-08-16T13:20:01Z</time>
      </trkpt>
      <trkpt lat="40.549383" lon="-5.118483">
        <ele>2098.0</ele>
        <time>2015-08-16T13:20:02Z</time>
      </trkpt>
      <trkpt lat="40.549467" lon="-5.118517">
        <ele>2098.0</ele>
        <time>2015-08-16T13:20:03Z</time>
      </trkpt>
      <trkpt lat="40.549567" lon="-5.118567">
        <ele>2098.0</ele>
        <time>2015-08-16T13:20:04Z</time>
      </trkpt>
      <trkpt lat="40.549633" lon="-5.118617">
        <ele>2099.0</ele>
        <time>2015-08-16T13:20:05Z</time>
      </trkpt>
      <trkpt lat="40.549717" lon="-5.118650">
        <ele>2101.0</ele>
        <time>2015-08-16T13:20:06Z</time>
      </trkpt>
      <trkpt lat="40.549783" lon="-5.118700">
        <ele>2103.0</ele>
        <time>2015-08-16T13:20:07Z</time>
      </trkpt>
      <trkpt lat="40.549867" lon="-5.118750">
        <ele>2104.0</ele>
        <time>2015-08-16T13:20:08Z</time>
      </trkpt>
      <trkpt lat="40.549933" lon="-5.118783">
        <ele>2106.0</ele>
        <time>2015-08-16T13:20:09Z</time>
      </trkpt>
      <trkpt lat="40.550017" lon="-5.118833">
        <ele>2108.0</ele>
        <time>2015-08-16T13:20:10Z</time>
      </trkpt>
      <trkpt lat="40.550100" lon="-5.118850">
        <ele>2111.0</ele>
        <time>2015-08-16T13:20:11Z</time>
      </trkpt>
      <trkpt lat="40.550183" lon="-5.118833">
        <ele>2112.0</ele>
        <time>2015-08-16T13:20:12Z</time>
      </trkpt>
      <trkpt lat="40.550300" lon="-5.118783">
        <ele>2112.0</ele>
        <time>2015-08-16T13:20:13Z</time>
      </trkpt>
      <trkpt lat="40.550400" lon="-5.118683">
        <ele>2112.0</ele>
        <time>2015-08-16T13:20:14Z</time>
      </trkpt>
      <trkpt lat="40.550483" lon="-5.118550">
        <ele>2113.0</ele>
        <time>2015-08-16T13:20:15Z</time>
      </trkpt>
      <trkpt lat="40.550517" lon="-5.118417">
        <ele>2113.0</ele>
        <time>2015-08-16T13:20:16Z</time>
      </trkpt>
      <trkpt lat="40.550533" lon="-5.118300">
        <ele>2113.0</ele>
        <time>2015-08-16T13:20:17Z</time>
      </trkpt>
      <trkpt lat="40.550533" lon="-5.118167">
        <ele>2112.0</ele>
        <time>2015-08-16T13:20:18Z</time>
      </trkpt>
      <trkpt lat="40.550500" lon="-5.118050">
        <ele>2110.0</ele>
        <time>2015-08-16T13:20:19Z</time>
      </trkpt>
      <trkpt lat="40.550467" lon="-5.117917">
        <ele>2108.0</ele>
        <time>2015-08-16T13:20:20Z</time>
      </trkpt>
      <trkpt lat="40.550417" lon="-5.117800">
        <ele>2108.0</ele>
        <time>2015-08-16T13:20:21Z</time>
      </trkpt>
      <trkpt lat="40.550350" lon="-5.117683">
        <ele>2109.0</ele>
        <time>2015-08-16T13:20:22Z</time>
      </trkpt>
      <trkpt lat="40.550267" lon="-5.117583">
        <ele>2111.0</ele>
        <time>2015-08-16T13:20:23Z</time>
      </trkpt>
      <trkpt lat="40.550200" lon="-5.117517">
        <ele>2113.0</ele>
        <time>2015-08-16T13:20:24Z</time>
      </trkpt>
      <trkpt lat="40.550117" lon="-5.117450">
        <ele>2115.0</ele>
        <time>2015-08-16T13:20:25Z</time>
      </trkpt>
      <trkpt lat="40.550050" lon="-5.117400">
        <ele>2117.0</ele>
        <time>2015-08-16T13:20:26Z</time>
      </trkpt>
      <trkpt lat="40.549983" lon="-5.117383">
        <ele>2118.0</ele>
        <time>2015-08-16T13:20:27Z</time>
      </trkpt>
      <trkpt lat="40.549933" lon="-5.117400">
        <ele>2119.0</ele>
        <time>2015-08-16T13:20:28Z</time>
      </trkpt>
      <trkpt lat="40.549883" lon="-5.117450">
        <ele>2118.0</ele>
        <time>2015-08-16T13:20:29Z</time>
      </trkpt>
      <trkpt lat="40.549883" lon="-5.117517">
        <ele>2118.0</ele>
        <time>2015-08-16T13:20:30Z</time>
      </trkpt>
      <trkpt lat="40.549900" lon="-5.117600">
        <ele>2118.0</ele>
        <time>2015-08-16T13:20:31Z</time>
      </trkpt>
      <trkpt lat="40.549933" lon="-5.117700">
        <ele>2118.0</ele>
        <time>2015-08-16T13:20:32Z</time>
      </trkpt>
      <trkpt lat="40.550000" lon="-5.117767">
        <ele>2119.0</ele>
        <time>2015-08-16T13:20:33Z</time>
      </trkpt>
      <trkpt lat="40.550083" lon="-5.117833">
        <ele>2122.0</ele>
        <time>2015-08-16T13:20:34Z</time>
      </trkpt>
      <trkpt lat="40.550150" lon="-5.117883">
        <ele>2124.0</ele>
        <time>2015-08-16T13:20:35Z</time>
      </trkpt>
      <trkpt lat="40.550217" lon="-5.117917">
        <ele>2126.0</ele>
        <time>2015-08-16T13:20:36Z</time>
      </trkpt>
      <trkpt lat="40.550283" lon="-5.117967">
        <ele>2127.0</ele>
        <time>2015-08-16T13:20:37Z</time>
      </trkpt>
      <trkpt lat="40.550333" lon="-5.118033">
        <ele>2127.0</ele>
        <time>2015-08-16T13:20:38Z</time>
      </trkpt>
      <trkpt lat="40.550417" lon="-5.118100">
        <ele>2127.0</ele>
        <time>2015-08-16T13:20:39Z</time>
      </trkpt>
      <trkpt lat="40.550500" lon="-5.118133">
        <ele>2127.0</ele>
        <time>2015-08-16T13:20:40Z</time>
      </trkpt>
      <trkpt lat="40.550617" lon="-5.118133">
        <ele>2127.0</ele>
        <time>2015-08-16T13:20:41Z</time>
      </trkpt>
      <trkpt lat="40.550733" lon="-5.118100">
        <ele>2127.0</ele>
        <time>2015-08-16T13:20:42Z</time>
      </trkpt>
      <trkpt lat="40.550850" lon="-5.118033">
        <ele>2127.0</ele>
        <time>2015-08-16T13:20:43Z</time>
      </trkpt>
      <trkpt lat="40.550950" lon="-5.117933">
        <ele>2126.0</ele>
        <time>2015-08-16T13:20:44Z</time>
      </trkpt>
      <trkpt lat="40.551017" lon="-5.117833">
        <ele>2126.0</ele>
        <time>2015-08-16T13:20:45Z</time>
      </trkpt>
      <trkpt lat="40.551083" lon="-5.117733">
        <ele>2124.0</ele>
        <time>2015-08-16T13:20:46Z</time>
      </trkpt>
      <trkpt lat="40.551133" lon="-5.117633">
        <ele>2121.0</ele>
        <time>2015-08-16T13:20:47Z</time>
      </trkpt>
      <trkpt lat="40.551183" lon="-5.117500">
        <ele>2116.0</ele>
        <time>2015-08-16T13:20:48Z</time>
      </trkpt>
      <trkpt lat="40.551217" lon="-5.117333">
        <ele>2111.0</ele>
        <time>2015-08-16T13:20:49Z</time>
      </trkpt>
      <trkpt lat="40.551250" lon="-5.117167">
        <ele>2106.0</ele>
        <time>2015-08-16T13:20:50Z</time>
      </trkpt>
      <trkpt lat="40.551267" lon="-5.117000">
        <ele>2103.0</ele>
        <time>2015-08-16T13:20:51Z</time>
      </trkpt>
      <trkpt lat="40.551317" lon="-5.116833">
        <ele>2100.0</ele>
        <time>2015-08-16T13:20:52Z</time>
      </trkpt>
      <trkpt lat="40.551367" lon="-5.116667">
        <ele>2097.0</ele>
        <time>2015-08-16T13:20:53Z</time>
      </trkpt>
      <trkpt lat="40.551417" lon="-5.116483">
        <ele>2094.0</ele>
        <time>2015-08-16T13:20:54Z</time>
      </trkpt>
      <trkpt lat="40.551450" lon="-5.116317">
        <ele>2091.0</ele>
        <time>2015-08-16T13:20:55Z</time>
      </trkpt>
      <trkpt lat="40.551483" lon="-5.116150">
        <ele>2088.0</ele>
        <time>2015-08-16T13:20:56Z</time>
      </trkpt>
      <trkpt lat="40.551517" lon="-5.115983">
        <ele>2086.0</ele>
        <time>2015-08-16T13:20:57Z</time>
      </trkpt>
      <trkpt lat="40.551550" lon="-5.115833">
        <ele>2084.0</ele>
        <time>2015-08-16T13:20:58Z</time>
      </trkpt>
      <trkpt lat="40.551583" lon="-5.115667">
        <ele>2083.0</ele>
        <time>2015-08-16T13:20:59Z</time>
      </trkpt>
      <trkpt lat="40.551633" lon="-5.115533">
        <ele>2081.0</ele>
        <time>2015-08-16T13:21:00Z</time>
      </trkpt>
      <trkpt lat="40.551667" lon="-5.115383">
        <ele>2078.0</ele>
        <time>2015-08-16T13:21:01Z</time>
      </trkpt>
      <trkpt lat="40.551717" lon="-5.115233">
        <ele>2075.0</ele>
        <time>2015-08-16T13:21:02Z</time>
      </trkpt>
      <trkpt lat="40.551767" lon="-5.115083">
        <ele>2072.0</ele>
        <time>2015-08-16T13:21:03Z</time>
      </trkpt>
      <trkpt lat="40.551817" lon="-5.114933">
        <ele>2069.0</ele>
        <time>2015-08-16T13:21:04Z</time>
      </trkpt>
      <trkpt lat="40.551850" lon="-5.114767">
        <ele>2065.0</ele>
        <time>2015-08-16T13:21:05Z</time>
      </trkpt>
      <trkpt lat="40.551900" lon="-5.114600">
        <ele>2062.0</ele>
        <time>2015-08-16T13:21:06Z</time>
      </trkpt>
      <trkpt lat="40.551950" lon="-5.114450">
        <ele>2059.0</ele>
        <time>2015-08-16T13:21:07Z</time>
      </trkpt>
      <trkpt lat="40.552000" lon="-5.114283">
        <ele>2056.0</ele>
        <time>2015-08-16T13:21:08Z</time>
      </trkpt>
      <trkpt lat="40.552050" lon="-5.114117">
        <ele>2054.0</ele>
        <time>2015-08-16T13:21:09Z</time>
      </trkpt>
      <trkpt lat="40.552100" lon="-5.113967">
        <ele>2052.0</ele>
        <time>2015-08-16T13:21:10Z</time>
      </trkpt>
      <trkpt lat="40.552150" lon="-5.113800">
        <ele>2050.0</ele>
        <time>2015-08-16T13:21:11Z</time>
      </trkpt>
      <trkpt lat="40.552200" lon="-5.113650">
        <ele>2047.0</ele>
        <time>2015-08-16T13:21:12Z</time>
      </trkpt>
      <trkpt lat="40.552250" lon="-5.113483">
        <ele>2046.0</ele>
        <time>2015-08-16T13:21:13Z</time>
      </trkpt>
      <trkpt lat="40.552300" lon="-5.113317">
        <ele>2046.0</ele>
        <time>2015-08-16T13:21:14Z</time>
      </trkpt>
      <trkpt lat="40.552350" lon="-5.113167">
        <ele>2046.0</ele>
        <time>2015-08-16T13:21:15Z</time>
      </trkpt>
      <trkpt lat="40.552383" lon="-5.113033">
        <ele>2045.0</ele>
        <time>2015-08-16T13:21:16Z</time>
      </trkpt>
      <trkpt lat="40.552433" lon="-5.112900">
        <ele>2044.0</ele>
        <time>2015-08-16T13:21:17Z</time>
      </trkpt>
      <trkpt lat="40.552483" lon="-5.112767">
        <ele>2041.0</ele>
        <time>2015-08-16T13:21:18Z</time>
      </trkpt>
      <trkpt lat="40.552550" lon="-5.112633">
        <ele>2039.0</ele>
        <time>2015-08-16T13:21:19Z</time>
      </trkpt>
      <trkpt lat="40.552617" lon="-5.112483">
        <ele>2038.0</ele>
        <time>2015-08-16T13:21:20Z</time>
      </trkpt>
      <trkpt lat="40.552667" lon="-5.112350">
        <ele>2036.0</ele>
        <time>2015-08-16T13:21:21Z</time>
      </trkpt>
      <trkpt lat="40.552717" lon="-5.112217">
        <ele>2035.0</ele>
        <time>2015-08-16T13:21:22Z</time>
      </trkpt>
      <trkpt lat="40.552767" lon="-5.112100">
        <ele>2034.0</ele>
        <time>2015-08-16T13:21:23Z</time>
      </trkpt>
      <trkpt lat="40.552817" lon="-5.111983">
        <ele>2033.0</ele>
        <time>2015-08-16T13:21:24Z</time>
      </trkpt>
      <trkpt lat="40.552883" lon="-5.111867">
        <ele>2032.0</ele>
        <time>2015-08-16T13:21:25Z</time>
      </trkpt>
      <trkpt lat="40.552933" lon="-5.111733">
        <ele>2030.0</ele>
        <time>2015-08-16T13:21:26Z</time>
      </trkpt>
      <trkpt lat="40.552967" lon="-5.111600">
        <ele>2029.0</ele>
        <time>2015-08-16T13:21:27Z</time>
      </trkpt>
      <trkpt lat="40.552983" lon="-5.111467">
        <ele>2028.0</ele>
        <time>2015-08-16T13:21:28Z</time>
      </trkpt>
      <trkpt lat="40.553000" lon="-5.111333">
        <ele>2027.0</ele>
        <time>2015-08-16T13:21:29Z</time>
      </trkpt>
      <trkpt lat="40.553033" lon="-5.111217">
        <ele>2027.0</ele>
        <time>2015-08-16T13:21:30Z</time>
      </trkpt>
      <trkpt lat="40.553067" lon="-5.111100">
        <ele>2025.0</ele>
        <time>2015-08-16T13:21:31Z</time>
      </trkpt>
      <trkpt lat="40.553100" lon="-5.110967">
        <ele>2024.0</ele>
        <time>2015-08-16T13:21:32Z</time>
      </trkpt>
      <trkpt lat="40.553133" lon="-5.110850">
        <ele>2023.0</ele>
        <time>2015-08-16T13:21:33Z</time>
      </trkpt>
      <trkpt lat="40.553167" lon="-5.110717">
        <ele>2022.0</ele>
        <time>2015-08-16T13:21:34Z</time>
      </trkpt>
      <trkpt lat="40.553200" lon="-5.110600">
        <ele>2021.0</ele>
        <time>2015-08-16T13:21:35Z</time>
      </trkpt>
      <trkpt lat="40.553233" lon="-5.110500">
        <ele>2020.0</ele>
        <time>2015-08-16T13:21:36Z</time>
      </trkpt>
      <trkpt lat="40.553283" lon="-5.110383">
        <ele>2019.0</ele>
        <time>2015-08-16T13:21:37Z</time>
      </trkpt>
      <trkpt lat="40.553317" lon="-5.110267">
        <ele>2018.0</ele>
        <time>2015-08-16T13:21:38Z</time>
      </trkpt>
      <trkpt lat="40.553367" lon="-5.110150">
        <ele>2018.0</ele>
        <time>2015-08-16T13:21:39Z</time>
      </trkpt>
      <trkpt lat="40.553400" lon="-5.110017">
        <ele>2018.0</ele>
        <time>2015-08-16T13:21:40Z</time>
      </trkpt>
      <trkpt lat="40.553433" lon="-5.109900">
        <ele>2018.0</ele>
        <time>2015-08-16T13:21:41Z</time>
      </trkpt>
      <trkpt lat="40.553467" lon="-5.109800">
        <ele>2017.0</ele>
        <time>2015-08-16T13:21:42Z</time>
      </trkpt>
      <trkpt lat="40.553500" lon="-5.109700">
        <ele>2015.0</ele>
        <time>2015-08-16T13:21:43Z</time>
      </trkpt>
      <trkpt lat="40.553550" lon="-5.109583">
        <ele>2012.0</ele>
        <time>2015-08-16T13:21:44Z</time>
      </trkpt>
      <trkpt lat="40.553583" lon="-5.109450">
        <ele>2007.0</ele>
        <time>2015-08-16T13:21:45Z</time>
      </trkpt>
      <trkpt lat="40.553633" lon="-5.109300">
        <ele>2004.0</ele>
        <time>2015-08-16T13:21:46Z</time>
      </trkpt>
      <trkpt lat="40.553667" lon="-5.109133">
        <ele>2003.0</ele>
        <time>2015-08-16T13:21:47Z</time>
      </trkpt>
      <trkpt lat="40.553700" lon="-5.108983">
        <ele>2003.0</ele>
        <time>2015-08-16T13:21:48Z</time>
      </trkpt>
      <trkpt lat="40.553733" lon="-5.108850">
        <ele>2003.0</ele>
        <time>2015-08-16T13:21:49Z</time>
      </trkpt>
      <trkpt lat="40.553767" lon="-5.108733">
        <ele>2003.0</ele>
        <time>2015-08-16T13:21:50Z</time>
      </trkpt>
      <trkpt lat="40.553783" lon="-5.108617">
        <ele>2002.0</ele>
        <time>2015-08-16T13:21:51Z</time>
      </trkpt>
      <trkpt lat="40.553817" lon="-5.108500">
        <ele>2000.0</ele>
        <time>2015-08-16T13:21:52Z</time>
      </trkpt>
      <trkpt lat="40.553850" lon="-5.108367">
        <ele>1997.0</ele>
        <time>2015-08-16T13:21:53Z</time>
      </trkpt>
      <trkpt lat="40.553883" lon="-5.108217">
        <ele>1995.0</ele>
        <time>2015-08-16T13:21:54Z</time>
      </trkpt>
      <trkpt lat="40.553917" lon="-5.108067">
        <ele>1993.0</ele>
        <time>2015-08-16T13:21:55Z</time>
      </trkpt>
      <trkpt lat="40.553950" lon="-5.107917">
        <ele>1993.0</ele>
        <time>2015-08-16T13:21:56Z</time>
      </trkpt>
      <trkpt lat="40.553983" lon="-5.107767">
        <ele>1993.0</ele>
        <time>2015-08-16T13:21:57Z</time>
      </trkpt>
      <trkpt lat="40.554000" lon="-5.107650">
        <ele>1992.0</ele>
        <time>2015-08-16T13:21:58Z</time>
      </trkpt>
      <trkpt lat="40.554017" lon="-5.107533">
        <ele>1991.0</ele>
        <time>2015-08-16T13:21:59Z</time>
      </trkpt>
      <trkpt lat="40.554050" lon="-5.107400">
        <ele>1988.0</ele>
        <time>2015-08-16T13:22:00Z</time>
      </trkpt>
      <trkpt lat="40.554083" lon="-5.107267">
        <ele>1985.0</ele>
        <time>2015-08-16T13:22:01Z</time>
      </trkpt>
      <trkpt lat="40.554100" lon="-5.107133">
        <ele>1982.0</ele>
        <time>2015-08-16T13:22:02Z</time>
      </trkpt>
      <trkpt lat="40.554133" lon="-5.106983">
        <ele>1980.0</ele>
        <time>2015-08-16T13:22:03Z</time>
      </trkpt>
      <trkpt lat="40.554167" lon="-5.106833">
        <ele>1979.0</ele>
        <time>2015-08-16T13:22:04Z</time>
      </trkpt>
      <trkpt lat="40.554183" lon="-5.106683">
        <ele>1977.0</ele>
        <time>2015-08-16T13:22:05Z</time>
      </trkpt>
      <trkpt lat="40.554200" lon="-5.106550">
        <ele>1975.0</ele>
        <time>2015-08-16T13:22:06Z</time>
      </trkpt>
      <trkpt lat="40.554233" lon="-5.106417">
        <ele>1973.0</ele>
        <time>2015-08-16T13:22:07Z</time>
      </trkpt>
      <trkpt lat="40.554250" lon="-5.106267">
        <ele>1969.0</ele>
        <time>2015-08-16T13:22:08Z</time>
      </trkpt>
      <trkpt lat="40.554267" lon="-5.106133">
        <ele>1966.0</ele>
        <time>2015-08-16T13:22:09Z</time>
      </trkpt>
      <trkpt lat="40.554300" lon="-5.105983">
        <ele>1963.0</ele>
        <time>2015-08-16T13:22:10Z</time>
      </trkpt>
      <trkpt lat="40.554333" lon="-5.105850">
        <ele>1960.0</ele>
        <time>2015-08-16T13:22:11Z</time>
      </trkpt>
      <trkpt lat="40.554367" lon="-5.105733">
        <ele>1958.0</ele>
        <time>2015-08-16T13:22:12Z</time>
      </trkpt>
      <trkpt lat="40.554417" lon="-5.105617">
        <ele>1956.0</ele>
        <time>2015-08-16T13:22:13Z</time>
      </trkpt>
      <trkpt lat="40.554450" lon="-5.105500">
        <ele>1952.0</ele>
        <time>2015-08-16T13:22:14Z</time>
      </trkpt>
      <trkpt lat="40.554483" lon="-5.105383">
        <ele>1949.0</ele>
        <time>2015-08-16T13:22:15Z</time>
      </trkpt>
      <trkpt lat="40.554517" lon="-5.105267">
        <ele>1945.0</ele>
        <time>2015-08-16T13:22:16Z</time>
      </trkpt>
      <trkpt lat="40.554550" lon="-5.105133">
        <ele>1941.0</ele>
        <time>2015-08-16T13:22:17Z</time>
      </trkpt>
      <trkpt lat="40.554583" lon="-5.105017">
        <ele>1938.0</ele>
        <time>2015-08-16T13:22:18Z</time>
      </trkpt>
      <trkpt lat="40.554617" lon="-5.104900">
        <ele>1934.0</ele>
        <time>2015-08-16T13:22:19Z</time>
      </trkpt>
      <trkpt lat="40.554667" lon="-5.104783">
        <ele>1931.0</ele>
        <time>2015-08-16T13:22:20Z</time>
      </trkpt>
      <trkpt lat="40.554700" lon="-5.104667">
        <ele>1927.0</ele>
        <time>2015-08-16T13:22:21Z</time>
      </trkpt>
      <trkpt lat="40.554733" lon="-5.104533">
        <ele>1924.0</ele>
        <time>2015-08-16T13:22:22Z</time>
      </trkpt>
      <trkpt lat="40.554767" lon="-5.104400">
        <ele>1921.0</ele>
        <time>2015-08-16T13:22:23Z</time>
      </trkpt>
      <trkpt lat="40.554817" lon="-5.104267">
        <ele>1918.0</ele>
        <time>2015-08-16T13:22:24Z</time>
      </trkpt>
      <trkpt lat="40.554850" lon="-5.104133">
        <ele>1915.0</ele>
        <time>2015-08-16T13:22:25Z</time>
      </trkpt>
      <trkpt lat="40.554900" lon="-5.104000">
        <ele>1913.0</ele>
        <time>2015-08-16T13:22:26Z</time>
      </trkpt>
      <trkpt lat="40.554950" lon="-5.103867">
        <ele>1911.0</ele>
        <time>2015-08-16T13:22:27Z</time>
      </trkpt>
      <trkpt lat="40.554983" lon="-5.103733">
        <ele>1910.0</ele>
        <time>2015-08-16T13:22:28Z</time>
      </trkpt>
      <trkpt lat="40.555017" lon="-5.103583">
        <ele>1908.0</ele>
        <time>2015-08-16T13:22:29Z</time>
      </trkpt>
      <trkpt lat="40.555050" lon="-5.103467">
        <ele>1907.0</ele>
        <time>2015-08-16T13:22:30Z</time>
      </trkpt>
      <trkpt lat="40.555083" lon="-5.103333">
        <ele>1905.0</ele>
        <time>2015-08-16T13:22:31Z</time>
      </trkpt>
      <trkpt lat="40.555100" lon="-5.103183">
        <ele>1904.0</ele>
        <time>2015-08-16T13:22:32Z</time>
      </trkpt>
      <trkpt lat="40.555117" lon="-5.103017">
        <ele>1903.0</ele>
        <time>2015-08-16T13:22:33Z</time>
      </trkpt>
      <trkpt lat="40.555133" lon="-5.102867">
        <ele>1902.0</ele>
        <time>2015-08-16T13:22:34Z</time>
      </trkpt>
      <trkpt lat="40.555133" lon="-5.102717">
        <ele>1903.0</ele>
        <time>2015-08-16T13:22:35Z</time>
      </trkpt>
      <trkpt lat="40.555150" lon="-5.102567">
        <ele>1903.0</ele>
        <time>2015-08-16T13:22:36Z</time>
      </trkpt>
      <trkpt lat="40.555150" lon="-5.102417">
        <ele>1904.0</ele>
        <time>2015-08-16T13:22:37Z</time>
      </trkpt>
      <trkpt lat="40.555150" lon="-5.102267">
        <ele>1904.0</ele>
        <time>2015-08-16T13:22:38Z</time>
      </trkpt>
      <trkpt lat="40.555150" lon="-5.102133">
        <ele>1904.0</ele>
        <time>2015-08-16T13:22:39Z</time>
      </trkpt>
      <trkpt lat="40.555150" lon="-5.102000">
        <ele>1905.0</ele>
        <time>2015-08-16T13:22:40Z</time>
      </trkpt>
      <trkpt lat="40.555167" lon="-5.101867">
        <ele>1906.0</ele>
        <time>2015-08-16T13:22:41Z</time>
      </trkpt>
      <trkpt lat="40.555183" lon="-5.101750">
        <ele>1907.0</ele>
        <time>2015-08-16T13:22:42Z</time>
      </trkpt>
      <trkpt lat="40.555217" lon="-5.101650">
        <ele>1907.0</ele>
        <time>2015-08-16T13:22:43Z</time>
      </trkpt>
      <trkpt lat="40.555283" lon="-5.101583">
        <ele>1907.0</ele>
        <time>2015-08-16T13:22:44Z</time>
      </trkpt>
      <trkpt lat="40.555350" lon="-5.101567">
        <ele>1906.0</ele>
        <time>2015-08-16T13:22:45Z</time>
      </trkpt>
      <trkpt lat="40.555417" lon="-5.101567">
        <ele>1904.0</ele>
        <time>2015-08-16T13:22:46Z</time>
      </trkpt>
      <trkpt lat="40.555483" lon="-5.101633">
        <ele>1903.0</ele>
        <time>2015-08-16T13:22:47Z</time>
      </trkpt>
      <trkpt lat="40.555533" lon="-5.101717">
        <ele>1903.0</ele>
        <time>2015-08-16T13:22:48Z</time>
      </trkpt>
      <trkpt lat="40.555567" lon="-5.101800">
        <ele>1903.0</ele>
        <time>2015-08-16T13:22:49Z</time>
      </trkpt>
      <trkpt lat="40.555583" lon="-5.101900">
        <ele>1903.0</ele>
        <time>2015-08-16T13:22:50Z</time>
      </trkpt>
      <trkpt lat="40.555583" lon="-5.101983">
        <ele>1904.0</ele>
        <time>2015-08-16T13:22:51Z</time>
      </trkpt>
      <trkpt lat="40.555583" lon="-5.102050">
        <ele>1904.0</ele>
        <time>2015-08-16T13:22:52Z</time>
      </trkpt>
      <trkpt lat="40.555583" lon="-5.102133">
        <ele>1903.0</ele>
        <time>2015-08-16T13:22:53Z</time>
      </trkpt>
      <trkpt lat="40.555583" lon="-5.102233">
        <ele>1902.0</ele>
        <time>2015-08-16T13:22:54Z</time>
      </trkpt>
      <trkpt lat="40.555583" lon="-5.102333">
        <ele>1901.0</ele>
        <time>2015-08-16T13:22:55Z</time>
      </trkpt>
      <trkpt lat="40.555600" lon="-5.102417">
        <ele>1900.0</ele>
        <time>2015-08-16T13:22:56Z</time>
      </trkpt>
      <trkpt lat="40.555617" lon="-5.102517">
        <ele>1900.0</ele>
        <time>2015-08-16T13:22:57Z</time>
      </trkpt>
      <trkpt lat="40.555633" lon="-5.102600">
        <ele>1901.0</ele>
        <time>2015-08-16T13:22:58Z</time>
      </trkpt>
      <trkpt lat="40.555667" lon="-5.102683">
        <ele>1901.0</ele>
        <time>2015-08-16T13:22:59Z</time>
      </trkpt>
      <trkpt lat="40.555700" lon="-5.102750">
        <ele>1901.0</ele>
        <time>2015-08-16T13:23:00Z</time>
      </trkpt>
      <trkpt lat="40.555750" lon="-5.102800">
        <ele>1900.0</ele>
        <time>2015-08-16T13:23:01Z</time>
      </trkpt>
      <trkpt lat="40.555817" lon="-5.102833">
        <ele>1899.0</ele>
        <time>2015-08-16T13:23:02Z</time>
      </trkpt>
      <trkpt lat="40.555900" lon="-5.102850">
        <ele>1898.0</ele>
        <time>2015-08-16T13:23:03Z</time>
      </trkpt>
      <trkpt lat="40.555983" lon="-5.102833">
        <ele>1898.0</ele>
        <time>2015-08-16T13:23:04Z</time>
      </trkpt>
      <trkpt lat="40.556050" lon="-5.102817">
        <ele>1899.0</ele>
        <time>2015-08-16T13:23:05Z</time>
      </trkpt>
      <trkpt lat="40.556117" lon="-5.102800">
        <ele>1901.0</ele>
        <time>2015-08-16T13:23:06Z</time>
      </trkpt>
      <trkpt lat="40.556183" lon="-5.102800">
        <ele>1901.0</ele>
        <time>2015-08-16T13:23:07Z</time>
      </trkpt>
      <trkpt lat="40.556233" lon="-5.102833">
        <ele>1901.0</ele>
        <time>2015-08-16T13:23:08Z</time>
      </trkpt>
      <trkpt lat="40.556300" lon="-5.102850">
        <ele>1901.0</ele>
        <time>2015-08-16T13:23:09Z</time>
      </trkpt>
      <trkpt lat="40.556367" lon="-5.102817">
        <ele>1901.0</ele>
        <time>2015-08-16T13:23:10Z</time>
      </trkpt>
      <trkpt lat="40.556433" lon="-5.102767">
        <ele>1900.0</ele>
        <time>2015-08-16T13:23:11Z</time>
      </trkpt>
      <trkpt lat="40.556483" lon="-5.102650">
        <ele>1900.0</ele>
        <time>2015-08-16T13:23:12Z</time>
      </trkpt>
      <trkpt lat="40.556517" lon="-5.102533">
        <ele>1901.0</ele>
        <time>2015-08-16T13:23:13Z</time>
      </trkpt>
      <trkpt lat="40.556550" lon="-5.102417">
        <ele>1902.0</ele>
        <time>2015-08-16T13:23:14Z</time>
      </trkpt>
      <trkpt lat="40.556550" lon="-5.102300">
        <ele>1903.0</ele>
        <time>2015-08-16T13:23:15Z</time>
      </trkpt>
      <trkpt lat="40.556550" lon="-5.102167">
        <ele>1902.0</ele>
        <time>2015-08-16T13:23:16Z</time>
      </trkpt>
      <trkpt lat="40.556533" lon="-5.102050">
        <ele>1901.0</ele>
        <time>2015-08-16T13:23:17Z</time>
      </trkpt>
      <trkpt lat="40.556483" lon="-5.101900">
        <ele>1900.0</ele>
        <time>2015-08-16T13:23:18Z</time>
      </trkpt>
      <trkpt lat="40.556433" lon="-5.101767">
        <ele>1900.0</ele>
        <time>2015-08-16T13:23:19Z</time>
      </trkpt>
      <trkpt lat="40.556400" lon="-5.101617">
        <ele>1900.0</ele>
        <time>2015-08-16T13:23:20Z</time>
      </trkpt>
      <trkpt lat="40.556383" lon="-5.101467">
        <ele>1900.0</ele>
        <time>2015-08-16T13:23:21Z</time>
      </trkpt>
      <trkpt lat="40.556367" lon="-5.101317">
        <ele>1900.0</ele>
        <time>2015-08-16T13:23:22Z</time>
      </trkpt>
      <trkpt lat="40.556367" lon="-5.101183">
        <ele>1900.0</ele>
        <time>2015-08-16T13:23:23Z</time>
      </trkpt>
      <trkpt lat="40.556367" lon="-5.101033">
        <ele>1900.0</ele>
        <time>2015-08-16T13:23:24Z</time>
      </trkpt>
      <trkpt lat="40.556383" lon="-5.100883">
        <ele>1900.0</ele>
        <time>2015-08-16T13:23:25Z</time>
      </trkpt>
      <trkpt lat="40.556400" lon="-5.100733">
        <ele>1900.0</ele>
        <time>2015-08-16T13:23:26Z</time>
      </trkpt>
      <trkpt lat="40.556433" lon="-5.100600">
        <ele>1900.0</ele>
        <time>2015-08-16T13:23:27Z</time>
      </trkpt>
      <trkpt lat="40.556467" lon="-5.100450">
        <ele>1901.0</ele>
        <time>2015-08-16T13:23:28Z</time>
      </trkpt>
      <trkpt lat="40.556483" lon="-5.100317">
        <ele>1902.0</ele>
        <time>2015-08-16T13:23:29Z</time>
      </trkpt>
      <trkpt lat="40.556500" lon="-5.100183">
        <ele>1903.0</ele>
        <time>2015-08-16T13:23:30Z</time>
      </trkpt>
      <trkpt lat="40.556533" lon="-5.100050">
        <ele>1903.0</ele>
        <time>2015-08-16T13:23:31Z</time>
      </trkpt>
      <trkpt lat="40.556567" lon="-5.099917">
        <ele>1903.0</ele>
        <time>2015-08-16T13:23:32Z</time>
      </trkpt>
      <trkpt lat="40.556600" lon="-5.099783">
        <ele>1903.0</ele>
        <time>2015-08-16T13:23:33Z</time>
      </trkpt>
      <trkpt lat="40.556633" lon="-5.099650">
        <ele>1904.0</ele>
        <time>2015-08-16T13:23:34Z</time>
      </trkpt>
      <trkpt lat="40.556667" lon="-5.099517">
        <ele>1905.0</ele>
        <time>2015-08-16T13:23:35Z</time>
      </trkpt>
      <trkpt lat="40.556700" lon="-5.099367">
        <ele>1906.0</ele>
        <time>2015-08-16T13:23:36Z</time>
      </trkpt>
      <trkpt lat="40.556733" lon="-5.099217">
        <ele>1907.0</ele>
        <time>2015-08-16T13:23:37Z</time>
      </trkpt>
      <trkpt lat="40.556767" lon="-5.099083">
        <ele>1908.0</ele>
        <time>2015-08-16T13:23:38Z</time>
      </trkpt>
      <trkpt lat="40.556800" lon="-5.098933">
        <ele>1910.0</ele>
        <time>2015-08-16T13:23:39Z</time>
      </trkpt>
      <trkpt lat="40.556817" lon="-5.098783">
        <ele>1912.0</ele>
        <time>2015-08-16T13:23:40Z</time>
      </trkpt>
      <trkpt lat="40.556800" lon="-5.098633">
        <ele>1914.0</ele>
        <time>2015-08-16T13:23:41Z</time>
      </trkpt>
      <trkpt lat="40.556750" lon="-5.098483">
        <ele>1915.0</ele>
        <time>2015-08-16T13:23:42Z</time>
      </trkpt>
      <trkpt lat="40.556683" lon="-5.098350">
        <ele>1916.0</ele>
        <time>2015-08-16T13:23:43Z</time>
      </trkpt>
      <trkpt lat="40.556600" lon="-5.098250">
        <ele>1916.0</ele>
        <time>2015-08-16T13:23:44Z</time>
      </trkpt>
      <trkpt lat="40.556500" lon="-5.098150">
        <ele>1917.0</ele>
        <time>2015-08-16T13:23:45Z</time>
      </trkpt>
      <trkpt lat="40.556383" lon="-5.098100">
        <ele>1917.0</ele>
        <time>2015-08-16T13:23:46Z</time>
      </trkpt>
      <trkpt lat="40.556267" lon="-5.098083">
        <ele>1917.0</ele>
        <time>2015-08-16T13:23:47Z</time>
      </trkpt>
      <trkpt lat="40.556167" lon="-5.098117">
        <ele>1918.0</ele>
        <time>2015-08-16T13:23:48Z</time>
      </trkpt>
      <trkpt lat="40.556083" lon="-5.098167">
        <ele>1918.0</ele>
        <time>2015-08-16T13:23:49Z</time>
      </trkpt>
      <trkpt lat="40.556000" lon="-5.098250">
        <ele>1919.0</ele>
        <time>2015-08-16T13:23:50Z</time>
      </trkpt>
      <trkpt lat="40.555950" lon="-5.098333">
        <ele>1919.0</ele>
        <time>2015-08-16T13:23:51Z</time>
      </trkpt>
      <trkpt lat="40.555917" lon="-5.098417">
        <ele>1919.0</ele>
        <time>2015-08-16T13:23:52Z</time>
      </trkpt>
      <trkpt lat="40.555917" lon="-5.098517">
        <ele>1919.0</ele>
        <time>2015-08-16T13:23:53Z</time>
      </trkpt>
      <trkpt lat="40.555933" lon="-5.098600">
        <ele>1918.0</ele>
        <time>2015-08-16T13:23:54Z</time>
      </trkpt>
      <trkpt lat="40.555983" lon="-5.098667">
        <ele>1918.0</ele>
        <time>2015-08-16T13:23:55Z</time>
      </trkpt>
      <trkpt lat="40.556067" lon="-5.098717">
        <ele>1918.0</ele>
        <time>2015-08-16T13:23:56Z</time>
      </trkpt>
      <trkpt lat="40.556150" lon="-5.098750">
        <ele>1919.0</ele>
        <time>2015-08-16T13:23:57Z</time>
      </trkpt>
      <trkpt lat="40.556233" lon="-5.098783">
        <ele>1921.0</ele>
        <time>2015-08-16T13:23:58Z</time>
      </trkpt>
      <trkpt lat="40.556300" lon="-5.098817">
        <ele>1923.0</ele>
        <time>2015-08-16T13:23:59Z</time>
      </trkpt>
      <trkpt lat="40.556350" lon="-5.098833">
        <ele>1926.0</ele>
        <time>2015-08-16T13:24:00Z</time>
      </trkpt>
      <trkpt lat="40.556400" lon="-5.098800">
        <ele>1927.0</ele>
        <time>2015-08-16T13:24:01Z</time>
      </trkpt>
      <trkpt lat="40.556450" lon="-5.098717">
        <ele>1926.0</ele>
        <time>2015-08-16T13:24:02Z</time>
      </trkpt>
      <trkpt lat="40.556500" lon="-5.098583">
        <ele>1924.0</ele>
        <time>2015-08-16T13:24:03Z</time>
      </trkpt>
      <trkpt lat="40.556517" lon="-5.098433">
        <ele>1922.0</ele>
        <time>2015-08-16T13:24:04Z</time>
      </trkpt>
      <trkpt lat="40.556483" lon="-5.098283">
        <ele>1922.0</ele>
        <time>2015-08-16T13:24:05Z</time>
      </trkpt>
      <trkpt lat="40.556433" lon="-5.098150">
        <ele>1923.0</ele>
        <time>2015-08-16T13:24:06Z</time>
      </trkpt>
      <trkpt lat="40.556350" lon="-5.098033">
        <ele>1923.0</ele>
        <time>2015-08-16T13:24:07Z</time>
      </trkpt>
      <trkpt lat="40.556233" lon="-5.097933">
        <ele>1923.0</ele>
        <time>2015-08-16T13:24:08Z</time>
      </trkpt>
      <trkpt lat="40.556133" lon="-5.097867">
        <ele>1922.0</ele>
        <time>2015-08-16T13:24:09Z</time>
      </trkpt>
      <trkpt lat="40.556017" lon="-5.097850">
        <ele>1923.0</ele>
        <time>2015-08-16T13:24:10Z</time>
      </trkpt>
      <trkpt lat="40.555900" lon="-5.097817">
        <ele>1924.0</ele>
        <time>2015-08-16T13:24:11Z</time>
      </trkpt>
      <trkpt lat="40.555783" lon="-5.097783">
        <ele>1925.0</ele>
        <time>2015-08-16T13:24:12Z</time>
      </trkpt>
      <trkpt lat="40.555683" lon="-5.097733">
        <ele>1926.0</ele>
        <time>2015-08-16T13:24:13Z</time>
      </trkpt>
      <trkpt lat="40.555583" lon="-5.097667">
        <ele>1926.0</ele>
        <time>2015-08-16T13:24:14Z</time>
      </trkpt>
      <trkpt lat="40.555483" lon="-5.097617">
        <ele>1927.0</ele>
        <time>2015-08-16T13:24:15Z</time>
      </trkpt>
      <trkpt lat="40.555383" lon="-5.097617">
        <ele>1926.0</ele>
        <time>2015-08-16T13:24:16Z</time>
      </trkpt>
      <trkpt lat="40.555267" lon="-5.097633">
        <ele>1926.0</ele>
        <time>2015-08-16T13:24:17Z</time>
      </trkpt>
      <trkpt lat="40.555183" lon="-5.097683">
        <ele>1924.0</ele>
        <time>2015-08-16T13:24:18Z</time>
      </trkpt>
      <trkpt lat="40.555117" lon="-5.097767">
        <ele>1924.0</ele>
        <time>2015-08-16T13:24:19Z</time>
      </trkpt>
      <trkpt lat="40.555050" lon="-5.097867">
        <ele>1923.0</ele>
        <time>2015-08-16T13:24:20Z</time>
      </trkpt>
      <trkpt lat="40.555017" lon="-5.097967">
        <ele>1922.0</ele>
        <time>2015-08-16T13:24:21Z</time>
      </trkpt>
      <trkpt lat="40.554983" lon="-5.098067">
        <ele>1921.0</ele>
        <time>2015-08-16T13:24:22Z</time>
      </trkpt>
      <trkpt lat="40.554983" lon="-5.098150">
        <ele>1919.0</ele>
        <time>2015-08-16T13:24:23Z</time>
      </trkpt>
      <trkpt lat="40.555000" lon="-5.098250">
        <ele>1918.0</ele>
        <time>2015-08-16T13:24:24Z</time>
      </trkpt>
      <trkpt lat="40.555033" lon="-5.098333">
        <ele>1916.0</ele>
        <time>2015-08-16T13:24:25Z</time>
      </trkpt>
      <trkpt lat="40.555083" lon="-5.098400">
        <ele>1916.0</ele>
        <time>2015-08-16T13:24:26Z</time>
      </trkpt>
      <trkpt lat="40.555150" lon="-5.098450">
        <ele>1915.0</ele>
        <time>2015-08-16T13:24:27Z</time>
      </trkpt>
      <trkpt lat="40.555217" lon="-5.098500">
        <ele>1915.0</ele>
        <time>2015-08-16T13:24:28Z</time>
      </trkpt>
      <trkpt lat="40.555267" lon="-5.098550">
        <ele>1915.0</ele>
        <time>2015-08-16T13:24:29Z</time>
      </trkpt>
      <trkpt lat="40.555317" lon="-5.098600">
        <ele>1914.0</ele>
        <time>2015-08-16T13:24:30Z</time>
      </trkpt>
      <trkpt lat="40.555367" lon="-5.098633">
        <ele>1913.0</ele>
        <time>2015-08-16T13:24:31Z</time>
      </trkpt>
      <trkpt lat="40.555433" lon="-5.098650">
        <ele>1912.0</ele>
        <time>2015-08-16T13:24:32Z</time>
      </trkpt>
      <trkpt lat="40.555517" lon="-5.098650">
        <ele>1910.0</ele>
        <time>2015-08-16T13:24:33Z</time>
      </trkpt>
      <trkpt lat="40.555600" lon="-5.098633">
        <ele>1909.0</ele>
        <time>2015-08-16T13:24:34Z</time>
      </trkpt>
      <trkpt lat="40.555683" lon="-5.098600">
        <ele>1909.0</ele>
        <time>2015-08-16T13:24:35Z</time>
      </trkpt>
      <trkpt lat="40.555767" lon="-5.098567">
        <ele>1909.0</ele>
        <time>2015-08-16T13:24:36Z</time>
      </trkpt>
      <trkpt lat="40.555833" lon="-5.098517">
        <ele>1909.0</ele>
        <time>2015-08-16T13:24:37Z</time>
      </trkpt>
      <trkpt lat="40.555900" lon="-5.098467">
        <ele>1909.0</ele>
        <time>2015-08-16T13:24:38Z</time>
      </trkpt>
      <trkpt lat="40.555950" lon="-5.098417">
        <ele>1908.0</ele>
        <time>2015-08-16T13:24:39Z</time>
      </trkpt>
      <trkpt lat="40.556000" lon="-5.098333">
        <ele>1906.0</ele>
        <time>2015-08-16T13:24:40Z</time>
      </trkpt>
      <trkpt lat="40.556050" lon="-5.098233">
        <ele>1904.0</ele>
        <time>2015-08-16T13:24:41Z</time>
      </trkpt>
      <trkpt lat="40.556117" lon="-5.098117">
        <ele>1902.0</ele>
        <time>2015-08-16T13:24:42Z</time>
      </trkpt>
      <trkpt lat="40.556167" lon="-5.097983">
        <ele>1901.0</ele>
        <time>2015-08-16T13:24:43Z</time>
      </trkpt>
      <trkpt lat="40.556217" lon="-5.097867">
        <ele>1899.0</ele>
        <time>2015-08-16T13:24:44Z</time>
      </trkpt>
      <trkpt lat="40.556267" lon="-5.097733">
        <ele>1898.0</ele>
        <time>2015-08-16T13:24:45Z</time>
      </trkpt>
      <trkpt lat="40.556300" lon="-5.097600">
        <ele>1898.0</ele>
        <time>2015-08-16T13:24:46Z</time>
      </trkpt>
      <trkpt lat="40.556350" lon="-5.097450">
        <ele>1897.0</ele>
        <time>2015-08-16T13:24:47Z</time>
      </trkpt>
      <trkpt lat="40.556367" lon="-5.097317">
        <ele>1897.0</ele>
        <time>2015-08-16T13:24:48Z</time>
      </trkpt>
      <trkpt lat="40.556400" lon="-5.097167">
        <ele>1897.0</ele>
        <time>2015-08-16T13:24:49Z</time>
      </trkpt>
      <trkpt lat="40.556417" lon="-5.097017">
        <ele>1897.0</ele>
        <time>2015-08-16T13:24:50Z</time>
      </trkpt>
      <trkpt lat="40.556450" lon="-5.096850">
        <ele>1898.0</ele>
        <time>2015-08-16T13:24:51Z</time>
      </trkpt>
      <trkpt lat="40.556483" lon="-5.096717">
        <ele>1900.0</ele>
        <time>2015-08-16T13:24:52Z</time>
      </trkpt>
      <trkpt lat="40.556533" lon="-5.096583">
        <ele>1901.0</ele>
        <time>2015-08-16T13:24:53Z</time>
      </trkpt>
      <trkpt lat="40.556567" lon="-5.096467">
        <ele>1903.0</ele>
        <time>2015-08-16T13:24:54Z</time>
      </trkpt>
      <trkpt lat="40.556617" lon="-5.096367">
        <ele>1903.0</ele>
        <time>2015-08-16T13:24:55Z</time>
      </trkpt>
      <trkpt lat="40.556650" lon="-5.096233">
        <ele>1903.0</ele>
        <time>2015-08-16T13:24:56Z</time>
      </trkpt>
      <trkpt lat="40.556683" lon="-5.096100">
        <ele>1902.0</ele>
        <time>2015-08-16T13:24:57Z</time>
      </trkpt>
      <trkpt lat="40.556700" lon="-5.095950">
        <ele>1902.0</ele>
        <time>2015-08-16T13:24:58Z</time>
      </trkpt>
      <trkpt lat="40.556717" lon="-5.095783">
        <ele>1902.0</ele>
        <time>2015-08-16T13:24:59Z</time>
      </trkpt>
      <trkpt lat="40.556733" lon="-5.095617">
        <ele>1902.0</ele>
        <time>2015-08-16T13:25:00Z</time>
      </trkpt>
      <trkpt lat="40.556767" lon="-5.095467">
        <ele>1903.0</ele>
        <time>2015-08-16T13:25:01Z</time>
      </trkpt>
      <trkpt lat="40.556800" lon="-5.095333">
        <ele>1904.0</ele>
        <time>2015-08-16T13:25:02Z</time>
      </trkpt>
      <trkpt lat="40.556850" lon="-5.095183">
        <ele>1905.0</ele>
        <time>2015-08-16T13:25:03Z</time>
      </trkpt>
      <trkpt lat="40.556883" lon="-5.095033">
        <ele>1907.0</ele>
        <time>2015-08-16T13:25:04Z</time>
      </trkpt>
      <trkpt lat="40.556917" lon="-5.094900">
        <ele>1908.0</ele>
        <time>2015-08-16T13:25:05Z</time>
      </trkpt>
      <trkpt lat="40.556950" lon="-5.094750">
        <ele>1909.0</ele>
        <time>2015-08-16T13:25:06Z</time>
      </trkpt>
      <trkpt lat="40.556983" lon="-5.094617">
        <ele>1910.0</ele>
        <time>2015-08-16T13:25:07Z</time>
      </trkpt>
      <trkpt lat="40.556983" lon="-5.094467">
        <ele>1910.0</ele>
        <time>2015-08-16T13:25:08Z</time>
      </trkpt>
      <trkpt lat="40.556967" lon="-5.094317">
        <ele>1909.0</ele>
        <time>2015-08-16T13:25:09Z</time>
      </trkpt>
      <trkpt lat="40.556917" lon="-5.094150">
        <ele>1908.0</ele>
        <time>2015-08-16T13:25:10Z</time>
      </trkpt>
      <trkpt lat="40.556833" lon="-5.094017">
        <ele>1907.0</ele>
        <time>2015-08-16T13:25:11Z</time>
      </trkpt>
      <trkpt lat="40.556733" lon="-5.093933">
        <ele>1907.0</ele>
        <time>2015-08-16T13:25:12Z</time>
      </trkpt>
      <trkpt lat="40.556633" lon="-5.093867">
        <ele>1908.0</ele>
        <time>2015-08-16T13:25:13Z</time>
      </trkpt>
      <trkpt lat="40.556533" lon="-5.093867">
        <ele>1907.0</ele>
        <time>2015-08-16T13:25:14Z</time>
      </trkpt>
      <trkpt lat="40.556450" lon="-5.093900">
        <ele>1906.0</ele>
        <time>2015-08-16T13:25:15Z</time>
      </trkpt>
      <trkpt lat="40.556367" lon="-5.093983">
        <ele>1905.0</ele>
        <time>2015-08-16T13:25:16Z</time>
      </trkpt>
      <trkpt lat="40.556317" lon="-5.094067">
        <ele>1905.0</ele>
        <time>2015-08-16T13:25:17Z</time>
      </trkpt>
      <trkpt lat="40.556283" lon="-5.094167">
        <ele>1906.0</ele>
        <time>2015-08-16T13:25:18Z</time>
      </trkpt>
      <trkpt lat="40.556267" lon="-5.094250">
        <ele>1907.0</ele>
        <time>2015-08-16T13:25:19Z</time>
      </trkpt>
      <trkpt lat="40.556283" lon="-5.094317">
        <ele>1906.0</ele>
        <time>2015-08-16T13:25:20Z</time>
      </trkpt>
      <trkpt lat="40.556300" lon="-5.094383">
        <ele>1905.0</ele>
        <time>2015-08-16T13:25:21Z</time>
      </trkpt>
      <trkpt lat="40.556333" lon="-5.094467">
        <ele>1904.0</ele>
        <time>2015-08-16T13:25:22Z</time>
      </trkpt>
      <trkpt lat="40.556367" lon="-5.094550">
        <ele>1904.0</ele>
        <time>2015-08-16T13:25:23Z</time>
      </trkpt>
      <trkpt lat="40.556417" lon="-5.094633">
        <ele>1905.0</ele>
        <time>2015-08-16T13:25:24Z</time>
      </trkpt>
      <trkpt lat="40.556483" lon="-5.094700">
        <ele>1907.0</ele>
        <time>2015-08-16T13:25:25Z</time>
      </trkpt>
      <trkpt lat="40.556533" lon="-5.094733">
        <ele>1909.0</ele>
        <time>2015-08-16T13:25:26Z</time>
      </trkpt>
      <trkpt lat="40.556583" lon="-5.094783">
        <ele>1910.0</ele>
        <time>2015-08-16T13:25:27Z</time>
      </trkpt>
      <trkpt lat="40.556617" lon="-5.094817">
        <ele>1911.0</ele>
        <time>2015-08-16T13:25:28Z</time>
      </trkpt>
      <trkpt lat="40.556667" lon="-5.094850">
        <ele>1910.0</ele>
        <time>2015-08-16T13:25:29Z</time>
      </trkpt>
      <trkpt lat="40.556733" lon="-5.094867">
        <ele>1909.0</ele>
        <time>2015-08-16T13:25:30Z</time>
      </trkpt>
      <trkpt lat="40.556800" lon="-5.094867">
        <ele>1909.0</ele>
        <time>2015-08-16T13:25:31Z</time>
      </trkpt>
      <trkpt lat="40.556883" lon="-5.094833">
        <ele>1908.0</ele>
        <time>2015-08-16T13:25:32Z</time>
      </trkpt>
      <trkpt lat="40.556967" lon="-5.094750">
        <ele>1907.0</ele>
        <time>2015-08-16T13:25:33Z</time>
      </trkpt>
      <trkpt lat="40.557017" lon="-5.094667">
        <ele>1908.0</ele>
        <time>2015-08-16T13:25:34Z</time>
      </trkpt>
      <trkpt lat="40.557067" lon="-5.094550">
        <ele>1908.0</ele>
        <time>2015-08-16T13:25:35Z</time>
      </trkpt>
      <trkpt lat="40.557100" lon="-5.094450">
        <ele>1907.0</ele>
        <time>2015-08-16T13:25:36Z</time>
      </trkpt>
      <trkpt lat="40.557150" lon="-5.094333">
        <ele>1905.0</ele>
        <time>2015-08-16T13:25:37Z</time>
      </trkpt>
      <trkpt lat="40.557183" lon="-5.094200">
        <ele>1903.0</ele>
        <time>2015-08-16T13:25:38Z</time>
      </trkpt>
      <trkpt lat="40.557250" lon="-5.094050">
        <ele>1901.0</ele>
        <time>2015-08-16T13:25:39Z</time>
      </trkpt>
      <trkpt lat="40.557300" lon="-5.093900">
        <ele>1901.0</ele>
        <time>2015-08-16T13:25:40Z</time>
      </trkpt>
      <trkpt lat="40.557333" lon="-5.093750">
        <ele>1902.0</ele>
        <time>2015-08-16T13:25:41Z</time>
      </trkpt>
      <trkpt lat="40.557383" lon="-5.093600">
        <ele>1903.0</ele>
        <time>2015-08-16T13:25:42Z</time>
      </trkpt>
      <trkpt lat="40.557417" lon="-5.093467">
        <ele>1904.0</ele>
        <time>2015-08-16T13:25:43Z</time>
      </trkpt>
      <trkpt lat="40.557433" lon="-5.093317">
        <ele>1903.0</ele>
        <time>2015-08-16T13:25:44Z</time>
      </trkpt>
      <trkpt lat="40.557450" lon="-5.093167">
        <ele>1903.0</ele>
        <time>2015-08-16T13:25:45Z</time>
      </trkpt>
      <trkpt lat="40.557483" lon="-5.093017">
        <ele>1902.0</ele>
        <time>2015-08-16T13:25:46Z</time>
      </trkpt>
      <trkpt lat="40.557500" lon="-5.092867">
        <ele>1902.0</ele>
        <time>2015-08-16T13:25:47Z</time>
      </trkpt>
      <trkpt lat="40.557533" lon="-5.092717">
        <ele>1900.0</ele>
        <time>2015-08-16T13:25:48Z</time>
      </trkpt>
      <trkpt lat="40.557583" lon="-5.092550">
        <ele>1899.0</ele>
        <time>2015-08-16T13:25:49Z</time>
      </trkpt>
      <trkpt lat="40.557633" lon="-5.092383">
        <ele>1898.0</ele>
        <time>2015-08-16T13:25:50Z</time>
      </trkpt>
      <trkpt lat="40.557683" lon="-5.092233">
        <ele>1898.0</ele>
        <time>2015-08-16T13:25:51Z</time>
      </trkpt>
      <trkpt lat="40.557717" lon="-5.092067">
        <ele>1899.0</ele>
        <time>2015-08-16T13:25:52Z</time>
      </trkpt>
      <trkpt lat="40.557750" lon="-5.091933">
        <ele>1900.0</ele>
        <time>2015-08-16T13:25:53Z</time>
      </trkpt>
      <trkpt lat="40.557767" lon="-5.091800">
        <ele>1900.0</ele>
        <time>2015-08-16T13:25:54Z</time>
      </trkpt>
      <trkpt lat="40.557817" lon="-5.091667">
        <ele>1899.0</ele>
        <time>2015-08-16T13:25:55Z</time>
      </trkpt>
      <trkpt lat="40.557867" lon="-5.091533">
        <ele>1898.0</ele>
        <time>2015-08-16T13:25:56Z</time>
      </trkpt>
      <trkpt lat="40.557933" lon="-5.091400">
        <ele>1897.0</ele>
        <time>2015-08-16T13:25:57Z</time>
      </trkpt>
      <trkpt lat="40.557983" lon="-5.091250">
        <ele>1897.0</ele>
        <time>2015-08-16T13:25:58Z</time>
      </trkpt>
      <trkpt lat="40.558033" lon="-5.091083">
        <ele>1898.0</ele>
        <time>2015-08-16T13:25:59Z</time>
      </trkpt>
      <trkpt lat="40.558083" lon="-5.090933">
        <ele>1899.0</ele>
        <time>2015-08-16T13:26:00Z</time>
      </trkpt>
      <trkpt lat="40.558117" lon="-5.090783">
        <ele>1900.0</ele>
        <time>2015-08-16T13:26:01Z</time>
      </trkpt>
      <trkpt lat="40.558167" lon="-5.090617">
        <ele>1901.0</ele>
        <time>2015-08-16T13:26:02Z</time>
      </trkpt>
      <trkpt lat="40.558217" lon="-5.090467">
        <ele>1901.0</ele>
        <time>2015-08-16T13:26:03Z</time>
      </trkpt>
      <trkpt lat="40.558267" lon="-5.090300">
        <ele>1902.0</ele>
        <time>2015-08-16T13:26:04Z</time>
      </trkpt>
      <trkpt lat="40.558317" lon="-5.090133">
        <ele>1903.0</ele>
        <time>2015-08-16T13:26:05Z</time>
      </trkpt>
      <trkpt lat="40.558367" lon="-5.089983">
        <ele>1905.0</ele>
        <time>2015-08-16T13:26:06Z</time>
      </trkpt>
      <trkpt lat="40.558417" lon="-5.089833">
        <ele>1906.0</ele>
        <time>2015-08-16T13:26:07Z</time>
      </trkpt>
      <trkpt lat="40.558450" lon="-5.089700">
        <ele>1907.0</ele>
        <time>2015-08-16T13:26:08Z</time>
      </trkpt>
      <trkpt lat="40.558483" lon="-5.089533">
        <ele>1908.0</ele>
        <time>2015-08-16T13:26:09Z</time>
      </trkpt>
      <trkpt lat="40.558483" lon="-5.089367">
        <ele>1908.0</ele>
        <time>2015-08-16T13:26:10Z</time>
      </trkpt>
      <trkpt lat="40.558433" lon="-5.089200">
        <ele>1909.0</ele>
        <time>2015-08-16T13:26:11Z</time>
      </trkpt>
      <trkpt lat="40.558383" lon="-5.089050">
        <ele>1909.0</ele>
        <time>2015-08-16T13:26:12Z</time>
      </trkpt>
      <trkpt lat="40.558283" lon="-5.088933">
        <ele>1909.0</ele>
        <time>2015-08-16T13:26:13Z</time>
      </trkpt>
      <trkpt lat="40.558183" lon="-5.088883">
        <ele>1909.0</ele>
        <time>2015-08-16T13:26:14Z</time>
      </trkpt>
      <trkpt lat="40.558083" lon="-5.088883">
        <ele>1909.0</ele>
        <time>2015-08-16T13:26:15Z</time>
      </trkpt>
      <trkpt lat="40.558017" lon="-5.088950">
        <ele>1908.0</ele>
        <time>2015-08-16T13:26:16Z</time>
      </trkpt>
      <trkpt lat="40.557983" lon="-5.089033">
        <ele>1908.0</ele>
        <time>2015-08-16T13:26:17Z</time>
      </trkpt>
      <trkpt lat="40.557983" lon="-5.089133">
        <ele>1908.0</ele>
        <time>2015-08-16T13:26:18Z</time>
      </trkpt>
      <trkpt lat="40.558000" lon="-5.089217">
        <ele>1909.0</ele>
        <time>2015-08-16T13:26:19Z</time>
      </trkpt>
      <trkpt lat="40.558050" lon="-5.089283">
        <ele>1910.0</ele>
        <time>2015-08-16T13:26:20Z</time>
      </trkpt>
      <trkpt lat="40.558100" lon="-5.089333">
        <ele>1910.0</ele>
        <time>2015-08-16T13:26:21Z</time>
      </trkpt>
      <trkpt lat="40.558183" lon="-5.089383">
        <ele>1910.0</ele>
        <time>2015-08-16T13:26:22Z</time>
      </trkpt>
      <trkpt lat="40.558250" lon="-5.089433">
        <ele>1910.0</ele>
        <time>2015-08-16T13:26:23Z</time>
      </trkpt>
      <trkpt lat="40.558333" lon="-5.089483">
        <ele>1911.0</ele>
        <time>2015-08-16T13:26:24Z</time>
      </trkpt>
      <trkpt lat="40.558417" lon="-5.089533">
        <ele>1912.0</ele>
        <time>2015-08-16T13:26:25Z</time>
      </trkpt>
      <trkpt lat="40.558517" lon="-5.089550">
        <ele>1914.0</ele>
        <time>2015-08-16T13:26:26Z</time>
      </trkpt>
      <trkpt lat="40.558600" lon="-5.089550">
        <ele>1916.0</ele>
        <time>2015-08-16T13:26:27Z</time>
      </trkpt>
      <trkpt lat="40.558700" lon="-5.089550">
        <ele>1918.0</ele>
        <time>2015-08-16T13:26:28Z</time>
      </trkpt>
      <trkpt lat="40.558800" lon="-5.089550">
        <ele>1920.0</ele>
        <time>2015-08-16T13:26:29Z</time>
      </trkpt>
      <trkpt lat="40.558883" lon="-5.089533">
        <ele>1922.0</ele>
        <time>2015-08-16T13:26:30Z</time>
      </trkpt>
      <trkpt lat="40.558983" lon="-5.089517">
        <ele>1925.0</ele>
        <time>2015-08-16T13:26:31Z</time>
      </trkpt>
      <trkpt lat="40.559067" lon="-5.089450">
        <ele>1929.0</ele>
        <time>2015-08-16T13:26:32Z</time>
      </trkpt>
      <trkpt lat="40.559133" lon="-5.089333">
        <ele>1932.0</ele>
        <time>2015-08-16T13:26:33Z</time>
      </trkpt>
      <trkpt lat="40.559183" lon="-5.089167">
        <ele>1934.0</ele>
        <time>2015-08-16T13:26:34Z</time>
      </trkpt>
      <trkpt lat="40.559167" lon="-5.088983">
        <ele>1936.0</ele>
        <time>2015-08-16T13:26:35Z</time>
      </trkpt>
      <trkpt lat="40.559133" lon="-5.088800">
        <ele>1939.0</ele>
        <time>2015-08-16T13:26:36Z</time>
      </trkpt>
      <trkpt lat="40.559050" lon="-5.088650">
        <ele>1942.0</ele>
        <time>2015-08-16T13:26:37Z</time>
      </trkpt>
      <trkpt lat="40.558933" lon="-5.088567">
        <ele>1944.0</ele>
        <time>2015-08-16T13:26:38Z</time>
      </trkpt>
      <trkpt lat="40.558833" lon="-5.088533">
        <ele>1946.0</ele>
        <time>2015-08-16T13:26:39Z</time>
      </trkpt>
      <trkpt lat="40.558733" lon="-5.088550">
        <ele>1947.0</ele>
        <time>2015-08-16T13:26:40Z</time>
      </trkpt>
      <trkpt lat="40.558683" lon="-5.088617">
        <ele>1949.0</ele>
        <time>2015-08-16T13:26:41Z</time>
      </trkpt>
      <trkpt lat="40.558667" lon="-5.088700">
        <ele>1951.0</ele>
        <time>2015-08-16T13:26:42Z</time>
      </trkpt>
      <trkpt lat="40.558683" lon="-5.088767">
        <ele>1952.0</ele>
        <time>2015-08-16T13:26:43Z</time>
      </trkpt>
      <trkpt lat="40.558750" lon="-5.088817">
        <ele>1952.0</ele>
        <time>2015-08-16T13:26:44Z</time>
      </trkpt>
      <trkpt lat="40.558833" lon="-5.088833">
        <ele>1953.0</ele>
        <time>2015-08-16T13:26:45Z</time>
      </trkpt>
      <trkpt lat="40.558950" lon="-5.088817">
        <ele>1956.0</ele>
        <time>2015-08-16T13:26:46Z</time>
      </trkpt>
      <trkpt lat="40.559050" lon="-5.088750">
        <ele>1959.0</ele>
        <time>2015-08-16T13:26:47Z</time>
      </trkpt>
      <trkpt lat="40.559150" lon="-5.088667">
        <ele>1964.0</ele>
        <time>2015-08-16T13:26:48Z</time>
      </trkpt>
      <trkpt lat="40.559217" lon="-5.088583">
        <ele>1969.0</ele>
        <time>2015-08-16T13:26:49Z</time>
      </trkpt>
      <trkpt lat="40.559267" lon="-5.088483">
        <ele>1973.0</ele>
        <time>2015-08-16T13:26:50Z</time>
      </trkpt>
      <trkpt lat="40.559300" lon="-5.088367">
        <ele>1976.0</ele>
        <time>2015-08-16T13:26:51Z</time>
      </trkpt>
      <trkpt lat="40.559333" lon="-5.088233">
        <ele>1977.0</ele>
        <time>2015-08-16T13:26:52Z</time>
      </trkpt>
      <trkpt lat="40.559350" lon="-5.088067">
        <ele>1978.0</ele>
        <time>2015-08-16T13:26:53Z</time>
      </trkpt>
      <trkpt lat="40.559317" lon="-5.087883">
        <ele>1978.0</ele>
        <time>2015-08-16T13:26:54Z</time>
      </trkpt>
      <trkpt lat="40.559267" lon="-5.087700">
        <ele>1979.0</ele>
        <time>2015-08-16T13:26:55Z</time>
      </trkpt>
      <trkpt lat="40.559167" lon="-5.087550">
        <ele>1981.0</ele>
        <time>2015-08-16T13:26:56Z</time>
      </trkpt>
      <trkpt lat="40.559067" lon="-5.087433">
        <ele>1985.0</ele>
        <time>2015-08-16T13:26:57Z</time>
      </trkpt>
      <trkpt lat="40.558967" lon="-5.087367">
        <ele>1989.0</ele>
        <time>2015-08-16T13:26:58Z</time>
      </trkpt>
      <trkpt lat="40.558867" lon="-5.087333">
        <ele>1992.0</ele>
        <time>2015-08-16T13:26:59Z</time>
      </trkpt>
      <trkpt lat="40.558767" lon="-5.087350">
        <ele>1995.0</ele>
        <time>2015-08-16T13:27:00Z</time>
      </trkpt>
      <trkpt lat="40.558700" lon="-5.087400">
        <ele>1997.0</ele>
        <time>2015-08-16T13:27:01Z</time>
      </trkpt>
      <trkpt lat="40.558650" lon="-5.087467">
        <ele>1999.0</ele>
        <time>2015-08-16T13:27:02Z</time>
      </trkpt>
      <trkpt lat="40.558633" lon="-5.087550">
        <ele>2001.0</ele>
        <time>2015-08-16T13:27:03Z</time>
      </trkpt>
      <trkpt lat="40.558650" lon="-5.087650">
        <ele>2003.0</ele>
        <time>2015-08-16T13:27:04Z</time>
      </trkpt>
      <trkpt lat="40.558683" lon="-5.087717">
        <ele>2006.0</ele>
        <time>2015-08-16T13:27:05Z</time>
      </trkpt>
      <trkpt lat="40.558733" lon="-5.087767">
        <ele>2008.0</ele>
        <time>2015-08-16T13:27:06Z</time>
      </trkpt>
      <trkpt lat="40.558817" lon="-5.087800">
        <ele>2010.0</ele>
        <time>2015-08-16T13:27:07Z</time>
      </trkpt>
      <trkpt lat="40.558900" lon="-5.087800">
        <ele>2014.0</ele>
        <time>2015-08-16T13:27:08Z</time>
      </trkpt>
      <trkpt lat="40.558983" lon="-5.087783">
        <ele>2017.0</ele>
        <time>2015-08-16T13:27:09Z</time>
      </trkpt>
      <trkpt lat="40.559083" lon="-5.087750">
        <ele>2020.0</ele>
        <time>2015-08-16T13:27:10Z</time>
      </trkpt>
      <trkpt lat="40.559150" lon="-5.087650">
        <ele>2023.0</ele>
        <time>2015-08-16T13:27:11Z</time>
      </trkpt>
      <trkpt lat="40.559217" lon="-5.087517">
        <ele>2025.0</ele>
        <time>2015-08-16T13:27:12Z</time>
      </trkpt>
      <trkpt lat="40.559233" lon="-5.087350">
        <ele>2027.0</ele>
        <time>2015-08-16T13:27:13Z</time>
      </trkpt>
      <trkpt lat="40.559217" lon="-5.087183">
        <ele>2028.0</ele>
        <time>2015-08-16T13:27:14Z</time>
      </trkpt>
      <trkpt lat="40.559167" lon="-5.087017">
        <ele>2028.0</ele>
        <time>2015-08-16T13:27:15Z</time>
      </trkpt>
      <trkpt lat="40.559067" lon="-5.086883">
        <ele>2029.0</ele>
        <time>2015-08-16T13:27:16Z</time>
      </trkpt>
      <trkpt lat="40.558950" lon="-5.086800">
        <ele>2030.0</ele>
        <time>2015-08-16T13:27:17Z</time>
      </trkpt>
      <trkpt lat="40.558833" lon="-5.086767">
        <ele>2032.0</ele>
        <time>2015-08-16T13:27:18Z</time>
      </trkpt>
      <trkpt lat="40.558733" lon="-5.086750">
        <ele>2036.0</ele>
        <time>2015-08-16T13:27:19Z</time>
      </trkpt>
      <trkpt lat="40.558650" lon="-5.086767">
        <ele>2041.0</ele>
        <time>2015-08-16T13:27:20Z</time>
      </trkpt>
      <trkpt lat="40.558583" lon="-5.086800">
        <ele>2045.0</ele>
        <time>2015-08-16T13:27:21Z</time>
      </trkpt>
      <trkpt lat="40.558550" lon="-5.086850">
        <ele>2047.0</ele>
        <time>2015-08-16T13:27:22Z</time>
      </trkpt>
      <trkpt lat="40.558517" lon="-5.086917">
        <ele>2049.0</ele>
        <time>2015-08-16T13:27:23Z</time>
      </trkpt>
      <trkpt lat="40.558517" lon="-5.087000">
        <ele>2050.0</ele>
        <time>2015-08-16T13:27:24Z</time>
      </trkpt>
      <trkpt lat="40.558550" lon="-5.087067">
        <ele>2052.0</ele>
        <time>2015-08-16T13:27:25Z</time>
      </trkpt>
      <trkpt lat="40.558633" lon="-5.087117">
        <ele>2053.0</ele>
        <time>2015-08-16T13:27:26Z</time>
      </trkpt>
      <trkpt lat="40.558750" lon="-5.087100">
        <ele>2053.0</ele>
        <time>2015-08-16T13:27:27Z</time>
      </trkpt>
      <trkpt lat="40.558867" lon="-5.087033">
        <ele>2055.0</ele>
        <time>2015-08-16T13:27:28Z</time>
      </trkpt>
      <trkpt lat="40.558967" lon="-5.086900">
        <ele>2059.0</ele>
        <time>2015-08-16T13:27:29Z</time>
      </trkpt>
      <trkpt lat="40.559017" lon="-5.086733">
        <ele>2063.0</ele>
        <time>2015-08-16T13:27:30Z</time>
      </trkpt>
      <trkpt lat="40.559033" lon="-5.086583">
        <ele>2066.0</ele>
        <time>2015-08-16T13:27:31Z</time>
      </trkpt>
      <trkpt lat="40.559017" lon="-5.086417">
        <ele>2068.0</ele>
        <time>2015-08-16T13:27:32Z</time>
      </trkpt>
      <trkpt lat="40.559000" lon="-5.086250">
        <ele>2070.0</ele>
        <time>2015-08-16T13:27:33Z</time>
      </trkpt>
      <trkpt lat="40.558983" lon="-5.086083">
        <ele>2072.0</ele>
        <time>2015-08-16T13:27:34Z</time>
      </trkpt>
      <trkpt lat="40.558950" lon="-5.085933">
        <ele>2073.0</ele>
        <time>2015-08-16T13:27:35Z</time>
      </trkpt>
      <trkpt lat="40.558883" lon="-5.085767">
        <ele>2075.0</ele>
        <time>2015-08-16T13:27:36Z</time>
      </trkpt>
      <trkpt lat="40.558800" lon="-5.085633">
        <ele>2077.0</ele>
        <time>2015-08-16T13:27:37Z</time>
      </trkpt>
      <trkpt lat="40.558683" lon="-5.085550">
        <ele>2080.0</ele>
        <time>2015-08-16T13:27:38Z</time>
      </trkpt>
      <trkpt lat="40.558583" lon="-5.085483">
        <ele>2084.0</ele>
        <time>2015-08-16T13:27:39Z</time>
      </trkpt>
      <trkpt lat="40.558500" lon="-5.085483">
        <ele>2087.0</ele>
        <time>2015-08-16T13:27:40Z</time>
      </trkpt>
      <trkpt lat="40.558417" lon="-5.085500">
        <ele>2089.0</ele>
        <time>2015-08-16T13:27:41Z</time>
      </trkpt>
      <trkpt lat="40.558367" lon="-5.085533">
        <ele>2091.0</ele>
        <time>2015-08-16T13:27:42Z</time>
      </trkpt>
      <trkpt lat="40.558317" lon="-5.085617">
        <ele>2092.0</ele>
        <time>2015-08-16T13:27:43Z</time>
      </trkpt>
      <trkpt lat="40.558283" lon="-5.085683">
        <ele>2094.0</ele>
        <time>2015-08-16T13:27:44Z</time>
      </trkpt>
      <trkpt lat="40.558283" lon="-5.085767">
        <ele>2096.0</ele>
        <time>2015-08-16T13:27:45Z</time>
      </trkpt>
      <trkpt lat="40.558317" lon="-5.085850">
        <ele>2097.0</ele>
        <time>2015-08-16T13:27:46Z</time>
      </trkpt>
      <trkpt lat="40.558367" lon="-5.085917">
        <ele>2098.0</ele>
        <time>2015-08-16T13:27:47Z</time>
      </trkpt>
      <trkpt lat="40.558450" lon="-5.085950">
        <ele>2099.0</ele>
        <time>2015-08-16T13:27:48Z</time>
      </trkpt>
      <trkpt lat="40.558550" lon="-5.085983">
        <ele>2100.0</ele>
        <time>2015-08-16T13:27:49Z</time>
      </trkpt>
      <trkpt lat="40.558650" lon="-5.085983">
        <ele>2104.0</ele>
        <time>2015-08-16T13:27:50Z</time>
      </trkpt>
      <trkpt lat="40.558750" lon="-5.085950">
        <ele>2108.0</ele>
        <time>2015-08-16T13:27:51Z</time>
      </trkpt>
      <trkpt lat="40.558817" lon="-5.085900">
        <ele>2111.0</ele>
        <time>2015-08-16T13:27:52Z</time>
      </trkpt>
      <trkpt lat="40.558883" lon="-5.085833">
        <ele>2113.0</ele>
        <time>2015-08-16T13:27:53Z</time>
      </trkpt>
      <trkpt lat="40.558967" lon="-5.085750">
        <ele>2113.0</ele>
        <time>2015-08-16T13:27:54Z</time>
      </trkpt>
      <trkpt lat="40.559033" lon="-5.085617">
        <ele>2112.0</ele>
        <time>2015-08-16T13:27:55Z</time>
      </trkpt>
      <trkpt lat="40.559100" lon="-5.085467">
        <ele>2112.0</ele>
        <time>2015-08-16T13:27:56Z</time>
      </trkpt>
      <trkpt lat="40.559150" lon="-5.085267">
        <ele>2113.0</ele>
        <time>2015-08-16T13:27:57Z</time>
      </trkpt>
      <trkpt lat="40.559167" lon="-5.085083">
        <ele>2116.0</ele>
        <time>2015-08-16T13:27:58Z</time>
      </trkpt>
      <trkpt lat="40.559167" lon="-5.084917">
        <ele>2118.0</ele>
        <time>2015-08-16T13:27:59Z</time>
      </trkpt>
      <trkpt lat="40.559133" lon="-5.084750">
        <ele>2120.0</ele>
        <time>2015-08-16T13:28:00Z</time>
      </trkpt>
      <trkpt lat="40.559117" lon="-5.084583">
        <ele>2122.0</ele>
        <time>2015-08-16T13:28:01Z</time>
      </trkpt>
      <trkpt lat="40.559067" lon="-5.084433">
        <ele>2123.0</ele>
        <time>2015-08-16T13:28:02Z</time>
      </trkpt>
      <trkpt lat="40.558983" lon="-5.084283">
        <ele>2124.0</ele>
        <time>2015-08-16T13:28:03Z</time>
      </trkpt>
      <trkpt lat="40.558900" lon="-5.084150">
        <ele>2125.0</ele>
        <time>2015-08-16T13:28:04Z</time>
      </trkpt>
      <trkpt lat="40.558800" lon="-5.084033">
        <ele>2128.0</ele>
        <time>2015-08-16T13:28:05Z</time>
      </trkpt>
      <trkpt lat="40.558700" lon="-5.083950">
        <ele>2131.0</ele>
        <time>2015-08-16T13:28:06Z</time>
      </trkpt>
      <trkpt lat="40.558600" lon="-5.083883">
        <ele>2134.0</ele>
        <time>2015-08-16T13:28:07Z</time>
      </trkpt>
      <trkpt lat="40.558483" lon="-5.083867">
        <ele>2136.0</ele>
        <time>2015-08-16T13:28:08Z</time>
      </trkpt>
      <trkpt lat="40.558383" lon="-5.083883">
        <ele>2138.0</ele>
        <time>2015-08-16T13:28:09Z</time>
      </trkpt>
      <trkpt lat="40.558317" lon="-5.083933">
        <ele>2140.0</ele>
        <time>2015-08-16T13:28:10Z</time>
      </trkpt>
      <trkpt lat="40.558267" lon="-5.084000">
        <ele>2143.0</ele>
        <time>2015-08-16T13:28:11Z</time>
      </trkpt>
      <trkpt lat="40.558250" lon="-5.084083">
        <ele>2144.0</ele>
        <time>2015-08-16T13:28:12Z</time>
      </trkpt>
      <trkpt lat="40.558250" lon="-5.084150">
        <ele>2146.0</ele>
        <time>2015-08-16T13:28:13Z</time>
      </trkpt>
      <trkpt lat="40.558283" lon="-5.084233">
        <ele>2147.0</ele>
        <time>2015-08-16T13:28:14Z</time>
      </trkpt>
      <trkpt lat="40.558333" lon="-5.084283">
        <ele>2148.0</ele>
        <time>2015-08-16T13:28:15Z</time>
      </trkpt>
      <trkpt lat="40.558417" lon="-5.084333">
        <ele>2148.0</ele>
        <time>2015-08-16T13:28:16Z</time>
      </trkpt>
      <trkpt lat="40.558517" lon="-5.084367">
        <ele>2148.0</ele>
        <time>2015-08-16T13:28:17Z</time>
      </trkpt>
      <trkpt lat="40.558617" lon="-5.084333">
        <ele>2150.0</ele>
        <time>2015-08-16T13:28:18Z</time>
      </trkpt>
      <trkpt lat="40.558717" lon="-5.084267">
        <ele>2151.0</ele>
        <time>2015-08-16T13:28:19Z</time>
      </trkpt>
      <trkpt lat="40.558817" lon="-5.084150">
        <ele>2152.0</ele>
        <time>2015-08-16T13:28:20Z</time>
      </trkpt>
      <trkpt lat="40.558883" lon="-5.084000">
        <ele>2154.0</ele>
        <time>2015-08-16T13:28:21Z</time>
      </trkpt>
      <trkpt lat="40.558917" lon="-5.083833">
        <ele>2157.0</ele>
        <time>2015-08-16T13:28:22Z</time>
      </trkpt>
      <trkpt lat="40.558917" lon="-5.083667">
        <ele>2159.0</ele>
        <time>2015-08-16T13:28:23Z</time>
      </trkpt>
      <trkpt lat="40.558883" lon="-5.083500">
        <ele>2160.0</ele>
        <time>2015-08-16T13:28:24Z</time>
      </trkpt>
      <trkpt lat="40.558833" lon="-5.083317">
        <ele>2161.0</ele>
        <time>2015-08-16T13:28:25Z</time>
      </trkpt>
      <trkpt lat="40.558750" lon="-5.083167">
        <ele>2162.0</ele>
        <time>2015-08-16T13:28:26Z</time>
      </trkpt>
      <trkpt lat="40.558633" lon="-5.083050">
        <ele>2165.0</ele>
        <time>2015-08-16T13:28:27Z</time>
      </trkpt>
      <trkpt lat="40.558533" lon="-5.082983">
        <ele>2169.0</ele>
        <time>2015-08-16T13:28:28Z</time>
      </trkpt>
      <trkpt lat="40.558450" lon="-5.082967">
        <ele>2171.0</ele>
        <time>2015-08-16T13:28:29Z</time>
      </trkpt>
      <trkpt lat="40.558367" lon="-5.083000">
        <ele>2173.0</ele>
        <time>2015-08-16T13:28:30Z</time>
      </trkpt>
      <trkpt lat="40.558317" lon="-5.083050">
        <ele>2174.0</ele>
        <time>2015-08-16T13:28:31Z</time>
      </trkpt>
      <trkpt lat="40.558283" lon="-5.083133">
        <ele>2175.0</ele>
        <time>2015-08-16T13:28:32Z</time>
      </trkpt>
      <trkpt lat="40.558267" lon="-5.083200">
        <ele>2177.0</ele>
        <time>2015-08-16T13:28:33Z</time>
      </trkpt>
      <trkpt lat="40.558283" lon="-5.083283">
        <ele>2177.0</ele>
        <time>2015-08-16T13:28:34Z</time>
      </trkpt>
      <trkpt lat="40.558317" lon="-5.083350">
        <ele>2178.0</ele>
        <time>2015-08-16T13:28:35Z</time>
      </trkpt>
      <trkpt lat="40.558383" lon="-5.083417">
        <ele>2178.0</ele>
        <time>2015-08-16T13:28:36Z</time>
      </trkpt>
      <trkpt lat="40.558467" lon="-5.083467">
        <ele>2179.0</ele>
        <time>2015-08-16T13:28:37Z</time>
      </trkpt>
      <trkpt lat="40.558550" lon="-5.083467">
        <ele>2180.0</ele>
        <time>2015-08-16T13:28:38Z</time>
      </trkpt>
      <trkpt lat="40.558650" lon="-5.083433">
        <ele>2181.0</ele>
        <time>2015-08-16T13:28:39Z</time>
      </trkpt>
      <trkpt lat="40.558750" lon="-5.083383">
        <ele>2182.0</ele>
        <time>2015-08-16T13:28:40Z</time>
      </trkpt>
      <trkpt lat="40.558833" lon="-5.083283">
        <ele>2183.0</ele>
        <time>2015-08-16T13:28:41Z</time>
      </trkpt>
      <trkpt lat="40.558917" lon="-5.083133">
        <ele>2183.0</ele>
        <time>2015-08-16T13:28:42Z</time>
      </trkpt>
      <trkpt lat="40.558950" lon="-5.082967">
        <ele>2183.0</ele>
        <time>2015-08-16T13:28:43Z</time>
      </trkpt>
      <trkpt lat="40.558983" lon="-5.082783">
        <ele>2184.0</ele>
        <time>2015-08-16T13:28:44Z</time>
      </trkpt>
      <trkpt lat="40.558967" lon="-5.082600">
        <ele>2186.0</ele>
        <time>2015-08-16T13:28:45Z</time>
      </trkpt>
      <trkpt lat="40.558917" lon="-5.082433">
        <ele>2188.0</ele>
        <time>2015-08-16T13:28:46Z</time>
      </trkpt>
      <trkpt lat="40.558833" lon="-5.082300">
        <ele>2190.0</ele>
        <time>2015-08-16T13:28:47Z</time>
      </trkpt>
      <trkpt lat="40.558733" lon="-5.082200">
        <ele>2191.0</ele>
        <time>2015-08-16T13:28:48Z</time>
      </trkpt>
      <trkpt lat="40.558633" lon="-5.082150">
        <ele>2193.0</ele>
        <time>2015-08-16T13:28:49Z</time>
      </trkpt>
      <trkpt lat="40.558533" lon="-5.082150">
        <ele>2195.0</ele>
        <time>2015-08-16T13:28:50Z</time>
      </trkpt>
      <trkpt lat="40.558450" lon="-5.082183">
        <ele>2197.0</ele>
        <time>2015-08-16T13:28:51Z</time>
      </trkpt>
      <trkpt lat="40.558400" lon="-5.082250">
        <ele>2199.0</ele>
        <time>2015-08-16T13:28:52Z</time>
      </trkpt>
      <trkpt lat="40.558383" lon="-5.082317">
        <ele>2200.0</ele>
        <time>2015-08-16T13:28:53Z</time>
      </trkpt>
      <trkpt lat="40.558383" lon="-5.082383">
        <ele>2199.0</ele>
        <time>2015-08-16T13:28:54Z</time>
      </trkpt>
      <trkpt lat="40.558433" lon="-5.082467">
        <ele>2199.0</ele>
        <time>2015-08-16T13:28:55Z</time>
      </trkpt>
      <trkpt lat="40.558500" lon="-5.082517">
        <ele>2200.0</ele>
        <time>2015-08-16T13:28:56Z</time>
      </trkpt>
      <trkpt lat="40.558583" lon="-5.082567">
        <ele>2201.0</ele>
        <time>2015-08-16T13:28:57Z</time>
      </trkpt>
      <trkpt lat="40.558667" lon="-5.082583">
        <ele>2203.0</ele>
        <time>2015-08-16T13:28:58Z</time>
      </trkpt>
      <trkpt lat="40.558750" lon="-5.082567">
        <ele>2205.0</ele>
        <time>2015-08-16T13:28:59Z</time>
      </trkpt>
      <trkpt lat="40.558833" lon="-5.082533">
        <ele>2207.0</ele>
        <time>2015-08-16T13:29:00Z</time>
      </trkpt>
      <trkpt lat="40.558917" lon="-5.082467">
        <ele>2207.0</ele>
        <time>2015-08-16T13:29:01Z</time>
      </trkpt>
      <trkpt lat="40.558983" lon="-5.082350">
        <ele>2207.0</ele>
        <time>2015-08-16T13:29:02Z</time>
      </trkpt>
      <trkpt lat="40.559050" lon="-5.082200">
        <ele>2206.0</ele>
        <time>2015-08-16T13:29:03Z</time>
      </trkpt>
      <trkpt lat="40.559100" lon="-5.082033">
        <ele>2207.0</ele>
        <time>2015-08-16T13:29:04Z</time>
      </trkpt>
      <trkpt lat="40.559117" lon="-5.081850">
        <ele>2209.0</ele>
        <time>2015-08-16T13:29:05Z</time>
      </trkpt>
      <trkpt lat="40.559100" lon="-5.081667">
        <ele>2212.0</ele>
        <time>2015-08-16T13:29:06Z</time>
      </trkpt>
      <trkpt lat="40.559067" lon="-5.081500">
        <ele>2213.0</ele>
        <time>2015-08-16T13:29:07Z</time>
      </trkpt>
      <trkpt lat="40.559000" lon="-5.081350">
        <ele>2215.0</ele>
        <time>2015-08-16T13:29:08Z</time>
      </trkpt>
      <trkpt lat="40.558917" lon="-5.081233">
        <ele>2215.0</ele>
        <time>2015-08-16T13:29:09Z</time>
      </trkpt>
      <trkpt lat="40.558817" lon="-5.081133">
        <ele>2216.0</ele>
        <time>2015-08-16T13:29:10Z</time>
      </trkpt>
      <trkpt lat="40.558717" lon="-5.081067">
        <ele>2217.0</ele>
        <time>2015-08-16T13:29:11Z</time>
      </trkpt>
      <trkpt lat="40.558600" lon="-5.081033">
        <ele>2218.0</ele>
        <time>2015-08-16T13:29:12Z</time>
      </trkpt>
      <trkpt lat="40.558500" lon="-5.081033">
        <ele>2219.0</ele>
        <time>2015-08-16T13:29:13Z</time>
      </trkpt>
      <trkpt lat="40.558417" lon="-5.081083">
        <ele>2220.0</ele>
        <time>2015-08-16T13:29:14Z</time>
      </trkpt>
      <trkpt lat="40.558367" lon="-5.081150">
        <ele>2222.0</ele>
        <time>2015-08-16T13:29:15Z</time>
      </trkpt>
      <trkpt lat="40.558350" lon="-5.081217">
        <ele>2223.0</ele>
        <time>2015-08-16T13:29:16Z</time>
      </trkpt>
      <trkpt lat="40.558367" lon="-5.081300">
        <ele>2223.0</ele>
        <time>2015-08-16T13:29:17Z</time>
      </trkpt>
      <trkpt lat="40.558400" lon="-5.081367">
        <ele>2223.0</ele>
        <time>2015-08-16T13:29:18Z</time>
      </trkpt>
      <trkpt lat="40.558467" lon="-5.081417">
        <ele>2224.0</ele>
        <time>2015-08-16T13:29:19Z</time>
      </trkpt>
      <trkpt lat="40.558550" lon="-5.081433">
        <ele>2225.0</ele>
        <time>2015-08-16T13:29:20Z</time>
      </trkpt>
      <trkpt lat="40.558650" lon="-5.081417">
        <ele>2225.0</ele>
        <time>2015-08-16T13:29:21Z</time>
      </trkpt>
      <trkpt lat="40.558750" lon="-5.081350">
        <ele>2226.0</ele>
        <time>2015-08-16T13:29:22Z</time>
      </trkpt>
      <trkpt lat="40.558833" lon="-5.081250">
        <ele>2226.0</ele>
        <time>2015-08-16T13:29:23Z</time>
      </trkpt>
      <trkpt lat="40.558900" lon="-5.081117">
        <ele>2227.0</ele>
        <time>2015-08-16T13:29:24Z</time>
      </trkpt>
      <trkpt lat="40.558967" lon="-5.080950">
        <ele>2227.0</ele>
        <time>2015-08-16T13:29:25Z</time>
      </trkpt>
      <trkpt lat="40.558983" lon="-5.080767">
        <ele>2229.0</ele>
        <time>2015-08-16T13:29:26Z</time>
      </trkpt>
      <trkpt lat="40.558983" lon="-5.080600">
        <ele>2230.0</ele>
        <time>2015-08-16T13:29:27Z</time>
      </trkpt>
      <trkpt lat="40.558967" lon="-5.080433">
        <ele>2232.0</ele>
        <time>2015-08-16T13:29:28Z</time>
      </trkpt>
      <trkpt lat="40.558917" lon="-5.080283">
        <ele>2233.0</ele>
        <time>2015-08-16T13:29:29Z</time>
      </trkpt>
      <trkpt lat="40.558833" lon="-5.080150">
        <ele>2233.0</ele>
        <time>2015-08-16T13:29:30Z</time>
      </trkpt>
      <trkpt lat="40.558733" lon="-5.080017">
        <ele>2233.0</ele>
        <time>2015-08-16T13:29:31Z</time>
      </trkpt>
      <trkpt lat="40.558633" lon="-5.079917">
        <ele>2234.0</ele>
        <time>2015-08-16T13:29:32Z</time>
      </trkpt>
      <trkpt lat="40.558517" lon="-5.079833">
        <ele>2236.0</ele>
        <time>2015-08-16T13:29:33Z</time>
      </trkpt>
      <trkpt lat="40.558417" lon="-5.079800">
        <ele>2238.0</ele>
        <time>2015-08-16T13:29:34Z</time>
      </trkpt>
      <trkpt lat="40.558333" lon="-5.079817">
        <ele>2239.0</ele>
        <time>2015-08-16T13:29:35Z</time>
      </trkpt>
      <trkpt lat="40.558267" lon="-5.079867">
        <ele>2239.0</ele>
        <time>2015-08-16T13:29:36Z</time>
      </trkpt>
      <trkpt lat="40.558200" lon="-5.079950">
        <ele>2240.0</ele>
        <time>2015-08-16T13:29:37Z</time>
      </trkpt>
      <trkpt lat="40.558183" lon="-5.080033">
        <ele>2241.0</ele>
        <time>2015-08-16T13:29:38Z</time>
      </trkpt>
      <trkpt lat="40.558200" lon="-5.080117">
        <ele>2242.0</ele>
        <time>2015-08-16T13:29:39Z</time>
      </trkpt>
      <trkpt lat="40.558233" lon="-5.080200">
        <ele>2242.0</ele>
        <time>2015-08-16T13:29:40Z</time>
      </trkpt>
      <trkpt lat="40.558300" lon="-5.080250">
        <ele>2243.0</ele>
        <time>2015-08-16T13:29:41Z</time>
      </trkpt>
      <trkpt lat="40.558383" lon="-5.080283">
        <ele>2244.0</ele>
        <time>2015-08-16T13:29:42Z</time>
      </trkpt>
      <trkpt lat="40.558467" lon="-5.080283">
        <ele>2246.0</ele>
        <time>2015-08-16T13:29:43Z</time>
      </trkpt>
      <trkpt lat="40.558550" lon="-5.080250">
        <ele>2247.0</ele>
        <time>2015-08-16T13:29:44Z</time>
      </trkpt>
      <trkpt lat="40.558633" lon="-5.080200">
        <ele>2247.0</ele>
        <time>2015-08-16T13:29:45Z</time>
      </trkpt>
      <trkpt lat="40.558717" lon="-5.080100">
        <ele>2247.0</ele>
        <time>2015-08-16T13:29:46Z</time>
      </trkpt>
      <trkpt lat="40.558783" lon="-5.079983">
        <ele>2247.0</ele>
        <time>2015-08-16T13:29:47Z</time>
      </trkpt>
      <trkpt lat="40.558850" lon="-5.079833">
        <ele>2247.0</ele>
        <time>2015-08-16T13:29:48Z</time>
      </trkpt>
      <trkpt lat="40.558883" lon="-5.079650">
        <ele>2247.0</ele>
        <time>2015-08-16T13:29:49Z</time>
      </trkpt>
      <trkpt lat="40.558883" lon="-5.079483">
        <ele>2248.0</ele>
        <time>2015-08-16T13:29:50Z</time>
      </trkpt>
      <trkpt lat="40.558850" lon="-5.079317">
        <ele>2248.0</ele>
        <time>2015-08-16T13:29:51Z</time>
      </trkpt>
      <trkpt lat="40.558800" lon="-5.079150">
        <ele>2249.0</ele>
        <time>2015-08-16T13:29:52Z</time>
      </trkpt>
      <trkpt lat="40.558733" lon="-5.079000">
        <ele>2249.0</ele>
        <time>2015-08-16T13:29:53Z</time>
      </trkpt>
      <trkpt lat="40.558633" lon="-5.078883">
        <ele>2249.0</ele>
        <time>2015-08-16T13:29:54Z</time>
      </trkpt>
      <trkpt lat="40.558533" lon="-5.078800">
        <ele>2250.0</ele>
        <time>2015-08-16T13:29:55Z</time>
      </trkpt>
      <trkpt lat="40.558417" lon="-5.078767">
        <ele>2252.0</ele>
        <time>2015-08-16T13:29:56Z</time>
      </trkpt>
      <trkpt lat="40.558317" lon="-5.078767">
        <ele>2254.0</ele>
        <time>2015-08-16T13:29:57Z</time>
      </trkpt>
      <trkpt lat="40.558233" lon="-5.078800">
        <ele>2256.0</ele>
        <time>2015-08-16T13:29:58Z</time>
      </trkpt>
      <trkpt lat="40.558167" lon="-5.078850">
        <ele>2257.0</ele>
        <time>2015-08-16T13:29:59Z</time>
      </trkpt>
      <trkpt lat="40.558133" lon="-5.078917">
        <ele>2258.0</ele>
        <time>2015-08-16T13:30:00Z</time>
      </trkpt>
      <trkpt lat="40.558117" lon="-5.079000">
        <ele>2258.0</ele>
        <time>2015-08-16T13:30:01Z</time>
      </trkpt>
      <trkpt lat="40.558117" lon="-5.079083">
        <ele>2258.0</ele>
        <time>2015-08-16T13:30:02Z</time>
      </trkpt>
      <trkpt lat="40.558167" lon="-5.079167">
        <ele>2258.0</ele>
        <time>2015-08-16T13:30:03Z</time>
      </trkpt>
      <trkpt lat="40.558233" lon="-5.079233">
        <ele>2258.0</ele>
        <time>2015-08-16T13:30:04Z</time>
      </trkpt>
      <trkpt lat="40.558300" lon="-5.079267">
        <ele>2259.0</ele>
        <time>2015-08-16T13:30:05Z</time>
      </trkpt>
      <trkpt lat="40.558383" lon="-5.079267">
        <ele>2260.0</ele>
        <time>2015-08-16T13:30:06Z</time>
      </trkpt>
      <trkpt lat="40.558467" lon="-5.079250">
        <ele>2261.0</ele>
        <time>2015-08-16T13:30:07Z</time>
      </trkpt>
      <trkpt lat="40.558550" lon="-5.079200">
        <ele>2261.0</ele>
        <time>2015-08-16T13:30:08Z</time>
      </trkpt>
      <trkpt lat="40.558633" lon="-5.079117">
        <ele>2261.0</ele>
        <time>2015-08-16T13:30:09Z</time>
      </trkpt>
      <trkpt lat="40.558717" lon="-5.079000">
        <ele>2260.0</ele>
        <time>2015-08-16T13:30:10Z</time>
      </trkpt>
      <trkpt lat="40.558767" lon="-5.078867">
        <ele>2260.0</ele>
        <time>2015-08-16T13:30:11Z</time>
      </trkpt>
      <trkpt lat="40.558817" lon="-5.078700">
        <ele>2261.0</ele>
        <time>2015-08-16T13:30:12Z</time>
      </trkpt>
      <trkpt lat="40.558817" lon="-5.078517">
        <ele>2261.0</ele>
        <time>2015-08-16T13:30:13Z</time>
      </trkpt>
      <trkpt lat="40.558817" lon="-5.078367">
        <ele>2263.0</ele>
        <time>2015-08-16T13:30:14Z</time>
      </trkpt>
      <trkpt lat="40.558800" lon="-5.078200">
        <ele>2264.0</ele>
        <time>2015-08-16T13:30:15Z</time>
      </trkpt>
      <trkpt lat="40.558767" lon="-5.078067">
        <ele>2265.0</ele>
        <time>2015-08-16T13:30:16Z</time>
      </trkpt>
      <trkpt lat="40.558700" lon="-5.077933">
        <ele>2265.0</ele>
        <time>2015-08-16T13:30:17Z</time>
      </trkpt>
      <trkpt lat="40.558617" lon="-5.077817">
        <ele>2264.0</ele>
        <time>2015-08-16T13:30:18Z</time>
      </trkpt>
      <trkpt lat="40.558533" lon="-5.077733">
        <ele>2264.0</ele>
        <time>2015-08-16T13:30:19Z</time>
      </trkpt>
      <trkpt lat="40.558417" lon="-5.077683">
        <ele>2263.0</ele>
        <time>2015-08-16T13:30:20Z</time>
      </trkpt>
      <trkpt lat="40.558300" lon="-5.077667">
        <ele>2263.0</ele>
        <time>2015-08-16T13:30:21Z</time>
      </trkpt>
      <trkpt lat="40.558183" lon="-5.077667">
        <ele>2263.0</ele>
        <time>2015-08-16T13:30:22Z</time>
      </trkpt>
      <trkpt lat="40.558083" lon="-5.077667">
        <ele>2265.0</ele>
        <time>2015-08-16T13:30:23Z</time>
      </trkpt>
      <trkpt lat="40.558000" lon="-5.077683">
        <ele>2266.0</ele>
        <time>2015-08-16T13:30:24Z</time>
      </trkpt>
      <trkpt lat="40.557900" lon="-5.077700">
        <ele>2267.0</ele>
        <time>2015-08-16T13:30:25Z</time>
      </trkpt>
      <trkpt lat="40.557833" lon="-5.077733">
        <ele>2267.0</ele>
        <time>2015-08-16T13:30:26Z</time>
      </trkpt>
      <trkpt lat="40.557783" lon="-5.077800">
        <ele>2267.0</ele>
        <time>2015-08-16T13:30:27Z</time>
      </trkpt>
      <trkpt lat="40.557750" lon="-5.077867">
        <ele>2267.0</ele>
        <time>2015-08-16T13:30:28Z</time>
      </trkpt>
      <trkpt lat="40.557767" lon="-5.077950">
        <ele>2266.0</ele>
        <time>2015-08-16T13:30:29Z</time>
      </trkpt>
      <trkpt lat="40.557800" lon="-5.078033">
        <ele>2267.0</ele>
        <time>2015-08-16T13:30:30Z</time>
      </trkpt>
      <trkpt lat="40.557850" lon="-5.078083">
        <ele>2268.0</ele>
        <time>2015-08-16T13:30:31Z</time>
      </trkpt>
      <trkpt lat="40.557917" lon="-5.078133">
        <ele>2269.0</ele>
        <time>2015-08-16T13:30:32Z</time>
      </trkpt>
      <trkpt lat="40.557983" lon="-5.078150">
        <ele>2269.0</ele>
        <time>2015-08-16T13:30:33Z</time>
      </trkpt>
      <trkpt lat="40.558050" lon="-5.078150">
        <ele>2268.0</ele>
        <time>2015-08-16T13:30:34Z</time>
      </trkpt>
      <trkpt lat="40.558150" lon="-5.078133">
        <ele>2267.0</ele>
        <time>2015-08-16T13:30:35Z</time>
      </trkpt>
      <trkpt lat="40.558233" lon="-5.078100">
        <ele>2267.0</ele>
        <time>2015-08-16T13:30:36Z</time>
      </trkpt>
      <trkpt lat="40.558333" lon="-5.078050">
        <ele>2267.0</ele>
        <time>2015-08-16T13:30:37Z</time>
      </trkpt>
      <trkpt lat="40.558417" lon="-5.077967">
        <ele>2268.0</ele>
        <time>2015-08-16T13:30:38Z</time>
      </trkpt>
      <trkpt lat="40.558483" lon="-5.077850">
        <ele>2268.0</ele>
        <time>2015-08-16T13:30:39Z</time>
      </trkpt>
      <trkpt lat="40.558550" lon="-5.077733">
        <ele>2268.0</ele>
        <time>2015-08-16T13:30:40Z</time>
      </trkpt>
      <trkpt lat="40.558600" lon="-5.077583">
        <ele>2268.0</ele>
        <time>2015-08-16T13:30:41Z</time>
      </trkpt>
      <trkpt lat="40.558650" lon="-5.077433">
        <ele>2269.0</ele>
        <time>2015-08-16T13:30:42Z</time>
      </trkpt>
      <trkpt lat="40.558700" lon="-5.077300">
        <ele>2269.0</ele>
        <time>2015-08-16T13:30:43Z</time>
      </trkpt>
      <trkpt lat="40.558733" lon="-5.077167">
        <ele>2270.0</ele>
        <time>2015-08-16T13:30:44Z</time>
      </trkpt>
      <trkpt lat="40.558783" lon="-5.077033">
        <ele>2269.0</ele>
        <time>2015-08-16T13:30:45Z</time>
      </trkpt>
      <trkpt lat="40.558833" lon="-5.076900">
        <ele>2269.0</ele>
        <time>2015-08-16T13:30:46Z</time>
      </trkpt>
      <trkpt lat="40.558883" lon="-5.076750">
        <ele>2268.0</ele>
        <time>2015-08-16T13:30:47Z</time>
      </trkpt>
      <trkpt lat="40.558933" lon="-5.076600">
        <ele>2267.0</ele>
        <time>2015-08-16T13:30:48Z</time>
      </trkpt>
      <trkpt lat="40.559000" lon="-5.076450">
        <ele>2267.0</ele>
        <time>2015-08-16T13:30:49Z</time>
      </trkpt>
      <trkpt lat="40.559050" lon="-5.076300">
        <ele>2268.0</ele>
        <time>2015-08-16T13:30:50Z</time>
      </trkpt>
      <trkpt lat="40.559117" lon="-5.076167">
        <ele>2269.0</ele>
        <time>2015-08-16T13:30:51Z</time>
      </trkpt>
      <trkpt lat="40.559167" lon="-5.076050">
        <ele>2269.0</ele>
        <time>2015-08-16T13:30:52Z</time>
      </trkpt>
      <trkpt lat="40.559233" lon="-5.075933">
        <ele>2268.0</ele>
        <time>2015-08-16T13:30:53Z</time>
      </trkpt>
      <trkpt lat="40.559283" lon="-5.075800">
        <ele>2267.0</ele>
        <time>2015-08-16T13:30:54Z</time>
      </trkpt>
      <trkpt lat="40.559350" lon="-5.075667">
        <ele>2266.0</ele>
        <time>2015-08-16T13:30:55Z</time>
      </trkpt>
      <trkpt lat="40.559417" lon="-5.075517">
        <ele>2266.0</ele>
        <time>2015-08-16T13:30:56Z</time>
      </trkpt>
      <trkpt lat="40.559467" lon="-5.075367">
        <ele>2267.0</ele>
        <time>2015-08-16T13:30:57Z</time>
      </trkpt>
      <trkpt lat="40.559533" lon="-5.075233">
        <ele>2268.0</ele>
        <time>2015-08-16T13:30:58Z</time>
      </trkpt>
      <trkpt lat="40.559567" lon="-5.075083">
        <ele>2269.0</ele>
        <time>2015-08-16T13:30:59Z</time>
      </trkpt>
      <trkpt lat="40.559617" lon="-5.074967">
        <ele>2271.0</ele>
        <time>2015-08-16T13:31:00Z</time>
      </trkpt>
      <trkpt lat="40.559650" lon="-5.074833">
        <ele>2272.0</ele>
        <time>2015-08-16T13:31:01Z</time>
      </trkpt>
      <trkpt lat="40.559700" lon="-5.074700">
        <ele>2272.0</ele>
        <time>2015-08-16T13:31:02Z</time>
      </trkpt>
      <trkpt lat="40.559733" lon="-5.074567">
        <ele>2272.0</ele>
        <time>2015-08-16T13:31:03Z</time>
      </trkpt>
      <trkpt lat="40.559767" lon="-5.074400">
        <ele>2272.0</ele>
        <time>2015-08-16T13:31:04Z</time>
      </trkpt>
      <trkpt lat="40.559767" lon="-5.074233">
        <ele>2270.0</ele>
        <time>2015-08-16T13:31:05Z</time>
      </trkpt>
      <trkpt lat="40.559750" lon="-5.074067">
        <ele>2269.0</ele>
        <time>2015-08-16T13:31:06Z</time>
      </trkpt>
      <trkpt lat="40.559750" lon="-5.073900">
        <ele>2269.0</ele>
        <time>2015-08-16T13:31:07Z</time>
      </trkpt>
      <trkpt lat="40.559767" lon="-5.073750">
        <ele>2269.0</ele>
        <time>2015-08-16T13:31:08Z</time>
      </trkpt>
      <trkpt lat="40.559783" lon="-5.073600">
        <ele>2269.0</ele>
        <time>2015-08-16T13:31:09Z</time>
      </trkpt>
      <trkpt lat="40.559817" lon="-5.073467">
        <ele>2268.0</ele>
        <time>2015-08-16T13:31:10Z</time>
      </trkpt>
      <trkpt lat="40.559850" lon="-5.073317">
        <ele>2266.0</ele>
        <time>2015-08-16T13:31:11Z</time>
      </trkpt>
      <trkpt lat="40.559883" lon="-5.073167">
        <ele>2263.0</ele>
        <time>2015-08-16T13:31:12Z</time>
      </trkpt>
      <trkpt lat="40.559933" lon="-5.073000">
        <ele>2261.0</ele>
        <time>2015-08-16T13:31:13Z</time>
      </trkpt>
      <trkpt lat="40.559983" lon="-5.072833">
        <ele>2260.0</ele>
        <time>2015-08-16T13:31:14Z</time>
      </trkpt>
      <trkpt lat="40.560033" lon="-5.072683">
        <ele>2260.0</ele>
        <time>2015-08-16T13:31:15Z</time>
      </trkpt>
      <trkpt lat="40.560100" lon="-5.072533">
        <ele>2259.0</ele>
        <time>2015-08-16T13:31:16Z</time>
      </trkpt>
      <trkpt lat="40.560150" lon="-5.072383">
        <ele>2259.0</ele>
        <time>2015-08-16T13:31:17Z</time>
      </trkpt>
      <trkpt lat="40.560200" lon="-5.072250">
        <ele>2259.0</ele>
        <time>2015-08-16T13:31:18Z</time>
      </trkpt>
      <trkpt lat="40.560267" lon="-5.072117">
        <ele>2258.0</ele>
        <time>2015-08-16T13:31:19Z</time>
      </trkpt>
      <trkpt lat="40.560317" lon="-5.071983">
        <ele>2257.0</ele>
        <time>2015-08-16T13:31:20Z</time>
      </trkpt>
      <trkpt lat="40.560383" lon="-5.071883">
        <ele>2255.0</ele>
        <time>2015-08-16T13:31:21Z</time>
      </trkpt>
      <trkpt lat="40.560450" lon="-5.071767">
        <ele>2252.0</ele>
        <time>2015-08-16T13:31:22Z</time>
      </trkpt>
      <trkpt lat="40.560517" lon="-5.071650">
        <ele>2249.0</ele>
        <time>2015-08-16T13:31:23Z</time>
      </trkpt>
      <trkpt lat="40.560600" lon="-5.071533">
        <ele>2247.0</ele>
        <time>2015-08-16T13:31:24Z</time>
      </trkpt>
      <trkpt lat="40.560667" lon="-5.071400">
        <ele>2245.0</ele>
        <time>2015-08-16T13:31:25Z</time>
      </trkpt>
      <trkpt lat="40.560733" lon="-5.071283">
        <ele>2244.0</ele>
        <time>2015-08-16T13:31:26Z</time>
      </trkpt>
      <trkpt lat="40.560817" lon="-5.071167">
        <ele>2241.0</ele>
        <time>2015-08-16T13:31:27Z</time>
      </trkpt>
      <trkpt lat="40.560900" lon="-5.071067">
        <ele>2239.0</ele>
        <time>2015-08-16T13:31:28Z</time>
      </trkpt>
      <trkpt lat="40.561000" lon="-5.070967">
        <ele>2237.0</ele>
        <time>2015-08-16T13:31:29Z</time>
      </trkpt>
      <trkpt lat="40.561100" lon="-5.070867">
        <ele>2235.0</ele>
        <time>2015-08-16T13:31:30Z</time>
      </trkpt>
      <trkpt lat="40.561200" lon="-5.070750">
        <ele>2232.0</ele>
        <time>2015-08-16T13:31:31Z</time>
      </trkpt>
      <trkpt lat="40.561300" lon="-5.070633">
        <ele>2230.0</ele>
        <time>2015-08-16T13:31:32Z</time>
      </trkpt>
      <trkpt lat="40.561400" lon="-5.070517">
        <ele>2229.0</ele>
        <time>2015-08-16T13:31:33Z</time>
      </trkpt>
      <trkpt lat="40.561500" lon="-5.070417">
        <ele>2228.0</ele>
        <time>2015-08-16T13:31:34Z</time>
      </trkpt>
      <trkpt lat="40.561600" lon="-5.070317">
        <ele>2226.0</ele>
        <time>2015-08-16T13:31:35Z</time>
      </trkpt>
      <trkpt lat="40.561700" lon="-5.070233">
        <ele>2224.0</ele>
        <time>2015-08-16T13:31:36Z</time>
      </trkpt>
      <trkpt lat="40.561800" lon="-5.070133">
        <ele>2222.0</ele>
        <time>2015-08-16T13:31:37Z</time>
      </trkpt>
      <trkpt lat="40.561900" lon="-5.070033">
        <ele>2219.0</ele>
        <time>2015-08-16T13:31:38Z</time>
      </trkpt>
      <trkpt lat="40.562000" lon="-5.069917">
        <ele>2216.0</ele>
        <time>2015-08-16T13:31:39Z</time>
      </trkpt>
      <trkpt lat="40.562083" lon="-5.069783">
        <ele>2214.0</ele>
        <time>2015-08-16T13:31:40Z</time>
      </trkpt>
      <trkpt lat="40.562183" lon="-5.069667">
        <ele>2212.0</ele>
        <time>2015-08-16T13:31:41Z</time>
      </trkpt>
      <trkpt lat="40.562267" lon="-5.069550">
        <ele>2210.0</ele>
        <time>2015-08-16T13:31:42Z</time>
      </trkpt>
      <trkpt lat="40.562367" lon="-5.069433">
        <ele>2209.0</ele>
        <time>2015-08-16T13:31:43Z</time>
      </trkpt>
      <trkpt lat="40.562467" lon="-5.069317">
        <ele>2206.0</ele>
        <time>2015-08-16T13:31:44Z</time>
      </trkpt>
      <trkpt lat="40.562550" lon="-5.069200">
        <ele>2204.0</ele>
        <time>2015-08-16T13:31:45Z</time>
      </trkpt>
      <trkpt lat="40.562650" lon="-5.069067">
        <ele>2202.0</ele>
        <time>2015-08-16T13:31:46Z</time>
      </trkpt>
      <trkpt lat="40.562733" lon="-5.068933">
        <ele>2201.0</ele>
        <time>2015-08-16T13:31:47Z</time>
      </trkpt>
      <trkpt lat="40.562817" lon="-5.068817">
        <ele>2199.0</ele>
        <time>2015-08-16T13:31:48Z</time>
      </trkpt>
      <trkpt lat="40.562917" lon="-5.068700">
        <ele>2197.0</ele>
        <time>2015-08-16T13:31:49Z</time>
      </trkpt>
      <trkpt lat="40.563017" lon="-5.068583">
        <ele>2195.0</ele>
        <time>2015-08-16T13:31:50Z</time>
      </trkpt>
      <trkpt lat="40.563100" lon="-5.068450">
        <ele>2193.0</ele>
        <time>2015-08-16T13:31:51Z</time>
      </trkpt>
      <trkpt lat="40.563183" lon="-5.068317">
        <ele>2192.0</ele>
        <time>2015-08-16T13:31:52Z</time>
      </trkpt>
      <trkpt lat="40.563283" lon="-5.068200">
        <ele>2192.0</ele>
        <time>2015-08-16T13:31:53Z</time>
      </trkpt>
      <trkpt lat="40.563367" lon="-5.068083">
        <ele>2192.0</ele>
        <time>2015-08-16T13:31:54Z</time>
      </trkpt>
      <trkpt lat="40.563450" lon="-5.067983">
        <ele>2191.0</ele>
        <time>2015-08-16T13:31:55Z</time>
      </trkpt>
      <trkpt lat="40.563533" lon="-5.067883">
        <ele>2189.0</ele>
        <time>2015-08-16T13:31:56Z</time>
      </trkpt>
      <trkpt lat="40.563617" lon="-5.067767">
        <ele>2187.0</ele>
        <time>2015-08-16T13:31:57Z</time>
      </trkpt>
      <trkpt lat="40.563700" lon="-5.067667">
        <ele>2185.0</ele>
        <time>2015-08-16T13:31:58Z</time>
      </trkpt>
      <trkpt lat="40.563783" lon="-5.067550">
        <ele>2183.0</ele>
        <time>2015-08-16T13:31:59Z</time>
      </trkpt>
      <trkpt lat="40.563867" lon="-5.067433">
        <ele>2181.0</ele>
        <time>2015-08-16T13:32:00Z</time>
      </trkpt>
      <trkpt lat="40.563950" lon="-5.067300">
        <ele>2181.0</ele>
        <time>2015-08-16T13:32:01Z</time>
      </trkpt>
      <trkpt lat="40.564033" lon="-5.067167">
        <ele>2179.0</ele>
        <time>2015-08-16T13:32:02Z</time>
      </trkpt>
      <trkpt lat="40.564100" lon="-5.067033">
        <ele>2178.0</ele>
        <time>2015-08-16T13:32:03Z</time>
      </trkpt>
      <trkpt lat="40.564167" lon="-5.066900">
        <ele>2177.0</ele>
        <time>2015-08-16T13:32:04Z</time>
      </trkpt>
      <trkpt lat="40.564250" lon="-5.066767">
        <ele>2176.0</ele>
        <time>2015-08-16T13:32:05Z</time>
      </trkpt>
      <trkpt lat="40.564317" lon="-5.066633">
        <ele>2174.0</ele>
        <time>2015-08-16T13:32:06Z</time>
      </trkpt>
      <trkpt lat="40.564383" lon="-5.066483">
        <ele>2172.0</ele>
        <time>2015-08-16T13:32:07Z</time>
      </trkpt>
      <trkpt lat="40.564467" lon="-5.066350">
        <ele>2170.0</ele>
        <time>2015-08-16T13:32:08Z</time>
      </trkpt>
      <trkpt lat="40.564550" lon="-5.066217">
        <ele>2168.0</ele>
        <time>2015-08-16T13:32:09Z</time>
      </trkpt>
      <trkpt lat="40.564650" lon="-5.066083">
        <ele>2167.0</ele>
        <time>2015-08-16T13:32:10Z</time>
      </trkpt>
      <trkpt lat="40.564750" lon="-5.065950">
        <ele>2166.0</ele>
        <time>2015-08-16T13:32:11Z</time>
      </trkpt>
      <trkpt lat="40.564833" lon="-5.065833">
        <ele>2166.0</ele>
        <time>2015-08-16T13:32:12Z</time>
      </trkpt>
      <trkpt lat="40.564917" lon="-5.065717">
        <ele>2166.0</ele>
        <time>2015-08-16T13:32:13Z</time>
      </trkpt>
      <trkpt lat="40.565000" lon="-5.065583">
        <ele>2165.0</ele>
        <time>2015-08-16T13:32:14Z</time>
      </trkpt>
      <trkpt lat="40.565083" lon="-5.065467">
        <ele>2163.0</ele>
        <time>2015-08-16T13:32:15Z</time>
      </trkpt>
      <trkpt lat="40.565167" lon="-5.065350">
        <ele>2161.0</ele>
        <time>2015-08-16T13:32:16Z</time>
      </trkpt>
      <trkpt lat="40.565250" lon="-5.065233">
        <ele>2159.0</ele>
        <time>2015-08-16T13:32:17Z</time>
      </trkpt>
      <trkpt lat="40.565350" lon="-5.065117">
        <ele>2157.0</ele>
        <time>2015-08-16T13:32:18Z</time>
      </trkpt>
      <trkpt lat="40.565433" lon="-5.064983">
        <ele>2155.0</ele>
        <time>2015-08-16T13:32:19Z</time>
      </trkpt>
      <trkpt lat="40.565533" lon="-5.064850">
        <ele>2152.0</ele>
        <time>2015-08-16T13:32:20Z</time>
      </trkpt>
      <trkpt lat="40.565617" lon="-5.064700">
        <ele>2150.0</ele>
        <time>2015-08-16T13:32:21Z</time>
      </trkpt>
      <trkpt lat="40.565717" lon="-5.064550">
        <ele>2150.0</ele>
        <time>2015-08-16T13:32:22Z</time>
      </trkpt>
      <trkpt lat="40.565800" lon="-5.064400">
        <ele>2150.0</ele>
        <time>2015-08-16T13:32:23Z</time>
      </trkpt>
      <trkpt lat="40.565883" lon="-5.064267">
        <ele>2149.0</ele>
        <time>2015-08-16T13:32:24Z</time>
      </trkpt>
      <trkpt lat="40.565967" lon="-5.064167">
        <ele>2147.0</ele>
        <time>2015-08-16T13:32:25Z</time>
      </trkpt>
      <trkpt lat="40.566067" lon="-5.064050">
        <ele>2145.0</ele>
        <time>2015-08-16T13:32:26Z</time>
      </trkpt>
      <trkpt lat="40.566150" lon="-5.063950">
        <ele>2144.0</ele>
        <time>2015-08-16T13:32:27Z</time>
      </trkpt>
      <trkpt lat="40.566233" lon="-5.063833">
        <ele>2142.0</ele>
        <time>2015-08-16T13:32:28Z</time>
      </trkpt>
      <trkpt lat="40.566317" lon="-5.063700">
        <ele>2141.0</ele>
        <time>2015-08-16T13:32:29Z</time>
      </trkpt>
      <trkpt lat="40.566400" lon="-5.063583">
        <ele>2141.0</ele>
        <time>2015-08-16T13:32:30Z</time>
      </trkpt>
      <trkpt lat="40.566483" lon="-5.063467">
        <ele>2140.0</ele>
        <time>2015-08-16T13:32:31Z</time>
      </trkpt>
      <trkpt lat="40.566567" lon="-5.063367">
        <ele>2140.0</ele>
        <time>2015-08-16T13:32:32Z</time>
      </trkpt>
      <trkpt lat="40.566650" lon="-5.063250">
        <ele>2140.0</ele>
        <time>2015-08-16T13:32:33Z</time>
      </trkpt>
      <trkpt lat="40.566733" lon="-5.063133">
        <ele>2139.0</ele>
        <time>2015-08-16T13:32:34Z</time>
      </trkpt>
      <trkpt lat="40.566833" lon="-5.063033">
        <ele>2139.0</ele>
        <time>2015-08-16T13:32:35Z</time>
      </trkpt>
      <trkpt lat="40.566917" lon="-5.062917">
        <ele>2140.0</ele>
        <time>2015-08-16T13:32:36Z</time>
      </trkpt>
      <trkpt lat="40.566983" lon="-5.062817">
        <ele>2141.0</ele>
        <time>2015-08-16T13:32:37Z</time>
      </trkpt>
      <trkpt lat="40.567067" lon="-5.062733">
        <ele>2141.0</ele>
        <time>2015-08-16T13:32:38Z</time>
      </trkpt>
      <trkpt lat="40.567133" lon="-5.062633">
        <ele>2141.0</ele>
        <time>2015-08-16T13:32:39Z</time>
      </trkpt>
      <trkpt lat="40.567217" lon="-5.062533">
        <ele>2140.0</ele>
        <time>2015-08-16T13:32:40Z</time>
      </trkpt>
      <trkpt lat="40.567300" lon="-5.062417">
        <ele>2138.0</ele>
        <time>2015-08-16T13:32:41Z</time>
      </trkpt>
      <trkpt lat="40.567367" lon="-5.062317">
        <ele>2137.0</ele>
        <time>2015-08-16T13:32:42Z</time>
      </trkpt>
      <trkpt lat="40.567433" lon="-5.062183">
        <ele>2135.0</ele>
        <time>2015-08-16T13:32:43Z</time>
      </trkpt>
      <trkpt lat="40.567500" lon="-5.062050">
        <ele>2133.0</ele>
        <time>2015-08-16T13:32:44Z</time>
      </trkpt>
      <trkpt lat="40.567567" lon="-5.061917">
        <ele>2132.0</ele>
        <time>2015-08-16T13:32:45Z</time>
      </trkpt>
      <trkpt lat="40.567650" lon="-5.061783">
        <ele>2132.0</ele>
        <time>2015-08-16T13:32:46Z</time>
      </trkpt>
      <trkpt lat="40.567717" lon="-5.061667">
        <ele>2132.0</ele>
        <time>2015-08-16T13:32:47Z</time>
      </trkpt>
      <trkpt lat="40.567800" lon="-5.061533">
        <ele>2132.0</ele>
        <time>2015-08-16T13:32:48Z</time>
      </trkpt>
      <trkpt lat="40.567867" lon="-5.061417">
        <ele>2133.0</ele>
        <time>2015-08-16T13:32:49Z</time>
      </trkpt>
      <trkpt lat="40.567917" lon="-5.061267">
        <ele>2133.0</ele>
        <time>2015-08-16T13:32:50Z</time>
      </trkpt>
      <trkpt lat="40.567983" lon="-5.061133">
        <ele>2134.0</ele>
        <time>2015-08-16T13:32:51Z</time>
      </trkpt>
      <trkpt lat="40.568050" lon="-5.060983">
        <ele>2135.0</ele>
        <time>2015-08-16T13:32:52Z</time>
      </trkpt>
      <trkpt lat="40.568117" lon="-5.060850">
        <ele>2135.0</ele>
        <time>2015-08-16T13:32:53Z</time>
      </trkpt>
      <trkpt lat="40.568183" lon="-5.060700">
        <ele>2136.0</ele>
        <time>2015-08-16T13:32:54Z</time>
      </trkpt>
      <trkpt lat="40.568250" lon="-5.060550">
        <ele>2137.0</ele>
        <time>2015-08-16T13:32:55Z</time>
      </trkpt>
      <trkpt lat="40.568317" lon="-5.060417">
        <ele>2139.0</ele>
        <time>2015-08-16T13:32:56Z</time>
      </trkpt>
      <trkpt lat="40.568383" lon="-5.060267">
        <ele>2141.0</ele>
        <time>2015-08-16T13:32:57Z</time>
      </trkpt>
      <trkpt lat="40.568433" lon="-5.060150">
        <ele>2143.0</ele>
        <time>2015-08-16T13:32:58Z</time>
      </trkpt>
      <trkpt lat="40.568500" lon="-5.060033">
        <ele>2145.0</ele>
        <time>2015-08-16T13:32:59Z</time>
      </trkpt>
      <trkpt lat="40.568567" lon="-5.059933">
        <ele>2146.0</ele>
        <time>2015-08-16T13:33:00Z</time>
      </trkpt>
      <trkpt lat="40.568633" lon="-5.059833">
        <ele>2147.0</ele>
        <time>2015-08-16T13:33:01Z</time>
      </trkpt>
      <trkpt lat="40.568717" lon="-5.059750">
        <ele>2150.0</ele>
        <time>2015-08-16T13:33:02Z</time>
      </trkpt>
      <trkpt lat="40.568817" lon="-5.059683">
        <ele>2152.0</ele>
        <time>2015-08-16T13:33:03Z</time>
      </trkpt>
      <trkpt lat="40.568917" lon="-5.059617">
        <ele>2154.0</ele>
        <time>2015-08-16T13:33:04Z</time>
      </trkpt>
      <trkpt lat="40.569000" lon="-5.059533">
        <ele>2156.0</ele>
        <time>2015-08-16T13:33:05Z</time>
      </trkpt>
      <trkpt lat="40.569067" lon="-5.059400">
        <ele>2158.0</ele>
        <time>2015-08-16T13:33:06Z</time>
      </trkpt>
      <trkpt lat="40.569083" lon="-5.059250">
        <ele>2158.0</ele>
        <time>2015-08-16T13:33:07Z</time>
      </trkpt>
      <trkpt lat="40.569067" lon="-5.059083">
        <ele>2159.0</ele>
        <time>2015-08-16T13:33:08Z</time>
      </trkpt>
      <trkpt lat="40.569000" lon="-5.058950">
        <ele>2163.0</ele>
        <time>2015-08-16T13:33:09Z</time>
      </trkpt>
      <trkpt lat="40.568917" lon="-5.058883">
        <ele>2165.0</ele>
        <time>2015-08-16T13:33:10Z</time>
      </trkpt>
      <trkpt lat="40.568817" lon="-5.058867">
        <ele>2165.0</ele>
        <time>2015-08-16T13:33:11Z</time>
      </trkpt>
      <trkpt lat="40.568733" lon="-5.058900">
        <ele>2165.0</ele>
        <time>2015-08-16T13:33:12Z</time>
      </trkpt>
      <trkpt lat="40.568617" lon="-5.058950">
        <ele>2165.0</ele>
        <time>2015-08-16T13:33:13Z</time>
      </trkpt>
      <trkpt lat="40.568517" lon="-5.059017">
        <ele>2167.0</ele>
        <time>2015-08-16T13:33:14Z</time>
      </trkpt>
      <trkpt lat="40.568433" lon="-5.059117">
        <ele>2169.0</ele>
        <time>2015-08-16T13:33:15Z</time>
      </trkpt>
      <trkpt lat="40.568367" lon="-5.059233">
        <ele>2172.0</ele>
        <time>2015-08-16T13:33:16Z</time>
      </trkpt>
      <trkpt lat="40.568350" lon="-5.059350">
        <ele>2175.0</ele>
        <time>2015-08-16T13:33:17Z</time>
      </trkpt>
      <trkpt lat="40.568350" lon="-5.059450">
        <ele>2179.0</ele>
        <time>2015-08-16T13:33:18Z</time>
      </trkpt>
      <trkpt lat="40.568383" lon="-5.059533">
        <ele>2182.0</ele>
        <time>2015-08-16T13:33:19Z</time>
      </trkpt>
      <trkpt lat="40.568433" lon="-5.059583">
        <ele>2184.0</ele>
        <time>2015-08-16T13:33:20Z</time>
      </trkpt>
      <trkpt lat="40.568517" lon="-5.059617">
        <ele>2184.0</ele>
        <time>2015-08-16T13:33:21Z</time>
      </trkpt>
      <trkpt lat="40.568617" lon="-5.059633">
        <ele>2184.0</ele>
        <time>2015-08-16T13:33:22Z</time>
      </trkpt>
      <trkpt lat="40.568733" lon="-5.059617">
        <ele>2183.0</ele>
        <time>2015-08-16T13:33:23Z</time>
      </trkpt>
      <trkpt lat="40.568850" lon="-5.059550">
        <ele>2183.0</ele>
        <time>2015-08-16T13:33:24Z</time>
      </trkpt>
      <trkpt lat="40.568950" lon="-5.059467">
        <ele>2183.0</ele>
        <time>2015-08-16T13:33:25Z</time>
      </trkpt>
      <trkpt lat="40.569050" lon="-5.059367">
        <ele>2184.0</ele>
        <time>2015-08-16T13:33:26Z</time>
      </trkpt>
      <trkpt lat="40.569133" lon="-5.059233">
        <ele>2185.0</ele>
        <time>2015-08-16T13:33:27Z</time>
      </trkpt>
      <trkpt lat="40.569200" lon="-5.059083">
        <ele>2185.0</ele>
        <time>2015-08-16T13:33:28Z</time>
      </trkpt>
      <trkpt lat="40.569233" lon="-5.058917">
        <ele>2187.0</ele>
        <time>2015-08-16T13:33:29Z</time>
      </trkpt>
      <trkpt lat="40.569250" lon="-5.058767">
        <ele>2190.0</ele>
        <time>2015-08-16T13:33:30Z</time>
      </trkpt>
      <trkpt lat="40.569250" lon="-5.058633">
        <ele>2194.0</ele>
        <time>2015-08-16T13:33:31Z</time>
      </trkpt>
      <trkpt lat="40.569250" lon="-5.058517">
        <ele>2198.0</ele>
        <time>2015-08-16T13:33:32Z</time>
      </trkpt>
      <trkpt lat="40.569233" lon="-5.058400">
        <ele>2199.0</ele>
        <time>2015-08-16T13:33:33Z</time>
      </trkpt>
      <trkpt lat="40.569217" lon="-5.058283">
        <ele>2198.0</ele>
        <time>2015-08-16T13:33:34Z</time>
      </trkpt>
      <trkpt lat="40.569183" lon="-5.058150">
        <ele>2198.0</ele>
        <time>2015-08-16T13:33:35Z</time>
      </trkpt>
      <trkpt lat="40.569167" lon="-5.058000">
        <ele>2197.0</ele>
        <time>2015-08-16T13:33:36Z</time>
      </trkpt>
      <trkpt lat="40.569167" lon="-5.057867">
        <ele>2198.0</ele>
        <time>2015-08-16T13:33:37Z</time>
      </trkpt>
      <trkpt lat="40.569183" lon="-5.057717">
        <ele>2200.0</ele>
        <time>2015-08-16T13:33:38Z</time>
      </trkpt>
      <trkpt lat="40.569200" lon="-5.057583">
        <ele>2201.0</ele>
        <time>2015-08-16T13:33:39Z</time>
      </trkpt>
      <trkpt lat="40.569217" lon="-5.057450">
        <ele>2202.0</ele>
        <time>2015-08-16T13:33:40Z</time>
      </trkpt>
      <trkpt lat="40.569233" lon="-5.057317">
        <ele>2204.0</ele>
        <time>2015-08-16T13:33:41Z</time>
      </trkpt>
      <trkpt lat="40.569250" lon="-5.057167">
        <ele>2206.0</ele>
        <time>2015-08-16T13:33:42Z</time>
      </trkpt>
      <trkpt lat="40.569267" lon="-5.057017">
        <ele>2208.0</ele>
        <time>2015-08-16T13:33:43Z</time>
      </trkpt>
      <trkpt lat="40.569233" lon="-5.056867">
        <ele>2211.0</ele>
        <time>2015-08-16T13:33:44Z</time>
      </trkpt>
      <trkpt lat="40.569183" lon="-5.056733">
        <ele>2215.0</ele>
        <time>2015-08-16T13:33:45Z</time>
      </trkpt>
      <trkpt lat="40.569100" lon="-5.056633">
        <ele>2219.0</ele>
        <time>2015-08-16T13:33:46Z</time>
      </trkpt>
      <trkpt lat="40.569000" lon="-5.056567">
        <ele>2222.0</ele>
        <time>2015-08-16T13:33:47Z</time>
      </trkpt>
      <trkpt lat="40.568900" lon="-5.056533">
        <ele>2225.0</ele>
        <time>2015-08-16T13:33:48Z</time>
      </trkpt>
      <trkpt lat="40.568783" lon="-5.056533">
        <ele>2227.0</ele>
        <time>2015-08-16T13:33:49Z</time>
      </trkpt>
      <trkpt lat="40.568683" lon="-5.056583">
        <ele>2228.0</ele>
        <time>2015-08-16T13:33:50Z</time>
      </trkpt>
      <trkpt lat="40.568583" lon="-5.056667">
        <ele>2229.0</ele>
        <time>2015-08-16T13:33:51Z</time>
      </trkpt>
      <trkpt lat="40.568500" lon="-5.056783">
        <ele>2230.0</ele>
        <time>2015-08-16T13:33:52Z</time>
      </trkpt>
      <trkpt lat="40.568467" lon="-5.056917">
        <ele>2232.0</ele>
        <time>2015-08-16T13:33:53Z</time>
      </trkpt>
      <trkpt lat="40.568450" lon="-5.057050">
        <ele>2234.0</ele>
        <time>2015-08-16T13:33:54Z</time>
      </trkpt>
      <trkpt lat="40.568467" lon="-5.057167">
        <ele>2236.0</ele>
        <time>2015-08-16T13:33:55Z</time>
      </trkpt>
      <trkpt lat="40.568500" lon="-5.057283">
        <ele>2237.0</ele>
        <time>2015-08-16T13:33:56Z</time>
      </trkpt>
      <trkpt lat="40.568567" lon="-5.057367">
        <ele>2238.0</ele>
        <time>2015-08-16T13:33:57Z</time>
      </trkpt>
      <trkpt lat="40.568650" lon="-5.057417">
        <ele>2239.0</ele>
        <time>2015-08-16T13:33:58Z</time>
      </trkpt>
      <trkpt lat="40.568750" lon="-5.057433">
        <ele>2239.0</ele>
        <time>2015-08-16T13:33:59Z</time>
      </trkpt>
      <trkpt lat="40.568850" lon="-5.057417">
        <ele>2239.0</ele>
        <time>2015-08-16T13:34:00Z</time>
      </trkpt>
      <trkpt lat="40.568950" lon="-5.057350">
        <ele>2240.0</ele>
        <time>2015-08-16T13:34:01Z</time>
      </trkpt>
      <trkpt lat="40.569050" lon="-5.057233">
        <ele>2240.0</ele>
        <time>2015-08-16T13:34:02Z</time>
      </trkpt>
      <trkpt lat="40.569117" lon="-5.057083">
        <ele>2240.0</ele>
        <time>2015-08-16T13:34:03Z</time>
      </trkpt>
      <trkpt lat="40.569167" lon="-5.056917">
        <ele>2242.0</ele>
        <time>2015-08-16T13:34:04Z</time>
      </trkpt>
      <trkpt lat="40.569183" lon="-5.056733">
        <ele>2245.0</ele>
        <time>2015-08-16T13:34:05Z</time>
      </trkpt>
      <trkpt lat="40.569167" lon="-5.056567">
        <ele>2249.0</ele>
        <time>2015-08-16T13:34:06Z</time>
      </trkpt>
      <trkpt lat="40.569117" lon="-5.056433">
        <ele>2254.0</ele>
        <time>2015-08-16T13:34:07Z</time>
      </trkpt>
      <trkpt lat="40.569033" lon="-5.056350">
        <ele>2258.0</ele>
        <time>2015-08-16T13:34:08Z</time>
      </trkpt>
      <trkpt lat="40.568933" lon="-5.056333">
        <ele>2260.0</ele>
        <time>2015-08-16T13:34:09Z</time>
      </trkpt>
      <trkpt lat="40.568817" lon="-5.056350">
        <ele>2262.0</ele>
        <time>2015-08-16T13:34:10Z</time>
      </trkpt>
      <trkpt lat="40.568717" lon="-5.056417">
        <ele>2265.0</ele>
        <time>2015-08-16T13:34:11Z</time>
      </trkpt>
      <trkpt lat="40.568633" lon="-5.056533">
        <ele>2269.0</ele>
        <time>2015-08-16T13:34:12Z</time>
      </trkpt>
      <trkpt lat="40.568617" lon="-5.056667">
        <ele>2273.0</ele>
        <time>2015-08-16T13:34:13Z</time>
      </trkpt>
      <trkpt lat="40.568633" lon="-5.056800">
        <ele>2276.0</ele>
        <time>2015-08-16T13:34:14Z</time>
      </trkpt>
      <trkpt lat="40.568683" lon="-5.056900">
        <ele>2279.0</ele>
        <time>2015-08-16T13:34:15Z</time>
      </trkpt>
      <trkpt lat="40.568767" lon="-5.056950">
        <ele>2280.0</ele>
        <time>2015-08-16T13:34:16Z</time>
      </trkpt>
      <trkpt lat="40.568867" lon="-5.056967">
        <ele>2281.0</ele>
        <time>2015-08-16T13:34:17Z</time>
      </trkpt>
      <trkpt lat="40.568967" lon="-5.056933">
        <ele>2281.0</ele>
        <time>2015-08-16T13:34:18Z</time>
      </trkpt>
      <trkpt lat="40.569067" lon="-5.056883">
        <ele>2281.0</ele>
        <time>2015-08-16T13:34:19Z</time>
      </trkpt>
      <trkpt lat="40.569167" lon="-5.056800">
        <ele>2282.0</ele>
        <time>2015-08-16T13:34:20Z</time>
      </trkpt>
      <trkpt lat="40.569267" lon="-5.056683">
        <ele>2283.0</ele>
        <time>2015-08-16T13:34:21Z</time>
      </trkpt>
      <trkpt lat="40.569333" lon="-5.056533">
        <ele>2284.0</ele>
        <time>2015-08-16T13:34:22Z</time>
      </trkpt>
      <trkpt lat="40.569400" lon="-5.056367">
        <ele>2287.0</ele>
        <time>2015-08-16T13:34:23Z</time>
      </trkpt>
      <trkpt lat="40.569450" lon="-5.056217">
        <ele>2291.0</ele>
        <time>2015-08-16T13:34:24Z</time>
      </trkpt>
      <trkpt lat="40.569500" lon="-5.056083">
        <ele>2294.0</ele>
        <time>2015-08-16T13:34:25Z</time>
      </trkpt>
      <trkpt lat="40.569550" lon="-5.055933">
        <ele>2297.0</ele>
        <time>2015-08-16T13:34:26Z</time>
      </trkpt>
      <trkpt lat="40.569600" lon="-5.055800">
        <ele>2300.0</ele>
        <time>2015-08-16T13:34:27Z</time>
      </trkpt>
      <trkpt lat="40.569633" lon="-5.055633">
        <ele>2302.0</ele>
        <time>2015-08-16T13:34:28Z</time>
      </trkpt>
      <trkpt lat="40.569600" lon="-5.055467">
        <ele>2304.0</ele>
        <time>2015-08-16T13:34:29Z</time>
      </trkpt>
      <trkpt lat="40.569533" lon="-5.055317">
        <ele>2306.0</ele>
        <time>2015-08-16T13:34:30Z</time>
      </trkpt>
      <trkpt lat="40.569450" lon="-5.055200">
        <ele>2309.0</ele>
        <time>2015-08-16T13:34:31Z</time>
      </trkpt>
      <trkpt lat="40.569333" lon="-5.055150">
        <ele>2312.0</ele>
        <time>2015-08-16T13:34:32Z</time>
      </trkpt>
      <trkpt lat="40.569233" lon="-5.055150">
        <ele>2314.0</ele>
        <time>2015-08-16T13:34:33Z</time>
      </trkpt>
      <trkpt lat="40.569133" lon="-5.055200">
        <ele>2316.0</ele>
        <time>2015-08-16T13:34:34Z</time>
      </trkpt>
      <trkpt lat="40.569067" lon="-5.055283">
        <ele>2317.0</ele>
        <time>2015-08-16T13:34:35Z</time>
      </trkpt>
      <trkpt lat="40.569000" lon="-5.055400">
        <ele>2318.0</ele>
        <time>2015-08-16T13:34:36Z</time>
      </trkpt>
      <trkpt lat="40.568983" lon="-5.055517">
        <ele>2320.0</ele>
        <time>2015-08-16T13:34:37Z</time>
      </trkpt>
      <trkpt lat="40.568983" lon="-5.055633">
        <ele>2322.0</ele>
        <time>2015-08-16T13:34:38Z</time>
      </trkpt>
      <trkpt lat="40.569017" lon="-5.055750">
        <ele>2325.0</ele>
        <time>2015-08-16T13:34:39Z</time>
      </trkpt>
      <trkpt lat="40.569067" lon="-5.055850">
        <ele>2328.0</ele>
        <time>2015-08-16T13:34:40Z</time>
      </trkpt>
      <trkpt lat="40.569167" lon="-5.055933">
        <ele>2331.0</ele>
        <time>2015-08-16T13:34:41Z</time>
      </trkpt>
      <trkpt lat="40.569250" lon="-5.055983">
        <ele>2335.0</ele>
        <time>2015-08-16T13:34:42Z</time>
      </trkpt>
      <trkpt lat="40.569350" lon="-5.055983">
        <ele>2339.0</ele>
        <time>2015-08-16T13:34:43Z</time>
      </trkpt>
      <trkpt lat="40.569450" lon="-5.055950">
        <ele>2342.0</ele>
        <time>2015-08-16T13:34:44Z</time>
      </trkpt>
      <trkpt lat="40.569550" lon="-5.055900">
        <ele>2345.0</ele>
        <time>2015-08-16T13:34:45Z</time>
      </trkpt>
      <trkpt lat="40.569633" lon="-5.055817">
        <ele>2346.0</ele>
        <time>2015-08-16T13:34:46Z</time>
      </trkpt>
      <trkpt lat="40.569733" lon="-5.055717">
        <ele>2348.0</ele>
        <time>2015-08-16T13:34:47Z</time>
      </trkpt>
      <trkpt lat="40.569817" lon="-5.055600">
        <ele>2350.0</ele>
        <time>2015-08-16T13:34:48Z</time>
      </trkpt>
      <trkpt lat="40.569883" lon="-5.055467">
        <ele>2352.0</ele>
        <time>2015-08-16T13:34:49Z</time>
      </trkpt>
      <trkpt lat="40.569900" lon="-5.055300">
        <ele>2354.0</ele>
        <time>2015-08-16T13:34:50Z</time>
      </trkpt>
      <trkpt lat="40.569883" lon="-5.055117">
        <ele>2355.0</ele>
        <time>2015-08-16T13:34:51Z</time>
      </trkpt>
      <trkpt lat="40.569817" lon="-5.054967">
        <ele>2356.0</ele>
        <time>2015-08-16T13:34:52Z</time>
      </trkpt>
      <trkpt lat="40.569733" lon="-5.054867">
        <ele>2358.0</ele>
        <time>2015-08-16T13:34:53Z</time>
      </trkpt>
      <trkpt lat="40.569633" lon="-5.054817">
        <ele>2361.0</ele>
        <time>2015-08-16T13:34:54Z</time>
      </trkpt>
      <trkpt lat="40.569533" lon="-5.054817">
        <ele>2364.0</ele>
        <time>2015-08-16T13:34:55Z</time>
      </trkpt>
      <trkpt lat="40.569467" lon="-5.054900">
        <ele>2367.0</ele>
        <time>2015-08-16T13:34:56Z</time>
      </trkpt>
      <trkpt lat="40.569433" lon="-5.055000">
        <ele>2368.0</ele>
        <time>2015-08-16T13:34:57Z</time>
      </trkpt>
      <trkpt lat="40.569450" lon="-5.055133">
        <ele>2371.0</ele>
        <time>2015-08-16T13:34:58Z</time>
      </trkpt>
      <trkpt lat="40.569500" lon="-5.055233">
        <ele>2375.0</ele>
        <time>2015-08-16T13:34:59Z</time>
      </trkpt>
      <trkpt lat="40.569583" lon="-5.055283">
        <ele>2379.0</ele>
        <time>2015-08-16T13:35:00Z</time>
      </trkpt>
      <trkpt lat="40.569667" lon="-5.055317">
        <ele>2381.0</ele>
        <time>2015-08-16T13:35:01Z</time>
      </trkpt>
      <trkpt lat="40.569767" lon="-5.055300">
        <ele>2382.0</ele>
        <time>2015-08-16T13:35:02Z</time>
      </trkpt>
      <trkpt lat="40.569867" lon="-5.055283">
        <ele>2384.0</ele>
        <time>2015-08-16T13:35:03Z</time>
      </trkpt>
      <trkpt lat="40.569983" lon="-5.055250">
        <ele>2385.0</ele>
        <time>2015-08-16T13:35:04Z</time>
      </trkpt>
      <trkpt lat="40.570083" lon="-5.055200">
        <ele>2387.0</ele>
        <time>2015-08-16T13:35:05Z</time>
      </trkpt>
      <trkpt lat="40.570183" lon="-5.055083">
        <ele>2388.0</ele>
        <time>2015-08-16T13:35:06Z</time>
      </trkpt>
      <trkpt lat="40.570250" lon="-5.054933">
        <ele>2390.0</ele>
        <time>2015-08-16T13:35:07Z</time>
      </trkpt>
      <trkpt lat="40.570283" lon="-5.054750">
        <ele>2391.0</ele>
        <time>2015-08-16T13:35:08Z</time>
      </trkpt>
      <trkpt lat="40.570283" lon="-5.054567">
        <ele>2394.0</ele>
        <time>2015-08-16T13:35:09Z</time>
      </trkpt>
      <trkpt lat="40.570250" lon="-5.054417">
        <ele>2396.0</ele>
        <time>2015-08-16T13:35:10Z</time>
      </trkpt>
      <trkpt lat="40.570167" lon="-5.054300">
        <ele>2398.0</ele>
        <time>2015-08-16T13:35:11Z</time>
      </trkpt>
      <trkpt lat="40.570083" lon="-5.054217">
        <ele>2399.0</ele>
        <time>2015-08-16T13:35:12Z</time>
      </trkpt>
      <trkpt lat="40.569983" lon="-5.054167">
        <ele>2401.0</ele>
        <time>2015-08-16T13:35:13Z</time>
      </trkpt>
      <trkpt lat="40.569883" lon="-5.054150">
        <ele>2404.0</ele>
        <time>2015-08-16T13:35:14Z</time>
      </trkpt>
      <trkpt lat="40.569800" lon="-5.054183">
        <ele>2406.0</ele>
        <time>2015-08-16T13:35:15Z</time>
      </trkpt>
      <trkpt lat="40.569750" lon="-5.054250">
        <ele>2409.0</ele>
        <time>2015-08-16T13:35:16Z</time>
      </trkpt>
      <trkpt lat="40.569717" lon="-5.054350">
        <ele>2410.0</ele>
        <time>2015-08-16T13:35:17Z</time>
      </trkpt>
      <trkpt lat="40.569733" lon="-5.054483">
        <ele>2411.0</ele>
        <time>2015-08-16T13:35:18Z</time>
      </trkpt>
      <trkpt lat="40.569800" lon="-5.054583">
        <ele>2413.0</ele>
        <time>2015-08-16T13:35:19Z</time>
      </trkpt>
      <trkpt lat="40.569883" lon="-5.054667">
        <ele>2416.0</ele>
        <time>2015-08-16T13:35:20Z</time>
      </trkpt>
      <trkpt lat="40.570000" lon="-5.054700">
        <ele>2418.0</ele>
        <time>2015-08-16T13:35:21Z</time>
      </trkpt>
      <trkpt lat="40.570117" lon="-5.054683">
        <ele>2421.0</ele>
        <time>2015-08-16T13:35:22Z</time>
      </trkpt>
      <trkpt lat="40.570217" lon="-5.054633">
        <ele>2423.0</ele>
        <time>2015-08-16T13:35:23Z</time>
      </trkpt>
      <trkpt lat="40.570317" lon="-5.054550">
        <ele>2425.0</ele>
        <time>2015-08-16T13:35:24Z</time>
      </trkpt>
      <trkpt lat="40.570400" lon="-5.054433">
        <ele>2427.0</ele>
        <time>2015-08-16T13:35:25Z</time>
      </trkpt>
      <trkpt lat="40.570467" lon="-5.054283">
        <ele>2429.0</ele>
        <time>2015-08-16T13:35:26Z</time>
      </trkpt>
      <trkpt lat="40.570500" lon="-5.054133">
        <ele>2432.0</ele>
        <time>2015-08-16T13:35:27Z</time>
      </trkpt>
      <trkpt lat="40.570517" lon="-5.053983">
        <ele>2434.0</ele>
        <time>2015-08-16T13:35:28Z</time>
      </trkpt>
      <trkpt lat="40.570483" lon="-5.053833">
        <ele>2436.0</ele>
        <time>2015-08-16T13:35:29Z</time>
      </trkpt>
      <trkpt lat="40.570433" lon="-5.053700">
        <ele>2436.0</ele>
        <time>2015-08-16T13:35:30Z</time>
      </trkpt>
      <trkpt lat="40.570350" lon="-5.053583">
        <ele>2438.0</ele>
        <time>2015-08-16T13:35:31Z</time>
      </trkpt>
      <trkpt lat="40.570267" lon="-5.053500">
        <ele>2441.0</ele>
        <time>2015-08-16T13:35:32Z</time>
      </trkpt>
      <trkpt lat="40.570183" lon="-5.053467">
        <ele>2444.0</ele>
        <time>2015-08-16T13:35:33Z</time>
      </trkpt>
      <trkpt lat="40.570100" lon="-5.053467">
        <ele>2446.0</ele>
        <time>2015-08-16T13:35:34Z</time>
      </trkpt>
      <trkpt lat="40.570033" lon="-5.053517">
        <ele>2447.0</ele>
        <time>2015-08-16T13:35:35Z</time>
      </trkpt>
      <trkpt lat="40.569983" lon="-5.053617">
        <ele>2448.0</ele>
        <time>2015-08-16T13:35:36Z</time>
      </trkpt>
      <trkpt lat="40.569983" lon="-5.053733">
        <ele>2449.0</ele>
        <time>2015-08-16T13:35:37Z</time>
      </trkpt>
      <trkpt lat="40.570017" lon="-5.053867">
        <ele>2451.0</ele>
        <time>2015-08-16T13:35:38Z</time>
      </trkpt>
      <trkpt lat="40.570117" lon="-5.053933">
        <ele>2454.0</ele>
        <time>2015-08-16T13:35:39Z</time>
      </trkpt>
      <trkpt lat="40.570233" lon="-5.053950">
        <ele>2455.0</ele>
        <time>2015-08-16T13:35:40Z</time>
      </trkpt>
      <trkpt lat="40.570350" lon="-5.053933">
        <ele>2458.0</ele>
        <time>2015-08-16T13:35:41Z</time>
      </trkpt>
      <trkpt lat="40.570467" lon="-5.053883">
        <ele>2460.0</ele>
        <time>2015-08-16T13:35:42Z</time>
      </trkpt>
      <trkpt lat="40.570550" lon="-5.053800">
        <ele>2464.0</ele>
        <time>2015-08-16T13:35:43Z</time>
      </trkpt>
      <trkpt lat="40.570633" lon="-5.053683">
        <ele>2466.0</ele>
        <time>2015-08-16T13:35:44Z</time>
      </trkpt>
      <trkpt lat="40.570700" lon="-5.053550">
        <ele>2468.0</ele>
        <time>2015-08-16T13:35:45Z</time>
      </trkpt>
      <trkpt lat="40.570733" lon="-5.053400">
        <ele>2470.0</ele>
        <time>2015-08-16T13:35:46Z</time>
      </trkpt>
      <trkpt lat="40.570767" lon="-5.053233">
        <ele>2472.0</ele>
        <time>2015-08-16T13:35:47Z</time>
      </trkpt>
      <trkpt lat="40.570750" lon="-5.053083">
        <ele>2474.0</ele>
        <time>2015-08-16T13:35:48Z</time>
      </trkpt>
      <trkpt lat="40.570700" lon="-5.052933">
        <ele>2475.0</ele>
        <time>2015-08-16T13:35:49Z</time>
      </trkpt>
      <trkpt lat="40.570633" lon="-5.052800">
        <ele>2477.0</ele>
        <time>2015-08-16T13:35:50Z</time>
      </trkpt>
      <trkpt lat="40.570533" lon="-5.052717">
        <ele>2479.0</ele>
        <time>2015-08-16T13:35:51Z</time>
      </trkpt>
      <trkpt lat="40.570433" lon="-5.052667">
        <ele>2482.0</ele>
        <time>2015-08-16T13:35:52Z</time>
      </trkpt>
      <trkpt lat="40.570350" lon="-5.052683">
        <ele>2484.0</ele>
        <time>2015-08-16T13:35:53Z</time>
      </trkpt>
      <trkpt lat="40.570267" lon="-5.052717">
        <ele>2485.0</ele>
        <time>2015-08-16T13:35:54Z</time>
      </trkpt>
      <trkpt lat="40.570217" lon="-5.052800">
        <ele>2486.0</ele>
        <time>2015-08-16T13:35:55Z</time>
      </trkpt>
      <trkpt lat="40.570183" lon="-5.052917">
        <ele>2486.0</ele>
        <time>2015-08-16T13:35:56Z</time>
      </trkpt>
      <trkpt lat="40.570183" lon="-5.053033">
        <ele>2486.0</ele>
        <time>2015-08-16T13:35:57Z</time>
      </trkpt>
      <trkpt lat="40.570217" lon="-5.053150">
        <ele>2489.0</ele>
        <time>2015-08-16T13:35:58Z</time>
      </trkpt>
      <trkpt lat="40.570267" lon="-5.053250">
        <ele>2492.0</ele>
        <time>2015-08-16T13:35:59Z</time>
      </trkpt>
      <trkpt lat="40.570350" lon="-5.053317">
        <ele>2495.0</ele>
        <time>2015-08-16T13:36:00Z</time>
      </trkpt>
      <trkpt lat="40.570417" lon="-5.053367">
        <ele>2497.0</ele>
        <time>2015-08-16T13:36:01Z</time>
      </trkpt>
      <trkpt lat="40.570517" lon="-5.053400">
        <ele>2499.0</ele>
        <time>2015-08-16T13:36:02Z</time>
      </trkpt>
      <trkpt lat="40.570617" lon="-5.053417">
        <ele>2500.0</ele>
        <time>2015-08-16T13:36:03Z</time>
      </trkpt>
      <trkpt lat="40.570733" lon="-5.053383">
        <ele>2500.0</ele>
        <time>2015-08-16T13:36:04Z</time>
      </trkpt>
      <trkpt lat="40.570850" lon="-5.053317">
        <ele>2501.0</ele>
        <time>2015-08-16T13:36:05Z</time>
      </trkpt>
      <trkpt lat="40.570950" lon="-5.053217">
        <ele>2502.0</ele>
        <time>2015-08-16T13:36:06Z</time>
      </trkpt>
      <trkpt lat="40.571050" lon="-5.053083">
        <ele>2505.0</ele>
        <time>2015-08-16T13:36:07Z</time>
      </trkpt>
      <trkpt lat="40.571117" lon="-5.052950">
        <ele>2507.0</ele>
        <time>2015-08-16T13:36:08Z</time>
      </trkpt>
      <trkpt lat="40.571150" lon="-5.052817">
        <ele>2509.0</ele>
        <time>2015-08-16T13:36:09Z</time>
      </trkpt>
      <trkpt lat="40.571150" lon="-5.052667">
        <ele>2511.0</ele>
        <time>2015-08-16T13:36:10Z</time>
      </trkpt>
      <trkpt lat="40.571133" lon="-5.052517">
        <ele>2511.0</ele>
        <time>2015-08-16T13:36:11Z</time>
      </trkpt>
      <trkpt lat="40.571067" lon="-5.052400">
        <ele>2512.0</ele>
        <time>2015-08-16T13:36:12Z</time>
      </trkpt>
      <trkpt lat="40.570983" lon="-5.052317">
        <ele>2513.0</ele>
        <time>2015-08-16T13:36:13Z</time>
      </trkpt>
      <trkpt lat="40.570883" lon="-5.052267">
        <ele>2515.0</ele>
        <time>2015-08-16T13:36:14Z</time>
      </trkpt>
      <trkpt lat="40.570783" lon="-5.052267">
        <ele>2518.0</ele>
        <time>2015-08-16T13:36:15Z</time>
      </trkpt>
      <trkpt lat="40.570683" lon="-5.052300">
        <ele>2520.0</ele>
        <time>2015-08-16T13:36:16Z</time>
      </trkpt>
      <trkpt lat="40.570600" lon="-5.052367">
        <ele>2524.0</ele>
        <time>2015-08-16T13:36:17Z</time>
      </trkpt>
      <trkpt lat="40.570550" lon="-5.052467">
        <ele>2527.0</ele>
        <time>2015-08-16T13:36:18Z</time>
      </trkpt>
      <trkpt lat="40.570533" lon="-5.052567">
        <ele>2529.0</ele>
        <time>2015-08-16T13:36:19Z</time>
      </trkpt>
      <trkpt lat="40.570550" lon="-5.052683">
        <ele>2532.0</ele>
        <time>2015-08-16T13:36:20Z</time>
      </trkpt>
      <trkpt lat="40.570600" lon="-5.052767">
        <ele>2534.0</ele>
        <time>2015-08-16T13:36:21Z</time>
      </trkpt>
      <trkpt lat="40.570667" lon="-5.052833">
        <ele>2536.0</ele>
        <time>2015-08-16T13:36:22Z</time>
      </trkpt>
      <trkpt lat="40.570767" lon="-5.052867">
        <ele>2537.0</ele>
        <time>2015-08-16T13:36:23Z</time>
      </trkpt>
      <trkpt lat="40.570867" lon="-5.052883">
        <ele>2539.0</ele>
        <time>2015-08-16T13:36:24Z</time>
      </trkpt>
      <trkpt lat="40.570967" lon="-5.052867">
        <ele>2541.0</ele>
        <time>2015-08-16T13:36:25Z</time>
      </trkpt>
      <trkpt lat="40.571083" lon="-5.052833">
        <ele>2543.0</ele>
        <time>2015-08-16T13:36:26Z</time>
      </trkpt>
      <trkpt lat="40.571183" lon="-5.052767">
        <ele>2544.0</ele>
        <time>2015-08-16T13:36:27Z</time>
      </trkpt>
      <trkpt lat="40.571267" lon="-5.052667">
        <ele>2545.0</ele>
        <time>2015-08-16T13:36:28Z</time>
      </trkpt>
      <trkpt lat="40.571317" lon="-5.052533">
        <ele>2546.0</ele>
        <time>2015-08-16T13:36:29Z</time>
      </trkpt>
      <trkpt lat="40.571367" lon="-5.052383">
        <ele>2546.0</ele>
        <time>2015-08-16T13:36:30Z</time>
      </trkpt>
      <trkpt lat="40.571383" lon="-5.052233">
        <ele>2547.0</ele>
        <time>2015-08-16T13:36:31Z</time>
      </trkpt>
      <trkpt lat="40.571367" lon="-5.052083">
        <ele>2547.0</ele>
        <time>2015-08-16T13:36:32Z</time>
      </trkpt>
      <trkpt lat="40.571350" lon="-5.051933">
        <ele>2548.0</ele>
        <time>2015-08-16T13:36:33Z</time>
      </trkpt>
      <trkpt lat="40.571300" lon="-5.051800">
        <ele>2548.0</ele>
        <time>2015-08-16T13:36:34Z</time>
      </trkpt>
      <trkpt lat="40.571217" lon="-5.051667">
        <ele>2549.0</ele>
        <time>2015-08-16T13:36:35Z</time>
      </trkpt>
      <trkpt lat="40.571117" lon="-5.051567">
        <ele>2550.0</ele>
        <time>2015-08-16T13:36:36Z</time>
      </trkpt>
      <trkpt lat="40.571033" lon="-5.051467">
        <ele>2553.0</ele>
        <time>2015-08-16T13:36:37Z</time>
      </trkpt>
      <trkpt lat="40.570933" lon="-5.051383">
        <ele>2556.0</ele>
        <time>2015-08-16T13:36:38Z</time>
      </trkpt>
      <trkpt lat="40.570833" lon="-5.051317">
        <ele>2559.0</ele>
        <time>2015-08-16T13:36:39Z</time>
      </trkpt>
      <trkpt lat="40.570750" lon="-5.051267">
        <ele>2561.0</ele>
        <time>2015-08-16T13:36:40Z</time>
      </trkpt>
      <trkpt lat="40.570650" lon="-5.051233">
        <ele>2564.0</ele>
        <time>2015-08-16T13:36:41Z</time>
      </trkpt>
      <trkpt lat="40.570550" lon="-5.051233">
        <ele>2566.0</ele>
        <time>2015-08-16T13:36:42Z</time>
      </trkpt>
      <trkpt lat="40.570467" lon="-5.051283">
        <ele>2568.0</ele>
        <time>2015-08-16T13:36:43Z</time>
      </trkpt>
      <trkpt lat="40.570400" lon="-5.051367">
        <ele>2569.0</ele>
        <time>2015-08-16T13:36:44Z</time>
      </trkpt>
      <trkpt lat="40.570383" lon="-5.051483">
        <ele>2570.0</ele>
        <time>2015-08-16T13:36:45Z</time>
      </trkpt>
      <trkpt lat="40.570383" lon="-5.051600">
        <ele>2572.0</ele>
        <time>2015-08-16T13:36:46Z</time>
      </trkpt>
      <trkpt lat="40.570433" lon="-5.051717">
        <ele>2575.0</ele>
        <time>2015-08-16T13:36:47Z</time>
      </trkpt>
      <trkpt lat="40.570500" lon="-5.051800">
        <ele>2578.0</ele>
        <time>2015-08-16T13:36:48Z</time>
      </trkpt>
      <trkpt lat="40.570583" lon="-5.051850">
        <ele>2581.0</ele>
        <time>2015-08-16T13:36:49Z</time>
      </trkpt>
      <trkpt lat="40.570667" lon="-5.051867">
        <ele>2584.0</ele>
        <time>2015-08-16T13:36:50Z</time>
      </trkpt>
      <trkpt lat="40.570750" lon="-5.051850">
        <ele>2585.0</ele>
        <time>2015-08-16T13:36:51Z</time>
      </trkpt>
      <trkpt lat="40.570850" lon="-5.051783">
        <ele>2586.0</ele>
        <time>2015-08-16T13:36:52Z</time>
      </trkpt>
      <trkpt lat="40.570933" lon="-5.051683">
        <ele>2588.0</ele>
        <time>2015-08-16T13:36:53Z</time>
      </trkpt>
      <trkpt lat="40.571000" lon="-5.051550">
        <ele>2589.0</ele>
        <time>2015-08-16T13:36:54Z</time>
      </trkpt>
      <trkpt lat="40.571017" lon="-5.051400">
        <ele>2590.0</ele>
        <time>2015-08-16T13:36:55Z</time>
      </trkpt>
      <trkpt lat="40.571017" lon="-5.051233">
        <ele>2591.0</ele>
        <time>2015-08-16T13:36:56Z</time>
      </trkpt>
      <trkpt lat="40.570950" lon="-5.051083">
        <ele>2592.0</ele>
        <time>2015-08-16T13:36:57Z</time>
      </trkpt>
      <trkpt lat="40.570867" lon="-5.050967">
        <ele>2593.0</ele>
        <time>2015-08-16T13:36:58Z</time>
      </trkpt>
      <trkpt lat="40.570767" lon="-5.050883">
        <ele>2596.0</ele>
        <time>2015-08-16T13:36:59Z</time>
      </trkpt>
      <trkpt lat="40.570667" lon="-5.050850">
        <ele>2598.0</ele>
        <time>2015-08-16T13:37:00Z</time>
      </trkpt>
      <trkpt lat="40.570567" lon="-5.050867">
        <ele>2601.0</ele>
        <time>2015-08-16T13:37:01Z</time>
      </trkpt>
      <trkpt lat="40.570500" lon="-5.050933">
        <ele>2603.0</ele>
        <time>2015-08-16T13:37:02Z</time>
      </trkpt>
      <trkpt lat="40.570450" lon="-5.051033">
        <ele>2604.0</ele>
        <time>2015-08-16T13:37:03Z</time>
      </trkpt>
      <trkpt lat="40.570417" lon="-5.051150">
        <ele>2606.0</ele>
        <time>2015-08-16T13:37:04Z</time>
      </trkpt>
      <trkpt lat="40.570433" lon="-5.051283">
        <ele>2608.0</ele>
        <time>2015-08-16T13:37:05Z</time>
      </trkpt>
      <trkpt lat="40.570467" lon="-5.051383">
        <ele>2609.0</ele>
        <time>2015-08-16T13:37:06Z</time>
      </trkpt>
      <trkpt lat="40.570533" lon="-5.051467">
        <ele>2611.0</ele>
        <time>2015-08-16T13:37:07Z</time>
      </trkpt>
      <trkpt lat="40.570633" lon="-5.051500">
        <ele>2612.0</ele>
        <time>2015-08-16T13:37:08Z</time>
      </trkpt>
      <trkpt lat="40.570733" lon="-5.051467">
        <ele>2613.0</ele>
        <time>2015-08-16T13:37:09Z</time>
      </trkpt>
      <trkpt lat="40.570833" lon="-5.051367">
        <ele>2614.0</ele>
        <time>2015-08-16T13:37:10Z</time>
      </trkpt>
      <trkpt lat="40.570883" lon="-5.051233">
        <ele>2615.0</ele>
        <time>2015-08-16T13:37:11Z</time>
      </trkpt>
      <trkpt lat="40.570917" lon="-5.051067">
        <ele>2616.0</ele>
        <time>2015-08-16T13:37:12Z</time>
      </trkpt>
      <trkpt lat="40.570900" lon="-5.050917">
        <ele>2617.0</ele>
        <time>2015-08-16T13:37:13Z</time>
      </trkpt>
      <trkpt lat="40.570900" lon="-5.050767">
        <ele>2619.0</ele>
        <time>2015-08-16T13:37:14Z</time>
      </trkpt>
      <trkpt lat="40.570883" lon="-5.050617">
        <ele>2619.0</ele>
        <time>2015-08-16T13:37:15Z</time>
      </trkpt>
      <trkpt lat="40.570900" lon="-5.050467">
        <ele>2619.0</ele>
        <time>2015-08-16T13:37:16Z</time>
      </trkpt>
      <trkpt lat="40.570900" lon="-5.050300">
        <ele>2620.0</ele>
        <time>2015-08-16T13:37:17Z</time>
      </trkpt>
      <trkpt lat="40.570900" lon="-5.050117">
        <ele>2621.0</ele>
        <time>2015-08-16T13:37:18Z</time>
      </trkpt>
      <trkpt lat="40.570900" lon="-5.049950">
        <ele>2623.0</ele>
        <time>2015-08-16T13:37:19Z</time>
      </trkpt>
      <trkpt lat="40.570917" lon="-5.049783">
        <ele>2626.0</ele>
        <time>2015-08-16T13:37:20Z</time>
      </trkpt>
      <trkpt lat="40.570933" lon="-5.049617">
        <ele>2629.0</ele>
        <time>2015-08-16T13:37:21Z</time>
      </trkpt>
      <trkpt lat="40.570967" lon="-5.049450">
        <ele>2632.0</ele>
        <time>2015-08-16T13:37:22Z</time>
      </trkpt>
      <trkpt lat="40.570983" lon="-5.049283">
        <ele>2634.0</ele>
        <time>2015-08-16T13:37:23Z</time>
      </trkpt>
      <trkpt lat="40.570983" lon="-5.049100">
        <ele>2637.0</ele>
        <time>2015-08-16T13:37:24Z</time>
      </trkpt>
      <trkpt lat="40.571000" lon="-5.048917">
        <ele>2639.0</ele>
        <time>2015-08-16T13:37:25Z</time>
      </trkpt>
      <trkpt lat="40.571017" lon="-5.048750">
        <ele>2642.0</ele>
        <time>2015-08-16T13:37:26Z</time>
      </trkpt>
      <trkpt lat="40.571050" lon="-5.048583">
        <ele>2645.0</ele>
        <time>2015-08-16T13:37:27Z</time>
      </trkpt>
      <trkpt lat="40.571083" lon="-5.048433">
        <ele>2647.0</ele>
        <time>2015-08-16T13:37:28Z</time>
      </trkpt>
      <trkpt lat="40.571117" lon="-5.048267">
        <ele>2649.0</ele>
        <time>2015-08-16T13:37:29Z</time>
      </trkpt>
      <trkpt lat="40.571133" lon="-5.048083">
        <ele>2650.0</ele>
        <time>2015-08-16T13:37:30Z</time>
      </trkpt>
      <trkpt lat="40.571167" lon="-5.047900">
        <ele>2651.0</ele>
        <time>2015-08-16T13:37:31Z</time>
      </trkpt>
      <trkpt lat="40.571183" lon="-5.047717">
        <ele>2652.0</ele>
        <time>2015-08-16T13:37:32Z</time>
      </trkpt>
      <trkpt lat="40.571200" lon="-5.047533">
        <ele>2653.0</ele>
        <time>2015-08-16T13:37:33Z</time>
      </trkpt>
      <trkpt lat="40.571233" lon="-5.047367">
        <ele>2654.0</ele>
        <time>2015-08-16T13:37:34Z</time>
      </trkpt>
      <trkpt lat="40.571250" lon="-5.047200">
        <ele>2656.0</ele>
        <time>2015-08-16T13:37:35Z</time>
      </trkpt>
      <trkpt lat="40.571267" lon="-5.047017">
        <ele>2656.0</ele>
        <time>2015-08-16T13:37:36Z</time>
      </trkpt>
      <trkpt lat="40.571267" lon="-5.046867">
        <ele>2656.0</ele>
        <time>2015-08-16T13:37:37Z</time>
      </trkpt>
      <trkpt lat="40.571283" lon="-5.046700">
        <ele>2655.0</ele>
        <time>2015-08-16T13:37:38Z</time>
      </trkpt>
      <trkpt lat="40.571317" lon="-5.046517">
        <ele>2654.0</ele>
        <time>2015-08-16T13:37:39Z</time>
      </trkpt>
      <trkpt lat="40.571350" lon="-5.046333">
        <ele>2652.0</ele>
        <time>2015-08-16T13:37:40Z</time>
      </trkpt>
      <trkpt lat="40.571367" lon="-5.046167">
        <ele>2651.0</ele>
        <time>2015-08-16T13:37:41Z</time>
      </trkpt>
      <trkpt lat="40.571400" lon="-5.046000">
        <ele>2650.0</ele>
        <time>2015-08-16T13:37:42Z</time>
      </trkpt>
      <trkpt lat="40.571433" lon="-5.045833">
        <ele>2650.0</ele>
        <time>2015-08-16T13:37:43Z</time>
      </trkpt>
      <trkpt lat="40.571467" lon="-5.045683">
        <ele>2648.0</ele>
        <time>2015-08-16T13:37:44Z</time>
      </trkpt>
      <trkpt lat="40.571500" lon="-5.045517">
        <ele>2644.0</ele>
        <time>2015-08-16T13:37:45Z</time>
      </trkpt>
      <trkpt lat="40.571517" lon="-5.045350">
        <ele>2640.0</ele>
        <time>2015-08-16T13:37:46Z</time>
      </trkpt>
      <trkpt lat="40.571567" lon="-5.045167">
        <ele>2636.0</ele>
        <time>2015-08-16T13:37:47Z</time>
      </trkpt>
      <trkpt lat="40.571600" lon="-5.044983">
        <ele>2634.0</ele>
        <time>2015-08-16T13:37:48Z</time>
      </trkpt>
      <trkpt lat="40.571633" lon="-5.044817">
        <ele>2633.0</ele>
        <time>2015-08-16T13:37:49Z</time>
      </trkpt>
      <trkpt lat="40.571650" lon="-5.044650">
        <ele>2631.0</ele>
        <time>2015-08-16T13:37:50Z</time>
      </trkpt>
      <trkpt lat="40.571667" lon="-5.044500">
        <ele>2629.0</ele>
        <time>2015-08-16T13:37:51Z</time>
      </trkpt>
      <trkpt lat="40.571683" lon="-5.044350">
        <ele>2626.0</ele>
        <time>2015-08-16T13:37:52Z</time>
      </trkpt>
      <trkpt lat="40.571717" lon="-5.044183">
        <ele>2622.0</ele>
        <time>2015-08-16T13:37:53Z</time>
      </trkpt>
      <trkpt lat="40.571733" lon="-5.044017">
        <ele>2618.0</ele>
        <time>2015-08-16T13:37:54Z</time>
      </trkpt>
      <trkpt lat="40.571767" lon="-5.043850">
        <ele>2615.0</ele>
        <time>2015-08-16T13:37:55Z</time>
      </trkpt>
      <trkpt lat="40.571783" lon="-5.043683">
        <ele>2612.0</ele>
        <time>2015-08-16T13:37:56Z</time>
      </trkpt>
      <trkpt lat="40.571817" lon="-5.043533">
        <ele>2610.0</ele>
        <time>2015-08-16T13:37:57Z</time>
      </trkpt>
      <trkpt lat="40.571867" lon="-5.043383">
        <ele>2608.0</ele>
        <time>2015-08-16T13:37:58Z</time>
      </trkpt>
      <trkpt lat="40.571933" lon="-5.043250">
        <ele>2606.0</ele>
        <time>2015-08-16T13:37:59Z</time>
      </trkpt>
      <trkpt lat="40.571983" lon="-5.043100">
        <ele>2604.0</ele>
        <time>2015-08-16T13:38:00Z</time>
      </trkpt>
      <trkpt lat="40.572033" lon="-5.042933">
        <ele>2602.0</ele>
        <time>2015-08-16T13:38:01Z</time>
      </trkpt>
      <trkpt lat="40.572083" lon="-5.042783">
        <ele>2600.0</ele>
        <time>2015-08-16T13:38:02Z</time>
      </trkpt>
      <trkpt lat="40.572133" lon="-5.042617">
        <ele>2598.0</ele>
        <time>2015-08-16T13:38:03Z</time>
      </trkpt>
      <trkpt lat="40.572200" lon="-5.042450">
        <ele>2596.0</ele>
        <time>2015-08-16T13:38:04Z</time>
      </trkpt>
      <trkpt lat="40.572267" lon="-5.042300">
        <ele>2595.0</ele>
        <time>2015-08-16T13:38:05Z</time>
      </trkpt>
      <trkpt lat="40.572317" lon="-5.042133">
        <ele>2595.0</ele>
        <time>2015-08-16T13:38:06Z</time>
      </trkpt>
      <trkpt lat="40.572367" lon="-5.041967">
        <ele>2595.0</ele>
        <time>2015-08-16T13:38:07Z</time>
      </trkpt>
      <trkpt lat="40.572417" lon="-5.041817">
        <ele>2595.0</ele>
        <time>2015-08-16T13:38:08Z</time>
      </trkpt>
      <trkpt lat="40.572467" lon="-5.041667">
        <ele>2595.0</ele>
        <time>2015-08-16T13:38:09Z</time>
      </trkpt>
      <trkpt lat="40.572500" lon="-5.041517">
        <ele>2594.0</ele>
        <time>2015-08-16T13:38:10Z</time>
      </trkpt>
      <trkpt lat="40.572533" lon="-5.041367">
        <ele>2593.0</ele>
        <time>2015-08-16T13:38:11Z</time>
      </trkpt>
      <trkpt lat="40.572583" lon="-5.041217">
        <ele>2591.0</ele>
        <time>2015-08-16T13:38:12Z</time>
      </trkpt>
      <trkpt lat="40.572617" lon="-5.041067">
        <ele>2588.0</ele>
        <time>2015-08-16T13:38:13Z</time>
      </trkpt>
      <trkpt lat="40.572667" lon="-5.040900">
        <ele>2586.0</ele>
        <time>2015-08-16T13:38:14Z</time>
      </trkpt>
      <trkpt lat="40.572700" lon="-5.040717">
        <ele>2585.0</ele>
        <time>2015-08-16T13:38:15Z</time>
      </trkpt>
      <trkpt lat="40.572733" lon="-5.040533">
        <ele>2584.0</ele>
        <time>2015-08-16T13:38:16Z</time>
      </trkpt>
      <trkpt lat="40.572750" lon="-5.040367">
        <ele>2584.0</ele>
        <time>2015-08-16T13:38:17Z</time>
      </trkpt>
      <trkpt lat="40.572767" lon="-5.040200">
        <ele>2584.0</ele>
        <time>2015-08-16T13:38:18Z</time>
      </trkpt>
      <trkpt lat="40.572783" lon="-5.040033">
        <ele>2583.0</ele>
        <time>2015-08-16T13:38:19Z</time>
      </trkpt>
      <trkpt lat="40.572817" lon="-5.039867">
        <ele>2581.0</ele>
        <time>2015-08-16T13:38:20Z</time>
      </trkpt>
      <trkpt lat="40.572833" lon="-5.039700">
        <ele>2580.0</ele>
        <time>2015-08-16T13:38:21Z</time>
      </trkpt>
      <trkpt lat="40.572867" lon="-5.039517">
        <ele>2578.0</ele>
        <time>2015-08-16T13:38:22Z</time>
      </trkpt>
      <trkpt lat="40.572900" lon="-5.039350">
        <ele>2577.0</ele>
        <time>2015-08-16T13:38:23Z</time>
      </trkpt>
      <trkpt lat="40.572950" lon="-5.039183">
        <ele>2576.0</ele>
        <time>2015-08-16T13:38:24Z</time>
      </trkpt>
      <trkpt lat="40.573000" lon="-5.039017">
        <ele>2574.0</ele>
        <time>2015-08-16T13:38:25Z</time>
      </trkpt>
      <trkpt lat="40.573050" lon="-5.038850">
        <ele>2572.0</ele>
        <time>2015-08-16T13:38:26Z</time>
      </trkpt>
      <trkpt lat="40.573100" lon="-5.038683">
        <ele>2571.0</ele>
        <time>2015-08-16T13:38:27Z</time>
      </trkpt>
      <trkpt lat="40.573150" lon="-5.038500">
        <ele>2570.0</ele>
        <time>2015-08-16T13:38:28Z</time>
      </trkpt>
      <trkpt lat="40.573200" lon="-5.038317">
        <ele>2570.0</ele>
        <time>2015-08-16T13:38:29Z</time>
      </trkpt>
      <trkpt lat="40.573267" lon="-5.038150">
        <ele>2570.0</ele>
        <time>2015-08-16T13:38:30Z</time>
      </trkpt>
      <trkpt lat="40.573317" lon="-5.037967">
        <ele>2570.0</ele>
        <time>2015-08-16T13:38:31Z</time>
      </trkpt>
      <trkpt lat="40.573400" lon="-5.037800">
        <ele>2570.0</ele>
        <time>2015-08-16T13:38:32Z</time>
      </trkpt>
      <trkpt lat="40.573450" lon="-5.037633">
        <ele>2570.0</ele>
        <time>2015-08-16T13:38:33Z</time>
      </trkpt>
      <trkpt lat="40.573517" lon="-5.037467">
        <ele>2569.0</ele>
        <time>2015-08-16T13:38:34Z</time>
      </trkpt>
      <trkpt lat="40.573567" lon="-5.037283">
        <ele>2568.0</ele>
        <time>2015-08-16T13:38:35Z</time>
      </trkpt>
      <trkpt lat="40.573617" lon="-5.037100">
        <ele>2566.0</ele>
        <time>2015-08-16T13:38:36Z</time>
      </trkpt>
      <trkpt lat="40.573667" lon="-5.036917">
        <ele>2565.0</ele>
        <time>2015-08-16T13:38:37Z</time>
      </trkpt>
      <trkpt lat="40.573700" lon="-5.036717">
        <ele>2563.0</ele>
        <time>2015-08-16T13:38:38Z</time>
      </trkpt>
      <trkpt lat="40.573733" lon="-5.036517">
        <ele>2561.0</ele>
        <time>2015-08-16T13:38:39Z</time>
      </trkpt>
      <trkpt lat="40.573750" lon="-5.036300">
        <ele>2560.0</ele>
        <time>2015-08-16T13:38:40Z</time>
      </trkpt>
      <trkpt lat="40.573783" lon="-5.036083">
        <ele>2560.0</ele>
        <time>2015-08-16T13:38:41Z</time>
      </trkpt>
      <trkpt lat="40.573817" lon="-5.035883">
        <ele>2562.0</ele>
        <time>2015-08-16T13:38:42Z</time>
      </trkpt>
      <trkpt lat="40.573833" lon="-5.035717">
        <ele>2562.0</ele>
        <time>2015-08-16T13:38:43Z</time>
      </trkpt>
      <trkpt lat="40.573867" lon="-5.035550">
        <ele>2562.0</ele>
        <time>2015-08-16T13:38:44Z</time>
      </trkpt>
      <trkpt lat="40.573883" lon="-5.035383">
        <ele>2561.0</ele>
        <time>2015-08-16T13:38:45Z</time>
      </trkpt>
      <trkpt lat="40.573917" lon="-5.035200">
        <ele>2559.0</ele>
        <time>2015-08-16T13:38:46Z</time>
      </trkpt>
      <trkpt lat="40.573950" lon="-5.035017">
        <ele>2556.0</ele>
        <time>2015-08-16T13:38:47Z</time>
      </trkpt>
      <trkpt lat="40.574000" lon="-5.034817">
        <ele>2554.0</ele>
        <time>2015-08-16T13:38:48Z</time>
      </trkpt>
      <trkpt lat="40.574033" lon="-5.034600">
        <ele>2552.0</ele>
        <time>2015-08-16T13:38:49Z</time>
      </trkpt>
      <trkpt lat="40.574067" lon="-5.034400">
        <ele>2551.0</ele>
        <time>2015-08-16T13:38:50Z</time>
      </trkpt>
      <trkpt lat="40.574100" lon="-5.034217">
        <ele>2550.0</ele>
        <time>2015-08-16T13:38:51Z</time>
      </trkpt>
      <trkpt lat="40.574150" lon="-5.034050">
        <ele>2549.0</ele>
        <time>2015-08-16T13:38:52Z</time>
      </trkpt>
      <trkpt lat="40.574183" lon="-5.033883">
        <ele>2546.0</ele>
        <time>2015-08-16T13:38:53Z</time>
      </trkpt>
      <trkpt lat="40.574217" lon="-5.033733">
        <ele>2543.0</ele>
        <time>2015-08-16T13:38:54Z</time>
      </trkpt>
      <trkpt lat="40.574267" lon="-5.033550">
        <ele>2540.0</ele>
        <time>2015-08-16T13:38:55Z</time>
      </trkpt>
      <trkpt lat="40.574317" lon="-5.033383">
        <ele>2538.0</ele>
        <time>2015-08-16T13:38:56Z</time>
      </trkpt>
      <trkpt lat="40.574350" lon="-5.033217">
        <ele>2538.0</ele>
        <time>2015-08-16T13:38:57Z</time>
      </trkpt>
      <trkpt lat="40.574383" lon="-5.033033">
        <ele>2537.0</ele>
        <time>2015-08-16T13:38:58Z</time>
      </trkpt>
      <trkpt lat="40.574433" lon="-5.032867">
        <ele>2537.0</ele>
        <time>2015-08-16T13:38:59Z</time>
      </trkpt>
      <trkpt lat="40.574450" lon="-5.032683">
        <ele>2536.0</ele>
        <time>2015-08-16T13:39:00Z</time>
      </trkpt>
      <trkpt lat="40.574483" lon="-5.032500">
        <ele>2536.0</ele>
        <time>2015-08-16T13:39:01Z</time>
      </trkpt>
      <trkpt lat="40.574500" lon="-5.032300">
        <ele>2537.0</ele>
        <time>2015-08-16T13:39:02Z</time>
      </trkpt>
      <trkpt lat="40.574533" lon="-5.032117">
        <ele>2538.0</ele>
        <time>2015-08-16T13:39:03Z</time>
      </trkpt>
      <trkpt lat="40.574550" lon="-5.031950">
        <ele>2540.0</ele>
        <time>2015-08-16T13:39:04Z</time>
      </trkpt>
      <trkpt lat="40.574550" lon="-5.031783">
        <ele>2541.0</ele>
        <time>2015-08-16T13:39:05Z</time>
      </trkpt>
      <trkpt lat="40.574533" lon="-5.031617">
        <ele>2541.0</ele>
        <time>2015-08-16T13:39:06Z</time>
      </trkpt>
      <trkpt lat="40.574517" lon="-5.031450">
        <ele>2540.0</ele>
        <time>2015-08-16T13:39:07Z</time>
      </trkpt>
      <trkpt lat="40.574500" lon="-5.031267">
        <ele>2539.0</ele>
        <time>2015-08-16T13:39:08Z</time>
      </trkpt>
      <trkpt lat="40.574517" lon="-5.031083">
        <ele>2538.0</ele>
        <time>2015-08-16T13:39:09Z</time>
      </trkpt>
      <trkpt lat="40.574567" lon="-5.030917">
        <ele>2537.0</ele>
        <time>2015-08-16T13:39:10Z</time>
      </trkpt>
      <trkpt lat="40.574600" lon="-5.030733">
        <ele>2538.0</ele>
        <time>2015-08-16T13:39:11Z</time>
      </trkpt>
      <trkpt lat="40.574633" lon="-5.030583">
        <ele>2539.0</ele>
        <time>2015-08-16T13:39:12Z</time>
      </trkpt>
      <trkpt lat="40.574667" lon="-5.030433">
        <ele>2539.0</ele>
        <time>2015-08-16T13:39:13Z</time>
      </trkpt>
      <trkpt lat="40.574683" lon="-5.030283">
        <ele>2539.0</ele>
        <time>2015-08-16T13:39:14Z</time>
      </trkpt>
      <trkpt lat="40.574717" lon="-5.030133">
        <ele>2537.0</ele>
        <time>2015-08-16T13:39:15Z</time>
      </trkpt>
      <trkpt lat="40.574767" lon="-5.029967">
        <ele>2536.0</ele>
        <time>2015-08-16T13:39:16Z</time>
      </trkpt>
      <trkpt lat="40.574817" lon="-5.029800">
        <ele>2535.0</ele>
        <time>2015-08-16T13:39:17Z</time>
      </trkpt>
      <trkpt lat="40.574867" lon="-5.029633">
        <ele>2536.0</ele>
        <time>2015-08-16T13:39:18Z</time>
      </trkpt>
      <trkpt lat="40.574900" lon="-5.029467">
        <ele>2537.0</ele>
        <time>2015-08-16T13:39:19Z</time>
      </trkpt>
      <trkpt lat="40.574950" lon="-5.029300">
        <ele>2538.0</ele>
        <time>2015-08-16T13:39:20Z</time>
      </trkpt>
      <trkpt lat="40.574983" lon="-5.029150">
        <ele>2539.0</ele>
        <time>2015-08-16T13:39:21Z</time>
      </trkpt>
      <trkpt lat="40.575017" lon="-5.029017">
        <ele>2539.0</ele>
        <time>2015-08-16T13:39:22Z</time>
      </trkpt>
      <trkpt lat="40.575050" lon="-5.028867">
        <ele>2538.0</ele>
        <time>2015-08-16T13:39:23Z</time>
      </trkpt>
      <trkpt lat="40.575100" lon="-5.028717">
        <ele>2537.0</ele>
        <time>2015-08-16T13:39:24Z</time>
      </trkpt>
      <trkpt lat="40.575133" lon="-5.028550">
        <ele>2536.0</ele>
        <time>2015-08-16T13:39:25Z</time>
      </trkpt>
      <trkpt lat="40.575167" lon="-5.028383">
        <ele>2535.0</ele>
        <time>2015-08-16T13:39:26Z</time>
      </trkpt>
      <trkpt lat="40.575200" lon="-5.028217">
        <ele>2535.0</ele>
        <time>2015-08-16T13:39:27Z</time>
      </trkpt>
      <trkpt lat="40.575233" lon="-5.028067">
        <ele>2535.0</ele>
        <time>2015-08-16T13:39:28Z</time>
      </trkpt>
      <trkpt lat="40.575250" lon="-5.027917">
        <ele>2534.0</ele>
        <time>2015-08-16T13:39:29Z</time>
      </trkpt>
      <trkpt lat="40.575283" lon="-5.027767">
        <ele>2533.0</ele>
        <time>2015-08-16T13:39:30Z</time>
      </trkpt>
      <trkpt lat="40.575317" lon="-5.027617">
        <ele>2531.0</ele>
        <time>2015-08-16T13:39:31Z</time>
      </trkpt>
      <trkpt lat="40.575350" lon="-5.027483">
        <ele>2529.0</ele>
        <time>2015-08-16T13:39:32Z</time>
      </trkpt>
      <trkpt lat="40.575400" lon="-5.027317">
        <ele>2528.0</ele>
        <time>2015-08-16T13:39:33Z</time>
      </trkpt>
      <trkpt lat="40.575433" lon="-5.027167">
        <ele>2526.0</ele>
        <time>2015-08-16T13:39:34Z</time>
      </trkpt>
      <trkpt lat="40.575467" lon="-5.027017">
        <ele>2525.0</ele>
        <time>2015-08-16T13:39:35Z</time>
      </trkpt>
      <trkpt lat="40.575500" lon="-5.026867">
        <ele>2524.0</ele>
        <time>2015-08-16T13:39:36Z</time>
      </trkpt>
      <trkpt lat="40.575550" lon="-5.026733">
        <ele>2523.0</ele>
        <time>2015-08-16T13:39:37Z</time>
      </trkpt>
      <trkpt lat="40.575583" lon="-5.026583">
        <ele>2522.0</ele>
        <time>2015-08-16T13:39:38Z</time>
      </trkpt>
      <trkpt lat="40.575617" lon="-5.026450">
        <ele>2520.0</ele>
        <time>2015-08-16T13:39:39Z</time>
      </trkpt>
      <trkpt lat="40.575667" lon="-5.026300">
        <ele>2518.0</ele>
        <time>2015-08-16T13:39:40Z</time>
      </trkpt>
      <trkpt lat="40.575700" lon="-5.026150">
        <ele>2516.0</ele>
        <time>2015-08-16T13:39:41Z</time>
      </trkpt>
      <trkpt lat="40.575767" lon="-5.026000">
        <ele>2515.0</ele>
        <time>2015-08-16T13:39:42Z</time>
      </trkpt>
      <trkpt lat="40.575833" lon="-5.025850">
        <ele>2514.0</ele>
        <time>2015-08-16T13:39:43Z</time>
      </trkpt>
      <trkpt lat="40.575883" lon="-5.025717">
        <ele>2513.0</ele>
        <time>2015-08-16T13:39:44Z</time>
      </trkpt>
      <trkpt lat="40.575917" lon="-5.025583">
        <ele>2513.0</ele>
        <time>2015-08-16T13:39:45Z</time>
      </trkpt>
      <trkpt lat="40.575967" lon="-5.025450">
        <ele>2512.0</ele>
        <time>2015-08-16T13:39:46Z</time>
      </trkpt>
      <trkpt lat="40.576000" lon="-5.025317">
        <ele>2511.0</ele>
        <time>2015-08-16T13:39:47Z</time>
      </trkpt>
      <trkpt lat="40.576033" lon="-5.025200">
        <ele>2510.0</ele>
        <time>2015-08-16T13:39:48Z</time>
      </trkpt>
      <trkpt lat="40.576067" lon="-5.025050">
        <ele>2507.0</ele>
        <time>2015-08-16T13:39:49Z</time>
      </trkpt>
      <trkpt lat="40.576083" lon="-5.024900">
        <ele>2505.0</ele>
        <time>2015-08-16T13:39:50Z</time>
      </trkpt>
      <trkpt lat="40.576117" lon="-5.024733">
        <ele>2502.0</ele>
        <time>2015-08-16T13:39:51Z</time>
      </trkpt>
      <trkpt lat="40.576133" lon="-5.024583">
        <ele>2500.0</ele>
        <time>2015-08-16T13:39:52Z</time>
      </trkpt>
      <trkpt lat="40.576150" lon="-5.024417">
        <ele>2498.0</ele>
        <time>2015-08-16T13:39:53Z</time>
      </trkpt>
      <trkpt lat="40.576183" lon="-5.024250">
        <ele>2497.0</ele>
        <time>2015-08-16T13:39:54Z</time>
      </trkpt>
      <trkpt lat="40.576217" lon="-5.024100">
        <ele>2496.0</ele>
        <time>2015-08-16T13:39:55Z</time>
      </trkpt>
      <trkpt lat="40.576233" lon="-5.023950">
        <ele>2495.0</ele>
        <time>2015-08-16T13:39:56Z</time>
      </trkpt>
      <trkpt lat="40.576267" lon="-5.023800">
        <ele>2494.0</ele>
        <time>2015-08-16T13:39:57Z</time>
      </trkpt>
      <trkpt lat="40.576283" lon="-5.023650">
        <ele>2494.0</ele>
        <time>2015-08-16T13:39:58Z</time>
      </trkpt>
      <trkpt lat="40.576300" lon="-5.023483">
        <ele>2492.0</ele>
        <time>2015-08-16T13:39:59Z</time>
      </trkpt>
      <trkpt lat="40.576333" lon="-5.023333">
        <ele>2491.0</ele>
        <time>2015-08-16T13:40:00Z</time>
      </trkpt>
      <trkpt lat="40.576383" lon="-5.023183">
        <ele>2490.0</ele>
        <time>2015-08-16T13:40:01Z</time>
      </trkpt>
      <trkpt lat="40.576433" lon="-5.023050">
        <ele>2488.0</ele>
        <time>2015-08-16T13:40:02Z</time>
      </trkpt>
      <trkpt lat="40.576483" lon="-5.022917">
        <ele>2486.0</ele>
        <time>2015-08-16T13:40:03Z</time>
      </trkpt>
      <trkpt lat="40.576517" lon="-5.022767">
        <ele>2485.0</ele>
        <time>2015-08-16T13:40:04Z</time>
      </trkpt>
      <trkpt lat="40.576567" lon="-5.022650">
        <ele>2483.0</ele>
        <time>2015-08-16T13:40:05Z</time>
      </trkpt>
      <trkpt lat="40.576617" lon="-5.022517">
        <ele>2481.0</ele>
        <time>2015-08-16T13:40:06Z</time>
      </trkpt>
      <trkpt lat="40.576650" lon="-5.022383">
        <ele>2479.0</ele>
        <time>2015-08-16T13:40:07Z</time>
      </trkpt>
      <trkpt lat="40.576667" lon="-5.022233">
        <ele>2476.0</ele>
        <time>2015-08-16T13:40:08Z</time>
      </trkpt>
      <trkpt lat="40.576683" lon="-5.022100">
        <ele>2473.0</ele>
        <time>2015-08-16T13:40:09Z</time>
      </trkpt>
      <trkpt lat="40.576700" lon="-5.021950">
        <ele>2471.0</ele>
        <time>2015-08-16T13:40:10Z</time>
      </trkpt>
      <trkpt lat="40.576733" lon="-5.021800">
        <ele>2469.0</ele>
        <time>2015-08-16T13:40:11Z</time>
      </trkpt>
      <trkpt lat="40.576767" lon="-5.021650">
        <ele>2467.0</ele>
        <time>2015-08-16T13:40:12Z</time>
      </trkpt>
      <trkpt lat="40.576783" lon="-5.021483">
        <ele>2466.0</ele>
        <time>2015-08-16T13:40:13Z</time>
      </trkpt>
      <trkpt lat="40.576800" lon="-5.021350">
        <ele>2466.0</ele>
        <time>2015-08-16T13:40:14Z</time>
      </trkpt>
      <trkpt lat="40.576800" lon="-5.021217">
        <ele>2466.0</ele>
        <time>2015-08-16T13:40:15Z</time>
      </trkpt>
      <trkpt lat="40.576817" lon="-5.021100">
        <ele>2465.0</ele>
        <time>2015-08-16T13:40:16Z</time>
      </trkpt>
      <trkpt lat="40.576833" lon="-5.020983">
        <ele>2463.0</ele>
        <time>2015-08-16T13:40:17Z</time>
      </trkpt>
      <trkpt lat="40.576850" lon="-5.020833">
        <ele>2460.0</ele>
        <time>2015-08-16T13:40:18Z</time>
      </trkpt>
      <trkpt lat="40.576883" lon="-5.020700">
        <ele>2459.0</ele>
        <time>2015-08-16T13:40:19Z</time>
      </trkpt>
      <trkpt lat="40.576933" lon="-5.020567">
        <ele>2459.0</ele>
        <time>2015-08-16T13:40:20Z</time>
      </trkpt>
      <trkpt lat="40.576967" lon="-5.020450">
        <ele>2460.0</ele>
        <time>2015-08-16T13:40:21Z</time>
      </trkpt>
      <trkpt lat="40.577017" lon="-5.020350">
        <ele>2460.0</ele>
        <time>2015-08-16T13:40:22Z</time>
      </trkpt>
      <trkpt lat="40.577033" lon="-5.020250">
        <ele>2460.0</ele>
        <time>2015-08-16T13:40:23Z</time>
      </trkpt>
      <trkpt lat="40.577067" lon="-5.020150">
        <ele>2458.0</ele>
        <time>2015-08-16T13:40:24Z</time>
      </trkpt>
      <trkpt lat="40.577100" lon="-5.020033">
        <ele>2455.0</ele>
        <time>2015-08-16T13:40:25Z</time>
      </trkpt>
      <trkpt lat="40.577133" lon="-5.019917">
        <ele>2452.0</ele>
        <time>2015-08-16T13:40:26Z</time>
      </trkpt>
      <trkpt lat="40.577183" lon="-5.019783">
        <ele>2450.0</ele>
        <time>2015-08-16T13:40:27Z</time>
      </trkpt>
      <trkpt lat="40.577217" lon="-5.019650">
        <ele>2449.0</ele>
        <time>2015-08-16T13:40:28Z</time>
      </trkpt>
      <trkpt lat="40.577250" lon="-5.019517">
        <ele>2448.0</ele>
        <time>2015-08-16T13:40:29Z</time>
      </trkpt>
      <trkpt lat="40.577283" lon="-5.019383">
        <ele>2448.0</ele>
        <time>2015-08-16T13:40:30Z</time>
      </trkpt>
      <trkpt lat="40.577333" lon="-5.019233">
        <ele>2449.0</ele>
        <time>2015-08-16T13:40:31Z</time>
      </trkpt>
      <trkpt lat="40.577367" lon="-5.019100">
        <ele>2449.0</ele>
        <time>2015-08-16T13:40:32Z</time>
      </trkpt>
      <trkpt lat="40.577400" lon="-5.018983">
        <ele>2449.0</ele>
        <time>2015-08-16T13:40:33Z</time>
      </trkpt>
      <trkpt lat="40.577450" lon="-5.018867">
        <ele>2449.0</ele>
        <time>2015-08-16T13:40:34Z</time>
      </trkpt>
      <trkpt lat="40.577500" lon="-5.018750">
        <ele>2448.0</ele>
        <time>2015-08-16T13:40:35Z</time>
      </trkpt>
      <trkpt lat="40.577550" lon="-5.018650">
        <ele>2447.0</ele>
        <time>2015-08-16T13:40:36Z</time>
      </trkpt>
      <trkpt lat="40.577600" lon="-5.018550">
        <ele>2445.0</ele>
        <time>2015-08-16T13:40:37Z</time>
      </trkpt>
      <trkpt lat="40.577633" lon="-5.018450">
        <ele>2444.0</ele>
        <time>2015-08-16T13:40:38Z</time>
      </trkpt>
      <trkpt lat="40.577683" lon="-5.018333">
        <ele>2442.0</ele>
        <time>2015-08-16T13:40:39Z</time>
      </trkpt>
      <trkpt lat="40.577733" lon="-5.018217">
        <ele>2440.0</ele>
        <time>2015-08-16T13:40:40Z</time>
      </trkpt>
      <trkpt lat="40.577783" lon="-5.018100">
        <ele>2439.0</ele>
        <time>2015-08-16T13:40:41Z</time>
      </trkpt>
      <trkpt lat="40.577833" lon="-5.017983">
        <ele>2439.0</ele>
        <time>2015-08-16T13:40:42Z</time>
      </trkpt>
      <trkpt lat="40.577883" lon="-5.017883">
        <ele>2440.0</ele>
        <time>2015-08-16T13:40:43Z</time>
      </trkpt>
      <trkpt lat="40.577933" lon="-5.017817">
        <ele>2440.0</ele>
        <time>2015-08-16T13:40:44Z</time>
      </trkpt>
      <trkpt lat="40.577983" lon="-5.017733">
        <ele>2439.0</ele>
        <time>2015-08-16T13:40:45Z</time>
      </trkpt>
      <trkpt lat="40.578033" lon="-5.017650">
        <ele>2436.0</ele>
        <time>2015-08-16T13:40:46Z</time>
      </trkpt>
      <trkpt lat="40.578083" lon="-5.017550">
        <ele>2433.0</ele>
        <time>2015-08-16T13:40:47Z</time>
      </trkpt>
      <trkpt lat="40.578133" lon="-5.017433">
        <ele>2431.0</ele>
        <time>2015-08-16T13:40:48Z</time>
      </trkpt>
      <trkpt lat="40.578183" lon="-5.017333">
        <ele>2429.0</ele>
        <time>2015-08-16T13:40:49Z</time>
      </trkpt>
      <trkpt lat="40.578250" lon="-5.017233">
        <ele>2427.0</ele>
        <time>2015-08-16T13:40:50Z</time>
      </trkpt>
      <trkpt lat="40.578300" lon="-5.017133">
        <ele>2427.0</ele>
        <time>2015-08-16T13:40:51Z</time>
      </trkpt>
      <trkpt lat="40.578350" lon="-5.017033">
        <ele>2426.0</ele>
        <time>2015-08-16T13:40:52Z</time>
      </trkpt>
      <trkpt lat="40.578383" lon="-5.016933">
        <ele>2425.0</ele>
        <time>2015-08-16T13:40:53Z</time>
      </trkpt>
      <trkpt lat="40.578433" lon="-5.016817">
        <ele>2424.0</ele>
        <time>2015-08-16T13:40:54Z</time>
      </trkpt>
      <trkpt lat="40.578467" lon="-5.016700">
        <ele>2423.0</ele>
        <time>2015-08-16T13:40:55Z</time>
      </trkpt>
      <trkpt lat="40.578517" lon="-5.016600">
        <ele>2423.0</ele>
        <time>2015-08-16T13:40:56Z</time>
      </trkpt>
      <trkpt lat="40.578550" lon="-5.016500">
        <ele>2423.0</ele>
        <time>2015-08-16T13:40:57Z</time>
      </trkpt>
      <trkpt lat="40.578600" lon="-5.016417">
        <ele>2422.0</ele>
        <time>2015-08-16T13:40:58Z</time>
      </trkpt>
      <trkpt lat="40.578650" lon="-5.016317">
        <ele>2420.0</ele>
        <time>2015-08-16T13:40:59Z</time>
      </trkpt>
      <trkpt lat="40.578717" lon="-5.016217">
        <ele>2419.0</ele>
        <time>2015-08-16T13:41:00Z</time>
      </trkpt>
      <trkpt lat="40.578767" lon="-5.016117">
        <ele>2419.0</ele>
        <time>2015-08-16T13:41:01Z</time>
      </trkpt>
      <trkpt lat="40.578833" lon="-5.016033">
        <ele>2419.0</ele>
        <time>2015-08-16T13:41:02Z</time>
      </trkpt>
      <trkpt lat="40.578883" lon="-5.015950">
        <ele>2419.0</ele>
        <time>2015-08-16T13:41:03Z</time>
      </trkpt>
      <trkpt lat="40.578950" lon="-5.015850">
        <ele>2419.0</ele>
        <time>2015-08-16T13:41:04Z</time>
      </trkpt>
      <trkpt lat="40.579000" lon="-5.015750">
        <ele>2419.0</ele>
        <time>2015-08-16T13:41:05Z</time>
      </trkpt>
      <trkpt lat="40.579067" lon="-5.015650">
        <ele>2419.0</ele>
        <time>2015-08-16T13:41:06Z</time>
      </trkpt>
      <trkpt lat="40.579133" lon="-5.015550">
        <ele>2421.0</ele>
        <time>2015-08-16T13:41:07Z</time>
      </trkpt>
      <trkpt lat="40.579183" lon="-5.015467">
        <ele>2423.0</ele>
        <time>2015-08-16T13:41:08Z</time>
      </trkpt>
      <trkpt lat="40.579250" lon="-5.015400">
        <ele>2424.0</ele>
        <time>2015-08-16T13:41:09Z</time>
      </trkpt>
      <trkpt lat="40.579317" lon="-5.015333">
        <ele>2425.0</ele>
        <time>2015-08-16T13:41:10Z</time>
      </trkpt>
      <trkpt lat="40.579383" lon="-5.015267">
        <ele>2425.0</ele>
        <time>2015-08-16T13:41:11Z</time>
      </trkpt>
      <trkpt lat="40.579467" lon="-5.015200">
        <ele>2425.0</ele>
        <time>2015-08-16T13:41:12Z</time>
      </trkpt>
      <trkpt lat="40.579533" lon="-5.015117">
        <ele>2424.0</ele>
        <time>2015-08-16T13:41:13Z</time>
      </trkpt>
      <trkpt lat="40.579617" lon="-5.015033">
        <ele>2424.0</ele>
        <time>2015-08-16T13:41:14Z</time>
      </trkpt>
      <trkpt lat="40.579700" lon="-5.014950">
        <ele>2423.0</ele>
        <time>2015-08-16T13:41:15Z</time>
      </trkpt>
      <trkpt lat="40.579767" lon="-5.014867">
        <ele>2423.0</ele>
        <time>2015-08-16T13:41:16Z</time>
      </trkpt>
      <trkpt lat="40.579850" lon="-5.014783">
        <ele>2422.0</ele>
        <time>2015-08-16T13:41:17Z</time>
      </trkpt>
      <trkpt lat="40.579917" lon="-5.014700">
        <ele>2421.0</ele>
        <time>2015-08-16T13:41:18Z</time>
      </trkpt>
      <trkpt lat="40.580000" lon="-5.014600">
        <ele>2421.0</ele>
        <time>2015-08-16T13:41:19Z</time>
      </trkpt>
      <trkpt lat="40.580067" lon="-5.014517">
        <ele>2420.0</ele>
        <time>2015-08-16T13:41:20Z</time>
      </trkpt>
      <trkpt lat="40.580133" lon="-5.014417">
        <ele>2420.0</ele>
        <time>2015-08-16T13:41:21Z</time>
      </trkpt>
      <trkpt lat="40.580200" lon="-5.014300">
        <ele>2419.0</ele>
        <time>2015-08-16T13:41:22Z</time>
      </trkpt>
      <trkpt lat="40.580267" lon="-5.014183">
        <ele>2419.0</ele>
        <time>2015-08-16T13:41:23Z</time>
      </trkpt>
      <trkpt lat="40.580333" lon="-5.014083">
        <ele>2419.0</ele>
        <time>2015-08-16T13:41:24Z</time>
      </trkpt>
      <trkpt lat="40.580383" lon="-5.013967">
        <ele>2418.0</ele>
        <time>2015-08-16T13:41:25Z</time>
      </trkpt>
      <trkpt lat="40.580450" lon="-5.013850">
        <ele>2418.0</ele>
        <time>2015-08-16T13:41:26Z</time>
      </trkpt>
      <trkpt lat="40.580500" lon="-5.013733">
        <ele>2418.0</ele>
        <time>2015-08-16T13:41:27Z</time>
      </trkpt>
      <trkpt lat="40.580533" lon="-5.013617">
        <ele>2418.0</ele>
        <time>2015-08-16T13:41:28Z</time>
      </trkpt>
      <trkpt lat="40.580583" lon="-5.013483">
        <ele>2417.0</ele>
        <time>2015-08-16T13:41:29Z</time>
      </trkpt>
      <trkpt lat="40.580633" lon="-5.013367">
        <ele>2417.0</ele>
        <time>2015-08-16T13:41:30Z</time>
      </trkpt>
      <trkpt lat="40.580667" lon="-5.013233">
        <ele>2416.0</ele>
        <time>2015-08-16T13:41:31Z</time>
      </trkpt>
      <trkpt lat="40.580717" lon="-5.013117">
        <ele>2416.0</ele>
        <time>2015-08-16T13:41:32Z</time>
      </trkpt>
      <trkpt lat="40.580750" lon="-5.012967">
        <ele>2415.0</ele>
        <time>2015-08-16T13:41:33Z</time>
      </trkpt>
      <trkpt lat="40.580783" lon="-5.012833">
        <ele>2415.0</ele>
        <time>2015-08-16T13:41:34Z</time>
      </trkpt>
      <trkpt lat="40.580800" lon="-5.012700">
        <ele>2414.0</ele>
        <time>2015-08-16T13:41:35Z</time>
      </trkpt>
      <trkpt lat="40.580833" lon="-5.012567">
        <ele>2414.0</ele>
        <time>2015-08-16T13:41:36Z</time>
      </trkpt>
      <trkpt lat="40.580850" lon="-5.012450">
        <ele>2414.0</ele>
        <time>2015-08-16T13:41:37Z</time>
      </trkpt>
      <trkpt lat="40.580867" lon="-5.012333">
        <ele>2413.0</ele>
        <time>2015-08-16T13:41:38Z</time>
      </trkpt>
      <trkpt lat="40.580883" lon="-5.012217">
        <ele>2411.0</ele>
        <time>2015-08-16T13:41:39Z</time>
      </trkpt>
      <trkpt lat="40.580900" lon="-5.012083">
        <ele>2409.0</ele>
        <time>2015-08-16T13:41:40Z</time>
      </trkpt>
      <trkpt lat="40.580917" lon="-5.011967">
        <ele>2408.0</ele>
        <time>2015-08-16T13:41:41Z</time>
      </trkpt>
      <trkpt lat="40.580933" lon="-5.011850">
        <ele>2406.0</ele>
        <time>2015-08-16T13:41:42Z</time>
      </trkpt>
      <trkpt lat="40.580950" lon="-5.011717">
        <ele>2405.0</ele>
        <time>2015-08-16T13:41:43Z</time>
      </trkpt>
      <trkpt lat="40.580967" lon="-5.011600">
        <ele>2404.0</ele>
        <time>2015-08-16T13:41:44Z</time>
      </trkpt>
      <trkpt lat="40.580983" lon="-5.011483">
        <ele>2403.0</ele>
        <time>2015-08-16T13:41:45Z</time>
      </trkpt>
      <trkpt lat="40.581000" lon="-5.011367">
        <ele>2402.0</ele>
        <time>2015-08-16T13:41:46Z</time>
      </trkpt>
      <trkpt lat="40.581000" lon="-5.011233">
        <ele>2401.0</ele>
        <time>2015-08-16T13:41:47Z</time>
      </trkpt>
      <trkpt lat="40.581017" lon="-5.011100">
        <ele>2400.0</ele>
        <time>2015-08-16T13:41:48Z</time>
      </trkpt>
      <trkpt lat="40.581017" lon="-5.010967">
        <ele>2399.0</ele>
        <time>2015-08-16T13:41:49Z</time>
      </trkpt>
      <trkpt lat="40.581033" lon="-5.010833">
        <ele>2399.0</ele>
        <time>2015-08-16T13:41:50Z</time>
      </trkpt>
      <trkpt lat="40.581050" lon="-5.010700">
        <ele>2398.0</ele>
        <time>2015-08-16T13:41:51Z</time>
      </trkpt>
      <trkpt lat="40.581050" lon="-5.010583">
        <ele>2398.0</ele>
        <time>2015-08-16T13:41:52Z</time>
      </trkpt>
      <trkpt lat="40.581067" lon="-5.010450">
        <ele>2398.0</ele>
        <time>2015-08-16T13:41:53Z</time>
      </trkpt>
      <trkpt lat="40.581083" lon="-5.010333">
        <ele>2396.0</ele>
        <time>2015-08-16T13:41:54Z</time>
      </trkpt>
      <trkpt lat="40.581100" lon="-5.010217">
        <ele>2395.0</ele>
        <time>2015-08-16T13:41:55Z</time>
      </trkpt>
      <trkpt lat="40.581117" lon="-5.010083">
        <ele>2393.0</ele>
        <time>2015-08-16T13:41:56Z</time>
      </trkpt>
      <trkpt lat="40.581150" lon="-5.009950">
        <ele>2392.0</ele>
        <time>2015-08-16T13:41:57Z</time>
      </trkpt>
      <trkpt lat="40.581167" lon="-5.009833">
        <ele>2391.0</ele>
        <time>2015-08-16T13:41:58Z</time>
      </trkpt>
      <trkpt lat="40.581183" lon="-5.009700">
        <ele>2392.0</ele>
        <time>2015-08-16T13:41:59Z</time>
      </trkpt>
      <trkpt lat="40.581200" lon="-5.009600">
        <ele>2391.0</ele>
        <time>2015-08-16T13:42:00Z</time>
      </trkpt>
      <trkpt lat="40.581233" lon="-5.009500">
        <ele>2390.0</ele>
        <time>2015-08-16T13:42:01Z</time>
      </trkpt>
      <trkpt lat="40.581267" lon="-5.009383">
        <ele>2388.0</ele>
        <time>2015-08-16T13:42:02Z</time>
      </trkpt>
      <trkpt lat="40.581300" lon="-5.009267">
        <ele>2386.0</ele>
        <time>2015-08-16T13:42:03Z</time>
      </trkpt>
      <trkpt lat="40.581317" lon="-5.009133">
        <ele>2385.0</ele>
        <time>2015-08-16T13:42:04Z</time>
      </trkpt>
      <trkpt lat="40.581333" lon="-5.009000">
        <ele>2384.0</ele>
        <time>2015-08-16T13:42:05Z</time>
      </trkpt>
      <trkpt lat="40.581367" lon="-5.008883">
        <ele>2383.0</ele>
        <time>2015-08-16T13:42:06Z</time>
      </trkpt>
      <trkpt lat="40.581400" lon="-5.008783">
        <ele>2381.0</ele>
        <time>2015-08-16T13:42:07Z</time>
      </trkpt>
      <trkpt lat="40.581417" lon="-5.008667">
        <ele>2379.0</ele>
        <time>2015-08-16T13:42:08Z</time>
      </trkpt>
      <trkpt lat="40.581450" lon="-5.008550">
        <ele>2377.0</ele>
        <time>2015-08-16T13:42:09Z</time>
      </trkpt>
      <trkpt lat="40.581467" lon="-5.008417">
        <ele>2375.0</ele>
        <time>2015-08-16T13:42:10Z</time>
      </trkpt>
      <trkpt lat="40.581483" lon="-5.008283">
        <ele>2373.0</ele>
        <time>2015-08-16T13:42:11Z</time>
      </trkpt>
      <trkpt lat="40.581500" lon="-5.008167">
        <ele>2372.0</ele>
        <time>2015-08-16T13:42:12Z</time>
      </trkpt>
      <trkpt lat="40.581533" lon="-5.008033">
        <ele>2371.0</ele>
        <time>2015-08-16T13:42:13Z</time>
      </trkpt>
      <trkpt lat="40.581550" lon="-5.007933">
        <ele>2370.0</ele>
        <time>2015-08-16T13:42:14Z</time>
      </trkpt>
      <trkpt lat="40.581567" lon="-5.007817">
        <ele>2367.0</ele>
        <time>2015-08-16T13:42:15Z</time>
      </trkpt>
      <trkpt lat="40.581583" lon="-5.007700">
        <ele>2365.0</ele>
        <time>2015-08-16T13:42:16Z</time>
      </trkpt>
      <trkpt lat="40.581600" lon="-5.007567">
        <ele>2362.0</ele>
        <time>2015-08-16T13:42:17Z</time>
      </trkpt>
      <trkpt lat="40.581633" lon="-5.007433">
        <ele>2360.0</ele>
        <time>2015-08-16T13:42:18Z</time>
      </trkpt>
      <trkpt lat="40.581667" lon="-5.007317">
        <ele>2360.0</ele>
        <time>2015-08-16T13:42:19Z</time>
      </trkpt>
      <trkpt lat="40.581683" lon="-5.007200">
        <ele>2361.0</ele>
        <time>2015-08-16T13:42:20Z</time>
      </trkpt>
      <trkpt lat="40.581700" lon="-5.007100">
        <ele>2362.0</ele>
        <time>2015-08-16T13:42:21Z</time>
      </trkpt>
      <trkpt lat="40.581733" lon="-5.006983">
        <ele>2362.0</ele>
        <time>2015-08-16T13:42:22Z</time>
      </trkpt>
      <trkpt lat="40.581750" lon="-5.006883">
        <ele>2361.0</ele>
        <time>2015-08-16T13:42:23Z</time>
      </trkpt>
      <trkpt lat="40.581767" lon="-5.006767">
        <ele>2359.0</ele>
        <time>2015-08-16T13:42:24Z</time>
      </trkpt>
      <trkpt lat="40.581800" lon="-5.006633">
        <ele>2358.0</ele>
        <time>2015-08-16T13:42:25Z</time>
      </trkpt>
      <trkpt lat="40.581817" lon="-5.006500">
        <ele>2357.0</ele>
        <time>2015-08-16T13:42:26Z</time>
      </trkpt>
      <trkpt lat="40.581833" lon="-5.006367">
        <ele>2357.0</ele>
        <time>2015-08-16T13:42:27Z</time>
      </trkpt>
      <trkpt lat="40.581850" lon="-5.006233">
        <ele>2357.0</ele>
        <time>2015-08-16T13:42:28Z</time>
      </trkpt>
      <trkpt lat="40.581867" lon="-5.006117">
        <ele>2358.0</ele>
        <time>2015-08-16T13:42:29Z</time>
      </trkpt>
      <trkpt lat="40.581883" lon="-5.005983">
        <ele>2359.0</ele>
        <time>2015-08-16T13:42:30Z</time>
      </trkpt>
      <trkpt lat="40.581900" lon="-5.005867">
        <ele>2360.0</ele>
        <time>2015-08-16T13:42:31Z</time>
      </trkpt>
      <trkpt lat="40.581917" lon="-5.005750">
        <ele>2359.0</ele>
        <time>2015-08-16T13:42:32Z</time>
      </trkpt>
      <trkpt lat="40.581933" lon="-5.005633">
        <ele>2359.0</ele>
        <time>2015-08-16T13:42:33Z</time>
      </trkpt>
      <trkpt lat="40.581950" lon="-5.005517">
        <ele>2359.0</ele>
        <time>2015-08-16T13:42:34Z</time>
      </trkpt>
      <trkpt lat="40.581967" lon="-5.005383">
        <ele>2359.0</ele>
        <time>2015-08-16T13:42:35Z</time>
      </trkpt>
      <trkpt lat="40.581983" lon="-5.005250">
        <ele>2360.0</ele>
        <time>2015-08-16T13:42:36Z</time>
      </trkpt>
      <trkpt lat="40.581983" lon="-5.005117">
        <ele>2361.0</ele>
        <time>2015-08-16T13:42:37Z</time>
      </trkpt>
      <trkpt lat="40.581983" lon="-5.005017">
        <ele>2362.0</ele>
        <time>2015-08-16T13:42:38Z</time>
      </trkpt>
      <trkpt lat="40.581983" lon="-5.004917">
        <ele>2364.0</ele>
        <time>2015-08-16T13:42:39Z</time>
      </trkpt>
      <trkpt lat="40.581983" lon="-5.004817">
        <ele>2365.0</ele>
        <time>2015-08-16T13:42:40Z</time>
      </trkpt>
      <trkpt lat="40.581983" lon="-5.004717">
        <ele>2364.0</ele>
        <time>2015-08-16T13:42:41Z</time>
      </trkpt>
      <trkpt lat="40.581950" lon="-5.004600">
        <ele>2364.0</ele>
        <time>2015-08-16T13:42:42Z</time>
      </trkpt>
      <trkpt lat="40.581917" lon="-5.004483">
        <ele>2363.0</ele>
        <time>2015-08-16T13:42:43Z</time>
      </trkpt>
      <trkpt lat="40.581833" lon="-5.004400">
        <ele>2363.0</ele>
        <time>2015-08-16T13:42:44Z</time>
      </trkpt>
      <trkpt lat="40.581750" lon="-5.004333">
        <ele>2363.0</ele>
        <time>2015-08-16T13:42:45Z</time>
      </trkpt>
      <trkpt lat="40.581650" lon="-5.004300">
        <ele>2363.0</ele>
        <time>2015-08-16T13:42:46Z</time>
      </trkpt>
      <trkpt lat="40.581533" lon="-5.004300">
        <ele>2363.0</ele>
        <time>2015-08-16T13:42:47Z</time>
      </trkpt>
      <trkpt lat="40.581433" lon="-5.004350">
        <ele>2362.0</ele>
        <time>2015-08-16T13:42:48Z</time>
      </trkpt>
      <trkpt lat="40.581350" lon="-5.004417">
        <ele>2361.0</ele>
        <time>2015-08-16T13:42:49Z</time>
      </trkpt>
      <trkpt lat="40.581267" lon="-5.004500">
        <ele>2360.0</ele>
        <time>2015-08-16T13:42:50Z</time>
      </trkpt>
      <trkpt lat="40.581217" lon="-5.004600">
        <ele>2359.0</ele>
        <time>2015-08-16T13:42:51Z</time>
      </trkpt>
      <trkpt lat="40.581150" lon="-5.004717">
        <ele>2359.0</ele>
        <time>2015-08-16T13:42:52Z</time>
      </trkpt>
      <trkpt lat="40.581100" lon="-5.004833">
        <ele>2358.0</ele>
        <time>2015-08-16T13:42:53Z</time>
      </trkpt>
      <trkpt lat="40.581033" lon="-5.004933">
        <ele>2358.0</ele>
        <time>2015-08-16T13:42:54Z</time>
      </trkpt>
      <trkpt lat="40.580967" lon="-5.005033">
        <ele>2357.0</ele>
        <time>2015-08-16T13:42:55Z</time>
      </trkpt>
      <trkpt lat="40.580900" lon="-5.005117">
        <ele>2357.0</ele>
        <time>2015-08-16T13:42:56Z</time>
      </trkpt>
      <trkpt lat="40.580850" lon="-5.005217">
        <ele>2357.0</ele>
        <time>2015-08-16T13:42:57Z</time>
      </trkpt>
      <trkpt lat="40.580800" lon="-5.005333">
        <ele>2357.0</ele>
        <time>2015-08-16T13:42:58Z</time>
      </trkpt>
      <trkpt lat="40.580783" lon="-5.005450">
        <ele>2357.0</ele>
        <time>2015-08-16T13:42:59Z</time>
      </trkpt>
      <trkpt lat="40.580783" lon="-5.005583">
        <ele>2356.0</ele>
        <time>2015-08-16T13:43:00Z</time>
      </trkpt>
      <trkpt lat="40.580800" lon="-5.005717">
        <ele>2356.0</ele>
        <time>2015-08-16T13:43:01Z</time>
      </trkpt>
      <trkpt lat="40.580833" lon="-5.005833">
        <ele>2356.0</ele>
        <time>2015-08-16T13:43:02Z</time>
      </trkpt>
      <trkpt lat="40.580883" lon="-5.005933">
        <ele>2357.0</ele>
        <time>2015-08-16T13:43:03Z</time>
      </trkpt>
      <trkpt lat="40.580950" lon="-5.006033">
        <ele>2358.0</ele>
        <time>2015-08-16T13:43:04Z</time>
      </trkpt>
      <trkpt lat="40.581017" lon="-5.006100">
        <ele>2358.0</ele>
        <time>2015-08-16T13:43:05Z</time>
      </trkpt>
      <trkpt lat="40.581083" lon="-5.006167">
        <ele>2359.0</ele>
        <time>2015-08-16T13:43:06Z</time>
      </trkpt>
      <trkpt lat="40.581150" lon="-5.006250">
        <ele>2360.0</ele>
        <time>2015-08-16T13:43:07Z</time>
      </trkpt>
      <trkpt lat="40.581200" lon="-5.006333">
        <ele>2361.0</ele>
        <time>2015-08-16T13:43:08Z</time>
      </trkpt>
      <trkpt lat="40.581267" lon="-5.006433">
        <ele>2362.0</ele>
        <time>2015-08-16T13:43:09Z</time>
      </trkpt>
      <trkpt lat="40.581317" lon="-5.006517">
        <ele>2362.0</ele>
        <time>2015-08-16T13:43:10Z</time>
      </trkpt>
      <trkpt lat="40.581383" lon="-5.006550">
        <ele>2362.0</ele>
        <time>2015-08-16T13:43:11Z</time>
      </trkpt>
      <trkpt lat="40.581467" lon="-5.006550">
        <ele>2361.0</ele>
        <time>2015-08-16T13:43:12Z</time>
      </trkpt>
      <trkpt lat="40.581550" lon="-5.006533">
        <ele>2360.0</ele>
        <time>2015-08-16T13:43:13Z</time>
      </trkpt>
      <trkpt lat="40.581633" lon="-5.006500">
        <ele>2361.0</ele>
        <time>2015-08-16T13:43:14Z</time>
      </trkpt>
      <trkpt lat="40.581717" lon="-5.006483">
        <ele>2361.0</ele>
        <time>2015-08-16T13:43:15Z</time>
      </trkpt>
      <trkpt lat="40.581783" lon="-5.006450">
        <ele>2361.0</ele>
        <time>2015-08-16T13:43:16Z</time>
      </trkpt>
      <trkpt lat="40.581850" lon="-5.006400">
        <ele>2361.0</ele>
        <time>2015-08-16T13:43:17Z</time>
      </trkpt>
      <trkpt lat="40.581917" lon="-5.006333">
        <ele>2360.0</ele>
        <time>2015-08-16T13:43:18Z</time>
      </trkpt>
      <trkpt lat="40.581983" lon="-5.006250">
        <ele>2359.0</ele>
        <time>2015-08-16T13:43:19Z</time>
      </trkpt>
      <trkpt lat="40.582033" lon="-5.006167">
        <ele>2359.0</ele>
        <time>2015-08-16T13:43:20Z</time>
      </trkpt>
      <trkpt lat="40.582100" lon="-5.006067">
        <ele>2359.0</ele>
        <time>2015-08-16T13:43:21Z</time>
      </trkpt>
      <trkpt lat="40.582150" lon="-5.005967">
        <ele>2359.0</ele>
        <time>2015-08-16T13:43:22Z</time>
      </trkpt>
      <trkpt lat="40.582217" lon="-5.005867">
        <ele>2361.0</ele>
        <time>2015-08-16T13:43:23Z</time>
      </trkpt>
      <trkpt lat="40.582267" lon="-5.005783">
        <ele>2362.0</ele>
        <time>2015-08-16T13:43:24Z</time>
      </trkpt>
      <trkpt lat="40.582333" lon="-5.005717">
        <ele>2362.0</ele>
        <time>2015-08-16T13:43:25Z</time>
      </trkpt>
      <trkpt lat="40.582400" lon="-5.005633">
        <ele>2362.0</ele>
        <time>2015-08-16T13:43:26Z</time>
      </trkpt>
      <trkpt lat="40.582467" lon="-5.005550">
        <ele>2362.0</ele>
        <time>2015-08-16T13:43:27Z</time>
      </trkpt>
      <trkpt lat="40.582533" lon="-5.005467">
        <ele>2361.0</ele>
        <time>2015-08-16T13:43:28Z</time>
      </trkpt>
      <trkpt lat="40.582583" lon="-5.005350">
        <ele>2360.0</ele>
        <time>2015-08-16T13:43:29Z</time>
      </trkpt>
      <trkpt lat="40.582633" lon="-5.005250">
        <ele>2360.0</ele>
        <time>2015-08-16T13:43:30Z</time>
      </trkpt>
      <trkpt lat="40.582683" lon="-5.005133">
        <ele>2360.0</ele>
        <time>2015-08-16T13:43:31Z</time>
      </trkpt>
      <trkpt lat="40.582733" lon="-5.005017">
        <ele>2360.0</ele>
        <time>2015-08-16T13:43:32Z</time>
      </trkpt>
      <trkpt lat="40.582767" lon="-5.004900">
        <ele>2360.0</ele>
        <time>2015-08-16T13:43:33Z</time>
      </trkpt>
      <trkpt lat="40.582800" lon="-5.004783">
        <ele>2361.0</ele>
        <time>2015-08-16T13:43:34Z</time>
      </trkpt>
      <trkpt lat="40.582850" lon="-5.004683">
        <ele>2362.0</ele>
        <time>2015-08-16T13:43:35Z</time>
      </trkpt>
      <trkpt lat="40.582900" lon="-5.004600">
        <ele>2362.0</ele>
        <time>2015-08-16T13:43:36Z</time>
      </trkpt>
      <trkpt lat="40.582967" lon="-5.004500">
        <ele>2362.0</ele>
        <time>2015-08-16T13:43:37Z</time>
      </trkpt>
      <trkpt lat="40.583050" lon="-5.004400">
        <ele>2361.0</ele>
        <time>2015-08-16T13:43:38Z</time>
      </trkpt>
      <trkpt lat="40.583100" lon="-5.004300">
        <ele>2361.0</ele>
        <time>2015-08-16T13:43:39Z</time>
      </trkpt>
      <trkpt lat="40.583150" lon="-5.004183">
        <ele>2362.0</ele>
        <time>2015-08-16T13:43:40Z</time>
      </trkpt>
      <trkpt lat="40.583200" lon="-5.004083">
        <ele>2362.0</ele>
        <time>2015-08-16T13:43:41Z</time>
      </trkpt>
      <trkpt lat="40.583250" lon="-5.003967">
        <ele>2362.0</ele>
        <time>2015-08-16T13:43:42Z</time>
      </trkpt>
      <trkpt lat="40.583300" lon="-5.003867">
        <ele>2362.0</ele>
        <time>2015-08-16T13:43:43Z</time>
      </trkpt>
      <trkpt lat="40.583333" lon="-5.003767">
        <ele>2362.0</ele>
        <time>2015-08-16T13:43:44Z</time>
      </trkpt>
      <trkpt lat="40.583383" lon="-5.003650">
        <ele>2361.0</ele>
        <time>2015-08-16T13:43:45Z</time>
      </trkpt>
      <trkpt lat="40.583417" lon="-5.003533">
        <ele>2359.0</ele>
        <time>2015-08-16T13:43:46Z</time>
      </trkpt>
      <trkpt lat="40.583433" lon="-5.003417">
        <ele>2359.0</ele>
        <time>2015-08-16T13:43:47Z</time>
      </trkpt>
      <trkpt lat="40.583467" lon="-5.003283">
        <ele>2358.0</ele>
        <time>2015-08-16T13:43:48Z</time>
      </trkpt>
      <trkpt lat="40.583483" lon="-5.003150">
        <ele>2357.0</ele>
        <time>2015-08-16T13:43:49Z</time>
      </trkpt>
      <trkpt lat="40.583517" lon="-5.003033">
        <ele>2356.0</ele>
        <time>2015-08-16T13:43:50Z</time>
      </trkpt>
      <trkpt lat="40.583550" lon="-5.002900">
        <ele>2356.0</ele>
        <time>2015-08-16T13:43:51Z</time>
      </trkpt>
      <trkpt lat="40.583567" lon="-5.002783">
        <ele>2355.0</ele>
        <time>2015-08-16T13:43:52Z</time>
      </trkpt>
      <trkpt lat="40.583583" lon="-5.002650">
        <ele>2355.0</ele>
        <time>2015-08-16T13:43:53Z</time>
      </trkpt>
      <trkpt lat="40.583600" lon="-5.002517">
        <ele>2354.0</ele>
        <time>2015-08-16T13:43:54Z</time>
      </trkpt>
      <trkpt lat="40.583617" lon="-5.002383">
        <ele>2355.0</ele>
        <time>2015-08-16T13:43:55Z</time>
      </trkpt>
      <trkpt lat="40.583650" lon="-5.002250">
        <ele>2356.0</ele>
        <time>2015-08-16T13:43:56Z</time>
      </trkpt>
      <trkpt lat="40.583683" lon="-5.002133">
        <ele>2356.0</ele>
        <time>2015-08-16T13:43:57Z</time>
      </trkpt>
      <trkpt lat="40.583733" lon="-5.002017">
        <ele>2358.0</ele>
        <time>2015-08-16T13:43:58Z</time>
      </trkpt>
      <trkpt lat="40.583783" lon="-5.001917">
        <ele>2358.0</ele>
        <time>2015-08-16T13:43:59Z</time>
      </trkpt>
      <trkpt lat="40.583817" lon="-5.001800">
        <ele>2359.0</ele>
        <time>2015-08-16T13:44:00Z</time>
      </trkpt>
      <trkpt lat="40.583833" lon="-5.001700">
        <ele>2359.0</ele>
        <time>2015-08-16T13:44:01Z</time>
      </trkpt>
      <trkpt lat="40.583833" lon="-5.001583">
        <ele>2358.0</ele>
        <time>2015-08-16T13:44:02Z</time>
      </trkpt>
      <trkpt lat="40.583817" lon="-5.001483">
        <ele>2357.0</ele>
        <time>2015-08-16T13:44:03Z</time>
      </trkpt>
      <trkpt lat="40.583783" lon="-5.001367">
        <ele>2357.0</ele>
        <time>2015-08-16T13:44:04Z</time>
      </trkpt>
      <trkpt lat="40.583733" lon="-5.001267">
        <ele>2356.0</ele>
        <time>2015-08-16T13:44:05Z</time>
      </trkpt>
      <trkpt lat="40.583683" lon="-5.001150">
        <ele>2356.0</ele>
        <time>2015-08-16T13:44:06Z</time>
      </trkpt>
      <trkpt lat="40.583633" lon="-5.001050">
        <ele>2357.0</ele>
        <time>2015-08-16T13:44:07Z</time>
      </trkpt>
      <trkpt lat="40.583617" lon="-5.000933">
        <ele>2357.0</ele>
        <time>2015-08-16T13:44:08Z</time>
      </trkpt>
      <trkpt lat="40.583600" lon="-5.000800">
        <ele>2357.0</ele>
        <time>2015-08-16T13:44:09Z</time>
      </trkpt>
      <trkpt lat="40.583583" lon="-5.000700">
        <ele>2358.0</ele>
        <time>2015-08-16T13:44:10Z</time>
      </trkpt>
      <trkpt lat="40.583567" lon="-5.000583">
        <ele>2359.0</ele>
        <time>2015-08-16T13:44:11Z</time>
      </trkpt>
      <trkpt lat="40.583567" lon="-5.000500">
        <ele>2359.0</ele>
        <time>2015-08-16T13:44:12Z</time>
      </trkpt>
      <trkpt lat="40.583567" lon="-5.000383">
        <ele>2358.0</ele>
        <time>2015-08-16T13:44:13Z</time>
      </trkpt>
      <trkpt lat="40.583567" lon="-5.000283">
        <ele>2356.0</ele>
        <time>2015-08-16T13:44:14Z</time>
      </trkpt>
      <trkpt lat="40.583567" lon="-5.000183">
        <ele>2355.0</ele>
        <time>2015-08-16T13:44:15Z</time>
      </trkpt>
      <trkpt lat="40.583567" lon="-5.000067">
        <ele>2355.0</ele>
        <time>2015-08-16T13:44:16Z</time>
      </trkpt>
      <trkpt lat="40.583567" lon="-4.999950">
        <ele>2354.0</ele>
        <time>2015-08-16T13:44:17Z</time>
      </trkpt>
      <trkpt lat="40.583583" lon="-4.999833">
        <ele>2353.0</ele>
        <time>2015-08-16T13:44:18Z</time>
      </trkpt>
      <trkpt lat="40.583600" lon="-4.999717">
        <ele>2352.0</ele>
        <time>2015-08-16T13:44:19Z</time>
      </trkpt>
      <trkpt lat="40.583633" lon="-4.999600">
        <ele>2351.0</ele>
        <time>2015-08-16T13:44:20Z</time>
      </trkpt>
      <trkpt lat="40.583650" lon="-4.999500">
        <ele>2350.0</ele>
        <time>2015-08-16T13:44:21Z</time>
      </trkpt>
      <trkpt lat="40.583667" lon="-4.999383">
        <ele>2349.0</ele>
        <time>2015-08-16T13:44:22Z</time>
      </trkpt>
      <trkpt lat="40.583700" lon="-4.999283">
        <ele>2347.0</ele>
        <time>2015-08-16T13:44:23Z</time>
      </trkpt>
      <trkpt lat="40.583717" lon="-4.999167">
        <ele>2344.0</ele>
        <time>2015-08-16T13:44:24Z</time>
      </trkpt>
      <trkpt lat="40.583733" lon="-4.999033">
        <ele>2342.0</ele>
        <time>2015-08-16T13:44:25Z</time>
      </trkpt>
      <trkpt lat="40.583767" lon="-4.998917">
        <ele>2340.0</ele>
        <time>2015-08-16T13:44:26Z</time>
      </trkpt>
      <trkpt lat="40.583783" lon="-4.998783">
        <ele>2339.0</ele>
        <time>2015-08-16T13:44:27Z</time>
      </trkpt>
      <trkpt lat="40.583817" lon="-4.998667">
        <ele>2337.0</ele>
        <time>2015-08-16T13:44:28Z</time>
      </trkpt>
      <trkpt lat="40.583850" lon="-4.998550">
        <ele>2336.0</ele>
        <time>2015-08-16T13:44:29Z</time>
      </trkpt>
      <trkpt lat="40.583883" lon="-4.998417">
        <ele>2334.0</ele>
        <time>2015-08-16T13:44:30Z</time>
      </trkpt>
      <trkpt lat="40.583917" lon="-4.998300">
        <ele>2332.0</ele>
        <time>2015-08-16T13:44:31Z</time>
      </trkpt>
      <trkpt lat="40.583950" lon="-4.998150">
        <ele>2330.0</ele>
        <time>2015-08-16T13:44:32Z</time>
      </trkpt>
      <trkpt lat="40.583967" lon="-4.998017">
        <ele>2328.0</ele>
        <time>2015-08-16T13:44:33Z</time>
      </trkpt>
      <trkpt lat="40.583983" lon="-4.997883">
        <ele>2327.0</ele>
        <time>2015-08-16T13:44:34Z</time>
      </trkpt>
      <trkpt lat="40.583983" lon="-4.997733">
        <ele>2325.0</ele>
        <time>2015-08-16T13:44:35Z</time>
      </trkpt>
      <trkpt lat="40.583983" lon="-4.997600">
        <ele>2323.0</ele>
        <time>2015-08-16T13:44:36Z</time>
      </trkpt>
      <trkpt lat="40.584000" lon="-4.997467">
        <ele>2322.0</ele>
        <time>2015-08-16T13:44:37Z</time>
      </trkpt>
      <trkpt lat="40.584017" lon="-4.997333">
        <ele>2320.0</ele>
        <time>2015-08-16T13:44:38Z</time>
      </trkpt>
      <trkpt lat="40.584017" lon="-4.997217">
        <ele>2318.0</ele>
        <time>2015-08-16T13:44:39Z</time>
      </trkpt>
      <trkpt lat="40.584033" lon="-4.997083">
        <ele>2317.0</ele>
        <time>2015-08-16T13:44:40Z</time>
      </trkpt>
      <trkpt lat="40.584033" lon="-4.996967">
        <ele>2315.0</ele>
        <time>2015-08-16T13:44:41Z</time>
      </trkpt>
      <trkpt lat="40.584050" lon="-4.996850">
        <ele>2313.0</ele>
        <time>2015-08-16T13:44:42Z</time>
      </trkpt>
      <trkpt lat="40.584067" lon="-4.996733">
        <ele>2312.0</ele>
        <time>2015-08-16T13:44:43Z</time>
      </trkpt>
      <trkpt lat="40.584083" lon="-4.996633">
        <ele>2309.0</ele>
        <time>2015-08-16T13:44:44Z</time>
      </trkpt>
      <trkpt lat="40.584083" lon="-4.996533">
        <ele>2307.0</ele>
        <time>2015-08-16T13:44:45Z</time>
      </trkpt>
      <trkpt lat="40.584083" lon="-4.996417">
        <ele>2304.0</ele>
        <time>2015-08-16T13:44:46Z</time>
      </trkpt>
      <trkpt lat="40.584083" lon="-4.996300">
        <ele>2301.0</ele>
        <time>2015-08-16T13:44:47Z</time>
      </trkpt>
      <trkpt lat="40.584100" lon="-4.996183">
        <ele>2299.0</ele>
        <time>2015-08-16T13:44:48Z</time>
      </trkpt>
      <trkpt lat="40.584100" lon="-4.996050">
        <ele>2297.0</ele>
        <time>2015-08-16T13:44:49Z</time>
      </trkpt>
      <trkpt lat="40.584117" lon="-4.995933">
        <ele>2295.0</ele>
        <time>2015-08-16T13:44:50Z</time>
      </trkpt>
      <trkpt lat="40.584117" lon="-4.995833">
        <ele>2293.0</ele>
        <time>2015-08-16T13:44:51Z</time>
      </trkpt>
      <trkpt lat="40.584100" lon="-4.995717">
        <ele>2290.0</ele>
        <time>2015-08-16T13:44:52Z</time>
      </trkpt>
      <trkpt lat="40.584100" lon="-4.995600">
        <ele>2287.0</ele>
        <time>2015-08-16T13:44:53Z</time>
      </trkpt>
      <trkpt lat="40.584100" lon="-4.995467">
        <ele>2284.0</ele>
        <time>2015-08-16T13:44:54Z</time>
      </trkpt>
      <trkpt lat="40.584100" lon="-4.995333">
        <ele>2281.0</ele>
        <time>2015-08-16T13:44:55Z</time>
      </trkpt>
      <trkpt lat="40.584100" lon="-4.995200">
        <ele>2279.0</ele>
        <time>2015-08-16T13:44:56Z</time>
      </trkpt>
      <trkpt lat="40.584100" lon="-4.995067">
        <ele>2277.0</ele>
        <time>2015-08-16T13:44:57Z</time>
      </trkpt>
      <trkpt lat="40.584083" lon="-4.994950">
        <ele>2274.0</ele>
        <time>2015-08-16T13:44:58Z</time>
      </trkpt>
      <trkpt lat="40.584083" lon="-4.994833">
        <ele>2271.0</ele>
        <time>2015-08-16T13:44:59Z</time>
      </trkpt>
      <trkpt lat="40.584100" lon="-4.994700">
        <ele>2268.0</ele>
        <time>2015-08-16T13:45:00Z</time>
      </trkpt>
      <trkpt lat="40.584100" lon="-4.994583">
        <ele>2265.0</ele>
        <time>2015-08-16T13:45:01Z</time>
      </trkpt>
      <trkpt lat="40.584117" lon="-4.994450">
        <ele>2262.0</ele>
        <time>2015-08-16T13:45:02Z</time>
      </trkpt>
      <trkpt lat="40.584117" lon="-4.994300">
        <ele>2258.0</ele>
        <time>2015-08-16T13:45:03Z</time>
      </trkpt>
      <trkpt lat="40.584117" lon="-4.994150">
        <ele>2256.0</ele>
        <time>2015-08-16T13:45:04Z</time>
      </trkpt>
      <trkpt lat="40.584117" lon="-4.994000">
        <ele>2254.0</ele>
        <time>2015-08-16T13:45:05Z</time>
      </trkpt>
      <trkpt lat="40.584117" lon="-4.993850">
        <ele>2254.0</ele>
        <time>2015-08-16T13:45:06Z</time>
      </trkpt>
      <trkpt lat="40.584133" lon="-4.993700">
        <ele>2255.0</ele>
        <time>2015-08-16T13:45:07Z</time>
      </trkpt>
      <trkpt lat="40.584150" lon="-4.993567">
        <ele>2255.0</ele>
        <time>2015-08-16T13:45:08Z</time>
      </trkpt>
      <trkpt lat="40.584150" lon="-4.993450">
        <ele>2254.0</ele>
        <time>2015-08-16T13:45:09Z</time>
      </trkpt>
      <trkpt lat="40.584167" lon="-4.993333">
        <ele>2253.0</ele>
        <time>2015-08-16T13:45:10Z</time>
      </trkpt>
      <trkpt lat="40.584167" lon="-4.993200">
        <ele>2251.0</ele>
        <time>2015-08-16T13:45:11Z</time>
      </trkpt>
      <trkpt lat="40.584183" lon="-4.993050">
        <ele>2249.0</ele>
        <time>2015-08-16T13:45:12Z</time>
      </trkpt>
      <trkpt lat="40.584200" lon="-4.992917">
        <ele>2248.0</ele>
        <time>2015-08-16T13:45:13Z</time>
      </trkpt>
      <trkpt lat="40.584217" lon="-4.992783">
        <ele>2247.0</ele>
        <time>2015-08-16T13:45:14Z</time>
      </trkpt>
      <trkpt lat="40.584233" lon="-4.992650">
        <ele>2246.0</ele>
        <time>2015-08-16T13:45:15Z</time>
      </trkpt>
      <trkpt lat="40.584250" lon="-4.992533">
        <ele>2244.0</ele>
        <time>2015-08-16T13:45:16Z</time>
      </trkpt>
      <trkpt lat="40.584267" lon="-4.992400">
        <ele>2243.0</ele>
        <time>2015-08-16T13:45:17Z</time>
      </trkpt>
      <trkpt lat="40.584283" lon="-4.992283">
        <ele>2241.0</ele>
        <time>2015-08-16T13:45:18Z</time>
      </trkpt>
      <trkpt lat="40.584300" lon="-4.992150">
        <ele>2240.0</ele>
        <time>2015-08-16T13:45:19Z</time>
      </trkpt>
      <trkpt lat="40.584317" lon="-4.992033">
        <ele>2239.0</ele>
        <time>2015-08-16T13:45:20Z</time>
      </trkpt>
      <trkpt lat="40.584350" lon="-4.991900">
        <ele>2238.0</ele>
        <time>2015-08-16T13:45:21Z</time>
      </trkpt>
      <trkpt lat="40.584350" lon="-4.991783">
        <ele>2237.0</ele>
        <time>2015-08-16T13:45:22Z</time>
      </trkpt>
      <trkpt lat="40.584367" lon="-4.991650">
        <ele>2236.0</ele>
        <time>2015-08-16T13:45:23Z</time>
      </trkpt>
      <trkpt lat="40.584367" lon="-4.991517">
        <ele>2234.0</ele>
        <time>2015-08-16T13:45:24Z</time>
      </trkpt>
      <trkpt lat="40.584383" lon="-4.991400">
        <ele>2233.0</ele>
        <time>2015-08-16T13:45:25Z</time>
      </trkpt>
      <trkpt lat="40.584417" lon="-4.991267">
        <ele>2231.0</ele>
        <time>2015-08-16T13:45:26Z</time>
      </trkpt>
      <trkpt lat="40.584433" lon="-4.991133">
        <ele>2230.0</ele>
        <time>2015-08-16T13:45:27Z</time>
      </trkpt>
      <trkpt lat="40.584450" lon="-4.991000">
        <ele>2229.0</ele>
        <time>2015-08-16T13:45:28Z</time>
      </trkpt>
      <trkpt lat="40.584450" lon="-4.990867">
        <ele>2227.0</ele>
        <time>2015-08-16T13:45:29Z</time>
      </trkpt>
      <trkpt lat="40.584450" lon="-4.990717">
        <ele>2226.0</ele>
        <time>2015-08-16T13:45:30Z</time>
      </trkpt>
      <trkpt lat="40.584450" lon="-4.990567">
        <ele>2226.0</ele>
        <time>2015-08-16T13:45:31Z</time>
      </trkpt>
      <trkpt lat="40.584467" lon="-4.990433">
        <ele>2227.0</ele>
        <time>2015-08-16T13:45:32Z</time>
      </trkpt>
      <trkpt lat="40.584500" lon="-4.990300">
        <ele>2228.0</ele>
        <time>2015-08-16T13:45:33Z</time>
      </trkpt>
      <trkpt lat="40.584517" lon="-4.990183">
        <ele>2227.0</ele>
        <time>2015-08-16T13:45:34Z</time>
      </trkpt>
      <trkpt lat="40.584533" lon="-4.990050">
        <ele>2227.0</ele>
        <time>2015-08-16T13:45:35Z</time>
      </trkpt>
      <trkpt lat="40.584550" lon="-4.989933">
        <ele>2227.0</ele>
        <time>2015-08-16T13:45:36Z</time>
      </trkpt>
      <trkpt lat="40.584567" lon="-4.989800">
        <ele>2226.0</ele>
        <time>2015-08-16T13:45:37Z</time>
      </trkpt>
      <trkpt lat="40.584600" lon="-4.989667">
        <ele>2225.0</ele>
        <time>2015-08-16T13:45:38Z</time>
      </trkpt>
      <trkpt lat="40.584617" lon="-4.989550">
        <ele>2225.0</ele>
        <time>2015-08-16T13:45:39Z</time>
      </trkpt>
      <trkpt lat="40.584633" lon="-4.989417">
        <ele>2225.0</ele>
        <time>2015-08-16T13:45:40Z</time>
      </trkpt>
      <trkpt lat="40.584650" lon="-4.989317">
        <ele>2226.0</ele>
        <time>2015-08-16T13:45:41Z</time>
      </trkpt>
      <trkpt lat="40.584667" lon="-4.989200">
        <ele>2227.0</ele>
        <time>2015-08-16T13:45:42Z</time>
      </trkpt>
      <trkpt lat="40.584683" lon="-4.989100">
        <ele>2226.0</ele>
        <time>2015-08-16T13:45:43Z</time>
      </trkpt>
      <trkpt lat="40.584717" lon="-4.989000">
        <ele>2225.0</ele>
        <time>2015-08-16T13:45:44Z</time>
      </trkpt>
      <trkpt lat="40.584733" lon="-4.988883">
        <ele>2223.0</ele>
        <time>2015-08-16T13:45:45Z</time>
      </trkpt>
      <trkpt lat="40.584750" lon="-4.988767">
        <ele>2222.0</ele>
        <time>2015-08-16T13:45:46Z</time>
      </trkpt>
      <trkpt lat="40.584750" lon="-4.988633">
        <ele>2220.0</ele>
        <time>2015-08-16T13:45:47Z</time>
      </trkpt>
      <trkpt lat="40.584750" lon="-4.988500">
        <ele>2219.0</ele>
        <time>2015-08-16T13:45:48Z</time>
      </trkpt>
      <trkpt lat="40.584767" lon="-4.988367">
        <ele>2217.0</ele>
        <time>2015-08-16T13:45:49Z</time>
      </trkpt>
      <trkpt lat="40.584783" lon="-4.988250">
        <ele>2216.0</ele>
        <time>2015-08-16T13:45:50Z</time>
      </trkpt>
      <trkpt lat="40.584800" lon="-4.988117">
        <ele>2215.0</ele>
        <time>2015-08-16T13:45:51Z</time>
      </trkpt>
      <trkpt lat="40.584833" lon="-4.987983">
        <ele>2214.0</ele>
        <time>2015-08-16T13:45:52Z</time>
      </trkpt>
      <trkpt lat="40.584867" lon="-4.987867">
        <ele>2214.0</ele>
        <time>2015-08-16T13:45:53Z</time>
      </trkpt>
      <trkpt lat="40.584883" lon="-4.987733">
        <ele>2213.0</ele>
        <time>2015-08-16T13:45:54Z</time>
      </trkpt>
      <trkpt lat="40.584900" lon="-4.987600">
        <ele>2211.0</ele>
        <time>2015-08-16T13:45:55Z</time>
      </trkpt>
      <trkpt lat="40.584917" lon="-4.987467">
        <ele>2210.0</ele>
        <time>2015-08-16T13:45:56Z</time>
      </trkpt>
      <trkpt lat="40.584950" lon="-4.987333">
        <ele>2208.0</ele>
        <time>2015-08-16T13:45:57Z</time>
      </trkpt>
      <trkpt lat="40.584967" lon="-4.987200">
        <ele>2207.0</ele>
        <time>2015-08-16T13:45:58Z</time>
      </trkpt>
      <trkpt lat="40.585000" lon="-4.987067">
        <ele>2206.0</ele>
        <time>2015-08-16T13:45:59Z</time>
      </trkpt>
      <trkpt lat="40.585017" lon="-4.986933">
        <ele>2205.0</ele>
        <time>2015-08-16T13:46:00Z</time>
      </trkpt>
      <trkpt lat="40.585017" lon="-4.986800">
        <ele>2204.0</ele>
        <time>2015-08-16T13:46:01Z</time>
      </trkpt>
      <trkpt lat="40.585033" lon="-4.986667">
        <ele>2202.0</ele>
        <time>2015-08-16T13:46:02Z</time>
      </trkpt>
      <trkpt lat="40.585050" lon="-4.986533">
        <ele>2201.0</ele>
        <time>2015-08-16T13:46:03Z</time>
      </trkpt>
      <trkpt lat="40.585067" lon="-4.986400">
        <ele>2200.0</ele>
        <time>2015-08-16T13:46:04Z</time>
      </trkpt>
      <trkpt lat="40.585083" lon="-4.986267">
        <ele>2200.0</ele>
        <time>2015-08-16T13:46:05Z</time>
      </trkpt>
      <trkpt lat="40.585083" lon="-4.986133">
        <ele>2199.0</ele>
        <time>2015-08-16T13:46:06Z</time>
      </trkpt>
      <trkpt lat="40.585083" lon="-4.986017">
        <ele>2198.0</ele>
        <time>2015-08-16T13:46:07Z</time>
      </trkpt>
      <trkpt lat="40.585083" lon="-4.985883">
        <ele>2198.0</ele>
        <time>2015-08-16T13:46:08Z</time>
      </trkpt>
      <trkpt lat="40.585100" lon="-4.985767">
        <ele>2197.0</ele>
        <time>2015-08-16T13:46:09Z</time>
      </trkpt>
      <trkpt lat="40.585100" lon="-4.985650">
        <ele>2195.0</ele>
        <time>2015-08-16T13:46:10Z</time>
      </trkpt>
      <trkpt lat="40.585100" lon="-4.985517">
        <ele>2194.0</ele>
        <time>2015-08-16T13:46:11Z</time>
      </trkpt>
      <trkpt lat="40.585100" lon="-4.985400">
        <ele>2193.0</ele>
        <time>2015-08-16T13:46:12Z</time>
      </trkpt>
      <trkpt lat="40.585100" lon="-4.985283">
        <ele>2191.0</ele>
        <time>2015-08-16T13:46:13Z</time>
      </trkpt>
      <trkpt lat="40.585117" lon="-4.985167">
        <ele>2190.0</ele>
        <time>2015-08-16T13:46:14Z</time>
      </trkpt>
      <trkpt lat="40.585133" lon="-4.985050">
        <ele>2188.0</ele>
        <time>2015-08-16T13:46:15Z</time>
      </trkpt>
      <trkpt lat="40.585150" lon="-4.984933">
        <ele>2185.0</ele>
        <time>2015-08-16T13:46:16Z</time>
      </trkpt>
      <trkpt lat="40.585167" lon="-4.984800">
        <ele>2184.0</ele>
        <time>2015-08-16T13:46:17Z</time>
      </trkpt>
      <trkpt lat="40.585167" lon="-4.984667">
        <ele>2182.0</ele>
        <time>2015-08-16T13:46:18Z</time>
      </trkpt>
      <trkpt lat="40.585183" lon="-4.984533">
        <ele>2181.0</ele>
        <time>2015-08-16T13:46:19Z</time>
      </trkpt>
      <trkpt lat="40.585200" lon="-4.984417">
        <ele>2180.0</ele>
        <time>2015-08-16T13:46:20Z</time>
      </trkpt>
      <trkpt lat="40.585233" lon="-4.984300">
        <ele>2180.0</ele>
        <time>2015-08-16T13:46:21Z</time>
      </trkpt>
      <trkpt lat="40.585267" lon="-4.984167">
        <ele>2179.0</ele>
        <time>2015-08-16T13:46:22Z</time>
      </trkpt>
      <trkpt lat="40.585300" lon="-4.984050">
        <ele>2178.0</ele>
        <time>2015-08-16T13:46:23Z</time>
      </trkpt>
      <trkpt lat="40.585333" lon="-4.983933">
        <ele>2178.0</ele>
        <time>2015-08-16T13:46:24Z</time>
      </trkpt>
      <trkpt lat="40.585367" lon="-4.983833">
        <ele>2179.0</ele>
        <time>2015-08-16T13:46:25Z</time>
      </trkpt>
      <trkpt lat="40.585383" lon="-4.983733">
        <ele>2179.0</ele>
        <time>2015-08-16T13:46:26Z</time>
      </trkpt>
      <trkpt lat="40.585417" lon="-4.983650">
        <ele>2178.0</ele>
        <time>2015-08-16T13:46:27Z</time>
      </trkpt>
      <trkpt lat="40.585433" lon="-4.983567">
        <ele>2176.0</ele>
        <time>2015-08-16T13:46:28Z</time>
      </trkpt>
      <trkpt lat="40.585467" lon="-4.983467">
        <ele>2174.0</ele>
        <time>2015-08-16T13:46:29Z</time>
      </trkpt>
      <trkpt lat="40.585500" lon="-4.983367">
        <ele>2172.0</ele>
        <time>2015-08-16T13:46:30Z</time>
      </trkpt>
      <trkpt lat="40.585533" lon="-4.983250">
        <ele>2170.0</ele>
        <time>2015-08-16T13:46:31Z</time>
      </trkpt>
      <trkpt lat="40.585583" lon="-4.983150">
        <ele>2169.0</ele>
        <time>2015-08-16T13:46:32Z</time>
      </trkpt>
      <trkpt lat="40.585633" lon="-4.983050">
        <ele>2168.0</ele>
        <time>2015-08-16T13:46:33Z</time>
      </trkpt>
      <trkpt lat="40.585667" lon="-4.982950">
        <ele>2168.0</ele>
        <time>2015-08-16T13:46:34Z</time>
      </trkpt>
      <trkpt lat="40.585700" lon="-4.982850">
        <ele>2168.0</ele>
        <time>2015-08-16T13:46:35Z</time>
      </trkpt>
      <trkpt lat="40.585750" lon="-4.982750">
        <ele>2167.0</ele>
        <time>2015-08-16T13:46:36Z</time>
      </trkpt>
      <trkpt lat="40.585783" lon="-4.982650">
        <ele>2166.0</ele>
        <time>2015-08-16T13:46:37Z</time>
      </trkpt>
      <trkpt lat="40.585833" lon="-4.982533">
        <ele>2165.0</ele>
        <time>2015-08-16T13:46:38Z</time>
      </trkpt>
      <trkpt lat="40.585850" lon="-4.982433">
        <ele>2165.0</ele>
        <time>2015-08-16T13:46:39Z</time>
      </trkpt>
      <trkpt lat="40.585850" lon="-4.982317">
        <ele>2164.0</ele>
        <time>2015-08-16T13:46:40Z</time>
      </trkpt>
      <trkpt lat="40.585850" lon="-4.982200">
        <ele>2163.0</ele>
        <time>2015-08-16T13:46:41Z</time>
      </trkpt>
      <trkpt lat="40.585850" lon="-4.982083">
        <ele>2162.0</ele>
        <time>2015-08-16T13:46:42Z</time>
      </trkpt>
      <trkpt lat="40.585867" lon="-4.981967">
        <ele>2160.0</ele>
        <time>2015-08-16T13:46:43Z</time>
      </trkpt>
      <trkpt lat="40.585867" lon="-4.981833">
        <ele>2159.0</ele>
        <time>2015-08-16T13:46:44Z</time>
      </trkpt>
      <trkpt lat="40.585867" lon="-4.981717">
        <ele>2157.0</ele>
        <time>2015-08-16T13:46:45Z</time>
      </trkpt>
      <trkpt lat="40.585850" lon="-4.981583">
        <ele>2156.0</ele>
        <time>2015-08-16T13:46:46Z</time>
      </trkpt>
      <trkpt lat="40.585833" lon="-4.981467">
        <ele>2156.0</ele>
        <time>2015-08-16T13:46:47Z</time>
      </trkpt>
      <trkpt lat="40.585833" lon="-4.981350">
        <ele>2156.0</ele>
        <time>2015-08-16T13:46:48Z</time>
      </trkpt>
      <trkpt lat="40.585833" lon="-4.981250">
        <ele>2155.0</ele>
        <time>2015-08-16T13:46:49Z</time>
      </trkpt>
      <trkpt lat="40.585833" lon="-4.981133">
        <ele>2154.0</ele>
        <time>2015-08-16T13:46:50Z</time>
      </trkpt>
      <trkpt lat="40.585850" lon="-4.981017">
        <ele>2152.0</ele>
        <time>2015-08-16T13:46:51Z</time>
      </trkpt>
      <trkpt lat="40.585850" lon="-4.980883">
        <ele>2151.0</ele>
        <time>2015-08-16T13:46:52Z</time>
      </trkpt>
      <trkpt lat="40.585850" lon="-4.980750">
        <ele>2150.0</ele>
        <time>2015-08-16T13:46:53Z</time>
      </trkpt>
      <trkpt lat="40.585867" lon="-4.980633">
        <ele>2151.0</ele>
        <time>2015-08-16T13:46:54Z</time>
      </trkpt>
      <trkpt lat="40.585883" lon="-4.980517">
        <ele>2151.0</ele>
        <time>2015-08-16T13:46:55Z</time>
      </trkpt>
      <trkpt lat="40.585900" lon="-4.980400">
        <ele>2150.0</ele>
        <time>2015-08-16T13:46:56Z</time>
      </trkpt>
      <trkpt lat="40.585900" lon="-4.980283">
        <ele>2149.0</ele>
        <time>2015-08-16T13:46:57Z</time>
      </trkpt>
      <trkpt lat="40.585917" lon="-4.980167">
        <ele>2148.0</ele>
        <time>2015-08-16T13:46:58Z</time>
      </trkpt>
      <trkpt lat="40.585933" lon="-4.980050">
        <ele>2147.0</ele>
        <time>2015-08-16T13:46:59Z</time>
      </trkpt>
      <trkpt lat="40.585950" lon="-4.979917">
        <ele>2145.0</ele>
        <time>2015-08-16T13:47:00Z</time>
      </trkpt>
      <trkpt lat="40.585967" lon="-4.979800">
        <ele>2144.0</ele>
        <time>2015-08-16T13:47:01Z</time>
      </trkpt>
      <trkpt lat="40.585983" lon="-4.979667">
        <ele>2143.0</ele>
        <time>2015-08-16T13:47:02Z</time>
      </trkpt>
      <trkpt lat="40.586000" lon="-4.979550">
        <ele>2142.0</ele>
        <time>2015-08-16T13:47:03Z</time>
      </trkpt>
      <trkpt lat="40.586000" lon="-4.979433">
        <ele>2140.0</ele>
        <time>2015-08-16T13:47:04Z</time>
      </trkpt>
      <trkpt lat="40.586033" lon="-4.979317">
        <ele>2139.0</ele>
        <time>2015-08-16T13:47:05Z</time>
      </trkpt>
      <trkpt lat="40.586050" lon="-4.979200">
        <ele>2138.0</ele>
        <time>2015-08-16T13:47:06Z</time>
      </trkpt>
      <trkpt lat="40.586067" lon="-4.979067">
        <ele>2137.0</ele>
        <time>2015-08-16T13:47:07Z</time>
      </trkpt>
      <trkpt lat="40.586083" lon="-4.978950">
        <ele>2135.0</ele>
        <time>2015-08-16T13:47:08Z</time>
      </trkpt>
      <trkpt lat="40.586100" lon="-4.978833">
        <ele>2134.0</ele>
        <time>2015-08-16T13:47:09Z</time>
      </trkpt>
      <trkpt lat="40.586100" lon="-4.978717">
        <ele>2133.0</ele>
        <time>2015-08-16T13:47:10Z</time>
      </trkpt>
      <trkpt lat="40.586117" lon="-4.978600">
        <ele>2131.0</ele>
        <time>2015-08-16T13:47:11Z</time>
      </trkpt>
      <trkpt lat="40.586117" lon="-4.978467">
        <ele>2130.0</ele>
        <time>2015-08-16T13:47:12Z</time>
      </trkpt>
      <trkpt lat="40.586150" lon="-4.978333">
        <ele>2129.0</ele>
        <time>2015-08-16T13:47:13Z</time>
      </trkpt>
      <trkpt lat="40.586167" lon="-4.978200">
        <ele>2128.0</ele>
        <time>2015-08-16T13:47:14Z</time>
      </trkpt>
      <trkpt lat="40.586200" lon="-4.978050">
        <ele>2127.0</ele>
        <time>2015-08-16T13:47:15Z</time>
      </trkpt>
      <trkpt lat="40.586200" lon="-4.977933">
        <ele>2127.0</ele>
        <time>2015-08-16T13:47:16Z</time>
      </trkpt>
      <trkpt lat="40.586217" lon="-4.977817">
        <ele>2127.0</ele>
        <time>2015-08-16T13:47:17Z</time>
      </trkpt>
      <trkpt lat="40.586233" lon="-4.977717">
        <ele>2126.0</ele>
        <time>2015-08-16T13:47:18Z</time>
      </trkpt>
      <trkpt lat="40.586250" lon="-4.977600">
        <ele>2124.0</ele>
        <time>2015-08-16T13:47:19Z</time>
      </trkpt>
      <trkpt lat="40.586283" lon="-4.977467">
        <ele>2122.0</ele>
        <time>2015-08-16T13:47:20Z</time>
      </trkpt>
      <trkpt lat="40.586300" lon="-4.977333">
        <ele>2121.0</ele>
        <time>2015-08-16T13:47:21Z</time>
      </trkpt>
      <trkpt lat="40.586333" lon="-4.977217">
        <ele>2120.0</ele>
        <time>2015-08-16T13:47:22Z</time>
      </trkpt>
      <trkpt lat="40.586350" lon="-4.977100">
        <ele>2121.0</ele>
        <time>2015-08-16T13:47:23Z</time>
      </trkpt>
      <trkpt lat="40.586383" lon="-4.977000">
        <ele>2121.0</ele>
        <time>2015-08-16T13:47:24Z</time>
      </trkpt>
      <trkpt lat="40.586400" lon="-4.976900">
        <ele>2120.0</ele>
        <time>2015-08-16T13:47:25Z</time>
      </trkpt>
      <trkpt lat="40.586433" lon="-4.976783">
        <ele>2118.0</ele>
        <time>2015-08-16T13:47:26Z</time>
      </trkpt>
      <trkpt lat="40.586467" lon="-4.976667">
        <ele>2116.0</ele>
        <time>2015-08-16T13:47:27Z</time>
      </trkpt>
      <trkpt lat="40.586500" lon="-4.976533">
        <ele>2114.0</ele>
        <time>2015-08-16T13:47:28Z</time>
      </trkpt>
      <trkpt lat="40.586533" lon="-4.976417">
        <ele>2113.0</ele>
        <time>2015-08-16T13:47:29Z</time>
      </trkpt>
      <trkpt lat="40.586567" lon="-4.976283">
        <ele>2111.0</ele>
        <time>2015-08-16T13:47:30Z</time>
      </trkpt>
      <trkpt lat="40.586600" lon="-4.976167">
        <ele>2111.0</ele>
        <time>2015-08-16T13:47:31Z</time>
      </trkpt>
      <trkpt lat="40.586617" lon="-4.976050">
        <ele>2110.0</ele>
        <time>2015-08-16T13:47:32Z</time>
      </trkpt>
      <trkpt lat="40.586650" lon="-4.975933">
        <ele>2108.0</ele>
        <time>2015-08-16T13:47:33Z</time>
      </trkpt>
      <trkpt lat="40.586683" lon="-4.975817">
        <ele>2107.0</ele>
        <time>2015-08-16T13:47:34Z</time>
      </trkpt>
      <trkpt lat="40.586700" lon="-4.975683">
        <ele>2106.0</ele>
        <time>2015-08-16T13:47:35Z</time>
      </trkpt>
      <trkpt lat="40.586717" lon="-4.975550">
        <ele>2105.0</ele>
        <time>2015-08-16T13:47:36Z</time>
      </trkpt>
      <trkpt lat="40.586733" lon="-4.975417">
        <ele>2104.0</ele>
        <time>2015-08-16T13:47:37Z</time>
      </trkpt>
      <trkpt lat="40.586750" lon="-4.975300">
        <ele>2103.0</ele>
        <time>2015-08-16T13:47:38Z</time>
      </trkpt>
      <trkpt lat="40.586783" lon="-4.975183">
        <ele>2101.0</ele>
        <time>2015-08-16T13:47:39Z</time>
      </trkpt>
      <trkpt lat="40.586800" lon="-4.975050">
        <ele>2100.0</ele>
        <time>2015-08-16T13:47:40Z</time>
      </trkpt>
      <trkpt lat="40.586817" lon="-4.974917">
        <ele>2098.0</ele>
        <time>2015-08-16T13:47:41Z</time>
      </trkpt>
      <trkpt lat="40.586850" lon="-4.974783">
        <ele>2097.0</ele>
        <time>2015-08-16T13:47:42Z</time>
      </trkpt>
      <trkpt lat="40.586867" lon="-4.974650">
        <ele>2097.0</ele>
        <time>2015-08-16T13:47:43Z</time>
      </trkpt>
      <trkpt lat="40.586900" lon="-4.974517">
        <ele>2098.0</ele>
        <time>2015-08-16T13:47:44Z</time>
      </trkpt>
      <trkpt lat="40.586917" lon="-4.974400">
        <ele>2099.0</ele>
        <time>2015-08-16T13:47:45Z</time>
      </trkpt>
      <trkpt lat="40.586933" lon="-4.974283">
        <ele>2099.0</ele>
        <time>2015-08-16T13:47:46Z</time>
      </trkpt>
      <trkpt lat="40.586950" lon="-4.974167">
        <ele>2099.0</ele>
        <time>2015-08-16T13:47:47Z</time>
      </trkpt>
      <trkpt lat="40.586967" lon="-4.974033">
        <ele>2099.0</ele>
        <time>2015-08-16T13:47:48Z</time>
      </trkpt>
      <trkpt lat="40.586983" lon="-4.973917">
        <ele>2099.0</ele>
        <time>2015-08-16T13:47:49Z</time>
      </trkpt>
      <trkpt lat="40.587017" lon="-4.973783">
        <ele>2099.0</ele>
        <time>2015-08-16T13:47:50Z</time>
      </trkpt>
      <trkpt lat="40.587033" lon="-4.973667">
        <ele>2098.0</ele>
        <time>2015-08-16T13:47:51Z</time>
      </trkpt>
      <trkpt lat="40.587067" lon="-4.973533">
        <ele>2098.0</ele>
        <time>2015-08-16T13:47:52Z</time>
      </trkpt>
      <trkpt lat="40.587083" lon="-4.973400">
        <ele>2098.0</ele>
        <time>2015-08-16T13:47:53Z</time>
      </trkpt>
      <trkpt lat="40.587100" lon="-4.973267">
        <ele>2098.0</ele>
        <time>2015-08-16T13:47:54Z</time>
      </trkpt>
      <trkpt lat="40.587100" lon="-4.973133">
        <ele>2098.0</ele>
        <time>2015-08-16T13:47:55Z</time>
      </trkpt>
      <trkpt lat="40.587117" lon="-4.973000">
        <ele>2098.0</ele>
        <time>2015-08-16T13:47:56Z</time>
      </trkpt>
      <trkpt lat="40.587133" lon="-4.972867">
        <ele>2098.0</ele>
        <time>2015-08-16T13:47:57Z</time>
      </trkpt>
      <trkpt lat="40.587150" lon="-4.972733">
        <ele>2098.0</ele>
        <time>2015-08-16T13:47:58Z</time>
      </trkpt>
      <trkpt lat="40.587167" lon="-4.972600">
        <ele>2099.0</ele>
        <time>2015-08-16T13:47:59Z</time>
      </trkpt>
      <trkpt lat="40.587183" lon="-4.972467">
        <ele>2099.0</ele>
        <time>2015-08-16T13:48:00Z</time>
      </trkpt>
      <trkpt lat="40.587217" lon="-4.972367">
        <ele>2101.0</ele>
        <time>2015-08-16T13:48:01Z</time>
      </trkpt>
      <trkpt lat="40.587233" lon="-4.972250">
        <ele>2101.0</ele>
        <time>2015-08-16T13:48:02Z</time>
      </trkpt>
      <trkpt lat="40.587267" lon="-4.972133">
        <ele>2101.0</ele>
        <time>2015-08-16T13:48:03Z</time>
      </trkpt>
      <trkpt lat="40.587283" lon="-4.972033">
        <ele>2100.0</ele>
        <time>2015-08-16T13:48:04Z</time>
      </trkpt>
      <trkpt lat="40.587317" lon="-4.971900">
        <ele>2100.0</ele>
        <time>2015-08-16T13:48:05Z</time>
      </trkpt>
      <trkpt lat="40.587350" lon="-4.971783">
        <ele>2100.0</ele>
        <time>2015-08-16T13:48:06Z</time>
      </trkpt>
      <trkpt lat="40.587367" lon="-4.971650">
        <ele>2099.0</ele>
        <time>2015-08-16T13:48:07Z</time>
      </trkpt>
      <trkpt lat="40.587383" lon="-4.971517">
        <ele>2098.0</ele>
        <time>2015-08-16T13:48:08Z</time>
      </trkpt>
      <trkpt lat="40.587417" lon="-4.971400">
        <ele>2098.0</ele>
        <time>2015-08-16T13:48:09Z</time>
      </trkpt>
      <trkpt lat="40.587450" lon="-4.971283">
        <ele>2098.0</ele>
        <time>2015-08-16T13:48:10Z</time>
      </trkpt>
      <trkpt lat="40.587483" lon="-4.971167">
        <ele>2097.0</ele>
        <time>2015-08-16T13:48:11Z</time>
      </trkpt>
      <trkpt lat="40.587517" lon="-4.971050">
        <ele>2096.0</ele>
        <time>2015-08-16T13:48:12Z</time>
      </trkpt>
      <trkpt lat="40.587533" lon="-4.970933">
        <ele>2095.0</ele>
        <time>2015-08-16T13:48:13Z</time>
      </trkpt>
      <trkpt lat="40.587550" lon="-4.970817">
        <ele>2094.0</ele>
        <time>2015-08-16T13:48:14Z</time>
      </trkpt>
      <trkpt lat="40.587567" lon="-4.970700">
        <ele>2092.0</ele>
        <time>2015-08-16T13:48:15Z</time>
      </trkpt>
      <trkpt lat="40.587583" lon="-4.970583">
        <ele>2091.0</ele>
        <time>2015-08-16T13:48:16Z</time>
      </trkpt>
      <trkpt lat="40.587617" lon="-4.970467">
        <ele>2089.0</ele>
        <time>2015-08-16T13:48:17Z</time>
      </trkpt>
      <trkpt lat="40.587633" lon="-4.970333">
        <ele>2087.0</ele>
        <time>2015-08-16T13:48:18Z</time>
      </trkpt>
      <trkpt lat="40.587650" lon="-4.970217">
        <ele>2085.0</ele>
        <time>2015-08-16T13:48:19Z</time>
      </trkpt>
      <trkpt lat="40.587650" lon="-4.970067">
        <ele>2083.0</ele>
        <time>2015-08-16T13:48:20Z</time>
      </trkpt>
      <trkpt lat="40.587650" lon="-4.969933">
        <ele>2082.0</ele>
        <time>2015-08-16T13:48:21Z</time>
      </trkpt>
      <trkpt lat="40.587650" lon="-4.969817">
        <ele>2082.0</ele>
        <time>2015-08-16T13:48:22Z</time>
      </trkpt>
      <trkpt lat="40.587667" lon="-4.969700">
        <ele>2083.0</ele>
        <time>2015-08-16T13:48:23Z</time>
      </trkpt>
      <trkpt lat="40.587667" lon="-4.969583">
        <ele>2082.0</ele>
        <time>2015-08-16T13:48:24Z</time>
      </trkpt>
      <trkpt lat="40.587667" lon="-4.969450">
        <ele>2081.0</ele>
        <time>2015-08-16T13:48:25Z</time>
      </trkpt>
      <trkpt lat="40.587683" lon="-4.969317">
        <ele>2079.0</ele>
        <time>2015-08-16T13:48:26Z</time>
      </trkpt>
      <trkpt lat="40.587700" lon="-4.969183">
        <ele>2078.0</ele>
        <time>2015-08-16T13:48:27Z</time>
      </trkpt>
      <trkpt lat="40.587717" lon="-4.969067">
        <ele>2077.0</ele>
        <time>2015-08-16T13:48:28Z</time>
      </trkpt>
      <trkpt lat="40.587717" lon="-4.968933">
        <ele>2077.0</ele>
        <time>2015-08-16T13:48:29Z</time>
      </trkpt>
      <trkpt lat="40.587733" lon="-4.968817">
        <ele>2076.0</ele>
        <time>2015-08-16T13:48:30Z</time>
      </trkpt>
      <trkpt lat="40.587733" lon="-4.968700">
        <ele>2075.0</ele>
        <time>2015-08-16T13:48:31Z</time>
      </trkpt>
      <trkpt lat="40.587750" lon="-4.968583">
        <ele>2073.0</ele>
        <time>2015-08-16T13:48:32Z</time>
      </trkpt>
      <trkpt lat="40.587783" lon="-4.968450">
        <ele>2071.0</ele>
        <time>2015-08-16T13:48:33Z</time>
      </trkpt>
      <trkpt lat="40.587817" lon="-4.968333">
        <ele>2069.0</ele>
        <time>2015-08-16T13:48:34Z</time>
      </trkpt>
      <trkpt lat="40.587850" lon="-4.968217">
        <ele>2068.0</ele>
        <time>2015-08-16T13:48:35Z</time>
      </trkpt>
      <trkpt lat="40.587883" lon="-4.968100">
        <ele>2066.0</ele>
        <time>2015-08-16T13:48:36Z</time>
      </trkpt>
      <trkpt lat="40.587917" lon="-4.967983">
        <ele>2063.0</ele>
        <time>2015-08-16T13:48:37Z</time>
      </trkpt>
      <trkpt lat="40.587950" lon="-4.967883">
        <ele>2061.0</ele>
        <time>2015-08-16T13:48:38Z</time>
      </trkpt>
      <trkpt lat="40.588000" lon="-4.967750">
        <ele>2058.0</ele>
        <time>2015-08-16T13:48:39Z</time>
      </trkpt>
      <trkpt lat="40.588050" lon="-4.967617">
        <ele>2056.0</ele>
        <time>2015-08-16T13:48:40Z</time>
      </trkpt>
      <trkpt lat="40.588100" lon="-4.967500">
        <ele>2056.0</ele>
        <time>2015-08-16T13:48:41Z</time>
      </trkpt>
      <trkpt lat="40.588150" lon="-4.967383">
        <ele>2056.0</ele>
        <time>2015-08-16T13:48:42Z</time>
      </trkpt>
      <trkpt lat="40.588200" lon="-4.967283">
        <ele>2056.0</ele>
        <time>2015-08-16T13:48:43Z</time>
      </trkpt>
      <trkpt lat="40.588250" lon="-4.967183">
        <ele>2054.0</ele>
        <time>2015-08-16T13:48:44Z</time>
      </trkpt>
      <trkpt lat="40.588300" lon="-4.967067">
        <ele>2052.0</ele>
        <time>2015-08-16T13:48:45Z</time>
      </trkpt>
      <trkpt lat="40.588367" lon="-4.966933">
        <ele>2050.0</ele>
        <time>2015-08-16T13:48:46Z</time>
      </trkpt>
      <trkpt lat="40.588417" lon="-4.966800">
        <ele>2049.0</ele>
        <time>2015-08-16T13:48:47Z</time>
      </trkpt>
      <trkpt lat="40.588467" lon="-4.966667">
        <ele>2048.0</ele>
        <time>2015-08-16T13:48:48Z</time>
      </trkpt>
      <trkpt lat="40.588500" lon="-4.966533">
        <ele>2048.0</ele>
        <time>2015-08-16T13:48:49Z</time>
      </trkpt>
      <trkpt lat="40.588533" lon="-4.966417">
        <ele>2047.0</ele>
        <time>2015-08-16T13:48:50Z</time>
      </trkpt>
      <trkpt lat="40.588583" lon="-4.966300">
        <ele>2046.0</ele>
        <time>2015-08-16T13:48:51Z</time>
      </trkpt>
      <trkpt lat="40.588617" lon="-4.966183">
        <ele>2045.0</ele>
        <time>2015-08-16T13:48:52Z</time>
      </trkpt>
      <trkpt lat="40.588650" lon="-4.966050">
        <ele>2043.0</ele>
        <time>2015-08-16T13:48:53Z</time>
      </trkpt>
      <trkpt lat="40.588683" lon="-4.965917">
        <ele>2041.0</ele>
        <time>2015-08-16T13:48:54Z</time>
      </trkpt>
      <trkpt lat="40.588733" lon="-4.965767">
        <ele>2040.0</ele>
        <time>2015-08-16T13:48:55Z</time>
      </trkpt>
      <trkpt lat="40.588767" lon="-4.965650">
        <ele>2040.0</ele>
        <time>2015-08-16T13:48:56Z</time>
      </trkpt>
      <trkpt lat="40.588800" lon="-4.965517">
        <ele>2039.0</ele>
        <time>2015-08-16T13:48:57Z</time>
      </trkpt>
      <trkpt lat="40.588833" lon="-4.965400">
        <ele>2037.0</ele>
        <time>2015-08-16T13:48:58Z</time>
      </trkpt>
      <trkpt lat="40.588867" lon="-4.965283">
        <ele>2035.0</ele>
        <time>2015-08-16T13:48:59Z</time>
      </trkpt>
      <trkpt lat="40.588883" lon="-4.965150">
        <ele>2032.0</ele>
        <time>2015-08-16T13:49:00Z</time>
      </trkpt>
      <trkpt lat="40.588917" lon="-4.965017">
        <ele>2030.0</ele>
        <time>2015-08-16T13:49:01Z</time>
      </trkpt>
      <trkpt lat="40.588950" lon="-4.964867">
        <ele>2029.0</ele>
        <time>2015-08-16T13:49:02Z</time>
      </trkpt>
      <trkpt lat="40.588967" lon="-4.964733">
        <ele>2029.0</ele>
        <time>2015-08-16T13:49:03Z</time>
      </trkpt>
      <trkpt lat="40.588983" lon="-4.964617">
        <ele>2029.0</ele>
        <time>2015-08-16T13:49:04Z</time>
      </trkpt>
      <trkpt lat="40.589000" lon="-4.964500">
        <ele>2028.0</ele>
        <time>2015-08-16T13:49:05Z</time>
      </trkpt>
      <trkpt lat="40.589033" lon="-4.964400">
        <ele>2027.0</ele>
        <time>2015-08-16T13:49:06Z</time>
      </trkpt>
      <trkpt lat="40.589067" lon="-4.964267">
        <ele>2025.0</ele>
        <time>2015-08-16T13:49:07Z</time>
      </trkpt>
      <trkpt lat="40.589100" lon="-4.964133">
        <ele>2024.0</ele>
        <time>2015-08-16T13:49:08Z</time>
      </trkpt>
      <trkpt lat="40.589133" lon="-4.964017">
        <ele>2023.0</ele>
        <time>2015-08-16T13:49:09Z</time>
      </trkpt>
      <trkpt lat="40.589167" lon="-4.963883">
        <ele>2023.0</ele>
        <time>2015-08-16T13:49:10Z</time>
      </trkpt>
      <trkpt lat="40.589200" lon="-4.963767">
        <ele>2022.0</ele>
        <time>2015-08-16T13:49:11Z</time>
      </trkpt>
      <trkpt lat="40.589217" lon="-4.963633">
        <ele>2020.0</ele>
        <time>2015-08-16T13:49:12Z</time>
      </trkpt>
      <trkpt lat="40.589250" lon="-4.963483">
        <ele>2019.0</ele>
        <time>2015-08-16T13:49:13Z</time>
      </trkpt>
      <trkpt lat="40.589250" lon="-4.963333">
        <ele>2018.0</ele>
        <time>2015-08-16T13:49:14Z</time>
      </trkpt>
      <trkpt lat="40.589283" lon="-4.963183">
        <ele>2019.0</ele>
        <time>2015-08-16T13:49:15Z</time>
      </trkpt>
      <trkpt lat="40.589300" lon="-4.963033">
        <ele>2020.0</ele>
        <time>2015-08-16T13:49:16Z</time>
      </trkpt>
      <trkpt lat="40.589333" lon="-4.962917">
        <ele>2020.0</ele>
        <time>2015-08-16T13:49:17Z</time>
      </trkpt>
      <trkpt lat="40.589367" lon="-4.962800">
        <ele>2020.0</ele>
        <time>2015-08-16T13:49:18Z</time>
      </trkpt>
      <trkpt lat="40.589400" lon="-4.962683">
        <ele>2019.0</ele>
        <time>2015-08-16T13:49:19Z</time>
      </trkpt>
      <trkpt lat="40.589400" lon="-4.962550">
        <ele>2017.0</ele>
        <time>2015-08-16T13:49:20Z</time>
      </trkpt>
      <trkpt lat="40.589400" lon="-4.962400">
        <ele>2016.0</ele>
        <time>2015-08-16T13:49:21Z</time>
      </trkpt>
      <trkpt lat="40.589400" lon="-4.962250">
        <ele>2015.0</ele>
        <time>2015-08-16T13:49:22Z</time>
      </trkpt>
      <trkpt lat="40.589400" lon="-4.962117">
        <ele>2015.0</ele>
        <time>2015-08-16T13:49:23Z</time>
      </trkpt>
      <trkpt lat="40.589417" lon="-4.961983">
        <ele>2015.0</ele>
        <time>2015-08-16T13:49:24Z</time>
      </trkpt>
      <trkpt lat="40.589433" lon="-4.961867">
        <ele>2015.0</ele>
        <time>2015-08-16T13:49:25Z</time>
      </trkpt>
      <trkpt lat="40.589433" lon="-4.961750">
        <ele>2014.0</ele>
        <time>2015-08-16T13:49:26Z</time>
      </trkpt>
      <trkpt lat="40.589433" lon="-4.961650">
        <ele>2012.0</ele>
        <time>2015-08-16T13:49:27Z</time>
      </trkpt>
      <trkpt lat="40.589433" lon="-4.961533">
        <ele>2011.0</ele>
        <time>2015-08-16T13:49:28Z</time>
      </trkpt>
      <trkpt lat="40.589433" lon="-4.961400">
        <ele>2009.0</ele>
        <time>2015-08-16T13:49:29Z</time>
      </trkpt>
      <trkpt lat="40.589433" lon="-4.961283">
        <ele>2008.0</ele>
        <time>2015-08-16T13:49:30Z</time>
      </trkpt>
      <trkpt lat="40.589433" lon="-4.961150">
        <ele>2006.0</ele>
        <time>2015-08-16T13:49:31Z</time>
      </trkpt>
      <trkpt lat="40.589450" lon="-4.961017">
        <ele>2005.0</ele>
        <time>2015-08-16T13:49:32Z</time>
      </trkpt>
      <trkpt lat="40.589467" lon="-4.960883">
        <ele>2003.0</ele>
        <time>2015-08-16T13:49:33Z</time>
      </trkpt>
      <trkpt lat="40.589500" lon="-4.960750">
        <ele>2002.0</ele>
        <time>2015-08-16T13:49:34Z</time>
      </trkpt>
      <trkpt lat="40.589533" lon="-4.960600">
        <ele>2001.0</ele>
        <time>2015-08-16T13:49:35Z</time>
      </trkpt>
      <trkpt lat="40.589550" lon="-4.960450">
        <ele>2001.0</ele>
        <time>2015-08-16T13:49:36Z</time>
      </trkpt>
      <trkpt lat="40.589567" lon="-4.960317">
        <ele>2001.0</ele>
        <time>2015-08-16T13:49:37Z</time>
      </trkpt>
      <trkpt lat="40.589600" lon="-4.960183">
        <ele>2001.0</ele>
        <time>2015-08-16T13:49:38Z</time>
      </trkpt>
      <trkpt lat="40.589617" lon="-4.960050">
        <ele>2001.0</ele>
        <time>2015-08-16T13:49:39Z</time>
      </trkpt>
      <trkpt lat="40.589650" lon="-4.959933">
        <ele>2000.0</ele>
        <time>2015-08-16T13:49:40Z</time>
      </trkpt>
      <trkpt lat="40.589667" lon="-4.959800">
        <ele>1999.0</ele>
        <time>2015-08-16T13:49:41Z</time>
      </trkpt>
      <trkpt lat="40.589667" lon="-4.959667">
        <ele>1998.0</ele>
        <time>2015-08-16T13:49:42Z</time>
      </trkpt>
      <trkpt lat="40.589667" lon="-4.959550">
        <ele>1998.0</ele>
        <time>2015-08-16T13:49:43Z</time>
      </trkpt>
      <trkpt lat="40.589667" lon="-4.959433">
        <ele>1997.0</ele>
        <time>2015-08-16T13:49:44Z</time>
      </trkpt>
      <trkpt lat="40.589667" lon="-4.959317">
        <ele>1996.0</ele>
        <time>2015-08-16T13:49:45Z</time>
      </trkpt>
      <trkpt lat="40.589683" lon="-4.959200">
        <ele>1994.0</ele>
        <time>2015-08-16T13:49:46Z</time>
      </trkpt>
      <trkpt lat="40.589700" lon="-4.959100">
        <ele>1992.0</ele>
        <time>2015-08-16T13:49:47Z</time>
      </trkpt>
      <trkpt lat="40.589700" lon="-4.958967">
        <ele>1989.0</ele>
        <time>2015-08-16T13:49:48Z</time>
      </trkpt>
      <trkpt lat="40.589717" lon="-4.958833">
        <ele>1986.0</ele>
        <time>2015-08-16T13:49:49Z</time>
      </trkpt>
      <trkpt lat="40.589717" lon="-4.958700">
        <ele>1984.0</ele>
        <time>2015-08-16T13:49:50Z</time>
      </trkpt>
      <trkpt lat="40.589717" lon="-4.958567">
        <ele>1981.0</ele>
        <time>2015-08-16T13:49:51Z</time>
      </trkpt>
      <trkpt lat="40.589733" lon="-4.958433">
        <ele>1980.0</ele>
        <time>2015-08-16T13:49:52Z</time>
      </trkpt>
      <trkpt lat="40.589750" lon="-4.958317">
        <ele>1979.0</ele>
        <time>2015-08-16T13:49:53Z</time>
      </trkpt>
      <trkpt lat="40.589767" lon="-4.958200">
        <ele>1977.0</ele>
        <time>2015-08-16T13:49:54Z</time>
      </trkpt>
      <trkpt lat="40.589767" lon="-4.958083">
        <ele>1975.0</ele>
        <time>2015-08-16T13:49:55Z</time>
      </trkpt>
      <trkpt lat="40.589750" lon="-4.957950">
        <ele>1972.0</ele>
        <time>2015-08-16T13:49:56Z</time>
      </trkpt>
      <trkpt lat="40.589733" lon="-4.957817">
        <ele>1969.0</ele>
        <time>2015-08-16T13:49:57Z</time>
      </trkpt>
      <trkpt lat="40.589733" lon="-4.957667">
        <ele>1966.0</ele>
        <time>2015-08-16T13:49:58Z</time>
      </trkpt>
      <trkpt lat="40.589717" lon="-4.957517">
        <ele>1963.0</ele>
        <time>2015-08-16T13:49:59Z</time>
      </trkpt>
      <trkpt lat="40.589700" lon="-4.957383">
        <ele>1961.0</ele>
        <time>2015-08-16T13:50:00Z</time>
      </trkpt>
      <trkpt lat="40.589700" lon="-4.957250">
        <ele>1959.0</ele>
        <time>2015-08-16T13:50:01Z</time>
      </trkpt>
      <trkpt lat="40.589683" lon="-4.957117">
        <ele>1957.0</ele>
        <time>2015-08-16T13:50:02Z</time>
      </trkpt>
      <trkpt lat="40.589683" lon="-4.956983">
        <ele>1954.0</ele>
        <time>2015-08-16T13:50:03Z</time>
      </trkpt>
      <trkpt lat="40.589683" lon="-4.956850">
        <ele>1951.0</ele>
        <time>2015-08-16T13:50:04Z</time>
      </trkpt>
      <trkpt lat="40.589667" lon="-4.956733">
        <ele>1947.0</ele>
        <time>2015-08-16T13:50:05Z</time>
      </trkpt>
      <trkpt lat="40.589650" lon="-4.956600">
        <ele>1944.0</ele>
        <time>2015-08-16T13:50:06Z</time>
      </trkpt>
      <trkpt lat="40.589633" lon="-4.956467">
        <ele>1940.0</ele>
        <time>2015-08-16T13:50:07Z</time>
      </trkpt>
      <trkpt lat="40.589633" lon="-4.956317">
        <ele>1937.0</ele>
        <time>2015-08-16T13:50:08Z</time>
      </trkpt>
      <trkpt lat="40.589633" lon="-4.956183">
        <ele>1935.0</ele>
        <time>2015-08-16T13:50:09Z</time>
      </trkpt>
      <trkpt lat="40.589650" lon="-4.956067">
        <ele>1932.0</ele>
        <time>2015-08-16T13:50:10Z</time>
      </trkpt>
      <trkpt lat="40.589667" lon="-4.955950">
        <ele>1929.0</ele>
        <time>2015-08-16T13:50:11Z</time>
      </trkpt>
      <trkpt lat="40.589683" lon="-4.955817">
        <ele>1926.0</ele>
        <time>2015-08-16T13:50:12Z</time>
      </trkpt>
      <trkpt lat="40.589700" lon="-4.955700">
        <ele>1921.0</ele>
        <time>2015-08-16T13:50:13Z</time>
      </trkpt>
      <trkpt lat="40.589700" lon="-4.955567">
        <ele>1918.0</ele>
        <time>2015-08-16T13:50:14Z</time>
      </trkpt>
      <trkpt lat="40.589717" lon="-4.955450">
        <ele>1914.0</ele>
        <time>2015-08-16T13:50:15Z</time>
      </trkpt>
      <trkpt lat="40.589717" lon="-4.955317">
        <ele>1911.0</ele>
        <time>2015-08-16T13:50:16Z</time>
      </trkpt>
      <trkpt lat="40.589700" lon="-4.955183">
        <ele>1908.0</ele>
        <time>2015-08-16T13:50:17Z</time>
      </trkpt>
      <trkpt lat="40.589700" lon="-4.955067">
        <ele>1904.0</ele>
        <time>2015-08-16T13:50:18Z</time>
      </trkpt>
      <trkpt lat="40.589700" lon="-4.954933">
        <ele>1902.0</ele>
        <time>2015-08-16T13:50:19Z</time>
      </trkpt>
      <trkpt lat="40.589717" lon="-4.954800">
        <ele>1901.0</ele>
        <time>2015-08-16T13:50:20Z</time>
      </trkpt>
      <trkpt lat="40.589733" lon="-4.954667">
        <ele>1899.0</ele>
        <time>2015-08-16T13:50:21Z</time>
      </trkpt>
      <trkpt lat="40.589750" lon="-4.954533">
        <ele>1899.0</ele>
        <time>2015-08-16T13:50:22Z</time>
      </trkpt>
      <trkpt lat="40.589750" lon="-4.954417">
        <ele>1898.0</ele>
        <time>2015-08-16T13:50:23Z</time>
      </trkpt>
      <trkpt lat="40.589767" lon="-4.954317">
        <ele>1897.0</ele>
        <time>2015-08-16T13:50:24Z</time>
      </trkpt>
      <trkpt lat="40.589783" lon="-4.954200">
        <ele>1895.0</ele>
        <time>2015-08-16T13:50:25Z</time>
      </trkpt>
      <trkpt lat="40.589783" lon="-4.954083">
        <ele>1893.0</ele>
        <time>2015-08-16T13:50:26Z</time>
      </trkpt>
      <trkpt lat="40.589800" lon="-4.953950">
        <ele>1891.0</ele>
        <time>2015-08-16T13:50:27Z</time>
      </trkpt>
      <trkpt lat="40.589800" lon="-4.953833">
        <ele>1889.0</ele>
        <time>2015-08-16T13:50:28Z</time>
      </trkpt>
      <trkpt lat="40.589817" lon="-4.953717">
        <ele>1887.0</ele>
        <time>2015-08-16T13:50:29Z</time>
      </trkpt>
      <trkpt lat="40.589817" lon="-4.953583">
        <ele>1885.0</ele>
        <time>2015-08-16T13:50:30Z</time>
      </trkpt>
      <trkpt lat="40.589833" lon="-4.953450">
        <ele>1881.0</ele>
        <time>2015-08-16T13:50:31Z</time>
      </trkpt>
      <trkpt lat="40.589850" lon="-4.953317">
        <ele>1877.0</ele>
        <time>2015-08-16T13:50:32Z</time>
      </trkpt>
      <trkpt lat="40.589850" lon="-4.953150">
        <ele>1874.0</ele>
        <time>2015-08-16T13:50:33Z</time>
      </trkpt>
      <trkpt lat="40.589867" lon="-4.952983">
        <ele>1871.0</ele>
        <time>2015-08-16T13:50:34Z</time>
      </trkpt>
      <trkpt lat="40.589867" lon="-4.952833">
        <ele>1870.0</ele>
        <time>2015-08-16T13:50:35Z</time>
      </trkpt>
      <trkpt lat="40.589850" lon="-4.952683">
        <ele>1870.0</ele>
        <time>2015-08-16T13:50:36Z</time>
      </trkpt>
      <trkpt lat="40.589867" lon="-4.952567">
        <ele>1870.0</ele>
        <time>2015-08-16T13:50:37Z</time>
      </trkpt>
      <trkpt lat="40.589850" lon="-4.952450">
        <ele>1870.0</ele>
        <time>2015-08-16T13:50:38Z</time>
      </trkpt>
      <trkpt lat="40.589850" lon="-4.952350">
        <ele>1868.0</ele>
        <time>2015-08-16T13:50:39Z</time>
      </trkpt>
      <trkpt lat="40.589850" lon="-4.952233">
        <ele>1867.0</ele>
        <time>2015-08-16T13:50:40Z</time>
      </trkpt>
      <trkpt lat="40.589850" lon="-4.952117">
        <ele>1865.0</ele>
        <time>2015-08-16T13:50:41Z</time>
      </trkpt>
      <trkpt lat="40.589867" lon="-4.952000">
        <ele>1863.0</ele>
        <time>2015-08-16T13:50:42Z</time>
      </trkpt>
      <trkpt lat="40.589883" lon="-4.951867">
        <ele>1861.0</ele>
        <time>2015-08-16T13:50:43Z</time>
      </trkpt>
      <trkpt lat="40.589900" lon="-4.951733">
        <ele>1858.0</ele>
        <time>2015-08-16T13:50:44Z</time>
      </trkpt>
      <trkpt lat="40.589900" lon="-4.951600">
        <ele>1855.0</ele>
        <time>2015-08-16T13:50:45Z</time>
      </trkpt>
      <trkpt lat="40.589900" lon="-4.951467">
        <ele>1853.0</ele>
        <time>2015-08-16T13:50:46Z</time>
      </trkpt>
      <trkpt lat="40.589900" lon="-4.951317">
        <ele>1851.0</ele>
        <time>2015-08-16T13:50:47Z</time>
      </trkpt>
      <trkpt lat="40.589900" lon="-4.951183">
        <ele>1850.0</ele>
        <time>2015-08-16T13:50:48Z</time>
      </trkpt>
      <trkpt lat="40.589917" lon="-4.951033">
        <ele>1849.0</ele>
        <time>2015-08-16T13:50:49Z</time>
      </trkpt>
      <trkpt lat="40.589917" lon="-4.950900">
        <ele>1848.0</ele>
        <time>2015-08-16T13:50:50Z</time>
      </trkpt>
      <trkpt lat="40.589933" lon="-4.950767">
        <ele>1845.0</ele>
        <time>2015-08-16T13:50:51Z</time>
      </trkpt>
      <trkpt lat="40.589933" lon="-4.950633">
        <ele>1843.0</ele>
        <time>2015-08-16T13:50:52Z</time>
      </trkpt>
      <trkpt lat="40.589917" lon="-4.950483">
        <ele>1840.0</ele>
        <time>2015-08-16T13:50:53Z</time>
      </trkpt>
      <trkpt lat="40.589917" lon="-4.950333">
        <ele>1837.0</ele>
        <time>2015-08-16T13:50:54Z</time>
      </trkpt>
      <trkpt lat="40.589900" lon="-4.950183">
        <ele>1835.0</ele>
        <time>2015-08-16T13:50:55Z</time>
      </trkpt>
      <trkpt lat="40.589883" lon="-4.950033">
        <ele>1833.0</ele>
        <time>2015-08-16T13:50:56Z</time>
      </trkpt>
      <trkpt lat="40.589883" lon="-4.949883">
        <ele>1831.0</ele>
        <time>2015-08-16T13:50:57Z</time>
      </trkpt>
      <trkpt lat="40.589883" lon="-4.949750">
        <ele>1829.0</ele>
        <time>2015-08-16T13:50:58Z</time>
      </trkpt>
      <trkpt lat="40.589883" lon="-4.949600">
        <ele>1827.0</ele>
        <time>2015-08-16T13:50:59Z</time>
      </trkpt>
      <trkpt lat="40.589883" lon="-4.949450">
        <ele>1823.0</ele>
        <time>2015-08-16T13:51:00Z</time>
      </trkpt>
      <trkpt lat="40.589900" lon="-4.949300">
        <ele>1821.0</ele>
        <time>2015-08-16T13:51:01Z</time>
      </trkpt>
      <trkpt lat="40.589900" lon="-4.949133">
        <ele>1819.0</ele>
        <time>2015-08-16T13:51:02Z</time>
      </trkpt>
      <trkpt lat="40.589917" lon="-4.948983">
        <ele>1817.0</ele>
        <time>2015-08-16T13:51:03Z</time>
      </trkpt>
      <trkpt lat="40.589933" lon="-4.948833">
        <ele>1816.0</ele>
        <time>2015-08-16T13:51:04Z</time>
      </trkpt>
      <trkpt lat="40.589933" lon="-4.948683">
        <ele>1814.0</ele>
        <time>2015-08-16T13:51:05Z</time>
      </trkpt>
      <trkpt lat="40.589950" lon="-4.948533">
        <ele>1813.0</ele>
        <time>2015-08-16T13:51:06Z</time>
      </trkpt>
      <trkpt lat="40.589967" lon="-4.948383">
        <ele>1811.0</ele>
        <time>2015-08-16T13:51:07Z</time>
      </trkpt>
      <trkpt lat="40.589983" lon="-4.948233">
        <ele>1810.0</ele>
        <time>2015-08-16T13:51:08Z</time>
      </trkpt>
      <trkpt lat="40.590000" lon="-4.948067">
        <ele>1809.0</ele>
        <time>2015-08-16T13:51:09Z</time>
      </trkpt>
      <trkpt lat="40.590033" lon="-4.947917">
        <ele>1809.0</ele>
        <time>2015-08-16T13:51:10Z</time>
      </trkpt>
      <trkpt lat="40.590050" lon="-4.947767">
        <ele>1808.0</ele>
        <time>2015-08-16T13:51:11Z</time>
      </trkpt>
      <trkpt lat="40.590067" lon="-4.947617">
        <ele>1807.0</ele>
        <time>2015-08-16T13:51:12Z</time>
      </trkpt>
      <trkpt lat="40.590083" lon="-4.947467">
        <ele>1806.0</ele>
        <time>2015-08-16T13:51:13Z</time>
      </trkpt>
      <trkpt lat="40.590083" lon="-4.947333">
        <ele>1805.0</ele>
        <time>2015-08-16T13:51:14Z</time>
      </trkpt>
      <trkpt lat="40.590100" lon="-4.947183">
        <ele>1803.0</ele>
        <time>2015-08-16T13:51:15Z</time>
      </trkpt>
      <trkpt lat="40.590100" lon="-4.947033">
        <ele>1802.0</ele>
        <time>2015-08-16T13:51:16Z</time>
      </trkpt>
      <trkpt lat="40.590100" lon="-4.946900">
        <ele>1801.0</ele>
        <time>2015-08-16T13:51:17Z</time>
      </trkpt>
      <trkpt lat="40.590117" lon="-4.946767">
        <ele>1800.0</ele>
        <time>2015-08-16T13:51:18Z</time>
      </trkpt>
      <trkpt lat="40.590117" lon="-4.946633">
        <ele>1798.0</ele>
        <time>2015-08-16T13:51:19Z</time>
      </trkpt>
      <trkpt lat="40.590117" lon="-4.946500">
        <ele>1796.0</ele>
        <time>2015-08-16T13:51:20Z</time>
      </trkpt>
      <trkpt lat="40.590117" lon="-4.946367">
        <ele>1794.0</ele>
        <time>2015-08-16T13:51:21Z</time>
      </trkpt>
      <trkpt lat="40.590117" lon="-4.946233">
        <ele>1791.0</ele>
        <time>2015-08-16T13:51:22Z</time>
      </trkpt>
      <trkpt lat="40.590117" lon="-4.946100">
        <ele>1788.0</ele>
        <time>2015-08-16T13:51:23Z</time>
      </trkpt>
      <trkpt lat="40.590117" lon="-4.945967">
        <ele>1785.0</ele>
        <time>2015-08-16T13:51:24Z</time>
      </trkpt>
      <trkpt lat="40.590117" lon="-4.945833">
        <ele>1782.0</ele>
        <time>2015-08-16T13:51:25Z</time>
      </trkpt>
      <trkpt lat="40.590100" lon="-4.945717">
        <ele>1780.0</ele>
        <time>2015-08-16T13:51:26Z</time>
      </trkpt>
      <trkpt lat="40.590083" lon="-4.945583">
        <ele>1776.0</ele>
        <time>2015-08-16T13:51:27Z</time>
      </trkpt>
      <trkpt lat="40.590067" lon="-4.945450">
        <ele>1773.0</ele>
        <time>2015-08-16T13:51:28Z</time>
      </trkpt>
      <trkpt lat="40.590067" lon="-4.945300">
        <ele>1770.0</ele>
        <time>2015-08-16T13:51:29Z</time>
      </trkpt>
      <trkpt lat="40.590050" lon="-4.945150">
        <ele>1768.0</ele>
        <time>2015-08-16T13:51:30Z</time>
      </trkpt>
      <trkpt lat="40.590050" lon="-4.945017">
        <ele>1766.0</ele>
        <time>2015-08-16T13:51:31Z</time>
      </trkpt>
      <trkpt lat="40.590067" lon="-4.944867">
        <ele>1765.0</ele>
        <time>2015-08-16T13:51:32Z</time>
      </trkpt>
      <trkpt lat="40.590067" lon="-4.944733">
        <ele>1764.0</ele>
        <time>2015-08-16T13:51:33Z</time>
      </trkpt>
      <trkpt lat="40.590083" lon="-4.944600">
        <ele>1764.0</ele>
        <time>2015-08-16T13:51:34Z</time>
      </trkpt>
      <trkpt lat="40.590100" lon="-4.944450">
        <ele>1764.0</ele>
        <time>2015-08-16T13:51:35Z</time>
      </trkpt>
      <trkpt lat="40.590117" lon="-4.944317">
        <ele>1764.0</ele>
        <time>2015-08-16T13:51:36Z</time>
      </trkpt>
      <trkpt lat="40.590150" lon="-4.944167">
        <ele>1764.0</ele>
        <time>2015-08-16T13:51:37Z</time>
      </trkpt>
      <trkpt lat="40.590183" lon="-4.944017">
        <ele>1764.0</ele>
        <time>2015-08-16T13:51:38Z</time>
      </trkpt>
      <trkpt lat="40.590200" lon="-4.943867">
        <ele>1764.0</ele>
        <time>2015-08-16T13:51:39Z</time>
      </trkpt>
      <trkpt lat="40.590217" lon="-4.943717">
        <ele>1765.0</ele>
        <time>2015-08-16T13:51:40Z</time>
      </trkpt>
      <trkpt lat="40.590233" lon="-4.943567">
        <ele>1767.0</ele>
        <time>2015-08-16T13:51:41Z</time>
      </trkpt>
      <trkpt lat="40.590233" lon="-4.943433">
        <ele>1768.0</ele>
        <time>2015-08-16T13:51:42Z</time>
      </trkpt>
      <trkpt lat="40.590250" lon="-4.943300">
        <ele>1770.0</ele>
        <time>2015-08-16T13:51:43Z</time>
      </trkpt>
      <trkpt lat="40.590267" lon="-4.943183">
        <ele>1772.0</ele>
        <time>2015-08-16T13:51:44Z</time>
      </trkpt>
      <trkpt lat="40.590267" lon="-4.943067">
        <ele>1773.0</ele>
        <time>2015-08-16T13:51:45Z</time>
      </trkpt>
      <trkpt lat="40.590250" lon="-4.942967">
        <ele>1774.0</ele>
        <time>2015-08-16T13:51:46Z</time>
      </trkpt>
      <trkpt lat="40.590233" lon="-4.942850">
        <ele>1774.0</ele>
        <time>2015-08-16T13:51:47Z</time>
      </trkpt>
      <trkpt lat="40.590183" lon="-4.942733">
        <ele>1774.0</ele>
        <time>2015-08-16T13:51:48Z</time>
      </trkpt>
      <trkpt lat="40.590117" lon="-4.942650">
        <ele>1775.0</ele>
        <time>2015-08-16T13:51:49Z</time>
      </trkpt>
      <trkpt lat="40.590017" lon="-4.942583">
        <ele>1775.0</ele>
        <time>2015-08-16T13:51:50Z</time>
      </trkpt>
      <trkpt lat="40.589917" lon="-4.942550">
        <ele>1776.0</ele>
        <time>2015-08-16T13:51:51Z</time>
      </trkpt>
      <trkpt lat="40.589800" lon="-4.942567">
        <ele>1778.0</ele>
        <time>2015-08-16T13:51:52Z</time>
      </trkpt>
      <trkpt lat="40.589717" lon="-4.942617">
        <ele>1780.0</ele>
        <time>2015-08-16T13:51:53Z</time>
      </trkpt>
      <trkpt lat="40.589633" lon="-4.942683">
        <ele>1780.0</ele>
        <time>2015-08-16T13:51:54Z</time>
      </trkpt>
      <trkpt lat="40.589567" lon="-4.942783">
        <ele>1781.0</ele>
        <time>2015-08-16T13:51:55Z</time>
      </trkpt>
      <trkpt lat="40.589533" lon="-4.942917">
        <ele>1782.0</ele>
        <time>2015-08-16T13:51:56Z</time>
      </trkpt>
      <trkpt lat="40.589500" lon="-4.943033">
        <ele>1783.0</ele>
        <time>2015-08-16T13:51:57Z</time>
      </trkpt>
      <trkpt lat="40.589500" lon="-4.943167">
        <ele>1785.0</ele>
        <time>2015-08-16T13:51:58Z</time>
      </trkpt>
      <trkpt lat="40.589517" lon="-4.943300">
        <ele>1787.0</ele>
        <time>2015-08-16T13:51:59Z</time>
      </trkpt>
      <trkpt lat="40.589567" lon="-4.943433">
        <ele>1789.0</ele>
        <time>2015-08-16T13:52:00Z</time>
      </trkpt>
      <trkpt lat="40.589650" lon="-4.943517">
        <ele>1791.0</ele>
        <time>2015-08-16T13:52:01Z</time>
      </trkpt>
      <trkpt lat="40.589733" lon="-4.943550">
        <ele>1793.0</ele>
        <time>2015-08-16T13:52:02Z</time>
      </trkpt>
      <trkpt lat="40.589833" lon="-4.943533">
        <ele>1794.0</ele>
        <time>2015-08-16T13:52:03Z</time>
      </trkpt>
      <trkpt lat="40.589917" lon="-4.943450">
        <ele>1795.0</ele>
        <time>2015-08-16T13:52:04Z</time>
      </trkpt>
      <trkpt lat="40.589983" lon="-4.943350">
        <ele>1797.0</ele>
        <time>2015-08-16T13:52:05Z</time>
      </trkpt>
      <trkpt lat="40.590000" lon="-4.943250">
        <ele>1799.0</ele>
        <time>2015-08-16T13:52:06Z</time>
      </trkpt>
      <trkpt lat="40.590000" lon="-4.943133">
        <ele>1800.0</ele>
        <time>2015-08-16T13:52:07Z</time>
      </trkpt>
      <trkpt lat="40.589950" lon="-4.943000">
        <ele>1800.0</ele>
        <time>2015-08-16T13:52:08Z</time>
      </trkpt>
      <trkpt lat="40.589883" lon="-4.942900">
        <ele>1800.0</ele>
        <time>2015-08-16T13:52:09Z</time>
      </trkpt>
      <trkpt lat="40.589800" lon="-4.942833">
        <ele>1802.0</ele>
        <time>2015-08-16T13:52:10Z</time>
      </trkpt>
      <trkpt lat="40.589700" lon="-4.942800">
        <ele>1803.0</ele>
        <time>2015-08-16T13:52:11Z</time>
      </trkpt>
      <trkpt lat="40.589583" lon="-4.942817">
        <ele>1803.0</ele>
        <time>2015-08-16T13:52:12Z</time>
      </trkpt>
      <trkpt lat="40.589483" lon="-4.942867">
        <ele>1803.0</ele>
        <time>2015-08-16T13:52:13Z</time>
      </trkpt>
      <trkpt lat="40.589400" lon="-4.942983">
        <ele>1804.0</ele>
        <time>2015-08-16T13:52:14Z</time>
      </trkpt>
      <trkpt lat="40.589333" lon="-4.943117">
        <ele>1804.0</ele>
        <time>2015-08-16T13:52:15Z</time>
      </trkpt>
      <trkpt lat="40.589300" lon="-4.943267">
        <ele>1805.0</ele>
        <time>2015-08-16T13:52:16Z</time>
      </trkpt>
      <trkpt lat="40.589283" lon="-4.943417">
        <ele>1808.0</ele>
        <time>2015-08-16T13:52:17Z</time>
      </trkpt>
      <trkpt lat="40.589300" lon="-4.943533">
        <ele>1811.0</ele>
        <time>2015-08-16T13:52:18Z</time>
      </trkpt>
      <trkpt lat="40.589333" lon="-4.943650">
        <ele>1812.0</ele>
        <time>2015-08-16T13:52:19Z</time>
      </trkpt>
      <trkpt lat="40.589400" lon="-4.943717">
        <ele>1813.0</ele>
        <time>2015-08-16T13:52:20Z</time>
      </trkpt>
      <trkpt lat="40.589500" lon="-4.943767">
        <ele>1813.0</ele>
        <time>2015-08-16T13:52:21Z</time>
      </trkpt>
      <trkpt lat="40.589600" lon="-4.943767">
        <ele>1813.0</ele>
        <time>2015-08-16T13:52:22Z</time>
      </trkpt>
      <trkpt lat="40.589700" lon="-4.943717">
        <ele>1813.0</ele>
        <time>2015-08-16T13:52:23Z</time>
      </trkpt>
      <trkpt lat="40.589767" lon="-4.943617">
        <ele>1814.0</ele>
        <time>2015-08-16T13:52:24Z</time>
      </trkpt>
      <trkpt lat="40.589817" lon="-4.943500">
        <ele>1815.0</ele>
        <time>2015-08-16T13:52:25Z</time>
      </trkpt>
      <trkpt lat="40.589833" lon="-4.943367">
        <ele>1817.0</ele>
        <time>2015-08-16T13:52:26Z</time>
      </trkpt>
      <trkpt lat="40.589800" lon="-4.943250">
        <ele>1818.0</ele>
        <time>2015-08-16T13:52:27Z</time>
      </trkpt>
      <trkpt lat="40.589733" lon="-4.943133">
        <ele>1819.0</ele>
        <time>2015-08-16T13:52:28Z</time>
      </trkpt>
      <trkpt lat="40.589650" lon="-4.943067">
        <ele>1820.0</ele>
        <time>2015-08-16T13:52:29Z</time>
      </trkpt>
      <trkpt lat="40.589533" lon="-4.943033">
        <ele>1821.0</ele>
        <time>2015-08-16T13:52:30Z</time>
      </trkpt>
      <trkpt lat="40.589417" lon="-4.943050">
        <ele>1822.0</ele>
        <time>2015-08-16T13:52:31Z</time>
      </trkpt>
      <trkpt lat="40.589317" lon="-4.943100">
        <ele>1824.0</ele>
        <time>2015-08-16T13:52:32Z</time>
      </trkpt>
      <trkpt lat="40.589233" lon="-4.943183">
        <ele>1826.0</ele>
        <time>2015-08-16T13:52:33Z</time>
      </trkpt>
      <trkpt lat="40.589150" lon="-4.943317">
        <ele>1828.0</ele>
        <time>2015-08-16T13:52:34Z</time>
      </trkpt>
      <trkpt lat="40.589117" lon="-4.943450">
        <ele>1829.0</ele>
        <time>2015-08-16T13:52:35Z</time>
      </trkpt>
      <trkpt lat="40.589100" lon="-4.943600">
        <ele>1830.0</ele>
        <time>2015-08-16T13:52:36Z</time>
      </trkpt>
      <trkpt lat="40.589133" lon="-4.943767">
        <ele>1831.0</ele>
        <time>2015-08-16T13:52:37Z</time>
      </trkpt>
      <trkpt lat="40.589183" lon="-4.943883">
        <ele>1832.0</ele>
        <time>2015-08-16T13:52:38Z</time>
      </trkpt>
      <trkpt lat="40.589283" lon="-4.943950">
        <ele>1833.0</ele>
        <time>2015-08-16T13:52:39Z</time>
      </trkpt>
      <trkpt lat="40.589383" lon="-4.943967">
        <ele>1833.0</ele>
        <time>2015-08-16T13:52:40Z</time>
      </trkpt>
      <trkpt lat="40.589467" lon="-4.943900">
        <ele>1834.0</ele>
        <time>2015-08-16T13:52:41Z</time>
      </trkpt>
      <trkpt lat="40.589533" lon="-4.943817">
        <ele>1836.0</ele>
        <time>2015-08-16T13:52:42Z</time>
      </trkpt>
      <trkpt lat="40.589550" lon="-4.943700">
        <ele>1837.0</ele>
        <time>2015-08-16T13:52:43Z</time>
      </trkpt>
      <trkpt lat="40.589550" lon="-4.943583">
        <ele>1838.0</ele>
        <time>2015-08-16T13:52:44Z</time>
      </trkpt>
      <trkpt lat="40.589500" lon="-4.943467">
        <ele>1840.0</ele>
        <time>2015-08-16T13:52:45Z</time>
      </trkpt>
      <trkpt lat="40.589450" lon="-4.943400">
        <ele>1843.0</ele>
        <time>2015-08-16T13:52:46Z</time>
      </trkpt>
      <trkpt lat="40.589383" lon="-4.943333">
        <ele>1844.0</ele>
        <time>2015-08-16T13:52:47Z</time>
      </trkpt>
      <trkpt lat="40.589283" lon="-4.943317">
        <ele>1846.0</ele>
        <time>2015-08-16T13:52:48Z</time>
      </trkpt>
      <trkpt lat="40.589183" lon="-4.943333">
        <ele>1847.0</ele>
        <time>2015-08-16T13:52:49Z</time>
      </trkpt>
      <trkpt lat="40.589083" lon="-4.943383">
        <ele>1848.0</ele>
        <time>2015-08-16T13:52:50Z</time>
      </trkpt>
      <trkpt lat="40.589000" lon="-4.943483">
        <ele>1849.0</ele>
        <time>2015-08-16T13:52:51Z</time>
      </trkpt>
      <trkpt lat="40.588933" lon="-4.943617">
        <ele>1851.0</ele>
        <time>2015-08-16T13:52:52Z</time>
      </trkpt>
      <trkpt lat="40.588917" lon="-4.943767">
        <ele>1852.0</ele>
        <time>2015-08-16T13:52:53Z</time>
      </trkpt>
      <trkpt lat="40.588933" lon="-4.943917">
        <ele>1853.0</ele>
        <time>2015-08-16T13:52:54Z</time>
      </trkpt>
      <trkpt lat="40.588983" lon="-4.944050">
        <ele>1854.0</ele>
        <time>2015-08-16T13:52:55Z</time>
      </trkpt>
      <trkpt lat="40.589050" lon="-4.944150">
        <ele>1855.0</ele>
        <time>2015-08-16T13:52:56Z</time>
      </trkpt>
      <trkpt lat="40.589150" lon="-4.944200">
        <ele>1856.0</ele>
        <time>2015-08-16T13:52:57Z</time>
      </trkpt>
      <trkpt lat="40.589250" lon="-4.944200">
        <ele>1857.0</ele>
        <time>2015-08-16T13:52:58Z</time>
      </trkpt>
      <trkpt lat="40.589333" lon="-4.944150">
        <ele>1859.0</ele>
        <time>2015-08-16T13:52:59Z</time>
      </trkpt>
      <trkpt lat="40.589400" lon="-4.944067">
        <ele>1860.0</ele>
        <time>2015-08-16T13:53:00Z</time>
      </trkpt>
      <trkpt lat="40.589417" lon="-4.943967">
        <ele>1861.0</ele>
        <time>2015-08-16T13:53:01Z</time>
      </trkpt>
      <trkpt lat="40.589433" lon="-4.943867">
        <ele>1861.0</ele>
        <time>2015-08-16T13:53:02Z</time>
      </trkpt>
      <trkpt lat="40.589400" lon="-4.943750">
        <ele>1862.0</ele>
        <time>2015-08-16T13:53:03Z</time>
      </trkpt>
      <trkpt lat="40.589333" lon="-4.943650">
        <ele>1862.0</ele>
        <time>2015-08-16T13:53:04Z</time>
      </trkpt>
      <trkpt lat="40.589250" lon="-4.943567">
        <ele>1863.0</ele>
        <time>2015-08-16T13:53:05Z</time>
      </trkpt>
      <trkpt lat="40.589150" lon="-4.943533">
        <ele>1865.0</ele>
        <time>2015-08-16T13:53:06Z</time>
      </trkpt>
      <trkpt lat="40.589033" lon="-4.943533">
        <ele>1867.0</ele>
        <time>2015-08-16T13:53:07Z</time>
      </trkpt>
      <trkpt lat="40.588933" lon="-4.943583">
        <ele>1869.0</ele>
        <time>2015-08-16T13:53:08Z</time>
      </trkpt>
      <trkpt lat="40.588850" lon="-4.943683">
        <ele>1871.0</ele>
        <time>2015-08-16T13:53:09Z</time>
      </trkpt>
      <trkpt lat="40.588767" lon="-4.943800">
        <ele>1873.0</ele>
        <time>2015-08-16T13:53:10Z</time>
      </trkpt>
      <trkpt lat="40.588717" lon="-4.943933">
        <ele>1874.0</ele>
        <time>2015-08-16T13:53:11Z</time>
      </trkpt>
      <trkpt lat="40.588700" lon="-4.944083">
        <ele>1874.0</ele>
        <time>2015-08-16T13:53:12Z</time>
      </trkpt>
      <trkpt lat="40.588700" lon="-4.944233">
        <ele>1876.0</ele>
        <time>2015-08-16T13:53:13Z</time>
      </trkpt>
      <trkpt lat="40.588750" lon="-4.944383">
        <ele>1877.0</ele>
        <time>2015-08-16T13:53:14Z</time>
      </trkpt>
      <trkpt lat="40.588833" lon="-4.944500">
        <ele>1877.0</ele>
        <time>2015-08-16T13:53:15Z</time>
      </trkpt>
      <trkpt lat="40.588933" lon="-4.944550">
        <ele>1878.0</ele>
        <time>2015-08-16T13:53:16Z</time>
      </trkpt>
      <trkpt lat="40.589033" lon="-4.944550">
        <ele>1879.0</ele>
        <time>2015-08-16T13:53:17Z</time>
      </trkpt>
      <trkpt lat="40.589117" lon="-4.944517">
        <ele>1881.0</ele>
        <time>2015-08-16T13:53:18Z</time>
      </trkpt>
      <trkpt lat="40.589183" lon="-4.944417">
        <ele>1881.0</ele>
        <time>2015-08-16T13:53:19Z</time>
      </trkpt>
      <trkpt lat="40.589217" lon="-4.944300">
        <ele>1882.0</ele>
        <time>2015-08-16T13:53:20Z</time>
      </trkpt>
      <trkpt lat="40.589200" lon="-4.944167">
        <ele>1882.0</ele>
        <time>2015-08-16T13:53:21Z</time>
      </trkpt>
      <trkpt lat="40.589150" lon="-4.944067">
        <ele>1883.0</ele>
        <time>2015-08-16T13:53:22Z</time>
      </trkpt>
      <trkpt lat="40.589067" lon="-4.943983">
        <ele>1884.0</ele>
        <time>2015-08-16T13:53:23Z</time>
      </trkpt>
      <trkpt lat="40.588967" lon="-4.943967">
        <ele>1886.0</ele>
        <time>2015-08-16T13:53:24Z</time>
      </trkpt>
      <trkpt lat="40.588867" lon="-4.943983">
        <ele>1887.0</ele>
        <time>2015-08-16T13:53:25Z</time>
      </trkpt>
      <trkpt lat="40.588767" lon="-4.944050">
        <ele>1888.0</ele>
        <time>2015-08-16T13:53:26Z</time>
      </trkpt>
      <trkpt lat="40.588667" lon="-4.944150">
        <ele>1889.0</ele>
        <time>2015-08-16T13:53:27Z</time>
      </trkpt>
      <trkpt lat="40.588617" lon="-4.944300">
        <ele>1890.0</ele>
        <time>2015-08-16T13:53:28Z</time>
      </trkpt>
      <trkpt lat="40.588600" lon="-4.944467">
        <ele>1891.0</ele>
        <time>2015-08-16T13:53:29Z</time>
      </trkpt>
      <trkpt lat="40.588633" lon="-4.944617">
        <ele>1891.0</ele>
        <time>2015-08-16T13:53:30Z</time>
      </trkpt>
      <trkpt lat="40.588717" lon="-4.944733">
        <ele>1891.0</ele>
        <time>2015-08-16T13:53:31Z</time>
      </trkpt>
      <trkpt lat="40.588817" lon="-4.944783">
        <ele>1891.0</ele>
        <time>2015-08-16T13:53:32Z</time>
      </trkpt>
      <trkpt lat="40.588917" lon="-4.944767">
        <ele>1892.0</ele>
        <time>2015-08-16T13:53:33Z</time>
      </trkpt>
      <trkpt lat="40.589000" lon="-4.944700">
        <ele>1892.0</ele>
        <time>2015-08-16T13:53:34Z</time>
      </trkpt>
      <trkpt lat="40.589050" lon="-4.944583">
        <ele>1892.0</ele>
        <time>2015-08-16T13:53:35Z</time>
      </trkpt>
      <trkpt lat="40.589067" lon="-4.944483">
        <ele>1893.0</ele>
        <time>2015-08-16T13:53:36Z</time>
      </trkpt>
      <trkpt lat="40.589033" lon="-4.944367">
        <ele>1894.0</ele>
        <time>2015-08-16T13:53:37Z</time>
      </trkpt>
      <trkpt lat="40.588983" lon="-4.944283">
        <ele>1895.0</ele>
        <time>2015-08-16T13:53:38Z</time>
      </trkpt>
      <trkpt lat="40.588900" lon="-4.944217">
        <ele>1896.0</ele>
        <time>2015-08-16T13:53:39Z</time>
      </trkpt>
      <trkpt lat="40.588783" lon="-4.944217">
        <ele>1897.0</ele>
        <time>2015-08-16T13:53:40Z</time>
      </trkpt>
      <trkpt lat="40.588683" lon="-4.944250">
        <ele>1898.0</ele>
        <time>2015-08-16T13:53:41Z</time>
      </trkpt>
      <trkpt lat="40.588583" lon="-4.944333">
        <ele>1899.0</ele>
        <time>2015-08-16T13:53:42Z</time>
      </trkpt>
      <trkpt lat="40.588517" lon="-4.944467">
        <ele>1900.0</ele>
        <time>2015-08-16T13:53:43Z</time>
      </trkpt>
      <trkpt lat="40.588483" lon="-4.944617">
        <ele>1900.0</ele>
        <time>2015-08-16T13:53:44Z</time>
      </trkpt>
      <trkpt lat="40.588483" lon="-4.944783">
        <ele>1901.0</ele>
        <time>2015-08-16T13:53:45Z</time>
      </trkpt>
      <trkpt lat="40.588533" lon="-4.944933">
        <ele>1901.0</ele>
        <time>2015-08-16T13:53:46Z</time>
      </trkpt>
      <trkpt lat="40.588617" lon="-4.945033">
        <ele>1902.0</ele>
        <time>2015-08-16T13:53:47Z</time>
      </trkpt>
      <trkpt lat="40.588717" lon="-4.945100">
        <ele>1902.0</ele>
        <time>2015-08-16T13:53:48Z</time>
      </trkpt>
      <trkpt lat="40.588817" lon="-4.945100">
        <ele>1903.0</ele>
        <time>2015-08-16T13:53:49Z</time>
      </trkpt>
      <trkpt lat="40.588900" lon="-4.945067">
        <ele>1903.0</ele>
        <time>2015-08-16T13:53:50Z</time>
      </trkpt>
      <trkpt lat="40.588983" lon="-4.945000">
        <ele>1903.0</ele>
        <time>2015-08-16T13:53:51Z</time>
      </trkpt>
      <trkpt lat="40.589033" lon="-4.944900">
        <ele>1904.0</ele>
        <time>2015-08-16T13:53:52Z</time>
      </trkpt>
      <trkpt lat="40.589050" lon="-4.944783">
        <ele>1904.0</ele>
        <time>2015-08-16T13:53:53Z</time>
      </trkpt>
      <trkpt lat="40.589033" lon="-4.944667">
        <ele>1904.0</ele>
        <time>2015-08-16T13:53:54Z</time>
      </trkpt>
      <trkpt lat="40.588983" lon="-4.944567">
        <ele>1903.0</ele>
        <time>2015-08-16T13:53:55Z</time>
      </trkpt>
      <trkpt lat="40.588883" lon="-4.944500">
        <ele>1903.0</ele>
        <time>2015-08-16T13:53:56Z</time>
      </trkpt>
      <trkpt lat="40.588767" lon="-4.944500">
        <ele>1903.0</ele>
        <time>2015-08-16T13:53:57Z</time>
      </trkpt>
      <trkpt lat="40.588650" lon="-4.944567">
        <ele>1903.0</ele>
        <time>2015-08-16T13:53:58Z</time>
      </trkpt>
      <trkpt lat="40.588550" lon="-4.944667">
        <ele>1905.0</ele>
        <time>2015-08-16T13:53:59Z</time>
      </trkpt>
      <trkpt lat="40.588483" lon="-4.944783">
        <ele>1907.0</ele>
        <time>2015-08-16T13:54:00Z</time>
      </trkpt>
      <trkpt lat="40.588400" lon="-4.944917">
        <ele>1909.0</ele>
        <time>2015-08-16T13:54:01Z</time>
      </trkpt>
      <trkpt lat="40.588350" lon="-4.945033">
        <ele>1911.0</ele>
        <time>2015-08-16T13:54:02Z</time>
      </trkpt>
      <trkpt lat="40.588317" lon="-4.945150">
        <ele>1911.0</ele>
        <time>2015-08-16T13:54:03Z</time>
      </trkpt>
      <trkpt lat="40.588333" lon="-4.945300">
        <ele>1910.0</ele>
        <time>2015-08-16T13:54:04Z</time>
      </trkpt>
      <trkpt lat="40.588383" lon="-4.945433">
        <ele>1909.0</ele>
        <time>2015-08-16T13:54:05Z</time>
      </trkpt>
      <trkpt lat="40.588467" lon="-4.945550">
        <ele>1908.0</ele>
        <time>2015-08-16T13:54:06Z</time>
      </trkpt>
      <trkpt lat="40.588567" lon="-4.945633">
        <ele>1908.0</ele>
        <time>2015-08-16T13:54:07Z</time>
      </trkpt>
      <trkpt lat="40.588683" lon="-4.945667">
        <ele>1910.0</ele>
        <time>2015-08-16T13:54:08Z</time>
      </trkpt>
      <trkpt lat="40.588767" lon="-4.945650">
        <ele>1911.0</ele>
        <time>2015-08-16T13:54:09Z</time>
      </trkpt>
      <trkpt lat="40.588850" lon="-4.945600">
        <ele>1911.0</ele>
        <time>2015-08-16T13:54:10Z</time>
      </trkpt>
      <trkpt lat="40.588917" lon="-4.945517">
        <ele>1910.0</ele>
        <time>2015-08-16T13:54:11Z</time>
      </trkpt>
      <trkpt lat="40.588950" lon="-4.945400">
        <ele>1908.0</ele>
        <time>2015-08-16T13:54:12Z</time>
      </trkpt>
      <trkpt lat="40.588967" lon="-4.945267">
        <ele>1908.0</ele>
        <time>2015-08-16T13:54:13Z</time>
      </trkpt>
      <trkpt lat="40.588967" lon="-4.945133">
        <ele>1909.0</ele>
        <time>2015-08-16T13:54:14Z</time>
      </trkpt>
      <trkpt lat="40.588950" lon="-4.945017">
        <ele>1911.0</ele>
        <time>2015-08-16T13:54:15Z</time>
      </trkpt>
      <trkpt lat="40.588950" lon="-4.944900">
        <ele>1912.0</ele>
        <time>2015-08-16T13:54:16Z</time>
      </trkpt>
      <trkpt lat="40.588933" lon="-4.944783">
        <ele>1914.0</ele>
        <time>2015-08-16T13:54:17Z</time>
      </trkpt>
      <trkpt lat="40.588900" lon="-4.944683">
        <ele>1917.0</ele>
        <time>2015-08-16T13:54:18Z</time>
      </trkpt>
      <trkpt lat="40.588867" lon="-4.944617">
        <ele>1918.0</ele>
        <time>2015-08-16T13:54:19Z</time>
      </trkpt>
      <trkpt lat="40.588800" lon="-4.944567">
        <ele>1919.0</ele>
        <time>2015-08-16T13:54:20Z</time>
      </trkpt>
      <trkpt lat="40.588717" lon="-4.944550">
        <ele>1918.0</ele>
        <time>2015-08-16T13:54:21Z</time>
      </trkpt>
      <trkpt lat="40.588617" lon="-4.944567">
        <ele>1918.0</ele>
        <time>2015-08-16T13:54:22Z</time>
      </trkpt>
      <trkpt lat="40.588517" lon="-4.944633">
        <ele>1920.0</ele>
        <time>2015-08-16T13:54:23Z</time>
      </trkpt>
      <trkpt lat="40.588433" lon="-4.944733">
        <ele>1922.0</ele>
        <time>2015-08-16T13:54:24Z</time>
      </trkpt>
      <trkpt lat="40.588383" lon="-4.944850">
        <ele>1925.0</ele>
        <time>2015-08-16T13:54:25Z</time>
      </trkpt>
      <trkpt lat="40.588367" lon="-4.945000">
        <ele>1926.0</ele>
        <time>2015-08-16T13:54:26Z</time>
      </trkpt>
      <trkpt lat="40.588400" lon="-4.945133">
        <ele>1927.0</ele>
        <time>2015-08-16T13:54:27Z</time>
      </trkpt>
      <trkpt lat="40.588450" lon="-4.945267">
        <ele>1927.0</ele>
        <time>2015-08-16T13:54:28Z</time>
      </trkpt>
      <trkpt lat="40.588533" lon="-4.945383">
        <ele>1927.0</ele>
        <time>2015-08-16T13:54:29Z</time>
      </trkpt>
      <trkpt lat="40.588633" lon="-4.945450">
        <ele>1927.0</ele>
        <time>2015-08-16T13:54:30Z</time>
      </trkpt>
      <trkpt lat="40.588750" lon="-4.945483">
        <ele>1926.0</ele>
        <time>2015-08-16T13:54:31Z</time>
      </trkpt>
      <trkpt lat="40.588867" lon="-4.945467">
        <ele>1927.0</ele>
        <time>2015-08-16T13:54:32Z</time>
      </trkpt>
      <trkpt lat="40.588967" lon="-4.945400">
        <ele>1927.0</ele>
        <time>2015-08-16T13:54:33Z</time>
      </trkpt>
      <trkpt lat="40.589050" lon="-4.945317">
        <ele>1929.0</ele>
        <time>2015-08-16T13:54:34Z</time>
      </trkpt>
      <trkpt lat="40.589117" lon="-4.945217">
        <ele>1931.0</ele>
        <time>2015-08-16T13:54:35Z</time>
      </trkpt>
      <trkpt lat="40.589183" lon="-4.945117">
        <ele>1932.0</ele>
        <time>2015-08-16T13:54:36Z</time>
      </trkpt>
      <trkpt lat="40.589233" lon="-4.945000">
        <ele>1934.0</ele>
        <time>2015-08-16T13:54:37Z</time>
      </trkpt>
      <trkpt lat="40.589283" lon="-4.944900">
        <ele>1936.0</ele>
        <time>2015-08-16T13:54:38Z</time>
      </trkpt>
      <trkpt lat="40.589300" lon="-4.944783">
        <ele>1937.0</ele>
        <time>2015-08-16T13:54:39Z</time>
      </trkpt>
      <trkpt lat="40.589267" lon="-4.944683">
        <ele>1935.0</ele>
        <time>2015-08-16T13:54:40Z</time>
      </trkpt>
      <trkpt lat="40.589200" lon="-4.944583">
        <ele>1934.0</ele>
        <time>2015-08-16T13:54:41Z</time>
      </trkpt>
      <trkpt lat="40.589117" lon="-4.944517">
        <ele>1934.0</ele>
        <time>2015-08-16T13:54:42Z</time>
      </trkpt>
      <trkpt lat="40.589000" lon="-4.944483">
        <ele>1934.0</ele>
        <time>2015-08-16T13:54:43Z</time>
      </trkpt>
      <trkpt lat="40.588900" lon="-4.944517">
        <ele>1936.0</ele>
        <time>2015-08-16T13:54:44Z</time>
      </trkpt>
      <trkpt lat="40.588817" lon="-4.944583">
        <ele>1937.0</ele>
        <time>2015-08-16T13:54:45Z</time>
      </trkpt>
      <trkpt lat="40.588750" lon="-4.944700">
        <ele>1938.0</ele>
        <time>2015-08-16T13:54:46Z</time>
      </trkpt>
      <trkpt lat="40.588700" lon="-4.944833">
        <ele>1939.0</ele>
        <time>2015-08-16T13:54:47Z</time>
      </trkpt>
      <trkpt lat="40.588683" lon="-4.944967">
        <ele>1940.0</ele>
        <time>2015-08-16T13:54:48Z</time>
      </trkpt>
      <trkpt lat="40.588683" lon="-4.945117">
        <ele>1941.0</ele>
        <time>2015-08-16T13:54:49Z</time>
      </trkpt>
      <trkpt lat="40.588733" lon="-4.945267">
        <ele>1942.0</ele>
        <time>2015-08-16T13:54:50Z</time>
      </trkpt>
      <trkpt lat="40.588800" lon="-4.945383">
        <ele>1944.0</ele>
        <time>2015-08-16T13:54:51Z</time>
      </trkpt>
      <trkpt lat="40.588883" lon="-4.945467">
        <ele>1945.0</ele>
        <time>2015-08-16T13:54:52Z</time>
      </trkpt>
      <trkpt lat="40.589000" lon="-4.945500">
        <ele>1945.0</ele>
        <time>2015-08-16T13:54:53Z</time>
      </trkpt>
      <trkpt lat="40.589100" lon="-4.945483">
        <ele>1945.0</ele>
        <time>2015-08-16T13:54:54Z</time>
      </trkpt>
      <trkpt lat="40.589200" lon="-4.945400">
        <ele>1946.0</ele>
        <time>2015-08-16T13:54:55Z</time>
      </trkpt>
      <trkpt lat="40.589267" lon="-4.945300">
        <ele>1947.0</ele>
        <time>2015-08-16T13:54:56Z</time>
      </trkpt>
      <trkpt lat="40.589317" lon="-4.945167">
        <ele>1947.0</ele>
        <time>2015-08-16T13:54:57Z</time>
      </trkpt>
      <trkpt lat="40.589317" lon="-4.945050">
        <ele>1948.0</ele>
        <time>2015-08-16T13:54:58Z</time>
      </trkpt>
      <trkpt lat="40.589300" lon="-4.944917">
        <ele>1949.0</ele>
        <time>2015-08-16T13:54:59Z</time>
      </trkpt>
      <trkpt lat="40.589250" lon="-4.944833">
        <ele>1949.0</ele>
        <time>2015-08-16T13:55:00Z</time>
      </trkpt>
      <trkpt lat="40.589167" lon="-4.944767">
        <ele>1950.0</ele>
        <time>2015-08-16T13:55:01Z</time>
      </trkpt>
      <trkpt lat="40.589083" lon="-4.944767">
        <ele>1949.0</ele>
        <time>2015-08-16T13:55:02Z</time>
      </trkpt>
      <trkpt lat="40.588983" lon="-4.944817">
        <ele>1948.0</ele>
        <time>2015-08-16T13:55:03Z</time>
      </trkpt>
      <trkpt lat="40.588900" lon="-4.944917">
        <ele>1947.0</ele>
        <time>2015-08-16T13:55:04Z</time>
      </trkpt>
      <trkpt lat="40.588850" lon="-4.945083">
        <ele>1946.0</ele>
        <time>2015-08-16T13:55:05Z</time>
      </trkpt>
      <trkpt lat="40.588867" lon="-4.945250">
        <ele>1946.0</ele>
        <time>2015-08-16T13:55:06Z</time>
      </trkpt>
      <trkpt lat="40.588933" lon="-4.945400">
        <ele>1946.0</ele>
        <time>2015-08-16T13:55:07Z</time>
      </trkpt>
      <trkpt lat="40.589033" lon="-4.945517">
        <ele>1947.0</ele>
        <time>2015-08-16T13:55:08Z</time>
      </trkpt>
      <trkpt lat="40.589133" lon="-4.945600">
        <ele>1950.0</ele>
        <time>2015-08-16T13:55:09Z</time>
      </trkpt>
      <trkpt lat="40.589217" lon="-4.945667">
        <ele>1952.0</ele>
        <time>2015-08-16T13:55:10Z</time>
      </trkpt>
      <trkpt lat="40.589300" lon="-4.945717">
        <ele>1954.0</ele>
        <time>2015-08-16T13:55:11Z</time>
      </trkpt>
      <trkpt lat="40.589383" lon="-4.945750">
        <ele>1955.0</ele>
        <time>2015-08-16T13:55:12Z</time>
      </trkpt>
      <trkpt lat="40.589467" lon="-4.945750">
        <ele>1955.0</ele>
        <time>2015-08-16T13:55:13Z</time>
      </trkpt>
      <trkpt lat="40.589567" lon="-4.945717">
        <ele>1954.0</ele>
        <time>2015-08-16T13:55:14Z</time>
      </trkpt>
      <trkpt lat="40.589650" lon="-4.945650">
        <ele>1954.0</ele>
        <time>2015-08-16T13:55:15Z</time>
      </trkpt>
      <trkpt lat="40.589733" lon="-4.945567">
        <ele>1954.0</ele>
        <time>2015-08-16T13:55:16Z</time>
      </trkpt>
      <trkpt lat="40.589783" lon="-4.945450">
        <ele>1954.0</ele>
        <time>2015-08-16T13:55:17Z</time>
      </trkpt>
      <trkpt lat="40.589800" lon="-4.945333">
        <ele>1954.0</ele>
        <time>2015-08-16T13:55:18Z</time>
      </trkpt>
      <trkpt lat="40.589800" lon="-4.945217">
        <ele>1954.0</ele>
        <time>2015-08-16T13:55:19Z</time>
      </trkpt>
      <trkpt lat="40.589767" lon="-4.945117">
        <ele>1953.0</ele>
        <time>2015-08-16T13:55:20Z</time>
      </trkpt>
      <trkpt lat="40.589733" lon="-4.945017">
        <ele>1952.0</ele>
        <time>2015-08-16T13:55:21Z</time>
      </trkpt>
      <trkpt lat="40.589667" lon="-4.944917">
        <ele>1952.0</ele>
        <time>2015-08-16T13:55:22Z</time>
      </trkpt>
      <trkpt lat="40.589600" lon="-4.944833">
        <ele>1953.0</ele>
        <time>2015-08-16T13:55:23Z</time>
      </trkpt>
      <trkpt lat="40.589533" lon="-4.944750">
        <ele>1954.0</ele>
        <time>2015-08-16T13:55:24Z</time>
      </trkpt>
      <trkpt lat="40.589483" lon="-4.944667">
        <ele>1955.0</ele>
        <time>2015-08-16T13:55:25Z</time>
      </trkpt>
      <trkpt lat="40.589417" lon="-4.944617">
        <ele>1956.0</ele>
        <time>2015-08-16T13:55:26Z</time>
      </trkpt>
      <trkpt lat="40.589333" lon="-4.944583">
        <ele>1956.0</ele>
        <time>2015-08-16T13:55:27Z</time>
      </trkpt>
      <trkpt lat="40.589250" lon="-4.944583">
        <ele>1955.0</ele>
        <time>2015-08-16T13:55:28Z</time>
      </trkpt>
      <trkpt lat="40.589150" lon="-4.944583">
        <ele>1955.0</ele>
        <time>2015-08-16T13:55:29Z</time>
      </trkpt>
      <trkpt lat="40.589050" lon="-4.944600">
        <ele>1955.0</ele>
        <time>2015-08-16T13:55:30Z</time>
      </trkpt>
      <trkpt lat="40.588967" lon="-4.944650">
        <ele>1956.0</ele>
        <time>2015-08-16T13:55:31Z</time>
      </trkpt>
      <trkpt lat="40.588867" lon="-4.944717">
        <ele>1957.0</ele>
        <time>2015-08-16T13:55:32Z</time>
      </trkpt>
      <trkpt lat="40.588800" lon="-4.944817">
        <ele>1957.0</ele>
        <time>2015-08-16T13:55:33Z</time>
      </trkpt>
      <trkpt lat="40.588733" lon="-4.944917">
        <ele>1957.0</ele>
        <time>2015-08-16T13:55:34Z</time>
      </trkpt>
      <trkpt lat="40.588683" lon="-4.945033">
        <ele>1957.0</ele>
        <time>2015-08-16T13:55:35Z</time>
      </trkpt>
      <trkpt lat="40.588667" lon="-4.945167">
        <ele>1958.0</ele>
        <time>2015-08-16T13:55:36Z</time>
      </trkpt>
      <trkpt lat="40.588667" lon="-4.945317">
        <ele>1958.0</ele>
        <time>2015-08-16T13:55:37Z</time>
      </trkpt>
      <trkpt lat="40.588683" lon="-4.945450">
        <ele>1959.0</ele>
        <time>2015-08-16T13:55:38Z</time>
      </trkpt>
      <trkpt lat="40.588717" lon="-4.945583">
        <ele>1960.0</ele>
        <time>2015-08-16T13:55:39Z</time>
      </trkpt>
      <trkpt lat="40.588750" lon="-4.945700">
        <ele>1961.0</ele>
        <time>2015-08-16T13:55:40Z</time>
      </trkpt>
      <trkpt lat="40.588800" lon="-4.945817">
        <ele>1962.0</ele>
        <time>2015-08-16T13:55:41Z</time>
      </trkpt>
      <trkpt lat="40.588867" lon="-4.945933">
        <ele>1962.0</ele>
        <time>2015-08-16T13:55:42Z</time>
      </trkpt>
      <trkpt lat="40.588933" lon="-4.946050">
        <ele>1963.0</ele>
        <time>2015-08-16T13:55:43Z</time>
      </trkpt>
      <trkpt lat="40.589017" lon="-4.946150">
        <ele>1964.0</ele>
        <time>2015-08-16T13:55:44Z</time>
      </trkpt>
      <trkpt lat="40.589100" lon="-4.946233">
        <ele>1965.0</ele>
        <time>2015-08-16T13:55:45Z</time>
      </trkpt>
      <trkpt lat="40.589217" lon="-4.946283">
        <ele>1966.0</ele>
        <time>2015-08-16T13:55:46Z</time>
      </trkpt>
      <trkpt lat="40.589317" lon="-4.946317">
        <ele>1966.0</ele>
        <time>2015-08-16T13:55:47Z</time>
      </trkpt>
      <trkpt lat="40.589433" lon="-4.946300">
        <ele>1966.0</ele>
        <time>2015-08-16T13:55:48Z</time>
      </trkpt>
      <trkpt lat="40.589533" lon="-4.946267">
        <ele>1966.0</ele>
        <time>2015-08-16T13:55:49Z</time>
      </trkpt>
      <trkpt lat="40.589617" lon="-4.946183">
        <ele>1966.0</ele>
        <time>2015-08-16T13:55:50Z</time>
      </trkpt>
      <trkpt lat="40.589667" lon="-4.946100">
        <ele>1966.0</ele>
        <time>2015-08-16T13:55:51Z</time>
      </trkpt>
      <trkpt lat="40.589700" lon="-4.945983">
        <ele>1965.0</ele>
        <time>2015-08-16T13:55:52Z</time>
      </trkpt>
      <trkpt lat="40.589717" lon="-4.945850">
        <ele>1964.0</ele>
        <time>2015-08-16T13:55:53Z</time>
      </trkpt>
      <trkpt lat="40.589700" lon="-4.945733">
        <ele>1963.0</ele>
        <time>2015-08-16T13:55:54Z</time>
      </trkpt>
      <trkpt lat="40.589650" lon="-4.945633">
        <ele>1962.0</ele>
        <time>2015-08-16T13:55:55Z</time>
      </trkpt>
      <trkpt lat="40.589583" lon="-4.945550">
        <ele>1962.0</ele>
        <time>2015-08-16T13:55:56Z</time>
      </trkpt>
      <trkpt lat="40.589500" lon="-4.945500">
        <ele>1962.0</ele>
        <time>2015-08-16T13:55:57Z</time>
      </trkpt>
      <trkpt lat="40.589417" lon="-4.945500">
        <ele>1963.0</ele>
        <time>2015-08-16T13:55:58Z</time>
      </trkpt>
      <trkpt lat="40.589317" lon="-4.945533">
        <ele>1964.0</ele>
        <time>2015-08-16T13:55:59Z</time>
      </trkpt>
      <trkpt lat="40.589250" lon="-4.945583">
        <ele>1965.0</ele>
        <time>2015-08-16T13:56:00Z</time>
      </trkpt>
      <trkpt lat="40.589183" lon="-4.945683">
        <ele>1966.0</ele>
        <time>2015-08-16T13:56:01Z</time>
      </trkpt>
      <trkpt lat="40.589150" lon="-4.945783">
        <ele>1966.0</ele>
        <time>2015-08-16T13:56:02Z</time>
      </trkpt>
      <trkpt lat="40.589150" lon="-4.945917">
        <ele>1966.0</ele>
        <time>2015-08-16T13:56:03Z</time>
      </trkpt>
      <trkpt lat="40.589167" lon="-4.946067">
        <ele>1965.0</ele>
        <time>2015-08-16T13:56:04Z</time>
      </trkpt>
      <trkpt lat="40.589233" lon="-4.946217">
        <ele>1966.0</ele>
        <time>2015-08-16T13:56:05Z</time>
      </trkpt>
      <trkpt lat="40.589283" lon="-4.946333">
        <ele>1967.0</ele>
        <time>2015-08-16T13:56:06Z</time>
      </trkpt>
      <trkpt lat="40.589367" lon="-4.946433">
        <ele>1968.0</ele>
        <time>2015-08-16T13:56:07Z</time>
      </trkpt>
      <trkpt lat="40.589433" lon="-4.946517">
        <ele>1969.0</ele>
        <time>2015-08-16T13:56:08Z</time>
      </trkpt>
      <trkpt lat="40.589500" lon="-4.946600">
        <ele>1969.0</ele>
        <time>2015-08-16T13:56:09Z</time>
      </trkpt>
      <trkpt lat="40.589567" lon="-4.946667">
        <ele>1969.0</ele>
        <time>2015-08-16T13:56:10Z</time>
      </trkpt>
      <trkpt lat="40.589633" lon="-4.946750">
        <ele>1968.0</ele>
        <time>2015-08-16T13:56:11Z</time>
      </trkpt>
      <trkpt lat="40.589700" lon="-4.946817">
        <ele>1967.0</ele>
        <time>2015-08-16T13:56:12Z</time>
      </trkpt>
      <trkpt lat="40.589783" lon="-4.946867">
        <ele>1965.0</ele>
        <time>2015-08-16T13:56:13Z</time>
      </trkpt>
      <trkpt lat="40.589883" lon="-4.946867">
        <ele>1964.0</ele>
        <time>2015-08-16T13:56:14Z</time>
      </trkpt>
      <trkpt lat="40.590000" lon="-4.946833">
        <ele>1962.0</ele>
        <time>2015-08-16T13:56:15Z</time>
      </trkpt>
      <trkpt lat="40.590083" lon="-4.946783">
        <ele>1961.0</ele>
        <time>2015-08-16T13:56:16Z</time>
      </trkpt>
      <trkpt lat="40.590167" lon="-4.946700">
        <ele>1960.0</ele>
        <time>2015-08-16T13:56:17Z</time>
      </trkpt>
      <trkpt lat="40.590217" lon="-4.946600">
        <ele>1958.0</ele>
        <time>2015-08-16T13:56:18Z</time>
      </trkpt>
      <trkpt lat="40.590267" lon="-4.946500">
        <ele>1957.0</ele>
        <time>2015-08-16T13:56:19Z</time>
      </trkpt>
      <trkpt lat="40.590300" lon="-4.946367">
        <ele>1955.0</ele>
        <time>2015-08-16T13:56:20Z</time>
      </trkpt>
      <trkpt lat="40.590333" lon="-4.946233">
        <ele>1952.0</ele>
        <time>2015-08-16T13:56:21Z</time>
      </trkpt>
      <trkpt lat="40.590350" lon="-4.946083">
        <ele>1950.0</ele>
        <time>2015-08-16T13:56:22Z</time>
      </trkpt>
      <trkpt lat="40.590350" lon="-4.945933">
        <ele>1949.0</ele>
        <time>2015-08-16T13:56:23Z</time>
      </trkpt>
      <trkpt lat="40.590350" lon="-4.945783">
        <ele>1947.0</ele>
        <time>2015-08-16T13:56:24Z</time>
      </trkpt>
      <trkpt lat="40.590350" lon="-4.945633">
        <ele>1946.0</ele>
        <time>2015-08-16T13:56:25Z</time>
      </trkpt>
      <trkpt lat="40.590350" lon="-4.945500">
        <ele>1945.0</ele>
        <time>2015-08-16T13:56:26Z</time>
      </trkpt>
      <trkpt lat="40.590367" lon="-4.945367">
        <ele>1945.0</ele>
        <time>2015-08-16T13:56:27Z</time>
      </trkpt>
      <trkpt lat="40.590383" lon="-4.945233">
        <ele>1943.0</ele>
        <time>2015-08-16T13:56:28Z</time>
      </trkpt>
      <trkpt lat="40.590400" lon="-4.945117">
        <ele>1941.0</ele>
        <time>2015-08-16T13:56:29Z</time>
      </trkpt>
      <trkpt lat="40.590400" lon="-4.944983">
        <ele>1939.0</ele>
        <time>2015-08-16T13:56:30Z</time>
      </trkpt>
      <trkpt lat="40.590383" lon="-4.944817">
        <ele>1937.0</ele>
        <time>2015-08-16T13:56:31Z</time>
      </trkpt>
      <trkpt lat="40.590367" lon="-4.944667">
        <ele>1935.0</ele>
        <time>2015-08-16T13:56:32Z</time>
      </trkpt>
      <trkpt lat="40.590367" lon="-4.944500">
        <ele>1934.0</ele>
        <time>2015-08-16T13:56:33Z</time>
      </trkpt>
      <trkpt lat="40.590367" lon="-4.944333">
        <ele>1934.0</ele>
        <time>2015-08-16T13:56:34Z</time>
      </trkpt>
      <trkpt lat="40.590383" lon="-4.944183">
        <ele>1934.0</ele>
        <time>2015-08-16T13:56:35Z</time>
      </trkpt>
      <trkpt lat="40.590367" lon="-4.944050">
        <ele>1935.0</ele>
        <time>2015-08-16T13:56:36Z</time>
      </trkpt>
      <trkpt lat="40.590350" lon="-4.943917">
        <ele>1935.0</ele>
        <time>2015-08-16T13:56:37Z</time>
      </trkpt>
      <trkpt lat="40.590317" lon="-4.943783">
        <ele>1935.0</ele>
        <time>2015-08-16T13:56:38Z</time>
      </trkpt>
      <trkpt lat="40.590317" lon="-4.943633">
        <ele>1935.0</ele>
        <time>2015-08-16T13:56:39Z</time>
      </trkpt>
      <trkpt lat="40.590317" lon="-4.943483">
        <ele>1934.0</ele>
        <time>2015-08-16T13:56:40Z</time>
      </trkpt>
      <trkpt lat="40.590317" lon="-4.943333">
        <ele>1934.0</ele>
        <time>2015-08-16T13:56:41Z</time>
      </trkpt>
      <trkpt lat="40.590317" lon="-4.943183">
        <ele>1934.0</ele>
        <time>2015-08-16T13:56:42Z</time>
      </trkpt>
      <trkpt lat="40.590300" lon="-4.943050">
        <ele>1935.0</ele>
        <time>2015-08-16T13:56:43Z</time>
      </trkpt>
      <trkpt lat="40.590317" lon="-4.942917">
        <ele>1936.0</ele>
        <time>2015-08-16T13:56:44Z</time>
      </trkpt>
      <trkpt lat="40.590317" lon="-4.942783">
        <ele>1937.0</ele>
        <time>2015-08-16T13:56:45Z</time>
      </trkpt>
      <trkpt lat="40.590333" lon="-4.942650">
        <ele>1938.0</ele>
        <time>2015-08-16T13:56:46Z</time>
      </trkpt>
      <trkpt lat="40.590333" lon="-4.942533">
        <ele>1939.0</ele>
        <time>2015-08-16T13:56:47Z</time>
      </trkpt>
      <trkpt lat="40.590333" lon="-4.942400">
        <ele>1939.0</ele>
        <time>2015-08-16T13:56:48Z</time>
      </trkpt>
      <trkpt lat="40.590317" lon="-4.942300">
        <ele>1940.0</ele>
        <time>2015-08-16T13:56:49Z</time>
      </trkpt>
      <trkpt lat="40.590283" lon="-4.942200">
        <ele>1940.0</ele>
        <time>2015-08-16T13:56:50Z</time>
      </trkpt>
      <trkpt lat="40.590233" lon="-4.942100">
        <ele>1939.0</ele>
        <time>2015-08-16T13:56:51Z</time>
      </trkpt>
      <trkpt lat="40.590150" lon="-4.942017">
        <ele>1938.0</ele>
        <time>2015-08-16T13:56:52Z</time>
      </trkpt>
      <trkpt lat="40.590050" lon="-4.941950">
        <ele>1937.0</ele>
        <time>2015-08-16T13:56:53Z</time>
      </trkpt>
      <trkpt lat="40.589950" lon="-4.941900">
        <ele>1936.0</ele>
        <time>2015-08-16T13:56:54Z</time>
      </trkpt>
      <trkpt lat="40.589833" lon="-4.941900">
        <ele>1937.0</ele>
        <time>2015-08-16T13:56:55Z</time>
      </trkpt>
      <trkpt lat="40.589733" lon="-4.941917">
        <ele>1937.0</ele>
        <time>2015-08-16T13:56:56Z</time>
      </trkpt>
      <trkpt lat="40.589617" lon="-4.941983">
        <ele>1937.0</ele>
        <time>2015-08-16T13:56:57Z</time>
      </trkpt>
      <trkpt lat="40.589533" lon="-4.942050">
        <ele>1937.0</ele>
        <time>2015-08-16T13:56:58Z</time>
      </trkpt>
      <trkpt lat="40.589450" lon="-4.942150">
        <ele>1937.0</ele>
        <time>2015-08-16T13:56:59Z</time>
      </trkpt>
      <trkpt lat="40.589383" lon="-4.942267">
        <ele>1937.0</ele>
        <time>2015-08-16T13:57:00Z</time>
      </trkpt>
      <trkpt lat="40.589333" lon="-4.942383">
        <ele>1936.0</ele>
        <time>2015-08-16T13:57:01Z</time>
      </trkpt>
      <trkpt lat="40.589300" lon="-4.942533">
        <ele>1937.0</ele>
        <time>2015-08-16T13:57:02Z</time>
      </trkpt>
      <trkpt lat="40.589267" lon="-4.942667">
        <ele>1938.0</ele>
        <time>2015-08-16T13:57:03Z</time>
      </trkpt>
      <trkpt lat="40.589250" lon="-4.942800">
        <ele>1939.0</ele>
        <time>2015-08-16T13:57:04Z</time>
      </trkpt>
      <trkpt lat="40.589267" lon="-4.942917">
        <ele>1940.0</ele>
        <time>2015-08-16T13:57:05Z</time>
      </trkpt>
      <trkpt lat="40.589283" lon="-4.943033">
        <ele>1940.0</ele>
        <time>2015-08-16T13:57:06Z</time>
      </trkpt>
      <trkpt lat="40.589317" lon="-4.943150">
        <ele>1940.0</ele>
        <time>2015-08-16T13:57:07Z</time>
      </trkpt>
      <trkpt lat="40.589383" lon="-4.943250">
        <ele>1940.0</ele>
        <time>2015-08-16T13:57:08Z</time>
      </trkpt>
      <trkpt lat="40.589450" lon="-4.943350">
        <ele>1941.0</ele>
        <time>2015-08-16T13:57:09Z</time>
      </trkpt>
      <trkpt lat="40.589517" lon="-4.943433">
        <ele>1941.0</ele>
        <time>2015-08-16T13:57:10Z</time>
      </trkpt>
      <trkpt lat="40.589583" lon="-4.943500">
        <ele>1942.0</ele>
        <time>2015-08-16T13:57:11Z</time>
      </trkpt>
      <trkpt lat="40.589667" lon="-4.943550">
        <ele>1943.0</ele>
        <time>2015-08-16T13:57:12Z</time>
      </trkpt>
      <trkpt lat="40.589750" lon="-4.943583">
        <ele>1943.0</ele>
        <time>2015-08-16T13:57:13Z</time>
      </trkpt>
      <trkpt lat="40.589850" lon="-4.943583">
        <ele>1943.0</ele>
        <time>2015-08-16T13:57:14Z</time>
      </trkpt>
      <trkpt lat="40.589933" lon="-4.943567">
        <ele>1944.0</ele>
        <time>2015-08-16T13:57:15Z</time>
      </trkpt>
      <trkpt lat="40.590033" lon="-4.943517">
        <ele>1945.0</ele>
        <time>2015-08-16T13:57:16Z</time>
      </trkpt>
      <trkpt lat="40.590117" lon="-4.943433">
        <ele>1945.0</ele>
        <time>2015-08-16T13:57:17Z</time>
      </trkpt>
      <trkpt lat="40.590183" lon="-4.943350">
        <ele>1946.0</ele>
        <time>2015-08-16T13:57:18Z</time>
      </trkpt>
      <trkpt lat="40.590233" lon="-4.943250">
        <ele>1946.0</ele>
        <time>2015-08-16T13:57:19Z</time>
      </trkpt>
      <trkpt lat="40.590283" lon="-4.943133">
        <ele>1946.0</ele>
        <time>2015-08-16T13:57:20Z</time>
      </trkpt>
      <trkpt lat="40.590317" lon="-4.943017">
        <ele>1946.0</ele>
        <time>2015-08-16T13:57:21Z</time>
      </trkpt>
      <trkpt lat="40.590317" lon="-4.942883">
        <ele>1946.0</ele>
        <time>2015-08-16T13:57:22Z</time>
      </trkpt>
      <trkpt lat="40.590317" lon="-4.942750">
        <ele>1947.0</ele>
        <time>2015-08-16T13:57:23Z</time>
      </trkpt>
      <trkpt lat="40.590283" lon="-4.942633">
        <ele>1948.0</ele>
        <time>2015-08-16T13:57:24Z</time>
      </trkpt>
      <trkpt lat="40.590250" lon="-4.942517">
        <ele>1949.0</ele>
        <time>2015-08-16T13:57:25Z</time>
      </trkpt>
      <trkpt lat="40.590233" lon="-4.942417">
        <ele>1949.0</ele>
        <time>2015-08-16T13:57:26Z</time>
      </trkpt>
      <trkpt lat="40.590233" lon="-4.942300">
        <ele>1948.0</ele>
        <time>2015-08-16T13:57:27Z</time>
      </trkpt>
      <trkpt lat="40.590233" lon="-4.942183">
        <ele>1947.0</ele>
        <time>2015-08-16T13:57:28Z</time>
      </trkpt>
      <trkpt lat="40.590233" lon="-4.942067">
        <ele>1947.0</ele>
        <time>2015-08-16T13:57:29Z</time>
      </trkpt>
      <trkpt lat="40.590250" lon="-4.941933">
        <ele>1946.0</ele>
        <time>2015-08-16T13:57:30Z</time>
      </trkpt>
      <trkpt lat="40.590233" lon="-4.941817">
        <ele>1945.0</ele>
        <time>2015-08-16T13:57:31Z</time>
      </trkpt>
      <trkpt lat="40.590200" lon="-4.941683">
        <ele>1944.0</ele>
        <time>2015-08-16T13:57:32Z</time>
      </trkpt>
      <trkpt lat="40.590183" lon="-4.941567">
        <ele>1942.0</ele>
        <time>2015-08-16T13:57:33Z</time>
      </trkpt>
      <trkpt lat="40.590167" lon="-4.941433">
        <ele>1941.0</ele>
        <time>2015-08-16T13:57:34Z</time>
      </trkpt>
      <trkpt lat="40.590150" lon="-4.941300">
        <ele>1941.0</ele>
        <time>2015-08-16T13:57:35Z</time>
      </trkpt>
      <trkpt lat="40.590150" lon="-4.941167">
        <ele>1941.0</ele>
        <time>2015-08-16T13:57:36Z</time>
      </trkpt>
      <trkpt lat="40.590133" lon="-4.941050">
        <ele>1942.0</ele>
        <time>2015-08-16T13:57:37Z</time>
      </trkpt>
      <trkpt lat="40.590117" lon="-4.940950">
        <ele>1942.0</ele>
        <time>2015-08-16T13:57:38Z</time>
      </trkpt>
      <trkpt lat="40.590100" lon="-4.940833">
        <ele>1943.0</ele>
        <time>2015-08-16T13:57:39Z</time>
      </trkpt>
      <trkpt lat="40.590083" lon="-4.940717">
        <ele>1942.0</ele>
        <time>2015-08-16T13:57:40Z</time>
      </trkpt>
      <trkpt lat="40.590067" lon="-4.940600">
        <ele>1942.0</ele>
        <time>2015-08-16T13:57:41Z</time>
      </trkpt>
      <trkpt lat="40.590050" lon="-4.940483">
        <ele>1942.0</ele>
        <time>2015-08-16T13:57:42Z</time>
      </trkpt>
      <trkpt lat="40.590050" lon="-4.940350">
        <ele>1941.0</ele>
        <time>2015-08-16T13:57:43Z</time>
      </trkpt>
      <trkpt lat="40.590050" lon="-4.940233">
        <ele>1942.0</ele>
        <time>2015-08-16T13:57:44Z</time>
      </trkpt>
      <trkpt lat="40.590050" lon="-4.940100">
        <ele>1943.0</ele>
        <time>2015-08-16T13:57:45Z</time>
      </trkpt>
      <trkpt lat="40.590050" lon="-4.939983">
        <ele>1946.0</ele>
        <time>2015-08-16T13:57:46Z</time>
      </trkpt>
      <trkpt lat="40.590050" lon="-4.939883">
        <ele>1948.0</ele>
        <time>2015-08-16T13:57:47Z</time>
      </trkpt>
      <trkpt lat="40.590067" lon="-4.939783">
        <ele>1950.0</ele>
        <time>2015-08-16T13:57:48Z</time>
      </trkpt>
      <trkpt lat="40.590083" lon="-4.939683">
        <ele>1952.0</ele>
        <time>2015-08-16T13:57:49Z</time>
      </trkpt>
      <trkpt lat="40.590100" lon="-4.939567">
        <ele>1953.0</ele>
        <time>2015-08-16T13:57:50Z</time>
      </trkpt>
      <trkpt lat="40.590100" lon="-4.939450">
        <ele>1953.0</ele>
        <time>2015-08-16T13:57:51Z</time>
      </trkpt>
      <trkpt lat="40.590083" lon="-4.939333">
        <ele>1954.0</ele>
        <time>2015-08-16T13:57:52Z</time>
      </trkpt>
      <trkpt lat="40.590050" lon="-4.939217">
        <ele>1955.0</ele>
        <time>2015-08-16T13:57:53Z</time>
      </trkpt>
      <trkpt lat="40.590000" lon="-4.939117">
        <ele>1956.0</ele>
        <time>2015-08-16T13:57:54Z</time>
      </trkpt>
      <trkpt lat="40.589917" lon="-4.939050">
        <ele>1957.0</ele>
        <time>2015-08-16T13:57:55Z</time>
      </trkpt>
      <trkpt lat="40.589817" lon="-4.939017">
        <ele>1958.0</ele>
        <time>2015-08-16T13:57:56Z</time>
      </trkpt>
      <trkpt lat="40.589700" lon="-4.939050">
        <ele>1959.0</ele>
        <time>2015-08-16T13:57:57Z</time>
      </trkpt>
      <trkpt lat="40.589617" lon="-4.939133">
        <ele>1961.0</ele>
        <time>2015-08-16T13:57:58Z</time>
      </trkpt>
      <trkpt lat="40.589550" lon="-4.939233">
        <ele>1963.0</ele>
        <time>2015-08-16T13:57:59Z</time>
      </trkpt>
      <trkpt lat="40.589517" lon="-4.939367">
        <ele>1965.0</ele>
        <time>2015-08-16T13:58:00Z</time>
      </trkpt>
      <trkpt lat="40.589517" lon="-4.939517">
        <ele>1967.0</ele>
        <time>2015-08-16T13:58:01Z</time>
      </trkpt>
      <trkpt lat="40.589550" lon="-4.939633">
        <ele>1969.0</ele>
        <time>2015-08-16T13:58:02Z</time>
      </trkpt>
      <trkpt lat="40.589600" lon="-4.939750">
        <ele>1970.0</ele>
        <time>2015-08-16T13:58:03Z</time>
      </trkpt>
      <trkpt lat="40.589683" lon="-4.939817">
        <ele>1972.0</ele>
        <time>2015-08-16T13:58:04Z</time>
      </trkpt>
      <trkpt lat="40.589767" lon="-4.939867">
        <ele>1972.0</ele>
        <time>2015-08-16T13:58:05Z</time>
      </trkpt>
      <trkpt lat="40.589883" lon="-4.939867">
        <ele>1972.0</ele>
        <time>2015-08-16T13:58:06Z</time>
      </trkpt>
      <trkpt lat="40.589983" lon="-4.939833">
        <ele>1973.0</ele>
        <time>2015-08-16T13:58:07Z</time>
      </trkpt>
      <trkpt lat="40.590067" lon="-4.939767">
        <ele>1974.0</ele>
        <time>2015-08-16T13:58:08Z</time>
      </trkpt>
      <trkpt lat="40.590133" lon="-4.939667">
        <ele>1976.0</ele>
        <time>2015-08-16T13:58:09Z</time>
      </trkpt>
      <trkpt lat="40.590183" lon="-4.939567">
        <ele>1978.0</ele>
        <time>2015-08-16T13:58:10Z</time>
      </trkpt>
      <trkpt lat="40.590217" lon="-4.939450">
        <ele>1979.0</ele>
        <time>2015-08-16T13:58:11Z</time>
      </trkpt>
      <trkpt lat="40.590250" lon="-4.939333">
        <ele>1980.0</ele>
        <time>2015-08-16T13:58:12Z</time>
      </trkpt>
      <trkpt lat="40.590250" lon="-4.939217">
        <ele>1981.0</ele>
        <time>2015-08-16T13:58:13Z</time>
      </trkpt>
      <trkpt lat="40.590217" lon="-4.939100">
        <ele>1981.0</ele>
        <time>2015-08-16T13:58:14Z</time>
      </trkpt>
      <trkpt lat="40.590150" lon="-4.939000">
        <ele>1982.0</ele>
        <time>2015-08-16T13:58:15Z</time>
      </trkpt>
      <trkpt lat="40.590067" lon="-4.938950">
        <ele>1983.0</ele>
        <time>2015-08-16T13:58:16Z</time>
      </trkpt>
      <trkpt lat="40.589967" lon="-4.938933">
        <ele>1985.0</ele>
        <time>2015-08-16T13:58:17Z</time>
      </trkpt>
      <trkpt lat="40.589867" lon="-4.938983">
        <ele>1985.0</ele>
        <time>2015-08-16T13:58:18Z</time>
      </trkpt>
      <trkpt lat="40.589783" lon="-4.939067">
        <ele>1986.0</ele>
        <time>2015-08-16T13:58:19Z</time>
      </trkpt>
      <trkpt lat="40.589733" lon="-4.939183">
        <ele>1988.0</ele>
        <time>2015-08-16T13:58:20Z</time>
      </trkpt>
      <trkpt lat="40.589717" lon="-4.939300">
        <ele>1990.0</ele>
        <time>2015-08-16T13:58:21Z</time>
      </trkpt>
      <trkpt lat="40.589717" lon="-4.939433">
        <ele>1992.0</ele>
        <time>2015-08-16T13:58:22Z</time>
      </trkpt>
      <trkpt lat="40.589750" lon="-4.939550">
        <ele>1993.0</ele>
        <time>2015-08-16T13:58:23Z</time>
      </trkpt>
      <trkpt lat="40.589833" lon="-4.939650">
        <ele>1994.0</ele>
        <time>2015-08-16T13:58:24Z</time>
      </trkpt>
      <trkpt lat="40.589917" lon="-4.939733">
        <ele>1995.0</ele>
        <time>2015-08-16T13:58:25Z</time>
      </trkpt>
      <trkpt lat="40.590017" lon="-4.939783">
        <ele>1998.0</ele>
        <time>2015-08-16T13:58:26Z</time>
      </trkpt>
      <trkpt lat="40.590117" lon="-4.939800">
        <ele>1999.0</ele>
        <time>2015-08-16T13:58:27Z</time>
      </trkpt>
      <trkpt lat="40.590217" lon="-4.939783">
        <ele>2001.0</ele>
        <time>2015-08-16T13:58:28Z</time>
      </trkpt>
      <trkpt lat="40.590300" lon="-4.939733">
        <ele>2001.0</ele>
        <time>2015-08-16T13:58:29Z</time>
      </trkpt>
      <trkpt lat="40.590383" lon="-4.939650">
        <ele>2001.0</ele>
        <time>2015-08-16T13:58:30Z</time>
      </trkpt>
      <trkpt lat="40.590433" lon="-4.939550">
        <ele>2001.0</ele>
        <time>2015-08-16T13:58:31Z</time>
      </trkpt>
      <trkpt lat="40.590483" lon="-4.939433">
        <ele>2000.0</ele>
        <time>2015-08-16T13:58:32Z</time>
      </trkpt>
      <trkpt lat="40.590483" lon="-4.939317">
        <ele>2000.0</ele>
        <time>2015-08-16T13:58:33Z</time>
      </trkpt>
      <trkpt lat="40.590467" lon="-4.939200">
        <ele>2000.0</ele>
        <time>2015-08-16T13:58:34Z</time>
      </trkpt>
      <trkpt lat="40.590433" lon="-4.939100">
        <ele>2000.0</ele>
        <time>2015-08-16T13:58:35Z</time>
      </trkpt>
      <trkpt lat="40.590367" lon="-4.939000">
        <ele>2000.0</ele>
        <time>2015-08-16T13:58:36Z</time>
      </trkpt>
      <trkpt lat="40.590300" lon="-4.938933">
        <ele>2001.0</ele>
        <time>2015-08-16T13:58:37Z</time>
      </trkpt>
      <trkpt lat="40.590200" lon="-4.938917">
        <ele>2003.0</ele>
        <time>2015-08-16T13:58:38Z</time>
      </trkpt>
      <trkpt lat="40.590117" lon="-4.938900">
        <ele>2004.0</ele>
        <time>2015-08-16T13:58:39Z</time>
      </trkpt>
      <trkpt lat="40.590017" lon="-4.938933">
        <ele>2006.0</ele>
        <time>2015-08-16T13:58:40Z</time>
      </trkpt>
      <trkpt lat="40.589933" lon="-4.938983">
        <ele>2007.0</ele>
        <time>2015-08-16T13:58:41Z</time>
      </trkpt>
      <trkpt lat="40.589867" lon="-4.939067">
        <ele>2009.0</ele>
        <time>2015-08-16T13:58:42Z</time>
      </trkpt>
      <trkpt lat="40.589817" lon="-4.939183">
        <ele>2009.0</ele>
        <time>2015-08-16T13:58:43Z</time>
      </trkpt>
      <trkpt lat="40.589800" lon="-4.939317">
        <ele>2009.0</ele>
        <time>2015-08-16T13:58:44Z</time>
      </trkpt>
      <trkpt lat="40.589817" lon="-4.939483">
        <ele>2009.0</ele>
        <time>2015-08-16T13:58:45Z</time>
      </trkpt>
      <trkpt lat="40.589883" lon="-4.939617">
        <ele>2009.0</ele>
        <time>2015-08-16T13:58:46Z</time>
      </trkpt>
      <trkpt lat="40.589967" lon="-4.939733">
        <ele>2011.0</ele>
        <time>2015-08-16T13:58:47Z</time>
      </trkpt>
      <trkpt lat="40.590067" lon="-4.939783">
        <ele>2012.0</ele>
        <time>2015-08-16T13:58:48Z</time>
      </trkpt>
      <trkpt lat="40.590183" lon="-4.939817">
        <ele>2014.0</ele>
        <time>2015-08-16T13:58:49Z</time>
      </trkpt>
      <trkpt lat="40.590267" lon="-4.939783">
        <ele>2016.0</ele>
        <time>2015-08-16T13:58:50Z</time>
      </trkpt>
      <trkpt lat="40.590350" lon="-4.939733">
        <ele>2017.0</ele>
        <time>2015-08-16T13:58:51Z</time>
      </trkpt>
      <trkpt lat="40.590417" lon="-4.939650">
        <ele>2016.0</ele>
        <time>2015-08-16T13:58:52Z</time>
      </trkpt>
      <trkpt lat="40.590450" lon="-4.939533">
        <ele>2015.0</ele>
        <time>2015-08-16T13:58:53Z</time>
      </trkpt>
      <trkpt lat="40.590450" lon="-4.939400">
        <ele>2015.0</ele>
        <time>2015-08-16T13:58:54Z</time>
      </trkpt>
      <trkpt lat="40.590417" lon="-4.939267">
        <ele>2014.0</ele>
        <time>2015-08-16T13:58:55Z</time>
      </trkpt>
      <trkpt lat="40.590350" lon="-4.939167">
        <ele>2015.0</ele>
        <time>2015-08-16T13:58:56Z</time>
      </trkpt>
      <trkpt lat="40.590267" lon="-4.939100">
        <ele>2016.0</ele>
        <time>2015-08-16T13:58:57Z</time>
      </trkpt>
      <trkpt lat="40.590183" lon="-4.939067">
        <ele>2017.0</ele>
        <time>2015-08-16T13:58:58Z</time>
      </trkpt>
      <trkpt lat="40.590100" lon="-4.939050">
        <ele>2018.0</ele>
        <time>2015-08-16T13:58:59Z</time>
      </trkpt>
      <trkpt lat="40.590017" lon="-4.939083">
        <ele>2019.0</ele>
        <time>2015-08-16T13:59:00Z</time>
      </trkpt>
      <trkpt lat="40.589933" lon="-4.939150">
        <ele>2019.0</ele>
        <time>2015-08-16T13:59:01Z</time>
      </trkpt>
      <trkpt lat="40.589867" lon="-4.939267">
        <ele>2019.0</ele>
        <time>2015-08-16T13:59:02Z</time>
      </trkpt>
      <trkpt lat="40.589833" lon="-4.939400">
        <ele>2020.0</ele>
        <time>2015-08-16T13:59:03Z</time>
      </trkpt>
      <trkpt lat="40.589817" lon="-4.939550">
        <ele>2021.0</ele>
        <time>2015-08-16T13:59:04Z</time>
      </trkpt>
      <trkpt lat="40.589850" lon="-4.939700">
        <ele>2022.0</ele>
        <time>2015-08-16T13:59:05Z</time>
      </trkpt>
      <trkpt lat="40.589917" lon="-4.939833">
        <ele>2023.0</ele>
        <time>2015-08-16T13:59:06Z</time>
      </trkpt>
      <trkpt lat="40.589983" lon="-4.939917">
        <ele>2025.0</ele>
        <time>2015-08-16T13:59:07Z</time>
      </trkpt>
      <trkpt lat="40.590083" lon="-4.939983">
        <ele>2026.0</ele>
        <time>2015-08-16T13:59:08Z</time>
      </trkpt>
      <trkpt lat="40.590183" lon="-4.940000">
        <ele>2026.0</ele>
        <time>2015-08-16T13:59:09Z</time>
      </trkpt>
      <trkpt lat="40.590283" lon="-4.939967">
        <ele>2026.0</ele>
        <time>2015-08-16T13:59:10Z</time>
      </trkpt>
      <trkpt lat="40.590367" lon="-4.939900">
        <ele>2027.0</ele>
        <time>2015-08-16T13:59:11Z</time>
      </trkpt>
      <trkpt lat="40.590433" lon="-4.939783">
        <ele>2028.0</ele>
        <time>2015-08-16T13:59:12Z</time>
      </trkpt>
      <trkpt lat="40.590467" lon="-4.939667">
        <ele>2029.0</ele>
        <time>2015-08-16T13:59:13Z</time>
      </trkpt>
      <trkpt lat="40.590483" lon="-4.939550">
        <ele>2030.0</ele>
        <time>2015-08-16T13:59:14Z</time>
      </trkpt>
      <trkpt lat="40.590467" lon="-4.939433">
        <ele>2030.0</ele>
        <time>2015-08-16T13:59:15Z</time>
      </trkpt>
      <trkpt lat="40.590450" lon="-4.939317">
        <ele>2030.0</ele>
        <time>2015-08-16T13:59:16Z</time>
      </trkpt>
      <trkpt lat="40.590400" lon="-4.939200">
        <ele>2030.0</ele>
        <time>2015-08-16T13:59:17Z</time>
      </trkpt>
      <trkpt lat="40.590333" lon="-4.939117">
        <ele>2030.0</ele>
        <time>2015-08-16T13:59:18Z</time>
      </trkpt>
      <trkpt lat="40.590250" lon="-4.939050">
        <ele>2031.0</ele>
        <time>2015-08-16T13:59:19Z</time>
      </trkpt>
      <trkpt lat="40.590150" lon="-4.939033">
        <ele>2032.0</ele>
        <time>2015-08-16T13:59:20Z</time>
      </trkpt>
      <trkpt lat="40.590050" lon="-4.939050">
        <ele>2033.0</ele>
        <time>2015-08-16T13:59:21Z</time>
      </trkpt>
      <trkpt lat="40.589967" lon="-4.939117">
        <ele>2034.0</ele>
        <time>2015-08-16T13:59:22Z</time>
      </trkpt>
      <trkpt lat="40.589900" lon="-4.939217">
        <ele>2035.0</ele>
        <time>2015-08-16T13:59:23Z</time>
      </trkpt>
      <trkpt lat="40.589850" lon="-4.939333">
        <ele>2036.0</ele>
        <time>2015-08-16T13:59:24Z</time>
      </trkpt>
      <trkpt lat="40.589817" lon="-4.939483">
        <ele>2036.0</ele>
        <time>2015-08-16T13:59:25Z</time>
      </trkpt>
      <trkpt lat="40.589833" lon="-4.939633">
        <ele>2038.0</ele>
        <time>2015-08-16T13:59:26Z</time>
      </trkpt>
      <trkpt lat="40.589883" lon="-4.939783">
        <ele>2039.0</ele>
        <time>2015-08-16T13:59:27Z</time>
      </trkpt>
      <trkpt lat="40.589950" lon="-4.939883">
        <ele>2040.0</ele>
        <time>2015-08-16T13:59:28Z</time>
      </trkpt>
      <trkpt lat="40.590050" lon="-4.939967">
        <ele>2041.0</ele>
        <time>2015-08-16T13:59:29Z</time>
      </trkpt>
      <trkpt lat="40.590167" lon="-4.940000">
        <ele>2041.0</ele>
        <time>2015-08-16T13:59:30Z</time>
      </trkpt>
      <trkpt lat="40.590267" lon="-4.939983">
        <ele>2043.0</ele>
        <time>2015-08-16T13:59:31Z</time>
      </trkpt>
      <trkpt lat="40.590350" lon="-4.939917">
        <ele>2044.0</ele>
        <time>2015-08-16T13:59:32Z</time>
      </trkpt>
      <trkpt lat="40.590417" lon="-4.939833">
        <ele>2045.0</ele>
        <time>2015-08-16T13:59:33Z</time>
      </trkpt>
      <trkpt lat="40.590467" lon="-4.939717">
        <ele>2045.0</ele>
        <time>2015-08-16T13:59:34Z</time>
      </trkpt>
      <trkpt lat="40.590467" lon="-4.939583">
        <ele>2044.0</ele>
        <time>2015-08-16T13:59:35Z</time>
      </trkpt>
      <trkpt lat="40.590450" lon="-4.939450">
        <ele>2044.0</ele>
        <time>2015-08-16T13:59:36Z</time>
      </trkpt>
      <trkpt lat="40.590400" lon="-4.939333">
        <ele>2044.0</ele>
        <time>2015-08-16T13:59:37Z</time>
      </trkpt>
      <trkpt lat="40.590317" lon="-4.939267">
        <ele>2044.0</ele>
        <time>2015-08-16T13:59:38Z</time>
      </trkpt>
      <trkpt lat="40.590200" lon="-4.939250">
        <ele>2044.0</ele>
        <time>2015-08-16T13:59:39Z</time>
      </trkpt>
      <trkpt lat="40.590100" lon="-4.939267">
        <ele>2044.0</ele>
        <time>2015-08-16T13:59:40Z</time>
      </trkpt>
      <trkpt lat="40.590000" lon="-4.939350">
        <ele>2044.0</ele>
        <time>2015-08-16T13:59:41Z</time>
      </trkpt>
      <trkpt lat="40.589933" lon="-4.939467">
        <ele>2046.0</ele>
        <time>2015-08-16T13:59:42Z</time>
      </trkpt>
      <trkpt lat="40.589883" lon="-4.939600">
        <ele>2048.0</ele>
        <time>2015-08-16T13:59:43Z</time>
      </trkpt>
      <trkpt lat="40.589867" lon="-4.939733">
        <ele>2049.0</ele>
        <time>2015-08-16T13:59:44Z</time>
      </trkpt>
      <trkpt lat="40.589900" lon="-4.939883">
        <ele>2049.0</ele>
        <time>2015-08-16T13:59:45Z</time>
      </trkpt>
      <trkpt lat="40.589950" lon="-4.940017">
        <ele>2050.0</ele>
        <time>2015-08-16T13:59:46Z</time>
      </trkpt>
      <trkpt lat="40.590017" lon="-4.940133">
        <ele>2052.0</ele>
        <time>2015-08-16T13:59:47Z</time>
      </trkpt>
      <trkpt lat="40.590117" lon="-4.940200">
        <ele>2053.0</ele>
        <time>2015-08-16T13:59:48Z</time>
      </trkpt>
      <trkpt lat="40.590217" lon="-4.940233">
        <ele>2054.0</ele>
        <time>2015-08-16T13:59:49Z</time>
      </trkpt>
      <trkpt lat="40.590300" lon="-4.940217">
        <ele>2055.0</ele>
        <time>2015-08-16T13:59:50Z</time>
      </trkpt>
      <trkpt lat="40.590400" lon="-4.940150">
        <ele>2055.0</ele>
        <time>2015-08-16T13:59:51Z</time>
      </trkpt>
      <trkpt lat="40.590467" lon="-4.940050">
        <ele>2055.0</ele>
        <time>2015-08-16T13:59:52Z</time>
      </trkpt>
      <trkpt lat="40.590500" lon="-4.939933">
        <ele>2055.0</ele>
        <time>2015-08-16T13:59:53Z</time>
      </trkpt>
      <trkpt lat="40.590500" lon="-4.939783">
        <ele>2055.0</ele>
        <time>2015-08-16T13:59:54Z</time>
      </trkpt>
      <trkpt lat="40.590450" lon="-4.939667">
        <ele>2055.0</ele>
        <time>2015-08-16T13:59:55Z</time>
      </trkpt>
      <trkpt lat="40.590383" lon="-4.939567">
        <ele>2057.0</ele>
        <time>2015-08-16T13:59:56Z</time>
      </trkpt>
      <trkpt lat="40.590300" lon="-4.939500">
        <ele>2058.0</ele>
        <time>2015-08-16T13:59:57Z</time>
      </trkpt>
      <trkpt lat="40.590200" lon="-4.939483">
        <ele>2059.0</ele>
        <time>2015-08-16T13:59:58Z</time>
      </trkpt>
      <trkpt lat="40.590100" lon="-4.939517">
        <ele>2061.0</ele>
        <time>2015-08-16T13:59:59Z</time>
      </trkpt>
      <trkpt lat="40.590017" lon="-4.939617">
        <ele>2061.0</ele>
        <time>2015-08-16T14:00:00Z</time>
      </trkpt>
      <trkpt lat="40.589950" lon="-4.939733">
        <ele>2062.0</ele>
        <time>2015-08-16T14:00:01Z</time>
      </trkpt>
      <trkpt lat="40.589917" lon="-4.939867">
        <ele>2063.0</ele>
        <time>2015-08-16T14:00:02Z</time>
      </trkpt>
      <trkpt lat="40.589933" lon="-4.940017">
        <ele>2064.0</ele>
        <time>2015-08-16T14:00:03Z</time>
      </trkpt>
      <trkpt lat="40.589983" lon="-4.940167">
        <ele>2064.0</ele>
        <time>2015-08-16T14:00:04Z</time>
      </trkpt>
      <trkpt lat="40.590067" lon="-4.940267">
        <ele>2065.0</ele>
        <time>2015-08-16T14:00:05Z</time>
      </trkpt>
      <trkpt lat="40.590150" lon="-4.940333">
        <ele>2067.0</ele>
        <time>2015-08-16T14:00:06Z</time>
      </trkpt>
      <trkpt lat="40.590250" lon="-4.940350">
        <ele>2068.0</ele>
        <time>2015-08-16T14:00:07Z</time>
      </trkpt>
      <trkpt lat="40.590350" lon="-4.940333">
        <ele>2070.0</ele>
        <time>2015-08-16T14:00:08Z</time>
      </trkpt>
      <trkpt lat="40.590417" lon="-4.940283">
        <ele>2071.0</ele>
        <time>2015-08-16T14:00:09Z</time>
      </trkpt>
      <trkpt lat="40.590483" lon="-4.940183">
        <ele>2071.0</ele>
        <time>2015-08-16T14:00:10Z</time>
      </trkpt>
      <trkpt lat="40.590517" lon="-4.940067">
        <ele>2071.0</ele>
        <time>2015-08-16T14:00:11Z</time>
      </trkpt>
      <trkpt lat="40.590500" lon="-4.939933">
        <ele>2071.0</ele>
        <time>2015-08-16T14:00:12Z</time>
      </trkpt>
      <trkpt lat="40.590450" lon="-4.939817">
        <ele>2071.0</ele>
        <time>2015-08-16T14:00:13Z</time>
      </trkpt>
      <trkpt lat="40.590367" lon="-4.939717">
        <ele>2071.0</ele>
        <time>2015-08-16T14:00:14Z</time>
      </trkpt>
      <trkpt lat="40.590267" lon="-4.939650">
        <ele>2073.0</ele>
        <time>2015-08-16T14:00:15Z</time>
      </trkpt>
      <trkpt lat="40.590167" lon="-4.939633">
        <ele>2076.0</ele>
        <time>2015-08-16T14:00:16Z</time>
      </trkpt>
      <trkpt lat="40.590083" lon="-4.939633">
        <ele>2079.0</ele>
        <time>2015-08-16T14:00:17Z</time>
      </trkpt>
      <trkpt lat="40.589983" lon="-4.939667">
        <ele>2080.0</ele>
        <time>2015-08-16T14:00:18Z</time>
      </trkpt>
      <trkpt lat="40.589900" lon="-4.939733">
        <ele>2081.0</ele>
        <time>2015-08-16T14:00:19Z</time>
      </trkpt>
      <trkpt lat="40.589833" lon="-4.939850">
        <ele>2081.0</ele>
        <time>2015-08-16T14:00:20Z</time>
      </trkpt>
      <trkpt lat="40.589783" lon="-4.939983">
        <ele>2081.0</ele>
        <time>2015-08-16T14:00:21Z</time>
      </trkpt>
      <trkpt lat="40.589767" lon="-4.940133">
        <ele>2082.0</ele>
        <time>2015-08-16T14:00:22Z</time>
      </trkpt>
      <trkpt lat="40.589783" lon="-4.940283">
        <ele>2084.0</ele>
        <time>2015-08-16T14:00:23Z</time>
      </trkpt>
      <trkpt lat="40.589833" lon="-4.940400">
        <ele>2085.0</ele>
        <time>2015-08-16T14:00:24Z</time>
      </trkpt>
      <trkpt lat="40.589900" lon="-4.940517">
        <ele>2087.0</ele>
        <time>2015-08-16T14:00:25Z</time>
      </trkpt>
      <trkpt lat="40.589967" lon="-4.940583">
        <ele>2088.0</ele>
        <time>2015-08-16T14:00:26Z</time>
      </trkpt>
      <trkpt lat="40.590067" lon="-4.940617">
        <ele>2089.0</ele>
        <time>2015-08-16T14:00:27Z</time>
      </trkpt>
      <trkpt lat="40.590150" lon="-4.940617">
        <ele>2090.0</ele>
        <time>2015-08-16T14:00:28Z</time>
      </trkpt>
      <trkpt lat="40.590233" lon="-4.940550">
        <ele>2090.0</ele>
        <time>2015-08-16T14:00:29Z</time>
      </trkpt>
      <trkpt lat="40.590300" lon="-4.940467">
        <ele>2090.0</ele>
        <time>2015-08-16T14:00:30Z</time>
      </trkpt>
      <trkpt lat="40.590317" lon="-4.940350">
        <ele>2091.0</ele>
        <time>2015-08-16T14:00:31Z</time>
      </trkpt>
      <trkpt lat="40.590317" lon="-4.940217">
        <ele>2092.0</ele>
        <time>2015-08-16T14:00:32Z</time>
      </trkpt>
      <trkpt lat="40.590283" lon="-4.940100">
        <ele>2094.0</ele>
        <time>2015-08-16T14:00:33Z</time>
      </trkpt>
      <trkpt lat="40.590250" lon="-4.940000">
        <ele>2095.0</ele>
        <time>2015-08-16T14:00:34Z</time>
      </trkpt>
      <trkpt lat="40.590183" lon="-4.939900">
        <ele>2096.0</ele>
        <time>2015-08-16T14:00:35Z</time>
      </trkpt>
      <trkpt lat="40.590133" lon="-4.939800">
        <ele>2098.0</ele>
        <time>2015-08-16T14:00:36Z</time>
      </trkpt>
      <trkpt lat="40.590050" lon="-4.939717">
        <ele>2099.0</ele>
        <time>2015-08-16T14:00:37Z</time>
      </trkpt>
      <trkpt lat="40.589983" lon="-4.939667">
        <ele>2101.0</ele>
        <time>2015-08-16T14:00:38Z</time>
      </trkpt>
      <trkpt lat="40.589883" lon="-4.939633">
        <ele>2103.0</ele>
        <time>2015-08-16T14:00:39Z</time>
      </trkpt>
      <trkpt lat="40.589783" lon="-4.939633">
        <ele>2104.0</ele>
        <time>2015-08-16T14:00:40Z</time>
      </trkpt>
      <trkpt lat="40.589683" lon="-4.939617">
        <ele>2106.0</ele>
        <time>2015-08-16T14:00:41Z</time>
      </trkpt>
      <trkpt lat="40.589583" lon="-4.939600">
        <ele>2107.0</ele>
        <time>2015-08-16T14:00:42Z</time>
      </trkpt>
      <trkpt lat="40.589483" lon="-4.939600">
        <ele>2108.0</ele>
        <time>2015-08-16T14:00:43Z</time>
      </trkpt>
      <trkpt lat="40.589383" lon="-4.939633">
        <ele>2108.0</ele>
        <time>2015-08-16T14:00:44Z</time>
      </trkpt>
      <trkpt lat="40.589283" lon="-4.939717">
        <ele>2108.0</ele>
        <time>2015-08-16T14:00:45Z</time>
      </trkpt>
      <trkpt lat="40.589200" lon="-4.939833">
        <ele>2108.0</ele>
        <time>2015-08-16T14:00:46Z</time>
      </trkpt>
      <trkpt lat="40.589150" lon="-4.939983">
        <ele>2109.0</ele>
        <time>2015-08-16T14:00:47Z</time>
      </trkpt>
      <trkpt lat="40.589117" lon="-4.940133">
        <ele>2110.0</ele>
        <time>2015-08-16T14:00:48Z</time>
      </trkpt>
      <trkpt lat="40.589117" lon="-4.940267">
        <ele>2112.0</ele>
        <time>2015-08-16T14:00:49Z</time>
      </trkpt>
      <trkpt lat="40.589133" lon="-4.940417">
        <ele>2114.0</ele>
        <time>2015-08-16T14:00:50Z</time>
      </trkpt>
      <trkpt lat="40.589183" lon="-4.940533">
        <ele>2116.0</ele>
        <time>2015-08-16T14:00:51Z</time>
      </trkpt>
      <trkpt lat="40.589233" lon="-4.940650">
        <ele>2118.0</ele>
        <time>2015-08-16T14:00:52Z</time>
      </trkpt>
      <trkpt lat="40.589317" lon="-4.940733">
        <ele>2119.0</ele>
        <time>2015-08-16T14:00:53Z</time>
      </trkpt>
      <trkpt lat="40.589400" lon="-4.940767">
        <ele>2120.0</ele>
        <time>2015-08-16T14:00:54Z</time>
      </trkpt>
      <trkpt lat="40.589500" lon="-4.940767">
        <ele>2121.0</ele>
        <time>2015-08-16T14:00:55Z</time>
      </trkpt>
      <trkpt lat="40.589600" lon="-4.940717">
        <ele>2122.0</ele>
        <time>2015-08-16T14:00:56Z</time>
      </trkpt>
      <trkpt lat="40.589650" lon="-4.940633">
        <ele>2124.0</ele>
        <time>2015-08-16T14:00:57Z</time>
      </trkpt>
      <trkpt lat="40.589683" lon="-4.940533">
        <ele>2126.0</ele>
        <time>2015-08-16T14:00:58Z</time>
      </trkpt>
      <trkpt lat="40.589683" lon="-4.940417">
        <ele>2127.0</ele>
        <time>2015-08-16T14:00:59Z</time>
      </trkpt>
      <trkpt lat="40.589633" lon="-4.940333">
        <ele>2128.0</ele>
        <time>2015-08-16T14:01:00Z</time>
      </trkpt>
      <trkpt lat="40.589550" lon="-4.940267">
        <ele>2127.0</ele>
        <time>2015-08-16T14:01:01Z</time>
      </trkpt>
      <trkpt lat="40.589450" lon="-4.940233">
        <ele>2126.0</ele>
        <time>2015-08-16T14:01:02Z</time>
      </trkpt>
      <trkpt lat="40.589333" lon="-4.940233">
        <ele>2127.0</ele>
        <time>2015-08-16T14:01:03Z</time>
      </trkpt>
      <trkpt lat="40.589217" lon="-4.940283">
        <ele>2128.0</ele>
        <time>2015-08-16T14:01:04Z</time>
      </trkpt>
      <trkpt lat="40.589117" lon="-4.940400">
        <ele>2130.0</ele>
        <time>2015-08-16T14:01:05Z</time>
      </trkpt>
      <trkpt lat="40.589067" lon="-4.940533">
        <ele>2132.0</ele>
        <time>2015-08-16T14:01:06Z</time>
      </trkpt>
      <trkpt lat="40.589050" lon="-4.940667">
        <ele>2135.0</ele>
        <time>2015-08-16T14:01:07Z</time>
      </trkpt>
      <trkpt lat="40.589067" lon="-4.940783">
        <ele>2137.0</ele>
        <time>2015-08-16T14:01:08Z</time>
      </trkpt>
      <trkpt lat="40.589117" lon="-4.940883">
        <ele>2138.0</ele>
        <time>2015-08-16T14:01:09Z</time>
      </trkpt>
      <trkpt lat="40.589200" lon="-4.940967">
        <ele>2138.0</ele>
        <time>2015-08-16T14:01:10Z</time>
      </trkpt>
      <trkpt lat="40.589283" lon="-4.941033">
        <ele>2138.0</ele>
        <time>2015-08-16T14:01:11Z</time>
      </trkpt>
      <trkpt lat="40.589367" lon="-4.941083">
        <ele>2139.0</ele>
        <time>2015-08-16T14:01:12Z</time>
      </trkpt>
      <trkpt lat="40.589467" lon="-4.941083">
        <ele>2141.0</ele>
        <time>2015-08-16T14:01:13Z</time>
      </trkpt>
      <trkpt lat="40.589550" lon="-4.941067">
        <ele>2142.0</ele>
        <time>2015-08-16T14:01:14Z</time>
      </trkpt>
      <trkpt lat="40.589617" lon="-4.941017">
        <ele>2142.0</ele>
        <time>2015-08-16T14:01:15Z</time>
      </trkpt>
      <trkpt lat="40.589683" lon="-4.940933">
        <ele>2143.0</ele>
        <time>2015-08-16T14:01:16Z</time>
      </trkpt>
      <trkpt lat="40.589733" lon="-4.940833">
        <ele>2144.0</ele>
        <time>2015-08-16T14:01:17Z</time>
      </trkpt>
      <trkpt lat="40.589750" lon="-4.940733">
        <ele>2145.0</ele>
        <time>2015-08-16T14:01:18Z</time>
      </trkpt>
      <trkpt lat="40.589750" lon="-4.940617">
        <ele>2145.0</ele>
        <time>2015-08-16T14:01:19Z</time>
      </trkpt>
      <trkpt lat="40.589717" lon="-4.940517">
        <ele>2146.0</ele>
        <time>2015-08-16T14:01:20Z</time>
      </trkpt>
      <trkpt lat="40.589650" lon="-4.940433">
        <ele>2146.0</ele>
        <time>2015-08-16T14:01:21Z</time>
      </trkpt>
      <trkpt lat="40.589567" lon="-4.940383">
        <ele>2147.0</ele>
        <time>2015-08-16T14:01:22Z</time>
      </trkpt>
      <trkpt lat="40.589467" lon="-4.940350">
        <ele>2148.0</ele>
        <time>2015-08-16T14:01:23Z</time>
      </trkpt>
      <trkpt lat="40.589367" lon="-4.940350">
        <ele>2148.0</ele>
        <time>2015-08-16T14:01:24Z</time>
      </trkpt>
      <trkpt lat="40.589267" lon="-4.940400">
        <ele>2149.0</ele>
        <time>2015-08-16T14:01:25Z</time>
      </trkpt>
      <trkpt lat="40.589183" lon="-4.940483">
        <ele>2151.0</ele>
        <time>2015-08-16T14:01:26Z</time>
      </trkpt>
      <trkpt lat="40.589117" lon="-4.940600">
        <ele>2153.0</ele>
        <time>2015-08-16T14:01:27Z</time>
      </trkpt>
      <trkpt lat="40.589083" lon="-4.940717">
        <ele>2155.0</ele>
        <time>2015-08-16T14:01:28Z</time>
      </trkpt>
      <trkpt lat="40.589083" lon="-4.940833">
        <ele>2156.0</ele>
        <time>2015-08-16T14:01:29Z</time>
      </trkpt>
      <trkpt lat="40.589117" lon="-4.940933">
        <ele>2157.0</ele>
        <time>2015-08-16T14:01:30Z</time>
      </trkpt>
      <trkpt lat="40.589150" lon="-4.941033">
        <ele>2157.0</ele>
        <time>2015-08-16T14:01:31Z</time>
      </trkpt>
      <trkpt lat="40.589217" lon="-4.941117">
        <ele>2158.0</ele>
        <time>2015-08-16T14:01:32Z</time>
      </trkpt>
      <trkpt lat="40.589300" lon="-4.941167">
        <ele>2158.0</ele>
        <time>2015-08-16T14:01:33Z</time>
      </trkpt>
      <trkpt lat="40.589383" lon="-4.941167">
        <ele>2157.0</ele>
        <time>2015-08-16T14:01:34Z</time>
      </trkpt>
      <trkpt lat="40.589483" lon="-4.941117">
        <ele>2157.0</ele>
        <time>2015-08-16T14:01:35Z</time>
      </trkpt>
      <trkpt lat="40.589567" lon="-4.941050">
        <ele>2158.0</ele>
        <time>2015-08-16T14:01:36Z</time>
      </trkpt>
      <trkpt lat="40.589633" lon="-4.940967">
        <ele>2159.0</ele>
        <time>2015-08-16T14:01:37Z</time>
      </trkpt>
      <trkpt lat="40.589667" lon="-4.940883">
        <ele>2160.0</ele>
        <time>2015-08-16T14:01:38Z</time>
      </trkpt>
      <trkpt lat="40.589683" lon="-4.940783">
        <ele>2161.0</ele>
        <time>2015-08-16T14:01:39Z</time>
      </trkpt>
      <trkpt lat="40.589700" lon="-4.940683">
        <ele>2161.0</ele>
        <time>2015-08-16T14:01:40Z</time>
      </trkpt>
      <trkpt lat="40.589667" lon="-4.940583">
        <ele>2161.0</ele>
        <time>2015-08-16T14:01:41Z</time>
      </trkpt>
      <trkpt lat="40.589633" lon="-4.940483">
        <ele>2160.0</ele>
        <time>2015-08-16T14:01:42Z</time>
      </trkpt>
      <trkpt lat="40.589567" lon="-4.940400">
        <ele>2159.0</ele>
        <time>2015-08-16T14:01:43Z</time>
      </trkpt>
      <trkpt lat="40.589483" lon="-4.940333">
        <ele>2158.0</ele>
        <time>2015-08-16T14:01:44Z</time>
      </trkpt>
      <trkpt lat="40.589367" lon="-4.940317">
        <ele>2158.0</ele>
        <time>2015-08-16T14:01:45Z</time>
      </trkpt>
      <trkpt lat="40.589267" lon="-4.940333">
        <ele>2158.0</ele>
        <time>2015-08-16T14:01:46Z</time>
      </trkpt>
      <trkpt lat="40.589167" lon="-4.940400">
        <ele>2159.0</ele>
        <time>2015-08-16T14:01:47Z</time>
      </trkpt>
      <trkpt lat="40.589100" lon="-4.940500">
        <ele>2161.0</ele>
        <time>2015-08-16T14:01:48Z</time>
      </trkpt>
      <trkpt lat="40.589067" lon="-4.940617">
        <ele>2162.0</ele>
        <time>2015-08-16T14:01:49Z</time>
      </trkpt>
      <trkpt lat="40.589067" lon="-4.940733">
        <ele>2163.0</ele>
        <time>2015-08-16T14:01:50Z</time>
      </trkpt>
      <trkpt lat="40.589083" lon="-4.940833">
        <ele>2163.0</ele>
        <time>2015-08-16T14:01:51Z</time>
      </trkpt>
      <trkpt lat="40.589133" lon="-4.940933">
        <ele>2164.0</ele>
        <time>2015-08-16T14:01:52Z</time>
      </trkpt>
      <trkpt lat="40.589200" lon="-4.941000">
        <ele>2164.0</ele>
        <time>2015-08-16T14:01:53Z</time>
      </trkpt>
      <trkpt lat="40.589283" lon="-4.941050">
        <ele>2164.0</ele>
        <time>2015-08-16T14:01:54Z</time>
      </trkpt>
      <trkpt lat="40.589383" lon="-4.941067">
        <ele>2163.0</ele>
        <time>2015-08-16T14:01:55Z</time>
      </trkpt>
      <trkpt lat="40.589483" lon="-4.941050">
        <ele>2163.0</ele>
        <time>2015-08-16T14:01:56Z</time>
      </trkpt>
      <trkpt lat="40.589567" lon="-4.941017">
        <ele>2164.0</ele>
        <time>2015-08-16T14:01:57Z</time>
      </trkpt>
      <trkpt lat="40.589650" lon="-4.940967">
        <ele>2166.0</ele>
        <time>2015-08-16T14:01:58Z</time>
      </trkpt>
      <trkpt lat="40.589717" lon="-4.940917">
        <ele>2166.0</ele>
        <time>2015-08-16T14:01:59Z</time>
      </trkpt>
      <trkpt lat="40.589767" lon="-4.940833">
        <ele>2166.0</ele>
        <time>2015-08-16T14:02:00Z</time>
      </trkpt>
      <trkpt lat="40.589783" lon="-4.940733">
        <ele>2165.0</ele>
        <time>2015-08-16T14:02:01Z</time>
      </trkpt>
      <trkpt lat="40.589800" lon="-4.940633">
        <ele>2163.0</ele>
        <time>2015-08-16T14:02:02Z</time>
      </trkpt>
      <trkpt lat="40.589783" lon="-4.940500">
        <ele>2162.0</ele>
        <time>2015-08-16T14:02:03Z</time>
      </trkpt>
      <trkpt lat="40.589750" lon="-4.940383">
        <ele>2161.0</ele>
        <time>2015-08-16T14:02:04Z</time>
      </trkpt>
      <trkpt lat="40.589717" lon="-4.940250">
        <ele>2162.0</ele>
        <time>2015-08-16T14:02:05Z</time>
      </trkpt>
      <trkpt lat="40.589667" lon="-4.940150">
        <ele>2162.0</ele>
        <time>2015-08-16T14:02:06Z</time>
      </trkpt>
      <trkpt lat="40.589617" lon="-4.940050">
        <ele>2163.0</ele>
        <time>2015-08-16T14:02:07Z</time>
      </trkpt>
      <trkpt lat="40.589550" lon="-4.939967">
        <ele>2163.0</ele>
        <time>2015-08-16T14:02:08Z</time>
      </trkpt>
      <trkpt lat="40.589467" lon="-4.939883">
        <ele>2164.0</ele>
        <time>2015-08-16T14:02:09Z</time>
      </trkpt>
      <trkpt lat="40.589367" lon="-4.939817">
        <ele>2164.0</ele>
        <time>2015-08-16T14:02:10Z</time>
      </trkpt>
      <trkpt lat="40.589283" lon="-4.939767">
        <ele>2165.0</ele>
        <time>2015-08-16T14:02:11Z</time>
      </trkpt>
      <trkpt lat="40.589183" lon="-4.939733">
        <ele>2165.0</ele>
        <time>2015-08-16T14:02:12Z</time>
      </trkpt>
      <trkpt lat="40.589067" lon="-4.939717">
        <ele>2167.0</ele>
        <time>2015-08-16T14:02:13Z</time>
      </trkpt>
      <trkpt lat="40.588967" lon="-4.939683">
        <ele>2168.0</ele>
        <time>2015-08-16T14:02:14Z</time>
      </trkpt>
      <trkpt lat="40.588867" lon="-4.939633">
        <ele>2170.0</ele>
        <time>2015-08-16T14:02:15Z</time>
      </trkpt>
      <trkpt lat="40.588767" lon="-4.939550">
        <ele>2172.0</ele>
        <time>2015-08-16T14:02:16Z</time>
      </trkpt>
      <trkpt lat="40.588683" lon="-4.939467">
        <ele>2174.0</ele>
        <time>2015-08-16T14:02:17Z</time>
      </trkpt>
      <trkpt lat="40.588600" lon="-4.939400">
        <ele>2176.0</ele>
        <time>2015-08-16T14:02:18Z</time>
      </trkpt>
      <trkpt lat="40.588500" lon="-4.939333">
        <ele>2177.0</ele>
        <time>2015-08-16T14:02:19Z</time>
      </trkpt>
      <trkpt lat="40.588400" lon="-4.939283">
        <ele>2178.0</ele>
        <time>2015-08-16T14:02:20Z</time>
      </trkpt>
      <trkpt lat="40.588300" lon="-4.939217">
        <ele>2179.0</ele>
        <time>2015-08-16T14:02:21Z</time>
      </trkpt>
      <trkpt lat="40.588217" lon="-4.939117">
        <ele>2180.0</ele>
        <time>2015-08-16T14:02:22Z</time>
      </trkpt>
      <trkpt lat="40.588167" lon="-4.939000">
        <ele>2181.0</ele>
        <time>2015-08-16T14:02:23Z</time>
      </trkpt>
      <trkpt lat="40.588150" lon="-4.938850">
        <ele>2181.0</ele>
        <time>2015-08-16T14:02:24Z</time>
      </trkpt>
      <trkpt lat="40.588167" lon="-4.938700">
        <ele>2181.0</ele>
        <time>2015-08-16T14:02:25Z</time>
      </trkpt>
      <trkpt lat="40.588217" lon="-4.938567">
        <ele>2181.0</ele>
        <time>2015-08-16T14:02:26Z</time>
      </trkpt>
      <trkpt lat="40.588283" lon="-4.938467">
        <ele>2181.0</ele>
        <time>2015-08-16T14:02:27Z</time>
      </trkpt>
      <trkpt lat="40.588383" lon="-4.938400">
        <ele>2182.0</ele>
        <time>2015-08-16T14:02:28Z</time>
      </trkpt>
      <trkpt lat="40.588500" lon="-4.938400">
        <ele>2182.0</ele>
        <time>2015-08-16T14:02:29Z</time>
      </trkpt>
      <trkpt lat="40.588583" lon="-4.938467">
        <ele>2182.0</ele>
        <time>2015-08-16T14:02:30Z</time>
      </trkpt>
      <trkpt lat="40.588650" lon="-4.938567">
        <ele>2184.0</ele>
        <time>2015-08-16T14:02:31Z</time>
      </trkpt>
      <trkpt lat="40.588683" lon="-4.938683">
        <ele>2185.0</ele>
        <time>2015-08-16T14:02:32Z</time>
      </trkpt>
      <trkpt lat="40.588667" lon="-4.938800">
        <ele>2187.0</ele>
        <time>2015-08-16T14:02:33Z</time>
      </trkpt>
      <trkpt lat="40.588617" lon="-4.938900">
        <ele>2189.0</ele>
        <time>2015-08-16T14:02:34Z</time>
      </trkpt>
      <trkpt lat="40.588533" lon="-4.938967">
        <ele>2189.0</ele>
        <time>2015-08-16T14:02:35Z</time>
      </trkpt>
      <trkpt lat="40.588433" lon="-4.939000">
        <ele>2191.0</ele>
        <time>2015-08-16T14:02:36Z</time>
      </trkpt>
      <trkpt lat="40.588333" lon="-4.938983">
        <ele>2192.0</ele>
        <time>2015-08-16T14:02:37Z</time>
      </trkpt>
      <trkpt lat="40.588233" lon="-4.938933">
        <ele>2193.0</ele>
        <time>2015-08-16T14:02:38Z</time>
      </trkpt>
      <trkpt lat="40.588150" lon="-4.938850">
        <ele>2194.0</ele>
        <time>2015-08-16T14:02:39Z</time>
      </trkpt>
      <trkpt lat="40.588067" lon="-4.938733">
        <ele>2194.0</ele>
        <time>2015-08-16T14:02:40Z</time>
      </trkpt>
      <trkpt lat="40.588033" lon="-4.938600">
        <ele>2195.0</ele>
        <time>2015-08-16T14:02:41Z</time>
      </trkpt>
      <trkpt lat="40.588033" lon="-4.938450">
        <ele>2196.0</ele>
        <time>2015-08-16T14:02:42Z</time>
      </trkpt>
      <trkpt lat="40.588067" lon="-4.938300">
        <ele>2197.0</ele>
        <time>2015-08-16T14:02:43Z</time>
      </trkpt>
      <trkpt lat="40.588133" lon="-4.938183">
        <ele>2197.0</ele>
        <time>2015-08-16T14:02:44Z</time>
      </trkpt>
      <trkpt lat="40.588217" lon="-4.938100">
        <ele>2198.0</ele>
        <time>2015-08-16T14:02:45Z</time>
      </trkpt>
      <trkpt lat="40.588333" lon="-4.938067">
        <ele>2199.0</ele>
        <time>2015-08-16T14:02:46Z</time>
      </trkpt>
      <trkpt lat="40.588433" lon="-4.938083">
        <ele>2200.0</ele>
        <time>2015-08-16T14:02:47Z</time>
      </trkpt>
      <trkpt lat="40.588500" lon="-4.938150">
        <ele>2201.0</ele>
        <time>2015-08-16T14:02:48Z</time>
      </trkpt>
      <trkpt lat="40.588533" lon="-4.938250">
        <ele>2203.0</ele>
        <time>2015-08-16T14:02:49Z</time>
      </trkpt>
      <trkpt lat="40.588550" lon="-4.938367">
        <ele>2204.0</ele>
        <time>2015-08-16T14:02:50Z</time>
      </trkpt>
      <trkpt lat="40.588533" lon="-4.938467">
        <ele>2204.0</ele>
        <time>2015-08-16T14:02:51Z</time>
      </trkpt>
      <trkpt lat="40.588483" lon="-4.938567">
        <ele>2205.0</ele>
        <time>2015-08-16T14:02:52Z</time>
      </trkpt>
      <trkpt lat="40.588400" lon="-4.938633">
        <ele>2205.0</ele>
        <time>2015-08-16T14:02:53Z</time>
      </trkpt>
      <trkpt lat="40.588300" lon="-4.938667">
        <ele>2206.0</ele>
        <time>2015-08-16T14:02:54Z</time>
      </trkpt>
      <trkpt lat="40.588183" lon="-4.938650">
        <ele>2207.0</ele>
        <time>2015-08-16T14:02:55Z</time>
      </trkpt>
      <trkpt lat="40.588083" lon="-4.938600">
        <ele>2209.0</ele>
        <time>2015-08-16T14:02:56Z</time>
      </trkpt>
      <trkpt lat="40.588000" lon="-4.938533">
        <ele>2210.0</ele>
        <time>2015-08-16T14:02:57Z</time>
      </trkpt>
      <trkpt lat="40.587933" lon="-4.938417">
        <ele>2212.0</ele>
        <time>2015-08-16T14:02:58Z</time>
      </trkpt>
      <trkpt lat="40.587900" lon="-4.938300">
        <ele>2213.0</ele>
        <time>2015-08-16T14:02:59Z</time>
      </trkpt>
      <trkpt lat="40.587900" lon="-4.938167">
        <ele>2214.0</ele>
        <time>2015-08-16T14:03:00Z</time>
      </trkpt>
      <trkpt lat="40.587917" lon="-4.938033">
        <ele>2215.0</ele>
        <time>2015-08-16T14:03:01Z</time>
      </trkpt>
      <trkpt lat="40.587967" lon="-4.937900">
        <ele>2216.0</ele>
        <time>2015-08-16T14:03:02Z</time>
      </trkpt>
      <trkpt lat="40.588033" lon="-4.937783">
        <ele>2216.0</ele>
        <time>2015-08-16T14:03:03Z</time>
      </trkpt>
      <trkpt lat="40.588117" lon="-4.937700">
        <ele>2217.0</ele>
        <time>2015-08-16T14:03:04Z</time>
      </trkpt>
      <trkpt lat="40.588217" lon="-4.937650">
        <ele>2217.0</ele>
        <time>2015-08-16T14:03:05Z</time>
      </trkpt>
      <trkpt lat="40.588317" lon="-4.937667">
        <ele>2218.0</ele>
        <time>2015-08-16T14:03:06Z</time>
      </trkpt>
      <trkpt lat="40.588417" lon="-4.937700">
        <ele>2220.0</ele>
        <time>2015-08-16T14:03:07Z</time>
      </trkpt>
      <trkpt lat="40.588467" lon="-4.937783">
        <ele>2222.0</ele>
        <time>2015-08-16T14:03:08Z</time>
      </trkpt>
      <trkpt lat="40.588517" lon="-4.937883">
        <ele>2224.0</ele>
        <time>2015-08-16T14:03:09Z</time>
      </trkpt>
      <trkpt lat="40.588517" lon="-4.937983">
        <ele>2224.0</ele>
        <time>2015-08-16T14:03:10Z</time>
      </trkpt>
      <trkpt lat="40.588483" lon="-4.938100">
        <ele>2225.0</ele>
        <time>2015-08-16T14:03:11Z</time>
      </trkpt>
      <trkpt lat="40.588450" lon="-4.938200">
        <ele>2226.0</ele>
        <time>2015-08-16T14:03:12Z</time>
      </trkpt>
      <trkpt lat="40.588400" lon="-4.938283">
        <ele>2227.0</ele>
        <time>2015-08-16T14:03:13Z</time>
      </trkpt>
      <trkpt lat="40.588317" lon="-4.938333">
        <ele>2228.0</ele>
        <time>2015-08-16T14:03:14Z</time>
      </trkpt>
      <trkpt lat="40.588217" lon="-4.938367">
        <ele>2228.0</ele>
        <time>2015-08-16T14:03:15Z</time>
      </trkpt>
      <trkpt lat="40.588117" lon="-4.938367">
        <ele>2228.0</ele>
        <time>2015-08-16T14:03:16Z</time>
      </trkpt>
      <trkpt lat="40.588017" lon="-4.938317">
        <ele>2229.0</ele>
        <time>2015-08-16T14:03:17Z</time>
      </trkpt>
      <trkpt lat="40.587917" lon="-4.938250">
        <ele>2230.0</ele>
        <time>2015-08-16T14:03:18Z</time>
      </trkpt>
      <trkpt lat="40.587833" lon="-4.938150">
        <ele>2232.0</ele>
        <time>2015-08-16T14:03:19Z</time>
      </trkpt>
      <trkpt lat="40.587800" lon="-4.938017">
        <ele>2233.0</ele>
        <time>2015-08-16T14:03:20Z</time>
      </trkpt>
      <trkpt lat="40.587767" lon="-4.937883">
        <ele>2235.0</ele>
        <time>2015-08-16T14:03:21Z</time>
      </trkpt>
      <trkpt lat="40.587733" lon="-4.937750">
        <ele>2237.0</ele>
        <time>2015-08-16T14:03:22Z</time>
      </trkpt>
      <trkpt lat="40.587717" lon="-4.937633">
        <ele>2238.0</ele>
        <time>2015-08-16T14:03:23Z</time>
      </trkpt>
      <trkpt lat="40.587683" lon="-4.937517">
        <ele>2239.0</ele>
        <time>2015-08-16T14:03:24Z</time>
      </trkpt>
      <trkpt lat="40.587650" lon="-4.937400">
        <ele>2239.0</ele>
        <time>2015-08-16T14:03:25Z</time>
      </trkpt>
      <trkpt lat="40.587633" lon="-4.937267">
        <ele>2239.0</ele>
        <time>2015-08-16T14:03:26Z</time>
      </trkpt>
      <trkpt lat="40.587650" lon="-4.937133">
        <ele>2238.0</ele>
        <time>2015-08-16T14:03:27Z</time>
      </trkpt>
      <trkpt lat="40.587700" lon="-4.936983">
        <ele>2237.0</ele>
        <time>2015-08-16T14:03:28Z</time>
      </trkpt>
      <trkpt lat="40.587767" lon="-4.936883">
        <ele>2236.0</ele>
        <time>2015-08-16T14:03:29Z</time>
      </trkpt>
      <trkpt lat="40.587833" lon="-4.936783">
        <ele>2237.0</ele>
        <time>2015-08-16T14:03:30Z</time>
      </trkpt>
      <trkpt lat="40.587933" lon="-4.936733">
        <ele>2238.0</ele>
        <time>2015-08-16T14:03:31Z</time>
      </trkpt>
      <trkpt lat="40.588017" lon="-4.936733">
        <ele>2238.0</ele>
        <time>2015-08-16T14:03:32Z</time>
      </trkpt>
      <trkpt lat="40.588117" lon="-4.936750">
        <ele>2239.0</ele>
        <time>2015-08-16T14:03:33Z</time>
      </trkpt>
      <trkpt lat="40.588200" lon="-4.936800">
        <ele>2239.0</ele>
        <time>2015-08-16T14:03:34Z</time>
      </trkpt>
      <trkpt lat="40.588250" lon="-4.936867">
        <ele>2240.0</ele>
        <time>2015-08-16T14:03:35Z</time>
      </trkpt>
      <trkpt lat="40.588283" lon="-4.936983">
        <ele>2241.0</ele>
        <time>2015-08-16T14:03:36Z</time>
      </trkpt>
      <trkpt lat="40.588300" lon="-4.937100">
        <ele>2241.0</ele>
        <time>2015-08-16T14:03:37Z</time>
      </trkpt>
      <trkpt lat="40.588267" lon="-4.937217">
        <ele>2242.0</ele>
        <time>2015-08-16T14:03:38Z</time>
      </trkpt>
      <trkpt lat="40.588217" lon="-4.937317">
        <ele>2243.0</ele>
        <time>2015-08-16T14:03:39Z</time>
      </trkpt>
      <trkpt lat="40.588167" lon="-4.937400">
        <ele>2245.0</ele>
        <time>2015-08-16T14:03:40Z</time>
      </trkpt>
      <trkpt lat="40.588083" lon="-4.937450">
        <ele>2246.0</ele>
        <time>2015-08-16T14:03:41Z</time>
      </trkpt>
      <trkpt lat="40.588000" lon="-4.937483">
        <ele>2246.0</ele>
        <time>2015-08-16T14:03:42Z</time>
      </trkpt>
      <trkpt lat="40.587917" lon="-4.937533">
        <ele>2246.0</ele>
        <time>2015-08-16T14:03:43Z</time>
      </trkpt>
      <trkpt lat="40.587833" lon="-4.937567">
        <ele>2247.0</ele>
        <time>2015-08-16T14:03:44Z</time>
      </trkpt>
      <trkpt lat="40.587733" lon="-4.937583">
        <ele>2247.0</ele>
        <time>2015-08-16T14:03:45Z</time>
      </trkpt>
      <trkpt lat="40.587617" lon="-4.937567">
        <ele>2247.0</ele>
        <time>2015-08-16T14:03:46Z</time>
      </trkpt>
      <trkpt lat="40.587517" lon="-4.937533">
        <ele>2247.0</ele>
        <time>2015-08-16T14:03:47Z</time>
      </trkpt>
      <trkpt lat="40.587417" lon="-4.937483">
        <ele>2247.0</ele>
        <time>2015-08-16T14:03:48Z</time>
      </trkpt>
      <trkpt lat="40.587333" lon="-4.937417">
        <ele>2247.0</ele>
        <time>2015-08-16T14:03:49Z</time>
      </trkpt>
      <trkpt lat="40.587233" lon="-4.937333">
        <ele>2247.0</ele>
        <time>2015-08-16T14:03:50Z</time>
      </trkpt>
      <trkpt lat="40.587150" lon="-4.937233">
        <ele>2247.0</ele>
        <time>2015-08-16T14:03:51Z</time>
      </trkpt>
      <trkpt lat="40.587067" lon="-4.937133">
        <ele>2248.0</ele>
        <time>2015-08-16T14:03:52Z</time>
      </trkpt>
      <trkpt lat="40.587017" lon="-4.937017">
        <ele>2249.0</ele>
        <time>2015-08-16T14:03:53Z</time>
      </trkpt>
      <trkpt lat="40.586967" lon="-4.936883">
        <ele>2251.0</ele>
        <time>2015-08-16T14:03:54Z</time>
      </trkpt>
      <trkpt lat="40.586917" lon="-4.936767">
        <ele>2253.0</ele>
        <time>2015-08-16T14:03:55Z</time>
      </trkpt>
      <trkpt lat="40.586850" lon="-4.936617">
        <ele>2254.0</ele>
        <time>2015-08-16T14:03:56Z</time>
      </trkpt>
      <trkpt lat="40.586800" lon="-4.936483">
        <ele>2256.0</ele>
        <time>2015-08-16T14:03:57Z</time>
      </trkpt>
      <trkpt lat="40.586750" lon="-4.936350">
        <ele>2259.0</ele>
        <time>2015-08-16T14:03:58Z</time>
      </trkpt>
      <trkpt lat="40.586683" lon="-4.936233">
        <ele>2261.0</ele>
        <time>2015-08-16T14:03:59Z</time>
      </trkpt>
      <trkpt lat="40.586617" lon="-4.936100">
        <ele>2263.0</ele>
        <time>2015-08-16T14:04:00Z</time>
      </trkpt>
      <trkpt lat="40.586567" lon="-4.935983">
        <ele>2265.0</ele>
        <time>2015-08-16T14:04:01Z</time>
      </trkpt>
      <trkpt lat="40.586500" lon="-4.935850">
        <ele>2266.0</ele>
        <time>2015-08-16T14:04:02Z</time>
      </trkpt>
      <trkpt lat="40.586450" lon="-4.935700">
        <ele>2267.0</ele>
        <time>2015-08-16T14:04:03Z</time>
      </trkpt>
      <trkpt lat="40.586383" lon="-4.935567">
        <ele>2269.0</ele>
        <time>2015-08-16T14:04:04Z</time>
      </trkpt>
      <trkpt lat="40.586317" lon="-4.935450">
        <ele>2271.0</ele>
        <time>2015-08-16T14:04:05Z</time>
      </trkpt>
      <trkpt lat="40.586267" lon="-4.935317">
        <ele>2273.0</ele>
        <time>2015-08-16T14:04:06Z</time>
      </trkpt>
      <trkpt lat="40.586200" lon="-4.935200">
        <ele>2275.0</ele>
        <time>2015-08-16T14:04:07Z</time>
      </trkpt>
      <trkpt lat="40.586150" lon="-4.935083">
        <ele>2278.0</ele>
        <time>2015-08-16T14:04:08Z</time>
      </trkpt>
      <trkpt lat="40.586100" lon="-4.934967">
        <ele>2280.0</ele>
        <time>2015-08-16T14:04:09Z</time>
      </trkpt>
      <trkpt lat="40.586067" lon="-4.934833">
        <ele>2281.0</ele>
        <time>2015-08-16T14:04:10Z</time>
      </trkpt>
      <trkpt lat="40.586050" lon="-4.934700">
        <ele>2282.0</ele>
        <time>2015-08-16T14:04:11Z</time>
      </trkpt>
      <trkpt lat="40.586050" lon="-4.934567">
        <ele>2283.0</ele>
        <time>2015-08-16T14:04:12Z</time>
      </trkpt>
      <trkpt lat="40.586067" lon="-4.934450">
        <ele>2285.0</ele>
        <time>2015-08-16T14:04:13Z</time>
      </trkpt>
      <trkpt lat="40.586117" lon="-4.934333">
        <ele>2289.0</ele>
        <time>2015-08-16T14:04:14Z</time>
      </trkpt>
      <trkpt lat="40.586167" lon="-4.934250">
        <ele>2292.0</ele>
        <time>2015-08-16T14:04:15Z</time>
      </trkpt>
      <trkpt lat="40.586217" lon="-4.934183">
        <ele>2295.0</ele>
        <time>2015-08-16T14:04:16Z</time>
      </trkpt>
      <trkpt lat="40.586267" lon="-4.934117">
        <ele>2298.0</ele>
        <time>2015-08-16T14:04:17Z</time>
      </trkpt>
      <trkpt lat="40.586317" lon="-4.934033">
        <ele>2301.0</ele>
        <time>2015-08-16T14:04:18Z</time>
      </trkpt>
      <trkpt lat="40.586383" lon="-4.933983">
        <ele>2303.0</ele>
        <time>2015-08-16T14:04:19Z</time>
      </trkpt>
      <trkpt lat="40.586467" lon="-4.933950">
        <ele>2305.0</ele>
        <time>2015-08-16T14:04:20Z</time>
      </trkpt>
      <trkpt lat="40.586550" lon="-4.933967">
        <ele>2307.0</ele>
        <time>2015-08-16T14:04:21Z</time>
      </trkpt>
      <trkpt lat="40.586617" lon="-4.934033">
        <ele>2310.0</ele>
        <time>2015-08-16T14:04:22Z</time>
      </trkpt>
      <trkpt lat="40.586667" lon="-4.934133">
        <ele>2312.0</ele>
        <time>2015-08-16T14:04:23Z</time>
      </trkpt>
      <trkpt lat="40.586700" lon="-4.934250">
        <ele>2315.0</ele>
        <time>2015-08-16T14:04:24Z</time>
      </trkpt>
      <trkpt lat="40.586683" lon="-4.934383">
        <ele>2317.0</ele>
        <time>2015-08-16T14:04:25Z</time>
      </trkpt>
      <trkpt lat="40.586633" lon="-4.934500">
        <ele>2319.0</ele>
        <time>2015-08-16T14:04:26Z</time>
      </trkpt>
      <trkpt lat="40.586550" lon="-4.934600">
        <ele>2321.0</ele>
        <time>2015-08-16T14:04:27Z</time>
      </trkpt>
      <trkpt lat="40.586450" lon="-4.934667">
        <ele>2323.0</ele>
        <time>2015-08-16T14:04:28Z</time>
      </trkpt>
      <trkpt lat="40.586333" lon="-4.934683">
        <ele>2325.0</ele>
        <time>2015-08-16T14:04:29Z</time>
      </trkpt>
      <trkpt lat="40.586217" lon="-4.934667">
        <ele>2326.0</ele>
        <time>2015-08-16T14:04:30Z</time>
      </trkpt>
      <trkpt lat="40.586117" lon="-4.934617">
        <ele>2329.0</ele>
        <time>2015-08-16T14:04:31Z</time>
      </trkpt>
      <trkpt lat="40.586017" lon="-4.934533">
        <ele>2330.0</ele>
        <time>2015-08-16T14:04:32Z</time>
      </trkpt>
      <trkpt lat="40.585950" lon="-4.934417">
        <ele>2332.0</ele>
        <time>2015-08-16T14:04:33Z</time>
      </trkpt>
      <trkpt lat="40.585900" lon="-4.934267">
        <ele>2333.0</ele>
        <time>2015-08-16T14:04:34Z</time>
      </trkpt>
      <trkpt lat="40.585867" lon="-4.934133">
        <ele>2334.0</ele>
        <time>2015-08-16T14:04:35Z</time>
      </trkpt>
      <trkpt lat="40.585867" lon="-4.934000">
        <ele>2338.0</ele>
        <time>2015-08-16T14:04:36Z</time>
      </trkpt>
      <trkpt lat="40.585900" lon="-4.933867">
        <ele>2341.0</ele>
        <time>2015-08-16T14:04:37Z</time>
      </trkpt>
      <trkpt lat="40.585950" lon="-4.933783">
        <ele>2344.0</ele>
        <time>2015-08-16T14:04:38Z</time>
      </trkpt>
      <trkpt lat="40.586000" lon="-4.933733">
        <ele>2347.0</ele>
        <time>2015-08-16T14:04:39Z</time>
      </trkpt>
      <trkpt lat="40.586067" lon="-4.933700">
        <ele>2349.0</ele>
        <time>2015-08-16T14:04:40Z</time>
      </trkpt>
      <trkpt lat="40.586133" lon="-4.933717">
        <ele>2351.0</ele>
        <time>2015-08-16T14:04:41Z</time>
      </trkpt>
      <trkpt lat="40.586200" lon="-4.933750">
        <ele>2353.0</ele>
        <time>2015-08-16T14:04:42Z</time>
      </trkpt>
      <trkpt lat="40.586267" lon="-4.933833">
        <ele>2353.0</ele>
        <time>2015-08-16T14:04:43Z</time>
      </trkpt>
      <trkpt lat="40.586333" lon="-4.933950">
        <ele>2354.0</ele>
        <time>2015-08-16T14:04:44Z</time>
      </trkpt>
      <trkpt lat="40.586367" lon="-4.934083">
        <ele>2357.0</ele>
        <time>2015-08-16T14:04:45Z</time>
      </trkpt>
      <trkpt lat="40.586367" lon="-4.934233">
        <ele>2361.0</ele>
        <time>2015-08-16T14:04:46Z</time>
      </trkpt>
      <trkpt lat="40.586350" lon="-4.934350">
        <ele>2365.0</ele>
        <time>2015-08-16T14:04:47Z</time>
      </trkpt>
      <trkpt lat="40.586283" lon="-4.934467">
        <ele>2367.0</ele>
        <time>2015-08-16T14:04:48Z</time>
      </trkpt>
      <trkpt lat="40.586200" lon="-4.934550">
        <ele>2369.0</ele>
        <time>2015-08-16T14:04:49Z</time>
      </trkpt>
      <trkpt lat="40.586100" lon="-4.934617">
        <ele>2371.0</ele>
        <time>2015-08-16T14:04:50Z</time>
      </trkpt>
      <trkpt lat="40.586000" lon="-4.934667">
        <ele>2373.0</ele>
        <time>2015-08-16T14:04:51Z</time>
      </trkpt>
      <trkpt lat="40.585883" lon="-4.934683">
        <ele>2375.0</ele>
        <time>2015-08-16T14:04:52Z</time>
      </trkpt>
      <trkpt lat="40.585783" lon="-4.934683">
        <ele>2377.0</ele>
        <time>2015-08-16T14:04:53Z</time>
      </trkpt>
      <trkpt lat="40.585667" lon="-4.934633">
        <ele>2378.0</ele>
        <time>2015-08-16T14:04:54Z</time>
      </trkpt>
      <trkpt lat="40.585583" lon="-4.934567">
        <ele>2380.0</ele>
        <time>2015-08-16T14:04:55Z</time>
      </trkpt>
      <trkpt lat="40.585483" lon="-4.934483">
        <ele>2381.0</ele>
        <time>2015-08-16T14:04:56Z</time>
      </trkpt>
      <trkpt lat="40.585417" lon="-4.934367">
        <ele>2383.0</ele>
        <time>2015-08-16T14:04:57Z</time>
      </trkpt>
      <trkpt lat="40.585350" lon="-4.934233">
        <ele>2384.0</ele>
        <time>2015-08-16T14:04:58Z</time>
      </trkpt>
      <trkpt lat="40.585333" lon="-4.934100">
        <ele>2386.0</ele>
        <time>2015-08-16T14:04:59Z</time>
      </trkpt>
      <trkpt lat="40.585333" lon="-4.933967">
        <ele>2388.0</ele>
        <time>2015-08-16T14:05:00Z</time>
      </trkpt>
      <trkpt lat="40.585383" lon="-4.933850">
        <ele>2391.0</ele>
        <time>2015-08-16T14:05:01Z</time>
      </trkpt>
      <trkpt lat="40.585433" lon="-4.933767">
        <ele>2394.0</ele>
        <time>2015-08-16T14:05:02Z</time>
      </trkpt>
      <trkpt lat="40.585500" lon="-4.933717">
        <ele>2397.0</ele>
        <time>2015-08-16T14:05:03Z</time>
      </trkpt>
      <trkpt lat="40.585567" lon="-4.933683">
        <ele>2401.0</ele>
        <time>2015-08-16T14:05:04Z</time>
      </trkpt>
      <trkpt lat="40.585633" lon="-4.933683">
        <ele>2403.0</ele>
        <time>2015-08-16T14:05:05Z</time>
      </trkpt>
      <trkpt lat="40.585717" lon="-4.933733">
        <ele>2405.0</ele>
        <time>2015-08-16T14:05:06Z</time>
      </trkpt>
      <trkpt lat="40.585783" lon="-4.933833">
        <ele>2406.0</ele>
        <time>2015-08-16T14:05:07Z</time>
      </trkpt>
      <trkpt lat="40.585833" lon="-4.933950">
        <ele>2408.0</ele>
        <time>2015-08-16T14:05:08Z</time>
      </trkpt>
      <trkpt lat="40.585833" lon="-4.934083">
        <ele>2411.0</ele>
        <time>2015-08-16T14:05:09Z</time>
      </trkpt>
      <trkpt lat="40.585817" lon="-4.934217">
        <ele>2412.0</ele>
        <time>2015-08-16T14:05:10Z</time>
      </trkpt>
      <trkpt lat="40.585783" lon="-4.934350">
        <ele>2414.0</ele>
        <time>2015-08-16T14:05:11Z</time>
      </trkpt>
      <trkpt lat="40.585700" lon="-4.934450">
        <ele>2416.0</ele>
        <time>2015-08-16T14:05:12Z</time>
      </trkpt>
      <trkpt lat="40.585617" lon="-4.934550">
        <ele>2419.0</ele>
        <time>2015-08-16T14:05:13Z</time>
      </trkpt>
      <trkpt lat="40.585517" lon="-4.934600">
        <ele>2421.0</ele>
        <time>2015-08-16T14:05:14Z</time>
      </trkpt>
      <trkpt lat="40.585417" lon="-4.934633">
        <ele>2422.0</ele>
        <time>2015-08-16T14:05:15Z</time>
      </trkpt>
      <trkpt lat="40.585300" lon="-4.934617">
        <ele>2423.0</ele>
        <time>2015-08-16T14:05:16Z</time>
      </trkpt>
      <trkpt lat="40.585183" lon="-4.934583">
        <ele>2425.0</ele>
        <time>2015-08-16T14:05:17Z</time>
      </trkpt>
      <trkpt lat="40.585083" lon="-4.934533">
        <ele>2426.0</ele>
        <time>2015-08-16T14:05:18Z</time>
      </trkpt>
      <trkpt lat="40.584967" lon="-4.934450">
        <ele>2428.0</ele>
        <time>2015-08-16T14:05:19Z</time>
      </trkpt>
      <trkpt lat="40.584883" lon="-4.934350">
        <ele>2431.0</ele>
        <time>2015-08-16T14:05:20Z</time>
      </trkpt>
      <trkpt lat="40.584800" lon="-4.934250">
        <ele>2435.0</ele>
        <time>2015-08-16T14:05:21Z</time>
      </trkpt>
      <trkpt lat="40.584750" lon="-4.934150">
        <ele>2439.0</ele>
        <time>2015-08-16T14:05:22Z</time>
      </trkpt>
      <trkpt lat="40.584700" lon="-4.934050">
        <ele>2443.0</ele>
        <time>2015-08-16T14:05:23Z</time>
      </trkpt>
      <trkpt lat="40.584650" lon="-4.933967">
        <ele>2446.0</ele>
        <time>2015-08-16T14:05:24Z</time>
      </trkpt>
      <trkpt lat="40.584617" lon="-4.933867">
        <ele>2448.0</ele>
        <time>2015-08-16T14:05:25Z</time>
      </trkpt>
      <trkpt lat="40.584600" lon="-4.933767">
        <ele>2450.0</ele>
        <time>2015-08-16T14:05:26Z</time>
      </trkpt>
      <trkpt lat="40.584600" lon="-4.933650">
        <ele>2451.0</ele>
        <time>2015-08-16T14:05:27Z</time>
      </trkpt>
      <trkpt lat="40.584633" lon="-4.933533">
        <ele>2453.0</ele>
        <time>2015-08-16T14:05:28Z</time>
      </trkpt>
      <trkpt lat="40.584683" lon="-4.933450">
        <ele>2455.0</ele>
        <time>2015-08-16T14:05:29Z</time>
      </trkpt>
      <trkpt lat="40.584733" lon="-4.933383">
        <ele>2458.0</ele>
        <time>2015-08-16T14:05:30Z</time>
      </trkpt>
      <trkpt lat="40.584817" lon="-4.933333">
        <ele>2460.0</ele>
        <time>2015-08-16T14:05:31Z</time>
      </trkpt>
      <trkpt lat="40.584900" lon="-4.933317">
        <ele>2462.0</ele>
        <time>2015-08-16T14:05:32Z</time>
      </trkpt>
      <trkpt lat="40.585000" lon="-4.933350">
        <ele>2463.0</ele>
        <time>2015-08-16T14:05:33Z</time>
      </trkpt>
      <trkpt lat="40.585083" lon="-4.933400">
        <ele>2465.0</ele>
        <time>2015-08-16T14:05:34Z</time>
      </trkpt>
      <trkpt lat="40.585167" lon="-4.933500">
        <ele>2469.0</ele>
        <time>2015-08-16T14:05:35Z</time>
      </trkpt>
      <trkpt lat="40.585217" lon="-4.933617">
        <ele>2473.0</ele>
        <time>2015-08-16T14:05:36Z</time>
      </trkpt>
      <trkpt lat="40.585250" lon="-4.933717">
        <ele>2476.0</ele>
        <time>2015-08-16T14:05:37Z</time>
      </trkpt>
      <trkpt lat="40.585250" lon="-4.933850">
        <ele>2479.0</ele>
        <time>2015-08-16T14:05:38Z</time>
      </trkpt>
      <trkpt lat="40.585233" lon="-4.933967">
        <ele>2480.0</ele>
        <time>2015-08-16T14:05:39Z</time>
      </trkpt>
      <trkpt lat="40.585183" lon="-4.934083">
        <ele>2481.0</ele>
        <time>2015-08-16T14:05:40Z</time>
      </trkpt>
      <trkpt lat="40.585100" lon="-4.934200">
        <ele>2482.0</ele>
        <time>2015-08-16T14:05:41Z</time>
      </trkpt>
      <trkpt lat="40.584983" lon="-4.934283">
        <ele>2483.0</ele>
        <time>2015-08-16T14:05:42Z</time>
      </trkpt>
      <trkpt lat="40.584883" lon="-4.934333">
        <ele>2485.0</ele>
        <time>2015-08-16T14:05:43Z</time>
      </trkpt>
      <trkpt lat="40.584750" lon="-4.934350">
        <ele>2487.0</ele>
        <time>2015-08-16T14:05:44Z</time>
      </trkpt>
      <trkpt lat="40.584633" lon="-4.934300">
        <ele>2488.0</ele>
        <time>2015-08-16T14:05:45Z</time>
      </trkpt>
      <trkpt lat="40.584533" lon="-4.934233">
        <ele>2491.0</ele>
        <time>2015-08-16T14:05:46Z</time>
      </trkpt>
      <trkpt lat="40.584450" lon="-4.934133">
        <ele>2494.0</ele>
        <time>2015-08-16T14:05:47Z</time>
      </trkpt>
      <trkpt lat="40.584400" lon="-4.934033">
        <ele>2498.0</ele>
        <time>2015-08-16T14:05:48Z</time>
      </trkpt>
      <trkpt lat="40.584383" lon="-4.933933">
        <ele>2501.0</ele>
        <time>2015-08-16T14:05:49Z</time>
      </trkpt>
      <trkpt lat="40.584367" lon="-4.933817">
        <ele>2504.0</ele>
        <time>2015-08-16T14:05:50Z</time>
      </trkpt>
      <trkpt lat="40.584383" lon="-4.933717">
        <ele>2506.0</ele>
        <time>2015-08-16T14:05:51Z</time>
      </trkpt>
      <trkpt lat="40.584417" lon="-4.933600">
        <ele>2508.0</ele>
        <time>2015-08-16T14:05:52Z</time>
      </trkpt>
      <trkpt lat="40.584450" lon="-4.933500">
        <ele>2509.0</ele>
        <time>2015-08-16T14:05:53Z</time>
      </trkpt>
      <trkpt lat="40.584517" lon="-4.933433">
        <ele>2512.0</ele>
        <time>2015-08-16T14:05:54Z</time>
      </trkpt>
      <trkpt lat="40.584600" lon="-4.933383">
        <ele>2514.0</ele>
        <time>2015-08-16T14:05:55Z</time>
      </trkpt>
      <trkpt lat="40.584700" lon="-4.933367">
        <ele>2516.0</ele>
        <time>2015-08-16T14:05:56Z</time>
      </trkpt>
      <trkpt lat="40.584783" lon="-4.933400">
        <ele>2519.0</ele>
        <time>2015-08-16T14:05:57Z</time>
      </trkpt>
      <trkpt lat="40.584867" lon="-4.933467">
        <ele>2522.0</ele>
        <time>2015-08-16T14:05:58Z</time>
      </trkpt>
      <trkpt lat="40.584933" lon="-4.933550">
        <ele>2525.0</ele>
        <time>2015-08-16T14:05:59Z</time>
      </trkpt>
      <trkpt lat="40.584983" lon="-4.933667">
        <ele>2528.0</ele>
        <time>2015-08-16T14:06:00Z</time>
      </trkpt>
      <trkpt lat="40.584983" lon="-4.933783">
        <ele>2531.0</ele>
        <time>2015-08-16T14:06:01Z</time>
      </trkpt>
      <trkpt lat="40.584967" lon="-4.933917">
        <ele>2534.0</ele>
        <time>2015-08-16T14:06:02Z</time>
      </trkpt>
      <trkpt lat="40.584917" lon="-4.934017">
        <ele>2536.0</ele>
        <time>2015-08-16T14:06:03Z</time>
      </trkpt>
      <trkpt lat="40.584850" lon="-4.934117">
        <ele>2538.0</ele>
        <time>2015-08-16T14:06:04Z</time>
      </trkpt>
      <trkpt lat="40.584767" lon="-4.934200">
        <ele>2539.0</ele>
        <time>2015-08-16T14:06:05Z</time>
      </trkpt>
      <trkpt lat="40.584650" lon="-4.934267">
        <ele>2540.0</ele>
        <time>2015-08-16T14:06:06Z</time>
      </trkpt>
      <trkpt lat="40.584533" lon="-4.934300">
        <ele>2541.0</ele>
        <time>2015-08-16T14:06:07Z</time>
      </trkpt>
      <trkpt lat="40.584417" lon="-4.934300">
        <ele>2543.0</ele>
        <time>2015-08-16T14:06:08Z</time>
      </trkpt>
      <trkpt lat="40.584283" lon="-4.934250">
        <ele>2545.0</ele>
        <time>2015-08-16T14:06:09Z</time>
      </trkpt>
      <trkpt lat="40.584183" lon="-4.934183">
        <ele>2549.0</ele>
        <time>2015-08-16T14:06:10Z</time>
      </trkpt>
      <trkpt lat="40.584100" lon="-4.934100">
        <ele>2552.0</ele>
        <time>2015-08-16T14:06:11Z</time>
      </trkpt>
      <trkpt lat="40.584050" lon="-4.934000">
        <ele>2555.0</ele>
        <time>2015-08-16T14:06:12Z</time>
      </trkpt>
      <trkpt lat="40.584017" lon="-4.933883">
        <ele>2557.0</ele>
        <time>2015-08-16T14:06:13Z</time>
      </trkpt>
      <trkpt lat="40.584000" lon="-4.933750">
        <ele>2559.0</ele>
        <time>2015-08-16T14:06:14Z</time>
      </trkpt>
      <trkpt lat="40.584033" lon="-4.933633">
        <ele>2560.0</ele>
        <time>2015-08-16T14:06:15Z</time>
      </trkpt>
      <trkpt lat="40.584083" lon="-4.933550">
        <ele>2562.0</ele>
        <time>2015-08-16T14:06:16Z</time>
      </trkpt>
      <trkpt lat="40.584183" lon="-4.933483">
        <ele>2563.0</ele>
        <time>2015-08-16T14:06:17Z</time>
      </trkpt>
      <trkpt lat="40.584267" lon="-4.933467">
        <ele>2565.0</ele>
        <time>2015-08-16T14:06:18Z</time>
      </trkpt>
      <trkpt lat="40.584367" lon="-4.933483">
        <ele>2568.0</ele>
        <time>2015-08-16T14:06:19Z</time>
      </trkpt>
      <trkpt lat="40.584450" lon="-4.933550">
        <ele>2571.0</ele>
        <time>2015-08-16T14:06:20Z</time>
      </trkpt>
      <trkpt lat="40.584517" lon="-4.933633">
        <ele>2574.0</ele>
        <time>2015-08-16T14:06:21Z</time>
      </trkpt>
      <trkpt lat="40.584567" lon="-4.933750">
        <ele>2576.0</ele>
        <time>2015-08-16T14:06:22Z</time>
      </trkpt>
      <trkpt lat="40.584583" lon="-4.933883">
        <ele>2578.0</ele>
        <time>2015-08-16T14:06:23Z</time>
      </trkpt>
      <trkpt lat="40.584550" lon="-4.934017">
        <ele>2581.0</ele>
        <time>2015-08-16T14:06:24Z</time>
      </trkpt>
      <trkpt lat="40.584517" lon="-4.934133">
        <ele>2583.0</ele>
        <time>2015-08-16T14:06:25Z</time>
      </trkpt>
      <trkpt lat="40.584433" lon="-4.934233">
        <ele>2585.0</ele>
        <time>2015-08-16T14:06:26Z</time>
      </trkpt>
      <trkpt lat="40.584333" lon="-4.934317">
        <ele>2587.0</ele>
        <time>2015-08-16T14:06:27Z</time>
      </trkpt>
      <trkpt lat="40.584233" lon="-4.934367">
        <ele>2588.0</ele>
        <time>2015-08-16T14:06:28Z</time>
      </trkpt>
      <trkpt lat="40.584133" lon="-4.934367">
        <ele>2589.0</ele>
        <time>2015-08-16T14:06:29Z</time>
      </trkpt>
      <trkpt lat="40.584017" lon="-4.934333">
        <ele>2591.0</ele>
        <time>2015-08-16T14:06:30Z</time>
      </trkpt>
      <trkpt lat="40.583917" lon="-4.934250">
        <ele>2592.0</ele>
        <time>2015-08-16T14:06:31Z</time>
      </trkpt>
      <trkpt lat="40.583850" lon="-4.934150">
        <ele>2594.0</ele>
        <time>2015-08-16T14:06:32Z</time>
      </trkpt>
      <trkpt lat="40.583817" lon="-4.934017">
        <ele>2595.0</ele>
        <time>2015-08-16T14:06:33Z</time>
      </trkpt>
      <trkpt lat="40.583817" lon="-4.933883">
        <ele>2597.0</ele>
        <time>2015-08-16T14:06:34Z</time>
      </trkpt>
      <trkpt lat="40.583850" lon="-4.933767">
        <ele>2599.0</ele>
        <time>2015-08-16T14:06:35Z</time>
      </trkpt>
      <trkpt lat="40.583900" lon="-4.933667">
        <ele>2600.0</ele>
        <time>2015-08-16T14:06:36Z</time>
      </trkpt>
      <trkpt lat="40.583950" lon="-4.933567">
        <ele>2602.0</ele>
        <time>2015-08-16T14:06:37Z</time>
      </trkpt>
      <trkpt lat="40.584033" lon="-4.933500">
        <ele>2604.0</ele>
        <time>2015-08-16T14:06:38Z</time>
      </trkpt>
      <trkpt lat="40.584117" lon="-4.933467">
        <ele>2606.0</ele>
        <time>2015-08-16T14:06:39Z</time>
      </trkpt>
      <trkpt lat="40.584217" lon="-4.933467">
        <ele>2607.0</ele>
        <time>2015-08-16T14:06:40Z</time>
      </trkpt>
      <trkpt lat="40.584300" lon="-4.933517">
        <ele>2609.0</ele>
        <time>2015-08-16T14:06:41Z</time>
      </trkpt>
      <trkpt lat="40.584383" lon="-4.933583">
        <ele>2612.0</ele>
        <time>2015-08-16T14:06:42Z</time>
      </trkpt>
      <trkpt lat="40.584450" lon="-4.933650">
        <ele>2615.0</ele>
        <time>2015-08-16T14:06:43Z</time>
      </trkpt>
      <trkpt lat="40.584517" lon="-4.933733">
        <ele>2617.0</ele>
        <time>2015-08-16T14:06:44Z</time>
      </trkpt>
      <trkpt lat="40.584567" lon="-4.933833">
        <ele>2620.0</ele>
        <time>2015-08-16T14:06:45Z</time>
      </trkpt>
      <trkpt lat="40.584600" lon="-4.933950">
        <ele>2622.0</ele>
        <time>2015-08-16T14:06:46Z</time>
      </trkpt>
      <trkpt lat="40.584600" lon="-4.934067">
        <ele>2624.0</ele>
        <time>2015-08-16T14:06:47Z</time>
      </trkpt>
      <trkpt lat="40.584583" lon="-4.934183">
        <ele>2625.0</ele>
        <time>2015-08-16T14:06:48Z</time>
      </trkpt>
      <trkpt lat="40.584533" lon="-4.934300">
        <ele>2626.0</ele>
        <time>2015-08-16T14:06:49Z</time>
      </trkpt>
      <trkpt lat="40.584483" lon="-4.934417">
        <ele>2627.0</ele>
        <time>2015-08-16T14:06:50Z</time>
      </trkpt>
      <trkpt lat="40.584400" lon="-4.934517">
        <ele>2629.0</ele>
        <time>2015-08-16T14:06:51Z</time>
      </trkpt>
      <trkpt lat="40.584317" lon="-4.934600">
        <ele>2630.0</ele>
        <time>2015-08-16T14:06:52Z</time>
      </trkpt>
      <trkpt lat="40.584217" lon="-4.934650">
        <ele>2631.0</ele>
        <time>2015-08-16T14:06:53Z</time>
      </trkpt>
      <trkpt lat="40.584100" lon="-4.934667">
        <ele>2631.0</ele>
        <time>2015-08-16T14:06:54Z</time>
      </trkpt>
      <trkpt lat="40.583983" lon="-4.934667">
        <ele>2632.0</ele>
        <time>2015-08-16T14:06:55Z</time>
      </trkpt>
      <trkpt lat="40.583867" lon="-4.934650">
        <ele>2633.0</ele>
        <time>2015-08-16T14:06:56Z</time>
      </trkpt>
      <trkpt lat="40.583750" lon="-4.934600">
        <ele>2636.0</ele>
        <time>2015-08-16T14:06:57Z</time>
      </trkpt>
      <trkpt lat="40.583667" lon="-4.934550">
        <ele>2638.0</ele>
        <time>2015-08-16T14:06:58Z</time>
      </trkpt>
      <trkpt lat="40.583583" lon="-4.934467">
        <ele>2640.0</ele>
        <time>2015-08-16T14:06:59Z</time>
      </trkpt>
      <trkpt lat="40.583533" lon="-4.934367">
        <ele>2641.0</ele>
        <time>2015-08-16T14:07:00Z</time>
      </trkpt>
      <trkpt lat="40.583483" lon="-4.934250">
        <ele>2642.0</ele>
        <time>2015-08-16T14:07:01Z</time>
      </trkpt>
      <trkpt lat="40.583450" lon="-4.934133">
        <ele>2643.0</ele>
        <time>2015-08-16T14:07:02Z</time>
      </trkpt>
      <trkpt lat="40.583417" lon="-4.934000">
        <ele>2644.0</ele>
        <time>2015-08-16T14:07:03Z</time>
      </trkpt>
      <trkpt lat="40.583417" lon="-4.933867">
        <ele>2646.0</ele>
        <time>2015-08-16T14:07:04Z</time>
      </trkpt>
      <trkpt lat="40.583433" lon="-4.933750">
        <ele>2649.0</ele>
        <time>2015-08-16T14:07:05Z</time>
      </trkpt>
      <trkpt lat="40.583450" lon="-4.933633">
        <ele>2651.0</ele>
        <time>2015-08-16T14:07:06Z</time>
      </trkpt>
      <trkpt lat="40.583483" lon="-4.933533">
        <ele>2652.0</ele>
        <time>2015-08-16T14:07:07Z</time>
      </trkpt>
      <trkpt lat="40.583533" lon="-4.933433">
        <ele>2653.0</ele>
        <time>2015-08-16T14:07:08Z</time>
      </trkpt>
      <trkpt lat="40.583600" lon="-4.933333">
        <ele>2653.0</ele>
        <time>2015-08-16T14:07:09Z</time>
      </trkpt>
      <trkpt lat="40.583683" lon="-4.933267">
        <ele>2654.0</ele>
        <time>2015-08-16T14:07:10Z</time>
      </trkpt>
      <trkpt lat="40.583767" lon="-4.933200">
        <ele>2655.0</ele>
        <time>2015-08-16T14:07:11Z</time>
      </trkpt>
      <trkpt lat="40.583850" lon="-4.933167">
        <ele>2656.0</ele>
        <time>2015-08-16T14:07:12Z</time>
      </trkpt>
      <trkpt lat="40.583950" lon="-4.933167">
        <ele>2658.0</ele>
        <time>2015-08-16T14:07:13Z</time>
      </trkpt>
      <trkpt lat="40.584033" lon="-4.933183">
        <ele>2660.0</ele>
        <time>2015-08-16T14:07:14Z</time>
      </trkpt>
      <trkpt lat="40.584117" lon="-4.933183">
        <ele>2662.0</ele>
        <time>2015-08-16T14:07:15Z</time>
      </trkpt>
      <trkpt lat="40.584217" lon="-4.933183">
        <ele>2663.0</ele>
        <time>2015-08-16T14:07:16Z</time>
      </trkpt>
      <trkpt lat="40.584300" lon="-4.933167">
        <ele>2664.0</ele>
        <time>2015-08-16T14:07:17Z</time>
      </trkpt>
      <trkpt lat="40.584400" lon="-4.933150">
        <ele>2665.0</ele>
        <time>2015-08-16T14:07:18Z</time>
      </trkpt>
      <trkpt lat="40.584500" lon="-4.933167">
        <ele>2667.0</ele>
        <time>2015-08-16T14:07:19Z</time>
      </trkpt>
      <trkpt lat="40.584567" lon="-4.933200">
        <ele>2669.0</ele>
        <time>2015-08-16T14:07:20Z</time>
      </trkpt>
      <trkpt lat="40.584633" lon="-4.933267">
        <ele>2671.0</ele>
        <time>2015-08-16T14:07:21Z</time>
      </trkpt>
      <trkpt lat="40.584683" lon="-4.933367">
        <ele>2673.0</ele>
        <time>2015-08-16T14:07:22Z</time>
      </trkpt>
      <trkpt lat="40.584700" lon="-4.933483">
        <ele>2674.0</ele>
        <time>2015-08-16T14:07:23Z</time>
      </trkpt>
      <trkpt lat="40.584700" lon="-4.933600">
        <ele>2675.0</ele>
        <time>2015-08-16T14:07:24Z</time>
      </trkpt>
      <trkpt lat="40.584683" lon="-4.933717">
        <ele>2677.0</ele>
        <time>2015-08-16T14:07:25Z</time>
      </trkpt>
      <trkpt lat="40.584650" lon="-4.933833">
        <ele>2679.0</ele>
        <time>2015-08-16T14:07:26Z</time>
      </trkpt>
      <trkpt lat="40.584583" lon="-4.933917">
        <ele>2680.0</ele>
        <time>2015-08-16T14:07:27Z</time>
      </trkpt>
      <trkpt lat="40.584500" lon="-4.934000">
        <ele>2680.0</ele>
        <time>2015-08-16T14:07:28Z</time>
      </trkpt>
      <trkpt lat="40.584400" lon="-4.934067">
        <ele>2680.0</ele>
        <time>2015-08-16T14:07:29Z</time>
      </trkpt>
      <trkpt lat="40.584283" lon="-4.934117">
        <ele>2680.0</ele>
        <time>2015-08-16T14:07:30Z</time>
      </trkpt>
      <trkpt lat="40.584167" lon="-4.934133">
        <ele>2681.0</ele>
        <time>2015-08-16T14:07:31Z</time>
      </trkpt>
      <trkpt lat="40.584050" lon="-4.934133">
        <ele>2682.0</ele>
        <time>2015-08-16T14:07:32Z</time>
      </trkpt>
      <trkpt lat="40.583950" lon="-4.934117">
        <ele>2683.0</ele>
        <time>2015-08-16T14:07:33Z</time>
      </trkpt>
      <trkpt lat="40.583833" lon="-4.934083">
        <ele>2685.0</ele>
        <time>2015-08-16T14:07:34Z</time>
      </trkpt>
      <trkpt lat="40.583733" lon="-4.934050">
        <ele>2687.0</ele>
        <time>2015-08-16T14:07:35Z</time>
      </trkpt>
      <trkpt lat="40.583633" lon="-4.933983">
        <ele>2688.0</ele>
        <time>2015-08-16T14:07:36Z</time>
      </trkpt>
      <trkpt lat="40.583533" lon="-4.933900">
        <ele>2689.0</ele>
        <time>2015-08-16T14:07:37Z</time>
      </trkpt>
      <trkpt lat="40.583450" lon="-4.933783">
        <ele>2690.0</ele>
        <time>2015-08-16T14:07:38Z</time>
      </trkpt>
      <trkpt lat="40.583367" lon="-4.933667">
        <ele>2691.0</ele>
        <time>2015-08-16T14:07:39Z</time>
      </trkpt>
      <trkpt lat="40.583317" lon="-4.933567">
        <ele>2693.0</ele>
        <time>2015-08-16T14:07:40Z</time>
      </trkpt>
      <trkpt lat="40.583283" lon="-4.933433">
        <ele>2694.0</ele>
        <time>2015-08-16T14:07:41Z</time>
      </trkpt>
      <trkpt lat="40.583250" lon="-4.933317">
        <ele>2694.0</ele>
        <time>2015-08-16T14:07:42Z</time>
      </trkpt>
      <trkpt lat="40.583250" lon="-4.933183">
        <ele>2693.0</ele>
        <time>2015-08-16T14:07:43Z</time>
      </trkpt>
      <trkpt lat="40.583267" lon="-4.933050">
        <ele>2693.0</ele>
        <time>2015-08-16T14:07:44Z</time>
      </trkpt>
      <trkpt lat="40.583300" lon="-4.932917">
        <ele>2694.0</ele>
        <time>2015-08-16T14:07:45Z</time>
      </trkpt>
      <trkpt lat="40.583333" lon="-4.932800">
        <ele>2695.0</ele>
        <time>2015-08-16T14:07:46Z</time>
      </trkpt>
      <trkpt lat="40.583383" lon="-4.932683">
        <ele>2697.0</ele>
        <time>2015-08-16T14:07:47Z</time>
      </trkpt>
      <trkpt lat="40.583433" lon="-4.932600">
        <ele>2698.0</ele>
        <time>2015-08-16T14:07:48Z</time>
      </trkpt>
      <trkpt lat="40.583500" lon="-4.932533">
        <ele>2698.0</ele>
        <time>2015-08-16T14:07:49Z</time>
      </trkpt>
      <trkpt lat="40.583583" lon="-4.932483">
        <ele>2698.0</ele>
        <time>2015-08-16T14:07:50Z</time>
      </trkpt>
      <trkpt lat="40.583667" lon="-4.932450">
        <ele>2698.0</ele>
        <time>2015-08-16T14:07:51Z</time>
      </trkpt>
      <trkpt lat="40.583750" lon="-4.932433">
        <ele>2698.0</ele>
        <time>2015-08-16T14:07:52Z</time>
      </trkpt>
      <trkpt lat="40.583833" lon="-4.932433">
        <ele>2699.0</ele>
        <time>2015-08-16T14:07:53Z</time>
      </trkpt>
      <trkpt lat="40.583933" lon="-4.932450">
        <ele>2699.0</ele>
        <time>2015-08-16T14:07:54Z</time>
      </trkpt>
      <trkpt lat="40.584017" lon="-4.932483">
        <ele>2700.0</ele>
        <time>2015-08-16T14:07:55Z</time>
      </trkpt>
      <trkpt lat="40.584100" lon="-4.932533">
        <ele>2702.0</ele>
        <time>2015-08-16T14:07:56Z</time>
      </trkpt>
      <trkpt lat="40.584183" lon="-4.932583">
        <ele>2704.0</ele>
        <time>2015-08-16T14:07:57Z</time>
      </trkpt>
      <trkpt lat="40.584267" lon="-4.932617">
        <ele>2706.0</ele>
        <time>2015-08-16T14:07:58Z</time>
      </trkpt>
      <trkpt lat="40.584350" lon="-4.932667">
        <ele>2708.0</ele>
        <time>2015-08-16T14:07:59Z</time>
      </trkpt>
      <trkpt lat="40.584417" lon="-4.932700">
        <ele>2709.0</ele>
        <time>2015-08-16T14:08:00Z</time>
      </trkpt>
      <trkpt lat="40.584500" lon="-4.932750">
        <ele>2710.0</ele>
        <time>2015-08-16T14:08:01Z</time>
      </trkpt>
      <trkpt lat="40.584583" lon="-4.932800">
        <ele>2711.0</ele>
        <time>2015-08-16T14:08:02Z</time>
      </trkpt>
      <trkpt lat="40.584650" lon="-4.932850">
        <ele>2711.0</ele>
        <time>2015-08-16T14:08:03Z</time>
      </trkpt>
      <trkpt lat="40.584717" lon="-4.932900">
        <ele>2711.0</ele>
        <time>2015-08-16T14:08:04Z</time>
      </trkpt>
      <trkpt lat="40.584783" lon="-4.932950">
        <ele>2711.0</ele>
        <time>2015-08-16T14:08:05Z</time>
      </trkpt>
      <trkpt lat="40.584850" lon="-4.933050">
        <ele>2711.0</ele>
        <time>2015-08-16T14:08:06Z</time>
      </trkpt>
      <trkpt lat="40.584883" lon="-4.933150">
        <ele>2710.0</ele>
        <time>2015-08-16T14:08:07Z</time>
      </trkpt>
      <trkpt lat="40.584917" lon="-4.933267">
        <ele>2710.0</ele>
        <time>2015-08-16T14:08:08Z</time>
      </trkpt>
      <trkpt lat="40.584917" lon="-4.933383">
        <ele>2710.0</ele>
        <time>2015-08-16T14:08:09Z</time>
      </trkpt>
      <trkpt lat="40.584900" lon="-4.933500">
        <ele>2710.0</ele>
        <time>2015-08-16T14:08:10Z</time>
      </trkpt>
      <trkpt lat="40.584850" lon="-4.933617">
        <ele>2709.0</ele>
        <time>2015-08-16T14:08:11Z</time>
      </trkpt>
      <trkpt lat="40.584800" lon="-4.933717">
        <ele>2709.0</ele>
        <time>2015-08-16T14:08:12Z</time>
      </trkpt>
      <trkpt lat="40.584717" lon="-4.933800">
        <ele>2708.0</ele>
        <time>2015-08-16T14:08:13Z</time>
      </trkpt>
      <trkpt lat="40.584633" lon="-4.933867">
        <ele>2707.0</ele>
        <time>2015-08-16T14:08:14Z</time>
      </trkpt>
      <trkpt lat="40.584550" lon="-4.933917">
        <ele>2706.0</ele>
        <time>2015-08-16T14:08:15Z</time>
      </trkpt>
      <trkpt lat="40.584450" lon="-4.933967">
        <ele>2705.0</ele>
        <time>2015-08-16T14:08:16Z</time>
      </trkpt>
      <trkpt lat="40.584333" lon="-4.934000">
        <ele>2704.0</ele>
        <time>2015-08-16T14:08:17Z</time>
      </trkpt>
      <trkpt lat="40.584217" lon="-4.934017">
        <ele>2704.0</ele>
        <time>2015-08-16T14:08:18Z</time>
      </trkpt>
      <trkpt lat="40.584117" lon="-4.934017">
        <ele>2706.0</ele>
        <time>2015-08-16T14:08:19Z</time>
      </trkpt>
      <trkpt lat="40.584017" lon="-4.933983">
        <ele>2707.0</ele>
        <time>2015-08-16T14:08:20Z</time>
      </trkpt>
      <trkpt lat="40.583917" lon="-4.933933">
        <ele>2708.0</ele>
        <time>2015-08-16T14:08:21Z</time>
      </trkpt>
      <trkpt lat="40.583833" lon="-4.933850">
        <ele>2708.0</ele>
        <time>2015-08-16T14:08:22Z</time>
      </trkpt>
      <trkpt lat="40.583767" lon="-4.933767">
        <ele>2708.0</ele>
        <time>2015-08-16T14:08:23Z</time>
      </trkpt>
      <trkpt lat="40.583683" lon="-4.933650">
        <ele>2708.0</ele>
        <time>2015-08-16T14:08:24Z</time>
      </trkpt>
      <trkpt lat="40.583633" lon="-4.933533">
        <ele>2709.0</ele>
        <time>2015-08-16T14:08:25Z</time>
      </trkpt>
      <trkpt lat="40.583583" lon="-4.933417">
        <ele>2710.0</ele>
        <time>2015-08-16T14:08:26Z</time>
      </trkpt>
      <trkpt lat="40.583533" lon="-4.933300">
        <ele>2711.0</ele>
        <time>2015-08-16T14:08:27Z</time>
      </trkpt>
      <trkpt lat="40.583483" lon="-4.933167">
        <ele>2711.0</ele>
        <time>2015-08-16T14:08:28Z</time>
      </trkpt>
      <trkpt lat="40.583433" lon="-4.933050">
        <ele>2711.0</ele>
        <time>2015-08-16T14:08:29Z</time>
      </trkpt>
      <trkpt lat="40.583383" lon="-4.932900">
        <ele>2711.0</ele>
        <time>2015-08-16T14:08:30Z</time>
      </trkpt>
      <trkpt lat="40.583317" lon="-4.932767">
        <ele>2711.0</ele>
        <time>2015-08-16T14:08:31Z</time>
      </trkpt>
      <trkpt lat="40.583250" lon="-4.932617">
        <ele>2712.0</ele>
        <time>2015-08-16T14:08:32Z</time>
      </trkpt>
      <trkpt lat="40.583200" lon="-4.932467">
        <ele>2713.0</ele>
        <time>2015-08-16T14:08:33Z</time>
      </trkpt>
      <trkpt lat="40.583167" lon="-4.932333">
        <ele>2715.0</ele>
        <time>2015-08-16T14:08:34Z</time>
      </trkpt>
      <trkpt lat="40.583117" lon="-4.932183">
        <ele>2717.0</ele>
        <time>2015-08-16T14:08:35Z</time>
      </trkpt>
      <trkpt lat="40.583083" lon="-4.932033">
        <ele>2718.0</ele>
        <time>2015-08-16T14:08:36Z</time>
      </trkpt>
      <trkpt lat="40.583050" lon="-4.931883">
        <ele>2719.0</ele>
        <time>2015-08-16T14:08:37Z</time>
      </trkpt>
      <trkpt lat="40.583017" lon="-4.931717">
        <ele>2720.0</ele>
        <time>2015-08-16T14:08:38Z</time>
      </trkpt>
      <trkpt lat="40.582983" lon="-4.931567">
        <ele>2720.0</ele>
        <time>2015-08-16T14:08:39Z</time>
      </trkpt>
      <trkpt lat="40.582967" lon="-4.931417">
        <ele>2722.0</ele>
        <time>2015-08-16T14:08:40Z</time>
      </trkpt>
      <trkpt lat="40.582950" lon="-4.931283">
        <ele>2722.0</ele>
        <time>2015-08-16T14:08:41Z</time>
      </trkpt>
      <trkpt lat="40.582950" lon="-4.931150">
        <ele>2723.0</ele>
        <time>2015-08-16T14:08:42Z</time>
      </trkpt>
      <trkpt lat="40.582950" lon="-4.931017">
        <ele>2722.0</ele>
        <time>2015-08-16T14:08:43Z</time>
      </trkpt>
      <trkpt lat="40.582983" lon="-4.930883">
        <ele>2722.0</ele>
        <time>2015-08-16T14:08:44Z</time>
      </trkpt>
      <trkpt lat="40.583000" lon="-4.930733">
        <ele>2722.0</ele>
        <time>2015-08-16T14:08:45Z</time>
      </trkpt>
      <trkpt lat="40.583017" lon="-4.930600">
        <ele>2722.0</ele>
        <time>2015-08-16T14:08:46Z</time>
      </trkpt>
      <trkpt lat="40.583033" lon="-4.930450">
        <ele>2721.0</ele>
        <time>2015-08-16T14:08:47Z</time>
      </trkpt>
      <trkpt lat="40.583050" lon="-4.930300">
        <ele>2721.0</ele>
        <time>2015-08-16T14:08:48Z</time>
      </trkpt>
      <trkpt lat="40.583067" lon="-4.930150">
        <ele>2721.0</ele>
        <time>2015-08-16T14:08:49Z</time>
      </trkpt>
      <trkpt lat="40.583100" lon="-4.930000">
        <ele>2722.0</ele>
        <time>2015-08-16T14:08:50Z</time>
      </trkpt>
      <trkpt lat="40.583133" lon="-4.929850">
        <ele>2723.0</ele>
        <time>2015-08-16T14:08:51Z</time>
      </trkpt>
      <trkpt lat="40.583150" lon="-4.929700">
        <ele>2723.0</ele>
        <time>2015-08-16T14:08:52Z</time>
      </trkpt>
      <trkpt lat="40.583167" lon="-4.929550">
        <ele>2724.0</ele>
        <time>2015-08-16T14:08:53Z</time>
      </trkpt>
      <trkpt lat="40.583200" lon="-4.929400">
        <ele>2725.0</ele>
        <time>2015-08-16T14:08:54Z</time>
      </trkpt>
      <trkpt lat="40.583217" lon="-4.929267">
        <ele>2725.0</ele>
        <time>2015-08-16T14:08:55Z</time>
      </trkpt>
      <trkpt lat="40.583250" lon="-4.929133">
        <ele>2725.0</ele>
        <time>2015-08-16T14:08:56Z</time>
      </trkpt>
      <trkpt lat="40.583283" lon="-4.928983">
        <ele>2725.0</ele>
        <time>2015-08-16T14:08:57Z</time>
      </trkpt>
      <trkpt lat="40.583317" lon="-4.928833">
        <ele>2726.0</ele>
        <time>2015-08-16T14:08:58Z</time>
      </trkpt>
      <trkpt lat="40.583350" lon="-4.928683">
        <ele>2726.0</ele>
        <time>2015-08-16T14:08:59Z</time>
      </trkpt>
      <trkpt lat="40.583367" lon="-4.928550">
        <ele>2725.0</ele>
        <time>2015-08-16T14:09:00Z</time>
      </trkpt>
      <trkpt lat="40.583383" lon="-4.928400">
        <ele>2724.0</ele>
        <time>2015-08-16T14:09:01Z</time>
      </trkpt>
      <trkpt lat="40.583400" lon="-4.928267">
        <ele>2722.0</ele>
        <time>2015-08-16T14:09:02Z</time>
      </trkpt>
      <trkpt lat="40.583417" lon="-4.928100">
        <ele>2720.0</ele>
        <time>2015-08-16T14:09:03Z</time>
      </trkpt>
      <trkpt lat="40.583433" lon="-4.927933">
        <ele>2718.0</ele>
        <time>2015-08-16T14:09:04Z</time>
      </trkpt>
      <trkpt lat="40.583433" lon="-4.927750">
        <ele>2717.0</ele>
        <time>2015-08-16T14:09:05Z</time>
      </trkpt>
      <trkpt lat="40.583433" lon="-4.927567">
        <ele>2717.0</ele>
        <time>2015-08-16T14:09:06Z</time>
      </trkpt>
      <trkpt lat="40.583433" lon="-4.927400">
        <ele>2718.0</ele>
        <time>2015-08-16T14:09:07Z</time>
      </trkpt>
      <trkpt lat="40.583417" lon="-4.927233">
        <ele>2720.0</ele>
        <time>2015-08-16T14:09:08Z</time>
      </trkpt>
      <trkpt lat="40.583400" lon="-4.927100">
        <ele>2721.0</ele>
        <time>2015-08-16T14:09:09Z</time>
      </trkpt>
      <trkpt lat="40.583383" lon="-4.926950">
        <ele>2722.0</ele>
        <time>2015-08-16T14:09:10Z</time>
      </trkpt>
      <trkpt lat="40.583383" lon="-4.926800">
        <ele>2722.0</ele>
        <time>2015-08-16T14:09:11Z</time>
      </trkpt>
      <trkpt lat="40.583383" lon="-4.926633">
        <ele>2722.0</ele>
        <time>2015-08-16T14:09:12Z</time>
      </trkpt>
      <trkpt lat="40.583400" lon="-4.926467">
        <ele>2723.0</ele>
        <time>2015-08-16T14:09:13Z</time>
      </trkpt>
      <trkpt lat="40.583417" lon="-4.926317">
        <ele>2723.0</ele>
        <time>2015-08-16T14:09:14Z</time>
      </trkpt>
      <trkpt lat="40.583433" lon="-4.926167">
        <ele>2724.0</ele>
        <time>2015-08-16T14:09:15Z</time>
      </trkpt>
      <trkpt lat="40.583433" lon="-4.926033">
        <ele>2726.0</ele>
        <time>2015-08-16T14:09:16Z</time>
      </trkpt>
      <trkpt lat="40.583433" lon="-4.925900">
        <ele>2726.0</ele>
        <time>2015-08-16T14:09:17Z</time>
      </trkpt>
      <trkpt lat="40.583417" lon="-4.925767">
        <ele>2726.0</ele>
        <time>2015-08-16T14:09:18Z</time>
      </trkpt>
      <trkpt lat="40.583417" lon="-4.925650">
        <ele>2726.0</ele>
        <time>2015-08-16T14:09:19Z</time>
      </trkpt>
      <trkpt lat="40.583417" lon="-4.925517">
        <ele>2725.0</ele>
        <time>2015-08-16T14:09:20Z</time>
      </trkpt>
      <trkpt lat="40.583433" lon="-4.925383">
        <ele>2725.0</ele>
        <time>2015-08-16T14:09:21Z</time>
      </trkpt>
      <trkpt lat="40.583450" lon="-4.925267">
        <ele>2724.0</ele>
        <time>2015-08-16T14:09:22Z</time>
      </trkpt>
      <trkpt lat="40.583467" lon="-4.925150">
        <ele>2723.0</ele>
        <time>2015-08-16T14:09:23Z</time>
      </trkpt>
      <trkpt lat="40.583467" lon="-4.925033">
        <ele>2722.0</ele>
        <time>2015-08-16T14:09:24Z</time>
      </trkpt>
      <trkpt lat="40.583483" lon="-4.924917">
        <ele>2721.0</ele>
        <time>2015-08-16T14:09:25Z</time>
      </trkpt>
      <trkpt lat="40.583483" lon="-4.924783">
        <ele>2719.0</ele>
        <time>2015-08-16T14:09:26Z</time>
      </trkpt>
      <trkpt lat="40.583467" lon="-4.924667">
        <ele>2718.0</ele>
        <time>2015-08-16T14:09:27Z</time>
      </trkpt>
      <trkpt lat="40.583467" lon="-4.924533">
        <ele>2717.0</ele>
        <time>2015-08-16T14:09:28Z</time>
      </trkpt>
      <trkpt lat="40.583483" lon="-4.924400">
        <ele>2716.0</ele>
        <time>2015-08-16T14:09:29Z</time>
      </trkpt>
      <trkpt lat="40.583500" lon="-4.924267">
        <ele>2714.0</ele>
        <time>2015-08-16T14:09:30Z</time>
      </trkpt>
      <trkpt lat="40.583500" lon="-4.924133">
        <ele>2713.0</ele>
        <time>2015-08-16T14:09:31Z</time>
      </trkpt>
      <trkpt lat="40.583500" lon="-4.924017">
        <ele>2713.0</ele>
        <time>2015-08-16T14:09:32Z</time>
      </trkpt>
      <trkpt lat="40.583517" lon="-4.923900">
        <ele>2712.0</ele>
        <time>2015-08-16T14:09:33Z</time>
      </trkpt>
      <trkpt lat="40.583533" lon="-4.923783">
        <ele>2711.0</ele>
        <time>2015-08-16T14:09:34Z</time>
      </trkpt>
      <trkpt lat="40.583550" lon="-4.923650">
        <ele>2710.0</ele>
        <time>2015-08-16T14:09:35Z</time>
      </trkpt>
      <trkpt lat="40.583550" lon="-4.923517">
        <ele>2709.0</ele>
        <time>2015-08-16T14:09:36Z</time>
      </trkpt>
      <trkpt lat="40.583550" lon="-4.923367">
        <ele>2709.0</ele>
        <time>2015-08-16T14:09:37Z</time>
      </trkpt>
      <trkpt lat="40.583533" lon="-4.923233">
        <ele>2710.0</ele>
        <time>2015-08-16T14:09:38Z</time>
      </trkpt>
      <trkpt lat="40.583533" lon="-4.923100">
        <ele>2709.0</ele>
        <time>2015-08-16T14:09:39Z</time>
      </trkpt>
      <trkpt lat="40.583517" lon="-4.922967">
        <ele>2709.0</ele>
        <time>2015-08-16T14:09:40Z</time>
      </trkpt>
      <trkpt lat="40.583500" lon="-4.922817">
        <ele>2707.0</ele>
        <time>2015-08-16T14:09:41Z</time>
      </trkpt>
      <trkpt lat="40.583500" lon="-4.922683">
        <ele>2705.0</ele>
        <time>2015-08-16T14:09:42Z</time>
      </trkpt>
      <trkpt lat="40.583483" lon="-4.922533">
        <ele>2703.0</ele>
        <time>2015-08-16T14:09:43Z</time>
      </trkpt>
      <trkpt lat="40.583483" lon="-4.922367">
        <ele>2701.0</ele>
        <time>2015-08-16T14:09:44Z</time>
      </trkpt>
      <trkpt lat="40.583467" lon="-4.922217">
        <ele>2700.0</ele>
        <time>2015-08-16T14:09:45Z</time>
      </trkpt>
      <trkpt lat="40.583450" lon="-4.922083">
        <ele>2699.0</ele>
        <time>2015-08-16T14:09:46Z</time>
      </trkpt>
      <trkpt lat="40.583450" lon="-4.921933">
        <ele>2699.0</ele>
        <time>2015-08-16T14:09:47Z</time>
      </trkpt>
      <trkpt lat="40.583433" lon="-4.921800">
        <ele>2698.0</ele>
        <time>2015-08-16T14:09:48Z</time>
      </trkpt>
      <trkpt lat="40.583400" lon="-4.921650">
        <ele>2696.0</ele>
        <time>2015-08-16T14:09:49Z</time>
      </trkpt>
      <trkpt lat="40.583383" lon="-4.921483">
        <ele>2694.0</ele>
        <time>2015-08-16T14:09:50Z</time>
      </trkpt>
      <trkpt lat="40.583350" lon="-4.921333">
        <ele>2692.0</ele>
        <time>2015-08-16T14:09:51Z</time>
      </trkpt>
      <trkpt lat="40.583317" lon="-4.921167">
        <ele>2691.0</ele>
        <time>2015-08-16T14:09:52Z</time>
      </trkpt>
      <trkpt lat="40.583283" lon="-4.921017">
        <ele>2691.0</ele>
        <time>2015-08-16T14:09:53Z</time>
      </trkpt>
      <trkpt lat="40.583250" lon="-4.920867">
        <ele>2690.0</ele>
        <time>2015-08-16T14:09:54Z</time>
      </trkpt>
      <trkpt lat="40.583217" lon="-4.920733">
        <ele>2689.0</ele>
        <time>2015-08-16T14:09:55Z</time>
      </trkpt>
      <trkpt lat="40.583183" lon="-4.920583">
        <ele>2688.0</ele>
        <time>2015-08-16T14:09:56Z</time>
      </trkpt>
      <trkpt lat="40.583133" lon="-4.920433">
        <ele>2686.0</ele>
        <time>2015-08-16T14:09:57Z</time>
      </trkpt>
      <trkpt lat="40.583083" lon="-4.920300">
        <ele>2684.0</ele>
        <time>2015-08-16T14:09:58Z</time>
      </trkpt>
      <trkpt lat="40.583033" lon="-4.920150">
        <ele>2683.0</ele>
        <time>2015-08-16T14:09:59Z</time>
      </trkpt>
      <trkpt lat="40.582967" lon="-4.920017">
        <ele>2682.0</ele>
        <time>2015-08-16T14:10:00Z</time>
      </trkpt>
      <trkpt lat="40.582900" lon="-4.919883">
        <ele>2682.0</ele>
        <time>2015-08-16T14:10:01Z</time>
      </trkpt>
      <trkpt lat="40.582850" lon="-4.919750">
        <ele>2681.0</ele>
        <time>2015-08-16T14:10:02Z</time>
      </trkpt>
      <trkpt lat="40.582817" lon="-4.919633">
        <ele>2681.0</ele>
        <time>2015-08-16T14:10:03Z</time>
      </trkpt>
      <trkpt lat="40.582783" lon="-4.919500">
        <ele>2680.0</ele>
        <time>2015-08-16T14:10:04Z</time>
      </trkpt>
      <trkpt lat="40.582733" lon="-4.919383">
        <ele>2678.0</ele>
        <time>2015-08-16T14:10:05Z</time>
      </trkpt>
      <trkpt lat="40.582683" lon="-4.919267">
        <ele>2676.0</ele>
        <time>2015-08-16T14:10:06Z</time>
      </trkpt>
      <trkpt lat="40.582633" lon="-4.919150">
        <ele>2674.0</ele>
        <time>2015-08-16T14:10:07Z</time>
      </trkpt>
      <trkpt lat="40.582583" lon="-4.919000">
        <ele>2672.0</ele>
        <time>2015-08-16T14:10:08Z</time>
      </trkpt>
      <trkpt lat="40.582533" lon="-4.918883">
        <ele>2671.0</ele>
        <time>2015-08-16T14:10:09Z</time>
      </trkpt>
      <trkpt lat="40.582483" lon="-4.918767">
        <ele>2670.0</ele>
        <time>2015-08-16T14:10:10Z</time>
      </trkpt>
      <trkpt lat="40.582417" lon="-4.918667">
        <ele>2669.0</ele>
        <time>2015-08-16T14:10:11Z</time>
      </trkpt>
      <trkpt lat="40.582367" lon="-4.918550">
        <ele>2668.0</ele>
        <time>2015-08-16T14:10:12Z</time>
      </trkpt>
      <trkpt lat="40.582317" lon="-4.918433">
        <ele>2666.0</ele>
        <time>2015-08-16T14:10:13Z</time>
      </trkpt>
      <trkpt lat="40.582250" lon="-4.918317">
        <ele>2663.0</ele>
        <time>2015-08-16T14:10:14Z</time>
      </trkpt>
      <trkpt lat="40.582200" lon="-4.918183">
        <ele>2661.0</ele>
        <time>2015-08-16T14:10:15Z</time>
      </trkpt>
      <trkpt lat="40.582150" lon="-4.918067">
        <ele>2660.0</ele>
        <time>2015-08-16T14:10:16Z</time>
      </trkpt>
      <trkpt lat="40.582100" lon="-4.917950">
        <ele>2659.0</ele>
        <time>2015-08-16T14:10:17Z</time>
      </trkpt>
      <trkpt lat="40.582050" lon="-4.917833">
        <ele>2658.0</ele>
        <time>2015-08-16T14:10:18Z</time>
      </trkpt>
      <trkpt lat="40.582000" lon="-4.917733">
        <ele>2656.0</ele>
        <time>2015-08-16T14:10:19Z</time>
      </trkpt>
      <trkpt lat="40.581950" lon="-4.917617">
        <ele>2653.0</ele>
        <time>2015-08-16T14:10:20Z</time>
      </trkpt>
      <trkpt lat="40.581900" lon="-4.917500">
        <ele>2650.0</ele>
        <time>2015-08-16T14:10:21Z</time>
      </trkpt>
      <trkpt lat="40.581833" lon="-4.917383">
        <ele>2646.0</ele>
        <time>2015-08-16T14:10:22Z</time>
      </trkpt>
      <trkpt lat="40.581783" lon="-4.917267">
        <ele>2644.0</ele>
        <time>2015-08-16T14:10:23Z</time>
      </trkpt>
      <trkpt lat="40.581700" lon="-4.917133">
        <ele>2641.0</ele>
        <time>2015-08-16T14:10:24Z</time>
      </trkpt>
      <trkpt lat="40.581617" lon="-4.917000">
        <ele>2638.0</ele>
        <time>2015-08-16T14:10:25Z</time>
      </trkpt>
      <trkpt lat="40.581550" lon="-4.916867">
        <ele>2636.0</ele>
        <time>2015-08-16T14:10:26Z</time>
      </trkpt>
      <trkpt lat="40.581450" lon="-4.916733">
        <ele>2635.0</ele>
        <time>2015-08-16T14:10:27Z</time>
      </trkpt>
      <trkpt lat="40.581367" lon="-4.916617">
        <ele>2634.0</ele>
        <time>2015-08-16T14:10:28Z</time>
      </trkpt>
      <trkpt lat="40.581300" lon="-4.916483">
        <ele>2634.0</ele>
        <time>2015-08-16T14:10:29Z</time>
      </trkpt>
      <trkpt lat="40.581250" lon="-4.916350">
        <ele>2632.0</ele>
        <time>2015-08-16T14:10:30Z</time>
      </trkpt>
      <trkpt lat="40.581200" lon="-4.916217">
        <ele>2630.0</ele>
        <time>2015-08-16T14:10:31Z</time>
      </trkpt>
      <trkpt lat="40.581133" lon="-4.916083">
        <ele>2628.0</ele>
        <time>2015-08-16T14:10:32Z</time>
      </trkpt>
      <trkpt lat="40.581050" lon="-4.915983">
        <ele>2626.0</ele>
        <time>2015-08-16T14:10:33Z</time>
      </trkpt>
      <trkpt lat="40.580950" lon="-4.915883">
        <ele>2624.0</ele>
        <time>2015-08-16T14:10:34Z</time>
      </trkpt>
      <trkpt lat="40.580850" lon="-4.915800">
        <ele>2623.0</ele>
        <time>2015-08-16T14:10:35Z</time>
      </trkpt>
      <trkpt lat="40.580767" lon="-4.915700">
        <ele>2621.0</ele>
        <time>2015-08-16T14:10:36Z</time>
      </trkpt>
      <trkpt lat="40.580717" lon="-4.915567">
        <ele>2617.0</ele>
        <time>2015-08-16T14:10:37Z</time>
      </trkpt>
      <trkpt lat="40.580667" lon="-4.915417">
        <ele>2614.0</ele>
        <time>2015-08-16T14:10:38Z</time>
      </trkpt>
      <trkpt lat="40.580633" lon="-4.915250">
        <ele>2612.0</ele>
        <time>2015-08-16T14:10:39Z</time>
      </trkpt>
      <trkpt lat="40.580600" lon="-4.915100">
        <ele>2611.0</ele>
        <time>2015-08-16T14:10:40Z</time>
      </trkpt>
      <trkpt lat="40.580567" lon="-4.914967">
        <ele>2610.0</ele>
        <time>2015-08-16T14:10:41Z</time>
      </trkpt>
      <trkpt lat="40.580550" lon="-4.914817">
        <ele>2609.0</ele>
        <time>2015-08-16T14:10:42Z</time>
      </trkpt>
      <trkpt lat="40.580517" lon="-4.914683">
        <ele>2608.0</ele>
        <time>2015-08-16T14:10:43Z</time>
      </trkpt>
      <trkpt lat="40.580483" lon="-4.914550">
        <ele>2606.0</ele>
        <time>2015-08-16T14:10:44Z</time>
      </trkpt>
      <trkpt lat="40.580467" lon="-4.914400">
        <ele>2603.0</ele>
        <time>2015-08-16T14:10:45Z</time>
      </trkpt>
      <trkpt lat="40.580433" lon="-4.914250">
        <ele>2602.0</ele>
        <time>2015-08-16T14:10:46Z</time>
      </trkpt>
      <trkpt lat="40.580417" lon="-4.914100">
        <ele>2600.0</ele>
        <time>2015-08-16T14:10:47Z</time>
      </trkpt>
      <trkpt lat="40.580400" lon="-4.913950">
        <ele>2600.0</ele>
        <time>2015-08-16T14:10:48Z</time>
      </trkpt>
      <trkpt lat="40.580400" lon="-4.913800">
        <ele>2599.0</ele>
        <time>2015-08-16T14:10:49Z</time>
      </trkpt>
      <trkpt lat="40.580367" lon="-4.913667">
        <ele>2597.0</ele>
        <time>2015-08-16T14:10:50Z</time>
      </trkpt>
      <trkpt lat="40.580333" lon="-4.913517">
        <ele>2596.0</ele>
        <time>2015-08-16T14:10:51Z</time>
      </trkpt>
      <trkpt lat="40.580300" lon="-4.913383">
        <ele>2595.0</ele>
        <time>2015-08-16T14:10:52Z</time>
      </trkpt>
      <trkpt lat="40.580267" lon="-4.913233">
        <ele>2593.0</ele>
        <time>2015-08-16T14:10:53Z</time>
      </trkpt>
      <trkpt lat="40.580233" lon="-4.913100">
        <ele>2592.0</ele>
        <time>2015-08-16T14:10:54Z</time>
      </trkpt>
      <trkpt lat="40.580200" lon="-4.912967">
        <ele>2590.0</ele>
        <time>2015-08-16T14:10:55Z</time>
      </trkpt>
      <trkpt lat="40.580150" lon="-4.912833">
        <ele>2589.0</ele>
        <time>2015-08-16T14:10:56Z</time>
      </trkpt>
      <trkpt lat="40.580083" lon="-4.912700">
        <ele>2587.0</ele>
        <time>2015-08-16T14:10:57Z</time>
      </trkpt>
      <trkpt lat="40.580017" lon="-4.912567">
        <ele>2586.0</ele>
        <time>2015-08-16T14:10:58Z</time>
      </trkpt>
      <trkpt lat="40.579950" lon="-4.912450">
        <ele>2584.0</ele>
        <time>2015-08-16T14:10:59Z</time>
      </trkpt>
      <trkpt lat="40.579883" lon="-4.912317">
        <ele>2583.0</ele>
        <time>2015-08-16T14:11:00Z</time>
      </trkpt>
      <trkpt lat="40.579833" lon="-4.912183">
        <ele>2581.0</ele>
        <time>2015-08-16T14:11:01Z</time>
      </trkpt>
      <trkpt lat="40.579800" lon="-4.912033">
        <ele>2580.0</ele>
        <time>2015-08-16T14:11:02Z</time>
      </trkpt>
      <trkpt lat="40.579767" lon="-4.911883">
        <ele>2579.0</ele>
        <time>2015-08-16T14:11:03Z</time>
      </trkpt>
      <trkpt lat="40.579767" lon="-4.911750">
        <ele>2578.0</ele>
        <time>2015-08-16T14:11:04Z</time>
      </trkpt>
      <trkpt lat="40.579783" lon="-4.911617">
        <ele>2577.0</ele>
        <time>2015-08-16T14:11:05Z</time>
      </trkpt>
      <trkpt lat="40.579817" lon="-4.911483">
        <ele>2576.0</ele>
        <time>2015-08-16T14:11:06Z</time>
      </trkpt>
      <trkpt lat="40.579833" lon="-4.911333">
        <ele>2574.0</ele>
        <time>2015-08-16T14:11:07Z</time>
      </trkpt>
      <trkpt lat="40.579850" lon="-4.911183">
        <ele>2572.0</ele>
        <time>2015-08-16T14:11:08Z</time>
      </trkpt>
      <trkpt lat="40.579850" lon="-4.911033">
        <ele>2571.0</ele>
        <time>2015-08-16T14:11:09Z</time>
      </trkpt>
      <trkpt lat="40.579883" lon="-4.910900">
        <ele>2570.0</ele>
        <time>2015-08-16T14:11:10Z</time>
      </trkpt>
      <trkpt lat="40.579950" lon="-4.910783">
        <ele>2568.0</ele>
        <time>2015-08-16T14:11:11Z</time>
      </trkpt>
      <trkpt lat="40.580000" lon="-4.910667">
        <ele>2568.0</ele>
        <time>2015-08-16T14:11:12Z</time>
      </trkpt>
      <trkpt lat="40.580050" lon="-4.910550">
        <ele>2568.0</ele>
        <time>2015-08-16T14:11:13Z</time>
      </trkpt>
      <trkpt lat="40.580067" lon="-4.910417">
        <ele>2569.0</ele>
        <time>2015-08-16T14:11:14Z</time>
      </trkpt>
      <trkpt lat="40.580083" lon="-4.910283">
        <ele>2571.0</ele>
        <time>2015-08-16T14:11:15Z</time>
      </trkpt>
      <trkpt lat="40.580100" lon="-4.910167">
        <ele>2572.0</ele>
        <time>2015-08-16T14:11:16Z</time>
      </trkpt>
      <trkpt lat="40.580100" lon="-4.910050">
        <ele>2571.0</ele>
        <time>2015-08-16T14:11:17Z</time>
      </trkpt>
      <trkpt lat="40.580117" lon="-4.909933">
        <ele>2568.0</ele>
        <time>2015-08-16T14:11:18Z</time>
      </trkpt>
      <trkpt lat="40.580133" lon="-4.909800">
        <ele>2565.0</ele>
        <time>2015-08-16T14:11:19Z</time>
      </trkpt>
      <trkpt lat="40.580150" lon="-4.909650">
        <ele>2561.0</ele>
        <time>2015-08-16T14:11:20Z</time>
      </trkpt>
      <trkpt lat="40.580167" lon="-4.909483">
        <ele>2557.0</ele>
        <time>2015-08-16T14:11:21Z</time>
      </trkpt>
      <trkpt lat="40.580167" lon="-4.909317">
        <ele>2554.0</ele>
        <time>2015-08-16T14:11:22Z</time>
      </trkpt>
      <trkpt lat="40.580200" lon="-4.909167">
        <ele>2551.0</ele>
        <time>2015-08-16T14:11:23Z</time>
      </trkpt>
      <trkpt lat="40.580217" lon="-4.909017">
        <ele>2549.0</ele>
        <time>2015-08-16T14:11:24Z</time>
      </trkpt>
      <trkpt lat="40.580233" lon="-4.908850">
        <ele>2546.0</ele>
        <time>2015-08-16T14:11:25Z</time>
      </trkpt>
      <trkpt lat="40.580233" lon="-4.908683">
        <ele>2543.0</ele>
        <time>2015-08-16T14:11:26Z</time>
      </trkpt>
      <trkpt lat="40.580233" lon="-4.908517">
        <ele>2541.0</ele>
        <time>2015-08-16T14:11:27Z</time>
      </trkpt>
      <trkpt lat="40.580233" lon="-4.908350">
        <ele>2539.0</ele>
        <time>2015-08-16T14:11:28Z</time>
      </trkpt>
      <trkpt lat="40.580233" lon="-4.908200">
        <ele>2538.0</ele>
        <time>2015-08-16T14:11:29Z</time>
      </trkpt>
      <trkpt lat="40.580233" lon="-4.908050">
        <ele>2536.0</ele>
        <time>2015-08-16T14:11:30Z</time>
      </trkpt>
      <trkpt lat="40.580233" lon="-4.907900">
        <ele>2534.0</ele>
        <time>2015-08-16T14:11:31Z</time>
      </trkpt>
      <trkpt lat="40.580233" lon="-4.907750">
        <ele>2532.0</ele>
        <time>2015-08-16T14:11:32Z</time>
      </trkpt>
      <trkpt lat="40.580233" lon="-4.907583">
        <ele>2531.0</ele>
        <time>2015-08-16T14:11:33Z</time>
      </trkpt>
      <trkpt lat="40.580250" lon="-4.907433">
        <ele>2529.0</ele>
        <time>2015-08-16T14:11:34Z</time>
      </trkpt>
      <trkpt lat="40.580250" lon="-4.907267">
        <ele>2527.0</ele>
        <time>2015-08-16T14:11:35Z</time>
      </trkpt>
      <trkpt lat="40.580250" lon="-4.907100">
        <ele>2526.0</ele>
        <time>2015-08-16T14:11:36Z</time>
      </trkpt>
      <trkpt lat="40.580250" lon="-4.906933">
        <ele>2525.0</ele>
        <time>2015-08-16T14:11:37Z</time>
      </trkpt>
      <trkpt lat="40.580233" lon="-4.906783">
        <ele>2525.0</ele>
        <time>2015-08-16T14:11:38Z</time>
      </trkpt>
      <trkpt lat="40.580217" lon="-4.906633">
        <ele>2525.0</ele>
        <time>2015-08-16T14:11:39Z</time>
      </trkpt>
      <trkpt lat="40.580183" lon="-4.906483">
        <ele>2524.0</ele>
        <time>2015-08-16T14:11:40Z</time>
      </trkpt>
      <trkpt lat="40.580133" lon="-4.906333">
        <ele>2523.0</ele>
        <time>2015-08-16T14:11:41Z</time>
      </trkpt>
      <trkpt lat="40.580083" lon="-4.906167">
        <ele>2523.0</ele>
        <time>2015-08-16T14:11:42Z</time>
      </trkpt>
      <trkpt lat="40.580050" lon="-4.906017">
        <ele>2523.0</ele>
        <time>2015-08-16T14:11:43Z</time>
      </trkpt>
      <trkpt lat="40.580017" lon="-4.905850">
        <ele>2523.0</ele>
        <time>2015-08-16T14:11:44Z</time>
      </trkpt>
      <trkpt lat="40.579983" lon="-4.905683">
        <ele>2523.0</ele>
        <time>2015-08-16T14:11:45Z</time>
      </trkpt>
      <trkpt lat="40.579967" lon="-4.905533">
        <ele>2523.0</ele>
        <time>2015-08-16T14:11:46Z</time>
      </trkpt>
      <trkpt lat="40.579967" lon="-4.905383">
        <ele>2523.0</ele>
        <time>2015-08-16T14:11:47Z</time>
      </trkpt>
      <trkpt lat="40.579983" lon="-4.905233">
        <ele>2523.0</ele>
        <time>2015-08-16T14:11:48Z</time>
      </trkpt>
      <trkpt lat="40.580017" lon="-4.905100">
        <ele>2522.0</ele>
        <time>2015-08-16T14:11:49Z</time>
      </trkpt>
      <trkpt lat="40.580033" lon="-4.904950">
        <ele>2520.0</ele>
        <time>2015-08-16T14:11:50Z</time>
      </trkpt>
      <trkpt lat="40.580067" lon="-4.904783">
        <ele>2518.0</ele>
        <time>2015-08-16T14:11:51Z</time>
      </trkpt>
      <trkpt lat="40.580100" lon="-4.904633">
        <ele>2517.0</ele>
        <time>2015-08-16T14:11:52Z</time>
      </trkpt>
      <trkpt lat="40.580133" lon="-4.904483">
        <ele>2518.0</ele>
        <time>2015-08-16T14:11:53Z</time>
      </trkpt>
      <trkpt lat="40.580183" lon="-4.904350">
        <ele>2517.0</ele>
        <time>2015-08-16T14:11:54Z</time>
      </trkpt>
      <trkpt lat="40.580217" lon="-4.904233">
        <ele>2516.0</ele>
        <time>2015-08-16T14:11:55Z</time>
      </trkpt>
      <trkpt lat="40.580267" lon="-4.904100">
        <ele>2513.0</ele>
        <time>2015-08-16T14:11:56Z</time>
      </trkpt>
      <trkpt lat="40.580333" lon="-4.903967">
        <ele>2510.0</ele>
        <time>2015-08-16T14:11:57Z</time>
      </trkpt>
      <trkpt lat="40.580400" lon="-4.903817">
        <ele>2508.0</ele>
        <time>2015-08-16T14:11:58Z</time>
      </trkpt>
      <trkpt lat="40.580467" lon="-4.903667">
        <ele>2507.0</ele>
        <time>2015-08-16T14:11:59Z</time>
      </trkpt>
      <trkpt lat="40.580517" lon="-4.903517">
        <ele>2505.0</ele>
        <time>2015-08-16T14:12:00Z</time>
      </trkpt>
      <trkpt lat="40.580567" lon="-4.903367">
        <ele>2504.0</ele>
        <time>2015-08-16T14:12:01Z</time>
      </trkpt>
      <trkpt lat="40.580617" lon="-4.903217">
        <ele>2501.0</ele>
        <time>2015-08-16T14:12:02Z</time>
      </trkpt>
      <trkpt lat="40.580667" lon="-4.903083">
        <ele>2498.0</ele>
        <time>2015-08-16T14:12:03Z</time>
      </trkpt>
      <trkpt lat="40.580733" lon="-4.902933">
        <ele>2494.0</ele>
        <time>2015-08-16T14:12:04Z</time>
      </trkpt>
      <trkpt lat="40.580800" lon="-4.902783">
        <ele>2491.0</ele>
        <time>2015-08-16T14:12:05Z</time>
      </trkpt>
      <trkpt lat="40.580883" lon="-4.902633">
        <ele>2489.0</ele>
        <time>2015-08-16T14:12:06Z</time>
      </trkpt>
      <trkpt lat="40.580950" lon="-4.902500">
        <ele>2490.0</ele>
        <time>2015-08-16T14:12:07Z</time>
      </trkpt>
      <trkpt lat="40.581000" lon="-4.902367">
        <ele>2491.0</ele>
        <time>2015-08-16T14:12:08Z</time>
      </trkpt>
      <trkpt lat="40.581033" lon="-4.902250">
        <ele>2490.0</ele>
        <time>2015-08-16T14:12:09Z</time>
      </trkpt>
      <trkpt lat="40.581067" lon="-4.902133">
        <ele>2488.0</ele>
        <time>2015-08-16T14:12:10Z</time>
      </trkpt>
      <trkpt lat="40.581100" lon="-4.902017">
        <ele>2486.0</ele>
        <time>2015-08-16T14:12:11Z</time>
      </trkpt>
      <trkpt lat="40.581133" lon="-4.901900">
        <ele>2483.0</ele>
        <time>2015-08-16T14:12:12Z</time>
      </trkpt>
      <trkpt lat="40.581167" lon="-4.901750">
        <ele>2480.0</ele>
        <time>2015-08-16T14:12:13Z</time>
      </trkpt>
      <trkpt lat="40.581200" lon="-4.901617">
        <ele>2478.0</ele>
        <time>2015-08-16T14:12:14Z</time>
      </trkpt>
      <trkpt lat="40.581233" lon="-4.901483">
        <ele>2478.0</ele>
        <time>2015-08-16T14:12:15Z</time>
      </trkpt>
      <trkpt lat="40.581267" lon="-4.901350">
        <ele>2477.0</ele>
        <time>2015-08-16T14:12:16Z</time>
      </trkpt>
      <trkpt lat="40.581300" lon="-4.901233">
        <ele>2476.0</ele>
        <time>2015-08-16T14:12:17Z</time>
      </trkpt>
      <trkpt lat="40.581317" lon="-4.901133">
        <ele>2474.0</ele>
        <time>2015-08-16T14:12:18Z</time>
      </trkpt>
      <trkpt lat="40.581350" lon="-4.901017">
        <ele>2472.0</ele>
        <time>2015-08-16T14:12:19Z</time>
      </trkpt>
      <trkpt lat="40.581383" lon="-4.900900">
        <ele>2470.0</ele>
        <time>2015-08-16T14:12:20Z</time>
      </trkpt>
      <trkpt lat="40.581400" lon="-4.900767">
        <ele>2468.0</ele>
        <time>2015-08-16T14:12:21Z</time>
      </trkpt>
      <trkpt lat="40.581433" lon="-4.900633">
        <ele>2465.0</ele>
        <time>2015-08-16T14:12:22Z</time>
      </trkpt>
      <trkpt lat="40.581450" lon="-4.900500">
        <ele>2463.0</ele>
        <time>2015-08-16T14:12:23Z</time>
      </trkpt>
      <trkpt lat="40.581483" lon="-4.900367">
        <ele>2461.0</ele>
        <time>2015-08-16T14:12:24Z</time>
      </trkpt>
      <trkpt lat="40.581517" lon="-4.900233">
        <ele>2459.0</ele>
        <time>2015-08-16T14:12:25Z</time>
      </trkpt>
      <trkpt lat="40.581533" lon="-4.900117">
        <ele>2457.0</ele>
        <time>2015-08-16T14:12:26Z</time>
      </trkpt>
      <trkpt lat="40.581567" lon="-4.899983">
        <ele>2456.0</ele>
        <time>2015-08-16T14:12:27Z</time>
      </trkpt>
      <trkpt lat="40.581600" lon="-4.899850">
        <ele>2453.0</ele>
        <time>2015-08-16T14:12:28Z</time>
      </trkpt>
      <trkpt lat="40.581633" lon="-4.899733">
        <ele>2451.0</ele>
        <time>2015-08-16T14:12:29Z</time>
      </trkpt>
      <trkpt lat="40.581683" lon="-4.899633">
        <ele>2449.0</ele>
        <time>2015-08-16T14:12:30Z</time>
      </trkpt>
      <trkpt lat="40.581733" lon="-4.899533">
        <ele>2447.0</ele>
        <time>2015-08-16T14:12:31Z</time>
      </trkpt>
      <trkpt lat="40.581767" lon="-4.899433">
        <ele>2446.0</ele>
        <time>2015-08-16T14:12:32Z</time>
      </trkpt>
      <trkpt lat="40.581817" lon="-4.899350">
        <ele>2443.0</ele>
        <time>2015-08-16T14:12:33Z</time>
      </trkpt>
      <trkpt lat="40.581850" lon="-4.899250">
        <ele>2441.0</ele>
        <time>2015-08-16T14:12:34Z</time>
      </trkpt>
      <trkpt lat="40.581883" lon="-4.899133">
        <ele>2438.0</ele>
        <time>2015-08-16T14:12:35Z</time>
      </trkpt>
      <trkpt lat="40.581933" lon="-4.899033">
        <ele>2436.0</ele>
        <time>2015-08-16T14:12:36Z</time>
      </trkpt>
      <trkpt lat="40.581967" lon="-4.898933">
        <ele>2434.0</ele>
        <time>2015-08-16T14:12:37Z</time>
      </trkpt>
      <trkpt lat="40.582017" lon="-4.898817">
        <ele>2432.0</ele>
        <time>2015-08-16T14:12:38Z</time>
      </trkpt>
      <trkpt lat="40.582067" lon="-4.898717">
        <ele>2430.0</ele>
        <time>2015-08-16T14:12:39Z</time>
      </trkpt>
      <trkpt lat="40.582117" lon="-4.898617">
        <ele>2429.0</ele>
        <time>2015-08-16T14:12:40Z</time>
      </trkpt>
      <trkpt lat="40.582167" lon="-4.898517">
        <ele>2428.0</ele>
        <time>2015-08-16T14:12:41Z</time>
      </trkpt>
      <trkpt lat="40.582200" lon="-4.898417">
        <ele>2427.0</ele>
        <time>2015-08-16T14:12:42Z</time>
      </trkpt>
      <trkpt lat="40.582250" lon="-4.898333">
        <ele>2425.0</ele>
        <time>2015-08-16T14:12:43Z</time>
      </trkpt>
      <trkpt lat="40.582300" lon="-4.898233">
        <ele>2424.0</ele>
        <time>2015-08-16T14:12:44Z</time>
      </trkpt>
      <trkpt lat="40.582350" lon="-4.898117">
        <ele>2422.0</ele>
        <time>2015-08-16T14:12:45Z</time>
      </trkpt>
      <trkpt lat="40.582400" lon="-4.898000">
        <ele>2421.0</ele>
        <time>2015-08-16T14:12:46Z</time>
      </trkpt>
      <trkpt lat="40.582450" lon="-4.897883">
        <ele>2420.0</ele>
        <time>2015-08-16T14:12:47Z</time>
      </trkpt>
      <trkpt lat="40.582500" lon="-4.897767">
        <ele>2420.0</ele>
        <time>2015-08-16T14:12:48Z</time>
      </trkpt>
      <trkpt lat="40.582550" lon="-4.897650">
        <ele>2420.0</ele>
        <time>2015-08-16T14:12:49Z</time>
      </trkpt>
      <trkpt lat="40.582583" lon="-4.897533">
        <ele>2420.0</ele>
        <time>2015-08-16T14:12:50Z</time>
      </trkpt>
      <trkpt lat="40.582633" lon="-4.897433">
        <ele>2420.0</ele>
        <time>2015-08-16T14:12:51Z</time>
      </trkpt>
      <trkpt lat="40.582683" lon="-4.897317">
        <ele>2419.0</ele>
        <time>2015-08-16T14:12:52Z</time>
      </trkpt>
      <trkpt lat="40.582717" lon="-4.897200">
        <ele>2419.0</ele>
        <time>2015-08-16T14:12:53Z</time>
      </trkpt>
      <trkpt lat="40.582767" lon="-4.897083">
        <ele>2418.0</ele>
        <time>2015-08-16T14:12:54Z</time>
      </trkpt>
      <trkpt lat="40.582800" lon="-4.896967">
        <ele>2417.0</ele>
        <time>2015-08-16T14:12:55Z</time>
      </trkpt>
      <trkpt lat="40.582833" lon="-4.896850">
        <ele>2416.0</ele>
        <time>2015-08-16T14:12:56Z</time>
      </trkpt>
      <trkpt lat="40.582867" lon="-4.896733">
        <ele>2415.0</ele>
        <time>2015-08-16T14:12:57Z</time>
      </trkpt>
      <trkpt lat="40.582900" lon="-4.896633">
        <ele>2414.0</ele>
        <time>2015-08-16T14:12:58Z</time>
      </trkpt>
      <trkpt lat="40.582950" lon="-4.896517">
        <ele>2412.0</ele>
        <time>2015-08-16T14:12:59Z</time>
      </trkpt>
      <trkpt lat="40.583000" lon="-4.896400">
        <ele>2411.0</ele>
        <time>2015-08-16T14:13:00Z</time>
      </trkpt>
      <trkpt lat="40.583050" lon="-4.896300">
        <ele>2409.0</ele>
        <time>2015-08-16T14:13:01Z</time>
      </trkpt>
      <trkpt lat="40.583100" lon="-4.896200">
        <ele>2407.0</ele>
        <time>2015-08-16T14:13:02Z</time>
      </trkpt>
      <trkpt lat="40.583150" lon="-4.896100">
        <ele>2405.0</ele>
        <time>2015-08-16T14:13:03Z</time>
      </trkpt>
      <trkpt lat="40.583217" lon="-4.896017">
        <ele>2402.0</ele>
        <time>2015-08-16T14:13:04Z</time>
      </trkpt>
      <trkpt lat="40.583283" lon="-4.895933">
        <ele>2400.0</ele>
        <time>2015-08-16T14:13:05Z</time>
      </trkpt>
      <trkpt lat="40.583350" lon="-4.895833">
        <ele>2397.0</ele>
        <time>2015-08-16T14:13:06Z</time>
      </trkpt>
      <trkpt lat="40.583417" lon="-4.895733">
        <ele>2394.0</ele>
        <time>2015-08-16T14:13:07Z</time>
      </trkpt>
      <trkpt lat="40.583483" lon="-4.895633">
        <ele>2393.0</ele>
        <time>2015-08-16T14:13:08Z</time>
      </trkpt>
      <trkpt lat="40.583533" lon="-4.895533">
        <ele>2393.0</ele>
        <time>2015-08-16T14:13:09Z</time>
      </trkpt>
      <trkpt lat="40.583600" lon="-4.895433">
        <ele>2393.0</ele>
        <time>2015-08-16T14:13:10Z</time>
      </trkpt>
      <trkpt lat="40.583667" lon="-4.895333">
        <ele>2392.0</ele>
        <time>2015-08-16T14:13:11Z</time>
      </trkpt>
      <trkpt lat="40.583717" lon="-4.895233">
        <ele>2390.0</ele>
        <time>2015-08-16T14:13:12Z</time>
      </trkpt>
      <trkpt lat="40.583783" lon="-4.895133">
        <ele>2389.0</ele>
        <time>2015-08-16T14:13:13Z</time>
      </trkpt>
      <trkpt lat="40.583833" lon="-4.895017">
        <ele>2387.0</ele>
        <time>2015-08-16T14:13:14Z</time>
      </trkpt>
      <trkpt lat="40.583883" lon="-4.894900">
        <ele>2387.0</ele>
        <time>2015-08-16T14:13:15Z</time>
      </trkpt>
      <trkpt lat="40.583933" lon="-4.894783">
        <ele>2386.0</ele>
        <time>2015-08-16T14:13:16Z</time>
      </trkpt>
      <trkpt lat="40.583983" lon="-4.894667">
        <ele>2386.0</ele>
        <time>2015-08-16T14:13:17Z</time>
      </trkpt>
      <trkpt lat="40.584033" lon="-4.894567">
        <ele>2386.0</ele>
        <time>2015-08-16T14:13:18Z</time>
      </trkpt>
      <trkpt lat="40.584083" lon="-4.894467">
        <ele>2385.0</ele>
        <time>2015-08-16T14:13:19Z</time>
      </trkpt>
      <trkpt lat="40.584133" lon="-4.894367">
        <ele>2384.0</ele>
        <time>2015-08-16T14:13:20Z</time>
      </trkpt>
      <trkpt lat="40.584183" lon="-4.894267">
        <ele>2382.0</ele>
        <time>2015-08-16T14:13:21Z</time>
      </trkpt>
      <trkpt lat="40.584233" lon="-4.894150">
        <ele>2380.0</ele>
        <time>2015-08-16T14:13:22Z</time>
      </trkpt>
      <trkpt lat="40.584283" lon="-4.894033">
        <ele>2379.0</ele>
        <time>2015-08-16T14:13:23Z</time>
      </trkpt>
      <trkpt lat="40.584333" lon="-4.893917">
        <ele>2378.0</ele>
        <time>2015-08-16T14:13:24Z</time>
      </trkpt>
      <trkpt lat="40.584383" lon="-4.893800">
        <ele>2379.0</ele>
        <time>2015-08-16T14:13:25Z</time>
      </trkpt>
      <trkpt lat="40.584417" lon="-4.893717">
        <ele>2379.0</ele>
        <time>2015-08-16T14:13:26Z</time>
      </trkpt>
      <trkpt lat="40.584467" lon="-4.893617">
        <ele>2378.0</ele>
        <time>2015-08-16T14:13:27Z</time>
      </trkpt>
      <trkpt lat="40.584517" lon="-4.893517">
        <ele>2376.0</ele>
        <time>2015-08-16T14:13:28Z</time>
      </trkpt>
      <trkpt lat="40.584567" lon="-4.893417">
        <ele>2374.0</ele>
        <time>2015-08-16T14:13:29Z</time>
      </trkpt>
      <trkpt lat="40.584633" lon="-4.893300">
        <ele>2373.0</ele>
        <time>2015-08-16T14:13:30Z</time>
      </trkpt>
      <trkpt lat="40.584700" lon="-4.893183">
        <ele>2373.0</ele>
        <time>2015-08-16T14:13:31Z</time>
      </trkpt>
      <trkpt lat="40.584750" lon="-4.893083">
        <ele>2374.0</ele>
        <time>2015-08-16T14:13:32Z</time>
      </trkpt>
      <trkpt lat="40.584800" lon="-4.892983">
        <ele>2375.0</ele>
        <time>2015-08-16T14:13:33Z</time>
      </trkpt>
      <trkpt lat="40.584833" lon="-4.892883">
        <ele>2375.0</ele>
        <time>2015-08-16T14:13:34Z</time>
      </trkpt>
      <trkpt lat="40.584883" lon="-4.892783">
        <ele>2376.0</ele>
        <time>2015-08-16T14:13:35Z</time>
      </trkpt>
      <trkpt lat="40.584917" lon="-4.892683">
        <ele>2377.0</ele>
        <time>2015-08-16T14:13:36Z</time>
      </trkpt>
      <trkpt lat="40.584967" lon="-4.892600">
        <ele>2377.0</ele>
        <time>2015-08-16T14:13:37Z</time>
      </trkpt>
      <trkpt lat="40.585000" lon="-4.892517">
        <ele>2378.0</ele>
        <time>2015-08-16T14:13:38Z</time>
      </trkpt>
      <trkpt lat="40.585050" lon="-4.892433">
        <ele>2378.0</ele>
        <time>2015-08-16T14:13:39Z</time>
      </trkpt>
      <trkpt lat="40.585100" lon="-4.892333">
        <ele>2378.0</ele>
        <time>2015-08-16T14:13:40Z</time>
      </trkpt>
      <trkpt lat="40.585150" lon="-4.892233">
        <ele>2378.0</ele>
        <time>2015-08-16T14:13:41Z</time>
      </trkpt>
      <trkpt lat="40.585183" lon="-4.892150">
        <ele>2379.0</ele>
        <time>2015-08-16T14:13:42Z</time>
      </trkpt>
      <trkpt lat="40.585233" lon="-4.892050">
        <ele>2381.0</ele>
        <time>2015-08-16T14:13:43Z</time>
      </trkpt>
      <trkpt lat="40.585283" lon="-4.891967">
        <ele>2382.0</ele>
        <time>2015-08-16T14:13:44Z</time>
      </trkpt>
      <trkpt lat="40.585317" lon="-4.891883">
        <ele>2382.0</ele>
        <time>2015-08-16T14:13:45Z</time>
      </trkpt>
      <trkpt lat="40.585367" lon="-4.891783">
        <ele>2381.0</ele>
        <time>2015-08-16T14:13:46Z</time>
      </trkpt>
      <trkpt lat="40.585417" lon="-4.891700">
        <ele>2380.0</ele>
        <time>2015-08-16T14:13:47Z</time>
      </trkpt>
      <trkpt lat="40.585467" lon="-4.891583">
        <ele>2379.0</ele>
        <time>2015-08-16T14:13:48Z</time>
      </trkpt>
      <trkpt lat="40.585517" lon="-4.891483">
        <ele>2378.0</ele>
        <time>2015-08-16T14:13:49Z</time>
      </trkpt>
      <trkpt lat="40.585550" lon="-4.891383">
        <ele>2378.0</ele>
        <time>2015-08-16T14:13:50Z</time>
      </trkpt>
      <trkpt lat="40.585600" lon="-4.891267">
        <ele>2378.0</ele>
        <time>2015-08-16T14:13:51Z</time>
      </trkpt>
      <trkpt lat="40.585633" lon="-4.891167">
        <ele>2378.0</ele>
        <time>2015-08-16T14:13:52Z</time>
      </trkpt>
      <trkpt lat="40.585683" lon="-4.891067">
        <ele>2378.0</ele>
        <time>2015-08-16T14:13:53Z</time>
      </trkpt>
      <trkpt lat="40.585733" lon="-4.890967">
        <ele>2378.0</ele>
        <time>2015-08-16T14:13:54Z</time>
      </trkpt>
      <trkpt lat="40.585783" lon="-4.890883">
        <ele>2378.0</ele>
        <time>2015-08-16T14:13:55Z</time>
      </trkpt>
      <trkpt lat="40.585833" lon="-4.890783">
        <ele>2378.0</ele>
        <time>2015-08-16T14:13:56Z</time>
      </trkpt>
      <trkpt lat="40.585883" lon="-4.890683">
        <ele>2377.0</ele>
        <time>2015-08-16T14:13:57Z</time>
      </trkpt>
      <trkpt lat="40.585950" lon="-4.890583">
        <ele>2377.0</ele>
        <time>2015-08-16T14:13:58Z</time>
      </trkpt>
      <trkpt lat="40.586000" lon="-4.890500">
        <ele>2376.0</ele>
        <time>2015-08-16T14:13:59Z</time>
      </trkpt>
      <trkpt lat="40.586067" lon="-4.890400">
        <ele>2376.0</ele>
        <time>2015-08-16T14:14:00Z</time>
      </trkpt>
      <trkpt lat="40.586150" lon="-4.890300">
        <ele>2375.0</ele>
        <time>2015-08-16T14:14:01Z</time>
      </trkpt>
      <trkpt lat="40.586233" lon="-4.890200">
        <ele>2374.0</ele>
        <time>2015-08-16T14:14:02Z</time>
      </trkpt>
      <trkpt lat="40.586300" lon="-4.890083">
        <ele>2373.0</ele>
        <time>2015-08-16T14:14:03Z</time>
      </trkpt>
      <trkpt lat="40.586367" lon="-4.889967">
        <ele>2372.0</ele>
        <time>2015-08-16T14:14:04Z</time>
      </trkpt>
      <trkpt lat="40.586417" lon="-4.889867">
        <ele>2371.0</ele>
        <time>2015-08-16T14:14:05Z</time>
      </trkpt>
      <trkpt lat="40.586467" lon="-4.889750">
        <ele>2369.0</ele>
        <time>2015-08-16T14:14:06Z</time>
      </trkpt>
      <trkpt lat="40.586517" lon="-4.889650">
        <ele>2367.0</ele>
        <time>2015-08-16T14:14:07Z</time>
      </trkpt>
      <trkpt lat="40.586583" lon="-4.889533">
        <ele>2366.0</ele>
        <time>2015-08-16T14:14:08Z</time>
      </trkpt>
      <trkpt lat="40.586633" lon="-4.889400">
        <ele>2365.0</ele>
        <time>2015-08-16T14:14:09Z</time>
      </trkpt>
      <trkpt lat="40.586683" lon="-4.889283">
        <ele>2364.0</ele>
        <time>2015-08-16T14:14:10Z</time>
      </trkpt>
      <trkpt lat="40.586717" lon="-4.889167">
        <ele>2365.0</ele>
        <time>2015-08-16T14:14:11Z</time>
      </trkpt>
      <trkpt lat="40.586767" lon="-4.889067">
        <ele>2365.0</ele>
        <time>2015-08-16T14:14:12Z</time>
      </trkpt>
      <trkpt lat="40.586800" lon="-4.888950">
        <ele>2364.0</ele>
        <time>2015-08-16T14:14:13Z</time>
      </trkpt>
      <trkpt lat="40.586833" lon="-4.888850">
        <ele>2362.0</ele>
        <time>2015-08-16T14:14:14Z</time>
      </trkpt>
      <trkpt lat="40.586883" lon="-4.888733">
        <ele>2360.0</ele>
        <time>2015-08-16T14:14:15Z</time>
      </trkpt>
      <trkpt lat="40.586933" lon="-4.888600">
        <ele>2357.0</ele>
        <time>2015-08-16T14:14:16Z</time>
      </trkpt>
      <trkpt lat="40.586983" lon="-4.888450">
        <ele>2354.0</ele>
        <time>2015-08-16T14:14:17Z</time>
      </trkpt>
      <trkpt lat="40.587033" lon="-4.888300">
        <ele>2353.0</ele>
        <time>2015-08-16T14:14:18Z</time>
      </trkpt>
      <trkpt lat="40.587100" lon="-4.888167">
        <ele>2353.0</ele>
        <time>2015-08-16T14:14:19Z</time>
      </trkpt>
      <trkpt lat="40.587150" lon="-4.888050">
        <ele>2353.0</ele>
        <time>2015-08-16T14:14:20Z</time>
      </trkpt>
      <trkpt lat="40.587200" lon="-4.887950">
        <ele>2353.0</ele>
        <time>2015-08-16T14:14:21Z</time>
      </trkpt>
      <trkpt lat="40.587250" lon="-4.887833">
        <ele>2353.0</ele>
        <time>2015-08-16T14:14:22Z</time>
      </trkpt>
      <trkpt lat="40.587300" lon="-4.887717">
        <ele>2351.0</ele>
        <time>2015-08-16T14:14:23Z</time>
      </trkpt>
      <trkpt lat="40.587350" lon="-4.887600">
        <ele>2350.0</ele>
        <time>2015-08-16T14:14:24Z</time>
      </trkpt>
      <trkpt lat="40.587417" lon="-4.887467">
        <ele>2350.0</ele>
        <time>2015-08-16T14:14:25Z</time>
      </trkpt>
      <trkpt lat="40.587467" lon="-4.887350">
        <ele>2350.0</ele>
        <time>2015-08-16T14:14:26Z</time>
      </trkpt>
      <trkpt lat="40.587517" lon="-4.887233">
        <ele>2352.0</ele>
        <time>2015-08-16T14:14:27Z</time>
      </trkpt>
      <trkpt lat="40.587550" lon="-4.887150">
        <ele>2353.0</ele>
        <time>2015-08-16T14:14:28Z</time>
      </trkpt>
      <trkpt lat="40.587600" lon="-4.887050">
        <ele>2354.0</ele>
        <time>2015-08-16T14:14:29Z</time>
      </trkpt>
      <trkpt lat="40.587633" lon="-4.886950">
        <ele>2353.0</ele>
        <time>2015-08-16T14:14:30Z</time>
      </trkpt>
      <trkpt lat="40.587667" lon="-4.886850">
        <ele>2352.0</ele>
        <time>2015-08-16T14:14:31Z</time>
      </trkpt>
      <trkpt lat="40.587700" lon="-4.886750">
        <ele>2351.0</ele>
        <time>2015-08-16T14:14:32Z</time>
      </trkpt>
      <trkpt lat="40.587733" lon="-4.886633">
        <ele>2350.0</ele>
        <time>2015-08-16T14:14:33Z</time>
      </trkpt>
      <trkpt lat="40.587750" lon="-4.886517">
        <ele>2349.0</ele>
        <time>2015-08-16T14:14:34Z</time>
      </trkpt>
      <trkpt lat="40.587783" lon="-4.886400">
        <ele>2347.0</ele>
        <time>2015-08-16T14:14:35Z</time>
      </trkpt>
      <trkpt lat="40.587817" lon="-4.886267">
        <ele>2346.0</ele>
        <time>2015-08-16T14:14:36Z</time>
      </trkpt>
      <trkpt lat="40.587833" lon="-4.886150">
        <ele>2345.0</ele>
        <time>2015-08-16T14:14:37Z</time>
      </trkpt>
      <trkpt lat="40.587867" lon="-4.886033">
        <ele>2344.0</ele>
        <time>2015-08-16T14:14:38Z</time>
      </trkpt>
      <trkpt lat="40.587900" lon="-4.885900">
        <ele>2343.0</ele>
        <time>2015-08-16T14:14:39Z</time>
      </trkpt>
      <trkpt lat="40.587933" lon="-4.885783">
        <ele>2342.0</ele>
        <time>2015-08-16T14:14:40Z</time>
      </trkpt>
      <trkpt lat="40.587967" lon="-4.885667">
        <ele>2341.0</ele>
        <time>2015-08-16T14:14:41Z</time>
      </trkpt>
      <trkpt lat="40.588017" lon="-4.885550">
        <ele>2340.0</ele>
        <time>2015-08-16T14:14:42Z</time>
      </trkpt>
      <trkpt lat="40.588050" lon="-4.885450">
        <ele>2340.0</ele>
        <time>2015-08-16T14:14:43Z</time>
      </trkpt>
      <trkpt lat="40.588100" lon="-4.885333">
        <ele>2339.0</ele>
        <time>2015-08-16T14:14:44Z</time>
      </trkpt>
      <trkpt lat="40.588133" lon="-4.885217">
        <ele>2338.0</ele>
        <time>2015-08-16T14:14:45Z</time>
      </trkpt>
      <trkpt lat="40.588183" lon="-4.885083">
        <ele>2337.0</ele>
        <time>2015-08-16T14:14:46Z</time>
      </trkpt>
      <trkpt lat="40.588233" lon="-4.884967">
        <ele>2337.0</ele>
        <time>2015-08-16T14:14:47Z</time>
      </trkpt>
      <trkpt lat="40.588283" lon="-4.884833">
        <ele>2337.0</ele>
        <time>2015-08-16T14:14:48Z</time>
      </trkpt>
      <trkpt lat="40.588317" lon="-4.884717">
        <ele>2338.0</ele>
        <time>2015-08-16T14:14:49Z</time>
      </trkpt>
      <trkpt lat="40.588350" lon="-4.884600">
        <ele>2337.0</ele>
        <time>2015-08-16T14:14:50Z</time>
      </trkpt>
      <trkpt lat="40.588400" lon="-4.884483">
        <ele>2336.0</ele>
        <time>2015-08-16T14:14:51Z</time>
      </trkpt>
      <trkpt lat="40.588450" lon="-4.884367">
        <ele>2335.0</ele>
        <time>2015-08-16T14:14:52Z</time>
      </trkpt>
      <trkpt lat="40.588500" lon="-4.884250">
        <ele>2334.0</ele>
        <time>2015-08-16T14:14:53Z</time>
      </trkpt>
      <trkpt lat="40.588550" lon="-4.884133">
        <ele>2334.0</ele>
        <time>2015-08-16T14:14:54Z</time>
      </trkpt>
      <trkpt lat="40.588600" lon="-4.884017">
        <ele>2334.0</ele>
        <time>2015-08-16T14:14:55Z</time>
      </trkpt>
      <trkpt lat="40.588650" lon="-4.883900">
        <ele>2334.0</ele>
        <time>2015-08-16T14:14:56Z</time>
      </trkpt>
      <trkpt lat="40.588683" lon="-4.883783">
        <ele>2334.0</ele>
        <time>2015-08-16T14:14:57Z</time>
      </trkpt>
      <trkpt lat="40.588733" lon="-4.883667">
        <ele>2332.0</ele>
        <time>2015-08-16T14:14:58Z</time>
      </trkpt>
      <trkpt lat="40.588783" lon="-4.883533">
        <ele>2330.0</ele>
        <time>2015-08-16T14:14:59Z</time>
      </trkpt>
      <trkpt lat="40.588833" lon="-4.883400">
        <ele>2329.0</ele>
        <time>2015-08-16T14:15:00Z</time>
      </trkpt>
      <trkpt lat="40.588883" lon="-4.883283">
        <ele>2330.0</ele>
        <time>2015-08-16T14:15:01Z</time>
      </trkpt>
      <trkpt lat="40.588933" lon="-4.883167">
        <ele>2331.0</ele>
        <time>2015-08-16T14:15:02Z</time>
      </trkpt>
      <trkpt lat="40.588967" lon="-4.883050">
        <ele>2332.0</ele>
        <time>2015-08-16T14:15:03Z</time>
      </trkpt>
      <trkpt lat="40.589017" lon="-4.882950">
        <ele>2332.0</ele>
        <time>2015-08-16T14:15:04Z</time>
      </trkpt>
      <trkpt lat="40.589050" lon="-4.882833">
        <ele>2332.0</ele>
        <time>2015-08-16T14:15:05Z</time>
      </trkpt>
      <trkpt lat="40.589083" lon="-4.882717">
        <ele>2330.0</ele>
        <time>2015-08-16T14:15:06Z</time>
      </trkpt>
      <trkpt lat="40.589117" lon="-4.882617">
        <ele>2329.0</ele>
        <time>2015-08-16T14:15:07Z</time>
      </trkpt>
      <trkpt lat="40.589133" lon="-4.882500">
        <ele>2327.0</ele>
        <time>2015-08-16T14:15:08Z</time>
      </trkpt>
      <trkpt lat="40.589150" lon="-4.882367">
        <ele>2324.0</ele>
        <time>2015-08-16T14:15:09Z</time>
      </trkpt>
      <trkpt lat="40.589200" lon="-4.882250">
        <ele>2322.0</ele>
        <time>2015-08-16T14:15:10Z</time>
      </trkpt>
      <trkpt lat="40.589233" lon="-4.882117">
        <ele>2320.0</ele>
        <time>2015-08-16T14:15:11Z</time>
      </trkpt>
      <trkpt lat="40.589283" lon="-4.881983">
        <ele>2319.0</ele>
        <time>2015-08-16T14:15:12Z</time>
      </trkpt>
      <trkpt lat="40.589317" lon="-4.881850">
        <ele>2319.0</ele>
        <time>2015-08-16T14:15:13Z</time>
      </trkpt>
      <trkpt lat="40.589350" lon="-4.881733">
        <ele>2318.0</ele>
        <time>2015-08-16T14:15:14Z</time>
      </trkpt>
      <trkpt lat="40.589383" lon="-4.881617">
        <ele>2317.0</ele>
        <time>2015-08-16T14:15:15Z</time>
      </trkpt>
      <trkpt lat="40.589417" lon="-4.881500">
        <ele>2315.0</ele>
        <time>2015-08-16T14:15:16Z</time>
      </trkpt>
      <trkpt lat="40.589467" lon="-4.881367">
        <ele>2313.0</ele>
        <time>2015-08-16T14:15:17Z</time>
      </trkpt>
      <trkpt lat="40.589500" lon="-4.881233">
        <ele>2311.0</ele>
        <time>2015-08-16T14:15:18Z</time>
      </trkpt>
      <trkpt lat="40.589550" lon="-4.881117">
        <ele>2309.0</ele>
        <time>2015-08-16T14:15:19Z</time>
      </trkpt>
      <trkpt lat="40.589583" lon="-4.880983">
        <ele>2308.0</ele>
        <time>2015-08-16T14:15:20Z</time>
      </trkpt>
      <trkpt lat="40.589617" lon="-4.880867">
        <ele>2307.0</ele>
        <time>2015-08-16T14:15:21Z</time>
      </trkpt>
      <trkpt lat="40.589667" lon="-4.880733">
        <ele>2306.0</ele>
        <time>2015-08-16T14:15:22Z</time>
      </trkpt>
      <trkpt lat="40.589700" lon="-4.880617">
        <ele>2304.0</ele>
        <time>2015-08-16T14:15:23Z</time>
      </trkpt>
      <trkpt lat="40.589733" lon="-4.880483">
        <ele>2302.0</ele>
        <time>2015-08-16T14:15:24Z</time>
      </trkpt>
      <trkpt lat="40.589767" lon="-4.880350">
        <ele>2300.0</ele>
        <time>2015-08-16T14:15:25Z</time>
      </trkpt>
      <trkpt lat="40.589800" lon="-4.880217">
        <ele>2298.0</ele>
        <time>2015-08-16T14:15:26Z</time>
      </trkpt>
      <trkpt lat="40.589850" lon="-4.880083">
        <ele>2297.0</ele>
        <time>2015-08-16T14:15:27Z</time>
      </trkpt>
      <trkpt lat="40.589900" lon="-4.879950">
        <ele>2296.0</ele>
        <time>2015-08-16T14:15:28Z</time>
      </trkpt>
      <trkpt lat="40.589950" lon="-4.879817">
        <ele>2295.0</ele>
        <time>2015-08-16T14:15:29Z</time>
      </trkpt>
      <trkpt lat="40.589967" lon="-4.879683">
        <ele>2294.0</ele>
        <time>2015-08-16T14:15:30Z</time>
      </trkpt>
      <trkpt lat="40.590000" lon="-4.879550">
        <ele>2293.0</ele>
        <time>2015-08-16T14:15:31Z</time>
      </trkpt>
      <trkpt lat="40.590017" lon="-4.879417">
        <ele>2292.0</ele>
        <time>2015-08-16T14:15:32Z</time>
      </trkpt>
      <trkpt lat="40.590050" lon="-4.879283">
        <ele>2291.0</ele>
        <time>2015-08-16T14:15:33Z</time>
      </trkpt>
      <trkpt lat="40.590083" lon="-4.879167">
        <ele>2290.0</ele>
        <time>2015-08-16T14:15:34Z</time>
      </trkpt>
      <trkpt lat="40.590100" lon="-4.879017">
        <ele>2289.0</ele>
        <time>2015-08-16T14:15:35Z</time>
      </trkpt>
      <trkpt lat="40.590133" lon="-4.878883">
        <ele>2289.0</ele>
        <time>2015-08-16T14:15:36Z</time>
      </trkpt>
      <trkpt lat="40.590150" lon="-4.878750">
        <ele>2288.0</ele>
        <time>2015-08-16T14:15:37Z</time>
      </trkpt>
      <trkpt lat="40.590167" lon="-4.878617">
        <ele>2289.0</ele>
        <time>2015-08-16T14:15:38Z</time>
      </trkpt>
      <trkpt lat="40.590200" lon="-4.878500">
        <ele>2289.0</ele>
        <time>2015-08-16T14:15:39Z</time>
      </trkpt>
      <trkpt lat="40.590217" lon="-4.878400">
        <ele>2289.0</ele>
        <time>2015-08-16T14:15:40Z</time>
      </trkpt>
      <trkpt lat="40.590250" lon="-4.878283">
        <ele>2287.0</ele>
        <time>2015-08-16T14:15:41Z</time>
      </trkpt>
      <trkpt lat="40.590283" lon="-4.878167">
        <ele>2286.0</ele>
        <time>2015-08-16T14:15:42Z</time>
      </trkpt>
      <trkpt lat="40.590317" lon="-4.878033">
        <ele>2284.0</ele>
        <time>2015-08-16T14:15:43Z</time>
      </trkpt>
      <trkpt lat="40.590367" lon="-4.877917">
        <ele>2283.0</ele>
        <time>2015-08-16T14:15:44Z</time>
      </trkpt>
      <trkpt lat="40.590417" lon="-4.877783">
        <ele>2283.0</ele>
        <time>2015-08-16T14:15:45Z</time>
      </trkpt>
      <trkpt lat="40.590467" lon="-4.877667">
        <ele>2283.0</ele>
        <time>2015-08-16T14:15:46Z</time>
      </trkpt>
      <trkpt lat="40.590500" lon="-4.877550">
        <ele>2284.0</ele>
        <time>2015-08-16T14:15:47Z</time>
      </trkpt>
      <trkpt lat="40.590550" lon="-4.877433">
        <ele>2284.0</ele>
        <time>2015-08-16T14:15:48Z</time>
      </trkpt>
      <trkpt lat="40.590583" lon="-4.877333">
        <ele>2283.0</ele>
        <time>2015-08-16T14:15:49Z</time>
      </trkpt>
      <trkpt lat="40.590633" lon="-4.877217">
        <ele>2281.0</ele>
        <time>2015-08-16T14:15:50Z</time>
      </trkpt>
      <trkpt lat="40.590683" lon="-4.877083">
        <ele>2280.0</ele>
        <time>2015-08-16T14:15:51Z</time>
      </trkpt>
      <trkpt lat="40.590733" lon="-4.876967">
        <ele>2279.0</ele>
        <time>2015-08-16T14:15:52Z</time>
      </trkpt>
      <trkpt lat="40.590767" lon="-4.876850">
        <ele>2279.0</ele>
        <time>2015-08-16T14:15:53Z</time>
      </trkpt>
      <trkpt lat="40.590817" lon="-4.876733">
        <ele>2279.0</ele>
        <time>2015-08-16T14:15:54Z</time>
      </trkpt>
      <trkpt lat="40.590850" lon="-4.876633">
        <ele>2279.0</ele>
        <time>2015-08-16T14:15:55Z</time>
      </trkpt>
      <trkpt lat="40.590883" lon="-4.876550">
        <ele>2278.0</ele>
        <time>2015-08-16T14:15:56Z</time>
      </trkpt>
      <trkpt lat="40.590917" lon="-4.876433">
        <ele>2276.0</ele>
        <time>2015-08-16T14:15:57Z</time>
      </trkpt>
      <trkpt lat="40.590950" lon="-4.876317">
        <ele>2273.0</ele>
        <time>2015-08-16T14:15:58Z</time>
      </trkpt>
      <trkpt lat="40.591000" lon="-4.876183">
        <ele>2270.0</ele>
        <time>2015-08-16T14:15:59Z</time>
      </trkpt>
      <trkpt lat="40.591033" lon="-4.876050">
        <ele>2269.0</ele>
        <time>2015-08-16T14:16:00Z</time>
      </trkpt>
      <trkpt lat="40.591067" lon="-4.875917">
        <ele>2269.0</ele>
        <time>2015-08-16T14:16:01Z</time>
      </trkpt>
      <trkpt lat="40.591100" lon="-4.875783">
        <ele>2269.0</ele>
        <time>2015-08-16T14:16:02Z</time>
      </trkpt>
      <trkpt lat="40.591133" lon="-4.875667">
        <ele>2268.0</ele>
        <time>2015-08-16T14:16:03Z</time>
      </trkpt>
      <trkpt lat="40.591150" lon="-4.875550">
        <ele>2267.0</ele>
        <time>2015-08-16T14:16:04Z</time>
      </trkpt>
      <trkpt lat="40.591200" lon="-4.875433">
        <ele>2265.0</ele>
        <time>2015-08-16T14:16:05Z</time>
      </trkpt>
      <trkpt lat="40.591233" lon="-4.875300">
        <ele>2264.0</ele>
        <time>2015-08-16T14:16:06Z</time>
      </trkpt>
      <trkpt lat="40.591283" lon="-4.875167">
        <ele>2263.0</ele>
        <time>2015-08-16T14:16:07Z</time>
      </trkpt>
      <trkpt lat="40.591317" lon="-4.875033">
        <ele>2264.0</ele>
        <time>2015-08-16T14:16:08Z</time>
      </trkpt>
      <trkpt lat="40.591367" lon="-4.874917">
        <ele>2265.0</ele>
        <time>2015-08-16T14:16:09Z</time>
      </trkpt>
      <trkpt lat="40.591417" lon="-4.874800">
        <ele>2266.0</ele>
        <time>2015-08-16T14:16:10Z</time>
      </trkpt>
      <trkpt lat="40.591467" lon="-4.874700">
        <ele>2266.0</ele>
        <time>2015-08-16T14:16:11Z</time>
      </trkpt>
      <trkpt lat="40.591517" lon="-4.874600">
        <ele>2266.0</ele>
        <time>2015-08-16T14:16:12Z</time>
      </trkpt>
      <trkpt lat="40.591567" lon="-4.874500">
        <ele>2266.0</ele>
        <time>2015-08-16T14:16:13Z</time>
      </trkpt>
      <trkpt lat="40.591633" lon="-4.874383">
        <ele>2265.0</ele>
        <time>2015-08-16T14:16:14Z</time>
      </trkpt>
      <trkpt lat="40.591717" lon="-4.874300">
        <ele>2265.0</ele>
        <time>2015-08-16T14:16:15Z</time>
      </trkpt>
      <trkpt lat="40.591800" lon="-4.874200">
        <ele>2266.0</ele>
        <time>2015-08-16T14:16:16Z</time>
      </trkpt>
      <trkpt lat="40.591900" lon="-4.874117">
        <ele>2266.0</ele>
        <time>2015-08-16T14:16:17Z</time>
      </trkpt>
      <trkpt lat="40.591983" lon="-4.874033">
        <ele>2266.0</ele>
        <time>2015-08-16T14:16:18Z</time>
      </trkpt>
      <trkpt lat="40.592067" lon="-4.873950">
        <ele>2266.0</ele>
        <time>2015-08-16T14:16:19Z</time>
      </trkpt>
      <trkpt lat="40.592150" lon="-4.873833">
        <ele>2265.0</ele>
        <time>2015-08-16T14:16:20Z</time>
      </trkpt>
      <trkpt lat="40.592233" lon="-4.873750">
        <ele>2264.0</ele>
        <time>2015-08-16T14:16:21Z</time>
      </trkpt>
      <trkpt lat="40.592317" lon="-4.873650">
        <ele>2263.0</ele>
        <time>2015-08-16T14:16:22Z</time>
      </trkpt>
      <trkpt lat="40.592400" lon="-4.873550">
        <ele>2263.0</ele>
        <time>2015-08-16T14:16:23Z</time>
      </trkpt>
      <trkpt lat="40.592500" lon="-4.873450">
        <ele>2262.0</ele>
        <time>2015-08-16T14:16:24Z</time>
      </trkpt>
      <trkpt lat="40.592583" lon="-4.873367">
        <ele>2262.0</ele>
        <time>2015-08-16T14:16:25Z</time>
      </trkpt>
      <trkpt lat="40.592683" lon="-4.873283">
        <ele>2261.0</ele>
        <time>2015-08-16T14:16:26Z</time>
      </trkpt>
      <trkpt lat="40.592783" lon="-4.873183">
        <ele>2260.0</ele>
        <time>2015-08-16T14:16:27Z</time>
      </trkpt>
      <trkpt lat="40.592867" lon="-4.873083">
        <ele>2259.0</ele>
        <time>2015-08-16T14:16:28Z</time>
      </trkpt>
      <trkpt lat="40.592967" lon="-4.872983">
        <ele>2259.0</ele>
        <time>2015-08-16T14:16:29Z</time>
      </trkpt>
      <trkpt lat="40.593050" lon="-4.872867">
        <ele>2259.0</ele>
        <time>2015-08-16T14:16:30Z</time>
      </trkpt>
      <trkpt lat="40.593133" lon="-4.872767">
        <ele>2259.0</ele>
        <time>2015-08-16T14:16:31Z</time>
      </trkpt>
      <trkpt lat="40.593217" lon="-4.872683">
        <ele>2258.0</ele>
        <time>2015-08-16T14:16:32Z</time>
      </trkpt>
      <trkpt lat="40.593283" lon="-4.872583">
        <ele>2257.0</ele>
        <time>2015-08-16T14:16:33Z</time>
      </trkpt>
      <trkpt lat="40.593350" lon="-4.872467">
        <ele>2254.0</ele>
        <time>2015-08-16T14:16:34Z</time>
      </trkpt>
      <trkpt lat="40.593417" lon="-4.872350">
        <ele>2251.0</ele>
        <time>2015-08-16T14:16:35Z</time>
      </trkpt>
      <trkpt lat="40.593467" lon="-4.872217">
        <ele>2249.0</ele>
        <time>2015-08-16T14:16:36Z</time>
      </trkpt>
      <trkpt lat="40.593533" lon="-4.872083">
        <ele>2247.0</ele>
        <time>2015-08-16T14:16:37Z</time>
      </trkpt>
      <trkpt lat="40.593600" lon="-4.871967">
        <ele>2246.0</ele>
        <time>2015-08-16T14:16:38Z</time>
      </trkpt>
      <trkpt lat="40.593650" lon="-4.871850">
        <ele>2245.0</ele>
        <time>2015-08-16T14:16:39Z</time>
      </trkpt>
      <trkpt lat="40.593700" lon="-4.871733">
        <ele>2243.0</ele>
        <time>2015-08-16T14:16:40Z</time>
      </trkpt>
      <trkpt lat="40.593750" lon="-4.871617">
        <ele>2241.0</ele>
        <time>2015-08-16T14:16:41Z</time>
      </trkpt>
      <trkpt lat="40.593800" lon="-4.871500">
        <ele>2238.0</ele>
        <time>2015-08-16T14:16:42Z</time>
      </trkpt>
      <trkpt lat="40.593850" lon="-4.871367">
        <ele>2236.0</ele>
        <time>2015-08-16T14:16:43Z</time>
      </trkpt>
      <trkpt lat="40.593900" lon="-4.871250">
        <ele>2234.0</ele>
        <time>2015-08-16T14:16:44Z</time>
      </trkpt>
      <trkpt lat="40.593967" lon="-4.871117">
        <ele>2232.0</ele>
        <time>2015-08-16T14:16:45Z</time>
      </trkpt>
      <trkpt lat="40.594033" lon="-4.871000">
        <ele>2230.0</ele>
        <time>2015-08-16T14:16:46Z</time>
      </trkpt>
      <trkpt lat="40.594100" lon="-4.870900">
        <ele>2229.0</ele>
        <time>2015-08-16T14:16:47Z</time>
      </trkpt>
      <trkpt lat="40.594167" lon="-4.870800">
        <ele>2227.0</ele>
        <time>2015-08-16T14:16:48Z</time>
      </trkpt>
      <trkpt lat="40.594233" lon="-4.870700">
        <ele>2224.0</ele>
        <time>2015-08-16T14:16:49Z</time>
      </trkpt>
      <trkpt lat="40.594300" lon="-4.870583">
        <ele>2222.0</ele>
        <time>2015-08-16T14:16:50Z</time>
      </trkpt>
      <trkpt lat="40.594367" lon="-4.870467">
        <ele>2218.0</ele>
        <time>2015-08-16T14:16:51Z</time>
      </trkpt>
      <trkpt lat="40.594433" lon="-4.870350">
        <ele>2216.0</ele>
        <time>2015-08-16T14:16:52Z</time>
      </trkpt>
      <trkpt lat="40.594500" lon="-4.870250">
        <ele>2214.0</ele>
        <time>2015-08-16T14:16:53Z</time>
      </trkpt>
      <trkpt lat="40.594567" lon="-4.870133">
        <ele>2212.0</ele>
        <time>2015-08-16T14:16:54Z</time>
      </trkpt>
      <trkpt lat="40.594633" lon="-4.870017">
        <ele>2210.0</ele>
        <time>2015-08-16T14:16:55Z</time>
      </trkpt>
      <trkpt lat="40.594700" lon="-4.869900">
        <ele>2209.0</ele>
        <time>2015-08-16T14:16:56Z</time>
      </trkpt>
      <trkpt lat="40.594767" lon="-4.869783">
        <ele>2208.0</ele>
        <time>2015-08-16T14:16:57Z</time>
      </trkpt>
      <trkpt lat="40.594833" lon="-4.869667">
        <ele>2207.0</ele>
        <time>2015-08-16T14:16:58Z</time>
      </trkpt>
      <trkpt lat="40.594900" lon="-4.869567">
        <ele>2205.0</ele>
        <time>2015-08-16T14:16:59Z</time>
      </trkpt>
      <trkpt lat="40.594967" lon="-4.869450">
        <ele>2203.0</ele>
        <time>2015-08-16T14:17:00Z</time>
      </trkpt>
      <trkpt lat="40.595050" lon="-4.869333">
        <ele>2201.0</ele>
        <time>2015-08-16T14:17:01Z</time>
      </trkpt>
      <trkpt lat="40.595117" lon="-4.869217">
        <ele>2199.0</ele>
        <time>2015-08-16T14:17:02Z</time>
      </trkpt>
      <trkpt lat="40.595200" lon="-4.869100">
        <ele>2198.0</ele>
        <time>2015-08-16T14:17:03Z</time>
      </trkpt>
      <trkpt lat="40.595283" lon="-4.869000">
        <ele>2197.0</ele>
        <time>2015-08-16T14:17:04Z</time>
      </trkpt>
      <trkpt lat="40.595367" lon="-4.868883">
        <ele>2197.0</ele>
        <time>2015-08-16T14:17:05Z</time>
      </trkpt>
      <trkpt lat="40.595450" lon="-4.868767">
        <ele>2197.0</ele>
        <time>2015-08-16T14:17:06Z</time>
      </trkpt>
      <trkpt lat="40.595517" lon="-4.868650">
        <ele>2196.0</ele>
        <time>2015-08-16T14:17:07Z</time>
      </trkpt>
      <trkpt lat="40.595583" lon="-4.868533">
        <ele>2195.0</ele>
        <time>2015-08-16T14:17:08Z</time>
      </trkpt>
      <trkpt lat="40.595650" lon="-4.868433">
        <ele>2193.0</ele>
        <time>2015-08-16T14:17:09Z</time>
      </trkpt>
      <trkpt lat="40.595733" lon="-4.868317">
        <ele>2191.0</ele>
        <time>2015-08-16T14:17:10Z</time>
      </trkpt>
      <trkpt lat="40.595800" lon="-4.868183">
        <ele>2188.0</ele>
        <time>2015-08-16T14:17:11Z</time>
      </trkpt>
      <trkpt lat="40.595883" lon="-4.868050">
        <ele>2187.0</ele>
        <time>2015-08-16T14:17:12Z</time>
      </trkpt>
      <trkpt lat="40.595950" lon="-4.867933">
        <ele>2185.0</ele>
        <time>2015-08-16T14:17:13Z</time>
      </trkpt>
      <trkpt lat="40.596017" lon="-4.867800">
        <ele>2183.0</ele>
        <time>2015-08-16T14:17:14Z</time>
      </trkpt>
      <trkpt lat="40.596083" lon="-4.867683">
        <ele>2182.0</ele>
        <time>2015-08-16T14:17:15Z</time>
      </trkpt>
      <trkpt lat="40.596167" lon="-4.867550">
        <ele>2180.0</ele>
        <time>2015-08-16T14:17:16Z</time>
      </trkpt>
      <trkpt lat="40.596233" lon="-4.867433">
        <ele>2179.0</ele>
        <time>2015-08-16T14:17:17Z</time>
      </trkpt>
      <trkpt lat="40.596300" lon="-4.867300">
        <ele>2178.0</ele>
        <time>2015-08-16T14:17:18Z</time>
      </trkpt>
      <trkpt lat="40.596367" lon="-4.867183">
        <ele>2176.0</ele>
        <time>2015-08-16T14:17:19Z</time>
      </trkpt>
      <trkpt lat="40.596450" lon="-4.867067">
        <ele>2175.0</ele>
        <time>2015-08-16T14:17:20Z</time>
      </trkpt>
      <trkpt lat="40.596517" lon="-4.866950">
        <ele>2174.0</ele>
        <time>2015-08-16T14:17:21Z</time>
      </trkpt>
      <trkpt lat="40.596583" lon="-4.866833">
        <ele>2172.0</ele>
        <time>2015-08-16T14:17:22Z</time>
      </trkpt>
      <trkpt lat="40.596650" lon="-4.866717">
        <ele>2171.0</ele>
        <time>2015-08-16T14:17:23Z</time>
      </trkpt>
      <trkpt lat="40.596717" lon="-4.866600">
        <ele>2170.0</ele>
        <time>2015-08-16T14:17:24Z</time>
      </trkpt>
      <trkpt lat="40.596800" lon="-4.866467">
        <ele>2168.0</ele>
        <time>2015-08-16T14:17:25Z</time>
      </trkpt>
      <trkpt lat="40.596867" lon="-4.866350">
        <ele>2167.0</ele>
        <time>2015-08-16T14:17:26Z</time>
      </trkpt>
      <trkpt lat="40.596933" lon="-4.866233">
        <ele>2166.0</ele>
        <time>2015-08-16T14:17:27Z</time>
      </trkpt>
      <trkpt lat="40.597000" lon="-4.866100">
        <ele>2164.0</ele>
        <time>2015-08-16T14:17:28Z</time>
      </trkpt>
      <trkpt lat="40.597067" lon="-4.865967">
        <ele>2162.0</ele>
        <time>2015-08-16T14:17:29Z</time>
      </trkpt>
      <trkpt lat="40.597133" lon="-4.865850">
        <ele>2160.0</ele>
        <time>2015-08-16T14:17:30Z</time>
      </trkpt>
      <trkpt lat="40.597200" lon="-4.865717">
        <ele>2158.0</ele>
        <time>2015-08-16T14:17:31Z</time>
      </trkpt>
      <trkpt lat="40.597283" lon="-4.865600">
        <ele>2156.0</ele>
        <time>2015-08-16T14:17:32Z</time>
      </trkpt>
      <trkpt lat="40.597350" lon="-4.865467">
        <ele>2154.0</ele>
        <time>2015-08-16T14:17:33Z</time>
      </trkpt>
      <trkpt lat="40.597433" lon="-4.865367">
        <ele>2152.0</ele>
        <time>2015-08-16T14:17:34Z</time>
      </trkpt>
      <trkpt lat="40.597500" lon="-4.865250">
        <ele>2151.0</ele>
        <time>2015-08-16T14:17:35Z</time>
      </trkpt>
      <trkpt lat="40.597583" lon="-4.865150">
        <ele>2148.0</ele>
        <time>2015-08-16T14:17:36Z</time>
      </trkpt>
      <trkpt lat="40.597650" lon="-4.865033">
        <ele>2145.0</ele>
        <time>2015-08-16T14:17:37Z</time>
      </trkpt>
      <trkpt lat="40.597733" lon="-4.864917">
        <ele>2142.0</ele>
        <time>2015-08-16T14:17:38Z</time>
      </trkpt>
      <trkpt lat="40.597817" lon="-4.864800">
        <ele>2141.0</ele>
        <time>2015-08-16T14:17:39Z</time>
      </trkpt>
      <trkpt lat="40.597900" lon="-4.864700">
        <ele>2141.0</ele>
        <time>2015-08-16T14:17:40Z</time>
      </trkpt>
      <trkpt lat="40.597967" lon="-4.864583">
        <ele>2141.0</ele>
        <time>2015-08-16T14:17:41Z</time>
      </trkpt>
      <trkpt lat="40.598017" lon="-4.864483">
        <ele>2141.0</ele>
        <time>2015-08-16T14:17:42Z</time>
      </trkpt>
      <trkpt lat="40.598083" lon="-4.864367">
        <ele>2140.0</ele>
        <time>2015-08-16T14:17:43Z</time>
      </trkpt>
      <trkpt lat="40.598133" lon="-4.864250">
        <ele>2139.0</ele>
        <time>2015-08-16T14:17:44Z</time>
      </trkpt>
      <trkpt lat="40.598200" lon="-4.864133">
        <ele>2138.0</ele>
        <time>2015-08-16T14:17:45Z</time>
      </trkpt>
      <trkpt lat="40.598267" lon="-4.864017">
        <ele>2137.0</ele>
        <time>2015-08-16T14:17:46Z</time>
      </trkpt>
      <trkpt lat="40.598333" lon="-4.863900">
        <ele>2137.0</ele>
        <time>2015-08-16T14:17:47Z</time>
      </trkpt>
      <trkpt lat="40.598400" lon="-4.863783">
        <ele>2136.0</ele>
        <time>2015-08-16T14:17:48Z</time>
      </trkpt>
      <trkpt lat="40.598450" lon="-4.863667">
        <ele>2136.0</ele>
        <time>2015-08-16T14:17:49Z</time>
      </trkpt>
      <trkpt lat="40.598517" lon="-4.863533">
        <ele>2135.0</ele>
        <time>2015-08-16T14:17:50Z</time>
      </trkpt>
      <trkpt lat="40.598567" lon="-4.863400">
        <ele>2134.0</ele>
        <time>2015-08-16T14:17:51Z</time>
      </trkpt>
      <trkpt lat="40.598617" lon="-4.863267">
        <ele>2134.0</ele>
        <time>2015-08-16T14:17:52Z</time>
      </trkpt>
      <trkpt lat="40.598667" lon="-4.863133">
        <ele>2134.0</ele>
        <time>2015-08-16T14:17:53Z</time>
      </trkpt>
      <trkpt lat="40.598717" lon="-4.863017">
        <ele>2133.0</ele>
        <time>2015-08-16T14:17:54Z</time>
      </trkpt>
      <trkpt lat="40.598767" lon="-4.862883">
        <ele>2133.0</ele>
        <time>2015-08-16T14:17:55Z</time>
      </trkpt>
      <trkpt lat="40.598817" lon="-4.862750">
        <ele>2132.0</ele>
        <time>2015-08-16T14:17:56Z</time>
      </trkpt>
      <trkpt lat="40.598883" lon="-4.862633">
        <ele>2131.0</ele>
        <time>2015-08-16T14:17:57Z</time>
      </trkpt>
      <trkpt lat="40.598950" lon="-4.862500">
        <ele>2130.0</ele>
        <time>2015-08-16T14:17:58Z</time>
      </trkpt>
      <trkpt lat="40.599000" lon="-4.862367">
        <ele>2130.0</ele>
        <time>2015-08-16T14:17:59Z</time>
      </trkpt>
      <trkpt lat="40.599067" lon="-4.862250">
        <ele>2131.0</ele>
        <time>2015-08-16T14:18:00Z</time>
      </trkpt>
      <trkpt lat="40.599133" lon="-4.862117">
        <ele>2131.0</ele>
        <time>2015-08-16T14:18:01Z</time>
      </trkpt>
      <trkpt lat="40.599200" lon="-4.862000">
        <ele>2131.0</ele>
        <time>2015-08-16T14:18:02Z</time>
      </trkpt>
      <trkpt lat="40.599267" lon="-4.861867">
        <ele>2131.0</ele>
        <time>2015-08-16T14:18:03Z</time>
      </trkpt>
      <trkpt lat="40.599317" lon="-4.861750">
        <ele>2130.0</ele>
        <time>2015-08-16T14:18:04Z</time>
      </trkpt>
      <trkpt lat="40.599383" lon="-4.861633">
        <ele>2128.0</ele>
        <time>2015-08-16T14:18:05Z</time>
      </trkpt>
      <trkpt lat="40.599467" lon="-4.861517">
        <ele>2127.0</ele>
        <time>2015-08-16T14:18:06Z</time>
      </trkpt>
      <trkpt lat="40.599533" lon="-4.861400">
        <ele>2126.0</ele>
        <time>2015-08-16T14:18:07Z</time>
      </trkpt>
      <trkpt lat="40.599617" lon="-4.861300">
        <ele>2125.0</ele>
        <time>2015-08-16T14:18:08Z</time>
      </trkpt>
      <trkpt lat="40.599683" lon="-4.861183">
        <ele>2123.0</ele>
        <time>2015-08-16T14:18:09Z</time>
      </trkpt>
      <trkpt lat="40.599750" lon="-4.861050">
        <ele>2122.0</ele>
        <time>2015-08-16T14:18:10Z</time>
      </trkpt>
      <trkpt lat="40.599817" lon="-4.860917">
        <ele>2122.0</ele>
        <time>2015-08-16T14:18:11Z</time>
      </trkpt>
      <trkpt lat="40.599867" lon="-4.860800">
        <ele>2122.0</ele>
        <time>2015-08-16T14:18:12Z</time>
      </trkpt>
      <trkpt lat="40.599950" lon="-4.860667">
        <ele>2122.0</ele>
        <time>2015-08-16T14:18:13Z</time>
      </trkpt>
      <trkpt lat="40.600017" lon="-4.860533">
        <ele>2123.0</ele>
        <time>2015-08-16T14:18:14Z</time>
      </trkpt>
      <trkpt lat="40.600100" lon="-4.860383">
        <ele>2124.0</ele>
        <time>2015-08-16T14:18:15Z</time>
      </trkpt>
      <trkpt lat="40.600167" lon="-4.860250">
        <ele>2127.0</ele>
        <time>2015-08-16T14:18:16Z</time>
      </trkpt>
      <trkpt lat="40.600233" lon="-4.860133">
        <ele>2131.0</ele>
        <time>2015-08-16T14:18:17Z</time>
      </trkpt>
      <trkpt lat="40.600300" lon="-4.860033">
        <ele>2135.0</ele>
        <time>2015-08-16T14:18:18Z</time>
      </trkpt>
      <trkpt lat="40.600350" lon="-4.859917">
        <ele>2137.0</ele>
        <time>2015-08-16T14:18:19Z</time>
      </trkpt>
      <trkpt lat="40.600417" lon="-4.859817">
        <ele>2139.0</ele>
        <time>2015-08-16T14:18:20Z</time>
      </trkpt>
      <trkpt lat="40.600483" lon="-4.859700">
        <ele>2139.0</ele>
        <time>2015-08-16T14:18:21Z</time>
      </trkpt>
      <trkpt lat="40.600567" lon="-4.859617">
        <ele>2140.0</ele>
        <time>2015-08-16T14:18:22Z</time>
      </trkpt>
      <trkpt lat="40.600667" lon="-4.859533">
        <ele>2141.0</ele>
        <time>2015-08-16T14:18:23Z</time>
      </trkpt>
      <trkpt lat="40.600750" lon="-4.859517">
        <ele>2143.0</ele>
        <time>2015-08-16T14:18:24Z</time>
      </trkpt>
      <trkpt lat="40.600850" lon="-4.859550">
        <ele>2144.0</ele>
        <time>2015-08-16T14:18:25Z</time>
      </trkpt>
      <trkpt lat="40.600933" lon="-4.859617">
        <ele>2145.0</ele>
        <time>2015-08-16T14:18:26Z</time>
      </trkpt>
      <trkpt lat="40.600983" lon="-4.859700">
        <ele>2146.0</ele>
        <time>2015-08-16T14:18:27Z</time>
      </trkpt>
      <trkpt lat="40.601017" lon="-4.859800">
        <ele>2147.0</ele>
        <time>2015-08-16T14:18:28Z</time>
      </trkpt>
      <trkpt lat="40.601033" lon="-4.859917">
        <ele>2149.0</ele>
        <time>2015-08-16T14:18:29Z</time>
      </trkpt>
      <trkpt lat="40.601000" lon="-4.860000">
        <ele>2150.0</ele>
        <time>2015-08-16T14:18:30Z</time>
      </trkpt>
      <trkpt lat="40.600950" lon="-4.860067">
        <ele>2150.0</ele>
        <time>2015-08-16T14:18:31Z</time>
      </trkpt>
      <trkpt lat="40.600867" lon="-4.860083">
        <ele>2150.0</ele>
        <time>2015-08-16T14:18:32Z</time>
      </trkpt>
      <trkpt lat="40.600767" lon="-4.860050">
        <ele>2150.0</ele>
        <time>2015-08-16T14:18:33Z</time>
      </trkpt>
      <trkpt lat="40.600683" lon="-4.859950">
        <ele>2151.0</ele>
        <time>2015-08-16T14:18:34Z</time>
      </trkpt>
      <trkpt lat="40.600633" lon="-4.859833">
        <ele>2152.0</ele>
        <time>2015-08-16T14:18:35Z</time>
      </trkpt>
      <trkpt lat="40.600583" lon="-4.859700">
        <ele>2154.0</ele>
        <time>2015-08-16T14:18:36Z</time>
      </trkpt>
      <trkpt lat="40.600567" lon="-4.859550">
        <ele>2157.0</ele>
        <time>2015-08-16T14:18:37Z</time>
      </trkpt>
      <trkpt lat="40.600550" lon="-4.859417">
        <ele>2159.0</ele>
        <time>2015-08-16T14:18:38Z</time>
      </trkpt>
      <trkpt lat="40.600533" lon="-4.859283">
        <ele>2160.0</ele>
        <time>2015-08-16T14:18:39Z</time>
      </trkpt>
      <trkpt lat="40.600517" lon="-4.859167">
        <ele>2161.0</ele>
        <time>2015-08-16T14:18:40Z</time>
      </trkpt>
      <trkpt lat="40.600533" lon="-4.859050">
        <ele>2161.0</ele>
        <time>2015-08-16T14:18:41Z</time>
      </trkpt>
      <trkpt lat="40.600583" lon="-4.858950">
        <ele>2160.0</ele>
        <time>2015-08-16T14:18:42Z</time>
      </trkpt>
      <trkpt lat="40.600667" lon="-4.858883">
        <ele>2158.0</ele>
        <time>2015-08-16T14:18:43Z</time>
      </trkpt>
      <trkpt lat="40.600767" lon="-4.858833">
        <ele>2157.0</ele>
        <time>2015-08-16T14:18:44Z</time>
      </trkpt>
      <trkpt lat="40.600883" lon="-4.858833">
        <ele>2157.0</ele>
        <time>2015-08-16T14:18:45Z</time>
      </trkpt>
      <trkpt lat="40.600983" lon="-4.858850">
        <ele>2158.0</ele>
        <time>2015-08-16T14:18:46Z</time>
      </trkpt>
      <trkpt lat="40.601067" lon="-4.858900">
        <ele>2159.0</ele>
        <time>2015-08-16T14:18:47Z</time>
      </trkpt>
      <trkpt lat="40.601133" lon="-4.858983">
        <ele>2159.0</ele>
        <time>2015-08-16T14:18:48Z</time>
      </trkpt>
      <trkpt lat="40.601183" lon="-4.859083">
        <ele>2160.0</ele>
        <time>2015-08-16T14:18:49Z</time>
      </trkpt>
      <trkpt lat="40.601233" lon="-4.859183">
        <ele>2161.0</ele>
        <time>2015-08-16T14:18:50Z</time>
      </trkpt>
      <trkpt lat="40.601250" lon="-4.859283">
        <ele>2164.0</ele>
        <time>2015-08-16T14:18:51Z</time>
      </trkpt>
      <trkpt lat="40.601233" lon="-4.859367">
        <ele>2166.0</ele>
        <time>2015-08-16T14:18:52Z</time>
      </trkpt>
      <trkpt lat="40.601183" lon="-4.859417">
        <ele>2166.0</ele>
        <time>2015-08-16T14:18:53Z</time>
      </trkpt>
      <trkpt lat="40.601100" lon="-4.859450">
        <ele>2165.0</ele>
        <time>2015-08-16T14:18:54Z</time>
      </trkpt>
      <trkpt lat="40.601017" lon="-4.859433">
        <ele>2165.0</ele>
        <time>2015-08-16T14:18:55Z</time>
      </trkpt>
      <trkpt lat="40.600917" lon="-4.859383">
        <ele>2166.0</ele>
        <time>2015-08-16T14:18:56Z</time>
      </trkpt>
      <trkpt lat="40.600850" lon="-4.859300">
        <ele>2167.0</ele>
        <time>2015-08-16T14:18:57Z</time>
      </trkpt>
      <trkpt lat="40.600783" lon="-4.859200">
        <ele>2169.0</ele>
        <time>2015-08-16T14:18:58Z</time>
      </trkpt>
      <trkpt lat="40.600733" lon="-4.859083">
        <ele>2170.0</ele>
        <time>2015-08-16T14:18:59Z</time>
      </trkpt>
      <trkpt lat="40.600717" lon="-4.858950">
        <ele>2170.0</ele>
        <time>2015-08-16T14:19:00Z</time>
      </trkpt>
      <trkpt lat="40.600733" lon="-4.858817">
        <ele>2170.0</ele>
        <time>2015-08-16T14:19:01Z</time>
      </trkpt>
      <trkpt lat="40.600783" lon="-4.858683">
        <ele>2170.0</ele>
        <time>2015-08-16T14:19:02Z</time>
      </trkpt>
      <trkpt lat="40.600850" lon="-4.858583">
        <ele>2170.0</ele>
        <time>2015-08-16T14:19:03Z</time>
      </trkpt>
      <trkpt lat="40.600917" lon="-4.858500">
        <ele>2171.0</ele>
        <time>2015-08-16T14:19:04Z</time>
      </trkpt>
      <trkpt lat="40.601000" lon="-4.858433">
        <ele>2171.0</ele>
        <time>2015-08-16T14:19:05Z</time>
      </trkpt>
      <trkpt lat="40.601083" lon="-4.858383">
        <ele>2171.0</ele>
        <time>2015-08-16T14:19:06Z</time>
      </trkpt>
      <trkpt lat="40.601183" lon="-4.858383">
        <ele>2170.0</ele>
        <time>2015-08-16T14:19:07Z</time>
      </trkpt>
      <trkpt lat="40.601283" lon="-4.858417">
        <ele>2169.0</ele>
        <time>2015-08-16T14:19:08Z</time>
      </trkpt>
      <trkpt lat="40.601367" lon="-4.858500">
        <ele>2168.0</ele>
        <time>2015-08-16T14:19:09Z</time>
      </trkpt>
      <trkpt lat="40.601417" lon="-4.858617">
        <ele>2168.0</ele>
        <time>2015-08-16T14:19:10Z</time>
      </trkpt>
      <trkpt lat="40.601450" lon="-4.858733">
        <ele>2170.0</ele>
        <time>2015-08-16T14:19:11Z</time>
      </trkpt>
      <trkpt lat="40.601483" lon="-4.858833">
        <ele>2173.0</ele>
        <time>2015-08-16T14:19:12Z</time>
      </trkpt>
      <trkpt lat="40.601483" lon="-4.858900">
        <ele>2176.0</ele>
        <time>2015-08-16T14:19:13Z</time>
      </trkpt>
      <trkpt lat="40.601467" lon="-4.858983">
        <ele>2176.0</ele>
        <time>2015-08-16T14:19:14Z</time>
      </trkpt>
      <trkpt lat="40.601433" lon="-4.859050">
        <ele>2176.0</ele>
        <time>2015-08-16T14:19:15Z</time>
      </trkpt>
      <trkpt lat="40.601417" lon="-4.859133">
        <ele>2176.0</ele>
        <time>2015-08-16T14:19:16Z</time>
      </trkpt>
      <trkpt lat="40.601400" lon="-4.859217">
        <ele>2176.0</ele>
        <time>2015-08-16T14:19:17Z</time>
      </trkpt>
      <trkpt lat="40.601417" lon="-4.859300">
        <ele>2175.0</ele>
        <time>2015-08-16T14:19:18Z</time>
      </trkpt>
      <trkpt lat="40.601467" lon="-4.859383">
        <ele>2174.0</ele>
        <time>2015-08-16T14:19:19Z</time>
      </trkpt>
      <trkpt lat="40.601550" lon="-4.859467">
        <ele>2173.0</ele>
        <time>2015-08-16T14:19:20Z</time>
      </trkpt>
      <trkpt lat="40.601650" lon="-4.859500">
        <ele>2172.0</ele>
        <time>2015-08-16T14:19:21Z</time>
      </trkpt>
      <trkpt lat="40.601767" lon="-4.859517">
        <ele>2173.0</ele>
        <time>2015-08-16T14:19:22Z</time>
      </trkpt>
      <trkpt lat="40.601867" lon="-4.859517">
        <ele>2173.0</ele>
        <time>2015-08-16T14:19:23Z</time>
      </trkpt>
      <trkpt lat="40.601983" lon="-4.859500">
        <ele>2175.0</ele>
        <time>2015-08-16T14:19:24Z</time>
      </trkpt>
      <trkpt lat="40.602083" lon="-4.859467">
        <ele>2176.0</ele>
        <time>2015-08-16T14:19:25Z</time>
      </trkpt>
      <trkpt lat="40.602183" lon="-4.859433">
        <ele>2178.0</ele>
        <time>2015-08-16T14:19:26Z</time>
      </trkpt>
      <trkpt lat="40.602283" lon="-4.859400">
        <ele>2179.0</ele>
        <time>2015-08-16T14:19:27Z</time>
      </trkpt>
      <trkpt lat="40.602383" lon="-4.859383">
        <ele>2180.0</ele>
        <time>2015-08-16T14:19:28Z</time>
      </trkpt>
      <trkpt lat="40.602500" lon="-4.859367">
        <ele>2181.0</ele>
        <time>2015-08-16T14:19:29Z</time>
      </trkpt>
      <trkpt lat="40.602600" lon="-4.859350">
        <ele>2182.0</ele>
        <time>2015-08-16T14:19:30Z</time>
      </trkpt>
      <trkpt lat="40.602700" lon="-4.859300">
        <ele>2183.0</ele>
        <time>2015-08-16T14:19:31Z</time>
      </trkpt>
      <trkpt lat="40.602800" lon="-4.859250">
        <ele>2183.0</ele>
        <time>2015-08-16T14:19:32Z</time>
      </trkpt>
      <trkpt lat="40.602900" lon="-4.859167">
        <ele>2183.0</ele>
        <time>2015-08-16T14:19:33Z</time>
      </trkpt>
      <trkpt lat="40.602983" lon="-4.859100">
        <ele>2183.0</ele>
        <time>2015-08-16T14:19:34Z</time>
      </trkpt>
      <trkpt lat="40.603100" lon="-4.859050">
        <ele>2182.0</ele>
        <time>2015-08-16T14:19:35Z</time>
      </trkpt>
      <trkpt lat="40.603200" lon="-4.858983">
        <ele>2182.0</ele>
        <time>2015-08-16T14:19:36Z</time>
      </trkpt>
      <trkpt lat="40.603300" lon="-4.858933">
        <ele>2182.0</ele>
        <time>2015-08-16T14:19:37Z</time>
      </trkpt>
      <trkpt lat="40.603417" lon="-4.858850">
        <ele>2182.0</ele>
        <time>2015-08-16T14:19:38Z</time>
      </trkpt>
      <trkpt lat="40.603517" lon="-4.858767">
        <ele>2182.0</ele>
        <time>2015-08-16T14:19:39Z</time>
      </trkpt>
      <trkpt lat="40.603617" lon="-4.858700">
        <ele>2182.0</ele>
        <time>2015-08-16T14:19:40Z</time>
      </trkpt>
      <trkpt lat="40.603717" lon="-4.858633">
        <ele>2182.0</ele>
        <time>2015-08-16T14:19:41Z</time>
      </trkpt>
      <trkpt lat="40.603817" lon="-4.858567">
        <ele>2180.0</ele>
        <time>2015-08-16T14:19:42Z</time>
      </trkpt>
      <trkpt lat="40.603933" lon="-4.858500">
        <ele>2179.0</ele>
        <time>2015-08-16T14:19:43Z</time>
      </trkpt>
      <trkpt lat="40.604067" lon="-4.858400">
        <ele>2178.0</ele>
        <time>2015-08-16T14:19:44Z</time>
      </trkpt>
      <trkpt lat="40.604183" lon="-4.858317">
        <ele>2178.0</ele>
        <time>2015-08-16T14:19:45Z</time>
      </trkpt>
      <trkpt lat="40.604317" lon="-4.858233">
        <ele>2179.0</ele>
        <time>2015-08-16T14:19:46Z</time>
      </trkpt>
      <trkpt lat="40.604417" lon="-4.858150">
        <ele>2180.0</ele>
        <time>2015-08-16T14:19:47Z</time>
      </trkpt>
      <trkpt lat="40.604533" lon="-4.858083">
        <ele>2180.0</ele>
        <time>2015-08-16T14:19:48Z</time>
      </trkpt>
      <trkpt lat="40.604650" lon="-4.858000">
        <ele>2180.0</ele>
        <time>2015-08-16T14:19:49Z</time>
      </trkpt>
      <trkpt lat="40.604750" lon="-4.857917">
        <ele>2179.0</ele>
        <time>2015-08-16T14:19:50Z</time>
      </trkpt>
      <trkpt lat="40.604867" lon="-4.857817">
        <ele>2178.0</ele>
        <time>2015-08-16T14:19:51Z</time>
      </trkpt>
      <trkpt lat="40.604967" lon="-4.857700">
        <ele>2177.0</ele>
        <time>2015-08-16T14:19:52Z</time>
      </trkpt>
      <trkpt lat="40.605083" lon="-4.857600">
        <ele>2176.0</ele>
        <time>2015-08-16T14:19:53Z</time>
      </trkpt>
      <trkpt lat="40.605200" lon="-4.857500">
        <ele>2175.0</ele>
        <time>2015-08-16T14:19:54Z</time>
      </trkpt>
      <trkpt lat="40.605317" lon="-4.857400">
        <ele>2174.0</ele>
        <time>2015-08-16T14:19:55Z</time>
      </trkpt>
      <trkpt lat="40.605433" lon="-4.857300">
        <ele>2174.0</ele>
        <time>2015-08-16T14:19:56Z</time>
      </trkpt>
      <trkpt lat="40.605533" lon="-4.857183">
        <ele>2173.0</ele>
        <time>2015-08-16T14:19:57Z</time>
      </trkpt>
      <trkpt lat="40.605617" lon="-4.857083">
        <ele>2173.0</ele>
        <time>2015-08-16T14:19:58Z</time>
      </trkpt>
      <trkpt lat="40.605717" lon="-4.856967">
        <ele>2172.0</ele>
        <time>2015-08-16T14:19:59Z</time>
      </trkpt>
      <trkpt lat="40.605800" lon="-4.856850">
        <ele>2171.0</ele>
        <time>2015-08-16T14:20:00Z</time>
      </trkpt>
      <trkpt lat="40.605883" lon="-4.856717">
        <ele>2169.0</ele>
        <time>2015-08-16T14:20:01Z</time>
      </trkpt>
      <trkpt lat="40.605967" lon="-4.856583">
        <ele>2167.0</ele>
        <time>2015-08-16T14:20:02Z</time>
      </trkpt>
      <trkpt lat="40.606050" lon="-4.856450">
        <ele>2166.0</ele>
        <time>2015-08-16T14:20:03Z</time>
      </trkpt>
      <trkpt lat="40.606133" lon="-4.856300">
        <ele>2165.0</ele>
        <time>2015-08-16T14:20:04Z</time>
      </trkpt>
      <trkpt lat="40.606217" lon="-4.856183">
        <ele>2165.0</ele>
        <time>2015-08-16T14:20:05Z</time>
      </trkpt>
      <trkpt lat="40.606283" lon="-4.856050">
        <ele>2163.0</ele>
        <time>2015-08-16T14:20:06Z</time>
      </trkpt>
      <trkpt lat="40.606367" lon="-4.855950">
        <ele>2161.0</ele>
        <time>2015-08-16T14:20:07Z</time>
      </trkpt>
      <trkpt lat="40.606433" lon="-4.855833">
        <ele>2159.0</ele>
        <time>2015-08-16T14:20:08Z</time>
      </trkpt>
      <trkpt lat="40.606517" lon="-4.855700">
        <ele>2156.0</ele>
        <time>2015-08-16T14:20:09Z</time>
      </trkpt>
      <trkpt lat="40.606583" lon="-4.855567">
        <ele>2154.0</ele>
        <time>2015-08-16T14:20:10Z</time>
      </trkpt>
      <trkpt lat="40.606667" lon="-4.855450">
        <ele>2152.0</ele>
        <time>2015-08-16T14:20:11Z</time>
      </trkpt>
      <trkpt lat="40.606733" lon="-4.855333">
        <ele>2150.0</ele>
        <time>2015-08-16T14:20:12Z</time>
      </trkpt>
      <trkpt lat="40.606817" lon="-4.855217">
        <ele>2148.0</ele>
        <time>2015-08-16T14:20:13Z</time>
      </trkpt>
      <trkpt lat="40.606900" lon="-4.855100">
        <ele>2146.0</ele>
        <time>2015-08-16T14:20:14Z</time>
      </trkpt>
      <trkpt lat="40.606983" lon="-4.855000">
        <ele>2144.0</ele>
        <time>2015-08-16T14:20:15Z</time>
      </trkpt>
      <trkpt lat="40.607067" lon="-4.854900">
        <ele>2141.0</ele>
        <time>2015-08-16T14:20:16Z</time>
      </trkpt>
      <trkpt lat="40.607150" lon="-4.854800">
        <ele>2139.0</ele>
        <time>2015-08-16T14:20:17Z</time>
      </trkpt>
      <trkpt lat="40.607233" lon="-4.854700">
        <ele>2136.0</ele>
        <time>2015-08-16T14:20:18Z</time>
      </trkpt>
      <trkpt lat="40.607333" lon="-4.854617">
        <ele>2134.0</ele>
        <time>2015-08-16T14:20:19Z</time>
      </trkpt>
      <trkpt lat="40.607417" lon="-4.854517">
        <ele>2130.0</ele>
        <time>2015-08-16T14:20:20Z</time>
      </trkpt>
      <trkpt lat="40.607517" lon="-4.854400">
        <ele>2127.0</ele>
        <time>2015-08-16T14:20:21Z</time>
      </trkpt>
      <trkpt lat="40.607617" lon="-4.854300">
        <ele>2124.0</ele>
        <time>2015-08-16T14:20:22Z</time>
      </trkpt>
      <trkpt lat="40.607683" lon="-4.854183">
        <ele>2123.0</ele>
        <time>2015-08-16T14:20:23Z</time>
      </trkpt>
      <trkpt lat="40.607767" lon="-4.854067">
        <ele>2121.0</ele>
        <time>2015-08-16T14:20:24Z</time>
      </trkpt>
      <trkpt lat="40.607817" lon="-4.853950">
        <ele>2119.0</ele>
        <time>2015-08-16T14:20:25Z</time>
      </trkpt>
      <trkpt lat="40.607883" lon="-4.853833">
        <ele>2117.0</ele>
        <time>2015-08-16T14:20:26Z</time>
      </trkpt>
      <trkpt lat="40.607933" lon="-4.853717">
        <ele>2115.0</ele>
        <time>2015-08-16T14:20:27Z</time>
      </trkpt>
      <trkpt lat="40.608000" lon="-4.853617">
        <ele>2113.0</ele>
        <time>2015-08-16T14:20:28Z</time>
      </trkpt>
      <trkpt lat="40.608050" lon="-4.853517">
        <ele>2110.0</ele>
        <time>2015-08-16T14:20:29Z</time>
      </trkpt>
      <trkpt lat="40.608117" lon="-4.853417">
        <ele>2108.0</ele>
        <time>2015-08-16T14:20:30Z</time>
      </trkpt>
      <trkpt lat="40.608183" lon="-4.853300">
        <ele>2105.0</ele>
        <time>2015-08-16T14:20:31Z</time>
      </trkpt>
      <trkpt lat="40.608233" lon="-4.853183">
        <ele>2102.0</ele>
        <time>2015-08-16T14:20:32Z</time>
      </trkpt>
      <trkpt lat="40.608283" lon="-4.853067">
        <ele>2099.0</ele>
        <time>2015-08-16T14:20:33Z</time>
      </trkpt>
      <trkpt lat="40.608333" lon="-4.852950">
        <ele>2096.0</ele>
        <time>2015-08-16T14:20:34Z</time>
      </trkpt>
      <trkpt lat="40.608383" lon="-4.852833">
        <ele>2094.0</ele>
        <time>2015-08-16T14:20:35Z</time>
      </trkpt>
      <trkpt lat="40.608433" lon="-4.852733">
        <ele>2091.0</ele>
        <time>2015-08-16T14:20:36Z</time>
      </trkpt>
      <trkpt lat="40.608483" lon="-4.852617">
        <ele>2089.0</ele>
        <time>2015-08-16T14:20:37Z</time>
      </trkpt>
      <trkpt lat="40.608533" lon="-4.852517">
        <ele>2086.0</ele>
        <time>2015-08-16T14:20:38Z</time>
      </trkpt>
      <trkpt lat="40.608583" lon="-4.852400">
        <ele>2083.0</ele>
        <time>2015-08-16T14:20:39Z</time>
      </trkpt>
      <trkpt lat="40.608633" lon="-4.852283">
        <ele>2080.0</ele>
        <time>2015-08-16T14:20:40Z</time>
      </trkpt>
      <trkpt lat="40.608700" lon="-4.852167">
        <ele>2077.0</ele>
        <time>2015-08-16T14:20:41Z</time>
      </trkpt>
      <trkpt lat="40.608750" lon="-4.852033">
        <ele>2075.0</ele>
        <time>2015-08-16T14:20:42Z</time>
      </trkpt>
      <trkpt lat="40.608817" lon="-4.851917">
        <ele>2074.0</ele>
        <time>2015-08-16T14:20:43Z</time>
      </trkpt>
      <trkpt lat="40.608883" lon="-4.851800">
        <ele>2073.0</ele>
        <time>2015-08-16T14:20:44Z</time>
      </trkpt>
      <trkpt lat="40.608933" lon="-4.851683">
        <ele>2072.0</ele>
        <time>2015-08-16T14:20:45Z</time>
      </trkpt>
      <trkpt lat="40.608983" lon="-4.851567">
        <ele>2071.0</ele>
        <time>2015-08-16T14:20:46Z</time>
      </trkpt>
      <trkpt lat="40.609033" lon="-4.851450">
        <ele>2070.0</ele>
        <time>2015-08-16T14:20:47Z</time>
      </trkpt>
      <trkpt lat="40.609083" lon="-4.851317">
        <ele>2068.0</ele>
        <time>2015-08-16T14:20:48Z</time>
      </trkpt>
      <trkpt lat="40.609133" lon="-4.851167">
        <ele>2067.0</ele>
        <time>2015-08-16T14:20:49Z</time>
      </trkpt>
      <trkpt lat="40.609183" lon="-4.851033">
        <ele>2066.0</ele>
        <time>2015-08-16T14:20:50Z</time>
      </trkpt>
      <trkpt lat="40.609217" lon="-4.850917">
        <ele>2066.0</ele>
        <time>2015-08-16T14:20:51Z</time>
      </trkpt>
      <trkpt lat="40.609250" lon="-4.850817">
        <ele>2066.0</ele>
        <time>2015-08-16T14:20:52Z</time>
      </trkpt>
      <trkpt lat="40.609267" lon="-4.850700">
        <ele>2065.0</ele>
        <time>2015-08-16T14:20:53Z</time>
      </trkpt>
      <trkpt lat="40.609300" lon="-4.850583">
        <ele>2063.0</ele>
        <time>2015-08-16T14:20:54Z</time>
      </trkpt>
      <trkpt lat="40.609333" lon="-4.850467">
        <ele>2062.0</ele>
        <time>2015-08-16T14:20:55Z</time>
      </trkpt>
      <trkpt lat="40.609350" lon="-4.850350">
        <ele>2060.0</ele>
        <time>2015-08-16T14:20:56Z</time>
      </trkpt>
      <trkpt lat="40.609367" lon="-4.850217">
        <ele>2059.0</ele>
        <time>2015-08-16T14:20:57Z</time>
      </trkpt>
      <trkpt lat="40.609383" lon="-4.850100">
        <ele>2057.0</ele>
        <time>2015-08-16T14:20:58Z</time>
      </trkpt>
      <trkpt lat="40.609417" lon="-4.849983">
        <ele>2055.0</ele>
        <time>2015-08-16T14:20:59Z</time>
      </trkpt>
      <trkpt lat="40.609450" lon="-4.849850">
        <ele>2054.0</ele>
        <time>2015-08-16T14:21:00Z</time>
      </trkpt>
      <trkpt lat="40.609483" lon="-4.849750">
        <ele>2052.0</ele>
        <time>2015-08-16T14:21:01Z</time>
      </trkpt>
      <trkpt lat="40.609517" lon="-4.849633">
        <ele>2050.0</ele>
        <time>2015-08-16T14:21:02Z</time>
      </trkpt>
      <trkpt lat="40.609567" lon="-4.849533">
        <ele>2047.0</ele>
        <time>2015-08-16T14:21:03Z</time>
      </trkpt>
      <trkpt lat="40.609600" lon="-4.849417">
        <ele>2044.0</ele>
        <time>2015-08-16T14:21:04Z</time>
      </trkpt>
      <trkpt lat="40.609650" lon="-4.849317">
        <ele>2040.0</ele>
        <time>2015-08-16T14:21:05Z</time>
      </trkpt>
      <trkpt lat="40.609700" lon="-4.849200">
        <ele>2036.0</ele>
        <time>2015-08-16T14:21:06Z</time>
      </trkpt>
      <trkpt lat="40.609750" lon="-4.849083">
        <ele>2032.0</ele>
        <time>2015-08-16T14:21:07Z</time>
      </trkpt>
      <trkpt lat="40.609783" lon="-4.848967">
        <ele>2029.0</ele>
        <time>2015-08-16T14:21:08Z</time>
      </trkpt>
      <trkpt lat="40.609833" lon="-4.848850">
        <ele>2027.0</ele>
        <time>2015-08-16T14:21:09Z</time>
      </trkpt>
      <trkpt lat="40.609883" lon="-4.848733">
        <ele>2024.0</ele>
        <time>2015-08-16T14:21:10Z</time>
      </trkpt>
      <trkpt lat="40.609933" lon="-4.848617">
        <ele>2022.0</ele>
        <time>2015-08-16T14:21:11Z</time>
      </trkpt>
      <trkpt lat="40.609983" lon="-4.848500">
        <ele>2019.0</ele>
        <time>2015-08-16T14:21:12Z</time>
      </trkpt>
      <trkpt lat="40.610050" lon="-4.848367">
        <ele>2016.0</ele>
        <time>2015-08-16T14:21:13Z</time>
      </trkpt>
      <trkpt lat="40.610100" lon="-4.848250">
        <ele>2014.0</ele>
        <time>2015-08-16T14:21:14Z</time>
      </trkpt>
      <trkpt lat="40.610133" lon="-4.848117">
        <ele>2012.0</ele>
        <time>2015-08-16T14:21:15Z</time>
      </trkpt>
      <trkpt lat="40.610183" lon="-4.847983">
        <ele>2010.0</ele>
        <time>2015-08-16T14:21:16Z</time>
      </trkpt>
      <trkpt lat="40.610217" lon="-4.847850">
        <ele>2009.0</ele>
        <time>2015-08-16T14:21:17Z</time>
      </trkpt>
      <trkpt lat="40.610267" lon="-4.847733">
        <ele>2008.0</ele>
        <time>2015-08-16T14:21:18Z</time>
      </trkpt>
      <trkpt lat="40.610317" lon="-4.847600">
        <ele>2006.0</ele>
        <time>2015-08-16T14:21:19Z</time>
      </trkpt>
      <trkpt lat="40.610350" lon="-4.847450">
        <ele>2005.0</ele>
        <time>2015-08-16T14:21:20Z</time>
      </trkpt>
      <trkpt lat="40.610383" lon="-4.847317">
        <ele>2006.0</ele>
        <time>2015-08-16T14:21:21Z</time>
      </trkpt>
      <trkpt lat="40.610400" lon="-4.847183">
        <ele>2008.0</ele>
        <time>2015-08-16T14:21:22Z</time>
      </trkpt>
      <trkpt lat="40.610417" lon="-4.847083">
        <ele>2010.0</ele>
        <time>2015-08-16T14:21:23Z</time>
      </trkpt>
      <trkpt lat="40.610433" lon="-4.847000">
        <ele>2010.0</ele>
        <time>2015-08-16T14:21:24Z</time>
      </trkpt>
      <trkpt lat="40.610483" lon="-4.846917">
        <ele>2009.0</ele>
        <time>2015-08-16T14:21:25Z</time>
      </trkpt>
      <trkpt lat="40.610517" lon="-4.846850">
        <ele>2008.0</ele>
        <time>2015-08-16T14:21:26Z</time>
      </trkpt>
      <trkpt lat="40.610567" lon="-4.846750">
        <ele>2008.0</ele>
        <time>2015-08-16T14:21:27Z</time>
      </trkpt>
      <trkpt lat="40.610600" lon="-4.846650">
        <ele>2006.0</ele>
        <time>2015-08-16T14:21:28Z</time>
      </trkpt>
      <trkpt lat="40.610650" lon="-4.846550">
        <ele>2006.0</ele>
        <time>2015-08-16T14:21:29Z</time>
      </trkpt>
      <trkpt lat="40.610700" lon="-4.846450">
        <ele>2006.0</ele>
        <time>2015-08-16T14:21:30Z</time>
      </trkpt>
      <trkpt lat="40.610750" lon="-4.846350">
        <ele>2007.0</ele>
        <time>2015-08-16T14:21:31Z</time>
      </trkpt>
      <trkpt lat="40.610783" lon="-4.846250">
        <ele>2008.0</ele>
        <time>2015-08-16T14:21:32Z</time>
      </trkpt>
      <trkpt lat="40.610817" lon="-4.846150">
        <ele>2008.0</ele>
        <time>2015-08-16T14:21:33Z</time>
      </trkpt>
      <trkpt lat="40.610833" lon="-4.846033">
        <ele>2009.0</ele>
        <time>2015-08-16T14:21:34Z</time>
      </trkpt>
      <trkpt lat="40.610833" lon="-4.845917">
        <ele>2011.0</ele>
        <time>2015-08-16T14:21:35Z</time>
      </trkpt>
      <trkpt lat="40.610833" lon="-4.845817">
        <ele>2012.0</ele>
        <time>2015-08-16T14:21:36Z</time>
      </trkpt>
      <trkpt lat="40.610800" lon="-4.845717">
        <ele>2014.0</ele>
        <time>2015-08-16T14:21:37Z</time>
      </trkpt>
      <trkpt lat="40.610750" lon="-4.845633">
        <ele>2014.0</ele>
        <time>2015-08-16T14:21:38Z</time>
      </trkpt>
      <trkpt lat="40.610683" lon="-4.845550">
        <ele>2015.0</ele>
        <time>2015-08-16T14:21:39Z</time>
      </trkpt>
      <trkpt lat="40.610600" lon="-4.845517">
        <ele>2016.0</ele>
        <time>2015-08-16T14:21:40Z</time>
      </trkpt>
      <trkpt lat="40.610500" lon="-4.845500">
        <ele>2018.0</ele>
        <time>2015-08-16T14:21:41Z</time>
      </trkpt>
      <trkpt lat="40.610417" lon="-4.845517">
        <ele>2019.0</ele>
        <time>2015-08-16T14:21:42Z</time>
      </trkpt>
      <trkpt lat="40.610317" lon="-4.845567">
        <ele>2020.0</ele>
        <time>2015-08-16T14:21:43Z</time>
      </trkpt>
      <trkpt lat="40.610233" lon="-4.845633">
        <ele>2020.0</ele>
        <time>2015-08-16T14:21:44Z</time>
      </trkpt>
      <trkpt lat="40.610167" lon="-4.845733">
        <ele>2020.0</ele>
        <time>2015-08-16T14:21:45Z</time>
      </trkpt>
      <trkpt lat="40.610117" lon="-4.845850">
        <ele>2020.0</ele>
        <time>2015-08-16T14:21:46Z</time>
      </trkpt>
      <trkpt lat="40.610083" lon="-4.845983">
        <ele>2019.0</ele>
        <time>2015-08-16T14:21:47Z</time>
      </trkpt>
      <trkpt lat="40.610083" lon="-4.846117">
        <ele>2018.0</ele>
        <time>2015-08-16T14:21:48Z</time>
      </trkpt>
      <trkpt lat="40.610100" lon="-4.846250">
        <ele>2016.0</ele>
        <time>2015-08-16T14:21:49Z</time>
      </trkpt>
      <trkpt lat="40.610117" lon="-4.846383">
        <ele>2016.0</ele>
        <time>2015-08-16T14:21:50Z</time>
      </trkpt>
      <trkpt lat="40.610150" lon="-4.846517">
        <ele>2015.0</ele>
        <time>2015-08-16T14:21:51Z</time>
      </trkpt>
      <trkpt lat="40.610217" lon="-4.846633">
        <ele>2013.0</ele>
        <time>2015-08-16T14:21:52Z</time>
      </trkpt>
      <trkpt lat="40.610283" lon="-4.846733">
        <ele>2012.0</ele>
        <time>2015-08-16T14:21:53Z</time>
      </trkpt>
      <trkpt lat="40.610367" lon="-4.846800">
        <ele>2011.0</ele>
        <time>2015-08-16T14:21:54Z</time>
      </trkpt>
      <trkpt lat="40.610467" lon="-4.846850">
        <ele>2011.0</ele>
        <time>2015-08-16T14:21:55Z</time>
      </trkpt>
      <trkpt lat="40.610550" lon="-4.846883">
        <ele>2012.0</ele>
        <time>2015-08-16T14:21:56Z</time>
      </trkpt>
      <trkpt lat="40.610650" lon="-4.846900">
        <ele>2012.0</ele>
        <time>2015-08-16T14:21:57Z</time>
      </trkpt>
      <trkpt lat="40.610733" lon="-4.846933">
        <ele>2013.0</ele>
        <time>2015-08-16T14:21:58Z</time>
      </trkpt>
      <trkpt lat="40.610833" lon="-4.846983">
        <ele>2014.0</ele>
        <time>2015-08-16T14:21:59Z</time>
      </trkpt>
      <trkpt lat="40.610917" lon="-4.847067">
        <ele>2014.0</ele>
        <time>2015-08-16T14:22:00Z</time>
      </trkpt>
      <trkpt lat="40.610983" lon="-4.847150">
        <ele>2014.0</ele>
        <time>2015-08-16T14:22:01Z</time>
      </trkpt>
      <trkpt lat="40.611067" lon="-4.847233">
        <ele>2014.0</ele>
        <time>2015-08-16T14:22:02Z</time>
      </trkpt>
      <trkpt lat="40.611150" lon="-4.847300">
        <ele>2014.0</ele>
        <time>2015-08-16T14:22:03Z</time>
      </trkpt>
      <trkpt lat="40.611233" lon="-4.847333">
        <ele>2015.0</ele>
        <time>2015-08-16T14:22:04Z</time>
      </trkpt>
      <trkpt lat="40.611333" lon="-4.847333">
        <ele>2015.0</ele>
        <time>2015-08-16T14:22:05Z</time>
      </trkpt>
      <trkpt lat="40.611433" lon="-4.847350">
        <ele>2016.0</ele>
        <time>2015-08-16T14:22:06Z</time>
      </trkpt>
      <trkpt lat="40.611517" lon="-4.847383">
        <ele>2017.0</ele>
        <time>2015-08-16T14:22:07Z</time>
      </trkpt>
      <trkpt lat="40.611600" lon="-4.847417">
        <ele>2018.0</ele>
        <time>2015-08-16T14:22:08Z</time>
      </trkpt>
      <trkpt lat="40.611683" lon="-4.847450">
        <ele>2019.0</ele>
        <time>2015-08-16T14:22:09Z</time>
      </trkpt>
      <trkpt lat="40.611750" lon="-4.847450">
        <ele>2020.0</ele>
        <time>2015-08-16T14:22:10Z</time>
      </trkpt>
      <trkpt lat="40.611833" lon="-4.847433">
        <ele>2021.0</ele>
        <time>2015-08-16T14:22:11Z</time>
      </trkpt>
      <trkpt lat="40.611900" lon="-4.847367">
        <ele>2021.0</ele>
        <time>2015-08-16T14:22:12Z</time>
      </trkpt>
      <trkpt lat="40.611933" lon="-4.847267">
        <ele>2022.0</ele>
        <time>2015-08-16T14:22:13Z</time>
      </trkpt>
      <trkpt lat="40.611950" lon="-4.847167">
        <ele>2024.0</ele>
        <time>2015-08-16T14:22:14Z</time>
      </trkpt>
      <trkpt lat="40.611950" lon="-4.847067">
        <ele>2026.0</ele>
        <time>2015-08-16T14:22:15Z</time>
      </trkpt>
      <trkpt lat="40.611900" lon="-4.846983">
        <ele>2026.0</ele>
        <time>2015-08-16T14:22:16Z</time>
      </trkpt>
      <trkpt lat="40.611833" lon="-4.846917">
        <ele>2026.0</ele>
        <time>2015-08-16T14:22:17Z</time>
      </trkpt>
      <trkpt lat="40.611733" lon="-4.846883">
        <ele>2026.0</ele>
        <time>2015-08-16T14:22:18Z</time>
      </trkpt>
      <trkpt lat="40.611633" lon="-4.846867">
        <ele>2027.0</ele>
        <time>2015-08-16T14:22:19Z</time>
      </trkpt>
      <trkpt lat="40.611517" lon="-4.846900">
        <ele>2028.0</ele>
        <time>2015-08-16T14:22:20Z</time>
      </trkpt>
      <trkpt lat="40.611433" lon="-4.846950">
        <ele>2028.0</ele>
        <time>2015-08-16T14:22:21Z</time>
      </trkpt>
      <trkpt lat="40.611333" lon="-4.847050">
        <ele>2029.0</ele>
        <time>2015-08-16T14:22:22Z</time>
      </trkpt>
      <trkpt lat="40.611250" lon="-4.847150">
        <ele>2029.0</ele>
        <time>2015-08-16T14:22:23Z</time>
      </trkpt>
      <trkpt lat="40.611183" lon="-4.847250">
        <ele>2030.0</ele>
        <time>2015-08-16T14:22:24Z</time>
      </trkpt>
      <trkpt lat="40.611117" lon="-4.847367">
        <ele>2031.0</ele>
        <time>2015-08-16T14:22:25Z</time>
      </trkpt>
      <trkpt lat="40.611083" lon="-4.847500">
        <ele>2031.0</ele>
        <time>2015-08-16T14:22:26Z</time>
      </trkpt>
      <trkpt lat="40.611050" lon="-4.847650">
        <ele>2030.0</ele>
        <time>2015-08-16T14:22:27Z</time>
      </trkpt>
      <trkpt lat="40.611083" lon="-4.847800">
        <ele>2030.0</ele>
        <time>2015-08-16T14:22:28Z</time>
      </trkpt>
      <trkpt lat="40.611117" lon="-4.847933">
        <ele>2030.0</ele>
        <time>2015-08-16T14:22:29Z</time>
      </trkpt>
      <trkpt lat="40.611183" lon="-4.848033">
        <ele>2030.0</ele>
        <time>2015-08-16T14:22:30Z</time>
      </trkpt>
      <trkpt lat="40.611267" lon="-4.848133">
        <ele>2031.0</ele>
        <time>2015-08-16T14:22:31Z</time>
      </trkpt>
      <trkpt lat="40.611350" lon="-4.848183">
        <ele>2032.0</ele>
        <time>2015-08-16T14:22:32Z</time>
      </trkpt>
      <trkpt lat="40.611433" lon="-4.848217">
        <ele>2033.0</ele>
        <time>2015-08-16T14:22:33Z</time>
      </trkpt>
      <trkpt lat="40.611533" lon="-4.848217">
        <ele>2034.0</ele>
        <time>2015-08-16T14:22:34Z</time>
      </trkpt>
      <trkpt lat="40.611600" lon="-4.848167">
        <ele>2035.0</ele>
        <time>2015-08-16T14:22:35Z</time>
      </trkpt>
      <trkpt lat="40.611667" lon="-4.848083">
        <ele>2036.0</ele>
        <time>2015-08-16T14:22:36Z</time>
      </trkpt>
      <trkpt lat="40.611700" lon="-4.847983">
        <ele>2037.0</ele>
        <time>2015-08-16T14:22:37Z</time>
      </trkpt>
      <trkpt lat="40.611700" lon="-4.847867">
        <ele>2038.0</ele>
        <time>2015-08-16T14:22:38Z</time>
      </trkpt>
      <trkpt lat="40.611683" lon="-4.847767">
        <ele>2040.0</ele>
        <time>2015-08-16T14:22:39Z</time>
      </trkpt>
      <trkpt lat="40.611617" lon="-4.847683">
        <ele>2040.0</ele>
        <time>2015-08-16T14:22:40Z</time>
      </trkpt>
      <trkpt lat="40.611517" lon="-4.847633">
        <ele>2039.0</ele>
        <time>2015-08-16T14:22:41Z</time>
      </trkpt>
      <trkpt lat="40.611400" lon="-4.847617">
        <ele>2038.0</ele>
        <time>2015-08-16T14:22:42Z</time>
      </trkpt>
      <trkpt lat="40.611283" lon="-4.847650">
        <ele>2038.0</ele>
        <time>2015-08-16T14:22:43Z</time>
      </trkpt>
      <trkpt lat="40.611167" lon="-4.847700">
        <ele>2039.0</ele>
        <time>2015-08-16T14:22:44Z</time>
      </trkpt>
      <trkpt lat="40.611067" lon="-4.847800">
        <ele>2040.0</ele>
        <time>2015-08-16T14:22:45Z</time>
      </trkpt>
      <trkpt lat="40.610983" lon="-4.847917">
        <ele>2042.0</ele>
        <time>2015-08-16T14:22:46Z</time>
      </trkpt>
      <trkpt lat="40.610917" lon="-4.848050">
        <ele>2042.0</ele>
        <time>2015-08-16T14:22:47Z</time>
      </trkpt>
      <trkpt lat="40.610883" lon="-4.848183">
        <ele>2043.0</ele>
        <time>2015-08-16T14:22:48Z</time>
      </trkpt>
      <trkpt lat="40.610883" lon="-4.848333">
        <ele>2042.0</ele>
        <time>2015-08-16T14:22:49Z</time>
      </trkpt>
      <trkpt lat="40.610917" lon="-4.848467">
        <ele>2041.0</ele>
        <time>2015-08-16T14:22:50Z</time>
      </trkpt>
      <trkpt lat="40.610983" lon="-4.848617">
        <ele>2040.0</ele>
        <time>2015-08-16T14:22:51Z</time>
      </trkpt>
      <trkpt lat="40.611050" lon="-4.848733">
        <ele>2040.0</ele>
        <time>2015-08-16T14:22:52Z</time>
      </trkpt>
      <trkpt lat="40.611133" lon="-4.848833">
        <ele>2041.0</ele>
        <time>2015-08-16T14:22:53Z</time>
      </trkpt>
      <trkpt lat="40.611217" lon="-4.848900">
        <ele>2043.0</ele>
        <time>2015-08-16T14:22:54Z</time>
      </trkpt>
      <trkpt lat="40.611300" lon="-4.848933">
        <ele>2044.0</ele>
        <time>2015-08-16T14:22:55Z</time>
      </trkpt>
      <trkpt lat="40.611383" lon="-4.848967">
        <ele>2046.0</ele>
        <time>2015-08-16T14:22:56Z</time>
      </trkpt>
      <trkpt lat="40.611467" lon="-4.848950">
        <ele>2046.0</ele>
        <time>2015-08-16T14:22:57Z</time>
      </trkpt>
      <trkpt lat="40.611533" lon="-4.848917">
        <ele>2047.0</ele>
        <time>2015-08-16T14:22:58Z</time>
      </trkpt>
      <trkpt lat="40.611583" lon="-4.848833">
        <ele>2047.0</ele>
        <time>2015-08-16T14:22:59Z</time>
      </trkpt>
      <trkpt lat="40.611617" lon="-4.848750">
        <ele>2048.0</ele>
        <time>2015-08-16T14:23:00Z</time>
      </trkpt>
      <trkpt lat="40.611617" lon="-4.848650">
        <ele>2048.0</ele>
        <time>2015-08-16T14:23:01Z</time>
      </trkpt>
      <trkpt lat="40.611583" lon="-4.848550">
        <ele>2049.0</ele>
        <time>2015-08-16T14:23:02Z</time>
      </trkpt>
      <trkpt lat="40.611533" lon="-4.848450">
        <ele>2050.0</ele>
        <time>2015-08-16T14:23:03Z</time>
      </trkpt>
      <trkpt lat="40.611467" lon="-4.848383">
        <ele>2051.0</ele>
        <time>2015-08-16T14:23:04Z</time>
      </trkpt>
      <trkpt lat="40.611383" lon="-4.848333">
        <ele>2051.0</ele>
        <time>2015-08-16T14:23:05Z</time>
      </trkpt>
      <trkpt lat="40.611283" lon="-4.848317">
        <ele>2052.0</ele>
        <time>2015-08-16T14:23:06Z</time>
      </trkpt>
      <trkpt lat="40.611183" lon="-4.848317">
        <ele>2051.0</ele>
        <time>2015-08-16T14:23:07Z</time>
      </trkpt>
      <trkpt lat="40.611067" lon="-4.848367">
        <ele>2051.0</ele>
        <time>2015-08-16T14:23:08Z</time>
      </trkpt>
      <trkpt lat="40.610967" lon="-4.848450">
        <ele>2051.0</ele>
        <time>2015-08-16T14:23:09Z</time>
      </trkpt>
      <trkpt lat="40.610883" lon="-4.848550">
        <ele>2052.0</ele>
        <time>2015-08-16T14:23:10Z</time>
      </trkpt>
      <trkpt lat="40.610817" lon="-4.848683">
        <ele>2053.0</ele>
        <time>2015-08-16T14:23:11Z</time>
      </trkpt>
      <trkpt lat="40.610783" lon="-4.848817">
        <ele>2053.0</ele>
        <time>2015-08-16T14:23:12Z</time>
      </trkpt>
      <trkpt lat="40.610783" lon="-4.848950">
        <ele>2053.0</ele>
        <time>2015-08-16T14:23:13Z</time>
      </trkpt>
      <trkpt lat="40.610800" lon="-4.849083">
        <ele>2052.0</ele>
        <time>2015-08-16T14:23:14Z</time>
      </trkpt>
      <trkpt lat="40.610833" lon="-4.849217">
        <ele>2051.0</ele>
        <time>2015-08-16T14:23:15Z</time>
      </trkpt>
      <trkpt lat="40.610883" lon="-4.849350">
        <ele>2051.0</ele>
        <time>2015-08-16T14:23:16Z</time>
      </trkpt>
      <trkpt lat="40.610933" lon="-4.849467">
        <ele>2051.0</ele>
        <time>2015-08-16T14:23:17Z</time>
      </trkpt>
      <trkpt lat="40.611000" lon="-4.849567">
        <ele>2052.0</ele>
        <time>2015-08-16T14:23:18Z</time>
      </trkpt>
      <trkpt lat="40.611083" lon="-4.849633">
        <ele>2053.0</ele>
        <time>2015-08-16T14:23:19Z</time>
      </trkpt>
      <trkpt lat="40.611150" lon="-4.849683">
        <ele>2054.0</ele>
        <time>2015-08-16T14:23:20Z</time>
      </trkpt>
      <trkpt lat="40.611250" lon="-4.849717">
        <ele>2054.0</ele>
        <time>2015-08-16T14:23:21Z</time>
      </trkpt>
      <trkpt lat="40.611333" lon="-4.849733">
        <ele>2054.0</ele>
        <time>2015-08-16T14:23:22Z</time>
      </trkpt>
      <trkpt lat="40.611417" lon="-4.849717">
        <ele>2055.0</ele>
        <time>2015-08-16T14:23:23Z</time>
      </trkpt>
      <trkpt lat="40.611500" lon="-4.849667">
        <ele>2055.0</ele>
        <time>2015-08-16T14:23:24Z</time>
      </trkpt>
      <trkpt lat="40.611550" lon="-4.849600">
        <ele>2055.0</ele>
        <time>2015-08-16T14:23:25Z</time>
      </trkpt>
      <trkpt lat="40.611600" lon="-4.849517">
        <ele>2055.0</ele>
        <time>2015-08-16T14:23:26Z</time>
      </trkpt>
      <trkpt lat="40.611617" lon="-4.849400">
        <ele>2055.0</ele>
        <time>2015-08-16T14:23:27Z</time>
      </trkpt>
      <trkpt lat="40.611600" lon="-4.849300">
        <ele>2056.0</ele>
        <time>2015-08-16T14:23:28Z</time>
      </trkpt>
      <trkpt lat="40.611567" lon="-4.849200">
        <ele>2056.0</ele>
        <time>2015-08-16T14:23:29Z</time>
      </trkpt>
      <trkpt lat="40.611500" lon="-4.849117">
        <ele>2057.0</ele>
        <time>2015-08-16T14:23:30Z</time>
      </trkpt>
      <trkpt lat="40.611417" lon="-4.849067">
        <ele>2057.0</ele>
        <time>2015-08-16T14:23:31Z</time>
      </trkpt>
      <trkpt lat="40.611317" lon="-4.849050">
        <ele>2057.0</ele>
        <time>2015-08-16T14:23:32Z</time>
      </trkpt>
      <trkpt lat="40.611217" lon="-4.849067">
        <ele>2057.0</ele>
        <time>2015-08-16T14:23:33Z</time>
      </trkpt>
      <trkpt lat="40.611100" lon="-4.849100">
        <ele>2058.0</ele>
        <time>2015-08-16T14:23:34Z</time>
      </trkpt>
      <trkpt lat="40.611017" lon="-4.849183">
        <ele>2059.0</ele>
        <time>2015-08-16T14:23:35Z</time>
      </trkpt>
      <trkpt lat="40.610933" lon="-4.849283">
        <ele>2059.0</ele>
        <time>2015-08-16T14:23:36Z</time>
      </trkpt>
      <trkpt lat="40.610883" lon="-4.849400">
        <ele>2059.0</ele>
        <time>2015-08-16T14:23:37Z</time>
      </trkpt>
      <trkpt lat="40.610867" lon="-4.849550">
        <ele>2057.0</ele>
        <time>2015-08-16T14:23:38Z</time>
      </trkpt>
      <trkpt lat="40.610867" lon="-4.849700">
        <ele>2056.0</ele>
        <time>2015-08-16T14:23:39Z</time>
      </trkpt>
      <trkpt lat="40.610883" lon="-4.849867">
        <ele>2054.0</ele>
        <time>2015-08-16T14:23:40Z</time>
      </trkpt>
      <trkpt lat="40.610933" lon="-4.850017">
        <ele>2054.0</ele>
        <time>2015-08-16T14:23:41Z</time>
      </trkpt>
      <trkpt lat="40.611017" lon="-4.850150">
        <ele>2055.0</ele>
        <time>2015-08-16T14:23:42Z</time>
      </trkpt>
      <trkpt lat="40.611083" lon="-4.850267">
        <ele>2056.0</ele>
        <time>2015-08-16T14:23:43Z</time>
      </trkpt>
      <trkpt lat="40.611167" lon="-4.850367">
        <ele>2058.0</ele>
        <time>2015-08-16T14:23:44Z</time>
      </trkpt>
      <trkpt lat="40.611250" lon="-4.850433">
        <ele>2059.0</ele>
        <time>2015-08-16T14:23:45Z</time>
      </trkpt>
      <trkpt lat="40.611317" lon="-4.850500">
        <ele>2059.0</ele>
        <time>2015-08-16T14:23:46Z</time>
      </trkpt>
      <trkpt lat="40.611400" lon="-4.850550">
        <ele>2060.0</ele>
        <time>2015-08-16T14:23:47Z</time>
      </trkpt>
      <trkpt lat="40.611500" lon="-4.850600">
        <ele>2060.0</ele>
        <time>2015-08-16T14:23:48Z</time>
      </trkpt>
      <trkpt lat="40.611583" lon="-4.850617">
        <ele>2060.0</ele>
        <time>2015-08-16T14:23:49Z</time>
      </trkpt>
      <trkpt lat="40.611667" lon="-4.850600">
        <ele>2060.0</ele>
        <time>2015-08-16T14:23:50Z</time>
      </trkpt>
      <trkpt lat="40.611750" lon="-4.850550">
        <ele>2061.0</ele>
        <time>2015-08-16T14:23:51Z</time>
      </trkpt>
      <trkpt lat="40.611800" lon="-4.850500">
        <ele>2061.0</ele>
        <time>2015-08-16T14:23:52Z</time>
      </trkpt>
      <trkpt lat="40.611850" lon="-4.850433">
        <ele>2061.0</ele>
        <time>2015-08-16T14:23:53Z</time>
      </trkpt>
      <trkpt lat="40.611867" lon="-4.850333">
        <ele>2061.0</ele>
        <time>2015-08-16T14:23:54Z</time>
      </trkpt>
      <trkpt lat="40.611867" lon="-4.850233">
        <ele>2061.0</ele>
        <time>2015-08-16T14:23:55Z</time>
      </trkpt>
      <trkpt lat="40.611850" lon="-4.850133">
        <ele>2061.0</ele>
        <time>2015-08-16T14:23:56Z</time>
      </trkpt>
      <trkpt lat="40.611800" lon="-4.850033">
        <ele>2062.0</ele>
        <time>2015-08-16T14:23:57Z</time>
      </trkpt>
      <trkpt lat="40.611733" lon="-4.849967">
        <ele>2063.0</ele>
        <time>2015-08-16T14:23:58Z</time>
      </trkpt>
      <trkpt lat="40.611667" lon="-4.849900">
        <ele>2064.0</ele>
        <time>2015-08-16T14:23:59Z</time>
      </trkpt>
      <trkpt lat="40.611583" lon="-4.849850">
        <ele>2064.0</ele>
        <time>2015-08-16T14:24:00Z</time>
      </trkpt>
      <trkpt lat="40.611500" lon="-4.849817">
        <ele>2065.0</ele>
        <time>2015-08-16T14:24:01Z</time>
      </trkpt>
      <trkpt lat="40.611400" lon="-4.849817">
        <ele>2065.0</ele>
        <time>2015-08-16T14:24:02Z</time>
      </trkpt>
      <trkpt lat="40.611300" lon="-4.849833">
        <ele>2066.0</ele>
        <time>2015-08-16T14:24:03Z</time>
      </trkpt>
      <trkpt lat="40.611200" lon="-4.849883">
        <ele>2066.0</ele>
        <time>2015-08-16T14:24:04Z</time>
      </trkpt>
      <trkpt lat="40.611100" lon="-4.849967">
        <ele>2066.0</ele>
        <time>2015-08-16T14:24:05Z</time>
      </trkpt>
      <trkpt lat="40.611033" lon="-4.850067">
        <ele>2067.0</ele>
        <time>2015-08-16T14:24:06Z</time>
      </trkpt>
      <trkpt lat="40.610967" lon="-4.850183">
        <ele>2067.0</ele>
        <time>2015-08-16T14:24:07Z</time>
      </trkpt>
      <trkpt lat="40.610917" lon="-4.850300">
        <ele>2067.0</ele>
        <time>2015-08-16T14:24:08Z</time>
      </trkpt>
      <trkpt lat="40.610883" lon="-4.850450">
        <ele>2067.0</ele>
        <time>2015-08-16T14:24:09Z</time>
      </trkpt>
      <trkpt lat="40.610850" lon="-4.850583">
        <ele>2067.0</ele>
        <time>2015-08-16T14:24:10Z</time>
      </trkpt>
      <trkpt lat="40.610833" lon="-4.850733">
        <ele>2067.0</ele>
        <time>2015-08-16T14:24:11Z</time>
      </trkpt>
      <trkpt lat="40.610817" lon="-4.850883">
        <ele>2066.0</ele>
        <time>2015-08-16T14:24:12Z</time>
      </trkpt>
      <trkpt lat="40.610833" lon="-4.851033">
        <ele>2066.0</ele>
        <time>2015-08-16T14:24:13Z</time>
      </trkpt>
      <trkpt lat="40.610867" lon="-4.851183">
        <ele>2065.0</ele>
        <time>2015-08-16T14:24:14Z</time>
      </trkpt>
      <trkpt lat="40.610917" lon="-4.851317">
        <ele>2064.0</ele>
        <time>2015-08-16T14:24:15Z</time>
      </trkpt>
      <trkpt lat="40.611000" lon="-4.851433">
        <ele>2064.0</ele>
        <time>2015-08-16T14:24:16Z</time>
      </trkpt>
      <trkpt lat="40.611083" lon="-4.851517">
        <ele>2065.0</ele>
        <time>2015-08-16T14:24:17Z</time>
      </trkpt>
      <trkpt lat="40.611183" lon="-4.851583">
        <ele>2067.0</ele>
        <time>2015-08-16T14:24:18Z</time>
      </trkpt>
      <trkpt lat="40.611267" lon="-4.851633">
        <ele>2068.0</ele>
        <time>2015-08-16T14:24:19Z</time>
      </trkpt>
      <trkpt lat="40.611350" lon="-4.851667">
        <ele>2069.0</ele>
        <time>2015-08-16T14:24:20Z</time>
      </trkpt>
      <trkpt lat="40.611417" lon="-4.851667">
        <ele>2069.0</ele>
        <time>2015-08-16T14:24:21Z</time>
      </trkpt>
      <trkpt lat="40.611500" lon="-4.851650">
        <ele>2069.0</ele>
        <time>2015-08-16T14:24:22Z</time>
      </trkpt>
      <trkpt lat="40.611567" lon="-4.851633">
        <ele>2069.0</ele>
        <time>2015-08-16T14:24:23Z</time>
      </trkpt>
      <trkpt lat="40.611650" lon="-4.851583">
        <ele>2068.0</ele>
        <time>2015-08-16T14:24:24Z</time>
      </trkpt>
      <trkpt lat="40.611700" lon="-4.851533">
        <ele>2068.0</ele>
        <time>2015-08-16T14:24:25Z</time>
      </trkpt>
      <trkpt lat="40.611750" lon="-4.851467">
        <ele>2068.0</ele>
        <time>2015-08-16T14:24:26Z</time>
      </trkpt>
      <trkpt lat="40.611800" lon="-4.851383">
        <ele>2067.0</ele>
        <time>2015-08-16T14:24:27Z</time>
      </trkpt>
      <trkpt lat="40.611817" lon="-4.851283">
        <ele>2066.0</ele>
        <time>2015-08-16T14:24:28Z</time>
      </trkpt>
      <trkpt lat="40.611833" lon="-4.851183">
        <ele>2065.0</ele>
        <time>2015-08-16T14:24:29Z</time>
      </trkpt>
      <trkpt lat="40.611850" lon="-4.851067">
        <ele>2064.0</ele>
        <time>2015-08-16T14:24:30Z</time>
      </trkpt>
      <trkpt lat="40.611850" lon="-4.850950">
        <ele>2064.0</ele>
        <time>2015-08-16T14:24:31Z</time>
      </trkpt>
      <trkpt lat="40.611850" lon="-4.850833">
        <ele>2064.0</ele>
        <time>2015-08-16T14:24:32Z</time>
      </trkpt>
      <trkpt lat="40.611833" lon="-4.850717">
        <ele>2065.0</ele>
        <time>2015-08-16T14:24:33Z</time>
      </trkpt>
      <trkpt lat="40.611817" lon="-4.850600">
        <ele>2064.0</ele>
        <time>2015-08-16T14:24:34Z</time>
      </trkpt>
      <trkpt lat="40.611767" lon="-4.850500">
        <ele>2064.0</ele>
        <time>2015-08-16T14:24:35Z</time>
      </trkpt>
      <trkpt lat="40.611733" lon="-4.850383">
        <ele>2063.0</ele>
        <time>2015-08-16T14:24:36Z</time>
      </trkpt>
      <trkpt lat="40.611683" lon="-4.850283">
        <ele>2063.0</ele>
        <time>2015-08-16T14:24:37Z</time>
      </trkpt>
      <trkpt lat="40.611633" lon="-4.850183">
        <ele>2063.0</ele>
        <time>2015-08-16T14:24:38Z</time>
      </trkpt>
      <trkpt lat="40.611583" lon="-4.850083">
        <ele>2063.0</ele>
        <time>2015-08-16T14:24:39Z</time>
      </trkpt>
      <trkpt lat="40.611533" lon="-4.850017">
        <ele>2063.0</ele>
        <time>2015-08-16T14:24:40Z</time>
      </trkpt>
      <trkpt lat="40.611467" lon="-4.849950">
        <ele>2064.0</ele>
        <time>2015-08-16T14:24:41Z</time>
      </trkpt>
      <trkpt lat="40.611383" lon="-4.849883">
        <ele>2065.0</ele>
        <time>2015-08-16T14:24:42Z</time>
      </trkpt>
      <trkpt lat="40.611300" lon="-4.849833">
        <ele>2066.0</ele>
        <time>2015-08-16T14:24:43Z</time>
      </trkpt>
      <trkpt lat="40.611250" lon="-4.849750">
        <ele>2066.0</ele>
        <time>2015-08-16T14:24:44Z</time>
      </trkpt>
      <trkpt lat="40.611200" lon="-4.849650">
        <ele>2067.0</ele>
        <time>2015-08-16T14:24:45Z</time>
      </trkpt>
      <trkpt lat="40.611167" lon="-4.849533">
        <ele>2067.0</ele>
        <time>2015-08-16T14:24:46Z</time>
      </trkpt>
      <trkpt lat="40.611150" lon="-4.849417">
        <ele>2068.0</ele>
        <time>2015-08-16T14:24:47Z</time>
      </trkpt>
      <trkpt lat="40.611150" lon="-4.849317">
        <ele>2068.0</ele>
        <time>2015-08-16T14:24:48Z</time>
      </trkpt>
      <trkpt lat="40.611150" lon="-4.849200">
        <ele>2069.0</ele>
        <time>2015-08-16T14:24:49Z</time>
      </trkpt>
      <trkpt lat="40.611133" lon="-4.849100">
        <ele>2068.0</ele>
        <time>2015-08-16T14:24:50Z</time>
      </trkpt>
      <trkpt lat="40.611150" lon="-4.848983">
        <ele>2068.0</ele>
        <time>2015-08-16T14:24:51Z</time>
      </trkpt>
      <trkpt lat="40.611167" lon="-4.848867">
        <ele>2067.0</ele>
        <time>2015-08-16T14:24:52Z</time>
      </trkpt>
      <trkpt lat="40.611183" lon="-4.848733">
        <ele>2066.0</ele>
        <time>2015-08-16T14:24:53Z</time>
      </trkpt>
      <trkpt lat="40.611200" lon="-4.848617">
        <ele>2064.0</ele>
        <time>2015-08-16T14:24:54Z</time>
      </trkpt>
      <trkpt lat="40.611217" lon="-4.848483">
        <ele>2064.0</ele>
        <time>2015-08-16T14:24:55Z</time>
      </trkpt>
      <trkpt lat="40.611233" lon="-4.848367">
        <ele>2063.0</ele>
        <time>2015-08-16T14:24:56Z</time>
      </trkpt>
      <trkpt lat="40.611250" lon="-4.848250">
        <ele>2062.0</ele>
        <time>2015-08-16T14:24:57Z</time>
      </trkpt>
      <trkpt lat="40.611267" lon="-4.848133">
        <ele>2061.0</ele>
        <time>2015-08-16T14:24:58Z</time>
      </trkpt>
      <trkpt lat="40.611300" lon="-4.848017">
        <ele>2060.0</ele>
        <time>2015-08-16T14:24:59Z</time>
      </trkpt>
      <trkpt lat="40.611317" lon="-4.847883">
        <ele>2059.0</ele>
        <time>2015-08-16T14:25:00Z</time>
      </trkpt>
      <trkpt lat="40.611333" lon="-4.847767">
        <ele>2057.0</ele>
        <time>2015-08-16T14:25:01Z</time>
      </trkpt>
      <trkpt lat="40.611350" lon="-4.847633">
        <ele>2056.0</ele>
        <time>2015-08-16T14:25:02Z</time>
      </trkpt>
      <trkpt lat="40.611383" lon="-4.847500">
        <ele>2055.0</ele>
        <time>2015-08-16T14:25:03Z</time>
      </trkpt>
      <trkpt lat="40.611417" lon="-4.847383">
        <ele>2054.0</ele>
        <time>2015-08-16T14:25:04Z</time>
      </trkpt>
      <trkpt lat="40.611467" lon="-4.847267">
        <ele>2054.0</ele>
        <time>2015-08-16T14:25:05Z</time>
      </trkpt>
      <trkpt lat="40.611500" lon="-4.847167">
        <ele>2053.0</ele>
        <time>2015-08-16T14:25:06Z</time>
      </trkpt>
      <trkpt lat="40.611517" lon="-4.847050">
        <ele>2052.0</ele>
        <time>2015-08-16T14:25:07Z</time>
      </trkpt>
      <trkpt lat="40.611533" lon="-4.846917">
        <ele>2050.0</ele>
        <time>2015-08-16T14:25:08Z</time>
      </trkpt>
      <trkpt lat="40.611567" lon="-4.846800">
        <ele>2048.0</ele>
        <time>2015-08-16T14:25:09Z</time>
      </trkpt>
      <trkpt lat="40.611600" lon="-4.846667">
        <ele>2046.0</ele>
        <time>2015-08-16T14:25:10Z</time>
      </trkpt>
      <trkpt lat="40.611633" lon="-4.846550">
        <ele>2045.0</ele>
        <time>2015-08-16T14:25:11Z</time>
      </trkpt>
      <trkpt lat="40.611667" lon="-4.846417">
        <ele>2044.0</ele>
        <time>2015-08-16T14:25:12Z</time>
      </trkpt>
      <trkpt lat="40.611700" lon="-4.846283">
        <ele>2043.0</ele>
        <time>2015-08-16T14:25:13Z</time>
      </trkpt>
      <trkpt lat="40.611733" lon="-4.846167">
        <ele>2043.0</ele>
        <time>2015-08-16T14:25:14Z</time>
      </trkpt>
      <trkpt lat="40.611767" lon="-4.846050">
        <ele>2043.0</ele>
        <time>2015-08-16T14:25:15Z</time>
      </trkpt>
      <trkpt lat="40.611800" lon="-4.845933">
        <ele>2043.0</ele>
        <time>2015-08-16T14:25:16Z</time>
      </trkpt>
      <trkpt lat="40.611833" lon="-4.845817">
        <ele>2042.0</ele>
        <time>2015-08-16T14:25:17Z</time>
      </trkpt>
      <trkpt lat="40.611850" lon="-4.845700">
        <ele>2040.0</ele>
        <time>2015-08-16T14:25:18Z</time>
      </trkpt>
      <trkpt lat="40.611883" lon="-4.845583">
        <ele>2039.0</ele>
        <time>2015-08-16T14:25:19Z</time>
      </trkpt>
      <trkpt lat="40.611900" lon="-4.845450">
        <ele>2037.0</ele>
        <time>2015-08-16T14:25:20Z</time>
      </trkpt>
      <trkpt lat="40.611933" lon="-4.845317">
        <ele>2035.0</ele>
        <time>2015-08-16T14:25:21Z</time>
      </trkpt>
      <trkpt lat="40.611967" lon="-4.845200">
        <ele>2035.0</ele>
        <time>2015-08-16T14:25:22Z</time>
      </trkpt>
      <trkpt lat="40.611983" lon="-4.845083">
        <ele>2034.0</ele>
        <time>2015-08-16T14:25:23Z</time>
      </trkpt>
      <trkpt lat="40.612017" lon="-4.844983">
        <ele>2033.0</ele>
        <time>2015-08-16T14:25:24Z</time>
      </trkpt>
      <trkpt lat="40.612050" lon="-4.844883">
        <ele>2032.0</ele>
        <time>2015-08-16T14:25:25Z</time>
      </trkpt>
      <trkpt lat="40.612083" lon="-4.844767">
        <ele>2029.0</ele>
        <time>2015-08-16T14:25:26Z</time>
      </trkpt>
      <trkpt lat="40.612117" lon="-4.844650">
        <ele>2027.0</ele>
        <time>2015-08-16T14:25:27Z</time>
      </trkpt>
      <trkpt lat="40.612150" lon="-4.844533">
        <ele>2026.0</ele>
        <time>2015-08-16T14:25:28Z</time>
      </trkpt>
      <trkpt lat="40.612183" lon="-4.844400">
        <ele>2025.0</ele>
        <time>2015-08-16T14:25:29Z</time>
      </trkpt>
      <trkpt lat="40.612217" lon="-4.844283">
        <ele>2024.0</ele>
        <time>2015-08-16T14:25:30Z</time>
      </trkpt>
      <trkpt lat="40.612233" lon="-4.844167">
        <ele>2024.0</ele>
        <time>2015-08-16T14:25:31Z</time>
      </trkpt>
      <trkpt lat="40.612267" lon="-4.844050">
        <ele>2024.0</ele>
        <time>2015-08-16T14:25:32Z</time>
      </trkpt>
      <trkpt lat="40.612300" lon="-4.843950">
        <ele>2024.0</ele>
        <time>2015-08-16T14:25:33Z</time>
      </trkpt>
      <trkpt lat="40.612333" lon="-4.843833">
        <ele>2024.0</ele>
        <time>2015-08-16T14:25:34Z</time>
      </trkpt>
      <trkpt lat="40.612367" lon="-4.843717">
        <ele>2023.0</ele>
        <time>2015-08-16T14:25:35Z</time>
      </trkpt>
      <trkpt lat="40.612400" lon="-4.843600">
        <ele>2023.0</ele>
        <time>2015-08-16T14:25:36Z</time>
      </trkpt>
      <trkpt lat="40.612433" lon="-4.843483">
        <ele>2022.0</ele>
        <time>2015-08-16T14:25:37Z</time>
      </trkpt>
      <trkpt lat="40.612467" lon="-4.843367">
        <ele>2021.0</ele>
        <time>2015-08-16T14:25:38Z</time>
      </trkpt>
      <trkpt lat="40.612500" lon="-4.843250">
        <ele>2020.0</ele>
        <time>2015-08-16T14:25:39Z</time>
      </trkpt>
      <trkpt lat="40.612550" lon="-4.843117">
        <ele>2019.0</ele>
        <time>2015-08-16T14:25:40Z</time>
      </trkpt>
      <trkpt lat="40.612583" lon="-4.843000">
        <ele>2020.0</ele>
        <time>2015-08-16T14:25:41Z</time>
      </trkpt>
      <trkpt lat="40.612633" lon="-4.842883">
        <ele>2021.0</ele>
        <time>2015-08-16T14:25:42Z</time>
      </trkpt>
      <trkpt lat="40.612667" lon="-4.842783">
        <ele>2021.0</ele>
        <time>2015-08-16T14:25:43Z</time>
      </trkpt>
      <trkpt lat="40.612717" lon="-4.842683">
        <ele>2022.0</ele>
        <time>2015-08-16T14:25:44Z</time>
      </trkpt>
      <trkpt lat="40.612767" lon="-4.842567">
        <ele>2022.0</ele>
        <time>2015-08-16T14:25:45Z</time>
      </trkpt>
      <trkpt lat="40.612817" lon="-4.842467">
        <ele>2022.0</ele>
        <time>2015-08-16T14:25:46Z</time>
      </trkpt>
      <trkpt lat="40.612850" lon="-4.842367">
        <ele>2022.0</ele>
        <time>2015-08-16T14:25:47Z</time>
      </trkpt>
      <trkpt lat="40.612900" lon="-4.842250">
        <ele>2022.0</ele>
        <time>2015-08-16T14:25:48Z</time>
      </trkpt>
      <trkpt lat="40.612933" lon="-4.842150">
        <ele>2022.0</ele>
        <time>2015-08-16T14:25:49Z</time>
      </trkpt>
      <trkpt lat="40.612983" lon="-4.842050">
        <ele>2023.0</ele>
        <time>2015-08-16T14:25:50Z</time>
      </trkpt>
      <trkpt lat="40.613017" lon="-4.841950">
        <ele>2023.0</ele>
        <time>2015-08-16T14:25:51Z</time>
      </trkpt>
      <trkpt lat="40.613067" lon="-4.841850">
        <ele>2023.0</ele>
        <time>2015-08-16T14:25:52Z</time>
      </trkpt>
      <trkpt lat="40.613117" lon="-4.841733">
        <ele>2022.0</ele>
        <time>2015-08-16T14:25:53Z</time>
      </trkpt>
      <trkpt lat="40.613150" lon="-4.841600">
        <ele>2021.0</ele>
        <time>2015-08-16T14:25:54Z</time>
      </trkpt>
      <trkpt lat="40.613200" lon="-4.841483">
        <ele>2020.0</ele>
        <time>2015-08-16T14:25:55Z</time>
      </trkpt>
      <trkpt lat="40.613233" lon="-4.841350">
        <ele>2021.0</ele>
        <time>2015-08-16T14:25:56Z</time>
      </trkpt>
      <trkpt lat="40.613267" lon="-4.841233">
        <ele>2022.0</ele>
        <time>2015-08-16T14:25:57Z</time>
      </trkpt>
      <trkpt lat="40.613283" lon="-4.841117">
        <ele>2023.0</ele>
        <time>2015-08-16T14:25:58Z</time>
      </trkpt>
      <trkpt lat="40.613300" lon="-4.841000">
        <ele>2024.0</ele>
        <time>2015-08-16T14:25:59Z</time>
      </trkpt>
      <trkpt lat="40.613317" lon="-4.840883">
        <ele>2024.0</ele>
        <time>2015-08-16T14:26:00Z</time>
      </trkpt>
      <trkpt lat="40.613350" lon="-4.840783">
        <ele>2024.0</ele>
        <time>2015-08-16T14:26:01Z</time>
      </trkpt>
      <trkpt lat="40.613400" lon="-4.840683">
        <ele>2023.0</ele>
        <time>2015-08-16T14:26:02Z</time>
      </trkpt>
      <trkpt lat="40.613467" lon="-4.840600">
        <ele>2023.0</ele>
        <time>2015-08-16T14:26:03Z</time>
      </trkpt>
      <trkpt lat="40.613517" lon="-4.840500">
        <ele>2024.0</ele>
        <time>2015-08-16T14:26:04Z</time>
      </trkpt>
      <trkpt lat="40.613567" lon="-4.840400">
        <ele>2024.0</ele>
        <time>2015-08-16T14:26:05Z</time>
      </trkpt>
      <trkpt lat="40.613600" lon="-4.840300">
        <ele>2025.0</ele>
        <time>2015-08-16T14:26:06Z</time>
      </trkpt>
      <trkpt lat="40.613650" lon="-4.840200">
        <ele>2025.0</ele>
        <time>2015-08-16T14:26:07Z</time>
      </trkpt>
      <trkpt lat="40.613683" lon="-4.840117">
        <ele>2025.0</ele>
        <time>2015-08-16T14:26:08Z</time>
      </trkpt>
      <trkpt lat="40.613733" lon="-4.840017">
        <ele>2024.0</ele>
        <time>2015-08-16T14:26:09Z</time>
      </trkpt>
      <trkpt lat="40.613783" lon="-4.839917">
        <ele>2022.0</ele>
        <time>2015-08-16T14:26:10Z</time>
      </trkpt>
      <trkpt lat="40.613817" lon="-4.839800">
        <ele>2020.0</ele>
        <time>2015-08-16T14:26:11Z</time>
      </trkpt>
      <trkpt lat="40.613850" lon="-4.839683">
        <ele>2019.0</ele>
        <time>2015-08-16T14:26:12Z</time>
      </trkpt>
      <trkpt lat="40.613883" lon="-4.839550">
        <ele>2017.0</ele>
        <time>2015-08-16T14:26:13Z</time>
      </trkpt>
      <trkpt lat="40.613917" lon="-4.839433">
        <ele>2016.0</ele>
        <time>2015-08-16T14:26:14Z</time>
      </trkpt>
      <trkpt lat="40.613917" lon="-4.839300">
        <ele>2016.0</ele>
        <time>2015-08-16T14:26:15Z</time>
      </trkpt>
      <trkpt lat="40.613933" lon="-4.839183">
        <ele>2015.0</ele>
        <time>2015-08-16T14:26:16Z</time>
      </trkpt>
      <trkpt lat="40.613967" lon="-4.839083">
        <ele>2014.0</ele>
        <time>2015-08-16T14:26:17Z</time>
      </trkpt>
      <trkpt lat="40.613983" lon="-4.838967">
        <ele>2012.0</ele>
        <time>2015-08-16T14:26:18Z</time>
      </trkpt>
      <trkpt lat="40.614017" lon="-4.838850">
        <ele>2011.0</ele>
        <time>2015-08-16T14:26:19Z</time>
      </trkpt>
      <trkpt lat="40.614050" lon="-4.838717">
        <ele>2009.0</ele>
        <time>2015-08-16T14:26:20Z</time>
      </trkpt>
      <trkpt lat="40.614067" lon="-4.838600">
        <ele>2007.0</ele>
        <time>2015-08-16T14:26:21Z</time>
      </trkpt>
      <trkpt lat="40.614100" lon="-4.838467">
        <ele>2006.0</ele>
        <time>2015-08-16T14:26:22Z</time>
      </trkpt>
      <trkpt lat="40.614133" lon="-4.838333">
        <ele>2005.0</ele>
        <time>2015-08-16T14:26:23Z</time>
      </trkpt>
      <trkpt lat="40.614150" lon="-4.838217">
        <ele>2004.0</ele>
        <time>2015-08-16T14:26:24Z</time>
      </trkpt>
      <trkpt lat="40.614167" lon="-4.838083">
        <ele>2003.0</ele>
        <time>2015-08-16T14:26:25Z</time>
      </trkpt>
      <trkpt lat="40.614200" lon="-4.837967">
        <ele>2002.0</ele>
        <time>2015-08-16T14:26:26Z</time>
      </trkpt>
      <trkpt lat="40.614233" lon="-4.837833">
        <ele>2001.0</ele>
        <time>2015-08-16T14:26:27Z</time>
      </trkpt>
      <trkpt lat="40.614267" lon="-4.837717">
        <ele>2000.0</ele>
        <time>2015-08-16T14:26:28Z</time>
      </trkpt>
      <trkpt lat="40.614283" lon="-4.837583">
        <ele>1999.0</ele>
        <time>2015-08-16T14:26:29Z</time>
      </trkpt>
      <trkpt lat="40.614317" lon="-4.837467">
        <ele>1998.0</ele>
        <time>2015-08-16T14:26:30Z</time>
      </trkpt>
      <trkpt lat="40.614333" lon="-4.837333">
        <ele>1997.0</ele>
        <time>2015-08-16T14:26:31Z</time>
      </trkpt>
      <trkpt lat="40.614350" lon="-4.837200">
        <ele>1996.0</ele>
        <time>2015-08-16T14:26:32Z</time>
      </trkpt>
      <trkpt lat="40.614367" lon="-4.837067">
        <ele>1995.0</ele>
        <time>2015-08-16T14:26:33Z</time>
      </trkpt>
      <trkpt lat="40.614400" lon="-4.836933">
        <ele>1994.0</ele>
        <time>2015-08-16T14:26:34Z</time>
      </trkpt>
      <trkpt lat="40.614417" lon="-4.836817">
        <ele>1994.0</ele>
        <time>2015-08-16T14:26:35Z</time>
      </trkpt>
      <trkpt lat="40.614433" lon="-4.836683">
        <ele>1993.0</ele>
        <time>2015-08-16T14:26:36Z</time>
      </trkpt>
      <trkpt lat="40.614450" lon="-4.836567">
        <ele>1992.0</ele>
        <time>2015-08-16T14:26:37Z</time>
      </trkpt>
      <trkpt lat="40.614467" lon="-4.836433">
        <ele>1990.0</ele>
        <time>2015-08-16T14:26:38Z</time>
      </trkpt>
      <trkpt lat="40.614483" lon="-4.836317">
        <ele>1988.0</ele>
        <time>2015-08-16T14:26:39Z</time>
      </trkpt>
      <trkpt lat="40.614517" lon="-4.836183">
        <ele>1987.0</ele>
        <time>2015-08-16T14:26:40Z</time>
      </trkpt>
      <trkpt lat="40.614533" lon="-4.836050">
        <ele>1985.0</ele>
        <time>2015-08-16T14:26:41Z</time>
      </trkpt>
      <trkpt lat="40.614567" lon="-4.835917">
        <ele>1984.0</ele>
        <time>2015-08-16T14:26:42Z</time>
      </trkpt>
      <trkpt lat="40.614583" lon="-4.835783">
        <ele>1983.0</ele>
        <time>2015-08-16T14:26:43Z</time>
      </trkpt>
      <trkpt lat="40.614600" lon="-4.835650">
        <ele>1982.0</ele>
        <time>2015-08-16T14:26:44Z</time>
      </trkpt>
      <trkpt lat="40.614617" lon="-4.835517">
        <ele>1981.0</ele>
        <time>2015-08-16T14:26:45Z</time>
      </trkpt>
      <trkpt lat="40.614633" lon="-4.835383">
        <ele>1979.0</ele>
        <time>2015-08-16T14:26:46Z</time>
      </trkpt>
      <trkpt lat="40.614650" lon="-4.835250">
        <ele>1979.0</ele>
        <time>2015-08-16T14:26:47Z</time>
      </trkpt>
      <trkpt lat="40.614667" lon="-4.835133">
        <ele>1978.0</ele>
        <time>2015-08-16T14:26:48Z</time>
      </trkpt>
      <trkpt lat="40.614700" lon="-4.835000">
        <ele>1977.0</ele>
        <time>2015-08-16T14:26:49Z</time>
      </trkpt>
      <trkpt lat="40.614717" lon="-4.834867">
        <ele>1976.0</ele>
        <time>2015-08-16T14:26:50Z</time>
      </trkpt>
      <trkpt lat="40.614750" lon="-4.834750">
        <ele>1975.0</ele>
        <time>2015-08-16T14:26:51Z</time>
      </trkpt>
      <trkpt lat="40.614800" lon="-4.834617">
        <ele>1974.0</ele>
        <time>2015-08-16T14:26:52Z</time>
      </trkpt>
      <trkpt lat="40.614833" lon="-4.834500">
        <ele>1972.0</ele>
        <time>2015-08-16T14:26:53Z</time>
      </trkpt>
      <trkpt lat="40.614883" lon="-4.834367">
        <ele>1971.0</ele>
        <time>2015-08-16T14:26:54Z</time>
      </trkpt>
      <trkpt lat="40.614917" lon="-4.834233">
        <ele>1970.0</ele>
        <time>2015-08-16T14:26:55Z</time>
      </trkpt>
      <trkpt lat="40.614950" lon="-4.834100">
        <ele>1969.0</ele>
        <time>2015-08-16T14:26:56Z</time>
      </trkpt>
      <trkpt lat="40.614967" lon="-4.833983">
        <ele>1969.0</ele>
        <time>2015-08-16T14:26:57Z</time>
      </trkpt>
      <trkpt lat="40.615000" lon="-4.833867">
        <ele>1968.0</ele>
        <time>2015-08-16T14:26:58Z</time>
      </trkpt>
      <trkpt lat="40.615017" lon="-4.833733">
        <ele>1966.0</ele>
        <time>2015-08-16T14:26:59Z</time>
      </trkpt>
      <trkpt lat="40.615033" lon="-4.833617">
        <ele>1964.0</ele>
        <time>2015-08-16T14:27:00Z</time>
      </trkpt>
      <trkpt lat="40.615050" lon="-4.833483">
        <ele>1961.0</ele>
        <time>2015-08-16T14:27:01Z</time>
      </trkpt>
      <trkpt lat="40.615067" lon="-4.833350">
        <ele>1958.0</ele>
        <time>2015-08-16T14:27:02Z</time>
      </trkpt>
      <trkpt lat="40.615083" lon="-4.833217">
        <ele>1955.0</ele>
        <time>2015-08-16T14:27:03Z</time>
      </trkpt>
      <trkpt lat="40.615117" lon="-4.833067">
        <ele>1952.0</ele>
        <time>2015-08-16T14:27:04Z</time>
      </trkpt>
      <trkpt lat="40.615133" lon="-4.832933">
        <ele>1950.0</ele>
        <time>2015-08-16T14:27:05Z</time>
      </trkpt>
      <trkpt lat="40.615150" lon="-4.832783">
        <ele>1948.0</ele>
        <time>2015-08-16T14:27:06Z</time>
      </trkpt>
      <trkpt lat="40.615167" lon="-4.832650">
        <ele>1946.0</ele>
        <time>2015-08-16T14:27:07Z</time>
      </trkpt>
      <trkpt lat="40.615200" lon="-4.832517">
        <ele>1944.0</ele>
        <time>2015-08-16T14:27:08Z</time>
      </trkpt>
      <trkpt lat="40.615200" lon="-4.832383">
        <ele>1942.0</ele>
        <time>2015-08-16T14:27:09Z</time>
      </trkpt>
      <trkpt lat="40.615217" lon="-4.832250">
        <ele>1940.0</ele>
        <time>2015-08-16T14:27:10Z</time>
      </trkpt>
      <trkpt lat="40.615217" lon="-4.832117">
        <ele>1940.0</ele>
        <time>2015-08-16T14:27:11Z</time>
      </trkpt>
      <trkpt lat="40.615233" lon="-4.831983">
        <ele>1939.0</ele>
        <time>2015-08-16T14:27:12Z</time>
      </trkpt>
      <trkpt lat="40.615250" lon="-4.831867">
        <ele>1938.0</ele>
        <time>2015-08-16T14:27:13Z</time>
      </trkpt>
      <trkpt lat="40.615267" lon="-4.831750">
        <ele>1937.0</ele>
        <time>2015-08-16T14:27:14Z</time>
      </trkpt>
      <trkpt lat="40.615267" lon="-4.831650">
        <ele>1936.0</ele>
        <time>2015-08-16T14:27:15Z</time>
      </trkpt>
      <trkpt lat="40.615283" lon="-4.831550">
        <ele>1935.0</ele>
        <time>2015-08-16T14:27:16Z</time>
      </trkpt>
      <trkpt lat="40.615300" lon="-4.831433">
        <ele>1932.0</ele>
        <time>2015-08-16T14:27:17Z</time>
      </trkpt>
      <trkpt lat="40.615317" lon="-4.831317">
        <ele>1929.0</ele>
        <time>2015-08-16T14:27:18Z</time>
      </trkpt>
      <trkpt lat="40.615350" lon="-4.831183">
        <ele>1927.0</ele>
        <time>2015-08-16T14:27:19Z</time>
      </trkpt>
      <trkpt lat="40.615367" lon="-4.831050">
        <ele>1925.0</ele>
        <time>2015-08-16T14:27:20Z</time>
      </trkpt>
      <trkpt lat="40.615383" lon="-4.830917">
        <ele>1925.0</ele>
        <time>2015-08-16T14:27:21Z</time>
      </trkpt>
      <trkpt lat="40.615400" lon="-4.830800">
        <ele>1924.0</ele>
        <time>2015-08-16T14:27:22Z</time>
      </trkpt>
      <trkpt lat="40.615400" lon="-4.830683">
        <ele>1924.0</ele>
        <time>2015-08-16T14:27:23Z</time>
      </trkpt>
      <trkpt lat="40.615417" lon="-4.830567">
        <ele>1922.0</ele>
        <time>2015-08-16T14:27:24Z</time>
      </trkpt>
      <trkpt lat="40.615417" lon="-4.830433">
        <ele>1919.0</ele>
        <time>2015-08-16T14:27:25Z</time>
      </trkpt>
      <trkpt lat="40.615417" lon="-4.830300">
        <ele>1917.0</ele>
        <time>2015-08-16T14:27:26Z</time>
      </trkpt>
      <trkpt lat="40.615417" lon="-4.830167">
        <ele>1915.0</ele>
        <time>2015-08-16T14:27:27Z</time>
      </trkpt>
      <trkpt lat="40.615417" lon="-4.830033">
        <ele>1915.0</ele>
        <time>2015-08-16T14:27:28Z</time>
      </trkpt>
      <trkpt lat="40.615433" lon="-4.829917">
        <ele>1915.0</ele>
        <time>2015-08-16T14:27:29Z</time>
      </trkpt>
      <trkpt lat="40.615433" lon="-4.829800">
        <ele>1914.0</ele>
        <time>2015-08-16T14:27:30Z</time>
      </trkpt>
      <trkpt lat="40.615450" lon="-4.829700">
        <ele>1912.0</ele>
        <time>2015-08-16T14:27:31Z</time>
      </trkpt>
      <trkpt lat="40.615467" lon="-4.829583">
        <ele>1910.0</ele>
        <time>2015-08-16T14:27:32Z</time>
      </trkpt>
      <trkpt lat="40.615483" lon="-4.829450">
        <ele>1907.0</ele>
        <time>2015-08-16T14:27:33Z</time>
      </trkpt>
      <trkpt lat="40.615500" lon="-4.829317">
        <ele>1905.0</ele>
        <time>2015-08-16T14:27:34Z</time>
      </trkpt>
      <trkpt lat="40.615533" lon="-4.829200">
        <ele>1904.0</ele>
        <time>2015-08-16T14:27:35Z</time>
      </trkpt>
      <trkpt lat="40.615550" lon="-4.829067">
        <ele>1904.0</ele>
        <time>2015-08-16T14:27:36Z</time>
      </trkpt>
      <trkpt lat="40.615567" lon="-4.828950">
        <ele>1903.0</ele>
        <time>2015-08-16T14:27:37Z</time>
      </trkpt>
      <trkpt lat="40.615583" lon="-4.828833">
        <ele>1902.0</ele>
        <time>2015-08-16T14:27:38Z</time>
      </trkpt>
      <trkpt lat="40.615600" lon="-4.828733">
        <ele>1901.0</ele>
        <time>2015-08-16T14:27:39Z</time>
      </trkpt>
      <trkpt lat="40.615617" lon="-4.828600">
        <ele>1899.0</ele>
        <time>2015-08-16T14:27:40Z</time>
      </trkpt>
      <trkpt lat="40.615633" lon="-4.828467">
        <ele>1897.0</ele>
        <time>2015-08-16T14:27:41Z</time>
      </trkpt>
      <trkpt lat="40.615650" lon="-4.828333">
        <ele>1895.0</ele>
        <time>2015-08-16T14:27:42Z</time>
      </trkpt>
      <trkpt lat="40.615667" lon="-4.828200">
        <ele>1894.0</ele>
        <time>2015-08-16T14:27:43Z</time>
      </trkpt>
      <trkpt lat="40.615700" lon="-4.828067">
        <ele>1894.0</ele>
        <time>2015-08-16T14:27:44Z</time>
      </trkpt>
      <trkpt lat="40.615717" lon="-4.827967">
        <ele>1894.0</ele>
        <time>2015-08-16T14:27:45Z</time>
      </trkpt>
      <trkpt lat="40.615733" lon="-4.827867">
        <ele>1893.0</ele>
        <time>2015-08-16T14:27:46Z</time>
      </trkpt>
      <trkpt lat="40.615750" lon="-4.827750">
        <ele>1891.0</ele>
        <time>2015-08-16T14:27:47Z</time>
      </trkpt>
      <trkpt lat="40.615783" lon="-4.827633">
        <ele>1889.0</ele>
        <time>2015-08-16T14:27:48Z</time>
      </trkpt>
      <trkpt lat="40.615800" lon="-4.827500">
        <ele>1886.0</ele>
        <time>2015-08-16T14:27:49Z</time>
      </trkpt>
      <trkpt lat="40.615817" lon="-4.827367">
        <ele>1884.0</ele>
        <time>2015-08-16T14:27:50Z</time>
      </trkpt>
      <trkpt lat="40.615833" lon="-4.827250">
        <ele>1883.0</ele>
        <time>2015-08-16T14:27:51Z</time>
      </trkpt>
      <trkpt lat="40.615867" lon="-4.827133">
        <ele>1882.0</ele>
        <time>2015-08-16T14:27:52Z</time>
      </trkpt>
      <trkpt lat="40.615883" lon="-4.827017">
        <ele>1881.0</ele>
        <time>2015-08-16T14:27:53Z</time>
      </trkpt>
      <trkpt lat="40.615900" lon="-4.826917">
        <ele>1880.0</ele>
        <time>2015-08-16T14:27:54Z</time>
      </trkpt>
      <trkpt lat="40.615933" lon="-4.826800">
        <ele>1877.0</ele>
        <time>2015-08-16T14:27:55Z</time>
      </trkpt>
      <trkpt lat="40.615950" lon="-4.826700">
        <ele>1875.0</ele>
        <time>2015-08-16T14:27:56Z</time>
      </trkpt>
      <trkpt lat="40.615983" lon="-4.826567">
        <ele>1872.0</ele>
        <time>2015-08-16T14:27:57Z</time>
      </trkpt>
      <trkpt lat="40.616017" lon="-4.826450">
        <ele>1870.0</ele>
        <time>2015-08-16T14:27:58Z</time>
      </trkpt>
      <trkpt lat="40.616050" lon="-4.826333">
        <ele>1869.0</ele>
        <time>2015-08-16T14:27:59Z</time>
      </trkpt>
      <trkpt lat="40.616083" lon="-4.826217">
        <ele>1867.0</ele>
        <time>2015-08-16T14:28:00Z</time>
      </trkpt>
      <trkpt lat="40.616117" lon="-4.826117">
        <ele>1865.0</ele>
        <time>2015-08-16T14:28:01Z</time>
      </trkpt>
      <trkpt lat="40.616133" lon="-4.826000">
        <ele>1862.0</ele>
        <time>2015-08-16T14:28:02Z</time>
      </trkpt>
      <trkpt lat="40.616133" lon="-4.825867">
        <ele>1859.0</ele>
        <time>2015-08-16T14:28:03Z</time>
      </trkpt>
      <trkpt lat="40.616133" lon="-4.825733">
        <ele>1855.0</ele>
        <time>2015-08-16T14:28:04Z</time>
      </trkpt>
      <trkpt lat="40.616117" lon="-4.825600">
        <ele>1853.0</ele>
        <time>2015-08-16T14:28:05Z</time>
      </trkpt>
      <trkpt lat="40.616117" lon="-4.825483">
        <ele>1852.0</ele>
        <time>2015-08-16T14:28:06Z</time>
      </trkpt>
      <trkpt lat="40.616117" lon="-4.825367">
        <ele>1850.0</ele>
        <time>2015-08-16T14:28:07Z</time>
      </trkpt>
      <trkpt lat="40.616100" lon="-4.825267">
        <ele>1848.0</ele>
        <time>2015-08-16T14:28:08Z</time>
      </trkpt>
      <trkpt lat="40.616083" lon="-4.825150">
        <ele>1845.0</ele>
        <time>2015-08-16T14:28:09Z</time>
      </trkpt>
      <trkpt lat="40.616083" lon="-4.825033">
        <ele>1842.0</ele>
        <time>2015-08-16T14:28:10Z</time>
      </trkpt>
      <trkpt lat="40.616067" lon="-4.824917">
        <ele>1838.0</ele>
        <time>2015-08-16T14:28:11Z</time>
      </trkpt>
      <trkpt lat="40.616067" lon="-4.824783">
        <ele>1835.0</ele>
        <time>2015-08-16T14:28:12Z</time>
      </trkpt>
      <trkpt lat="40.616067" lon="-4.824650">
        <ele>1833.0</ele>
        <time>2015-08-16T14:28:13Z</time>
      </trkpt>
      <trkpt lat="40.616067" lon="-4.824533">
        <ele>1832.0</ele>
        <time>2015-08-16T14:28:14Z</time>
      </trkpt>
      <trkpt lat="40.616067" lon="-4.824417">
        <ele>1831.0</ele>
        <time>2015-08-16T14:28:15Z</time>
      </trkpt>
      <trkpt lat="40.616067" lon="-4.824317">
        <ele>1829.0</ele>
        <time>2015-08-16T14:28:16Z</time>
      </trkpt>
      <trkpt lat="40.616067" lon="-4.824200">
        <ele>1825.0</ele>
        <time>2015-08-16T14:28:17Z</time>
      </trkpt>
      <trkpt lat="40.616067" lon="-4.824083">
        <ele>1821.0</ele>
        <time>2015-08-16T14:28:18Z</time>
      </trkpt>
      <trkpt lat="40.616067" lon="-4.823950">
        <ele>1817.0</ele>
        <time>2015-08-16T14:28:19Z</time>
      </trkpt>
      <trkpt lat="40.616083" lon="-4.823817">
        <ele>1813.0</ele>
        <time>2015-08-16T14:28:20Z</time>
      </trkpt>
      <trkpt lat="40.616083" lon="-4.823683">
        <ele>1811.0</ele>
        <time>2015-08-16T14:28:21Z</time>
      </trkpt>
      <trkpt lat="40.616100" lon="-4.823550">
        <ele>1808.0</ele>
        <time>2015-08-16T14:28:22Z</time>
      </trkpt>
      <trkpt lat="40.616117" lon="-4.823433">
        <ele>1805.0</ele>
        <time>2015-08-16T14:28:23Z</time>
      </trkpt>
      <trkpt lat="40.616133" lon="-4.823300">
        <ele>1801.0</ele>
        <time>2015-08-16T14:28:24Z</time>
      </trkpt>
      <trkpt lat="40.616150" lon="-4.823167">
        <ele>1798.0</ele>
        <time>2015-08-16T14:28:25Z</time>
      </trkpt>
      <trkpt lat="40.616150" lon="-4.823033">
        <ele>1795.0</ele>
        <time>2015-08-16T14:28:26Z</time>
      </trkpt>
      <trkpt lat="40.616150" lon="-4.822900">
        <ele>1792.0</ele>
        <time>2015-08-16T14:28:27Z</time>
      </trkpt>
      <trkpt lat="40.616150" lon="-4.822767">
        <ele>1789.0</ele>
        <time>2015-08-16T14:28:28Z</time>
      </trkpt>
      <trkpt lat="40.616150" lon="-4.822633">
        <ele>1786.0</ele>
        <time>2015-08-16T14:28:29Z</time>
      </trkpt>
      <trkpt lat="40.616150" lon="-4.822500">
        <ele>1783.0</ele>
        <time>2015-08-16T14:28:30Z</time>
      </trkpt>
      <trkpt lat="40.616167" lon="-4.822367">
        <ele>1781.0</ele>
        <time>2015-08-16T14:28:31Z</time>
      </trkpt>
      <trkpt lat="40.616183" lon="-4.822233">
        <ele>1779.0</ele>
        <time>2015-08-16T14:28:32Z</time>
      </trkpt>
      <trkpt lat="40.616200" lon="-4.822100">
        <ele>1777.0</ele>
        <time>2015-08-16T14:28:33Z</time>
      </trkpt>
      <trkpt lat="40.616217" lon="-4.821967">
        <ele>1776.0</ele>
        <time>2015-08-16T14:28:34Z</time>
      </trkpt>
      <trkpt lat="40.616250" lon="-4.821850">
        <ele>1774.0</ele>
        <time>2015-08-16T14:28:35Z</time>
      </trkpt>
      <trkpt lat="40.616283" lon="-4.821733">
        <ele>1772.0</ele>
        <time>2015-08-16T14:28:36Z</time>
      </trkpt>
      <trkpt lat="40.616317" lon="-4.821617">
        <ele>1770.0</ele>
        <time>2015-08-16T14:28:37Z</time>
      </trkpt>
      <trkpt lat="40.616350" lon="-4.821500">
        <ele>1768.0</ele>
        <time>2015-08-16T14:28:38Z</time>
      </trkpt>
      <trkpt lat="40.616400" lon="-4.821383">
        <ele>1765.0</ele>
        <time>2015-08-16T14:28:39Z</time>
      </trkpt>
      <trkpt lat="40.616433" lon="-4.821267">
        <ele>1762.0</ele>
        <time>2015-08-16T14:28:40Z</time>
      </trkpt>
      <trkpt lat="40.616483" lon="-4.821133">
        <ele>1759.0</ele>
        <time>2015-08-16T14:28:41Z</time>
      </trkpt>
      <trkpt lat="40.616517" lon="-4.821017">
        <ele>1757.0</ele>
        <time>2015-08-16T14:28:42Z</time>
      </trkpt>
      <trkpt lat="40.616550" lon="-4.820900">
        <ele>1755.0</ele>
        <time>2015-08-16T14:28:43Z</time>
      </trkpt>
      <trkpt lat="40.616583" lon="-4.820783">
        <ele>1752.0</ele>
        <time>2015-08-16T14:28:44Z</time>
      </trkpt>
      <trkpt lat="40.616600" lon="-4.820667">
        <ele>1749.0</ele>
        <time>2015-08-16T14:28:45Z</time>
      </trkpt>
      <trkpt lat="40.616633" lon="-4.820550">
        <ele>1745.0</ele>
        <time>2015-08-16T14:28:46Z</time>
      </trkpt>
      <trkpt lat="40.616650" lon="-4.820417">
        <ele>1742.0</ele>
        <time>2015-08-16T14:28:47Z</time>
      </trkpt>
      <trkpt lat="40.616667" lon="-4.820283">
        <ele>1738.0</ele>
        <time>2015-08-16T14:28:48Z</time>
      </trkpt>
      <trkpt lat="40.616683" lon="-4.820150">
        <ele>1736.0</ele>
        <time>2015-08-16T14:28:49Z</time>
      </trkpt>
      <trkpt lat="40.616683" lon="-4.820017">
        <ele>1733.0</ele>
        <time>2015-08-16T14:28:50Z</time>
      </trkpt>
      <trkpt lat="40.616700" lon="-4.819883">
        <ele>1731.0</ele>
        <time>2015-08-16T14:28:51Z</time>
      </trkpt>
      <trkpt lat="40.616717" lon="-4.819767">
        <ele>1729.0</ele>
        <time>2015-08-16T14:28:52Z</time>
      </trkpt>
      <trkpt lat="40.616750" lon="-4.819650">
        <ele>1727.0</ele>
        <time>2015-08-16T14:28:53Z</time>
      </trkpt>
      <trkpt lat="40.616767" lon="-4.819533">
        <ele>1724.0</ele>
        <time>2015-08-16T14:28:54Z</time>
      </trkpt>
      <trkpt lat="40.616800" lon="-4.819400">
        <ele>1721.0</ele>
        <time>2015-08-16T14:28:55Z</time>
      </trkpt>
      <trkpt lat="40.616833" lon="-4.819267">
        <ele>1719.0</ele>
        <time>2015-08-16T14:28:56Z</time>
      </trkpt>
      <trkpt lat="40.616867" lon="-4.819150">
        <ele>1718.0</ele>
        <time>2015-08-16T14:28:57Z</time>
      </trkpt>
      <trkpt lat="40.616900" lon="-4.819017">
        <ele>1717.0</ele>
        <time>2015-08-16T14:28:58Z</time>
      </trkpt>
      <trkpt lat="40.616933" lon="-4.818917">
        <ele>1716.0</ele>
        <time>2015-08-16T14:28:59Z</time>
      </trkpt>
      <trkpt lat="40.616967" lon="-4.818800">
        <ele>1714.0</ele>
        <time>2015-08-16T14:29:00Z</time>
      </trkpt>
      <trkpt lat="40.617017" lon="-4.818700">
        <ele>1712.0</ele>
        <time>2015-08-16T14:29:01Z</time>
      </trkpt>
      <trkpt lat="40.617067" lon="-4.818583">
        <ele>1710.0</ele>
        <time>2015-08-16T14:29:02Z</time>
      </trkpt>
      <trkpt lat="40.617100" lon="-4.818483">
        <ele>1708.0</ele>
        <time>2015-08-16T14:29:03Z</time>
      </trkpt>
      <trkpt lat="40.617150" lon="-4.818367">
        <ele>1707.0</ele>
        <time>2015-08-16T14:29:04Z</time>
      </trkpt>
      <trkpt lat="40.617183" lon="-4.818250">
        <ele>1705.0</ele>
        <time>2015-08-16T14:29:05Z</time>
      </trkpt>
      <trkpt lat="40.617217" lon="-4.818133">
        <ele>1703.0</ele>
        <time>2015-08-16T14:29:06Z</time>
      </trkpt>
      <trkpt lat="40.617233" lon="-4.818017">
        <ele>1702.0</ele>
        <time>2015-08-16T14:29:07Z</time>
      </trkpt>
      <trkpt lat="40.617267" lon="-4.817900">
        <ele>1700.0</ele>
        <time>2015-08-16T14:29:08Z</time>
      </trkpt>
      <trkpt lat="40.617300" lon="-4.817783">
        <ele>1698.0</ele>
        <time>2015-08-16T14:29:09Z</time>
      </trkpt>
      <trkpt lat="40.617333" lon="-4.817667">
        <ele>1696.0</ele>
        <time>2015-08-16T14:29:10Z</time>
      </trkpt>
      <trkpt lat="40.617350" lon="-4.817567">
        <ele>1694.0</ele>
        <time>2015-08-16T14:29:11Z</time>
      </trkpt>
      <trkpt lat="40.617383" lon="-4.817467">
        <ele>1691.0</ele>
        <time>2015-08-16T14:29:12Z</time>
      </trkpt>
      <trkpt lat="40.617417" lon="-4.817367">
        <ele>1689.0</ele>
        <time>2015-08-16T14:29:13Z</time>
      </trkpt>
      <trkpt lat="40.617450" lon="-4.817267">
        <ele>1686.0</ele>
        <time>2015-08-16T14:29:14Z</time>
      </trkpt>
      <trkpt lat="40.617467" lon="-4.817150">
        <ele>1684.0</ele>
        <time>2015-08-16T14:29:15Z</time>
      </trkpt>
      <trkpt lat="40.617483" lon="-4.817050">
        <ele>1681.0</ele>
        <time>2015-08-16T14:29:16Z</time>
      </trkpt>
      <trkpt lat="40.617500" lon="-4.816933">
        <ele>1679.0</ele>
        <time>2015-08-16T14:29:17Z</time>
      </trkpt>
      <trkpt lat="40.617533" lon="-4.816833">
        <ele>1677.0</ele>
        <time>2015-08-16T14:29:18Z</time>
      </trkpt>
      <trkpt lat="40.617550" lon="-4.816750">
        <ele>1676.0</ele>
        <time>2015-08-16T14:29:19Z</time>
      </trkpt>
      <trkpt lat="40.617550" lon="-4.816650">
        <ele>1674.0</ele>
        <time>2015-08-16T14:29:20Z</time>
      </trkpt>
      <trkpt lat="40.617567" lon="-4.816550">
        <ele>1673.0</ele>
        <time>2015-08-16T14:29:21Z</time>
      </trkpt>
      <trkpt lat="40.617583" lon="-4.816450">
        <ele>1671.0</ele>
        <time>2015-08-16T14:29:22Z</time>
      </trkpt>
      <trkpt lat="40.617600" lon="-4.816367">
        <ele>1668.0</ele>
        <time>2015-08-16T14:29:23Z</time>
      </trkpt>
      <trkpt lat="40.617617" lon="-4.816267">
        <ele>1666.0</ele>
        <time>2015-08-16T14:29:24Z</time>
      </trkpt>
      <trkpt lat="40.617633" lon="-4.816167">
        <ele>1665.0</ele>
        <time>2015-08-16T14:29:25Z</time>
      </trkpt>
      <trkpt lat="40.617650" lon="-4.816067">
        <ele>1663.0</ele>
        <time>2015-08-16T14:29:26Z</time>
      </trkpt>
      <trkpt lat="40.617650" lon="-4.815967">
        <ele>1661.0</ele>
        <time>2015-08-16T14:29:27Z</time>
      </trkpt>
      <trkpt lat="40.617650" lon="-4.815850">
        <ele>1660.0</ele>
        <time>2015-08-16T14:29:28Z</time>
      </trkpt>
      <trkpt lat="40.617650" lon="-4.815750">
        <ele>1658.0</ele>
        <time>2015-08-16T14:29:29Z</time>
      </trkpt>
      <trkpt lat="40.617650" lon="-4.815633">
        <ele>1656.0</ele>
        <time>2015-08-16T14:29:30Z</time>
      </trkpt>
      <trkpt lat="40.617633" lon="-4.815517">
        <ele>1653.0</ele>
        <time>2015-08-16T14:29:31Z</time>
      </trkpt>
      <trkpt lat="40.617617" lon="-4.815400">
        <ele>1651.0</ele>
        <time>2015-08-16T14:29:32Z</time>
      </trkpt>
      <trkpt lat="40.617600" lon="-4.815267">
        <ele>1650.0</ele>
        <time>2015-08-16T14:29:33Z</time>
      </trkpt>
      <trkpt lat="40.617583" lon="-4.815150">
        <ele>1650.0</ele>
        <time>2015-08-16T14:29:34Z</time>
      </trkpt>
      <trkpt lat="40.617567" lon="-4.815050">
        <ele>1649.0</ele>
        <time>2015-08-16T14:29:35Z</time>
      </trkpt>
      <trkpt lat="40.617567" lon="-4.814933">
        <ele>1648.0</ele>
        <time>2015-08-16T14:29:36Z</time>
      </trkpt>
      <trkpt lat="40.617567" lon="-4.814833">
        <ele>1646.0</ele>
        <time>2015-08-16T14:29:37Z</time>
      </trkpt>
      <trkpt lat="40.617583" lon="-4.814717">
        <ele>1644.0</ele>
        <time>2015-08-16T14:29:38Z</time>
      </trkpt>
      <trkpt lat="40.617583" lon="-4.814617">
        <ele>1642.0</ele>
        <time>2015-08-16T14:29:39Z</time>
      </trkpt>
      <trkpt lat="40.617583" lon="-4.814483">
        <ele>1638.0</ele>
        <time>2015-08-16T14:29:40Z</time>
      </trkpt>
      <trkpt lat="40.617583" lon="-4.814367">
        <ele>1635.0</ele>
        <time>2015-08-16T14:29:41Z</time>
      </trkpt>
      <trkpt lat="40.617600" lon="-4.814233">
        <ele>1633.0</ele>
        <time>2015-08-16T14:29:42Z</time>
      </trkpt>
      <trkpt lat="40.617617" lon="-4.814100">
        <ele>1632.0</ele>
        <time>2015-08-16T14:29:43Z</time>
      </trkpt>
      <trkpt lat="40.617650" lon="-4.813983">
        <ele>1631.0</ele>
        <time>2015-08-16T14:29:44Z</time>
      </trkpt>
      <trkpt lat="40.617667" lon="-4.813883">
        <ele>1630.0</ele>
        <time>2015-08-16T14:29:45Z</time>
      </trkpt>
      <trkpt lat="40.617700" lon="-4.813800">
        <ele>1628.0</ele>
        <time>2015-08-16T14:29:46Z</time>
      </trkpt>
      <trkpt lat="40.617733" lon="-4.813700">
        <ele>1625.0</ele>
        <time>2015-08-16T14:29:47Z</time>
      </trkpt>
      <trkpt lat="40.617783" lon="-4.813600">
        <ele>1621.0</ele>
        <time>2015-08-16T14:29:48Z</time>
      </trkpt>
      <trkpt lat="40.617833" lon="-4.813500">
        <ele>1618.0</ele>
        <time>2015-08-16T14:29:49Z</time>
      </trkpt>
      <trkpt lat="40.617900" lon="-4.813400">
        <ele>1617.0</ele>
        <time>2015-08-16T14:29:50Z</time>
      </trkpt>
      <trkpt lat="40.617950" lon="-4.813300">
        <ele>1616.0</ele>
        <time>2015-08-16T14:29:51Z</time>
      </trkpt>
      <trkpt lat="40.618000" lon="-4.813200">
        <ele>1615.0</ele>
        <time>2015-08-16T14:29:52Z</time>
      </trkpt>
      <trkpt lat="40.618033" lon="-4.813117">
        <ele>1613.0</ele>
        <time>2015-08-16T14:29:53Z</time>
      </trkpt>
      <trkpt lat="40.618083" lon="-4.813017">
        <ele>1611.0</ele>
        <time>2015-08-16T14:29:54Z</time>
      </trkpt>
      <trkpt lat="40.618133" lon="-4.812900">
        <ele>1609.0</ele>
        <time>2015-08-16T14:29:55Z</time>
      </trkpt>
      <trkpt lat="40.618183" lon="-4.812800">
        <ele>1606.0</ele>
        <time>2015-08-16T14:29:56Z</time>
      </trkpt>
      <trkpt lat="40.618217" lon="-4.812700">
        <ele>1605.0</ele>
        <time>2015-08-16T14:29:57Z</time>
      </trkpt>
      <trkpt lat="40.618250" lon="-4.812583">
        <ele>1604.0</ele>
        <time>2015-08-16T14:29:58Z</time>
      </trkpt>
      <trkpt lat="40.618283" lon="-4.812483">
        <ele>1603.0</ele>
        <time>2015-08-16T14:29:59Z</time>
      </trkpt>
      <trkpt lat="40.618300" lon="-4.812383">
        <ele>1600.0</ele>
        <time>2015-08-16T14:30:00Z</time>
      </trkpt>
      <trkpt lat="40.618317" lon="-4.812283">
        <ele>1597.0</ele>
        <time>2015-08-16T14:30:01Z</time>
      </trkpt>
      <trkpt lat="40.618350" lon="-4.812183">
        <ele>1592.0</ele>
        <time>2015-08-16T14:30:02Z</time>
      </trkpt>
      <trkpt lat="40.618400" lon="-4.812067">
        <ele>1588.0</ele>
        <time>2015-08-16T14:30:03Z</time>
      </trkpt>
      <trkpt lat="40.618433" lon="-4.811933">
        <ele>1586.0</ele>
        <time>2015-08-16T14:30:04Z</time>
      </trkpt>
      <trkpt lat="40.618450" lon="-4.811817">
        <ele>1584.0</ele>
        <time>2015-08-16T14:30:05Z</time>
      </trkpt>
      <trkpt lat="40.618467" lon="-4.811700">
        <ele>1583.0</ele>
        <time>2015-08-16T14:30:06Z</time>
      </trkpt>
      <trkpt lat="40.618483" lon="-4.811600">
        <ele>1582.0</ele>
        <time>2015-08-16T14:30:07Z</time>
      </trkpt>
      <trkpt lat="40.618500" lon="-4.811500">
        <ele>1579.0</ele>
        <time>2015-08-16T14:30:08Z</time>
      </trkpt>
      <trkpt lat="40.618517" lon="-4.811383">
        <ele>1576.0</ele>
        <time>2015-08-16T14:30:09Z</time>
      </trkpt>
      <trkpt lat="40.618517" lon="-4.811250">
        <ele>1573.0</ele>
        <time>2015-08-16T14:30:10Z</time>
      </trkpt>
      <trkpt lat="40.618533" lon="-4.811133">
        <ele>1570.0</ele>
        <time>2015-08-16T14:30:11Z</time>
      </trkpt>
      <trkpt lat="40.618550" lon="-4.811017">
        <ele>1569.0</ele>
        <time>2015-08-16T14:30:12Z</time>
      </trkpt>
      <trkpt lat="40.618567" lon="-4.810900">
        <ele>1567.0</ele>
        <time>2015-08-16T14:30:13Z</time>
      </trkpt>
      <trkpt lat="40.618583" lon="-4.810783">
        <ele>1565.0</ele>
        <time>2015-08-16T14:30:14Z</time>
      </trkpt>
      <trkpt lat="40.618600" lon="-4.810667">
        <ele>1562.0</ele>
        <time>2015-08-16T14:30:15Z</time>
      </trkpt>
      <trkpt lat="40.618617" lon="-4.810550">
        <ele>1559.0</ele>
        <time>2015-08-16T14:30:16Z</time>
      </trkpt>
      <trkpt lat="40.618633" lon="-4.810433">
        <ele>1557.0</ele>
        <time>2015-08-16T14:30:17Z</time>
      </trkpt>
      <trkpt lat="40.618650" lon="-4.810317">
        <ele>1555.0</ele>
        <time>2015-08-16T14:30:18Z</time>
      </trkpt>
      <trkpt lat="40.618667" lon="-4.810200">
        <ele>1553.0</ele>
        <time>2015-08-16T14:30:19Z</time>
      </trkpt>
      <trkpt lat="40.618683" lon="-4.810100">
        <ele>1552.0</ele>
        <time>2015-08-16T14:30:20Z</time>
      </trkpt>
      <trkpt lat="40.618700" lon="-4.810000">
        <ele>1549.0</ele>
        <time>2015-08-16T14:30:21Z</time>
      </trkpt>
      <trkpt lat="40.618717" lon="-4.809883">
        <ele>1546.0</ele>
        <time>2015-08-16T14:30:22Z</time>
      </trkpt>
      <trkpt lat="40.618733" lon="-4.809750">
        <ele>1542.0</ele>
        <time>2015-08-16T14:30:23Z</time>
      </trkpt>
      <trkpt lat="40.618767" lon="-4.809617">
        <ele>1539.0</ele>
        <time>2015-08-16T14:30:24Z</time>
      </trkpt>
      <trkpt lat="40.618800" lon="-4.809500">
        <ele>1536.0</ele>
        <time>2015-08-16T14:30:25Z</time>
      </trkpt>
      <trkpt lat="40.618833" lon="-4.809383">
        <ele>1534.0</ele>
        <time>2015-08-16T14:30:26Z</time>
      </trkpt>
      <trkpt lat="40.618867" lon="-4.809267">
        <ele>1533.0</ele>
        <time>2015-08-16T14:30:27Z</time>
      </trkpt>
      <trkpt lat="40.618900" lon="-4.809150">
        <ele>1530.0</ele>
        <time>2015-08-16T14:30:28Z</time>
      </trkpt>
      <trkpt lat="40.618933" lon="-4.809033">
        <ele>1528.0</ele>
        <time>2015-08-16T14:30:29Z</time>
      </trkpt>
      <trkpt lat="40.618983" lon="-4.808917">
        <ele>1526.0</ele>
        <time>2015-08-16T14:30:30Z</time>
      </trkpt>
      <trkpt lat="40.619017" lon="-4.808800">
        <ele>1524.0</ele>
        <time>2015-08-16T14:30:31Z</time>
      </trkpt>
      <trkpt lat="40.619050" lon="-4.808683">
        <ele>1523.0</ele>
        <time>2015-08-16T14:30:32Z</time>
      </trkpt>
      <trkpt lat="40.619083" lon="-4.808550">
        <ele>1522.0</ele>
        <time>2015-08-16T14:30:33Z</time>
      </trkpt>
      <trkpt lat="40.619100" lon="-4.808433">
        <ele>1521.0</ele>
        <time>2015-08-16T14:30:34Z</time>
      </trkpt>
      <trkpt lat="40.619133" lon="-4.808300">
        <ele>1519.0</ele>
        <time>2015-08-16T14:30:35Z</time>
      </trkpt>
      <trkpt lat="40.619167" lon="-4.808200">
        <ele>1517.0</ele>
        <time>2015-08-16T14:30:36Z</time>
      </trkpt>
      <trkpt lat="40.619200" lon="-4.808083">
        <ele>1516.0</ele>
        <time>2015-08-16T14:30:37Z</time>
      </trkpt>
      <trkpt lat="40.619217" lon="-4.807950">
        <ele>1513.0</ele>
        <time>2015-08-16T14:30:38Z</time>
      </trkpt>
      <trkpt lat="40.619217" lon="-4.807817">
        <ele>1511.0</ele>
        <time>2015-08-16T14:30:39Z</time>
      </trkpt>
      <trkpt lat="40.619217" lon="-4.807700">
        <ele>1508.0</ele>
        <time>2015-08-16T14:30:40Z</time>
      </trkpt>
      <trkpt lat="40.619217" lon="-4.807567">
        <ele>1505.0</ele>
        <time>2015-08-16T14:30:41Z</time>
      </trkpt>
      <trkpt lat="40.619217" lon="-4.807417">
        <ele>1502.0</ele>
        <time>2015-08-16T14:30:42Z</time>
      </trkpt>
      <trkpt lat="40.619183" lon="-4.807283">
        <ele>1499.0</ele>
        <time>2015-08-16T14:30:43Z</time>
      </trkpt>
      <trkpt lat="40.619150" lon="-4.807133">
        <ele>1497.0</ele>
        <time>2015-08-16T14:30:44Z</time>
      </trkpt>
      <trkpt lat="40.619117" lon="-4.806983">
        <ele>1495.0</ele>
        <time>2015-08-16T14:30:45Z</time>
      </trkpt>
      <trkpt lat="40.619100" lon="-4.806833">
        <ele>1494.0</ele>
        <time>2015-08-16T14:30:46Z</time>
      </trkpt>
      <trkpt lat="40.619100" lon="-4.806700">
        <ele>1493.0</ele>
        <time>2015-08-16T14:30:47Z</time>
      </trkpt>
      <trkpt lat="40.619100" lon="-4.806583">
        <ele>1491.0</ele>
        <time>2015-08-16T14:30:48Z</time>
      </trkpt>
      <trkpt lat="40.619100" lon="-4.806467">
        <ele>1490.0</ele>
        <time>2015-08-16T14:30:49Z</time>
      </trkpt>
      <trkpt lat="40.619083" lon="-4.806350">
        <ele>1488.0</ele>
        <time>2015-08-16T14:30:50Z</time>
      </trkpt>
      <trkpt lat="40.619083" lon="-4.806217">
        <ele>1486.0</ele>
        <time>2015-08-16T14:30:51Z</time>
      </trkpt>
      <trkpt lat="40.619067" lon="-4.806083">
        <ele>1486.0</ele>
        <time>2015-08-16T14:30:52Z</time>
      </trkpt>
      <trkpt lat="40.619083" lon="-4.805950">
        <ele>1486.0</ele>
        <time>2015-08-16T14:30:53Z</time>
      </trkpt>
      <trkpt lat="40.619100" lon="-4.805833">
        <ele>1487.0</ele>
        <time>2015-08-16T14:30:54Z</time>
      </trkpt>
      <trkpt lat="40.619100" lon="-4.805717">
        <ele>1487.0</ele>
        <time>2015-08-16T14:30:55Z</time>
      </trkpt>
      <trkpt lat="40.619100" lon="-4.805617">
        <ele>1486.0</ele>
        <time>2015-08-16T14:30:56Z</time>
      </trkpt>
      <trkpt lat="40.619117" lon="-4.805500">
        <ele>1485.0</ele>
        <time>2015-08-16T14:30:57Z</time>
      </trkpt>
      <trkpt lat="40.619133" lon="-4.805383">
        <ele>1484.0</ele>
        <time>2015-08-16T14:30:58Z</time>
      </trkpt>
      <trkpt lat="40.619150" lon="-4.805283">
        <ele>1483.0</ele>
        <time>2015-08-16T14:30:59Z</time>
      </trkpt>
      <trkpt lat="40.619183" lon="-4.805183">
        <ele>1482.0</ele>
        <time>2015-08-16T14:31:00Z</time>
      </trkpt>
      <trkpt lat="40.619217" lon="-4.805083">
        <ele>1481.0</ele>
        <time>2015-08-16T14:31:01Z</time>
      </trkpt>
      <trkpt lat="40.619233" lon="-4.804983">
        <ele>1480.0</ele>
        <time>2015-08-16T14:31:02Z</time>
      </trkpt>
      <trkpt lat="40.619233" lon="-4.804850">
        <ele>1479.0</ele>
        <time>2015-08-16T14:31:03Z</time>
      </trkpt>
      <trkpt lat="40.619250" lon="-4.804733">
        <ele>1479.0</ele>
        <time>2015-08-16T14:31:04Z</time>
      </trkpt>
      <trkpt lat="40.619250" lon="-4.804633">
        <ele>1478.0</ele>
        <time>2015-08-16T14:31:05Z</time>
      </trkpt>
      <trkpt lat="40.619267" lon="-4.804517">
        <ele>1476.0</ele>
        <time>2015-08-16T14:31:06Z</time>
      </trkpt>
      <trkpt lat="40.619300" lon="-4.804433">
        <ele>1475.0</ele>
        <time>2015-08-16T14:31:07Z</time>
      </trkpt>
      <trkpt lat="40.619367" lon="-4.804350">
        <ele>1473.0</ele>
        <time>2015-08-16T14:31:08Z</time>
      </trkpt>
      <trkpt lat="40.619433" lon="-4.804267">
        <ele>1472.0</ele>
        <time>2015-08-16T14:31:09Z</time>
      </trkpt>
      <trkpt lat="40.619500" lon="-4.804233">
        <ele>1473.0</ele>
        <time>2015-08-16T14:31:10Z</time>
      </trkpt>
      <trkpt lat="40.619567" lon="-4.804217">
        <ele>1472.0</ele>
        <time>2015-08-16T14:31:11Z</time>
      </trkpt>
      <trkpt lat="40.619650" lon="-4.804233">
        <ele>1471.0</ele>
        <time>2015-08-16T14:31:12Z</time>
      </trkpt>
      <trkpt lat="40.619717" lon="-4.804267">
        <ele>1470.0</ele>
        <time>2015-08-16T14:31:13Z</time>
      </trkpt>
      <trkpt lat="40.619783" lon="-4.804317">
        <ele>1468.0</ele>
        <time>2015-08-16T14:31:14Z</time>
      </trkpt>
      <trkpt lat="40.619850" lon="-4.804417">
        <ele>1466.0</ele>
        <time>2015-08-16T14:31:15Z</time>
      </trkpt>
      <trkpt lat="40.619883" lon="-4.804550">
        <ele>1464.0</ele>
        <time>2015-08-16T14:31:16Z</time>
      </trkpt>
      <trkpt lat="40.619883" lon="-4.804683">
        <ele>1463.0</ele>
        <time>2015-08-16T14:31:17Z</time>
      </trkpt>
      <trkpt lat="40.619850" lon="-4.804833">
        <ele>1462.0</ele>
        <time>2015-08-16T14:31:18Z</time>
      </trkpt>
      <trkpt lat="40.619817" lon="-4.804950">
        <ele>1462.0</ele>
        <time>2015-08-16T14:31:19Z</time>
      </trkpt>
      <trkpt lat="40.619750" lon="-4.805050">
        <ele>1461.0</ele>
        <time>2015-08-16T14:31:20Z</time>
      </trkpt>
      <trkpt lat="40.619683" lon="-4.805150">
        <ele>1460.0</ele>
        <time>2015-08-16T14:31:21Z</time>
      </trkpt>
      <trkpt lat="40.619583" lon="-4.805233">
        <ele>1457.0</ele>
        <time>2015-08-16T14:31:22Z</time>
      </trkpt>
      <trkpt lat="40.619450" lon="-4.805317">
        <ele>1454.0</ele>
        <time>2015-08-16T14:31:23Z</time>
      </trkpt>
      <trkpt lat="40.619317" lon="-4.805350">
        <ele>1452.0</ele>
        <time>2015-08-16T14:31:24Z</time>
      </trkpt>
      <trkpt lat="40.619183" lon="-4.805367">
        <ele>1450.0</ele>
        <time>2015-08-16T14:31:25Z</time>
      </trkpt>
      <trkpt lat="40.619050" lon="-4.805333">
        <ele>1449.0</ele>
        <time>2015-08-16T14:31:26Z</time>
      </trkpt>
      <trkpt lat="40.618933" lon="-4.805267">
        <ele>1447.0</ele>
        <time>2015-08-16T14:31:27Z</time>
      </trkpt>
      <trkpt lat="40.618817" lon="-4.805183">
        <ele>1445.0</ele>
        <time>2015-08-16T14:31:28Z</time>
      </trkpt>
      <trkpt lat="40.618717" lon="-4.805067">
        <ele>1442.0</ele>
        <time>2015-08-16T14:31:29Z</time>
      </trkpt>
      <trkpt lat="40.618633" lon="-4.804933">
        <ele>1440.0</ele>
        <time>2015-08-16T14:31:30Z</time>
      </trkpt>
      <trkpt lat="40.618583" lon="-4.804800">
        <ele>1438.0</ele>
        <time>2015-08-16T14:31:31Z</time>
      </trkpt>
      <trkpt lat="40.618567" lon="-4.804667">
        <ele>1436.0</ele>
        <time>2015-08-16T14:31:32Z</time>
      </trkpt>
      <trkpt lat="40.618583" lon="-4.804533">
        <ele>1434.0</ele>
        <time>2015-08-16T14:31:33Z</time>
      </trkpt>
      <trkpt lat="40.618600" lon="-4.804433">
        <ele>1432.0</ele>
        <time>2015-08-16T14:31:34Z</time>
      </trkpt>
      <trkpt lat="40.618633" lon="-4.804333">
        <ele>1430.0</ele>
        <time>2015-08-16T14:31:35Z</time>
      </trkpt>
      <trkpt lat="40.618683" lon="-4.804250">
        <ele>1429.0</ele>
        <time>2015-08-16T14:31:36Z</time>
      </trkpt>
      <trkpt lat="40.618733" lon="-4.804150">
        <ele>1427.0</ele>
        <time>2015-08-16T14:31:37Z</time>
      </trkpt>
      <trkpt lat="40.618767" lon="-4.804050">
        <ele>1425.0</ele>
        <time>2015-08-16T14:31:38Z</time>
      </trkpt>
      <trkpt lat="40.618817" lon="-4.803950">
        <ele>1423.0</ele>
        <time>2015-08-16T14:31:39Z</time>
      </trkpt>
      <trkpt lat="40.618850" lon="-4.803850">
        <ele>1423.0</ele>
        <time>2015-08-16T14:31:40Z</time>
      </trkpt>
      <trkpt lat="40.618900" lon="-4.803750">
        <ele>1422.0</ele>
        <time>2015-08-16T14:31:41Z</time>
      </trkpt>
      <trkpt lat="40.618933" lon="-4.803667">
        <ele>1420.0</ele>
        <time>2015-08-16T14:31:42Z</time>
      </trkpt>
      <trkpt lat="40.618967" lon="-4.803567">
        <ele>1418.0</ele>
        <time>2015-08-16T14:31:43Z</time>
      </trkpt>
      <trkpt lat="40.619000" lon="-4.803467">
        <ele>1415.0</ele>
        <time>2015-08-16T14:31:44Z</time>
      </trkpt>
      <trkpt lat="40.619033" lon="-4.803350">
        <ele>1413.0</ele>
        <time>2015-08-16T14:31:45Z</time>
      </trkpt>
      <trkpt lat="40.619083" lon="-4.803250">
        <ele>1411.0</ele>
        <time>2015-08-16T14:31:46Z</time>
      </trkpt>
      <trkpt lat="40.619117" lon="-4.803150">
        <ele>1410.0</ele>
        <time>2015-08-16T14:31:47Z</time>
      </trkpt>
      <trkpt lat="40.619150" lon="-4.803050">
        <ele>1408.0</ele>
        <time>2015-08-16T14:31:48Z</time>
      </trkpt>
      <trkpt lat="40.619200" lon="-4.802950">
        <ele>1406.0</ele>
        <time>2015-08-16T14:31:49Z</time>
      </trkpt>
      <trkpt lat="40.619250" lon="-4.802867">
        <ele>1403.0</ele>
        <time>2015-08-16T14:31:50Z</time>
      </trkpt>
      <trkpt lat="40.619300" lon="-4.802783">
        <ele>1401.0</ele>
        <time>2015-08-16T14:31:51Z</time>
      </trkpt>
      <trkpt lat="40.619367" lon="-4.802717">
        <ele>1398.0</ele>
        <time>2015-08-16T14:31:52Z</time>
      </trkpt>
      <trkpt lat="40.619433" lon="-4.802633">
        <ele>1396.0</ele>
        <time>2015-08-16T14:31:53Z</time>
      </trkpt>
      <trkpt lat="40.619483" lon="-4.802567">
        <ele>1394.0</ele>
        <time>2015-08-16T14:31:54Z</time>
      </trkpt>
      <trkpt lat="40.619533" lon="-4.802483">
        <ele>1391.0</ele>
        <time>2015-08-16T14:31:55Z</time>
      </trkpt>
      <trkpt lat="40.619600" lon="-4.802417">
        <ele>1388.0</ele>
        <time>2015-08-16T14:31:56Z</time>
      </trkpt>
      <trkpt lat="40.619650" lon="-4.802367">
        <ele>1385.0</ele>
        <time>2015-08-16T14:31:57Z</time>
      </trkpt>
      <trkpt lat="40.619717" lon="-4.802317">
        <ele>1382.0</ele>
        <time>2015-08-16T14:31:58Z</time>
      </trkpt>
      <trkpt lat="40.619783" lon="-4.802267">
        <ele>1380.0</ele>
        <time>2015-08-16T14:31:59Z</time>
      </trkpt>
      <trkpt lat="40.619850" lon="-4.802217">
        <ele>1378.0</ele>
        <time>2015-08-16T14:32:00Z</time>
      </trkpt>
      <trkpt lat="40.619917" lon="-4.802167">
        <ele>1377.0</ele>
        <time>2015-08-16T14:32:01Z</time>
      </trkpt>
      <trkpt lat="40.619983" lon="-4.802133">
        <ele>1376.0</ele>
        <time>2015-08-16T14:32:02Z</time>
      </trkpt>
      <trkpt lat="40.620050" lon="-4.802083">
        <ele>1375.0</ele>
        <time>2015-08-16T14:32:03Z</time>
      </trkpt>
      <trkpt lat="40.620100" lon="-4.802033">
        <ele>1373.0</ele>
        <time>2015-08-16T14:32:04Z</time>
      </trkpt>
      <trkpt lat="40.620167" lon="-4.801983">
        <ele>1370.0</ele>
        <time>2015-08-16T14:32:05Z</time>
      </trkpt>
      <trkpt lat="40.620233" lon="-4.801950">
        <ele>1368.0</ele>
        <time>2015-08-16T14:32:06Z</time>
      </trkpt>
      <trkpt lat="40.620317" lon="-4.801917">
        <ele>1366.0</ele>
        <time>2015-08-16T14:32:07Z</time>
      </trkpt>
      <trkpt lat="40.620383" lon="-4.801883">
        <ele>1364.0</ele>
        <time>2015-08-16T14:32:08Z</time>
      </trkpt>
      <trkpt lat="40.620450" lon="-4.801850">
        <ele>1362.0</ele>
        <time>2015-08-16T14:32:09Z</time>
      </trkpt>
      <trkpt lat="40.620500" lon="-4.801800">
        <ele>1361.0</ele>
        <time>2015-08-16T14:32:10Z</time>
      </trkpt>
      <trkpt lat="40.620567" lon="-4.801767">
        <ele>1359.0</ele>
        <time>2015-08-16T14:32:11Z</time>
      </trkpt>
      <trkpt lat="40.620633" lon="-4.801733">
        <ele>1357.0</ele>
        <time>2015-08-16T14:32:12Z</time>
      </trkpt>
      <trkpt lat="40.620700" lon="-4.801700">
        <ele>1355.0</ele>
        <time>2015-08-16T14:32:13Z</time>
      </trkpt>
      <trkpt lat="40.620767" lon="-4.801667">
        <ele>1352.0</ele>
        <time>2015-08-16T14:32:14Z</time>
      </trkpt>
      <trkpt lat="40.620833" lon="-4.801633">
        <ele>1348.0</ele>
        <time>2015-08-16T14:32:15Z</time>
      </trkpt>
      <trkpt lat="40.620917" lon="-4.801600">
        <ele>1345.0</ele>
        <time>2015-08-16T14:32:16Z</time>
      </trkpt>
      <trkpt lat="40.620983" lon="-4.801567">
        <ele>1343.0</ele>
        <time>2015-08-16T14:32:17Z</time>
      </trkpt>
      <trkpt lat="40.621067" lon="-4.801533">
        <ele>1342.0</ele>
        <time>2015-08-16T14:32:18Z</time>
      </trkpt>
      <trkpt lat="40.621133" lon="-4.801500">
        <ele>1341.0</ele>
        <time>2015-08-16T14:32:19Z</time>
      </trkpt>
      <trkpt lat="40.621200" lon="-4.801483">
        <ele>1339.0</ele>
        <time>2015-08-16T14:32:20Z</time>
      </trkpt>
      <trkpt lat="40.621250" lon="-4.801467">
        <ele>1337.0</ele>
        <time>2015-08-16T14:32:21Z</time>
      </trkpt>
      <trkpt lat="40.621333" lon="-4.801450">
        <ele>1335.0</ele>
        <time>2015-08-16T14:32:22Z</time>
      </trkpt>
      <trkpt lat="40.621400" lon="-4.801400">
        <ele>1332.0</ele>
        <time>2015-08-16T14:32:23Z</time>
      </trkpt>
      <trkpt lat="40.621467" lon="-4.801350">
        <ele>1330.0</ele>
        <time>2015-08-16T14:32:24Z</time>
      </trkpt>
      <trkpt lat="40.621533" lon="-4.801300">
        <ele>1329.0</ele>
        <time>2015-08-16T14:32:25Z</time>
      </trkpt>
      <trkpt lat="40.621617" lon="-4.801250">
        <ele>1327.0</ele>
        <time>2015-08-16T14:32:26Z</time>
      </trkpt>
      <trkpt lat="40.621683" lon="-4.801183">
        <ele>1326.0</ele>
        <time>2015-08-16T14:32:27Z</time>
      </trkpt>
      <trkpt lat="40.621733" lon="-4.801117">
        <ele>1325.0</ele>
        <time>2015-08-16T14:32:28Z</time>
      </trkpt>
      <trkpt lat="40.621800" lon="-4.801050">
        <ele>1324.0</ele>
        <time>2015-08-16T14:32:29Z</time>
      </trkpt>
      <trkpt lat="40.621850" lon="-4.800983">
        <ele>1322.0</ele>
        <time>2015-08-16T14:32:30Z</time>
      </trkpt>
      <trkpt lat="40.621917" lon="-4.800900">
        <ele>1320.0</ele>
        <time>2015-08-16T14:32:31Z</time>
      </trkpt>
      <trkpt lat="40.621967" lon="-4.800817">
        <ele>1318.0</ele>
        <time>2015-08-16T14:32:32Z</time>
      </trkpt>
      <trkpt lat="40.622017" lon="-4.800733">
        <ele>1316.0</ele>
        <time>2015-08-16T14:32:33Z</time>
      </trkpt>
      <trkpt lat="40.622067" lon="-4.800667">
        <ele>1314.0</ele>
        <time>2015-08-16T14:32:34Z</time>
      </trkpt>
      <trkpt lat="40.622133" lon="-4.800600">
        <ele>1313.0</ele>
        <time>2015-08-16T14:32:35Z</time>
      </trkpt>
      <trkpt lat="40.622200" lon="-4.800550">
        <ele>1312.0</ele>
        <time>2015-08-16T14:32:36Z</time>
      </trkpt>
      <trkpt lat="40.622250" lon="-4.800500">
        <ele>1312.0</ele>
        <time>2015-08-16T14:32:37Z</time>
      </trkpt>
      <trkpt lat="40.622317" lon="-4.800433">
        <ele>1311.0</ele>
        <time>2015-08-16T14:32:38Z</time>
      </trkpt>
      <trkpt lat="40.622367" lon="-4.800367">
        <ele>1310.0</ele>
        <time>2015-08-16T14:32:39Z</time>
      </trkpt>
      <trkpt lat="40.622417" lon="-4.800283">
        <ele>1309.0</ele>
        <time>2015-08-16T14:32:40Z</time>
      </trkpt>
      <trkpt lat="40.622467" lon="-4.800233">
        <ele>1308.0</ele>
        <time>2015-08-16T14:32:41Z</time>
      </trkpt>
      <trkpt lat="40.622533" lon="-4.800167">
        <ele>1306.0</ele>
        <time>2015-08-16T14:32:42Z</time>
      </trkpt>
      <trkpt lat="40.622600" lon="-4.800117">
        <ele>1304.0</ele>
        <time>2015-08-16T14:32:43Z</time>
      </trkpt>
      <trkpt lat="40.622667" lon="-4.800050">
        <ele>1301.0</ele>
        <time>2015-08-16T14:32:44Z</time>
      </trkpt>
      <trkpt lat="40.622733" lon="-4.800000">
        <ele>1299.0</ele>
        <time>2015-08-16T14:32:45Z</time>
      </trkpt>
      <trkpt lat="40.622800" lon="-4.799950">
        <ele>1297.0</ele>
        <time>2015-08-16T14:32:46Z</time>
      </trkpt>
      <trkpt lat="40.622867" lon="-4.799900">
        <ele>1295.0</ele>
        <time>2015-08-16T14:32:47Z</time>
      </trkpt>
      <trkpt lat="40.622933" lon="-4.799867">
        <ele>1295.0</ele>
        <time>2015-08-16T14:32:48Z</time>
      </trkpt>
      <trkpt lat="40.623000" lon="-4.799817">
        <ele>1294.0</ele>
        <time>2015-08-16T14:32:49Z</time>
      </trkpt>
      <trkpt lat="40.623050" lon="-4.799750">
        <ele>1293.0</ele>
        <time>2015-08-16T14:32:50Z</time>
      </trkpt>
      <trkpt lat="40.623100" lon="-4.799700">
        <ele>1292.0</ele>
        <time>2015-08-16T14:32:51Z</time>
      </trkpt>
      <trkpt lat="40.623150" lon="-4.799633">
        <ele>1289.0</ele>
        <time>2015-08-16T14:32:52Z</time>
      </trkpt>
      <trkpt lat="40.623200" lon="-4.799583">
        <ele>1287.0</ele>
        <time>2015-08-16T14:32:53Z</time>
      </trkpt>
      <trkpt lat="40.623250" lon="-4.799517">
        <ele>1285.0</ele>
        <time>2015-08-16T14:32:54Z</time>
      </trkpt>
      <trkpt lat="40.623317" lon="-4.799467">
        <ele>1282.0</ele>
        <time>2015-08-16T14:32:55Z</time>
      </trkpt>
      <trkpt lat="40.623367" lon="-4.799417">
        <ele>1281.0</ele>
        <time>2015-08-16T14:32:56Z</time>
      </trkpt>
      <trkpt lat="40.623417" lon="-4.799350">
        <ele>1281.0</ele>
        <time>2015-08-16T14:32:57Z</time>
      </trkpt>
      <trkpt lat="40.623450" lon="-4.799283">
        <ele>1281.0</ele>
        <time>2015-08-16T14:32:58Z</time>
      </trkpt>
      <trkpt lat="40.623483" lon="-4.799200">
        <ele>1281.0</ele>
        <time>2015-08-16T14:32:59Z</time>
      </trkpt>
      <trkpt lat="40.623533" lon="-4.799117">
        <ele>1280.0</ele>
        <time>2015-08-16T14:33:00Z</time>
      </trkpt>
      <trkpt lat="40.623567" lon="-4.799050">
        <ele>1279.0</ele>
        <time>2015-08-16T14:33:01Z</time>
      </trkpt>
      <trkpt lat="40.623617" lon="-4.798983">
        <ele>1279.0</ele>
        <time>2015-08-16T14:33:02Z</time>
      </trkpt>
      <trkpt lat="40.623667" lon="-4.798917">
        <ele>1280.0</ele>
        <time>2015-08-16T14:33:03Z</time>
      </trkpt>
      <trkpt lat="40.623700" lon="-4.798850">
        <ele>1280.0</ele>
        <time>2015-08-16T14:33:04Z</time>
      </trkpt>
      <trkpt lat="40.623767" lon="-4.798800">
        <ele>1281.0</ele>
        <time>2015-08-16T14:33:05Z</time>
      </trkpt>
      <trkpt lat="40.623817" lon="-4.798733">
        <ele>1282.0</ele>
        <time>2015-08-16T14:33:06Z</time>
      </trkpt>
      <trkpt lat="40.623867" lon="-4.798650">
        <ele>1284.0</ele>
        <time>2015-08-16T14:33:07Z</time>
      </trkpt>
      <trkpt lat="40.623917" lon="-4.798583">
        <ele>1286.0</ele>
        <time>2015-08-16T14:33:08Z</time>
      </trkpt>
      <trkpt lat="40.623933" lon="-4.798500">
        <ele>1287.0</ele>
        <time>2015-08-16T14:33:09Z</time>
      </trkpt>
      <trkpt lat="40.623967" lon="-4.798417">
        <ele>1289.0</ele>
        <time>2015-08-16T14:33:10Z</time>
      </trkpt>
      <trkpt lat="40.623983" lon="-4.798317">
        <ele>1290.0</ele>
        <time>2015-08-16T14:33:11Z</time>
      </trkpt>
      <trkpt lat="40.623967" lon="-4.798217">
        <ele>1290.0</ele>
        <time>2015-08-16T14:33:12Z</time>
      </trkpt>
      <trkpt lat="40.623950" lon="-4.798117">
        <ele>1290.0</ele>
        <time>2015-08-16T14:33:13Z</time>
      </trkpt>
      <trkpt lat="40.623900" lon="-4.798000">
        <ele>1290.0</ele>
        <time>2015-08-16T14:33:14Z</time>
      </trkpt>
      <trkpt lat="40.623850" lon="-4.797900">
        <ele>1290.0</ele>
        <time>2015-08-16T14:33:15Z</time>
      </trkpt>
      <trkpt lat="40.623767" lon="-4.797817">
        <ele>1289.0</ele>
        <time>2015-08-16T14:33:16Z</time>
      </trkpt>
      <trkpt lat="40.623650" lon="-4.797767">
        <ele>1289.0</ele>
        <time>2015-08-16T14:33:17Z</time>
      </trkpt>
      <trkpt lat="40.623533" lon="-4.797767">
        <ele>1287.0</ele>
        <time>2015-08-16T14:33:18Z</time>
      </trkpt>
      <trkpt lat="40.623417" lon="-4.797800">
        <ele>1285.0</ele>
        <time>2015-08-16T14:33:19Z</time>
      </trkpt>
      <trkpt lat="40.623333" lon="-4.797900">
        <ele>1283.0</ele>
        <time>2015-08-16T14:33:20Z</time>
      </trkpt>
      <trkpt lat="40.623283" lon="-4.798000">
        <ele>1283.0</ele>
        <time>2015-08-16T14:33:21Z</time>
      </trkpt>
      <trkpt lat="40.623283" lon="-4.798100">
        <ele>1282.0</ele>
        <time>2015-08-16T14:33:22Z</time>
      </trkpt>
      <trkpt lat="40.623317" lon="-4.798183">
        <ele>1282.0</ele>
        <time>2015-08-16T14:33:23Z</time>
      </trkpt>
      <trkpt lat="40.623317" lon="-4.798267">
        <ele>1282.0</ele>
        <time>2015-08-16T14:33:24Z</time>
      </trkpt>
      <trkpt lat="40.623317" lon="-4.798350">
        <ele>1283.0</ele>
        <time>2015-08-16T14:33:25Z</time>
      </trkpt>
      <trkpt lat="40.623300" lon="-4.798450">
        <ele>1283.0</ele>
        <time>2015-08-16T14:33:26Z</time>
      </trkpt>
      <trkpt lat="40.623267" lon="-4.798567">
        <ele>1283.0</ele>
        <time>2015-08-16T14:33:27Z</time>
      </trkpt>
      <trkpt lat="40.623250" lon="-4.798667">
        <ele>1284.0</ele>
        <time>2015-08-16T14:33:28Z</time>
      </trkpt>
      <trkpt lat="40.623267" lon="-4.798750">
        <ele>1284.0</ele>
        <time>2015-08-16T14:33:29Z</time>
      </trkpt>
      <trkpt lat="40.623283" lon="-4.798833">
        <ele>1285.0</ele>
        <time>2015-08-16T14:33:30Z</time>
      </trkpt>
      <trkpt lat="40.623333" lon="-4.798900">
        <ele>1285.0</ele>
        <time>2015-08-16T14:33:31Z</time>
      </trkpt>
      <trkpt lat="40.623383" lon="-4.798933">
        <ele>1286.0</ele>
        <time>2015-08-16T14:33:32Z</time>
      </trkpt>
      <trkpt lat="40.623433" lon="-4.798950">
        <ele>1288.0</ele>
        <time>2015-08-16T14:33:33Z</time>
      </trkpt>
      <trkpt lat="40.623483" lon="-4.798933">
        <ele>1289.0</ele>
        <time>2015-08-16T14:33:34Z</time>
      </trkpt>
      <trkpt lat="40.623533" lon="-4.798917">
        <ele>1290.0</ele>
        <time>2015-08-16T14:33:35Z</time>
      </trkpt>
      <trkpt lat="40.623583" lon="-4.798850">
        <ele>1290.0</ele>
        <time>2015-08-16T14:33:36Z</time>
      </trkpt>
      <trkpt lat="40.623633" lon="-4.798750">
        <ele>1290.0</ele>
        <time>2015-08-16T14:33:37Z</time>
      </trkpt>
      <trkpt lat="40.623650" lon="-4.798633">
        <ele>1290.0</ele>
        <time>2015-08-16T14:33:38Z</time>
      </trkpt>
      <trkpt lat="40.623633" lon="-4.798500">
        <ele>1289.0</ele>
        <time>2015-08-16T14:33:39Z</time>
      </trkpt>
      <trkpt lat="40.623583" lon="-4.798350">
        <ele>1287.0</ele>
        <time>2015-08-16T14:33:40Z</time>
      </trkpt>
      <trkpt lat="40.623517" lon="-4.798233">
        <ele>1287.0</ele>
        <time>2015-08-16T14:33:41Z</time>
      </trkpt>
      <trkpt lat="40.623400" lon="-4.798133">
        <ele>1287.0</ele>
        <time>2015-08-16T14:33:42Z</time>
      </trkpt>
      <trkpt lat="40.623283" lon="-4.798083">
        <ele>1286.0</ele>
        <time>2015-08-16T14:33:43Z</time>
      </trkpt>
      <trkpt lat="40.623150" lon="-4.798083">
        <ele>1286.0</ele>
        <time>2015-08-16T14:33:44Z</time>
      </trkpt>
      <trkpt lat="40.623017" lon="-4.798117">
        <ele>1287.0</ele>
        <time>2015-08-16T14:33:45Z</time>
      </trkpt>
      <trkpt lat="40.622917" lon="-4.798183">
        <ele>1286.0</ele>
        <time>2015-08-16T14:33:46Z</time>
      </trkpt>
      <trkpt lat="40.622817" lon="-4.798283">
        <ele>1286.0</ele>
        <time>2015-08-16T14:33:47Z</time>
      </trkpt>
      <trkpt lat="40.622750" lon="-4.798417">
        <ele>1285.0</ele>
        <time>2015-08-16T14:33:48Z</time>
      </trkpt>
      <trkpt lat="40.622717" lon="-4.798567">
        <ele>1285.0</ele>
        <time>2015-08-16T14:33:49Z</time>
      </trkpt>
      <trkpt lat="40.622717" lon="-4.798683">
        <ele>1284.0</ele>
        <time>2015-08-16T14:33:50Z</time>
      </trkpt>
      <trkpt lat="40.622717" lon="-4.798800">
        <ele>1285.0</ele>
        <time>2015-08-16T14:33:51Z</time>
      </trkpt>
      <trkpt lat="40.622733" lon="-4.798900">
        <ele>1286.0</ele>
        <time>2015-08-16T14:33:52Z</time>
      </trkpt>
      <trkpt lat="40.622750" lon="-4.798983">
        <ele>1288.0</ele>
        <time>2015-08-16T14:33:53Z</time>
      </trkpt>
      <trkpt lat="40.622733" lon="-4.799067">
        <ele>1289.0</ele>
        <time>2015-08-16T14:33:54Z</time>
      </trkpt>
      <trkpt lat="40.622700" lon="-4.799150">
        <ele>1290.0</ele>
        <time>2015-08-16T14:33:55Z</time>
      </trkpt>
      <trkpt lat="40.622683" lon="-4.799233">
        <ele>1289.0</ele>
        <time>2015-08-16T14:33:56Z</time>
      </trkpt>
      <trkpt lat="40.622683" lon="-4.799317">
        <ele>1287.0</ele>
        <time>2015-08-16T14:33:57Z</time>
      </trkpt>
      <trkpt lat="40.622717" lon="-4.799367">
        <ele>1286.0</ele>
        <time>2015-08-16T14:33:58Z</time>
      </trkpt>
      <trkpt lat="40.622767" lon="-4.799383">
        <ele>1284.0</ele>
        <time>2015-08-16T14:33:59Z</time>
      </trkpt>
      <trkpt lat="40.622833" lon="-4.799383">
        <ele>1284.0</ele>
        <time>2015-08-16T14:34:00Z</time>
      </trkpt>
      <trkpt lat="40.622883" lon="-4.799350">
        <ele>1284.0</ele>
        <time>2015-08-16T14:34:01Z</time>
      </trkpt>
      <trkpt lat="40.622933" lon="-4.799300">
        <ele>1285.0</ele>
        <time>2015-08-16T14:34:02Z</time>
      </trkpt>
      <trkpt lat="40.622983" lon="-4.799250">
        <ele>1286.0</ele>
        <time>2015-08-16T14:34:03Z</time>
      </trkpt>
      <trkpt lat="40.623033" lon="-4.799233">
        <ele>1286.0</ele>
        <time>2015-08-16T14:34:04Z</time>
      </trkpt>
      <trkpt lat="40.623100" lon="-4.799217">
        <ele>1286.0</ele>
        <time>2015-08-16T14:34:05Z</time>
      </trkpt>
      <trkpt lat="40.623167" lon="-4.799217">
        <ele>1287.0</ele>
        <time>2015-08-16T14:34:06Z</time>
      </trkpt>
      <trkpt lat="40.623233" lon="-4.799217">
        <ele>1288.0</ele>
        <time>2015-08-16T14:34:07Z</time>
      </trkpt>
      <trkpt lat="40.623283" lon="-4.799200">
        <ele>1288.0</ele>
        <time>2015-08-16T14:34:08Z</time>
      </trkpt>
      <trkpt lat="40.623333" lon="-4.799200">
        <ele>1287.0</ele>
        <time>2015-08-16T14:34:09Z</time>
      </trkpt>
      <trkpt lat="40.623383" lon="-4.799183">
        <ele>1285.0</ele>
        <time>2015-08-16T14:34:10Z</time>
      </trkpt>
      <trkpt lat="40.623433" lon="-4.799133">
        <ele>1282.0</ele>
        <time>2015-08-16T14:34:11Z</time>
      </trkpt>
      <trkpt lat="40.623483" lon="-4.799050">
        <ele>1279.0</ele>
        <time>2015-08-16T14:34:12Z</time>
      </trkpt>
      <trkpt lat="40.623533" lon="-4.798950">
        <ele>1276.0</ele>
        <time>2015-08-16T14:34:13Z</time>
      </trkpt>
      <trkpt lat="40.623550" lon="-4.798800">
        <ele>1274.0</ele>
        <time>2015-08-16T14:34:14Z</time>
      </trkpt>
      <trkpt lat="40.623533" lon="-4.798667">
        <ele>1273.0</ele>
        <time>2015-08-16T14:34:15Z</time>
      </trkpt>
      <trkpt lat="40.623517" lon="-4.798550">
        <ele>1273.0</ele>
        <time>2015-08-16T14:34:16Z</time>
      </trkpt>
      <trkpt lat="40.623467" lon="-4.798433">
        <ele>1273.0</ele>
        <time>2015-08-16T14:34:17Z</time>
      </trkpt>
      <trkpt lat="40.623400" lon="-4.798333">
        <ele>1272.0</ele>
        <time>2015-08-16T14:34:18Z</time>
      </trkpt>
      <trkpt lat="40.623333" lon="-4.798233">
        <ele>1271.0</ele>
        <time>2015-08-16T14:34:19Z</time>
      </trkpt>
      <trkpt lat="40.623250" lon="-4.798150">
        <ele>1269.0</ele>
        <time>2015-08-16T14:34:20Z</time>
      </trkpt>
      <trkpt lat="40.623167" lon="-4.798050">
        <ele>1267.0</ele>
        <time>2015-08-16T14:34:21Z</time>
      </trkpt>
      <trkpt lat="40.623083" lon="-4.797967">
        <ele>1266.0</ele>
        <time>2015-08-16T14:34:22Z</time>
      </trkpt>
      <trkpt lat="40.623000" lon="-4.797867">
        <ele>1264.0</ele>
        <time>2015-08-16T14:34:23Z</time>
      </trkpt>
      <trkpt lat="40.622917" lon="-4.797750">
        <ele>1261.0</ele>
        <time>2015-08-16T14:34:24Z</time>
      </trkpt>
      <trkpt lat="40.622817" lon="-4.797633">
        <ele>1260.0</ele>
        <time>2015-08-16T14:34:25Z</time>
      </trkpt>
      <trkpt lat="40.622750" lon="-4.797500">
        <ele>1259.0</ele>
        <time>2015-08-16T14:34:26Z</time>
      </trkpt>
      <trkpt lat="40.622700" lon="-4.797383">
        <ele>1258.0</ele>
        <time>2015-08-16T14:34:27Z</time>
      </trkpt>
      <trkpt lat="40.622650" lon="-4.797283">
        <ele>1257.0</ele>
        <time>2015-08-16T14:34:28Z</time>
      </trkpt>
      <trkpt lat="40.622617" lon="-4.797167">
        <ele>1255.0</ele>
        <time>2015-08-16T14:34:29Z</time>
      </trkpt>
      <trkpt lat="40.622550" lon="-4.797033">
        <ele>1253.0</ele>
        <time>2015-08-16T14:34:30Z</time>
      </trkpt>
      <trkpt lat="40.622500" lon="-4.796900">
        <ele>1253.0</ele>
        <time>2015-08-16T14:34:31Z</time>
      </trkpt>
      <trkpt lat="40.622433" lon="-4.796783">
        <ele>1253.0</ele>
        <time>2015-08-16T14:34:32Z</time>
      </trkpt>
      <trkpt lat="40.622400" lon="-4.796667">
        <ele>1254.0</ele>
        <time>2015-08-16T14:34:33Z</time>
      </trkpt>
      <trkpt lat="40.622383" lon="-4.796567">
        <ele>1254.0</ele>
        <time>2015-08-16T14:34:34Z</time>
      </trkpt>
      <trkpt lat="40.622367" lon="-4.796483">
        <ele>1253.0</ele>
        <time>2015-08-16T14:34:35Z</time>
      </trkpt>
      <trkpt lat="40.622367" lon="-4.796383">
        <ele>1252.0</ele>
        <time>2015-08-16T14:34:36Z</time>
      </trkpt>
      <trkpt lat="40.622383" lon="-4.796300">
        <ele>1250.0</ele>
        <time>2015-08-16T14:34:37Z</time>
      </trkpt>
      <trkpt lat="40.622400" lon="-4.796200">
        <ele>1248.0</ele>
        <time>2015-08-16T14:34:38Z</time>
      </trkpt>
      <trkpt lat="40.622417" lon="-4.796100">
        <ele>1246.0</ele>
        <time>2015-08-16T14:34:39Z</time>
      </trkpt>
      <trkpt lat="40.622450" lon="-4.796017">
        <ele>1244.0</ele>
        <time>2015-08-16T14:34:40Z</time>
      </trkpt>
      <trkpt lat="40.622467" lon="-4.795933">
        <ele>1243.0</ele>
        <time>2015-08-16T14:34:41Z</time>
      </trkpt>
      <trkpt lat="40.622483" lon="-4.795850">
        <ele>1242.0</ele>
        <time>2015-08-16T14:34:42Z</time>
      </trkpt>
      <trkpt lat="40.622500" lon="-4.795767">
        <ele>1239.0</ele>
        <time>2015-08-16T14:34:43Z</time>
      </trkpt>
      <trkpt lat="40.622517" lon="-4.795683">
        <ele>1236.0</ele>
        <time>2015-08-16T14:34:44Z</time>
      </trkpt>
      <trkpt lat="40.622550" lon="-4.795583">
        <ele>1233.0</ele>
        <time>2015-08-16T14:34:45Z</time>
      </trkpt>
      <trkpt lat="40.622567" lon="-4.795483">
        <ele>1231.0</ele>
        <time>2015-08-16T14:34:46Z</time>
      </trkpt>
      <trkpt lat="40.622583" lon="-4.795400">
        <ele>1230.0</ele>
        <time>2015-08-16T14:34:47Z</time>
      </trkpt>
      <trkpt lat="40.622617" lon="-4.795350">
        <ele>1227.0</ele>
        <time>2015-08-16T14:34:48Z</time>
      </trkpt>
      <trkpt lat="40.622667" lon="-4.795317">
        <ele>1225.0</ele>
        <time>2015-08-16T14:34:49Z</time>
      </trkpt>
      <trkpt lat="40.622717" lon="-4.795333">
        <ele>1222.0</ele>
        <time>2015-08-16T14:34:50Z</time>
      </trkpt>
      <trkpt lat="40.622767" lon="-4.795383">
        <ele>1220.0</ele>
        <time>2015-08-16T14:34:51Z</time>
      </trkpt>
      <trkpt lat="40.622800" lon="-4.795467">
        <ele>1218.0</ele>
        <time>2015-08-16T14:34:52Z</time>
      </trkpt>
      <trkpt lat="40.622800" lon="-4.795567">
        <ele>1218.0</ele>
        <time>2015-08-16T14:34:53Z</time>
      </trkpt>
      <trkpt lat="40.622783" lon="-4.795683">
        <ele>1217.0</ele>
        <time>2015-08-16T14:34:54Z</time>
      </trkpt>
      <trkpt lat="40.622783" lon="-4.795767">
        <ele>1216.0</ele>
        <time>2015-08-16T14:34:55Z</time>
      </trkpt>
      <trkpt lat="40.622800" lon="-4.795850">
        <ele>1213.0</ele>
        <time>2015-08-16T14:34:56Z</time>
      </trkpt>
      <trkpt lat="40.622817" lon="-4.795950">
        <ele>1211.0</ele>
        <time>2015-08-16T14:34:57Z</time>
      </trkpt>
      <trkpt lat="40.622833" lon="-4.796050">
        <ele>1209.0</ele>
        <time>2015-08-16T14:34:58Z</time>
      </trkpt>
      <trkpt lat="40.622850" lon="-4.796150">
        <ele>1208.0</ele>
        <time>2015-08-16T14:34:59Z</time>
      </trkpt>
      <trkpt lat="40.622867" lon="-4.796250">
        <ele>1208.0</ele>
        <time>2015-08-16T14:35:00Z</time>
      </trkpt>
      <trkpt lat="40.622900" lon="-4.796317">
        <ele>1207.0</ele>
        <time>2015-08-16T14:35:01Z</time>
      </trkpt>
      <trkpt lat="40.622933" lon="-4.796383">
        <ele>1206.0</ele>
        <time>2015-08-16T14:35:02Z</time>
      </trkpt>
      <trkpt lat="40.622967" lon="-4.796450">
        <ele>1205.0</ele>
        <time>2015-08-16T14:35:03Z</time>
      </trkpt>
      <trkpt lat="40.623000" lon="-4.796533">
        <ele>1203.0</ele>
        <time>2015-08-16T14:35:04Z</time>
      </trkpt>
      <trkpt lat="40.623033" lon="-4.796617">
        <ele>1201.0</ele>
        <time>2015-08-16T14:35:05Z</time>
      </trkpt>
      <trkpt lat="40.623083" lon="-4.796667">
        <ele>1199.0</ele>
        <time>2015-08-16T14:35:06Z</time>
      </trkpt>
      <trkpt lat="40.623133" lon="-4.796700">
        <ele>1196.0</ele>
        <time>2015-08-16T14:35:07Z</time>
      </trkpt>
      <trkpt lat="40.623200" lon="-4.796717">
        <ele>1193.0</ele>
        <time>2015-08-16T14:35:08Z</time>
      </trkpt>
      <trkpt lat="40.623267" lon="-4.796783">
        <ele>1190.0</ele>
        <time>2015-08-16T14:35:09Z</time>
      </trkpt>
      <trkpt lat="40.623317" lon="-4.796867">
        <ele>1188.0</ele>
        <time>2015-08-16T14:35:10Z</time>
      </trkpt>
      <trkpt lat="40.623350" lon="-4.796933">
        <ele>1187.0</ele>
        <time>2015-08-16T14:35:11Z</time>
      </trkpt>
      <trkpt lat="40.623417" lon="-4.796983">
        <ele>1185.0</ele>
        <time>2015-08-16T14:35:12Z</time>
      </trkpt>
      <trkpt lat="40.623467" lon="-4.796983">
        <ele>1182.0</ele>
        <time>2015-08-16T14:35:13Z</time>
      </trkpt>
      <trkpt lat="40.623533" lon="-4.796950">
        <ele>1179.0</ele>
        <time>2015-08-16T14:35:14Z</time>
      </trkpt>
      <trkpt lat="40.623600" lon="-4.796900">
        <ele>1177.0</ele>
        <time>2015-08-16T14:35:15Z</time>
      </trkpt>
      <trkpt lat="40.623650" lon="-4.796850">
        <ele>1177.0</ele>
        <time>2015-08-16T14:35:16Z</time>
      </trkpt>
      <trkpt lat="40.623700" lon="-4.796817">
        <ele>1176.0</ele>
        <time>2015-08-16T14:35:17Z</time>
      </trkpt>
      <trkpt lat="40.623733" lon="-4.796750">
        <ele>1174.0</ele>
        <time>2015-08-16T14:35:18Z</time>
      </trkpt>
      <trkpt lat="40.623750" lon="-4.796667">
        <ele>1172.0</ele>
        <time>2015-08-16T14:35:19Z</time>
      </trkpt>
      <trkpt lat="40.623750" lon="-4.796533">
        <ele>1168.0</ele>
        <time>2015-08-16T14:35:20Z</time>
      </trkpt>
      <trkpt lat="40.623700" lon="-4.796400">
        <ele>1165.0</ele>
        <time>2015-08-16T14:35:21Z</time>
      </trkpt>
      <trkpt lat="40.623600" lon="-4.796283">
        <ele>1163.0</ele>
        <time>2015-08-16T14:35:22Z</time>
      </trkpt>
      <trkpt lat="40.623450" lon="-4.796200">
        <ele>1161.0</ele>
        <time>2015-08-16T14:35:23Z</time>
      </trkpt>
      <trkpt lat="40.623317" lon="-4.796150">
        <ele>1160.0</ele>
        <time>2015-08-16T14:35:24Z</time>
      </trkpt>
      <trkpt lat="40.623183" lon="-4.796117">
        <ele>1160.0</ele>
        <time>2015-08-16T14:35:25Z</time>
      </trkpt>
      <trkpt lat="40.623083" lon="-4.796033">
        <ele>1160.0</ele>
        <time>2015-08-16T14:35:26Z</time>
      </trkpt>
      <trkpt lat="40.623017" lon="-4.795933">
        <ele>1157.0</ele>
        <time>2015-08-16T14:35:27Z</time>
      </trkpt>
      <trkpt lat="40.622983" lon="-4.795800">
        <ele>1153.0</ele>
        <time>2015-08-16T14:35:28Z</time>
      </trkpt>
      <trkpt lat="40.622983" lon="-4.795650">
        <ele>1150.0</ele>
        <time>2015-08-16T14:35:29Z</time>
      </trkpt>
      <trkpt lat="40.623017" lon="-4.795550">
        <ele>1149.0</ele>
        <time>2015-08-16T14:35:30Z</time>
      </trkpt>
      <trkpt lat="40.623083" lon="-4.795500">
        <ele>1147.0</ele>
        <time>2015-08-16T14:35:31Z</time>
      </trkpt>
      <trkpt lat="40.623150" lon="-4.795533">
        <ele>1146.0</ele>
        <time>2015-08-16T14:35:32Z</time>
      </trkpt>
      <trkpt lat="40.623183" lon="-4.795600">
        <ele>1146.0</ele>
        <time>2015-08-16T14:35:33Z</time>
      </trkpt>
      <trkpt lat="40.623200" lon="-4.795683">
        <ele>1147.0</ele>
        <time>2015-08-16T14:35:34Z</time>
      </trkpt>
      <trkpt lat="40.623200" lon="-4.795767">
        <ele>1147.0</ele>
        <time>2015-08-16T14:35:35Z</time>
      </trkpt>
      <trkpt lat="40.623217" lon="-4.795850">
        <ele>1146.0</ele>
        <time>2015-08-16T14:35:36Z</time>
      </trkpt>
      <trkpt lat="40.623233" lon="-4.795917">
        <ele>1144.0</ele>
        <time>2015-08-16T14:35:37Z</time>
      </trkpt>
      <trkpt lat="40.623283" lon="-4.795983">
        <ele>1143.0</ele>
        <time>2015-08-16T14:35:38Z</time>
      </trkpt>
      <trkpt lat="40.623350" lon="-4.796033">
        <ele>1143.0</ele>
        <time>2015-08-16T14:35:39Z</time>
      </trkpt>
      <trkpt lat="40.623400" lon="-4.796067">
        <ele>1145.0</ele>
        <time>2015-08-16T14:35:40Z</time>
      </trkpt>
      <trkpt lat="40.623433" lon="-4.796117">
        <ele>1146.0</ele>
        <time>2015-08-16T14:35:41Z</time>
      </trkpt>
      <trkpt lat="40.623450" lon="-4.796150">
        <ele>1146.0</ele>
        <time>2015-08-16T14:35:42Z</time>
      </trkpt>
      <trkpt lat="40.623500" lon="-4.796200">
        <ele>1144.0</ele>
        <time>2015-08-16T14:35:43Z</time>
      </trkpt>
      <trkpt lat="40.623550" lon="-4.796233">
        <ele>1141.0</ele>
        <time>2015-08-16T14:35:44Z</time>
      </trkpt>
      <trkpt lat="40.623600" lon="-4.796250">
        <ele>1139.0</ele>
        <time>2015-08-16T14:35:45Z</time>
      </trkpt>
      <trkpt lat="40.623667" lon="-4.796250">
        <ele>1137.0</ele>
        <time>2015-08-16T14:35:46Z</time>
      </trkpt>
      <trkpt lat="40.623717" lon="-4.796283">
        <ele>1136.0</ele>
        <time>2015-08-16T14:35:47Z</time>
      </trkpt>
      <trkpt lat="40.623750" lon="-4.796333">
        <ele>1136.0</ele>
        <time>2015-08-16T14:35:48Z</time>
      </trkpt>
      <trkpt lat="40.623767" lon="-4.796417">
        <ele>1133.0</ele>
        <time>2015-08-16T14:35:49Z</time>
      </trkpt>
      <trkpt lat="40.623783" lon="-4.796500">
        <ele>1130.0</ele>
        <time>2015-08-16T14:35:50Z</time>
      </trkpt>
      <trkpt lat="40.623817" lon="-4.796583">
        <ele>1128.0</ele>
        <time>2015-08-16T14:35:51Z</time>
      </trkpt>
      <trkpt lat="40.623883" lon="-4.796633">
        <ele>1125.0</ele>
        <time>2015-08-16T14:35:52Z</time>
      </trkpt>
      <trkpt lat="40.623950" lon="-4.796617">
        <ele>1121.0</ele>
        <time>2015-08-16T14:35:53Z</time>
      </trkpt>
      <trkpt lat="40.624017" lon="-4.796567">
        <ele>1119.0</ele>
        <time>2015-08-16T14:35:54Z</time>
      </trkpt>
      <trkpt lat="40.624050" lon="-4.796483">
        <ele>1119.0</ele>
        <time>2015-08-16T14:35:55Z</time>
      </trkpt>
      <trkpt lat="40.624067" lon="-4.796383">
        <ele>1117.0</ele>
        <time>2015-08-16T14:35:56Z</time>
      </trkpt>
      <trkpt lat="40.624050" lon="-4.796267">
        <ele>1116.0</ele>
        <time>2015-08-16T14:35:57Z</time>
      </trkpt>
      <trkpt lat="40.624050" lon="-4.796167">
        <ele>1114.0</ele>
        <time>2015-08-16T14:35:58Z</time>
      </trkpt>
      <trkpt lat="40.624067" lon="-4.796050">
        <ele>1111.0</ele>
        <time>2015-08-16T14:35:59Z</time>
      </trkpt>
      <trkpt lat="40.624100" lon="-4.795933">
        <ele>1108.0</ele>
        <time>2015-08-16T14:36:00Z</time>
      </trkpt>
      <trkpt lat="40.624117" lon="-4.795833">
        <ele>1106.0</ele>
        <time>2015-08-16T14:36:01Z</time>
      </trkpt>
      <trkpt lat="40.624150" lon="-4.795733">
        <ele>1105.0</ele>
        <time>2015-08-16T14:36:02Z</time>
      </trkpt>
      <trkpt lat="40.624167" lon="-4.795633">
        <ele>1104.0</ele>
        <time>2015-08-16T14:36:03Z</time>
      </trkpt>
      <trkpt lat="40.624200" lon="-4.795517">
        <ele>1103.0</ele>
        <time>2015-08-16T14:36:04Z</time>
      </trkpt>
      <trkpt lat="40.624217" lon="-4.795417">
        <ele>1101.0</ele>
        <time>2015-08-16T14:36:05Z</time>
      </trkpt>
      <trkpt lat="40.624233" lon="-4.795300">
        <ele>1098.0</ele>
        <time>2015-08-16T14:36:06Z</time>
      </trkpt>
      <trkpt lat="40.624267" lon="-4.795200">
        <ele>1097.0</ele>
        <time>2015-08-16T14:36:07Z</time>
      </trkpt>
      <trkpt lat="40.624300" lon="-4.795083">
        <ele>1096.0</ele>
        <time>2015-08-16T14:36:08Z</time>
      </trkpt>
      <trkpt lat="40.624333" lon="-4.795000">
        <ele>1096.0</ele>
        <time>2015-08-16T14:36:09Z</time>
      </trkpt>
      <trkpt lat="40.624383" lon="-4.794917">
        <ele>1096.0</ele>
        <time>2015-08-16T14:36:10Z</time>
      </trkpt>
      <trkpt lat="40.624433" lon="-4.794850">
        <ele>1096.0</ele>
        <time>2015-08-16T14:36:11Z</time>
      </trkpt>
      <trkpt lat="40.624467" lon="-4.794783">
        <ele>1095.0</ele>
        <time>2015-08-16T14:36:12Z</time>
      </trkpt>
      <trkpt lat="40.624483" lon="-4.794700">
        <ele>1093.0</ele>
        <time>2015-08-16T14:36:13Z</time>
      </trkpt>
      <trkpt lat="40.624517" lon="-4.794633">
        <ele>1091.0</ele>
        <time>2015-08-16T14:36:14Z</time>
      </trkpt>
      <trkpt lat="40.624533" lon="-4.794567">
        <ele>1091.0</ele>
        <time>2015-08-16T14:36:15Z</time>
      </trkpt>
      <trkpt lat="40.624567" lon="-4.794550">
        <ele>1090.0</ele>
        <time>2015-08-16T14:36:16Z</time>
      </trkpt>
      <trkpt lat="40.624550" lon="-4.794550">
        <ele>1090.0</ele>
        <time>2015-08-16T14:36:17Z</time>
      </trkpt>
      <trkpt lat="40.624567" lon="-4.794550">
        <ele>1089.0</ele>
        <time>2015-08-16T14:36:18Z</time>
      </trkpt>
      <trkpt lat="40.624567" lon="-4.794550">
        <ele>1089.0</ele>
        <time>2015-08-16T14:36:19Z</time>
      </trkpt>
      <trkpt lat="40.624567" lon="-4.794550">
        <ele>1089.0</ele>
        <time>2015-08-16T14:36:20Z</time>
      </trkpt>
      <trkpt lat="40.624550" lon="-4.794533">
        <ele>1089.0</ele>
        <time>2015-08-16T14:36:21Z</time>
      </trkpt>
      <trkpt lat="40.624550" lon="-4.794533">
        <ele>1088.0</ele>
        <time>2015-08-16T14:36:22Z</time>
      </trkpt>
      <trkpt lat="40.624550" lon="-4.794550">
        <ele>1088.0</ele>
        <time>2015-08-16T14:36:23Z</time>
      </trkpt>
      <trkpt lat="40.624550" lon="-4.794550">
        <ele>1088.0</ele>
        <time>2015-08-16T14:36:24Z</time>
      </trkpt>
      <trkpt lat="40.624550" lon="-4.794550">
        <ele>1088.0</ele>
        <time>2015-08-16T14:36:25Z</time>
      </trkpt>
      <trkpt lat="40.624550" lon="-4.794550">
        <ele>1087.0</ele>
        <time>2015-08-16T14:36:26Z</time>
      </trkpt>
      <trkpt lat="40.624550" lon="-4.794550">
        <ele>1087.0</ele>
        <time>2015-08-16T14:36:27Z</time>
      </trkpt>
      <trkpt lat="40.624550" lon="-4.794550">
        <ele>1087.0</ele>
        <time>2015-08-16T14:36:28Z</time>
      </trkpt>
      <trkpt lat="40.624550" lon="-4.794550">
        <ele>1087.0</ele>
        <time>2015-08-16T14:36:29Z</time>
      </trkpt>
      <trkpt lat="40.624550" lon="-4.794533">
        <ele>1087.0</ele>
        <time>2015-08-16T14:36:30Z</time>
      </trkpt>
      <trkpt lat="40.624533" lon="-4.794533">
        <ele>1086.0</ele>
        <time>2015-08-16T14:36:31Z</time>
      </trkpt>
      <trkpt lat="40.624533" lon="-4.794550">
        <ele>1086.0</ele>
        <time>2015-08-16T14:36:32Z</time>
      </trkpt>
      <trkpt lat="40.624533" lon="-4.794550">
        <ele>1085.0</ele>
        <time>2015-08-16T14:36:33Z</time>
      </trkpt>
      <trkpt lat="40.624533" lon="-4.794550">
        <ele>1086.0</ele>
        <time>2015-08-16T14:36:34Z</time>
      </trkpt>
      <trkpt lat="40.624533" lon="-4.794550">
        <ele>1086.0</ele>
        <time>2015-08-16T14:36:35Z</time>
      </trkpt>
      <trkpt lat="40.624533" lon="-4.794550">
        <ele>1087.0</ele>
        <time>2015-08-16T14:36:36Z</time>
      </trkpt>
      <trkpt lat="40.624533" lon="-4.794550">
        <ele>1087.0</ele>
        <time>2015-08-16T14:36:37Z</time>
      </trkpt>
      <trkpt lat="40.624533" lon="-4.794550">
        <ele>1087.0</ele>
        <time>2015-08-16T14:36:38Z</time>
      </trkpt>
    </trkseg>
  </trk>
</gpx>
